<?xml version="1.0" encoding="UTF-8"?><gpx xmlns="http://www.topografix.com/GPX/1/1" version="1.1" creator="iOrient"><trk><name>GreatWalk. Два Кабана</name><trkseg><trkpt lat="55.7611267" lon="49.1379467"><time>2022-10-29T07:47:19.057</time></trkpt><trkpt lat="55.7610717" lon="49.1380183"><time>2022-10-29T07:47:21.050</time></trkpt><trkpt lat="55.7610083" lon="49.1380750"><time>2022-10-29T07:47:23.053</time></trkpt><trkpt lat="55.7609550" lon="49.1381200"><time>2022-10-29T07:47:25.057</time></trkpt><trkpt lat="55.7608933" lon="49.1381750"><time>2022-10-29T07:47:27.057</time></trkpt><trkpt lat="55.7608183" lon="49.1382333"><time>2022-10-29T07:47:29.070</time></trkpt><trkpt lat="55.7613717" lon="49.1373733"><time>2022-10-29T07:47:30.073</time></trkpt><trkpt lat="55.7608217" lon="49.1382283"><time>2022-10-29T07:47:30.980</time></trkpt><trkpt lat="55.7613717" lon="49.1373717"><time>2022-10-29T07:47:31.887</time></trkpt><trkpt lat="55.7608267" lon="49.1382183"><time>2022-10-29T07:47:32.787</time></trkpt><trkpt lat="55.7608317" lon="49.1382133"><time>2022-10-29T07:47:33.673</time></trkpt><trkpt lat="55.7606950" lon="49.1383967"><time>2022-10-29T07:47:35.037</time></trkpt><trkpt lat="55.7606150" lon="49.1384517"><time>2022-10-29T07:47:35.543</time></trkpt><trkpt lat="55.7605400" lon="49.1385083"><time>2022-10-29T07:47:36.547</time></trkpt><trkpt lat="55.7604367" lon="49.1385900"><time>2022-10-29T07:47:38.060</time></trkpt><trkpt lat="55.7604383" lon="49.1385883"><time>2022-10-29T07:47:39.033</time></trkpt><trkpt lat="55.7603900" lon="49.1386183"><time>2022-10-29T07:47:40.043</time></trkpt><trkpt lat="55.7603117" lon="49.1386750"><time>2022-10-29T07:47:41.047</time></trkpt><trkpt lat="55.7602667" lon="49.1387067"><time>2022-10-29T07:47:41.547</time></trkpt><trkpt lat="55.7601833" lon="49.1387783"><time>2022-10-29T07:47:43.047</time></trkpt><trkpt lat="55.7601217" lon="49.1388367"><time>2022-10-29T07:47:44.047</time></trkpt><trkpt lat="55.7600550" lon="49.1388933"><time>2022-10-29T07:47:45.047</time></trkpt><trkpt lat="55.7599900" lon="49.1389467"><time>2022-10-29T07:47:46.047</time></trkpt><trkpt lat="55.7599283" lon="49.1389917"><time>2022-10-29T07:47:47.047</time></trkpt><trkpt lat="55.7598733" lon="49.1390367"><time>2022-10-29T07:47:48.037</time></trkpt><trkpt lat="55.7598200" lon="49.1390867"><time>2022-10-29T07:47:49.050</time></trkpt><trkpt lat="55.7597667" lon="49.1391317"><time>2022-10-29T07:47:50.050</time></trkpt><trkpt lat="55.7597183" lon="49.1391717"><time>2022-10-29T07:47:51.047</time></trkpt><trkpt lat="55.7596617" lon="49.1392167"><time>2022-10-29T07:47:52.047</time></trkpt><trkpt lat="55.7596100" lon="49.1392583"><time>2022-10-29T07:47:53.060</time></trkpt><trkpt lat="55.7594850" lon="49.1392717"><time>2022-10-29T07:47:54.553</time></trkpt><trkpt lat="55.7595183" lon="49.1393417"><time>2022-10-29T07:47:55.050</time></trkpt><trkpt lat="55.7594683" lon="49.1393850"><time>2022-10-29T07:47:55.547</time></trkpt><trkpt lat="55.7594133" lon="49.1394383"><time>2022-10-29T07:47:57.057</time></trkpt><trkpt lat="55.7593733" lon="49.1394767"><time>2022-10-29T07:47:58.053</time></trkpt><trkpt lat="55.7593283" lon="49.1395183"><time>2022-10-29T07:47:59.053</time></trkpt><trkpt lat="55.7592400" lon="49.1395967"><time>2022-10-29T07:48:01.040</time></trkpt><trkpt lat="55.7591967" lon="49.1396183"><time>2022-10-29T07:48:02.043</time></trkpt><trkpt lat="55.7591500" lon="49.1396617"><time>2022-10-29T07:48:03.033</time></trkpt><trkpt lat="55.7591000" lon="49.1396983"><time>2022-10-29T07:48:04.047</time></trkpt><trkpt lat="55.7590550" lon="49.1397383"><time>2022-10-29T07:48:05.047</time></trkpt><trkpt lat="55.7590033" lon="49.1397733"><time>2022-10-29T07:48:06.047</time></trkpt><trkpt lat="55.7589533" lon="49.1398217"><time>2022-10-29T07:48:07.047</time></trkpt><trkpt lat="55.7589017" lon="49.1398717"><time>2022-10-29T07:48:08.050</time></trkpt><trkpt lat="55.7588533" lon="49.1399100"><time>2022-10-29T07:48:09.047</time></trkpt><trkpt lat="55.7588033" lon="49.1399467"><time>2022-10-29T07:48:10.047</time></trkpt><trkpt lat="55.7587600" lon="49.1399833"><time>2022-10-29T07:48:11.050</time></trkpt><trkpt lat="55.7586850" lon="49.1400350"><time>2022-10-29T07:48:13.047</time></trkpt><trkpt lat="55.7586217" lon="49.1400733"><time>2022-10-29T07:48:15.043</time></trkpt><trkpt lat="55.7585783" lon="49.1400400"><time>2022-10-29T07:48:18.047</time></trkpt><trkpt lat="55.7585617" lon="49.1399583"><time>2022-10-29T07:48:21.047</time></trkpt><trkpt lat="55.7585383" lon="49.1398700"><time>2022-10-29T07:48:23.037</time></trkpt><trkpt lat="55.7584867" lon="49.1398200"><time>2022-10-29T07:48:25.047</time></trkpt><trkpt lat="55.7584533" lon="49.1397600"><time>2022-10-29T07:48:28.057</time></trkpt><trkpt lat="55.7584033" lon="49.1397133"><time>2022-10-29T07:48:31.057</time></trkpt><trkpt lat="55.7583583" lon="49.1396083"><time>2022-10-29T07:48:34.057</time></trkpt><trkpt lat="55.7583300" lon="49.1394983"><time>2022-10-29T07:48:36.060</time></trkpt><trkpt lat="55.7583000" lon="49.1393917"><time>2022-10-29T07:48:38.050</time></trkpt><trkpt lat="55.7582617" lon="49.1392600"><time>2022-10-29T07:48:40.057</time></trkpt><trkpt lat="55.7582300" lon="49.1391283"><time>2022-10-29T07:48:42.060</time></trkpt><trkpt lat="55.7581950" lon="49.1390200"><time>2022-10-29T07:48:44.057</time></trkpt><trkpt lat="55.7581500" lon="49.1389150"><time>2022-10-29T07:48:46.057</time></trkpt><trkpt lat="55.7580917" lon="49.1388183"><time>2022-10-29T07:48:48.073</time></trkpt><trkpt lat="55.7580983" lon="49.1388150"><time>2022-10-29T07:48:49.060</time></trkpt><trkpt lat="55.7580000" lon="49.1388117"><time>2022-10-29T07:48:50.060</time></trkpt><trkpt lat="55.7580017" lon="49.1386600"><time>2022-10-29T07:48:51.050</time></trkpt><trkpt lat="55.7580350" lon="49.1385783"><time>2022-10-29T07:48:52.047</time></trkpt><trkpt lat="55.7580683" lon="49.1385033"><time>2022-10-29T07:48:54.047</time></trkpt><trkpt lat="55.7580100" lon="49.1383833"><time>2022-10-29T07:48:56.043</time></trkpt><trkpt lat="55.7579467" lon="49.1382750"><time>2022-10-29T07:48:58.040</time></trkpt><trkpt lat="55.7578950" lon="49.1381683"><time>2022-10-29T07:49:00.050</time></trkpt><trkpt lat="55.7578483" lon="49.1380600"><time>2022-10-29T07:49:02.047</time></trkpt><trkpt lat="55.7578050" lon="49.1379533"><time>2022-10-29T07:49:04.047</time></trkpt><trkpt lat="55.7577500" lon="49.1378567"><time>2022-10-29T07:49:06.050</time></trkpt><trkpt lat="55.7576917" lon="49.1377517"><time>2022-10-29T07:49:08.047</time></trkpt><trkpt lat="55.7576333" lon="49.1376283"><time>2022-10-29T07:49:10.047</time></trkpt><trkpt lat="55.7576050" lon="49.1375600"><time>2022-10-29T07:49:11.047</time></trkpt><trkpt lat="55.7575717" lon="49.1374883"><time>2022-10-29T07:49:12.050</time></trkpt><trkpt lat="55.7575367" lon="49.1374067"><time>2022-10-29T07:49:13.050</time></trkpt><trkpt lat="55.7574983" lon="49.1373167"><time>2022-10-29T07:49:14.047</time></trkpt><trkpt lat="55.7574583" lon="49.1372250"><time>2022-10-29T07:49:15.047</time></trkpt><trkpt lat="55.7574117" lon="49.1371417"><time>2022-10-29T07:49:16.050</time></trkpt><trkpt lat="55.7573617" lon="49.1370833"><time>2022-10-29T07:49:17.050</time></trkpt><trkpt lat="55.7573150" lon="49.1370550"><time>2022-10-29T07:49:18.053</time></trkpt><trkpt lat="55.7572700" lon="49.1370900"><time>2022-10-29T07:49:19.057</time></trkpt><trkpt lat="55.7572350" lon="49.1371450"><time>2022-10-29T07:49:20.057</time></trkpt><trkpt lat="55.7572083" lon="49.1372150"><time>2022-10-29T07:49:21.060</time></trkpt><trkpt lat="55.7571833" lon="49.1372950"><time>2022-10-29T07:49:22.057</time></trkpt><trkpt lat="55.7571550" lon="49.1373733"><time>2022-10-29T07:49:23.057</time></trkpt><trkpt lat="55.7571267" lon="49.1374517"><time>2022-10-29T07:49:24.057</time></trkpt><trkpt lat="55.7570967" lon="49.1375333"><time>2022-10-29T07:49:25.053</time></trkpt><trkpt lat="55.7570650" lon="49.1376133"><time>2022-10-29T07:49:26.057</time></trkpt><trkpt lat="55.7570300" lon="49.1376867"><time>2022-10-29T07:49:27.060</time></trkpt><trkpt lat="55.7569933" lon="49.1377650"><time>2022-10-29T07:49:28.073</time></trkpt><trkpt lat="55.7570083" lon="49.1377617"><time>2022-10-29T07:49:29.057</time></trkpt><trkpt lat="55.7569500" lon="49.1379283"><time>2022-10-29T07:49:31.047</time></trkpt><trkpt lat="55.7569200" lon="49.1380150"><time>2022-10-29T07:49:31.550</time></trkpt><trkpt lat="55.7568533" lon="49.1381400"><time>2022-10-29T07:49:33.050</time></trkpt><trkpt lat="55.7568150" lon="49.1382167"><time>2022-10-29T07:49:34.053</time></trkpt><trkpt lat="55.7567700" lon="49.1382967"><time>2022-10-29T07:49:35.047</time></trkpt><trkpt lat="55.7567233" lon="49.1383800"><time>2022-10-29T07:49:36.050</time></trkpt><trkpt lat="55.7566717" lon="49.1384467"><time>2022-10-29T07:49:37.063</time></trkpt><trkpt lat="55.7566717" lon="49.1384467"><time>2022-10-29T07:49:38.050</time></trkpt><trkpt lat="55.7566150" lon="49.1384850"><time>2022-10-29T07:49:39.030</time></trkpt><trkpt lat="55.7565933" lon="49.1385600"><time>2022-10-29T07:49:40.050</time></trkpt><trkpt lat="55.7565483" lon="49.1386383"><time>2022-10-29T07:49:41.050</time></trkpt><trkpt lat="55.7565100" lon="49.1386950"><time>2022-10-29T07:49:42.047</time></trkpt><trkpt lat="55.7564550" lon="49.1387567"><time>2022-10-29T07:49:43.063</time></trkpt><trkpt lat="55.7564550" lon="49.1387567"><time>2022-10-29T07:49:43.120</time></trkpt><trkpt lat="55.7564083" lon="49.1388067"><time>2022-10-29T07:49:44.063</time></trkpt><trkpt lat="55.7563517" lon="49.1386133"><time>2022-10-29T07:49:45.037</time></trkpt><trkpt lat="55.7564100" lon="49.1388083"><time>2022-10-29T07:49:45.527</time></trkpt><trkpt lat="55.7564267" lon="49.1388917"><time>2022-10-29T07:49:47.037</time></trkpt><trkpt lat="55.7564433" lon="49.1389800"><time>2022-10-29T07:49:48.043</time></trkpt><trkpt lat="55.7564683" lon="49.1390550"><time>2022-10-29T07:49:49.043</time></trkpt><trkpt lat="55.7564983" lon="49.1391183"><time>2022-10-29T07:49:50.047</time></trkpt><trkpt lat="55.7565333" lon="49.1391867"><time>2022-10-29T07:49:51.047</time></trkpt><trkpt lat="55.7565600" lon="49.1392583"><time>2022-10-29T07:49:52.047</time></trkpt><trkpt lat="55.7565967" lon="49.1393533"><time>2022-10-29T07:49:53.047</time></trkpt><trkpt lat="55.7566317" lon="49.1394283"><time>2022-10-29T07:49:54.047</time></trkpt><trkpt lat="55.7566667" lon="49.1395067"><time>2022-10-29T07:49:55.047</time></trkpt><trkpt lat="55.7566983" lon="49.1395783"><time>2022-10-29T07:49:56.050</time></trkpt><trkpt lat="55.7567350" lon="49.1396517"><time>2022-10-29T07:49:57.050</time></trkpt><trkpt lat="55.7567683" lon="49.1397300"><time>2022-10-29T07:49:58.047</time></trkpt><trkpt lat="55.7568050" lon="49.1398100"><time>2022-10-29T07:49:59.047</time></trkpt><trkpt lat="55.7568350" lon="49.1398950"><time>2022-10-29T07:50:00.050</time></trkpt><trkpt lat="55.7568700" lon="49.1399800"><time>2022-10-29T07:50:01.050</time></trkpt><trkpt lat="55.7569083" lon="49.1400600"><time>2022-10-29T07:50:02.047</time></trkpt><trkpt lat="55.7569450" lon="49.1401367"><time>2022-10-29T07:50:03.053</time></trkpt><trkpt lat="55.7569817" lon="49.1402117"><time>2022-10-29T07:50:04.057</time></trkpt><trkpt lat="55.7564667" lon="49.1388667"><time>2022-10-29T07:50:05.047</time></trkpt><trkpt lat="55.7569817" lon="49.1402100"><time>2022-10-29T07:50:06.463</time></trkpt><trkpt lat="55.7569800" lon="49.1402050"><time>2022-10-29T07:50:07.350</time></trkpt><trkpt lat="55.7570167" lon="49.1403333"><time>2022-10-29T07:50:08.543</time></trkpt><trkpt lat="55.7570517" lon="49.1404417"><time>2022-10-29T07:50:09.547</time></trkpt><trkpt lat="55.7571350" lon="49.1405817"><time>2022-10-29T07:50:10.047</time></trkpt><trkpt lat="55.7571850" lon="49.1406350"><time>2022-10-29T07:50:10.557</time></trkpt><trkpt lat="55.7571833" lon="49.1406333"><time>2022-10-29T07:50:11.503</time></trkpt><trkpt lat="55.7572083" lon="49.1407000"><time>2022-10-29T07:50:13.043</time></trkpt><trkpt lat="55.7572367" lon="49.1407983"><time>2022-10-29T07:50:14.047</time></trkpt><trkpt lat="55.7573017" lon="49.1409817"><time>2022-10-29T07:50:16.047</time></trkpt><trkpt lat="55.7573350" lon="49.1410417"><time>2022-10-29T07:50:17.047</time></trkpt><trkpt lat="55.7573700" lon="49.1410950"><time>2022-10-29T07:50:18.043</time></trkpt><trkpt lat="55.7574150" lon="49.1412033"><time>2022-10-29T07:50:20.047</time></trkpt><trkpt lat="55.7573850" lon="49.1413150"><time>2022-10-29T07:50:22.047</time></trkpt><trkpt lat="55.7573367" lon="49.1414300"><time>2022-10-29T07:50:24.047</time></trkpt><trkpt lat="55.7573067" lon="49.1414917"><time>2022-10-29T07:50:25.043</time></trkpt><trkpt lat="55.7572433" lon="49.1416033"><time>2022-10-29T07:50:27.047</time></trkpt><trkpt lat="55.7572050" lon="49.1416717"><time>2022-10-29T07:50:28.057</time></trkpt><trkpt lat="55.7572033" lon="49.1416683"><time>2022-10-29T07:50:29.037</time></trkpt><trkpt lat="55.7571750" lon="49.1417750"><time>2022-10-29T07:50:30.550</time></trkpt><trkpt lat="55.7571350" lon="49.1418667"><time>2022-10-29T07:50:31.543</time></trkpt><trkpt lat="55.7570717" lon="49.1420117"><time>2022-10-29T07:50:33.047</time></trkpt><trkpt lat="55.7570183" lon="49.1421167"><time>2022-10-29T07:50:34.050</time></trkpt><trkpt lat="55.7569750" lon="49.1422183"><time>2022-10-29T07:50:35.047</time></trkpt><trkpt lat="55.7569400" lon="49.1423100"><time>2022-10-29T07:50:36.050</time></trkpt><trkpt lat="55.7569050" lon="49.1423983"><time>2022-10-29T07:50:37.047</time></trkpt><trkpt lat="55.7568767" lon="49.1424750"><time>2022-10-29T07:50:38.047</time></trkpt><trkpt lat="55.7568483" lon="49.1425467"><time>2022-10-29T07:50:39.047</time></trkpt><trkpt lat="55.7568133" lon="49.1426250"><time>2022-10-29T07:50:40.047</time></trkpt><trkpt lat="55.7567883" lon="49.1426983"><time>2022-10-29T07:50:41.047</time></trkpt><trkpt lat="55.7567667" lon="49.1427717"><time>2022-10-29T07:50:42.050</time></trkpt><trkpt lat="55.7567217" lon="49.1428933"><time>2022-10-29T07:50:44.050</time></trkpt><trkpt lat="55.7566900" lon="49.1430067"><time>2022-10-29T07:50:46.047</time></trkpt><trkpt lat="55.7566667" lon="49.1431367"><time>2022-10-29T07:50:48.060</time></trkpt><trkpt lat="55.7563417" lon="49.1390067"><time>2022-10-29T07:50:49.063</time></trkpt><trkpt lat="55.7563400" lon="49.1389917"><time>2022-10-29T07:50:49.957</time></trkpt><trkpt lat="55.7566383" lon="49.1432167"><time>2022-10-29T07:50:50.463</time></trkpt><trkpt lat="55.7563383" lon="49.1390067"><time>2022-10-29T07:50:51.367</time></trkpt><trkpt lat="55.7563350" lon="49.1389250"><time>2022-10-29T07:50:52.260</time></trkpt><trkpt lat="55.7566450" lon="49.1435533"><time>2022-10-29T07:50:52.767</time></trkpt><trkpt lat="55.7566417" lon="49.1435100"><time>2022-10-29T07:50:53.663</time></trkpt><trkpt lat="55.7566100" lon="49.1436367"><time>2022-10-29T07:50:55.043</time></trkpt><trkpt lat="55.7566017" lon="49.1437383"><time>2022-10-29T07:50:57.047</time></trkpt><trkpt lat="55.7565933" lon="49.1438767"><time>2022-10-29T07:50:59.040</time></trkpt><trkpt lat="55.7565817" lon="49.1440067"><time>2022-10-29T07:51:01.047</time></trkpt><trkpt lat="55.7565667" lon="49.1441300"><time>2022-10-29T07:51:03.047</time></trkpt><trkpt lat="55.7565250" lon="49.1442033"><time>2022-10-29T07:51:06.047</time></trkpt><trkpt lat="55.7564800" lon="49.1441983"><time>2022-10-29T07:51:11.027</time></trkpt><trkpt lat="55.7564683" lon="49.1441200"><time>2022-10-29T07:51:14.047</time></trkpt><trkpt lat="55.7564700" lon="49.1439867"><time>2022-10-29T07:51:16.047</time></trkpt><trkpt lat="55.7564367" lon="49.1438800"><time>2022-10-29T07:51:18.057</time></trkpt><trkpt lat="55.7564367" lon="49.1438800"><time>2022-10-29T07:51:18.100</time></trkpt><trkpt lat="55.7564133" lon="49.1437350"><time>2022-10-29T07:51:20.060</time></trkpt><trkpt lat="55.7564100" lon="49.1437283"><time>2022-10-29T07:51:21.030</time></trkpt><trkpt lat="55.7564200" lon="49.1436183"><time>2022-10-29T07:51:23.043</time></trkpt><trkpt lat="55.7564050" lon="49.1435300"><time>2022-10-29T07:51:26.047</time></trkpt><trkpt lat="55.7564467" lon="49.1436050"><time>2022-10-29T07:51:29.047</time></trkpt><trkpt lat="55.7564417" lon="49.1437367"><time>2022-10-29T07:51:31.047</time></trkpt><trkpt lat="55.7564450" lon="49.1438550"><time>2022-10-29T07:51:33.047</time></trkpt><trkpt lat="55.7564850" lon="49.1439500"><time>2022-10-29T07:51:35.030</time></trkpt><trkpt lat="55.7565433" lon="49.1440300"><time>2022-10-29T07:51:37.037</time></trkpt><trkpt lat="55.7565733" lon="49.1441400"><time>2022-10-29T07:51:39.040</time></trkpt><trkpt lat="55.7565650" lon="49.1442250"><time>2022-10-29T07:51:41.047</time></trkpt><trkpt lat="55.7565567" lon="49.1443250"><time>2022-10-29T07:51:43.023</time></trkpt><trkpt lat="55.7565750" lon="49.1444617"><time>2022-10-29T07:51:45.047</time></trkpt><trkpt lat="55.7565550" lon="49.1446017"><time>2022-10-29T07:51:47.043</time></trkpt><trkpt lat="55.7565467" lon="49.1447667"><time>2022-10-29T07:51:49.057</time></trkpt><trkpt lat="55.7565517" lon="49.1448483"><time>2022-10-29T07:51:50.057</time></trkpt><trkpt lat="55.7565533" lon="49.1449350"><time>2022-10-29T07:51:51.057</time></trkpt><trkpt lat="55.7565550" lon="49.1450200"><time>2022-10-29T07:51:52.053</time></trkpt><trkpt lat="55.7565533" lon="49.1451067"><time>2022-10-29T07:51:53.040</time></trkpt><trkpt lat="55.7565533" lon="49.1452117"><time>2022-10-29T07:51:55.040</time></trkpt><trkpt lat="55.7565700" lon="49.1453450"><time>2022-10-29T07:51:57.060</time></trkpt><trkpt lat="55.7566050" lon="49.1454867"><time>2022-10-29T07:51:59.057</time></trkpt><trkpt lat="55.7566400" lon="49.1455917"><time>2022-10-29T07:52:01.060</time></trkpt><trkpt lat="55.7567117" lon="49.1455950"><time>2022-10-29T07:52:03.047</time></trkpt><trkpt lat="55.7567983" lon="49.1455633"><time>2022-10-29T07:52:05.060</time></trkpt><trkpt lat="55.7568767" lon="49.1455567"><time>2022-10-29T07:52:07.057</time></trkpt><trkpt lat="55.7569383" lon="49.1455600"><time>2022-10-29T07:52:09.057</time></trkpt><trkpt lat="55.7570067" lon="49.1455650"><time>2022-10-29T07:52:12.053</time></trkpt><trkpt lat="55.7570550" lon="49.1455550"><time>2022-10-29T07:52:14.050</time></trkpt><trkpt lat="55.7571050" lon="49.1455683"><time>2022-10-29T07:52:17.057</time></trkpt><trkpt lat="55.7571283" lon="49.1456667"><time>2022-10-29T07:52:24.057</time></trkpt><trkpt lat="55.7571250" lon="49.1457850"><time>2022-10-29T07:52:26.063</time></trkpt><trkpt lat="55.7571250" lon="49.1459300"><time>2022-10-29T07:52:28.060</time></trkpt><trkpt lat="55.7571200" lon="49.1460683"><time>2022-10-29T07:52:30.060</time></trkpt><trkpt lat="55.7571167" lon="49.1461500"><time>2022-10-29T07:52:31.063</time></trkpt><trkpt lat="55.7571183" lon="49.1462367"><time>2022-10-29T07:52:32.060</time></trkpt><trkpt lat="55.7571217" lon="49.1463200"><time>2022-10-29T07:52:33.060</time></trkpt><trkpt lat="55.7571250" lon="49.1464100"><time>2022-10-29T07:52:34.060</time></trkpt><trkpt lat="55.7571333" lon="49.1464983"><time>2022-10-29T07:52:35.060</time></trkpt><trkpt lat="55.7571417" lon="49.1465883"><time>2022-10-29T07:52:36.060</time></trkpt><trkpt lat="55.7571450" lon="49.1466850"><time>2022-10-29T07:52:37.060</time></trkpt><trkpt lat="55.7571550" lon="49.1467767"><time>2022-10-29T07:52:38.063</time></trkpt><trkpt lat="55.7571600" lon="49.1468733"><time>2022-10-29T07:52:39.037</time></trkpt><trkpt lat="55.7571733" lon="49.1470333"><time>2022-10-29T07:52:41.060</time></trkpt><trkpt lat="55.7571833" lon="49.1471717"><time>2022-10-29T07:52:43.060</time></trkpt><trkpt lat="55.7571883" lon="49.1473133"><time>2022-10-29T07:52:45.057</time></trkpt><trkpt lat="55.7571967" lon="49.1474433"><time>2022-10-29T07:52:47.057</time></trkpt><trkpt lat="55.7572100" lon="49.1475217"><time>2022-10-29T07:52:49.063</time></trkpt><trkpt lat="55.7572367" lon="49.1475933"><time>2022-10-29T07:52:52.063</time></trkpt><trkpt lat="55.7572383" lon="49.1476850"><time>2022-10-29T07:52:56.060</time></trkpt><trkpt lat="55.7572450" lon="49.1477700"><time>2022-10-29T07:52:59.053</time></trkpt><trkpt lat="55.7572300" lon="49.1476367"><time>2022-10-29T07:53:03.063</time></trkpt><trkpt lat="55.7572117" lon="49.1475617"><time>2022-10-29T07:53:04.060</time></trkpt><trkpt lat="55.7572033" lon="49.1474383"><time>2022-10-29T07:53:06.060</time></trkpt><trkpt lat="55.7571967" lon="49.1472933"><time>2022-10-29T07:53:08.053</time></trkpt><trkpt lat="55.7571883" lon="49.1472117"><time>2022-10-29T07:53:09.060</time></trkpt><trkpt lat="55.7571800" lon="49.1471217"><time>2022-10-29T07:53:10.060</time></trkpt><trkpt lat="55.7571700" lon="49.1470367"><time>2022-10-29T07:53:11.060</time></trkpt><trkpt lat="55.7571583" lon="49.1469550"><time>2022-10-29T07:53:12.060</time></trkpt><trkpt lat="55.7571450" lon="49.1468650"><time>2022-10-29T07:53:13.057</time></trkpt><trkpt lat="55.7571417" lon="49.1467733"><time>2022-10-29T07:53:14.057</time></trkpt><trkpt lat="55.7571417" lon="49.1466867"><time>2022-10-29T07:53:15.057</time></trkpt><trkpt lat="55.7571383" lon="49.1465933"><time>2022-10-29T07:53:16.060</time></trkpt><trkpt lat="55.7571383" lon="49.1464950"><time>2022-10-29T07:53:17.057</time></trkpt><trkpt lat="55.7571383" lon="49.1463883"><time>2022-10-29T07:53:18.057</time></trkpt><trkpt lat="55.7571433" lon="49.1462967"><time>2022-10-29T07:53:19.060</time></trkpt><trkpt lat="55.7571400" lon="49.1461867"><time>2022-10-29T07:53:20.060</time></trkpt><trkpt lat="55.7571417" lon="49.1460983"><time>2022-10-29T07:53:21.057</time></trkpt><trkpt lat="55.7571367" lon="49.1459933"><time>2022-10-29T07:53:22.060</time></trkpt><trkpt lat="55.7571333" lon="49.1458933"><time>2022-10-29T07:53:23.060</time></trkpt><trkpt lat="55.7571300" lon="49.1457933"><time>2022-10-29T07:53:24.060</time></trkpt><trkpt lat="55.7571283" lon="49.1456917"><time>2022-10-29T07:53:25.057</time></trkpt><trkpt lat="55.7571250" lon="49.1455883"><time>2022-10-29T07:53:26.053</time></trkpt><trkpt lat="55.7571250" lon="49.1454950"><time>2022-10-29T07:53:27.057</time></trkpt><trkpt lat="55.7571250" lon="49.1454000"><time>2022-10-29T07:53:28.057</time></trkpt><trkpt lat="55.7571283" lon="49.1453083"><time>2022-10-29T07:53:29.057</time></trkpt><trkpt lat="55.7571367" lon="49.1452250"><time>2022-10-29T07:53:30.057</time></trkpt><trkpt lat="55.7571417" lon="49.1451417"><time>2022-10-29T07:53:31.057</time></trkpt><trkpt lat="55.7571483" lon="49.1450567"><time>2022-10-29T07:53:32.057</time></trkpt><trkpt lat="55.7571533" lon="49.1449717"><time>2022-10-29T07:53:33.060</time></trkpt><trkpt lat="55.7571583" lon="49.1448783"><time>2022-10-29T07:53:34.057</time></trkpt><trkpt lat="55.7571667" lon="49.1447983"><time>2022-10-29T07:53:35.057</time></trkpt><trkpt lat="55.7571683" lon="49.1447050"><time>2022-10-29T07:53:36.057</time></trkpt><trkpt lat="55.7571717" lon="49.1446083"><time>2022-10-29T07:53:37.060</time></trkpt><trkpt lat="55.7571767" lon="49.1445133"><time>2022-10-29T07:53:38.060</time></trkpt><trkpt lat="55.7571800" lon="49.1444333"><time>2022-10-29T07:53:39.060</time></trkpt><trkpt lat="55.7571867" lon="49.1443483"><time>2022-10-29T07:53:41.047</time></trkpt><trkpt lat="55.7572233" lon="49.1444017"><time>2022-10-29T07:53:48.060</time></trkpt><trkpt lat="55.7572733" lon="49.1443800"><time>2022-10-29T07:53:50.057</time></trkpt><trkpt lat="55.7573150" lon="49.1442967"><time>2022-10-29T07:53:52.070</time></trkpt><trkpt lat="55.7573650" lon="49.1442067"><time>2022-10-29T07:53:54.060</time></trkpt><trkpt lat="55.7574283" lon="49.1441350"><time>2022-10-29T07:53:56.057</time></trkpt><trkpt lat="55.7575017" lon="49.1440667"><time>2022-10-29T07:53:58.060</time></trkpt><trkpt lat="55.7575867" lon="49.1440833"><time>2022-10-29T07:54:00.057</time></trkpt><trkpt lat="55.7576267" lon="49.1441267"><time>2022-10-29T07:54:01.060</time></trkpt><trkpt lat="55.7576667" lon="49.1441817"><time>2022-10-29T07:54:02.063</time></trkpt><trkpt lat="55.7577033" lon="49.1442517"><time>2022-10-29T07:54:03.070</time></trkpt><trkpt lat="55.7577017" lon="49.1442533"><time>2022-10-29T07:54:04.057</time></trkpt><trkpt lat="55.7577467" lon="49.1444200"><time>2022-10-29T07:54:05.040</time></trkpt><trkpt lat="55.7577617" lon="49.1445150"><time>2022-10-29T07:54:05.550</time></trkpt><trkpt lat="55.7577933" lon="49.1446317"><time>2022-10-29T07:54:06.543</time></trkpt><trkpt lat="55.7578367" lon="49.1447600"><time>2022-10-29T07:54:08.047</time></trkpt><trkpt lat="55.7578667" lon="49.1448417"><time>2022-10-29T07:54:09.047</time></trkpt><trkpt lat="55.7578983" lon="49.1449350"><time>2022-10-29T07:54:10.057</time></trkpt><trkpt lat="55.7578983" lon="49.1449350"><time>2022-10-29T07:54:11.037</time></trkpt><trkpt lat="55.7579317" lon="49.1450300"><time>2022-10-29T07:54:13.047</time></trkpt><trkpt lat="55.7579500" lon="49.1451467"><time>2022-10-29T07:54:14.047</time></trkpt><trkpt lat="55.7579617" lon="49.1452433"><time>2022-10-29T07:54:15.047</time></trkpt><trkpt lat="55.7579883" lon="49.1453333"><time>2022-10-29T07:54:16.047</time></trkpt><trkpt lat="55.7580183" lon="49.1454683"><time>2022-10-29T07:54:18.053</time></trkpt><trkpt lat="55.7580183" lon="49.1454683"><time>2022-10-29T07:54:18.100</time></trkpt><trkpt lat="55.7580400" lon="49.1455467"><time>2022-10-29T07:54:20.057</time></trkpt><trkpt lat="55.7580400" lon="49.1455467"><time>2022-10-29T07:54:21.030</time></trkpt><trkpt lat="55.7580100" lon="49.1454817"><time>2022-10-29T07:54:35.040</time></trkpt><trkpt lat="55.7580100" lon="49.1454000"><time>2022-10-29T07:55:12.057</time></trkpt><trkpt lat="55.7579833" lon="49.1453350"><time>2022-10-29T07:55:14.057</time></trkpt><trkpt lat="55.7579483" lon="49.1452267"><time>2022-10-29T07:55:16.057</time></trkpt><trkpt lat="55.7579250" lon="49.1450917"><time>2022-10-29T07:55:18.050</time></trkpt><trkpt lat="55.7579133" lon="49.1450117"><time>2022-10-29T07:55:19.053</time></trkpt><trkpt lat="55.7579000" lon="49.1449300"><time>2022-10-29T07:55:20.053</time></trkpt><trkpt lat="55.7578883" lon="49.1448467"><time>2022-10-29T07:55:21.053</time></trkpt><trkpt lat="55.7578667" lon="49.1447683"><time>2022-10-29T07:55:22.047</time></trkpt><trkpt lat="55.7578367" lon="49.1447000"><time>2022-10-29T07:55:23.060</time></trkpt><trkpt lat="55.7578133" lon="49.1446283"><time>2022-10-29T07:55:24.057</time></trkpt><trkpt lat="55.7577900" lon="49.1445433"><time>2022-10-29T07:55:25.057</time></trkpt><trkpt lat="55.7577683" lon="49.1444617"><time>2022-10-29T07:55:26.057</time></trkpt><trkpt lat="55.7577467" lon="49.1443850"><time>2022-10-29T07:55:27.047</time></trkpt><trkpt lat="55.7577167" lon="49.1442467"><time>2022-10-29T07:55:29.057</time></trkpt><trkpt lat="55.7576900" lon="49.1441800"><time>2022-10-29T07:55:30.057</time></trkpt><trkpt lat="55.7576533" lon="49.1441283"><time>2022-10-29T07:55:31.057</time></trkpt><trkpt lat="55.7576100" lon="49.1440933"><time>2022-10-29T07:55:32.057</time></trkpt><trkpt lat="55.7575667" lon="49.1440717"><time>2022-10-29T07:55:33.057</time></trkpt><trkpt lat="55.7575217" lon="49.1440633"><time>2022-10-29T07:55:34.057</time></trkpt><trkpt lat="55.7574433" lon="49.1441083"><time>2022-10-29T07:55:36.050</time></trkpt><trkpt lat="55.7574033" lon="49.1441450"><time>2022-10-29T07:55:37.053</time></trkpt><trkpt lat="55.7573567" lon="49.1442300"><time>2022-10-29T07:55:38.057</time></trkpt><trkpt lat="55.7573200" lon="49.1442967"><time>2022-10-29T07:55:39.057</time></trkpt><trkpt lat="55.7572717" lon="49.1443667"><time>2022-10-29T07:55:41.057</time></trkpt><trkpt lat="55.7572233" lon="49.1443467"><time>2022-10-29T07:55:44.063</time></trkpt><trkpt lat="55.7571683" lon="49.1443983"><time>2022-10-29T07:55:47.057</time></trkpt><trkpt lat="55.7571483" lon="49.1445450"><time>2022-10-29T07:55:49.060</time></trkpt><trkpt lat="55.7571467" lon="49.1446383"><time>2022-10-29T07:55:50.060</time></trkpt><trkpt lat="55.7571433" lon="49.1447283"><time>2022-10-29T07:55:51.057</time></trkpt><trkpt lat="55.7571400" lon="49.1448083"><time>2022-10-29T07:55:52.057</time></trkpt><trkpt lat="55.7571350" lon="49.1449633"><time>2022-10-29T07:55:54.057</time></trkpt><trkpt lat="55.7571333" lon="49.1450433"><time>2022-10-29T07:55:55.057</time></trkpt><trkpt lat="55.7571317" lon="49.1451267"><time>2022-10-29T07:55:56.057</time></trkpt><trkpt lat="55.7571300" lon="49.1452183"><time>2022-10-29T07:55:57.060</time></trkpt><trkpt lat="55.7571283" lon="49.1453150"><time>2022-10-29T07:55:58.060</time></trkpt><trkpt lat="55.7571217" lon="49.1454183"><time>2022-10-29T07:55:59.057</time></trkpt><trkpt lat="55.7571067" lon="49.1455083"><time>2022-10-29T07:56:00.057</time></trkpt><trkpt lat="55.7570383" lon="49.1455700"><time>2022-10-29T07:56:02.057</time></trkpt><trkpt lat="55.7569683" lon="49.1455533"><time>2022-10-29T07:56:04.053</time></trkpt><trkpt lat="55.7569233" lon="49.1455700"><time>2022-10-29T07:56:05.050</time></trkpt><trkpt lat="55.7568750" lon="49.1455817"><time>2022-10-29T07:56:06.060</time></trkpt><trkpt lat="55.7568250" lon="49.1455917"><time>2022-10-29T07:56:07.057</time></trkpt><trkpt lat="55.7567750" lon="49.1455983"><time>2022-10-29T07:56:08.050</time></trkpt><trkpt lat="55.7567233" lon="49.1456100"><time>2022-10-29T07:56:09.057</time></trkpt><trkpt lat="55.7566733" lon="49.1456200"><time>2022-10-29T07:56:10.057</time></trkpt><trkpt lat="55.7566217" lon="49.1456967"><time>2022-10-29T07:56:12.043</time></trkpt><trkpt lat="55.7566083" lon="49.1458567"><time>2022-10-29T07:56:14.057</time></trkpt><trkpt lat="55.7566233" lon="49.1459483"><time>2022-10-29T07:56:15.057</time></trkpt><trkpt lat="55.7566333" lon="49.1460367"><time>2022-10-29T07:56:16.057</time></trkpt><trkpt lat="55.7566433" lon="49.1461167"><time>2022-10-29T07:56:17.060</time></trkpt><trkpt lat="55.7566500" lon="49.1462017"><time>2022-10-29T07:56:18.047</time></trkpt><trkpt lat="55.7566550" lon="49.1462883"><time>2022-10-29T07:56:19.057</time></trkpt><trkpt lat="55.7566583" lon="49.1463717"><time>2022-10-29T07:56:20.060</time></trkpt><trkpt lat="55.7566617" lon="49.1464533"><time>2022-10-29T07:56:21.057</time></trkpt><trkpt lat="55.7566700" lon="49.1465833"><time>2022-10-29T07:56:23.057</time></trkpt><trkpt lat="55.7566917" lon="49.1467083"><time>2022-10-29T07:56:25.060</time></trkpt><trkpt lat="55.7567200" lon="49.1468500"><time>2022-10-29T07:56:27.057</time></trkpt><trkpt lat="55.7567533" lon="49.1469817"><time>2022-10-29T07:56:29.057</time></trkpt><trkpt lat="55.7567867" lon="49.1470833"><time>2022-10-29T07:56:31.057</time></trkpt><trkpt lat="55.7568133" lon="49.1471883"><time>2022-10-29T07:56:33.060</time></trkpt><trkpt lat="55.7568450" lon="49.1473283"><time>2022-10-29T07:56:35.053</time></trkpt><trkpt lat="55.7568667" lon="49.1474033"><time>2022-10-29T07:56:36.057</time></trkpt><trkpt lat="55.7568900" lon="49.1474783"><time>2022-10-29T07:56:37.020</time></trkpt><trkpt lat="55.7569150" lon="49.1475667"><time>2022-10-29T07:56:38.017</time></trkpt><trkpt lat="55.7569350" lon="49.1476433"><time>2022-10-29T07:56:39.043</time></trkpt><trkpt lat="55.7569533" lon="49.1477167"><time>2022-10-29T07:56:40.057</time></trkpt><trkpt lat="55.7569733" lon="49.1477917"><time>2022-10-29T07:56:41.057</time></trkpt><trkpt lat="55.7569867" lon="49.1479333"><time>2022-10-29T07:56:43.047</time></trkpt><trkpt lat="55.7570150" lon="49.1480983"><time>2022-10-29T07:56:45.057</time></trkpt><trkpt lat="55.7570383" lon="49.1481783"><time>2022-10-29T07:56:46.057</time></trkpt><trkpt lat="55.7570600" lon="49.1482567"><time>2022-10-29T07:56:47.047</time></trkpt><trkpt lat="55.7570750" lon="49.1483350"><time>2022-10-29T07:56:48.047</time></trkpt><trkpt lat="55.7570900" lon="49.1484117"><time>2022-10-29T07:56:49.053</time></trkpt><trkpt lat="55.7571133" lon="49.1485617"><time>2022-10-29T07:56:51.057</time></trkpt><trkpt lat="55.7571467" lon="49.1486933"><time>2022-10-29T07:56:53.017</time></trkpt><trkpt lat="55.7571717" lon="49.1488117"><time>2022-10-29T07:56:55.053</time></trkpt><trkpt lat="55.7571950" lon="49.1489117"><time>2022-10-29T07:56:57.057</time></trkpt><trkpt lat="55.7572100" lon="49.1490383"><time>2022-10-29T07:57:00.070</time></trkpt><trkpt lat="55.7572483" lon="49.1491267"><time>2022-10-29T07:57:02.053</time></trkpt><trkpt lat="55.7572750" lon="49.1492117"><time>2022-10-29T07:57:04.040</time></trkpt><trkpt lat="55.7572867" lon="49.1492950"><time>2022-10-29T07:57:06.057</time></trkpt><trkpt lat="55.7573217" lon="49.1493733"><time>2022-10-29T07:57:08.053</time></trkpt><trkpt lat="55.7573450" lon="49.1494500"><time>2022-10-29T07:57:10.057</time></trkpt><trkpt lat="55.7573733" lon="49.1495167"><time>2022-10-29T07:57:12.053</time></trkpt><trkpt lat="55.7573917" lon="49.1495900"><time>2022-10-29T07:57:14.053</time></trkpt><trkpt lat="55.7574150" lon="49.1496817"><time>2022-10-29T07:57:16.057</time></trkpt><trkpt lat="55.7574383" lon="49.1497500"><time>2022-10-29T07:57:18.053</time></trkpt><trkpt lat="55.7574617" lon="49.1498600"><time>2022-10-29T07:57:21.053</time></trkpt><trkpt lat="55.7574850" lon="49.1499583"><time>2022-10-29T07:57:23.053</time></trkpt><trkpt lat="55.7575117" lon="49.1500583"><time>2022-10-29T07:57:25.057</time></trkpt><trkpt lat="55.7575383" lon="49.1501667"><time>2022-10-29T07:57:27.057</time></trkpt><trkpt lat="55.7575600" lon="49.1502817"><time>2022-10-29T07:57:29.053</time></trkpt><trkpt lat="55.7575800" lon="49.1503900"><time>2022-10-29T07:57:31.057</time></trkpt><trkpt lat="55.7576017" lon="49.1505133"><time>2022-10-29T07:57:33.057</time></trkpt><trkpt lat="55.7576367" lon="49.1506517"><time>2022-10-29T07:57:35.057</time></trkpt><trkpt lat="55.7576633" lon="49.1507983"><time>2022-10-29T07:57:37.057</time></trkpt><trkpt lat="55.7576817" lon="49.1508717"><time>2022-10-29T07:57:38.053</time></trkpt><trkpt lat="55.7577000" lon="49.1509450"><time>2022-10-29T07:57:39.057</time></trkpt><trkpt lat="55.7577217" lon="49.1510283"><time>2022-10-29T07:57:40.057</time></trkpt><trkpt lat="55.7577450" lon="49.1511133"><time>2022-10-29T07:57:41.053</time></trkpt><trkpt lat="55.7577667" lon="49.1512000"><time>2022-10-29T07:57:42.050</time></trkpt><trkpt lat="55.7577900" lon="49.1512867"><time>2022-10-29T07:57:43.043</time></trkpt><trkpt lat="55.7578117" lon="49.1513817"><time>2022-10-29T07:57:44.060</time></trkpt><trkpt lat="55.7578167" lon="49.1514617"><time>2022-10-29T07:57:45.057</time></trkpt><trkpt lat="55.7578533" lon="49.1515583"><time>2022-10-29T07:57:46.057</time></trkpt><trkpt lat="55.7578633" lon="49.1516433"><time>2022-10-29T07:57:47.057</time></trkpt><trkpt lat="55.7578800" lon="49.1517467"><time>2022-10-29T07:57:48.053</time></trkpt><trkpt lat="55.7579000" lon="49.1518383"><time>2022-10-29T07:57:49.053</time></trkpt><trkpt lat="55.7579267" lon="49.1519250"><time>2022-10-29T07:57:50.057</time></trkpt><trkpt lat="55.7579533" lon="49.1520083"><time>2022-10-29T07:57:51.057</time></trkpt><trkpt lat="55.7579783" lon="49.1520917"><time>2022-10-29T07:57:52.057</time></trkpt><trkpt lat="55.7580000" lon="49.1521800"><time>2022-10-29T07:57:53.057</time></trkpt><trkpt lat="55.7580183" lon="49.1522717"><time>2022-10-29T07:57:54.053</time></trkpt><trkpt lat="55.7580350" lon="49.1523600"><time>2022-10-29T07:57:55.057</time></trkpt><trkpt lat="55.7580550" lon="49.1524483"><time>2022-10-29T07:57:56.053</time></trkpt><trkpt lat="55.7580750" lon="49.1525367"><time>2022-10-29T07:57:57.070</time></trkpt><trkpt lat="55.7580750" lon="49.1525383"><time>2022-10-29T07:57:58.047</time></trkpt><trkpt lat="55.7580917" lon="49.1526317"><time>2022-10-29T07:57:59.543</time></trkpt><trkpt lat="55.7581133" lon="49.1527283"><time>2022-10-29T07:58:00.040</time></trkpt><trkpt lat="55.7581467" lon="49.1528350"><time>2022-10-29T07:58:01.047</time></trkpt><trkpt lat="55.7581667" lon="49.1529267"><time>2022-10-29T07:58:02.047</time></trkpt><trkpt lat="55.7581817" lon="49.1530150"><time>2022-10-29T07:58:03.047</time></trkpt><trkpt lat="55.7582067" lon="49.1531017"><time>2022-10-29T07:58:04.043</time></trkpt><trkpt lat="55.7582300" lon="49.1531800"><time>2022-10-29T07:58:05.040</time></trkpt><trkpt lat="55.7582567" lon="49.1532633"><time>2022-10-29T07:58:06.047</time></trkpt><trkpt lat="55.7582867" lon="49.1533433"><time>2022-10-29T07:58:07.047</time></trkpt><trkpt lat="55.7583150" lon="49.1534350"><time>2022-10-29T07:58:08.050</time></trkpt><trkpt lat="55.7583417" lon="49.1535333"><time>2022-10-29T07:58:09.050</time></trkpt><trkpt lat="55.7583683" lon="49.1536250"><time>2022-10-29T07:58:10.043</time></trkpt><trkpt lat="55.7583917" lon="49.1537167"><time>2022-10-29T07:58:11.047</time></trkpt><trkpt lat="55.7584167" lon="49.1538100"><time>2022-10-29T07:58:12.047</time></trkpt><trkpt lat="55.7584367" lon="49.1539033"><time>2022-10-29T07:58:13.047</time></trkpt><trkpt lat="55.7584567" lon="49.1539917"><time>2022-10-29T07:58:14.047</time></trkpt><trkpt lat="55.7584767" lon="49.1540817"><time>2022-10-29T07:58:15.047</time></trkpt><trkpt lat="55.7584933" lon="49.1541700"><time>2022-10-29T07:58:16.047</time></trkpt><trkpt lat="55.7585117" lon="49.1542583"><time>2022-10-29T07:58:17.047</time></trkpt><trkpt lat="55.7585300" lon="49.1543433"><time>2022-10-29T07:58:18.047</time></trkpt><trkpt lat="55.7585383" lon="49.1544300"><time>2022-10-29T07:58:19.047</time></trkpt><trkpt lat="55.7585500" lon="49.1545250"><time>2022-10-29T07:58:20.047</time></trkpt><trkpt lat="55.7585517" lon="49.1546183"><time>2022-10-29T07:58:21.047</time></trkpt><trkpt lat="55.7585400" lon="49.1547017"><time>2022-10-29T07:58:22.047</time></trkpt><trkpt lat="55.7585017" lon="49.1547733"><time>2022-10-29T07:58:23.047</time></trkpt><trkpt lat="55.7584633" lon="49.1548350"><time>2022-10-29T07:58:24.047</time></trkpt><trkpt lat="55.7584217" lon="49.1548967"><time>2022-10-29T07:58:25.057</time></trkpt><trkpt lat="55.7584200" lon="49.1548967"><time>2022-10-29T07:58:26.017</time></trkpt><trkpt lat="55.7583783" lon="49.1549450"><time>2022-10-29T07:58:27.543</time></trkpt><trkpt lat="55.7583417" lon="49.1550067"><time>2022-10-29T07:58:28.547</time></trkpt><trkpt lat="55.7582683" lon="49.1550900"><time>2022-10-29T07:58:30.047</time></trkpt><trkpt lat="55.7582133" lon="49.1551600"><time>2022-10-29T07:58:31.047</time></trkpt><trkpt lat="55.7581650" lon="49.1552317"><time>2022-10-29T07:58:32.043</time></trkpt><trkpt lat="55.7581183" lon="49.1552850"><time>2022-10-29T07:58:33.047</time></trkpt><trkpt lat="55.7580733" lon="49.1553400"><time>2022-10-29T07:58:34.043</time></trkpt><trkpt lat="55.7580333" lon="49.1553950"><time>2022-10-29T07:58:35.053</time></trkpt><trkpt lat="55.7580333" lon="49.1553950"><time>2022-10-29T07:58:36.017</time></trkpt><trkpt lat="55.7580183" lon="49.1554967"><time>2022-10-29T07:58:38.547</time></trkpt><trkpt lat="55.7579617" lon="49.1555883"><time>2022-10-29T07:58:40.040</time></trkpt><trkpt lat="55.7579150" lon="49.1556400"><time>2022-10-29T07:58:41.040</time></trkpt><trkpt lat="55.7578300" lon="49.1556967"><time>2022-10-29T07:58:43.043</time></trkpt><trkpt lat="55.7577717" lon="49.1557483"><time>2022-10-29T07:58:45.057</time></trkpt><trkpt lat="55.7577717" lon="49.1557483"><time>2022-10-29T07:58:45.100</time></trkpt><trkpt lat="55.7577200" lon="49.1558450"><time>2022-10-29T07:58:47.053</time></trkpt><trkpt lat="55.7577200" lon="49.1558417"><time>2022-10-29T07:58:48.020</time></trkpt><trkpt lat="55.7576633" lon="49.1559050"><time>2022-10-29T07:58:49.543</time></trkpt><trkpt lat="55.7576183" lon="49.1559600"><time>2022-10-29T07:58:50.547</time></trkpt><trkpt lat="55.7575383" lon="49.1560433"><time>2022-10-29T07:58:52.037</time></trkpt><trkpt lat="55.7574900" lon="49.1561083"><time>2022-10-29T07:58:53.047</time></trkpt><trkpt lat="55.7574450" lon="49.1561667"><time>2022-10-29T07:58:54.047</time></trkpt><trkpt lat="55.7574050" lon="49.1562333"><time>2022-10-29T07:58:55.047</time></trkpt><trkpt lat="55.7573617" lon="49.1562833"><time>2022-10-29T07:58:56.047</time></trkpt><trkpt lat="55.7573133" lon="49.1563450"><time>2022-10-29T07:58:57.047</time></trkpt><trkpt lat="55.7572650" lon="49.1564117"><time>2022-10-29T07:58:58.047</time></trkpt><trkpt lat="55.7572100" lon="49.1564767"><time>2022-10-29T07:58:59.043</time></trkpt><trkpt lat="55.7571550" lon="49.1565417"><time>2022-10-29T07:59:00.047</time></trkpt><trkpt lat="55.7570867" lon="49.1566133"><time>2022-10-29T07:59:01.050</time></trkpt><trkpt lat="55.7570233" lon="49.1566817"><time>2022-10-29T07:59:02.047</time></trkpt><trkpt lat="55.7569600" lon="49.1567600"><time>2022-10-29T07:59:03.047</time></trkpt><trkpt lat="55.7568983" lon="49.1568367"><time>2022-10-29T07:59:04.047</time></trkpt><trkpt lat="55.7568350" lon="49.1569100"><time>2022-10-29T07:59:05.047</time></trkpt><trkpt lat="55.7567717" lon="49.1569900"><time>2022-10-29T07:59:06.047</time></trkpt><trkpt lat="55.7567100" lon="49.1570650"><time>2022-10-29T07:59:07.047</time></trkpt><trkpt lat="55.7566517" lon="49.1571200"><time>2022-10-29T07:59:08.047</time></trkpt><trkpt lat="55.7565833" lon="49.1571800"><time>2022-10-29T07:59:09.050</time></trkpt><trkpt lat="55.7565300" lon="49.1572467"><time>2022-10-29T07:59:10.047</time></trkpt><trkpt lat="55.7564683" lon="49.1573067"><time>2022-10-29T07:59:11.050</time></trkpt><trkpt lat="55.7564033" lon="49.1573750"><time>2022-10-29T07:59:12.047</time></trkpt><trkpt lat="55.7563467" lon="49.1574383"><time>2022-10-29T07:59:13.050</time></trkpt><trkpt lat="55.7562817" lon="49.1575200"><time>2022-10-29T07:59:14.050</time></trkpt><trkpt lat="55.7562267" lon="49.1575900"><time>2022-10-29T07:59:15.047</time></trkpt><trkpt lat="55.7561650" lon="49.1576583"><time>2022-10-29T07:59:16.057</time></trkpt><trkpt lat="55.7561100" lon="49.1577317"><time>2022-10-29T07:59:17.060</time></trkpt><trkpt lat="55.7560517" lon="49.1578017"><time>2022-10-29T07:59:18.057</time></trkpt><trkpt lat="55.7559967" lon="49.1578783"><time>2022-10-29T07:59:19.057</time></trkpt><trkpt lat="55.7559350" lon="49.1579550"><time>2022-10-29T07:59:20.057</time></trkpt><trkpt lat="55.7558800" lon="49.1580233"><time>2022-10-29T07:59:21.057</time></trkpt><trkpt lat="55.7558150" lon="49.1580950"><time>2022-10-29T07:59:22.057</time></trkpt><trkpt lat="55.7557500" lon="49.1581633"><time>2022-10-29T07:59:23.060</time></trkpt><trkpt lat="55.7557033" lon="49.1582300"><time>2022-10-29T07:59:24.057</time></trkpt><trkpt lat="55.7556583" lon="49.1583117"><time>2022-10-29T07:59:25.057</time></trkpt><trkpt lat="55.7556050" lon="49.1583700"><time>2022-10-29T07:59:26.060</time></trkpt><trkpt lat="55.7555500" lon="49.1584183"><time>2022-10-29T07:59:27.057</time></trkpt><trkpt lat="55.7555017" lon="49.1584667"><time>2022-10-29T07:59:28.053</time></trkpt><trkpt lat="55.7554583" lon="49.1585167"><time>2022-10-29T07:59:29.057</time></trkpt><trkpt lat="55.7554117" lon="49.1585700"><time>2022-10-29T07:59:30.057</time></trkpt><trkpt lat="55.7553683" lon="49.1586233"><time>2022-10-29T07:59:31.057</time></trkpt><trkpt lat="55.7553317" lon="49.1586767"><time>2022-10-29T07:59:32.060</time></trkpt><trkpt lat="55.7552850" lon="49.1587217"><time>2022-10-29T07:59:33.057</time></trkpt><trkpt lat="55.7552383" lon="49.1587783"><time>2022-10-29T07:59:34.057</time></trkpt><trkpt lat="55.7551917" lon="49.1588383"><time>2022-10-29T07:59:35.057</time></trkpt><trkpt lat="55.7551400" lon="49.1588900"><time>2022-10-29T07:59:36.057</time></trkpt><trkpt lat="55.7550950" lon="49.1589467"><time>2022-10-29T07:59:37.057</time></trkpt><trkpt lat="55.7550533" lon="49.1590000"><time>2022-10-29T07:59:38.057</time></trkpt><trkpt lat="55.7550017" lon="49.1590650"><time>2022-10-29T07:59:39.060</time></trkpt><trkpt lat="55.7549533" lon="49.1591233"><time>2022-10-29T07:59:40.060</time></trkpt><trkpt lat="55.7549100" lon="49.1591767"><time>2022-10-29T07:59:41.037</time></trkpt><trkpt lat="55.7548417" lon="49.1592683"><time>2022-10-29T07:59:43.057</time></trkpt><trkpt lat="55.7548017" lon="49.1593200"><time>2022-10-29T07:59:44.057</time></trkpt><trkpt lat="55.7547600" lon="49.1593733"><time>2022-10-29T07:59:45.057</time></trkpt><trkpt lat="55.7547217" lon="49.1594283"><time>2022-10-29T07:59:46.053</time></trkpt><trkpt lat="55.7546867" lon="49.1594800"><time>2022-10-29T07:59:47.053</time></trkpt><trkpt lat="55.7546083" lon="49.1595500"><time>2022-10-29T07:59:49.057</time></trkpt><trkpt lat="55.7545650" lon="49.1595867"><time>2022-10-29T07:59:50.060</time></trkpt><trkpt lat="55.7545233" lon="49.1596333"><time>2022-10-29T07:59:51.057</time></trkpt><trkpt lat="55.7544750" lon="49.1596967"><time>2022-10-29T07:59:52.060</time></trkpt><trkpt lat="55.7544233" lon="49.1597583"><time>2022-10-29T07:59:53.053</time></trkpt><trkpt lat="55.7543767" lon="49.1598250"><time>2022-10-29T07:59:54.060</time></trkpt><trkpt lat="55.7543250" lon="49.1598817"><time>2022-10-29T07:59:55.057</time></trkpt><trkpt lat="55.7542750" lon="49.1599417"><time>2022-10-29T07:59:56.057</time></trkpt><trkpt lat="55.7542283" lon="49.1600017"><time>2022-10-29T07:59:57.057</time></trkpt><trkpt lat="55.7541817" lon="49.1600583"><time>2022-10-29T07:59:58.060</time></trkpt><trkpt lat="55.7541383" lon="49.1601117"><time>2022-10-29T07:59:59.057</time></trkpt><trkpt lat="55.7540933" lon="49.1601467"><time>2022-10-29T08:00:00.057</time></trkpt><trkpt lat="55.7540483" lon="49.1601750"><time>2022-10-29T08:00:01.047</time></trkpt><trkpt lat="55.7539700" lon="49.1602017"><time>2022-10-29T08:00:03.053</time></trkpt><trkpt lat="55.7539183" lon="49.1601217"><time>2022-10-29T08:00:05.057</time></trkpt><trkpt lat="55.7538867" lon="49.1599833"><time>2022-10-29T08:00:07.053</time></trkpt><trkpt lat="55.7538667" lon="49.1599100"><time>2022-10-29T08:00:08.053</time></trkpt><trkpt lat="55.7538433" lon="49.1598367"><time>2022-10-29T08:00:09.053</time></trkpt><trkpt lat="55.7538150" lon="49.1597633"><time>2022-10-29T08:00:10.053</time></trkpt><trkpt lat="55.7537867" lon="49.1596933"><time>2022-10-29T08:00:11.057</time></trkpt><trkpt lat="55.7537617" lon="49.1596150"><time>2022-10-29T08:00:12.057</time></trkpt><trkpt lat="55.7537167" lon="49.1595117"><time>2022-10-29T08:00:14.053</time></trkpt><trkpt lat="55.7536867" lon="49.1594100"><time>2022-10-29T08:00:16.057</time></trkpt><trkpt lat="55.7536367" lon="49.1593117"><time>2022-10-29T08:00:18.053</time></trkpt><trkpt lat="55.7535850" lon="49.1591733"><time>2022-10-29T08:00:20.057</time></trkpt><trkpt lat="55.7535617" lon="49.1591000"><time>2022-10-29T08:00:21.057</time></trkpt><trkpt lat="55.7535317" lon="49.1590133"><time>2022-10-29T08:00:22.053</time></trkpt><trkpt lat="55.7535067" lon="49.1588750"><time>2022-10-29T08:00:24.057</time></trkpt><trkpt lat="55.7534917" lon="49.1587800"><time>2022-10-29T08:00:25.057</time></trkpt><trkpt lat="55.7534750" lon="49.1586883"><time>2022-10-29T08:00:26.053</time></trkpt><trkpt lat="55.7534667" lon="49.1586000"><time>2022-10-29T08:00:27.053</time></trkpt><trkpt lat="55.7534467" lon="49.1585150"><time>2022-10-29T08:00:28.053</time></trkpt><trkpt lat="55.7534283" lon="49.1584333"><time>2022-10-29T08:00:29.057</time></trkpt><trkpt lat="55.7533983" lon="49.1582867"><time>2022-10-29T08:00:31.060</time></trkpt><trkpt lat="55.7533600" lon="49.1581483"><time>2022-10-29T08:00:33.060</time></trkpt><trkpt lat="55.7533400" lon="49.1580717"><time>2022-10-29T08:00:34.053</time></trkpt><trkpt lat="55.7533183" lon="49.1579967"><time>2022-10-29T08:00:35.060</time></trkpt><trkpt lat="55.7532967" lon="49.1579267"><time>2022-10-29T08:00:36.057</time></trkpt><trkpt lat="55.7532267" lon="49.1578217"><time>2022-10-29T08:00:38.043</time></trkpt><trkpt lat="55.7531867" lon="49.1577617"><time>2022-10-29T08:00:39.057</time></trkpt><trkpt lat="55.7531517" lon="49.1576883"><time>2022-10-29T08:00:40.057</time></trkpt><trkpt lat="55.7531133" lon="49.1576183"><time>2022-10-29T08:00:41.057</time></trkpt><trkpt lat="55.7530700" lon="49.1575533"><time>2022-10-29T08:00:42.057</time></trkpt><trkpt lat="55.7530183" lon="49.1575033"><time>2022-10-29T08:00:43.053</time></trkpt><trkpt lat="55.7529633" lon="49.1574600"><time>2022-10-29T08:00:44.057</time></trkpt><trkpt lat="55.7529117" lon="49.1574183"><time>2022-10-29T08:00:45.057</time></trkpt><trkpt lat="55.7528600" lon="49.1573783"><time>2022-10-29T08:00:46.057</time></trkpt><trkpt lat="55.7528100" lon="49.1573450"><time>2022-10-29T08:00:47.057</time></trkpt><trkpt lat="55.7527667" lon="49.1573233"><time>2022-10-29T08:00:48.057</time></trkpt><trkpt lat="55.7527233" lon="49.1572883"><time>2022-10-29T08:00:49.057</time></trkpt><trkpt lat="55.7526850" lon="49.1572367"><time>2022-10-29T08:00:50.057</time></trkpt><trkpt lat="55.7526450" lon="49.1571883"><time>2022-10-29T08:00:51.057</time></trkpt><trkpt lat="55.7525800" lon="49.1570967"><time>2022-10-29T08:00:53.057</time></trkpt><trkpt lat="55.7525283" lon="49.1570150"><time>2022-10-29T08:00:55.050</time></trkpt><trkpt lat="55.7524667" lon="49.1569483"><time>2022-10-29T08:00:57.057</time></trkpt><trkpt lat="55.7524100" lon="49.1568600"><time>2022-10-29T08:00:59.057</time></trkpt><trkpt lat="55.7523433" lon="49.1567583"><time>2022-10-29T08:01:01.057</time></trkpt><trkpt lat="55.7522683" lon="49.1566833"><time>2022-10-29T08:01:03.053</time></trkpt><trkpt lat="55.7522217" lon="49.1566500"><time>2022-10-29T08:01:04.057</time></trkpt><trkpt lat="55.7521750" lon="49.1566067"><time>2022-10-29T08:01:05.053</time></trkpt><trkpt lat="55.7521283" lon="49.1565583"><time>2022-10-29T08:01:06.057</time></trkpt><trkpt lat="55.7520817" lon="49.1565167"><time>2022-10-29T08:01:07.057</time></trkpt><trkpt lat="55.7520333" lon="49.1564783"><time>2022-10-29T08:01:08.057</time></trkpt><trkpt lat="55.7519833" lon="49.1564433"><time>2022-10-29T08:01:09.057</time></trkpt><trkpt lat="55.7519333" lon="49.1564317"><time>2022-10-29T08:01:10.053</time></trkpt><trkpt lat="55.7518850" lon="49.1564217"><time>2022-10-29T08:01:11.057</time></trkpt><trkpt lat="55.7518317" lon="49.1564217"><time>2022-10-29T08:01:12.057</time></trkpt><trkpt lat="55.7517717" lon="49.1564350"><time>2022-10-29T08:01:13.060</time></trkpt><trkpt lat="55.7517150" lon="49.1564267"><time>2022-10-29T08:01:14.057</time></trkpt><trkpt lat="55.7516567" lon="49.1564433"><time>2022-10-29T08:01:15.057</time></trkpt><trkpt lat="55.7516000" lon="49.1564633"><time>2022-10-29T08:01:16.053</time></trkpt><trkpt lat="55.7515433" lon="49.1564700"><time>2022-10-29T08:01:17.057</time></trkpt><trkpt lat="55.7514833" lon="49.1564867"><time>2022-10-29T08:01:18.057</time></trkpt><trkpt lat="55.7513850" lon="49.1565100"><time>2022-10-29T08:01:20.057</time></trkpt><trkpt lat="55.7513317" lon="49.1565300"><time>2022-10-29T08:01:21.057</time></trkpt><trkpt lat="55.7512850" lon="49.1565333"><time>2022-10-29T08:01:22.063</time></trkpt><trkpt lat="55.7511583" lon="49.1570183"><time>2022-10-29T08:01:23.057</time></trkpt><trkpt lat="55.7510683" lon="49.1567300"><time>2022-10-29T08:01:23.927</time></trkpt><trkpt lat="55.7510217" lon="49.1566200"><time>2022-10-29T08:01:25.043</time></trkpt><trkpt lat="55.7510233" lon="49.1566183"><time>2022-10-29T08:01:25.933</time></trkpt><trkpt lat="55.7509300" lon="49.1566283"><time>2022-10-29T08:01:27.040</time></trkpt><trkpt lat="55.7508817" lon="49.1566567"><time>2022-10-29T08:01:28.543</time></trkpt><trkpt lat="55.7508317" lon="49.1566600"><time>2022-10-29T08:01:30.047</time></trkpt><trkpt lat="55.7507817" lon="49.1566817"><time>2022-10-29T08:01:31.047</time></trkpt><trkpt lat="55.7507250" lon="49.1566933"><time>2022-10-29T08:01:32.047</time></trkpt><trkpt lat="55.7506583" lon="49.1566933"><time>2022-10-29T08:01:33.047</time></trkpt><trkpt lat="55.7505917" lon="49.1567017"><time>2022-10-29T08:01:34.037</time></trkpt><trkpt lat="55.7505183" lon="49.1567017"><time>2022-10-29T08:01:35.023</time></trkpt><trkpt lat="55.7504517" lon="49.1567067"><time>2022-10-29T08:01:36.027</time></trkpt><trkpt lat="55.7503867" lon="49.1567100"><time>2022-10-29T08:01:37.040</time></trkpt><trkpt lat="55.7503233" lon="49.1567167"><time>2022-10-29T08:01:38.047</time></trkpt><trkpt lat="55.7502617" lon="49.1567217"><time>2022-10-29T08:01:39.047</time></trkpt><trkpt lat="55.7502000" lon="49.1567417"><time>2022-10-29T08:01:40.047</time></trkpt><trkpt lat="55.7501367" lon="49.1567700"><time>2022-10-29T08:01:41.047</time></trkpt><trkpt lat="55.7500700" lon="49.1568000"><time>2022-10-29T08:01:42.047</time></trkpt><trkpt lat="55.7500200" lon="49.1568000"><time>2022-10-29T08:01:43.050</time></trkpt><trkpt lat="55.7502583" lon="49.1565950"><time>2022-10-29T08:01:44.057</time></trkpt><trkpt lat="55.7507400" lon="49.1567417"><time>2022-10-29T08:01:44.947</time></trkpt><trkpt lat="55.7498517" lon="49.1568250"><time>2022-10-29T08:01:45.447</time></trkpt><trkpt lat="55.7508583" lon="49.1567183"><time>2022-10-29T08:01:46.337</time></trkpt><trkpt lat="55.7508650" lon="49.1567183"><time>2022-10-29T08:01:47.220</time></trkpt><trkpt lat="55.7498667" lon="49.1567767"><time>2022-10-29T08:01:47.700</time></trkpt><trkpt lat="55.7496917" lon="49.1568800"><time>2022-10-29T08:01:49.077</time></trkpt><trkpt lat="55.7496300" lon="49.1568517"><time>2022-10-29T08:01:49.570</time></trkpt><trkpt lat="55.7495800" lon="49.1568267"><time>2022-10-29T08:01:50.527</time></trkpt><trkpt lat="55.7495250" lon="49.1568150"><time>2022-10-29T08:01:52.043</time></trkpt><trkpt lat="55.7494200" lon="49.1568117"><time>2022-10-29T08:01:54.047</time></trkpt><trkpt lat="55.7493533" lon="49.1568167"><time>2022-10-29T08:01:55.047</time></trkpt><trkpt lat="55.7492867" lon="49.1568133"><time>2022-10-29T08:01:56.037</time></trkpt><trkpt lat="55.7492317" lon="49.1568117"><time>2022-10-29T08:01:57.040</time></trkpt><trkpt lat="55.7491717" lon="49.1568200"><time>2022-10-29T08:01:58.047</time></trkpt><trkpt lat="55.7491117" lon="49.1568200"><time>2022-10-29T08:01:59.043</time></trkpt><trkpt lat="55.7490450" lon="49.1568183"><time>2022-10-29T08:02:00.047</time></trkpt><trkpt lat="55.7489800" lon="49.1568133"><time>2022-10-29T08:02:01.047</time></trkpt><trkpt lat="55.7489183" lon="49.1568117"><time>2022-10-29T08:02:02.050</time></trkpt><trkpt lat="55.7488567" lon="49.1568167"><time>2022-10-29T08:02:03.047</time></trkpt><trkpt lat="55.7487967" lon="49.1568233"><time>2022-10-29T08:02:04.050</time></trkpt><trkpt lat="55.7487483" lon="49.1568117"><time>2022-10-29T08:02:05.043</time></trkpt><trkpt lat="55.7486867" lon="49.1568067"><time>2022-10-29T08:02:06.043</time></trkpt><trkpt lat="55.7486267" lon="49.1567967"><time>2022-10-29T08:02:07.043</time></trkpt><trkpt lat="55.7485517" lon="49.1567950"><time>2022-10-29T08:02:08.030</time></trkpt><trkpt lat="55.7484817" lon="49.1567983"><time>2022-10-29T08:02:09.037</time></trkpt><trkpt lat="55.7484167" lon="49.1568033"><time>2022-10-29T08:02:10.050</time></trkpt><trkpt lat="55.7483517" lon="49.1568017"><time>2022-10-29T08:02:11.050</time></trkpt><trkpt lat="55.7482867" lon="49.1568033"><time>2022-10-29T08:02:12.047</time></trkpt><trkpt lat="55.7482300" lon="49.1567983"><time>2022-10-29T08:02:13.047</time></trkpt><trkpt lat="55.7481700" lon="49.1567933"><time>2022-10-29T08:02:14.023</time></trkpt><trkpt lat="55.7481100" lon="49.1567867"><time>2022-10-29T08:02:15.013</time></trkpt><trkpt lat="55.7480450" lon="49.1567833"><time>2022-10-29T08:02:16.043</time></trkpt><trkpt lat="55.7479850" lon="49.1567800"><time>2022-10-29T08:02:17.050</time></trkpt><trkpt lat="55.7479267" lon="49.1567767"><time>2022-10-29T08:02:18.057</time></trkpt><trkpt lat="55.7478683" lon="49.1567617"><time>2022-10-29T08:02:19.050</time></trkpt><trkpt lat="55.7478150" lon="49.1567650"><time>2022-10-29T08:02:20.053</time></trkpt><trkpt lat="55.7477667" lon="49.1567667"><time>2022-10-29T08:02:21.057</time></trkpt><trkpt lat="55.7477067" lon="49.1567617"><time>2022-10-29T08:02:22.057</time></trkpt><trkpt lat="55.7476550" lon="49.1567583"><time>2022-10-29T08:02:23.063</time></trkpt><trkpt lat="55.7476583" lon="49.1567567"><time>2022-10-29T08:02:24.030</time></trkpt><trkpt lat="55.7475983" lon="49.1567300"><time>2022-10-29T08:02:25.547</time></trkpt><trkpt lat="55.7475500" lon="49.1567267"><time>2022-10-29T08:02:26.047</time></trkpt><trkpt lat="55.7474733" lon="49.1567250"><time>2022-10-29T08:02:27.047</time></trkpt><trkpt lat="55.7474050" lon="49.1567317"><time>2022-10-29T08:02:28.047</time></trkpt><trkpt lat="55.7473533" lon="49.1567450"><time>2022-10-29T08:02:29.047</time></trkpt><trkpt lat="55.7473050" lon="49.1567583"><time>2022-10-29T08:02:30.047</time></trkpt><trkpt lat="55.7472317" lon="49.1567633"><time>2022-10-29T08:02:31.050</time></trkpt><trkpt lat="55.7471833" lon="49.1567850"><time>2022-10-29T08:02:32.047</time></trkpt><trkpt lat="55.7471350" lon="49.1567967"><time>2022-10-29T08:02:33.047</time></trkpt><trkpt lat="55.7470867" lon="49.1568017"><time>2022-10-29T08:02:34.050</time></trkpt><trkpt lat="55.7470350" lon="49.1568117"><time>2022-10-29T08:02:35.030</time></trkpt><trkpt lat="55.7469833" lon="49.1568200"><time>2022-10-29T08:02:36.047</time></trkpt><trkpt lat="55.7469100" lon="49.1567783"><time>2022-10-29T08:02:38.050</time></trkpt><trkpt lat="55.7468317" lon="49.1566783"><time>2022-10-29T08:02:40.047</time></trkpt><trkpt lat="55.7467733" lon="49.1565650"><time>2022-10-29T08:02:42.047</time></trkpt><trkpt lat="55.7467150" lon="49.1564550"><time>2022-10-29T08:02:44.063</time></trkpt><trkpt lat="55.7467467" lon="49.1562983"><time>2022-10-29T08:02:45.523</time></trkpt><trkpt lat="55.7467000" lon="49.1563200"><time>2022-10-29T08:02:46.017</time></trkpt><trkpt lat="55.7466450" lon="49.1563417"><time>2022-10-29T08:02:46.547</time></trkpt><trkpt lat="55.7465900" lon="49.1562983"><time>2022-10-29T08:02:47.047</time></trkpt><trkpt lat="55.7465417" lon="49.1562483"><time>2022-10-29T08:02:49.043</time></trkpt><trkpt lat="55.7464983" lon="49.1562050"><time>2022-10-29T08:02:51.047</time></trkpt><trkpt lat="55.7464617" lon="49.1561500"><time>2022-10-29T08:02:53.050</time></trkpt><trkpt lat="55.7464167" lon="49.1561067"><time>2022-10-29T08:02:56.047</time></trkpt><trkpt lat="55.7463683" lon="49.1561367"><time>2022-10-29T08:03:00.047</time></trkpt><trkpt lat="55.7463400" lon="49.1562017"><time>2022-10-29T08:03:03.057</time></trkpt><trkpt lat="55.7463433" lon="49.1562017"><time>2022-10-29T08:03:04.037</time></trkpt><trkpt lat="55.7463483" lon="49.1562083"><time>2022-10-29T08:03:04.950</time></trkpt><trkpt lat="55.7463100" lon="49.1562500"><time>2022-10-29T08:03:07.557</time></trkpt><trkpt lat="55.7463133" lon="49.1562500"><time>2022-10-29T08:03:08.533</time></trkpt><trkpt lat="55.7462633" lon="49.1562583"><time>2022-10-29T08:03:10.543</time></trkpt><trkpt lat="55.7462200" lon="49.1563200"><time>2022-10-29T08:03:14.043</time></trkpt><trkpt lat="55.7461917" lon="49.1563850"><time>2022-10-29T08:03:19.050</time></trkpt><trkpt lat="55.7462167" lon="49.1564567"><time>2022-10-29T08:03:23.047</time></trkpt><trkpt lat="55.7462200" lon="49.1565417"><time>2022-10-29T08:03:28.060</time></trkpt><trkpt lat="55.7462217" lon="49.1565400"><time>2022-10-29T08:03:29.043</time></trkpt><trkpt lat="55.7461750" lon="49.1565117"><time>2022-10-29T08:03:31.557</time></trkpt><trkpt lat="55.7461783" lon="49.1565117"><time>2022-10-29T08:03:32.550</time></trkpt><trkpt lat="55.7461817" lon="49.1565117"><time>2022-10-29T08:03:33.437</time></trkpt><trkpt lat="55.7461617" lon="49.1564383"><time>2022-10-29T08:03:36.060</time></trkpt><trkpt lat="55.7461650" lon="49.1564383"><time>2022-10-29T08:03:37.047</time></trkpt><trkpt lat="55.7461100" lon="49.1564067"><time>2022-10-29T08:03:40.050</time></trkpt><trkpt lat="55.7460567" lon="49.1563650"><time>2022-10-29T08:03:42.047</time></trkpt><trkpt lat="55.7460050" lon="49.1563400"><time>2022-10-29T08:03:45.047</time></trkpt><trkpt lat="55.7459867" lon="49.1562667"><time>2022-10-29T08:03:53.047</time></trkpt><trkpt lat="55.7459767" lon="49.1561733"><time>2022-10-29T08:03:57.047</time></trkpt><trkpt lat="55.7459700" lon="49.1560833"><time>2022-10-29T08:04:10.060</time></trkpt><trkpt lat="55.7459700" lon="49.1560833"><time>2022-10-29T08:04:10.097</time></trkpt><trkpt lat="55.7459483" lon="49.1560067"><time>2022-10-29T08:04:14.070</time></trkpt><trkpt lat="55.7459367" lon="49.1556917"><time>2022-10-29T08:04:35.060</time></trkpt><trkpt lat="55.7459450" lon="49.1556050"><time>2022-10-29T08:04:37.040</time></trkpt><trkpt lat="55.7460017" lon="49.1555583"><time>2022-10-29T08:04:40.047</time></trkpt><trkpt lat="55.7460750" lon="49.1555217"><time>2022-10-29T08:04:42.050</time></trkpt><trkpt lat="55.7461600" lon="49.1555267"><time>2022-10-29T08:04:44.050</time></trkpt><trkpt lat="55.7462283" lon="49.1555700"><time>2022-10-29T08:04:46.047</time></trkpt><trkpt lat="55.7462850" lon="49.1556117"><time>2022-10-29T08:04:48.047</time></trkpt><trkpt lat="55.7463617" lon="49.1556317"><time>2022-10-29T08:04:50.047</time></trkpt><trkpt lat="55.7464067" lon="49.1556367"><time>2022-10-29T08:04:51.047</time></trkpt><trkpt lat="55.7464983" lon="49.1556483"><time>2022-10-29T08:04:53.047</time></trkpt><trkpt lat="55.7465433" lon="49.1556417"><time>2022-10-29T08:04:54.050</time></trkpt><trkpt lat="55.7465967" lon="49.1556483"><time>2022-10-29T08:04:55.050</time></trkpt><trkpt lat="55.7466500" lon="49.1556567"><time>2022-10-29T08:04:56.050</time></trkpt><trkpt lat="55.7467000" lon="49.1556633"><time>2022-10-29T08:04:57.047</time></trkpt><trkpt lat="55.7467500" lon="49.1556667"><time>2022-10-29T08:04:58.043</time></trkpt><trkpt lat="55.7468067" lon="49.1556617"><time>2022-10-29T08:04:59.047</time></trkpt><trkpt lat="55.7468683" lon="49.1556533"><time>2022-10-29T08:05:00.050</time></trkpt><trkpt lat="55.7469250" lon="49.1556433"><time>2022-10-29T08:05:01.047</time></trkpt><trkpt lat="55.7469833" lon="49.1556267"><time>2022-10-29T08:05:02.050</time></trkpt><trkpt lat="55.7470400" lon="49.1556083"><time>2022-10-29T08:05:03.050</time></trkpt><trkpt lat="55.7470983" lon="49.1555883"><time>2022-10-29T08:05:04.047</time></trkpt><trkpt lat="55.7471567" lon="49.1555683"><time>2022-10-29T08:05:05.047</time></trkpt><trkpt lat="55.7472100" lon="49.1555633"><time>2022-10-29T08:05:06.053</time></trkpt><trkpt lat="55.7472650" lon="49.1555583"><time>2022-10-29T08:05:07.057</time></trkpt><trkpt lat="55.7473167" lon="49.1555600"><time>2022-10-29T08:05:08.060</time></trkpt><trkpt lat="55.7473633" lon="49.1555550"><time>2022-10-29T08:05:09.057</time></trkpt><trkpt lat="55.7474083" lon="49.1555450"><time>2022-10-29T08:05:10.057</time></trkpt><trkpt lat="55.7474833" lon="49.1555150"><time>2022-10-29T08:05:12.057</time></trkpt><trkpt lat="55.7475483" lon="49.1555117"><time>2022-10-29T08:05:14.057</time></trkpt><trkpt lat="55.7476000" lon="49.1555033"><time>2022-10-29T08:05:16.053</time></trkpt><trkpt lat="55.7476517" lon="49.1555000"><time>2022-10-29T08:05:29.053</time></trkpt><trkpt lat="55.7477083" lon="49.1554983"><time>2022-10-29T08:05:31.050</time></trkpt><trkpt lat="55.7477817" lon="49.1555033"><time>2022-10-29T08:05:33.057</time></trkpt><trkpt lat="55.7478533" lon="49.1555083"><time>2022-10-29T08:05:35.057</time></trkpt><trkpt lat="55.7479367" lon="49.1555033"><time>2022-10-29T08:05:37.060</time></trkpt><trkpt lat="55.7479817" lon="49.1554983"><time>2022-10-29T08:05:38.057</time></trkpt><trkpt lat="55.7480300" lon="49.1554917"><time>2022-10-29T08:05:39.053</time></trkpt><trkpt lat="55.7480800" lon="49.1554900"><time>2022-10-29T08:05:40.057</time></trkpt><trkpt lat="55.7481317" lon="49.1554883"><time>2022-10-29T08:05:41.057</time></trkpt><trkpt lat="55.7481850" lon="49.1554833"><time>2022-10-29T08:05:42.053</time></trkpt><trkpt lat="55.7482367" lon="49.1554750"><time>2022-10-29T08:05:43.060</time></trkpt><trkpt lat="55.7482883" lon="49.1554667"><time>2022-10-29T08:05:44.057</time></trkpt><trkpt lat="55.7483433" lon="49.1554517"><time>2022-10-29T08:05:45.057</time></trkpt><trkpt lat="55.7483950" lon="49.1554367"><time>2022-10-29T08:05:46.063</time></trkpt><trkpt lat="55.7484400" lon="49.1554283"><time>2022-10-29T08:05:47.057</time></trkpt><trkpt lat="55.7485250" lon="49.1554117"><time>2022-10-29T08:05:49.057</time></trkpt><trkpt lat="55.7485750" lon="49.1553917"><time>2022-10-29T08:05:50.060</time></trkpt><trkpt lat="55.7486283" lon="49.1553667"><time>2022-10-29T08:05:51.057</time></trkpt><trkpt lat="55.7486717" lon="49.1553367"><time>2022-10-29T08:05:52.057</time></trkpt><trkpt lat="55.7487400" lon="49.1552517"><time>2022-10-29T08:05:54.057</time></trkpt><trkpt lat="55.7487733" lon="49.1551950"><time>2022-10-29T08:05:55.063</time></trkpt><trkpt lat="55.7488083" lon="49.1551300"><time>2022-10-29T08:05:56.057</time></trkpt><trkpt lat="55.7488417" lon="49.1550600"><time>2022-10-29T08:05:57.057</time></trkpt><trkpt lat="55.7488767" lon="49.1549867"><time>2022-10-29T08:05:58.067</time></trkpt><trkpt lat="55.7488767" lon="49.1549867"><time>2022-10-29T08:05:59.040</time></trkpt><trkpt lat="55.7489383" lon="49.1548767"><time>2022-10-29T08:06:00.040</time></trkpt><trkpt lat="55.7489817" lon="49.1548100"><time>2022-10-29T08:06:01.047</time></trkpt><trkpt lat="55.7490233" lon="49.1547583"><time>2022-10-29T08:06:02.047</time></trkpt><trkpt lat="55.7490783" lon="49.1546800"><time>2022-10-29T08:06:04.050</time></trkpt><trkpt lat="55.7491417" lon="49.1545817"><time>2022-10-29T08:06:06.047</time></trkpt><trkpt lat="55.7491717" lon="49.1545117"><time>2022-10-29T08:06:07.047</time></trkpt><trkpt lat="55.7492167" lon="49.1543967"><time>2022-10-29T08:06:09.037</time></trkpt><trkpt lat="55.7492467" lon="49.1542883"><time>2022-10-29T08:06:11.047</time></trkpt><trkpt lat="55.7492750" lon="49.1541867"><time>2022-10-29T08:06:13.047</time></trkpt><trkpt lat="55.7493083" lon="49.1540933"><time>2022-10-29T08:06:15.040</time></trkpt><trkpt lat="55.7493383" lon="49.1539817"><time>2022-10-29T08:06:17.047</time></trkpt><trkpt lat="55.7493700" lon="49.1538700"><time>2022-10-29T08:06:19.047</time></trkpt><trkpt lat="55.7493917" lon="49.1537700"><time>2022-10-29T08:06:21.047</time></trkpt><trkpt lat="55.7494267" lon="49.1536667"><time>2022-10-29T08:06:23.050</time></trkpt><trkpt lat="55.7494867" lon="49.1535883"><time>2022-10-29T08:06:25.047</time></trkpt><trkpt lat="55.7495583" lon="49.1535367"><time>2022-10-29T08:06:27.057</time></trkpt><trkpt lat="55.7496233" lon="49.1535133"><time>2022-10-29T08:06:29.063</time></trkpt><trkpt lat="55.7496233" lon="49.1535133"><time>2022-10-29T08:06:30.027</time></trkpt><trkpt lat="55.7496683" lon="49.1534833"><time>2022-10-29T08:06:31.040</time></trkpt><trkpt lat="55.7497333" lon="49.1534450"><time>2022-10-29T08:06:32.047</time></trkpt><trkpt lat="55.7497850" lon="49.1534400"><time>2022-10-29T08:06:33.047</time></trkpt><trkpt lat="55.7498600" lon="49.1534183"><time>2022-10-29T08:06:35.047</time></trkpt><trkpt lat="55.7499150" lon="49.1533917"><time>2022-10-29T08:06:37.043</time></trkpt><trkpt lat="55.7499650" lon="49.1533833"><time>2022-10-29T08:06:39.047</time></trkpt><trkpt lat="55.7500150" lon="49.1533583"><time>2022-10-29T08:06:41.050</time></trkpt><trkpt lat="55.7500583" lon="49.1533267"><time>2022-10-29T08:06:43.050</time></trkpt><trkpt lat="55.7501067" lon="49.1533267"><time>2022-10-29T08:06:46.060</time></trkpt><trkpt lat="55.7501067" lon="49.1533267"><time>2022-10-29T08:06:47.040</time></trkpt><trkpt lat="55.7501567" lon="49.1533800"><time>2022-10-29T08:06:56.047</time></trkpt><trkpt lat="55.7501767" lon="49.1534550"><time>2022-10-29T08:06:58.043</time></trkpt><trkpt lat="55.7501983" lon="49.1535633"><time>2022-10-29T08:07:01.050</time></trkpt><trkpt lat="55.7502267" lon="49.1536617"><time>2022-10-29T08:07:04.047</time></trkpt><trkpt lat="55.7502567" lon="49.1537450"><time>2022-10-29T08:07:06.047</time></trkpt><trkpt lat="55.7503050" lon="49.1537783"><time>2022-10-29T08:07:08.047</time></trkpt><trkpt lat="55.7503583" lon="49.1537567"><time>2022-10-29T08:07:10.047</time></trkpt><trkpt lat="55.7503583" lon="49.1537567"><time>2022-10-29T08:07:10.087</time></trkpt><trkpt lat="55.7504133" lon="49.1537383"><time>2022-10-29T08:07:12.070</time></trkpt><trkpt lat="55.7504133" lon="49.1537367"><time>2022-10-29T08:07:13.030</time></trkpt><trkpt lat="55.7504367" lon="49.1536667"><time>2022-10-29T08:07:18.037</time></trkpt><trkpt lat="55.7504017" lon="49.1537450"><time>2022-10-29T08:07:40.047</time></trkpt><trkpt lat="55.7503450" lon="49.1537567"><time>2022-10-29T08:07:43.053</time></trkpt><trkpt lat="55.7503000" lon="49.1537633"><time>2022-10-29T08:07:45.060</time></trkpt><trkpt lat="55.7502533" lon="49.1537000"><time>2022-10-29T08:07:48.057</time></trkpt><trkpt lat="55.7502300" lon="49.1536083"><time>2022-10-29T08:08:09.053</time></trkpt><trkpt lat="55.7502033" lon="49.1535083"><time>2022-10-29T08:08:13.057</time></trkpt><trkpt lat="55.7501800" lon="49.1534067"><time>2022-10-29T08:08:16.057</time></trkpt><trkpt lat="55.7501767" lon="49.1533050"><time>2022-10-29T08:08:18.057</time></trkpt><trkpt lat="55.7502017" lon="49.1532233"><time>2022-10-29T08:08:20.057</time></trkpt><trkpt lat="55.7502500" lon="49.1531883"><time>2022-10-29T08:08:22.057</time></trkpt><trkpt lat="55.7503133" lon="49.1531333"><time>2022-10-29T08:08:24.043</time></trkpt><trkpt lat="55.7503833" lon="49.1530633"><time>2022-10-29T08:08:26.053</time></trkpt><trkpt lat="55.7504600" lon="49.1529783"><time>2022-10-29T08:08:28.057</time></trkpt><trkpt lat="55.7504967" lon="49.1529217"><time>2022-10-29T08:08:29.057</time></trkpt><trkpt lat="55.7505333" lon="49.1528567"><time>2022-10-29T08:08:30.057</time></trkpt><trkpt lat="55.7506017" lon="49.1527517"><time>2022-10-29T08:08:32.057</time></trkpt><trkpt lat="55.7506367" lon="49.1526933"><time>2022-10-29T08:08:33.057</time></trkpt><trkpt lat="55.7506800" lon="49.1526483"><time>2022-10-29T08:08:34.057</time></trkpt><trkpt lat="55.7507233" lon="49.1526083"><time>2022-10-29T08:08:35.053</time></trkpt><trkpt lat="55.7507667" lon="49.1525617"><time>2022-10-29T08:08:36.057</time></trkpt><trkpt lat="55.7508100" lon="49.1525100"><time>2022-10-29T08:08:37.057</time></trkpt><trkpt lat="55.7508867" lon="49.1524300"><time>2022-10-29T08:08:39.057</time></trkpt><trkpt lat="55.7509267" lon="49.1523900"><time>2022-10-29T08:08:40.053</time></trkpt><trkpt lat="55.7509950" lon="49.1523117"><time>2022-10-29T08:08:42.057</time></trkpt><trkpt lat="55.7510500" lon="49.1522717"><time>2022-10-29T08:08:44.053</time></trkpt><trkpt lat="55.7511067" lon="49.1522083"><time>2022-10-29T08:08:46.057</time></trkpt><trkpt lat="55.7511717" lon="49.1520967"><time>2022-10-29T08:08:48.057</time></trkpt><trkpt lat="55.7512083" lon="49.1520300"><time>2022-10-29T08:08:49.057</time></trkpt><trkpt lat="55.7512500" lon="49.1519433"><time>2022-10-29T08:08:50.057</time></trkpt><trkpt lat="55.7512850" lon="49.1518767"><time>2022-10-29T08:08:51.057</time></trkpt><trkpt lat="55.7513167" lon="49.1518100"><time>2022-10-29T08:08:52.047</time></trkpt><trkpt lat="55.7513550" lon="49.1517550"><time>2022-10-29T08:08:53.057</time></trkpt><trkpt lat="55.7514400" lon="49.1516900"><time>2022-10-29T08:08:55.057</time></trkpt><trkpt lat="55.7514850" lon="49.1516450"><time>2022-10-29T08:08:56.053</time></trkpt><trkpt lat="55.7515283" lon="49.1515850"><time>2022-10-29T08:08:57.057</time></trkpt><trkpt lat="55.7515733" lon="49.1514883"><time>2022-10-29T08:08:58.057</time></trkpt><trkpt lat="55.7516133" lon="49.1514183"><time>2022-10-29T08:08:59.057</time></trkpt><trkpt lat="55.7516500" lon="49.1513400"><time>2022-10-29T08:09:00.053</time></trkpt><trkpt lat="55.7516917" lon="49.1512600"><time>2022-10-29T08:09:01.053</time></trkpt><trkpt lat="55.7517333" lon="49.1511933"><time>2022-10-29T08:09:02.057</time></trkpt><trkpt lat="55.7517700" lon="49.1511267"><time>2022-10-29T08:09:03.060</time></trkpt><trkpt lat="55.7518067" lon="49.1510800"><time>2022-10-29T08:09:04.017</time></trkpt><trkpt lat="55.7518633" lon="49.1509983"><time>2022-10-29T08:09:06.053</time></trkpt><trkpt lat="55.7519150" lon="49.1509267"><time>2022-10-29T08:09:08.053</time></trkpt><trkpt lat="55.7519750" lon="49.1508350"><time>2022-10-29T08:09:10.053</time></trkpt><trkpt lat="55.7520367" lon="49.1507233"><time>2022-10-29T08:09:12.057</time></trkpt><trkpt lat="55.7520733" lon="49.1506617"><time>2022-10-29T08:09:13.057</time></trkpt><trkpt lat="55.7521083" lon="49.1505967"><time>2022-10-29T08:09:14.057</time></trkpt><trkpt lat="55.7521500" lon="49.1505300"><time>2022-10-29T08:09:15.057</time></trkpt><trkpt lat="55.7521900" lon="49.1504617"><time>2022-10-29T08:09:16.057</time></trkpt><trkpt lat="55.7522250" lon="49.1503950"><time>2022-10-29T08:09:17.057</time></trkpt><trkpt lat="55.7522567" lon="49.1503317"><time>2022-10-29T08:09:18.057</time></trkpt><trkpt lat="55.7522883" lon="49.1502750"><time>2022-10-29T08:09:19.060</time></trkpt><trkpt lat="55.7523400" lon="49.1501667"><time>2022-10-29T08:09:21.057</time></trkpt><trkpt lat="55.7523950" lon="49.1500717"><time>2022-10-29T08:09:23.070</time></trkpt><trkpt lat="55.7524483" lon="49.1499767"><time>2022-10-29T08:09:25.067</time></trkpt><trkpt lat="55.7524483" lon="49.1499750"><time>2022-10-29T08:09:26.037</time></trkpt><trkpt lat="55.7524633" lon="49.1498883"><time>2022-10-29T08:09:28.547</time></trkpt><trkpt lat="55.7524683" lon="49.1498083"><time>2022-10-29T08:09:34.043</time></trkpt><trkpt lat="55.7524983" lon="49.1497467"><time>2022-10-29T08:09:44.047</time></trkpt><trkpt lat="55.7525183" lon="49.1496250"><time>2022-10-29T08:09:46.050</time></trkpt><trkpt lat="55.7525217" lon="49.1495400"><time>2022-10-29T08:09:47.047</time></trkpt><trkpt lat="55.7525250" lon="49.1494583"><time>2022-10-29T08:09:48.033</time></trkpt><trkpt lat="55.7525250" lon="49.1493733"><time>2022-10-29T08:09:49.047</time></trkpt><trkpt lat="55.7525267" lon="49.1492783"><time>2022-10-29T08:09:50.040</time></trkpt><trkpt lat="55.7525233" lon="49.1491733"><time>2022-10-29T08:09:51.037</time></trkpt><trkpt lat="55.7525250" lon="49.1490650"><time>2022-10-29T08:09:52.047</time></trkpt><trkpt lat="55.7525283" lon="49.1489717"><time>2022-10-29T08:09:53.040</time></trkpt><trkpt lat="55.7525450" lon="49.1488250"><time>2022-10-29T08:09:55.053</time></trkpt><trkpt lat="55.7525667" lon="49.1486867"><time>2022-10-29T08:09:57.057</time></trkpt><trkpt lat="55.7525917" lon="49.1486167"><time>2022-10-29T08:09:58.057</time></trkpt><trkpt lat="55.7526200" lon="49.1485417"><time>2022-10-29T08:09:59.053</time></trkpt><trkpt lat="55.7526517" lon="49.1484717"><time>2022-10-29T08:10:00.053</time></trkpt><trkpt lat="55.7526833" lon="49.1483917"><time>2022-10-29T08:10:01.117</time></trkpt><trkpt lat="55.7527183" lon="49.1483083"><time>2022-10-29T08:10:02.053</time></trkpt><trkpt lat="55.7527500" lon="49.1482333"><time>2022-10-29T08:10:03.027</time></trkpt><trkpt lat="55.7527800" lon="49.1481667"><time>2022-10-29T08:10:04.060</time></trkpt><trkpt lat="55.7528367" lon="49.1480183"><time>2022-10-29T08:10:06.047</time></trkpt><trkpt lat="55.7528783" lon="49.1479483"><time>2022-10-29T08:10:07.027</time></trkpt><trkpt lat="55.7529400" lon="49.1478333"><time>2022-10-29T08:10:09.067</time></trkpt><trkpt lat="55.7529400" lon="49.1478167"><time>2022-10-29T08:10:10.067</time></trkpt><trkpt lat="55.7529583" lon="49.1476600"><time>2022-10-29T08:10:11.543</time></trkpt><trkpt lat="55.7529900" lon="49.1475983"><time>2022-10-29T08:10:12.547</time></trkpt><trkpt lat="55.7530700" lon="49.1474950"><time>2022-10-29T08:10:15.043</time></trkpt><trkpt lat="55.7531150" lon="49.1473800"><time>2022-10-29T08:10:17.050</time></trkpt><trkpt lat="55.7531417" lon="49.1473100"><time>2022-10-29T08:10:18.047</time></trkpt><trkpt lat="55.7531683" lon="49.1472400"><time>2022-10-29T08:10:19.050</time></trkpt><trkpt lat="55.7531917" lon="49.1471583"><time>2022-10-29T08:10:20.050</time></trkpt><trkpt lat="55.7532217" lon="49.1470783"><time>2022-10-29T08:10:21.050</time></trkpt><trkpt lat="55.7532517" lon="49.1470100"><time>2022-10-29T08:10:22.050</time></trkpt><trkpt lat="55.7533067" lon="49.1468933"><time>2022-10-29T08:10:24.050</time></trkpt><trkpt lat="55.7533600" lon="49.1468000"><time>2022-10-29T08:10:26.053</time></trkpt><trkpt lat="55.7534167" lon="49.1467033"><time>2022-10-29T08:10:28.050</time></trkpt><trkpt lat="55.7534617" lon="49.1466117"><time>2022-10-29T08:10:30.050</time></trkpt><trkpt lat="55.7535100" lon="49.1465533"><time>2022-10-29T08:10:32.050</time></trkpt><trkpt lat="55.7535650" lon="49.1465333"><time>2022-10-29T08:10:41.060</time></trkpt><trkpt lat="55.7536133" lon="49.1465733"><time>2022-10-29T08:10:43.057</time></trkpt><trkpt lat="55.7536683" lon="49.1465917"><time>2022-10-29T08:10:45.060</time></trkpt><trkpt lat="55.7537300" lon="49.1465967"><time>2022-10-29T08:10:47.057</time></trkpt><trkpt lat="55.7537867" lon="49.1465850"><time>2022-10-29T08:10:49.050</time></trkpt><trkpt lat="55.7538283" lon="49.1465433"><time>2022-10-29T08:10:51.057</time></trkpt><trkpt lat="55.7537733" lon="49.1465450"><time>2022-10-29T08:10:58.063</time></trkpt><trkpt lat="55.7537217" lon="49.1465683"><time>2022-10-29T08:11:00.060</time></trkpt><trkpt lat="55.7536600" lon="49.1465567"><time>2022-10-29T08:11:02.057</time></trkpt><trkpt lat="55.7536067" lon="49.1465183"><time>2022-10-29T08:11:04.057</time></trkpt><trkpt lat="55.7535467" lon="49.1464983"><time>2022-10-29T08:11:06.060</time></trkpt><trkpt lat="55.7534867" lon="49.1465317"><time>2022-10-29T08:11:08.063</time></trkpt><trkpt lat="55.7534317" lon="49.1466150"><time>2022-10-29T08:11:10.060</time></trkpt><trkpt lat="55.7533850" lon="49.1467033"><time>2022-10-29T08:11:12.060</time></trkpt><trkpt lat="55.7533417" lon="49.1467883"><time>2022-10-29T08:11:14.063</time></trkpt><trkpt lat="55.7533167" lon="49.1468767"><time>2022-10-29T08:11:16.063</time></trkpt><trkpt lat="55.7532850" lon="49.1469533"><time>2022-10-29T08:11:18.060</time></trkpt><trkpt lat="55.7532533" lon="49.1470383"><time>2022-10-29T08:11:20.063</time></trkpt><trkpt lat="55.7532300" lon="49.1471117"><time>2022-10-29T08:11:22.060</time></trkpt><trkpt lat="55.7531950" lon="49.1471950"><time>2022-10-29T08:11:29.057</time></trkpt><trkpt lat="55.7531683" lon="49.1472667"><time>2022-10-29T08:11:31.063</time></trkpt><trkpt lat="55.7531383" lon="49.1473300"><time>2022-10-29T08:11:34.060</time></trkpt><trkpt lat="55.7531633" lon="49.1472500"><time>2022-10-29T08:11:41.060</time></trkpt><trkpt lat="55.7531950" lon="49.1471750"><time>2022-10-29T08:11:45.057</time></trkpt><trkpt lat="55.7532433" lon="49.1472017"><time>2022-10-29T08:11:52.053</time></trkpt><trkpt lat="55.7532267" lon="49.1471233"><time>2022-10-29T08:12:13.063</time></trkpt><trkpt lat="55.7532633" lon="49.1470200"><time>2022-10-29T08:12:16.060</time></trkpt><trkpt lat="55.7532967" lon="49.1469383"><time>2022-10-29T08:12:18.057</time></trkpt><trkpt lat="55.7533383" lon="49.1468483"><time>2022-10-29T08:12:20.047</time></trkpt><trkpt lat="55.7533967" lon="49.1467750"><time>2022-10-29T08:12:22.060</time></trkpt><trkpt lat="55.7534350" lon="49.1467133"><time>2022-10-29T08:12:24.060</time></trkpt><trkpt lat="55.7534867" lon="49.1466733"><time>2022-10-29T08:12:27.047</time></trkpt><trkpt lat="55.7535333" lon="49.1466483"><time>2022-10-29T08:12:30.037</time></trkpt><trkpt lat="55.7535867" lon="49.1466183"><time>2022-10-29T08:12:32.047</time></trkpt><trkpt lat="55.7536467" lon="49.1466600"><time>2022-10-29T08:12:34.020</time></trkpt><trkpt lat="55.7537267" lon="49.1466200"><time>2022-10-29T08:12:36.007</time></trkpt><trkpt lat="55.7537733" lon="49.1465983"><time>2022-10-29T08:12:37.010</time></trkpt><trkpt lat="55.7538300" lon="49.1465700"><time>2022-10-29T08:12:38.007</time></trkpt><trkpt lat="55.7538867" lon="49.1465667"><time>2022-10-29T08:12:39.007</time></trkpt><trkpt lat="55.7539333" lon="49.1465550"><time>2022-10-29T08:12:40.007</time></trkpt><trkpt lat="55.7540217" lon="49.1465417"><time>2022-10-29T08:12:42.007</time></trkpt><trkpt lat="55.7540700" lon="49.1465283"><time>2022-10-29T08:12:43.007</time></trkpt><trkpt lat="55.7541167" lon="49.1465150"><time>2022-10-29T08:12:44.010</time></trkpt><trkpt lat="55.7541617" lon="49.1465000"><time>2022-10-29T08:12:45.007</time></trkpt><trkpt lat="55.7542467" lon="49.1464750"><time>2022-10-29T08:12:47.020</time></trkpt><trkpt lat="55.7542483" lon="49.1464733"><time>2022-10-29T08:12:48.373</time></trkpt><trkpt lat="55.7543033" lon="49.1464267"><time>2022-10-29T08:12:50.067</time></trkpt><trkpt lat="55.7543517" lon="49.1464350"><time>2022-10-29T08:12:51.020</time></trkpt><trkpt lat="55.7544067" lon="49.1464317"><time>2022-10-29T08:12:52.030</time></trkpt><trkpt lat="55.7544567" lon="49.1464367"><time>2022-10-29T08:12:53.030</time></trkpt><trkpt lat="55.7545183" lon="49.1464150"><time>2022-10-29T08:12:54.023</time></trkpt><trkpt lat="55.7545917" lon="49.1463967"><time>2022-10-29T08:12:55.020</time></trkpt><trkpt lat="55.7546500" lon="49.1463767"><time>2022-10-29T08:12:56.020</time></trkpt><trkpt lat="55.7546983" lon="49.1463350"><time>2022-10-29T08:12:57.017</time></trkpt><trkpt lat="55.7547367" lon="49.1462917"><time>2022-10-29T08:12:58.017</time></trkpt><trkpt lat="55.7547867" lon="49.1462100"><time>2022-10-29T08:13:00.027</time></trkpt><trkpt lat="55.7548283" lon="49.1461783"><time>2022-10-29T08:13:01.023</time></trkpt><trkpt lat="55.7548750" lon="49.1461517"><time>2022-10-29T08:13:02.023</time></trkpt><trkpt lat="55.7549200" lon="49.1461317"><time>2022-10-29T08:13:03.030</time></trkpt><trkpt lat="55.7549683" lon="49.1461250"><time>2022-10-29T08:13:04.020</time></trkpt><trkpt lat="55.7550417" lon="49.1461000"><time>2022-10-29T08:13:06.053</time></trkpt><trkpt lat="55.7551350" lon="49.1460667"><time>2022-10-29T08:13:08.050</time></trkpt><trkpt lat="55.7551950" lon="49.1460550"><time>2022-10-29T08:13:09.050</time></trkpt><trkpt lat="55.7552533" lon="49.1460417"><time>2022-10-29T08:13:10.053</time></trkpt><trkpt lat="55.7553050" lon="49.1460283"><time>2022-10-29T08:13:11.067</time></trkpt><trkpt lat="55.7553067" lon="49.1460283"><time>2022-10-29T08:13:12.033</time></trkpt><trkpt lat="55.7553683" lon="49.1460067"><time>2022-10-29T08:13:14.547</time></trkpt><trkpt lat="55.7554767" lon="49.1459633"><time>2022-10-29T08:13:16.050</time></trkpt><trkpt lat="55.7555417" lon="49.1459383"><time>2022-10-29T08:13:17.050</time></trkpt><trkpt lat="55.7556000" lon="49.1459233"><time>2022-10-29T08:13:18.047</time></trkpt><trkpt lat="55.7556683" lon="49.1458900"><time>2022-10-29T08:13:19.053</time></trkpt><trkpt lat="55.7557217" lon="49.1458733"><time>2022-10-29T08:13:20.033</time></trkpt><trkpt lat="55.7557733" lon="49.1458600"><time>2022-10-29T08:13:21.037</time></trkpt><trkpt lat="55.7558317" lon="49.1458433"><time>2022-10-29T08:13:22.047</time></trkpt><trkpt lat="55.7559000" lon="49.1458183"><time>2022-10-29T08:13:24.047</time></trkpt><trkpt lat="55.7559667" lon="49.1458050"><time>2022-10-29T08:13:26.043</time></trkpt><trkpt lat="55.7560467" lon="49.1457833"><time>2022-10-29T08:13:28.047</time></trkpt><trkpt lat="55.7561233" lon="49.1457617"><time>2022-10-29T08:13:30.050</time></trkpt><trkpt lat="55.7561850" lon="49.1457483"><time>2022-10-29T08:13:32.050</time></trkpt><trkpt lat="55.7562300" lon="49.1457367"><time>2022-10-29T08:13:38.043</time></trkpt><trkpt lat="55.7562567" lon="49.1458067"><time>2022-10-29T08:13:46.053</time></trkpt><trkpt lat="55.7562900" lon="49.1459267"><time>2022-10-29T08:13:48.063</time></trkpt><trkpt lat="55.7563133" lon="49.1460633"><time>2022-10-29T08:13:50.053</time></trkpt><trkpt lat="55.7563233" lon="49.1461950"><time>2022-10-29T08:13:52.060</time></trkpt><trkpt lat="55.7563267" lon="49.1462783"><time>2022-10-29T08:13:53.060</time></trkpt><trkpt lat="55.7563400" lon="49.1464100"><time>2022-10-29T08:13:55.047</time></trkpt><trkpt lat="55.7563383" lon="49.1465017"><time>2022-10-29T08:13:56.063</time></trkpt><trkpt lat="55.7563367" lon="49.1466233"><time>2022-10-29T08:13:58.057</time></trkpt><trkpt lat="55.7562967" lon="49.1466967"><time>2022-10-29T08:14:01.057</time></trkpt><trkpt lat="55.7562433" lon="49.1467250"><time>2022-10-29T08:14:03.057</time></trkpt><trkpt lat="55.7561700" lon="49.1467600"><time>2022-10-29T08:14:05.057</time></trkpt><trkpt lat="55.7560900" lon="49.1467883"><time>2022-10-29T08:14:07.060</time></trkpt><trkpt lat="55.7560283" lon="49.1468050"><time>2022-10-29T08:14:09.060</time></trkpt><trkpt lat="55.7559800" lon="49.1468200"><time>2022-10-29T08:14:11.057</time></trkpt><trkpt lat="55.7559333" lon="49.1468617"><time>2022-10-29T08:14:13.053</time></trkpt><trkpt lat="55.7558667" lon="49.1469050"><time>2022-10-29T08:14:15.060</time></trkpt><trkpt lat="55.7558017" lon="49.1469317"><time>2022-10-29T08:14:17.050</time></trkpt><trkpt lat="55.7557217" lon="49.1469633"><time>2022-10-29T08:14:19.060</time></trkpt><trkpt lat="55.7556383" lon="49.1469983"><time>2022-10-29T08:14:21.060</time></trkpt><trkpt lat="55.7555583" lon="49.1470317"><time>2022-10-29T08:14:23.043</time></trkpt><trkpt lat="55.7554817" lon="49.1470617"><time>2022-10-29T08:14:25.073</time></trkpt><trkpt lat="55.7554817" lon="49.1470600"><time>2022-10-29T08:14:26.060</time></trkpt><trkpt lat="55.7554250" lon="49.1470283"><time>2022-10-29T08:14:28.043</time></trkpt><trkpt lat="55.7553817" lon="49.1470500"><time>2022-10-29T08:14:28.547</time></trkpt><trkpt lat="55.7553167" lon="49.1470683"><time>2022-10-29T08:14:30.047</time></trkpt><trkpt lat="55.7552600" lon="49.1471100"><time>2022-10-29T08:14:31.050</time></trkpt><trkpt lat="55.7552050" lon="49.1471500"><time>2022-10-29T08:14:32.050</time></trkpt><trkpt lat="55.7551583" lon="49.1471850"><time>2022-10-29T08:14:33.050</time></trkpt><trkpt lat="55.7551083" lon="49.1472217"><time>2022-10-29T08:14:34.043</time></trkpt><trkpt lat="55.7550500" lon="49.1472817"><time>2022-10-29T08:14:36.047</time></trkpt><trkpt lat="55.7550250" lon="49.1473550"><time>2022-10-29T08:14:38.017</time></trkpt><trkpt lat="55.7549733" lon="49.1474117"><time>2022-10-29T08:14:40.047</time></trkpt><trkpt lat="55.7549133" lon="49.1474150"><time>2022-10-29T08:14:42.047</time></trkpt><trkpt lat="55.7548383" lon="49.1474183"><time>2022-10-29T08:14:44.050</time></trkpt><trkpt lat="55.7547900" lon="49.1474233"><time>2022-10-29T08:14:45.047</time></trkpt><trkpt lat="55.7547033" lon="49.1474233"><time>2022-10-29T08:14:47.050</time></trkpt><trkpt lat="55.7546233" lon="49.1474200"><time>2022-10-29T08:14:49.020</time></trkpt><trkpt lat="55.7552283" lon="49.1463267"><time>2022-10-29T08:14:49.960</time></trkpt><trkpt lat="55.7546250" lon="49.1474183"><time>2022-10-29T08:14:50.867</time></trkpt><trkpt lat="55.7546250" lon="49.1474167"><time>2022-10-29T08:14:51.760</time></trkpt><trkpt lat="55.7545767" lon="49.1474267"><time>2022-10-29T08:14:54.020</time></trkpt><trkpt lat="55.7545267" lon="49.1474283"><time>2022-10-29T08:14:56.047</time></trkpt><trkpt lat="55.7544667" lon="49.1474150"><time>2022-10-29T08:14:59.047</time></trkpt><trkpt lat="55.7544117" lon="49.1474217"><time>2022-10-29T08:15:01.037</time></trkpt><trkpt lat="55.7542883" lon="49.1474700"><time>2022-10-29T08:15:03.047</time></trkpt><trkpt lat="55.7541850" lon="49.1475517"><time>2022-10-29T08:15:04.057</time></trkpt><trkpt lat="55.7541850" lon="49.1475500"><time>2022-10-29T08:15:05.030</time></trkpt><trkpt lat="55.7541417" lon="49.1475883"><time>2022-10-29T08:15:09.047</time></trkpt><trkpt lat="55.7540183" lon="49.1477100"><time>2022-10-29T08:15:12.047</time></trkpt><trkpt lat="55.7539567" lon="49.1477633"><time>2022-10-29T08:15:13.063</time></trkpt><trkpt lat="55.7539567" lon="49.1477633"><time>2022-10-29T08:15:13.137</time></trkpt><trkpt lat="55.7539017" lon="49.1478017"><time>2022-10-29T08:15:14.050</time></trkpt><trkpt lat="55.7539083" lon="49.1478000"><time>2022-10-29T08:15:15.023</time></trkpt><trkpt lat="55.7538750" lon="49.1478567"><time>2022-10-29T08:15:17.543</time></trkpt><trkpt lat="55.7538300" lon="49.1478583"><time>2022-10-29T08:15:19.037</time></trkpt><trkpt lat="55.7538783" lon="49.1478600"><time>2022-10-29T08:15:26.047</time></trkpt><trkpt lat="55.7539500" lon="49.1478433"><time>2022-10-29T08:15:29.047</time></trkpt><trkpt lat="55.7540133" lon="49.1478183"><time>2022-10-29T08:15:31.050</time></trkpt><trkpt lat="55.7540833" lon="49.1477950"><time>2022-10-29T08:15:33.050</time></trkpt><trkpt lat="55.7541433" lon="49.1477683"><time>2022-10-29T08:15:35.047</time></trkpt><trkpt lat="55.7541950" lon="49.1477350"><time>2022-10-29T08:15:37.047</time></trkpt><trkpt lat="55.7542500" lon="49.1476933"><time>2022-10-29T08:15:39.050</time></trkpt><trkpt lat="55.7543000" lon="49.1476633"><time>2022-10-29T08:15:41.050</time></trkpt><trkpt lat="55.7543483" lon="49.1476467"><time>2022-10-29T08:15:43.057</time></trkpt><trkpt lat="55.7544050" lon="49.1476200"><time>2022-10-29T08:15:45.057</time></trkpt><trkpt lat="55.7544767" lon="49.1475850"><time>2022-10-29T08:15:48.063</time></trkpt><trkpt lat="55.7545483" lon="49.1475650"><time>2022-10-29T08:15:50.057</time></trkpt><trkpt lat="55.7546067" lon="49.1475633"><time>2022-10-29T08:15:52.057</time></trkpt><trkpt lat="55.7546750" lon="49.1475417"><time>2022-10-29T08:15:54.057</time></trkpt><trkpt lat="55.7547533" lon="49.1475283"><time>2022-10-29T08:15:56.063</time></trkpt><trkpt lat="55.7548300" lon="49.1474917"><time>2022-10-29T08:15:58.057</time></trkpt><trkpt lat="55.7549050" lon="49.1474367"><time>2022-10-29T08:16:00.057</time></trkpt><trkpt lat="55.7549733" lon="49.1473650"><time>2022-10-29T08:16:02.050</time></trkpt><trkpt lat="55.7550417" lon="49.1473183"><time>2022-10-29T08:16:04.060</time></trkpt><trkpt lat="55.7550850" lon="49.1472900"><time>2022-10-29T08:16:05.057</time></trkpt><trkpt lat="55.7551350" lon="49.1472583"><time>2022-10-29T08:16:06.060</time></trkpt><trkpt lat="55.7551800" lon="49.1472417"><time>2022-10-29T08:16:07.060</time></trkpt><trkpt lat="55.7552633" lon="49.1472283"><time>2022-10-29T08:16:09.057</time></trkpt><trkpt lat="55.7553083" lon="49.1472183"><time>2022-10-29T08:16:10.047</time></trkpt><trkpt lat="55.7553667" lon="49.1471967"><time>2022-10-29T08:16:11.060</time></trkpt><trkpt lat="55.7554250" lon="49.1471667"><time>2022-10-29T08:16:12.060</time></trkpt><trkpt lat="55.7554767" lon="49.1471383"><time>2022-10-29T08:16:13.060</time></trkpt><trkpt lat="55.7555267" lon="49.1471150"><time>2022-10-29T08:16:14.060</time></trkpt><trkpt lat="55.7555767" lon="49.1470950"><time>2022-10-29T08:16:15.060</time></trkpt><trkpt lat="55.7556333" lon="49.1470667"><time>2022-10-29T08:16:16.060</time></trkpt><trkpt lat="55.7556883" lon="49.1470367"><time>2022-10-29T08:16:17.057</time></trkpt><trkpt lat="55.7557383" lon="49.1470100"><time>2022-10-29T08:16:18.057</time></trkpt><trkpt lat="55.7557817" lon="49.1469867"><time>2022-10-29T08:16:19.053</time></trkpt><trkpt lat="55.7558617" lon="49.1469517"><time>2022-10-29T08:16:21.053</time></trkpt><trkpt lat="55.7559467" lon="49.1469183"><time>2022-10-29T08:16:23.053</time></trkpt><trkpt lat="55.7560233" lon="49.1468767"><time>2022-10-29T08:16:25.057</time></trkpt><trkpt lat="55.7560817" lon="49.1468383"><time>2022-10-29T08:16:27.050</time></trkpt><trkpt lat="55.7561300" lon="49.1467983"><time>2022-10-29T08:16:29.057</time></trkpt><trkpt lat="55.7561900" lon="49.1467783"><time>2022-10-29T08:16:31.057</time></trkpt><trkpt lat="55.7562500" lon="49.1467567"><time>2022-10-29T08:16:33.053</time></trkpt><trkpt lat="55.7562967" lon="49.1467183"><time>2022-10-29T08:16:35.057</time></trkpt><trkpt lat="55.7563533" lon="49.1466567"><time>2022-10-29T08:16:38.053</time></trkpt><trkpt lat="55.7564133" lon="49.1465933"><time>2022-10-29T08:16:41.057</time></trkpt><trkpt lat="55.7564683" lon="49.1465750"><time>2022-10-29T08:16:43.057</time></trkpt><trkpt lat="55.7565250" lon="49.1465467"><time>2022-10-29T08:16:45.057</time></trkpt><trkpt lat="55.7565833" lon="49.1465417"><time>2022-10-29T08:16:47.057</time></trkpt><trkpt lat="55.7566383" lon="49.1465633"><time>2022-10-29T08:16:49.050</time></trkpt><trkpt lat="55.7566767" lon="49.1466400"><time>2022-10-29T08:16:51.047</time></trkpt><trkpt lat="55.7567017" lon="49.1467433"><time>2022-10-29T08:16:53.040</time></trkpt><trkpt lat="55.7567167" lon="49.1468350"><time>2022-10-29T08:16:55.057</time></trkpt><trkpt lat="55.7567267" lon="49.1469567"><time>2022-10-29T08:16:57.047</time></trkpt><trkpt lat="55.7567417" lon="49.1470650"><time>2022-10-29T08:16:59.053</time></trkpt><trkpt lat="55.7567750" lon="49.1471617"><time>2022-10-29T08:17:01.037</time></trkpt><trkpt lat="55.7568150" lon="49.1472783"><time>2022-10-29T08:17:03.040</time></trkpt><trkpt lat="55.7568417" lon="49.1473450"><time>2022-10-29T08:17:04.057</time></trkpt><trkpt lat="55.7568833" lon="49.1474817"><time>2022-10-29T08:17:06.053</time></trkpt><trkpt lat="55.7569050" lon="49.1475517"><time>2022-10-29T08:17:07.053</time></trkpt><trkpt lat="55.7569317" lon="49.1476967"><time>2022-10-29T08:17:09.057</time></trkpt><trkpt lat="55.7569617" lon="49.1478467"><time>2022-10-29T08:17:11.057</time></trkpt><trkpt lat="55.7569817" lon="49.1479217"><time>2022-10-29T08:17:12.053</time></trkpt><trkpt lat="55.7570033" lon="49.1480067"><time>2022-10-29T08:17:13.057</time></trkpt><trkpt lat="55.7570250" lon="49.1480850"><time>2022-10-29T08:17:14.053</time></trkpt><trkpt lat="55.7570433" lon="49.1481633"><time>2022-10-29T08:17:15.053</time></trkpt><trkpt lat="55.7570683" lon="49.1482400"><time>2022-10-29T08:17:16.050</time></trkpt><trkpt lat="55.7570850" lon="49.1483183"><time>2022-10-29T08:17:17.037</time></trkpt><trkpt lat="55.7571183" lon="49.1484633"><time>2022-10-29T08:17:19.057</time></trkpt><trkpt lat="55.7571450" lon="49.1486167"><time>2022-10-29T08:17:21.053</time></trkpt><trkpt lat="55.7571583" lon="49.1487050"><time>2022-10-29T08:17:22.057</time></trkpt><trkpt lat="55.7571767" lon="49.1488000"><time>2022-10-29T08:17:23.050</time></trkpt><trkpt lat="55.7571983" lon="49.1488900"><time>2022-10-29T08:17:24.050</time></trkpt><trkpt lat="55.7572167" lon="49.1489733"><time>2022-10-29T08:17:25.050</time></trkpt><trkpt lat="55.7572383" lon="49.1490583"><time>2022-10-29T08:17:26.057</time></trkpt><trkpt lat="55.7572633" lon="49.1491567"><time>2022-10-29T08:17:27.053</time></trkpt><trkpt lat="55.7572900" lon="49.1492433"><time>2022-10-29T08:17:28.057</time></trkpt><trkpt lat="55.7573117" lon="49.1493433"><time>2022-10-29T08:17:29.057</time></trkpt><trkpt lat="55.7573167" lon="49.1494350"><time>2022-10-29T08:17:30.057</time></trkpt><trkpt lat="55.7573350" lon="49.1495317"><time>2022-10-29T08:17:31.030</time></trkpt><trkpt lat="55.7573567" lon="49.1496233"><time>2022-10-29T08:17:32.053</time></trkpt><trkpt lat="55.7573983" lon="49.1497383"><time>2022-10-29T08:17:33.050</time></trkpt><trkpt lat="55.7574300" lon="49.1498300"><time>2022-10-29T08:17:34.053</time></trkpt><trkpt lat="55.7574600" lon="49.1499250"><time>2022-10-29T08:17:35.043</time></trkpt><trkpt lat="55.7574867" lon="49.1500300"><time>2022-10-29T08:17:36.057</time></trkpt><trkpt lat="55.7575067" lon="49.1501333"><time>2022-10-29T08:17:37.053</time></trkpt><trkpt lat="55.7575317" lon="49.1502267"><time>2022-10-29T08:17:38.057</time></trkpt><trkpt lat="55.7575550" lon="49.1503217"><time>2022-10-29T08:17:39.057</time></trkpt><trkpt lat="55.7575783" lon="49.1504150"><time>2022-10-29T08:17:40.053</time></trkpt><trkpt lat="55.7575967" lon="49.1505050"><time>2022-10-29T08:17:41.053</time></trkpt><trkpt lat="55.7576183" lon="49.1505933"><time>2022-10-29T08:17:42.057</time></trkpt><trkpt lat="55.7576400" lon="49.1506850"><time>2022-10-29T08:17:43.050</time></trkpt><trkpt lat="55.7576617" lon="49.1507767"><time>2022-10-29T08:17:44.047</time></trkpt><trkpt lat="55.7576800" lon="49.1508700"><time>2022-10-29T08:17:45.057</time></trkpt><trkpt lat="55.7577000" lon="49.1509600"><time>2022-10-29T08:17:46.060</time></trkpt><trkpt lat="55.7577183" lon="49.1510467"><time>2022-10-29T08:17:47.057</time></trkpt><trkpt lat="55.7577400" lon="49.1511333"><time>2022-10-29T08:17:48.057</time></trkpt><trkpt lat="55.7577617" lon="49.1512217"><time>2022-10-29T08:17:49.057</time></trkpt><trkpt lat="55.7577833" lon="49.1513100"><time>2022-10-29T08:17:50.057</time></trkpt><trkpt lat="55.7577967" lon="49.1514000"><time>2022-10-29T08:17:51.057</time></trkpt><trkpt lat="55.7578283" lon="49.1515017"><time>2022-10-29T08:17:52.047</time></trkpt><trkpt lat="55.7578533" lon="49.1515950"><time>2022-10-29T08:17:53.053</time></trkpt><trkpt lat="55.7578800" lon="49.1516883"><time>2022-10-29T08:17:54.057</time></trkpt><trkpt lat="55.7579067" lon="49.1517867"><time>2022-10-29T08:17:55.057</time></trkpt><trkpt lat="55.7579217" lon="49.1518800"><time>2022-10-29T08:17:56.053</time></trkpt><trkpt lat="55.7579383" lon="49.1519817"><time>2022-10-29T08:17:57.040</time></trkpt><trkpt lat="55.7579533" lon="49.1520767"><time>2022-10-29T08:17:58.053</time></trkpt><trkpt lat="55.7579650" lon="49.1521633"><time>2022-10-29T08:17:59.057</time></trkpt><trkpt lat="55.7579850" lon="49.1522517"><time>2022-10-29T08:18:00.057</time></trkpt><trkpt lat="55.7579983" lon="49.1523367"><time>2022-10-29T08:18:01.053</time></trkpt><trkpt lat="55.7580250" lon="49.1524283"><time>2022-10-29T08:18:02.057</time></trkpt><trkpt lat="55.7580500" lon="49.1525167"><time>2022-10-29T08:18:03.053</time></trkpt><trkpt lat="55.7580767" lon="49.1526117"><time>2022-10-29T08:18:04.043</time></trkpt><trkpt lat="55.7581050" lon="49.1527083"><time>2022-10-29T08:18:05.057</time></trkpt><trkpt lat="55.7581283" lon="49.1527950"><time>2022-10-29T08:18:06.053</time></trkpt><trkpt lat="55.7581517" lon="49.1528867"><time>2022-10-29T08:18:07.057</time></trkpt><trkpt lat="55.7581800" lon="49.1529800"><time>2022-10-29T08:18:08.053</time></trkpt><trkpt lat="55.7582033" lon="49.1530783"><time>2022-10-29T08:18:09.053</time></trkpt><trkpt lat="55.7582150" lon="49.1531717"><time>2022-10-29T08:18:10.053</time></trkpt><trkpt lat="55.7582333" lon="49.1532633"><time>2022-10-29T08:18:11.057</time></trkpt><trkpt lat="55.7582550" lon="49.1533550"><time>2022-10-29T08:18:12.053</time></trkpt><trkpt lat="55.7582767" lon="49.1534483"><time>2022-10-29T08:18:13.057</time></trkpt><trkpt lat="55.7583050" lon="49.1535433"><time>2022-10-29T08:18:14.060</time></trkpt><trkpt lat="55.7583317" lon="49.1536350"><time>2022-10-29T08:18:15.057</time></trkpt><trkpt lat="55.7583533" lon="49.1537267"><time>2022-10-29T08:18:16.057</time></trkpt><trkpt lat="55.7583767" lon="49.1538183"><time>2022-10-29T08:18:17.057</time></trkpt><trkpt lat="55.7584050" lon="49.1539100"><time>2022-10-29T08:18:18.050</time></trkpt><trkpt lat="55.7584333" lon="49.1540000"><time>2022-10-29T08:18:19.057</time></trkpt><trkpt lat="55.7584567" lon="49.1540900"><time>2022-10-29T08:18:20.057</time></trkpt><trkpt lat="55.7584850" lon="49.1541850"><time>2022-10-29T08:18:21.057</time></trkpt><trkpt lat="55.7585000" lon="49.1542717"><time>2022-10-29T08:18:22.057</time></trkpt><trkpt lat="55.7585083" lon="49.1543617"><time>2022-10-29T08:18:23.057</time></trkpt><trkpt lat="55.7585150" lon="49.1544550"><time>2022-10-29T08:18:24.053</time></trkpt><trkpt lat="55.7585183" lon="49.1545400"><time>2022-10-29T08:18:25.057</time></trkpt><trkpt lat="55.7585117" lon="49.1546233"><time>2022-10-29T08:18:26.053</time></trkpt><trkpt lat="55.7584900" lon="49.1546933"><time>2022-10-29T08:18:27.053</time></trkpt><trkpt lat="55.7584433" lon="49.1548183"><time>2022-10-29T08:18:29.050</time></trkpt><trkpt lat="55.7583750" lon="49.1549317"><time>2022-10-29T08:18:31.053</time></trkpt><trkpt lat="55.7583350" lon="49.1549850"><time>2022-10-29T08:18:32.057</time></trkpt><trkpt lat="55.7582867" lon="49.1550400"><time>2022-10-29T08:18:33.057</time></trkpt><trkpt lat="55.7582433" lon="49.1550950"><time>2022-10-29T08:18:34.057</time></trkpt><trkpt lat="55.7582000" lon="49.1551633"><time>2022-10-29T08:18:35.057</time></trkpt><trkpt lat="55.7581567" lon="49.1552150"><time>2022-10-29T08:18:36.057</time></trkpt><trkpt lat="55.7581083" lon="49.1552567"><time>2022-10-29T08:18:37.057</time></trkpt><trkpt lat="55.7580600" lon="49.1553033"><time>2022-10-29T08:18:38.057</time></trkpt><trkpt lat="55.7580183" lon="49.1553533"><time>2022-10-29T08:18:39.060</time></trkpt><trkpt lat="55.7579733" lon="49.1554167"><time>2022-10-29T08:18:40.053</time></trkpt><trkpt lat="55.7579250" lon="49.1554867"><time>2022-10-29T08:18:41.060</time></trkpt><trkpt lat="55.7578767" lon="49.1555633"><time>2022-10-29T08:18:42.057</time></trkpt><trkpt lat="55.7578283" lon="49.1556350"><time>2022-10-29T08:18:43.063</time></trkpt><trkpt lat="55.7577817" lon="49.1557100"><time>2022-10-29T08:18:44.057</time></trkpt><trkpt lat="55.7577317" lon="49.1557750"><time>2022-10-29T08:18:45.057</time></trkpt><trkpt lat="55.7576750" lon="49.1558417"><time>2022-10-29T08:18:46.057</time></trkpt><trkpt lat="55.7576167" lon="49.1559100"><time>2022-10-29T08:18:47.060</time></trkpt><trkpt lat="55.7575633" lon="49.1559883"><time>2022-10-29T08:18:48.053</time></trkpt><trkpt lat="55.7575083" lon="49.1560567"><time>2022-10-29T08:18:49.060</time></trkpt><trkpt lat="55.7574550" lon="49.1561317"><time>2022-10-29T08:18:50.057</time></trkpt><trkpt lat="55.7573983" lon="49.1562017"><time>2022-10-29T08:18:51.060</time></trkpt><trkpt lat="55.7573383" lon="49.1562700"><time>2022-10-29T08:18:52.030</time></trkpt><trkpt lat="55.7572783" lon="49.1563350"><time>2022-10-29T08:18:53.047</time></trkpt><trkpt lat="55.7572200" lon="49.1564083"><time>2022-10-29T08:18:54.053</time></trkpt><trkpt lat="55.7571683" lon="49.1564667"><time>2022-10-29T08:18:55.057</time></trkpt><trkpt lat="55.7571150" lon="49.1565350"><time>2022-10-29T08:18:56.057</time></trkpt><trkpt lat="55.7570600" lon="49.1566067"><time>2022-10-29T08:18:57.057</time></trkpt><trkpt lat="55.7570067" lon="49.1566783"><time>2022-10-29T08:18:58.047</time></trkpt><trkpt lat="55.7569533" lon="49.1567450"><time>2022-10-29T08:18:59.057</time></trkpt><trkpt lat="55.7568983" lon="49.1568050"><time>2022-10-29T08:19:00.057</time></trkpt><trkpt lat="55.7568417" lon="49.1568633"><time>2022-10-29T08:19:01.060</time></trkpt><trkpt lat="55.7567883" lon="49.1569283"><time>2022-10-29T08:19:02.057</time></trkpt><trkpt lat="55.7567367" lon="49.1569917"><time>2022-10-29T08:19:03.060</time></trkpt><trkpt lat="55.7566783" lon="49.1570433"><time>2022-10-29T08:19:04.057</time></trkpt><trkpt lat="55.7566200" lon="49.1571000"><time>2022-10-29T08:19:05.053</time></trkpt><trkpt lat="55.7565633" lon="49.1571633"><time>2022-10-29T08:19:06.057</time></trkpt><trkpt lat="55.7565083" lon="49.1572333"><time>2022-10-29T08:19:07.057</time></trkpt><trkpt lat="55.7564533" lon="49.1573000"><time>2022-10-29T08:19:08.057</time></trkpt><trkpt lat="55.7563950" lon="49.1573683"><time>2022-10-29T08:19:09.057</time></trkpt><trkpt lat="55.7563367" lon="49.1574333"><time>2022-10-29T08:19:10.057</time></trkpt><trkpt lat="55.7562783" lon="49.1575000"><time>2022-10-29T08:19:11.060</time></trkpt><trkpt lat="55.7562250" lon="49.1575650"><time>2022-10-29T08:19:12.057</time></trkpt><trkpt lat="55.7561683" lon="49.1576383"><time>2022-10-29T08:19:13.057</time></trkpt><trkpt lat="55.7561117" lon="49.1577100"><time>2022-10-29T08:19:14.060</time></trkpt><trkpt lat="55.7560550" lon="49.1577767"><time>2022-10-29T08:19:15.057</time></trkpt><trkpt lat="55.7560000" lon="49.1578400"><time>2022-10-29T08:19:16.057</time></trkpt><trkpt lat="55.7559483" lon="49.1579067"><time>2022-10-29T08:19:17.060</time></trkpt><trkpt lat="55.7558967" lon="49.1579750"><time>2022-10-29T08:19:18.057</time></trkpt><trkpt lat="55.7558467" lon="49.1580433"><time>2022-10-29T08:19:19.057</time></trkpt><trkpt lat="55.7557950" lon="49.1581217"><time>2022-10-29T08:19:20.053</time></trkpt><trkpt lat="55.7557383" lon="49.1582067"><time>2022-10-29T08:19:21.053</time></trkpt><trkpt lat="55.7556867" lon="49.1582783"><time>2022-10-29T08:19:22.057</time></trkpt><trkpt lat="55.7556367" lon="49.1583467"><time>2022-10-29T08:19:23.057</time></trkpt><trkpt lat="55.7555767" lon="49.1584183"><time>2022-10-29T08:19:24.053</time></trkpt><trkpt lat="55.7555233" lon="49.1584833"><time>2022-10-29T08:19:25.057</time></trkpt><trkpt lat="55.7554683" lon="49.1585350"><time>2022-10-29T08:19:26.060</time></trkpt><trkpt lat="55.7554150" lon="49.1585950"><time>2022-10-29T08:19:27.057</time></trkpt><trkpt lat="55.7553633" lon="49.1586583"><time>2022-10-29T08:19:28.060</time></trkpt><trkpt lat="55.7553083" lon="49.1587117"><time>2022-10-29T08:19:29.053</time></trkpt><trkpt lat="55.7552600" lon="49.1587617"><time>2022-10-29T08:19:30.057</time></trkpt><trkpt lat="55.7552067" lon="49.1588250"><time>2022-10-29T08:19:31.057</time></trkpt><trkpt lat="55.7551600" lon="49.1588900"><time>2022-10-29T08:19:32.057</time></trkpt><trkpt lat="55.7551100" lon="49.1589600"><time>2022-10-29T08:19:33.057</time></trkpt><trkpt lat="55.7550583" lon="49.1590217"><time>2022-10-29T08:19:34.057</time></trkpt><trkpt lat="55.7550133" lon="49.1590717"><time>2022-10-29T08:19:35.057</time></trkpt><trkpt lat="55.7549667" lon="49.1591183"><time>2022-10-29T08:19:36.057</time></trkpt><trkpt lat="55.7549217" lon="49.1591733"><time>2022-10-29T08:19:37.057</time></trkpt><trkpt lat="55.7548717" lon="49.1592300"><time>2022-10-29T08:19:38.057</time></trkpt><trkpt lat="55.7548200" lon="49.1592817"><time>2022-10-29T08:19:39.057</time></trkpt><trkpt lat="55.7547667" lon="49.1593417"><time>2022-10-29T08:19:40.057</time></trkpt><trkpt lat="55.7547117" lon="49.1594133"><time>2022-10-29T08:19:41.060</time></trkpt><trkpt lat="55.7546600" lon="49.1594850"><time>2022-10-29T08:19:42.057</time></trkpt><trkpt lat="55.7546117" lon="49.1595383"><time>2022-10-29T08:19:43.057</time></trkpt><trkpt lat="55.7545633" lon="49.1595867"><time>2022-10-29T08:19:44.060</time></trkpt><trkpt lat="55.7545167" lon="49.1596317"><time>2022-10-29T08:19:45.057</time></trkpt><trkpt lat="55.7544667" lon="49.1596917"><time>2022-10-29T08:19:46.057</time></trkpt><trkpt lat="55.7544200" lon="49.1597567"><time>2022-10-29T08:19:47.057</time></trkpt><trkpt lat="55.7543750" lon="49.1598233"><time>2022-10-29T08:19:48.057</time></trkpt><trkpt lat="55.7543250" lon="49.1598850"><time>2022-10-29T08:19:49.053</time></trkpt><trkpt lat="55.7542783" lon="49.1599467"><time>2022-10-29T08:19:50.060</time></trkpt><trkpt lat="55.7542283" lon="49.1600033"><time>2022-10-29T08:19:51.060</time></trkpt><trkpt lat="55.7541800" lon="49.1600567"><time>2022-10-29T08:19:52.057</time></trkpt><trkpt lat="55.7541333" lon="49.1601067"><time>2022-10-29T08:19:53.057</time></trkpt><trkpt lat="55.7540700" lon="49.1601833"><time>2022-10-29T08:19:55.057</time></trkpt><trkpt lat="55.7540000" lon="49.1602667"><time>2022-10-29T08:19:57.057</time></trkpt><trkpt lat="55.7539267" lon="49.1603250"><time>2022-10-29T08:19:59.057</time></trkpt><trkpt lat="55.7538950" lon="49.1603917"><time>2022-10-29T08:20:04.053</time></trkpt><trkpt lat="55.7537950" lon="49.1604800"><time>2022-10-29T08:20:11.057</time></trkpt><trkpt lat="55.7537133" lon="49.1604600"><time>2022-10-29T08:20:21.043</time></trkpt><trkpt lat="55.7537083" lon="49.1603650"><time>2022-10-29T08:20:25.040</time></trkpt><trkpt lat="55.7537983" lon="49.1604050"><time>2022-10-29T08:20:28.037</time></trkpt><trkpt lat="55.7537833" lon="49.1605667"><time>2022-10-29T08:20:29.043</time></trkpt><trkpt lat="55.7538467" lon="49.1606700"><time>2022-10-29T08:20:31.047</time></trkpt><trkpt lat="55.7538417" lon="49.1608533"><time>2022-10-29T08:20:33.043</time></trkpt><trkpt lat="55.7538367" lon="49.1609433"><time>2022-10-29T08:20:36.057</time></trkpt><trkpt lat="55.7538250" lon="49.1611233"><time>2022-10-29T08:20:40.057</time></trkpt><trkpt lat="55.7537383" lon="49.1612883"><time>2022-10-29T08:21:14.057</time></trkpt><trkpt lat="55.7536833" lon="49.1613750"><time>2022-10-29T08:21:16.057</time></trkpt><trkpt lat="55.7536267" lon="49.1614733"><time>2022-10-29T08:21:18.053</time></trkpt><trkpt lat="55.7535533" lon="49.1615583"><time>2022-10-29T08:21:20.060</time></trkpt><trkpt lat="55.7534817" lon="49.1616533"><time>2022-10-29T08:21:22.060</time></trkpt><trkpt lat="55.7534183" lon="49.1617283"><time>2022-10-29T08:21:24.057</time></trkpt><trkpt lat="55.7533567" lon="49.1618400"><time>2022-10-29T08:21:26.063</time></trkpt><trkpt lat="55.7533250" lon="49.1619050"><time>2022-10-29T08:21:27.057</time></trkpt><trkpt lat="55.7532900" lon="49.1619667"><time>2022-10-29T08:21:28.060</time></trkpt><trkpt lat="55.7532200" lon="49.1620717"><time>2022-10-29T08:21:30.057</time></trkpt><trkpt lat="55.7531833" lon="49.1621300"><time>2022-10-29T08:21:31.060</time></trkpt><trkpt lat="55.7531450" lon="49.1621933"><time>2022-10-29T08:21:32.053</time></trkpt><trkpt lat="55.7531100" lon="49.1622517"><time>2022-10-29T08:21:33.053</time></trkpt><trkpt lat="55.7530800" lon="49.1623150"><time>2022-10-29T08:21:34.057</time></trkpt><trkpt lat="55.7530450" lon="49.1623650"><time>2022-10-29T08:21:35.023</time></trkpt><trkpt lat="55.7530083" lon="49.1624217"><time>2022-10-29T08:21:36.043</time></trkpt><trkpt lat="55.7529750" lon="49.1624883"><time>2022-10-29T08:21:37.060</time></trkpt><trkpt lat="55.7529467" lon="49.1625517"><time>2022-10-29T08:21:38.057</time></trkpt><trkpt lat="55.7529050" lon="49.1626933"><time>2022-10-29T08:21:40.057</time></trkpt><trkpt lat="55.7528933" lon="49.1627817"><time>2022-10-29T08:21:41.057</time></trkpt><trkpt lat="55.7528733" lon="49.1628633"><time>2022-10-29T08:21:42.053</time></trkpt><trkpt lat="55.7528400" lon="49.1629267"><time>2022-10-29T08:21:43.053</time></trkpt><trkpt lat="55.7527933" lon="49.1630433"><time>2022-10-29T08:21:45.060</time></trkpt><trkpt lat="55.7527767" lon="49.1631933"><time>2022-10-29T08:21:47.043</time></trkpt><trkpt lat="55.7527683" lon="49.1632750"><time>2022-10-29T08:21:48.053</time></trkpt><trkpt lat="55.7527450" lon="49.1634083"><time>2022-10-29T08:21:50.053</time></trkpt><trkpt lat="55.7527250" lon="49.1635300"><time>2022-10-29T08:21:52.057</time></trkpt><trkpt lat="55.7527067" lon="49.1636483"><time>2022-10-29T08:21:54.057</time></trkpt><trkpt lat="55.7526867" lon="49.1637817"><time>2022-10-29T08:21:56.053</time></trkpt><trkpt lat="55.7526883" lon="49.1639367"><time>2022-10-29T08:21:58.047</time></trkpt><trkpt lat="55.7527000" lon="49.1640567"><time>2022-10-29T08:21:59.053</time></trkpt><trkpt lat="55.7527233" lon="49.1641767"><time>2022-10-29T08:22:00.053</time></trkpt><trkpt lat="55.7527367" lon="49.1642817"><time>2022-10-29T08:22:01.060</time></trkpt><trkpt lat="55.7526900" lon="49.1644117"><time>2022-10-29T08:22:03.057</time></trkpt><trkpt lat="55.7526533" lon="49.1644917"><time>2022-10-29T08:22:04.057</time></trkpt><trkpt lat="55.7526350" lon="49.1645850"><time>2022-10-29T08:22:05.053</time></trkpt><trkpt lat="55.7526350" lon="49.1646800"><time>2022-10-29T08:22:06.053</time></trkpt><trkpt lat="55.7526467" lon="49.1647817"><time>2022-10-29T08:22:07.057</time></trkpt><trkpt lat="55.7526600" lon="49.1648767"><time>2022-10-29T08:22:08.057</time></trkpt><trkpt lat="55.7526750" lon="49.1649733"><time>2022-10-29T08:22:09.057</time></trkpt><trkpt lat="55.7526883" lon="49.1650567"><time>2022-10-29T08:22:10.057</time></trkpt><trkpt lat="55.7527283" lon="49.1651550"><time>2022-10-29T08:22:12.057</time></trkpt><trkpt lat="55.7527617" lon="49.1652317"><time>2022-10-29T08:22:15.057</time></trkpt><trkpt lat="55.7527983" lon="49.1653050"><time>2022-10-29T08:22:20.053</time></trkpt><trkpt lat="55.7528267" lon="49.1653800"><time>2022-10-29T08:22:25.057</time></trkpt><trkpt lat="55.7528483" lon="49.1654833"><time>2022-10-29T08:22:32.043</time></trkpt><trkpt lat="55.7528750" lon="49.1655533"><time>2022-10-29T08:22:34.057</time></trkpt><trkpt lat="55.7529167" lon="49.1656417"><time>2022-10-29T08:22:36.057</time></trkpt><trkpt lat="55.7529533" lon="49.1657233"><time>2022-10-29T08:22:38.053</time></trkpt><trkpt lat="55.7529983" lon="49.1658150"><time>2022-10-29T08:22:40.053</time></trkpt><trkpt lat="55.7530333" lon="49.1658900"><time>2022-10-29T08:22:42.053</time></trkpt><trkpt lat="55.7530817" lon="49.1659617"><time>2022-10-29T08:22:44.057</time></trkpt><trkpt lat="55.7531217" lon="49.1660383"><time>2022-10-29T08:22:46.053</time></trkpt><trkpt lat="55.7531600" lon="49.1661167"><time>2022-10-29T08:22:48.057</time></trkpt><trkpt lat="55.7532000" lon="49.1661867"><time>2022-10-29T08:22:50.053</time></trkpt><trkpt lat="55.7532433" lon="49.1662800"><time>2022-10-29T08:22:53.057</time></trkpt><trkpt lat="55.7532883" lon="49.1663617"><time>2022-10-29T08:22:55.057</time></trkpt><trkpt lat="55.7533300" lon="49.1664433"><time>2022-10-29T08:22:57.053</time></trkpt><trkpt lat="55.7533667" lon="49.1664967"><time>2022-10-29T08:22:59.057</time></trkpt><trkpt lat="55.7533917" lon="49.1665750"><time>2022-10-29T08:23:01.057</time></trkpt><trkpt lat="55.7534200" lon="49.1666417"><time>2022-10-29T08:23:03.057</time></trkpt><trkpt lat="55.7534400" lon="49.1667183"><time>2022-10-29T08:23:05.053</time></trkpt><trkpt lat="55.7534617" lon="49.1668017"><time>2022-10-29T08:23:07.057</time></trkpt><trkpt lat="55.7534833" lon="49.1669033"><time>2022-10-29T08:23:09.057</time></trkpt><trkpt lat="55.7535150" lon="49.1670167"><time>2022-10-29T08:23:11.050</time></trkpt><trkpt lat="55.7535483" lon="49.1671167"><time>2022-10-29T08:23:13.057</time></trkpt><trkpt lat="55.7535800" lon="49.1672183"><time>2022-10-29T08:23:15.057</time></trkpt><trkpt lat="55.7536067" lon="49.1673267"><time>2022-10-29T08:23:17.057</time></trkpt><trkpt lat="55.7536233" lon="49.1674417"><time>2022-10-29T08:23:19.057</time></trkpt><trkpt lat="55.7536250" lon="49.1675583"><time>2022-10-29T08:23:21.053</time></trkpt><trkpt lat="55.7536417" lon="49.1676867"><time>2022-10-29T08:23:23.053</time></trkpt><trkpt lat="55.7536467" lon="49.1678300"><time>2022-10-29T08:23:25.057</time></trkpt><trkpt lat="55.7536717" lon="49.1679700"><time>2022-10-29T08:23:27.057</time></trkpt><trkpt lat="55.7537083" lon="49.1680283"><time>2022-10-29T08:23:28.043</time></trkpt><trkpt lat="55.7537783" lon="49.1680967"><time>2022-10-29T08:23:30.057</time></trkpt><trkpt lat="55.7538567" lon="49.1681583"><time>2022-10-29T08:23:32.053</time></trkpt><trkpt lat="55.7538967" lon="49.1681950"><time>2022-10-29T08:23:33.047</time></trkpt><trkpt lat="55.7539417" lon="49.1682300"><time>2022-10-29T08:23:34.057</time></trkpt><trkpt lat="55.7540067" lon="49.1683000"><time>2022-10-29T08:23:36.053</time></trkpt><trkpt lat="55.7540750" lon="49.1683833"><time>2022-10-29T08:23:38.053</time></trkpt><trkpt lat="55.7541350" lon="49.1684333"><time>2022-10-29T08:23:40.057</time></trkpt><trkpt lat="55.7542000" lon="49.1684683"><time>2022-10-29T08:23:42.057</time></trkpt><trkpt lat="55.7542567" lon="49.1685217"><time>2022-10-29T08:23:44.050</time></trkpt><trkpt lat="55.7543167" lon="49.1685667"><time>2022-10-29T08:23:46.050</time></trkpt><trkpt lat="55.7543883" lon="49.1686233"><time>2022-10-29T08:23:48.053</time></trkpt><trkpt lat="55.7544650" lon="49.1686733"><time>2022-10-29T08:23:50.057</time></trkpt><trkpt lat="55.7545517" lon="49.1687300"><time>2022-10-29T08:23:52.057</time></trkpt><trkpt lat="55.7546317" lon="49.1687483"><time>2022-10-29T08:23:54.057</time></trkpt><trkpt lat="55.7547183" lon="49.1687583"><time>2022-10-29T08:23:56.057</time></trkpt><trkpt lat="55.7547617" lon="49.1687817"><time>2022-10-29T08:23:57.053</time></trkpt><trkpt lat="55.7548500" lon="49.1688733"><time>2022-10-29T08:23:59.053</time></trkpt><trkpt lat="55.7548983" lon="49.1689317"><time>2022-10-29T08:24:00.060</time></trkpt><trkpt lat="55.7549433" lon="49.1689817"><time>2022-10-29T08:24:01.053</time></trkpt><trkpt lat="55.7549983" lon="49.1690433"><time>2022-10-29T08:24:02.047</time></trkpt><trkpt lat="55.7550433" lon="49.1690950"><time>2022-10-29T08:24:03.057</time></trkpt><trkpt lat="55.7550850" lon="49.1691400"><time>2022-10-29T08:24:04.050</time></trkpt><trkpt lat="55.7551283" lon="49.1691917"><time>2022-10-29T08:24:05.053</time></trkpt><trkpt lat="55.7551800" lon="49.1692617"><time>2022-10-29T08:24:06.057</time></trkpt><trkpt lat="55.7552350" lon="49.1693450"><time>2022-10-29T08:24:07.057</time></trkpt><trkpt lat="55.7552817" lon="49.1694033"><time>2022-10-29T08:24:08.053</time></trkpt><trkpt lat="55.7553183" lon="49.1694683"><time>2022-10-29T08:24:09.053</time></trkpt><trkpt lat="55.7553667" lon="49.1695383"><time>2022-10-29T08:24:10.053</time></trkpt><trkpt lat="55.7554017" lon="49.1696050"><time>2022-10-29T08:24:11.057</time></trkpt><trkpt lat="55.7554467" lon="49.1696600"><time>2022-10-29T08:24:12.057</time></trkpt><trkpt lat="55.7554817" lon="49.1697367"><time>2022-10-29T08:24:13.057</time></trkpt><trkpt lat="55.7555167" lon="49.1697900"><time>2022-10-29T08:24:14.027</time></trkpt><trkpt lat="55.7555567" lon="49.1698417"><time>2022-10-29T08:24:15.043</time></trkpt><trkpt lat="55.7555983" lon="49.1698833"><time>2022-10-29T08:24:16.053</time></trkpt><trkpt lat="55.7556383" lon="49.1699250"><time>2022-10-29T08:24:17.057</time></trkpt><trkpt lat="55.7557067" lon="49.1700183"><time>2022-10-29T08:24:19.053</time></trkpt><trkpt lat="55.7557617" lon="49.1701067"><time>2022-10-29T08:24:21.057</time></trkpt><trkpt lat="55.7558233" lon="49.1701850"><time>2022-10-29T08:24:23.057</time></trkpt><trkpt lat="55.7558900" lon="49.1702483"><time>2022-10-29T08:24:25.057</time></trkpt><trkpt lat="55.7559300" lon="49.1702917"><time>2022-10-29T08:24:26.053</time></trkpt><trkpt lat="55.7560117" lon="49.1703583"><time>2022-10-29T08:24:28.057</time></trkpt><trkpt lat="55.7560933" lon="49.1704083"><time>2022-10-29T08:24:30.053</time></trkpt><trkpt lat="55.7561817" lon="49.1704600"><time>2022-10-29T08:24:32.053</time></trkpt><trkpt lat="55.7562333" lon="49.1704817"><time>2022-10-29T08:24:33.057</time></trkpt><trkpt lat="55.7562867" lon="49.1705133"><time>2022-10-29T08:24:34.057</time></trkpt><trkpt lat="55.7563350" lon="49.1705550"><time>2022-10-29T08:24:35.057</time></trkpt><trkpt lat="55.7563783" lon="49.1705867"><time>2022-10-29T08:24:36.053</time></trkpt><trkpt lat="55.7564217" lon="49.1706250"><time>2022-10-29T08:24:37.053</time></trkpt><trkpt lat="55.7565000" lon="49.1707167"><time>2022-10-29T08:24:39.053</time></trkpt><trkpt lat="55.7565533" lon="49.1707717"><time>2022-10-29T08:24:40.057</time></trkpt><trkpt lat="55.7566033" lon="49.1708183"><time>2022-10-29T08:24:41.053</time></trkpt><trkpt lat="55.7566533" lon="49.1708667"><time>2022-10-29T08:24:42.057</time></trkpt><trkpt lat="55.7567133" lon="49.1709250"><time>2022-10-29T08:24:43.057</time></trkpt><trkpt lat="55.7567600" lon="49.1709833"><time>2022-10-29T08:24:44.060</time></trkpt><trkpt lat="55.7568017" lon="49.1710567"><time>2022-10-29T08:24:45.053</time></trkpt><trkpt lat="55.7568367" lon="49.1711100"><time>2022-10-29T08:24:46.057</time></trkpt><trkpt lat="55.7569067" lon="49.1711867"><time>2022-10-29T08:24:48.057</time></trkpt><trkpt lat="55.7569750" lon="49.1712700"><time>2022-10-29T08:24:50.053</time></trkpt><trkpt lat="55.7570467" lon="49.1713533"><time>2022-10-29T08:24:52.053</time></trkpt><trkpt lat="55.7571167" lon="49.1714367"><time>2022-10-29T08:24:54.057</time></trkpt><trkpt lat="55.7571883" lon="49.1715133"><time>2022-10-29T08:24:56.057</time></trkpt><trkpt lat="55.7572483" lon="49.1715900"><time>2022-10-29T08:24:58.057</time></trkpt><trkpt lat="55.7573167" lon="49.1716767"><time>2022-10-29T08:25:00.057</time></trkpt><trkpt lat="55.7573567" lon="49.1717217"><time>2022-10-29T08:25:01.057</time></trkpt><trkpt lat="55.7573967" lon="49.1717700"><time>2022-10-29T08:25:02.030</time></trkpt><trkpt lat="55.7574400" lon="49.1718217"><time>2022-10-29T08:25:03.047</time></trkpt><trkpt lat="55.7574883" lon="49.1718750"><time>2022-10-29T08:25:04.053</time></trkpt><trkpt lat="55.7575267" lon="49.1719250"><time>2022-10-29T08:25:05.043</time></trkpt><trkpt lat="55.7575700" lon="49.1719617"><time>2022-10-29T08:25:06.057</time></trkpt><trkpt lat="55.7576467" lon="49.1720383"><time>2022-10-29T08:25:08.050</time></trkpt><trkpt lat="55.7577133" lon="49.1721067"><time>2022-10-29T08:25:10.057</time></trkpt><trkpt lat="55.7577950" lon="49.1721750"><time>2022-10-29T08:25:12.053</time></trkpt><trkpt lat="55.7578450" lon="49.1722117"><time>2022-10-29T08:25:13.067</time></trkpt><trkpt lat="55.7577333" lon="49.1726317"><time>2022-10-29T08:25:14.543</time></trkpt><trkpt lat="55.7581667" lon="49.1723767"><time>2022-10-29T08:25:15.027</time></trkpt><trkpt lat="55.7581900" lon="49.1723033"><time>2022-10-29T08:25:16.040</time></trkpt><trkpt lat="55.7582350" lon="49.1723100"><time>2022-10-29T08:25:16.540</time></trkpt><trkpt lat="55.7583700" lon="49.1724517"><time>2022-10-29T08:25:19.043</time></trkpt><trkpt lat="55.7584117" lon="49.1724850"><time>2022-10-29T08:25:21.037</time></trkpt><trkpt lat="55.7584800" lon="49.1724833"><time>2022-10-29T08:25:23.043</time></trkpt><trkpt lat="55.7585433" lon="49.1724983"><time>2022-10-29T08:25:25.043</time></trkpt><trkpt lat="55.7585867" lon="49.1725300"><time>2022-10-29T08:25:26.043</time></trkpt><trkpt lat="55.7586483" lon="49.1726400"><time>2022-10-29T08:25:28.043</time></trkpt><trkpt lat="55.7587100" lon="49.1727117"><time>2022-10-29T08:25:29.040</time></trkpt><trkpt lat="55.7587583" lon="49.1728433"><time>2022-10-29T08:25:30.057</time></trkpt><trkpt lat="55.7587600" lon="49.1728433"><time>2022-10-29T08:25:31.033</time></trkpt><trkpt lat="55.7587950" lon="49.1729117"><time>2022-10-29T08:25:33.540</time></trkpt><trkpt lat="55.7588350" lon="49.1729900"><time>2022-10-29T08:25:35.047</time></trkpt><trkpt lat="55.7588850" lon="49.1731100"><time>2022-10-29T08:25:37.047</time></trkpt><trkpt lat="55.7589200" lon="49.1731600"><time>2022-10-29T08:25:38.040</time></trkpt><trkpt lat="55.7589750" lon="49.1732300"><time>2022-10-29T08:25:40.047</time></trkpt><trkpt lat="55.7590233" lon="49.1733067"><time>2022-10-29T08:25:42.053</time></trkpt><trkpt lat="55.7583550" lon="49.1724883"><time>2022-10-29T08:25:43.033</time></trkpt><trkpt lat="55.7583533" lon="49.1724867"><time>2022-10-29T08:25:43.917</time></trkpt><trkpt lat="55.7590200" lon="49.1733033"><time>2022-10-29T08:25:44.420</time></trkpt><trkpt lat="55.7583533" lon="49.1724883"><time>2022-10-29T08:25:45.823</time></trkpt><trkpt lat="55.7590250" lon="49.1733317"><time>2022-10-29T08:25:47.223</time></trkpt><trkpt lat="55.7583533" lon="49.1724933"><time>2022-10-29T08:25:48.117</time></trkpt><trkpt lat="55.7590333" lon="49.1733750"><time>2022-10-29T08:25:49.510</time></trkpt><trkpt lat="55.7590267" lon="49.1733683"><time>2022-10-29T08:25:50.397</time></trkpt><trkpt lat="55.7590483" lon="49.1734933"><time>2022-10-29T08:25:51.537</time></trkpt><trkpt lat="55.7590983" lon="49.1735283"><time>2022-10-29T08:25:52.047</time></trkpt><trkpt lat="55.7591983" lon="49.1736150"><time>2022-10-29T08:25:53.043</time></trkpt><trkpt lat="55.7592350" lon="49.1736700"><time>2022-10-29T08:25:53.553</time></trkpt><trkpt lat="55.7592350" lon="49.1736700"><time>2022-10-29T08:25:53.597</time></trkpt><trkpt lat="55.7592517" lon="49.1737450"><time>2022-10-29T08:25:55.053</time></trkpt><trkpt lat="55.7592450" lon="49.1737450"><time>2022-10-29T08:25:56.517</time></trkpt><trkpt lat="55.7583283" lon="49.1724917"><time>2022-10-29T08:25:57.010</time></trkpt><trkpt lat="55.7597067" lon="49.1744333"><time>2022-10-29T08:25:57.543</time></trkpt><trkpt lat="55.7596767" lon="49.1745083"><time>2022-10-29T08:26:00.047</time></trkpt><trkpt lat="55.7596350" lon="49.1745783"><time>2022-10-29T08:26:03.043</time></trkpt><trkpt lat="55.7596050" lon="49.1746583"><time>2022-10-29T08:26:06.047</time></trkpt><trkpt lat="55.7595967" lon="49.1747783"><time>2022-10-29T08:26:09.040</time></trkpt><trkpt lat="55.7596133" lon="49.1748983"><time>2022-10-29T08:26:11.033</time></trkpt><trkpt lat="55.7596300" lon="49.1750367"><time>2022-10-29T08:26:13.043</time></trkpt><trkpt lat="55.7596517" lon="49.1751917"><time>2022-10-29T08:26:15.047</time></trkpt><trkpt lat="55.7596600" lon="49.1752833"><time>2022-10-29T08:26:16.050</time></trkpt><trkpt lat="55.7596683" lon="49.1753750"><time>2022-10-29T08:26:17.050</time></trkpt><trkpt lat="55.7596733" lon="49.1755167"><time>2022-10-29T08:26:19.050</time></trkpt><trkpt lat="55.7596833" lon="49.1755950"><time>2022-10-29T08:26:20.047</time></trkpt><trkpt lat="55.7596983" lon="49.1757317"><time>2022-10-29T08:26:22.047</time></trkpt><trkpt lat="55.7597250" lon="49.1758433"><time>2022-10-29T08:26:24.047</time></trkpt><trkpt lat="55.7597300" lon="49.1759267"><time>2022-10-29T08:26:25.057</time></trkpt><trkpt lat="55.7597450" lon="49.1760483"><time>2022-10-29T08:26:27.057</time></trkpt><trkpt lat="55.7597500" lon="49.1761283"><time>2022-10-29T08:26:28.057</time></trkpt><trkpt lat="55.7597550" lon="49.1762133"><time>2022-10-29T08:26:29.057</time></trkpt><trkpt lat="55.7597583" lon="49.1762967"><time>2022-10-29T08:26:30.047</time></trkpt><trkpt lat="55.7597817" lon="49.1764533"><time>2022-10-29T08:26:32.057</time></trkpt><trkpt lat="55.7597867" lon="49.1765433"><time>2022-10-29T08:26:33.057</time></trkpt><trkpt lat="55.7597933" lon="49.1766250"><time>2022-10-29T08:26:34.057</time></trkpt><trkpt lat="55.7597867" lon="49.1767667"><time>2022-10-29T08:26:36.057</time></trkpt><trkpt lat="55.7597817" lon="49.1768850"><time>2022-10-29T08:26:38.057</time></trkpt><trkpt lat="55.7597683" lon="49.1770467"><time>2022-10-29T08:26:40.053</time></trkpt><trkpt lat="55.7597433" lon="49.1771700"><time>2022-10-29T08:26:42.057</time></trkpt><trkpt lat="55.7597383" lon="49.1772883"><time>2022-10-29T08:26:44.057</time></trkpt><trkpt lat="55.7597083" lon="49.1774183"><time>2022-10-29T08:26:46.053</time></trkpt><trkpt lat="55.7596767" lon="49.1775067"><time>2022-10-29T08:26:48.057</time></trkpt><trkpt lat="55.7595833" lon="49.1775383"><time>2022-10-29T08:26:50.053</time></trkpt><trkpt lat="55.7595350" lon="49.1775483"><time>2022-10-29T08:26:51.053</time></trkpt><trkpt lat="55.7594850" lon="49.1775583"><time>2022-10-29T08:26:52.057</time></trkpt><trkpt lat="55.7594350" lon="49.1775717"><time>2022-10-29T08:26:53.053</time></trkpt><trkpt lat="55.7593817" lon="49.1775917"><time>2022-10-29T08:26:54.053</time></trkpt><trkpt lat="55.7593167" lon="49.1776133"><time>2022-10-29T08:26:55.053</time></trkpt><trkpt lat="55.7592517" lon="49.1776200"><time>2022-10-29T08:26:56.053</time></trkpt><trkpt lat="55.7591900" lon="49.1776350"><time>2022-10-29T08:26:57.057</time></trkpt><trkpt lat="55.7591333" lon="49.1776433"><time>2022-10-29T08:26:58.053</time></trkpt><trkpt lat="55.7590850" lon="49.1776683"><time>2022-10-29T08:26:59.053</time></trkpt><trkpt lat="55.7590400" lon="49.1776833"><time>2022-10-29T08:27:00.053</time></trkpt><trkpt lat="55.7589733" lon="49.1777417"><time>2022-10-29T08:27:02.053</time></trkpt><trkpt lat="55.7589217" lon="49.1778150"><time>2022-10-29T08:27:04.057</time></trkpt><trkpt lat="55.7588933" lon="49.1778800"><time>2022-10-29T08:27:05.057</time></trkpt><trkpt lat="55.7588600" lon="49.1779367"><time>2022-10-29T08:27:06.060</time></trkpt><trkpt lat="55.7588200" lon="49.1779983"><time>2022-10-29T08:27:07.043</time></trkpt><trkpt lat="55.7587817" lon="49.1780400"><time>2022-10-29T08:27:08.047</time></trkpt><trkpt lat="55.7587050" lon="49.1780700"><time>2022-10-29T08:27:10.053</time></trkpt><trkpt lat="55.7586133" lon="49.1780867"><time>2022-10-29T08:27:12.057</time></trkpt><trkpt lat="55.7585633" lon="49.1781017"><time>2022-10-29T08:27:13.057</time></trkpt><trkpt lat="55.7585100" lon="49.1781117"><time>2022-10-29T08:27:14.057</time></trkpt><trkpt lat="55.7584600" lon="49.1781183"><time>2022-10-29T08:27:15.057</time></trkpt><trkpt lat="55.7584083" lon="49.1781183"><time>2022-10-29T08:27:16.057</time></trkpt><trkpt lat="55.7583567" lon="49.1781183"><time>2022-10-29T08:27:17.057</time></trkpt><trkpt lat="55.7582750" lon="49.1781450"><time>2022-10-29T08:27:19.057</time></trkpt><trkpt lat="55.7582067" lon="49.1781833"><time>2022-10-29T08:27:21.057</time></trkpt><trkpt lat="55.7581417" lon="49.1782167"><time>2022-10-29T08:27:23.057</time></trkpt><trkpt lat="55.7580867" lon="49.1782700"><time>2022-10-29T08:27:25.057</time></trkpt><trkpt lat="55.7580350" lon="49.1783583"><time>2022-10-29T08:27:27.057</time></trkpt><trkpt lat="55.7579767" lon="49.1784333"><time>2022-10-29T08:27:29.057</time></trkpt><trkpt lat="55.7579150" lon="49.1784700"><time>2022-10-29T08:27:31.057</time></trkpt><trkpt lat="55.7578650" lon="49.1784600"><time>2022-10-29T08:27:33.057</time></trkpt><trkpt lat="55.7578150" lon="49.1784800"><time>2022-10-29T08:27:36.057</time></trkpt><trkpt lat="55.7577567" lon="49.1784817"><time>2022-10-29T08:27:40.057</time></trkpt><trkpt lat="55.7577117" lon="49.1784750"><time>2022-10-29T08:27:44.053</time></trkpt><trkpt lat="55.7576550" lon="49.1784733"><time>2022-10-29T08:27:48.057</time></trkpt><trkpt lat="55.7576033" lon="49.1784950"><time>2022-10-29T08:27:52.053</time></trkpt><trkpt lat="55.7575517" lon="49.1785000"><time>2022-10-29T08:27:55.057</time></trkpt><trkpt lat="55.7575050" lon="49.1785017"><time>2022-10-29T08:27:58.057</time></trkpt><trkpt lat="55.7574500" lon="49.1784967"><time>2022-10-29T08:28:00.053</time></trkpt><trkpt lat="55.7573767" lon="49.1784950"><time>2022-10-29T08:28:02.053</time></trkpt><trkpt lat="55.7573067" lon="49.1784933"><time>2022-10-29T08:28:04.047</time></trkpt><trkpt lat="55.7572483" lon="49.1784900"><time>2022-10-29T08:28:06.057</time></trkpt><trkpt lat="55.7572017" lon="49.1785000"><time>2022-10-29T08:28:07.057</time></trkpt><trkpt lat="55.7571550" lon="49.1785083"><time>2022-10-29T08:28:08.060</time></trkpt><trkpt lat="55.7571100" lon="49.1785100"><time>2022-10-29T08:28:09.053</time></trkpt><trkpt lat="55.7570600" lon="49.1785133"><time>2022-10-29T08:28:10.057</time></trkpt><trkpt lat="55.7570100" lon="49.1785167"><time>2022-10-29T08:28:11.053</time></trkpt><trkpt lat="55.7569633" lon="49.1785200"><time>2022-10-29T08:28:12.060</time></trkpt><trkpt lat="55.7568850" lon="49.1785383"><time>2022-10-29T08:28:14.057</time></trkpt><trkpt lat="55.7568383" lon="49.1785783"><time>2022-10-29T08:28:17.043</time></trkpt><trkpt lat="55.7568317" lon="49.1786633"><time>2022-10-29T08:28:22.057</time></trkpt><trkpt lat="55.7568267" lon="49.1787483"><time>2022-10-29T08:28:26.057</time></trkpt><trkpt lat="55.7568400" lon="49.1788417"><time>2022-10-29T08:28:30.053</time></trkpt><trkpt lat="55.7568467" lon="49.1789250"><time>2022-10-29T08:28:35.053</time></trkpt><trkpt lat="55.7568517" lon="49.1790100"><time>2022-10-29T08:28:40.057</time></trkpt><trkpt lat="55.7568633" lon="49.1790917"><time>2022-10-29T08:28:47.057</time></trkpt><trkpt lat="55.7568733" lon="49.1790033"><time>2022-10-29T08:28:52.047</time></trkpt><trkpt lat="55.7568667" lon="49.1788817"><time>2022-10-29T08:28:54.040</time></trkpt><trkpt lat="55.7568750" lon="49.1787983"><time>2022-10-29T08:28:55.047</time></trkpt><trkpt lat="55.7568650" lon="49.1787167"><time>2022-10-29T08:28:56.053</time></trkpt><trkpt lat="55.7568400" lon="49.1785717"><time>2022-10-29T08:28:58.053</time></trkpt><trkpt lat="55.7568267" lon="49.1784917"><time>2022-10-29T08:28:59.057</time></trkpt><trkpt lat="55.7568133" lon="49.1784133"><time>2022-10-29T08:29:00.050</time></trkpt><trkpt lat="55.7568000" lon="49.1783367"><time>2022-10-29T08:29:01.053</time></trkpt><trkpt lat="55.7567767" lon="49.1782500"><time>2022-10-29T08:29:02.053</time></trkpt><trkpt lat="55.7567533" lon="49.1781650"><time>2022-10-29T08:29:03.050</time></trkpt><trkpt lat="55.7567367" lon="49.1780717"><time>2022-10-29T08:29:04.050</time></trkpt><trkpt lat="55.7567200" lon="49.1779717"><time>2022-10-29T08:29:05.057</time></trkpt><trkpt lat="55.7567017" lon="49.1778650"><time>2022-10-29T08:29:06.060</time></trkpt><trkpt lat="55.7566867" lon="49.1777583"><time>2022-10-29T08:29:07.057</time></trkpt><trkpt lat="55.7566717" lon="49.1776483"><time>2022-10-29T08:29:08.037</time></trkpt><trkpt lat="55.7566567" lon="49.1775400"><time>2022-10-29T08:29:09.053</time></trkpt><trkpt lat="55.7566467" lon="49.1774183"><time>2022-10-29T08:29:10.050</time></trkpt><trkpt lat="55.7566317" lon="49.1773083"><time>2022-10-29T08:29:11.053</time></trkpt><trkpt lat="55.7566167" lon="49.1771967"><time>2022-10-29T08:29:12.057</time></trkpt><trkpt lat="55.7565983" lon="49.1770850"><time>2022-10-29T08:29:13.057</time></trkpt><trkpt lat="55.7565750" lon="49.1769750"><time>2022-10-29T08:29:14.057</time></trkpt><trkpt lat="55.7565600" lon="49.1768700"><time>2022-10-29T08:29:15.057</time></trkpt><trkpt lat="55.7565433" lon="49.1767733"><time>2022-10-29T08:29:16.057</time></trkpt><trkpt lat="55.7565250" lon="49.1766650"><time>2022-10-29T08:29:17.020</time></trkpt><trkpt lat="55.7565100" lon="49.1765433"><time>2022-10-29T08:29:18.020</time></trkpt><trkpt lat="55.7565000" lon="49.1764383"><time>2022-10-29T08:29:19.043</time></trkpt><trkpt lat="55.7564867" lon="49.1763217"><time>2022-10-29T08:29:20.047</time></trkpt><trkpt lat="55.7564833" lon="49.1762300"><time>2022-10-29T08:29:21.053</time></trkpt><trkpt lat="55.7564700" lon="49.1761350"><time>2022-10-29T08:29:22.040</time></trkpt><trkpt lat="55.7564500" lon="49.1760317"><time>2022-10-29T08:29:23.053</time></trkpt><trkpt lat="55.7564300" lon="49.1759283"><time>2022-10-29T08:29:24.057</time></trkpt><trkpt lat="55.7564100" lon="49.1758233"><time>2022-10-29T08:29:25.057</time></trkpt><trkpt lat="55.7563833" lon="49.1757283"><time>2022-10-29T08:29:26.057</time></trkpt><trkpt lat="55.7563600" lon="49.1756267"><time>2022-10-29T08:29:27.053</time></trkpt><trkpt lat="55.7563417" lon="49.1755183"><time>2022-10-29T08:29:28.057</time></trkpt><trkpt lat="55.7563233" lon="49.1754133"><time>2022-10-29T08:29:29.053</time></trkpt><trkpt lat="55.7563067" lon="49.1752983"><time>2022-10-29T08:29:30.060</time></trkpt><trkpt lat="55.7562867" lon="49.1751867"><time>2022-10-29T08:29:31.057</time></trkpt><trkpt lat="55.7562667" lon="49.1750700"><time>2022-10-29T08:29:32.043</time></trkpt><trkpt lat="55.7562467" lon="49.1749500"><time>2022-10-29T08:29:33.057</time></trkpt><trkpt lat="55.7562250" lon="49.1748367"><time>2022-10-29T08:29:34.057</time></trkpt><trkpt lat="55.7562050" lon="49.1747233"><time>2022-10-29T08:29:35.053</time></trkpt><trkpt lat="55.7561767" lon="49.1746100"><time>2022-10-29T08:29:36.057</time></trkpt><trkpt lat="55.7561483" lon="49.1745050"><time>2022-10-29T08:29:37.053</time></trkpt><trkpt lat="55.7561200" lon="49.1743983"><time>2022-10-29T08:29:38.057</time></trkpt><trkpt lat="55.7560900" lon="49.1742850"><time>2022-10-29T08:29:39.057</time></trkpt><trkpt lat="55.7560567" lon="49.1741717"><time>2022-10-29T08:29:40.047</time></trkpt><trkpt lat="55.7560200" lon="49.1740683"><time>2022-10-29T08:29:41.053</time></trkpt><trkpt lat="55.7559817" lon="49.1739733"><time>2022-10-29T08:29:42.057</time></trkpt><trkpt lat="55.7559417" lon="49.1738750"><time>2022-10-29T08:29:43.053</time></trkpt><trkpt lat="55.7558967" lon="49.1737750"><time>2022-10-29T08:29:44.057</time></trkpt><trkpt lat="55.7558500" lon="49.1736800"><time>2022-10-29T08:29:45.043</time></trkpt><trkpt lat="55.7558067" lon="49.1735833"><time>2022-10-29T08:29:46.060</time></trkpt><trkpt lat="55.7557650" lon="49.1734817"><time>2022-10-29T08:29:47.057</time></trkpt><trkpt lat="55.7557233" lon="49.1733900"><time>2022-10-29T08:29:48.057</time></trkpt><trkpt lat="55.7556800" lon="49.1733033"><time>2022-10-29T08:29:49.057</time></trkpt><trkpt lat="55.7556333" lon="49.1732083"><time>2022-10-29T08:29:50.053</time></trkpt><trkpt lat="55.7555867" lon="49.1731067"><time>2022-10-29T08:29:51.050</time></trkpt><trkpt lat="55.7555367" lon="49.1730217"><time>2022-10-29T08:29:52.053</time></trkpt><trkpt lat="55.7554900" lon="49.1729333"><time>2022-10-29T08:29:53.053</time></trkpt><trkpt lat="55.7554433" lon="49.1728550"><time>2022-10-29T08:29:54.050</time></trkpt><trkpt lat="55.7554000" lon="49.1727733"><time>2022-10-29T08:29:55.047</time></trkpt><trkpt lat="55.7553550" lon="49.1726867"><time>2022-10-29T08:29:56.053</time></trkpt><trkpt lat="55.7553167" lon="49.1725983"><time>2022-10-29T08:29:57.057</time></trkpt><trkpt lat="55.7552850" lon="49.1725167"><time>2022-10-29T08:29:58.053</time></trkpt><trkpt lat="55.7552467" lon="49.1724350"><time>2022-10-29T08:29:59.053</time></trkpt><trkpt lat="55.7552083" lon="49.1723700"><time>2022-10-29T08:30:00.057</time></trkpt><trkpt lat="55.7551650" lon="49.1723083"><time>2022-10-29T08:30:01.047</time></trkpt><trkpt lat="55.7551283" lon="49.1722400"><time>2022-10-29T08:30:02.053</time></trkpt><trkpt lat="55.7551050" lon="49.1721717"><time>2022-10-29T08:30:03.050</time></trkpt><trkpt lat="55.7550667" lon="49.1721033"><time>2022-10-29T08:30:04.053</time></trkpt><trkpt lat="55.7550317" lon="49.1720333"><time>2022-10-29T08:30:05.053</time></trkpt><trkpt lat="55.7549983" lon="49.1719600"><time>2022-10-29T08:30:06.057</time></trkpt><trkpt lat="55.7549617" lon="49.1718817"><time>2022-10-29T08:30:07.053</time></trkpt><trkpt lat="55.7549217" lon="49.1718067"><time>2022-10-29T08:30:08.057</time></trkpt><trkpt lat="55.7548783" lon="49.1717283"><time>2022-10-29T08:30:09.047</time></trkpt><trkpt lat="55.7548383" lon="49.1716483"><time>2022-10-29T08:30:10.053</time></trkpt><trkpt lat="55.7547917" lon="49.1715750"><time>2022-10-29T08:30:11.053</time></trkpt><trkpt lat="55.7547483" lon="49.1715150"><time>2022-10-29T08:30:12.053</time></trkpt><trkpt lat="55.7547067" lon="49.1714500"><time>2022-10-29T08:30:13.057</time></trkpt><trkpt lat="55.7546617" lon="49.1713883"><time>2022-10-29T08:30:14.053</time></trkpt><trkpt lat="55.7546167" lon="49.1713200"><time>2022-10-29T08:30:15.053</time></trkpt><trkpt lat="55.7545717" lon="49.1712517"><time>2022-10-29T08:30:16.047</time></trkpt><trkpt lat="55.7545283" lon="49.1711867"><time>2022-10-29T08:30:17.030</time></trkpt><trkpt lat="55.7544933" lon="49.1711200"><time>2022-10-29T08:30:18.053</time></trkpt><trkpt lat="55.7544600" lon="49.1710550"><time>2022-10-29T08:30:19.057</time></trkpt><trkpt lat="55.7544300" lon="49.1709800"><time>2022-10-29T08:30:20.053</time></trkpt><trkpt lat="55.7543950" lon="49.1709133"><time>2022-10-29T08:30:21.057</time></trkpt><trkpt lat="55.7543567" lon="49.1708567"><time>2022-10-29T08:30:22.057</time></trkpt><trkpt lat="55.7543167" lon="49.1707950"><time>2022-10-29T08:30:23.053</time></trkpt><trkpt lat="55.7542583" lon="49.1707317"><time>2022-10-29T08:30:24.053</time></trkpt><trkpt lat="55.7542150" lon="49.1706783"><time>2022-10-29T08:30:25.057</time></trkpt><trkpt lat="55.7541767" lon="49.1706183"><time>2022-10-29T08:30:26.053</time></trkpt><trkpt lat="55.7541317" lon="49.1705550"><time>2022-10-29T08:30:27.057</time></trkpt><trkpt lat="55.7540950" lon="49.1704983"><time>2022-10-29T08:30:28.053</time></trkpt><trkpt lat="55.7540367" lon="49.1704450"><time>2022-10-29T08:30:29.053</time></trkpt><trkpt lat="55.7539883" lon="49.1704133"><time>2022-10-29T08:30:30.053</time></trkpt><trkpt lat="55.7539400" lon="49.1703783"><time>2022-10-29T08:30:31.057</time></trkpt><trkpt lat="55.7538950" lon="49.1703200"><time>2022-10-29T08:30:32.057</time></trkpt><trkpt lat="55.7538383" lon="49.1702500"><time>2022-10-29T08:30:33.053</time></trkpt><trkpt lat="55.7537933" lon="49.1701733"><time>2022-10-29T08:30:34.057</time></trkpt><trkpt lat="55.7537533" lon="49.1700833"><time>2022-10-29T08:30:35.057</time></trkpt><trkpt lat="55.7537083" lon="49.1700033"><time>2022-10-29T08:30:36.047</time></trkpt><trkpt lat="55.7536717" lon="49.1699367"><time>2022-10-29T08:30:37.057</time></trkpt><trkpt lat="55.7536300" lon="49.1698783"><time>2022-10-29T08:30:38.057</time></trkpt><trkpt lat="55.7535883" lon="49.1698250"><time>2022-10-29T08:30:39.057</time></trkpt><trkpt lat="55.7535467" lon="49.1697733"><time>2022-10-29T08:30:40.057</time></trkpt><trkpt lat="55.7535050" lon="49.1697117"><time>2022-10-29T08:30:41.043</time></trkpt><trkpt lat="55.7534600" lon="49.1696533"><time>2022-10-29T08:30:42.053</time></trkpt><trkpt lat="55.7534150" lon="49.1695967"><time>2022-10-29T08:30:43.053</time></trkpt><trkpt lat="55.7533733" lon="49.1695400"><time>2022-10-29T08:30:44.057</time></trkpt><trkpt lat="55.7533317" lon="49.1694750"><time>2022-10-29T08:30:45.057</time></trkpt><trkpt lat="55.7532933" lon="49.1694017"><time>2022-10-29T08:30:46.057</time></trkpt><trkpt lat="55.7532550" lon="49.1693167"><time>2022-10-29T08:30:47.057</time></trkpt><trkpt lat="55.7532117" lon="49.1692383"><time>2022-10-29T08:30:48.053</time></trkpt><trkpt lat="55.7531683" lon="49.1691617"><time>2022-10-29T08:30:49.057</time></trkpt><trkpt lat="55.7531250" lon="49.1690850"><time>2022-10-29T08:30:50.053</time></trkpt><trkpt lat="55.7530817" lon="49.1690067"><time>2022-10-29T08:30:51.053</time></trkpt><trkpt lat="55.7530467" lon="49.1689300"><time>2022-10-29T08:30:52.053</time></trkpt><trkpt lat="55.7530117" lon="49.1688517"><time>2022-10-29T08:30:53.050</time></trkpt><trkpt lat="55.7529817" lon="49.1687700"><time>2022-10-29T08:30:54.053</time></trkpt><trkpt lat="55.7529600" lon="49.1686867"><time>2022-10-29T08:30:55.057</time></trkpt><trkpt lat="55.7529383" lon="49.1685983"><time>2022-10-29T08:30:56.053</time></trkpt><trkpt lat="55.7529183" lon="49.1685050"><time>2022-10-29T08:30:57.057</time></trkpt><trkpt lat="55.7529000" lon="49.1684133"><time>2022-10-29T08:30:58.053</time></trkpt><trkpt lat="55.7528833" lon="49.1683267"><time>2022-10-29T08:30:59.057</time></trkpt><trkpt lat="55.7528750" lon="49.1682283"><time>2022-10-29T08:31:00.057</time></trkpt><trkpt lat="55.7528583" lon="49.1681383"><time>2022-10-29T08:31:01.057</time></trkpt><trkpt lat="55.7528400" lon="49.1680533"><time>2022-10-29T08:31:02.053</time></trkpt><trkpt lat="55.7528217" lon="49.1679583"><time>2022-10-29T08:31:03.057</time></trkpt><trkpt lat="55.7528083" lon="49.1678617"><time>2022-10-29T08:31:04.057</time></trkpt><trkpt lat="55.7527983" lon="49.1677650"><time>2022-10-29T08:31:05.057</time></trkpt><trkpt lat="55.7527817" lon="49.1676800"><time>2022-10-29T08:31:06.057</time></trkpt><trkpt lat="55.7527650" lon="49.1675933"><time>2022-10-29T08:31:07.053</time></trkpt><trkpt lat="55.7527467" lon="49.1675133"><time>2022-10-29T08:31:08.053</time></trkpt><trkpt lat="55.7527300" lon="49.1673700"><time>2022-10-29T08:31:10.057</time></trkpt><trkpt lat="55.7527217" lon="49.1672917"><time>2022-10-29T08:31:11.053</time></trkpt><trkpt lat="55.7527150" lon="49.1671433"><time>2022-10-29T08:31:13.053</time></trkpt><trkpt lat="55.7527050" lon="49.1670633"><time>2022-10-29T08:31:14.053</time></trkpt><trkpt lat="55.7526867" lon="49.1669850"><time>2022-10-29T08:31:15.057</time></trkpt><trkpt lat="55.7526533" lon="49.1668317"><time>2022-10-29T08:31:17.053</time></trkpt><trkpt lat="55.7526367" lon="49.1667567"><time>2022-10-29T08:31:18.057</time></trkpt><trkpt lat="55.7526133" lon="49.1666867"><time>2022-10-29T08:31:19.057</time></trkpt><trkpt lat="55.7525850" lon="49.1666067"><time>2022-10-29T08:31:20.057</time></trkpt><trkpt lat="55.7525400" lon="49.1664700"><time>2022-10-29T08:31:22.053</time></trkpt><trkpt lat="55.7525100" lon="49.1663950"><time>2022-10-29T08:31:23.053</time></trkpt><trkpt lat="55.7524833" lon="49.1663200"><time>2022-10-29T08:31:24.053</time></trkpt><trkpt lat="55.7524600" lon="49.1662483"><time>2022-10-29T08:31:25.053</time></trkpt><trkpt lat="55.7524267" lon="49.1661833"><time>2022-10-29T08:31:26.050</time></trkpt><trkpt lat="55.7523733" lon="49.1661367"><time>2022-10-29T08:31:27.050</time></trkpt><trkpt lat="55.7523383" lon="49.1659817"><time>2022-10-29T08:31:29.053</time></trkpt><trkpt lat="55.7523250" lon="49.1658967"><time>2022-10-29T08:31:30.050</time></trkpt><trkpt lat="55.7523067" lon="49.1658183"><time>2022-10-29T08:31:31.053</time></trkpt><trkpt lat="55.7522600" lon="49.1656750"><time>2022-10-29T08:31:33.057</time></trkpt><trkpt lat="55.7522350" lon="49.1655983"><time>2022-10-29T08:31:34.053</time></trkpt><trkpt lat="55.7521800" lon="49.1654667"><time>2022-10-29T08:31:36.043</time></trkpt><trkpt lat="55.7521467" lon="49.1653967"><time>2022-10-29T08:31:37.047</time></trkpt><trkpt lat="55.7521150" lon="49.1653333"><time>2022-10-29T08:31:38.057</time></trkpt><trkpt lat="55.7520883" lon="49.1652667"><time>2022-10-29T08:31:39.053</time></trkpt><trkpt lat="55.7520550" lon="49.1652050"><time>2022-10-29T08:31:40.050</time></trkpt><trkpt lat="55.7520183" lon="49.1651367"><time>2022-10-29T08:31:41.053</time></trkpt><trkpt lat="55.7519867" lon="49.1650683"><time>2022-10-29T08:31:42.047</time></trkpt><trkpt lat="55.7519233" lon="49.1649567"><time>2022-10-29T08:31:44.057</time></trkpt><trkpt lat="55.7518783" lon="49.1649133"><time>2022-10-29T08:31:45.053</time></trkpt><trkpt lat="55.7518267" lon="49.1648883"><time>2022-10-29T08:31:46.043</time></trkpt><trkpt lat="55.7517667" lon="49.1648733"><time>2022-10-29T08:31:47.067</time></trkpt><trkpt lat="55.7517317" lon="49.1648650"><time>2022-10-29T08:31:48.527</time></trkpt><trkpt lat="55.7516600" lon="49.1648617"><time>2022-10-29T08:31:49.040</time></trkpt><trkpt lat="55.7516200" lon="49.1648233"><time>2022-10-29T08:31:50.543</time></trkpt><trkpt lat="55.7515600" lon="49.1647950"><time>2022-10-29T08:31:52.047</time></trkpt><trkpt lat="55.7514883" lon="49.1647433"><time>2022-10-29T08:31:54.043</time></trkpt><trkpt lat="55.7514400" lon="49.1646817"><time>2022-10-29T08:31:56.043</time></trkpt><trkpt lat="55.7514217" lon="49.1645617"><time>2022-10-29T08:31:58.043</time></trkpt><trkpt lat="55.7513783" lon="49.1644567"><time>2022-10-29T08:32:00.043</time></trkpt><trkpt lat="55.7513050" lon="49.1644267"><time>2022-10-29T08:32:02.047</time></trkpt><trkpt lat="55.7512433" lon="49.1643517"><time>2022-10-29T08:32:04.043</time></trkpt><trkpt lat="55.7512017" lon="49.1643033"><time>2022-10-29T08:32:05.020</time></trkpt><trkpt lat="55.7511633" lon="49.1642417"><time>2022-10-29T08:32:06.040</time></trkpt><trkpt lat="55.7511250" lon="49.1641850"><time>2022-10-29T08:32:07.043</time></trkpt><trkpt lat="55.7510767" lon="49.1640883"><time>2022-10-29T08:32:09.057</time></trkpt><trkpt lat="55.7510767" lon="49.1640867"><time>2022-10-29T08:32:09.973</time></trkpt><trkpt lat="55.7509833" lon="49.1640433"><time>2022-10-29T08:32:12.047</time></trkpt><trkpt lat="55.7509250" lon="49.1640100"><time>2022-10-29T08:32:13.050</time></trkpt><trkpt lat="55.7508350" lon="49.1639933"><time>2022-10-29T08:32:15.043</time></trkpt><trkpt lat="55.7507683" lon="49.1639833"><time>2022-10-29T08:32:17.043</time></trkpt><trkpt lat="55.7507083" lon="49.1639883"><time>2022-10-29T08:32:19.047</time></trkpt><trkpt lat="55.7506500" lon="49.1640083"><time>2022-10-29T08:32:21.047</time></trkpt><trkpt lat="55.7506017" lon="49.1640233"><time>2022-10-29T08:32:23.037</time></trkpt><trkpt lat="55.7505567" lon="49.1640433"><time>2022-10-29T08:32:30.057</time></trkpt><trkpt lat="55.7505583" lon="49.1640417"><time>2022-10-29T08:32:31.030</time></trkpt><trkpt lat="55.7505583" lon="49.1640417"><time>2022-10-29T08:32:31.920</time></trkpt><trkpt lat="55.7506133" lon="49.1640333"><time>2022-10-29T08:32:40.047</time></trkpt><trkpt lat="55.7506900" lon="49.1640500"><time>2022-10-29T08:32:42.057</time></trkpt><trkpt lat="55.7506917" lon="49.1640483"><time>2022-10-29T08:32:43.033</time></trkpt><trkpt lat="55.7507633" lon="49.1641033"><time>2022-10-29T08:32:44.547</time></trkpt><trkpt lat="55.7508250" lon="49.1641483"><time>2022-10-29T08:32:45.547</time></trkpt><trkpt lat="55.7509033" lon="49.1641300"><time>2022-10-29T08:32:47.047</time></trkpt><trkpt lat="55.7509517" lon="49.1641300"><time>2022-10-29T08:32:48.047</time></trkpt><trkpt lat="55.7509983" lon="49.1641333"><time>2022-10-29T08:32:49.047</time></trkpt><trkpt lat="55.7510500" lon="49.1641817"><time>2022-10-29T08:32:51.047</time></trkpt><trkpt lat="55.7510917" lon="49.1642517"><time>2022-10-29T08:32:53.043</time></trkpt><trkpt lat="55.7511350" lon="49.1643000"><time>2022-10-29T08:32:55.047</time></trkpt><trkpt lat="55.7511733" lon="49.1643517"><time>2022-10-29T08:32:57.043</time></trkpt><trkpt lat="55.7512017" lon="49.1644583"><time>2022-10-29T08:33:00.043</time></trkpt><trkpt lat="55.7511867" lon="49.1645383"><time>2022-10-29T08:33:02.047</time></trkpt><trkpt lat="55.7511400" lon="49.1645833"><time>2022-10-29T08:33:05.053</time></trkpt><trkpt lat="55.7511767" lon="49.1646567"><time>2022-10-29T08:33:26.057</time></trkpt><trkpt lat="55.7512383" lon="49.1646717"><time>2022-10-29T08:33:28.057</time></trkpt><trkpt lat="55.7513133" lon="49.1646583"><time>2022-10-29T08:33:30.050</time></trkpt><trkpt lat="55.7514000" lon="49.1646517"><time>2022-10-29T08:33:32.053</time></trkpt><trkpt lat="55.7514667" lon="49.1646767"><time>2022-10-29T08:33:34.057</time></trkpt><trkpt lat="55.7515133" lon="49.1647517"><time>2022-10-29T08:33:36.053</time></trkpt><trkpt lat="55.7515800" lon="49.1648150"><time>2022-10-29T08:33:38.057</time></trkpt><trkpt lat="55.7516383" lon="49.1648750"><time>2022-10-29T08:33:40.053</time></trkpt><trkpt lat="55.7517050" lon="49.1649500"><time>2022-10-29T08:33:42.057</time></trkpt><trkpt lat="55.7517533" lon="49.1650217"><time>2022-10-29T08:33:44.053</time></trkpt><trkpt lat="55.7517800" lon="49.1651350"><time>2022-10-29T08:33:46.057</time></trkpt><trkpt lat="55.7517800" lon="49.1652683"><time>2022-10-29T08:33:48.057</time></trkpt><trkpt lat="55.7517833" lon="49.1654150"><time>2022-10-29T08:33:50.053</time></trkpt><trkpt lat="55.7517800" lon="49.1655717"><time>2022-10-29T08:33:52.057</time></trkpt><trkpt lat="55.7517783" lon="49.1656650"><time>2022-10-29T08:33:53.057</time></trkpt><trkpt lat="55.7517767" lon="49.1657550"><time>2022-10-29T08:33:54.057</time></trkpt><trkpt lat="55.7517700" lon="49.1658400"><time>2022-10-29T08:33:55.057</time></trkpt><trkpt lat="55.7517683" lon="49.1659283"><time>2022-10-29T08:33:56.057</time></trkpt><trkpt lat="55.7517650" lon="49.1660200"><time>2022-10-29T08:33:57.053</time></trkpt><trkpt lat="55.7517600" lon="49.1661100"><time>2022-10-29T08:33:58.053</time></trkpt><trkpt lat="55.7517483" lon="49.1661900"><time>2022-10-29T08:33:59.057</time></trkpt><trkpt lat="55.7517133" lon="49.1662950"><time>2022-10-29T08:34:01.057</time></trkpt><trkpt lat="55.7516767" lon="49.1663900"><time>2022-10-29T08:34:04.057</time></trkpt><trkpt lat="55.7516617" lon="49.1664683"><time>2022-10-29T08:34:06.053</time></trkpt><trkpt lat="55.7516217" lon="49.1665283"><time>2022-10-29T08:34:09.053</time></trkpt><trkpt lat="55.7515767" lon="49.1665850"><time>2022-10-29T08:34:15.047</time></trkpt><trkpt lat="55.7515383" lon="49.1666400"><time>2022-10-29T08:34:18.057</time></trkpt><trkpt lat="55.7514933" lon="49.1666850"><time>2022-10-29T08:34:21.057</time></trkpt><trkpt lat="55.7514500" lon="49.1667283"><time>2022-10-29T08:34:25.067</time></trkpt><trkpt lat="55.7514500" lon="49.1667233"><time>2022-10-29T08:34:26.550</time></trkpt><trkpt lat="55.7514500" lon="49.1667217"><time>2022-10-29T08:34:27.917</time></trkpt><trkpt lat="55.7514150" lon="49.1667833"><time>2022-10-29T08:34:32.050</time></trkpt><trkpt lat="55.7514150" lon="49.1667767"><time>2022-10-29T08:34:33.527</time></trkpt><trkpt lat="55.7513717" lon="49.1668150"><time>2022-10-29T08:34:37.043</time></trkpt><trkpt lat="55.7513367" lon="49.1668683"><time>2022-10-29T08:34:42.047</time></trkpt><trkpt lat="55.7513017" lon="49.1669200"><time>2022-10-29T08:34:45.040</time></trkpt><trkpt lat="55.7512800" lon="49.1669900"><time>2022-10-29T08:34:49.047</time></trkpt><trkpt lat="55.7512583" lon="49.1670650"><time>2022-10-29T08:34:54.043</time></trkpt><trkpt lat="55.7512100" lon="49.1671167"><time>2022-10-29T08:35:12.053</time></trkpt><trkpt lat="55.7511533" lon="49.1671200"><time>2022-10-29T08:35:15.057</time></trkpt><trkpt lat="55.7511050" lon="49.1671233"><time>2022-10-29T08:35:17.053</time></trkpt><trkpt lat="55.7510533" lon="49.1671417"><time>2022-10-29T08:35:20.057</time></trkpt><trkpt lat="55.7510117" lon="49.1671733"><time>2022-10-29T08:35:29.067</time></trkpt><trkpt lat="55.7510117" lon="49.1671733"><time>2022-10-29T08:35:30.030</time></trkpt><trkpt lat="55.7509667" lon="49.1671733"><time>2022-10-29T08:35:32.547</time></trkpt><trkpt lat="55.7509083" lon="49.1671700"><time>2022-10-29T08:35:35.043</time></trkpt><trkpt lat="55.7508483" lon="49.1671483"><time>2022-10-29T08:35:38.047</time></trkpt><trkpt lat="55.7507933" lon="49.1671383"><time>2022-10-29T08:35:40.043</time></trkpt><trkpt lat="55.7507367" lon="49.1671483"><time>2022-10-29T08:35:42.053</time></trkpt><trkpt lat="55.7507367" lon="49.1671483"><time>2022-10-29T08:35:42.100</time></trkpt><trkpt lat="55.7507017" lon="49.1671983"><time>2022-10-29T08:35:44.057</time></trkpt><trkpt lat="55.7507017" lon="49.1671950"><time>2022-10-29T08:35:45.527</time></trkpt><trkpt lat="55.7506750" lon="49.1670983"><time>2022-10-29T08:35:46.527</time></trkpt><trkpt lat="55.7506967" lon="49.1671817"><time>2022-10-29T08:35:48.027</time></trkpt><trkpt lat="55.7507450" lon="49.1671350"><time>2022-10-29T08:35:51.017</time></trkpt><trkpt lat="55.7508100" lon="49.1671283"><time>2022-10-29T08:35:53.047</time></trkpt><trkpt lat="55.7508767" lon="49.1671517"><time>2022-10-29T08:35:55.047</time></trkpt><trkpt lat="55.7509433" lon="49.1671700"><time>2022-10-29T08:35:57.043</time></trkpt><trkpt lat="55.7510017" lon="49.1671733"><time>2022-10-29T08:35:59.040</time></trkpt><trkpt lat="55.7510517" lon="49.1671733"><time>2022-10-29T08:36:01.043</time></trkpt><trkpt lat="55.7511083" lon="49.1671517"><time>2022-10-29T08:36:04.040</time></trkpt><trkpt lat="55.7511683" lon="49.1671367"><time>2022-10-29T08:36:06.043</time></trkpt><trkpt lat="55.7512200" lon="49.1671067"><time>2022-10-29T08:36:08.043</time></trkpt><trkpt lat="55.7512467" lon="49.1670317"><time>2022-10-29T08:36:12.040</time></trkpt><trkpt lat="55.7512867" lon="49.1669683"><time>2022-10-29T08:36:17.057</time></trkpt><trkpt lat="55.7513383" lon="49.1669183"><time>2022-10-29T08:36:22.060</time></trkpt><trkpt lat="55.7513733" lon="49.1668683"><time>2022-10-29T08:36:27.060</time></trkpt><trkpt lat="55.7514250" lon="49.1668450"><time>2022-10-29T08:36:31.057</time></trkpt><trkpt lat="55.7514917" lon="49.1667967"><time>2022-10-29T08:36:33.057</time></trkpt><trkpt lat="55.7515667" lon="49.1667283"><time>2022-10-29T08:36:35.057</time></trkpt><trkpt lat="55.7516150" lon="49.1666867"><time>2022-10-29T08:36:36.057</time></trkpt><trkpt lat="55.7516683" lon="49.1666350"><time>2022-10-29T08:36:37.057</time></trkpt><trkpt lat="55.7517017" lon="49.1665800"><time>2022-10-29T08:36:38.050</time></trkpt><trkpt lat="55.7517267" lon="49.1665083"><time>2022-10-29T08:36:39.050</time></trkpt><trkpt lat="55.7517350" lon="49.1663583"><time>2022-10-29T08:36:41.057</time></trkpt><trkpt lat="55.7517400" lon="49.1662750"><time>2022-10-29T08:36:42.057</time></trkpt><trkpt lat="55.7517450" lon="49.1661750"><time>2022-10-29T08:36:43.057</time></trkpt><trkpt lat="55.7517417" lon="49.1660817"><time>2022-10-29T08:36:44.053</time></trkpt><trkpt lat="55.7517383" lon="49.1660017"><time>2022-10-29T08:36:45.057</time></trkpt><trkpt lat="55.7517400" lon="49.1659067"><time>2022-10-29T08:36:46.053</time></trkpt><trkpt lat="55.7517417" lon="49.1658250"><time>2022-10-29T08:36:47.053</time></trkpt><trkpt lat="55.7517450" lon="49.1656967"><time>2022-10-29T08:36:49.053</time></trkpt><trkpt lat="55.7517433" lon="49.1656000"><time>2022-10-29T08:36:50.057</time></trkpt><trkpt lat="55.7517433" lon="49.1654900"><time>2022-10-29T08:36:52.053</time></trkpt><trkpt lat="55.7517483" lon="49.1653767"><time>2022-10-29T08:36:54.047</time></trkpt><trkpt lat="55.7517467" lon="49.1652817"><time>2022-10-29T08:36:56.053</time></trkpt><trkpt lat="55.7517417" lon="49.1651867"><time>2022-10-29T08:36:58.057</time></trkpt><trkpt lat="55.7517517" lon="49.1650983"><time>2022-10-29T08:37:00.057</time></trkpt><trkpt lat="55.7517467" lon="49.1649850"><time>2022-10-29T08:37:02.057</time></trkpt><trkpt lat="55.7517100" lon="49.1649167"><time>2022-10-29T08:37:04.057</time></trkpt><trkpt lat="55.7516500" lon="49.1648800"><time>2022-10-29T08:37:07.047</time></trkpt><trkpt lat="55.7515867" lon="49.1648200"><time>2022-10-29T08:37:10.060</time></trkpt><trkpt lat="55.7515400" lon="49.1647550"><time>2022-10-29T08:37:12.050</time></trkpt><trkpt lat="55.7514850" lon="49.1646867"><time>2022-10-29T08:37:14.043</time></trkpt><trkpt lat="55.7514450" lon="49.1645700"><time>2022-10-29T08:37:16.057</time></trkpt><trkpt lat="55.7514050" lon="49.1644600"><time>2022-10-29T08:37:18.057</time></trkpt><trkpt lat="55.7513250" lon="49.1644033"><time>2022-10-29T08:37:20.060</time></trkpt><trkpt lat="55.7512850" lon="49.1643667"><time>2022-10-29T08:37:21.050</time></trkpt><trkpt lat="55.7512433" lon="49.1643183"><time>2022-10-29T08:37:22.057</time></trkpt><trkpt lat="55.7512017" lon="49.1642683"><time>2022-10-29T08:37:23.057</time></trkpt><trkpt lat="55.7511583" lon="49.1642183"><time>2022-10-29T08:37:24.053</time></trkpt><trkpt lat="55.7511167" lon="49.1641617"><time>2022-10-29T08:37:25.063</time></trkpt><trkpt lat="55.7510800" lon="49.1641117"><time>2022-10-29T08:37:26.060</time></trkpt><trkpt lat="55.7510117" lon="49.1640383"><time>2022-10-29T08:37:28.060</time></trkpt><trkpt lat="55.7509267" lon="49.1640200"><time>2022-10-29T08:37:30.060</time></trkpt><trkpt lat="55.7508383" lon="49.1640150"><time>2022-10-29T08:37:32.060</time></trkpt><trkpt lat="55.7507567" lon="49.1640217"><time>2022-10-29T08:37:34.063</time></trkpt><trkpt lat="55.7507117" lon="49.1640300"><time>2022-10-29T08:37:35.060</time></trkpt><trkpt lat="55.7506650" lon="49.1640283"><time>2022-10-29T08:37:36.060</time></trkpt><trkpt lat="55.7506150" lon="49.1640267"><time>2022-10-29T08:37:37.057</time></trkpt><trkpt lat="55.7505683" lon="49.1640183"><time>2022-10-29T08:37:38.060</time></trkpt><trkpt lat="55.7505050" lon="49.1640000"><time>2022-10-29T08:37:39.060</time></trkpt><trkpt lat="55.7504600" lon="49.1639883"><time>2022-10-29T08:37:40.057</time></trkpt><trkpt lat="55.7504117" lon="49.1639733"><time>2022-10-29T08:37:41.057</time></trkpt><trkpt lat="55.7503633" lon="49.1639550"><time>2022-10-29T08:37:42.057</time></trkpt><trkpt lat="55.7503183" lon="49.1639433"><time>2022-10-29T08:37:43.057</time></trkpt><trkpt lat="55.7502700" lon="49.1639283"><time>2022-10-29T08:37:44.057</time></trkpt><trkpt lat="55.7501767" lon="49.1639183"><time>2022-10-29T08:37:46.060</time></trkpt><trkpt lat="55.7501200" lon="49.1639150"><time>2022-10-29T08:37:47.057</time></trkpt><trkpt lat="55.7500567" lon="49.1639067"><time>2022-10-29T08:37:48.057</time></trkpt><trkpt lat="55.7499933" lon="49.1638983"><time>2022-10-29T08:37:49.047</time></trkpt><trkpt lat="55.7499383" lon="49.1639117"><time>2022-10-29T08:37:50.060</time></trkpt><trkpt lat="55.7498750" lon="49.1639133"><time>2022-10-29T08:37:51.060</time></trkpt><trkpt lat="55.7498133" lon="49.1639083"><time>2022-10-29T08:37:52.060</time></trkpt><trkpt lat="55.7497500" lon="49.1638900"><time>2022-10-29T08:37:53.057</time></trkpt><trkpt lat="55.7496867" lon="49.1638800"><time>2022-10-29T08:37:54.060</time></trkpt><trkpt lat="55.7496267" lon="49.1638683"><time>2022-10-29T08:37:55.057</time></trkpt><trkpt lat="55.7495650" lon="49.1638583"><time>2022-10-29T08:37:56.057</time></trkpt><trkpt lat="55.7495033" lon="49.1638500"><time>2022-10-29T08:37:57.057</time></trkpt><trkpt lat="55.7494417" lon="49.1638367"><time>2022-10-29T08:37:58.057</time></trkpt><trkpt lat="55.7493917" lon="49.1638283"><time>2022-10-29T08:37:59.060</time></trkpt><trkpt lat="55.7493417" lon="49.1638300"><time>2022-10-29T08:38:00.060</time></trkpt><trkpt lat="55.7492883" lon="49.1638300"><time>2022-10-29T08:38:01.060</time></trkpt><trkpt lat="55.7492383" lon="49.1638317"><time>2022-10-29T08:38:02.057</time></trkpt><trkpt lat="55.7491500" lon="49.1638317"><time>2022-10-29T08:38:04.057</time></trkpt><trkpt lat="55.7491033" lon="49.1638200"><time>2022-10-29T08:38:05.057</time></trkpt><trkpt lat="55.7490567" lon="49.1638083"><time>2022-10-29T08:38:06.060</time></trkpt><trkpt lat="55.7490100" lon="49.1638433"><time>2022-10-29T08:38:09.060</time></trkpt><trkpt lat="55.7490500" lon="49.1639067"><time>2022-10-29T08:38:19.060</time></trkpt><trkpt lat="55.7490933" lon="49.1639317"><time>2022-10-29T08:38:26.060</time></trkpt><trkpt lat="55.7491417" lon="49.1639367"><time>2022-10-29T08:38:33.060</time></trkpt><trkpt lat="55.7491633" lon="49.1638417"><time>2022-10-29T08:38:37.060</time></trkpt><trkpt lat="55.7491700" lon="49.1637317"><time>2022-10-29T08:38:39.060</time></trkpt><trkpt lat="55.7491783" lon="49.1636133"><time>2022-10-29T08:38:41.060</time></trkpt><trkpt lat="55.7491833" lon="49.1634867"><time>2022-10-29T08:38:43.060</time></trkpt><trkpt lat="55.7491867" lon="49.1633583"><time>2022-10-29T08:38:45.050</time></trkpt><trkpt lat="55.7491850" lon="49.1632183"><time>2022-10-29T08:38:47.053</time></trkpt><trkpt lat="55.7491967" lon="49.1631350"><time>2022-10-29T08:38:50.060</time></trkpt><trkpt lat="55.7492433" lon="49.1631150"><time>2022-10-29T08:38:56.057</time></trkpt><trkpt lat="55.7492917" lon="49.1631017"><time>2022-10-29T08:39:01.060</time></trkpt><trkpt lat="55.7493417" lon="49.1631050"><time>2022-10-29T08:39:06.060</time></trkpt><trkpt lat="55.7492883" lon="49.1631717"><time>2022-10-29T08:39:18.057</time></trkpt><trkpt lat="55.7492133" lon="49.1631900"><time>2022-10-29T08:39:20.050</time></trkpt><trkpt lat="55.7491483" lon="49.1631867"><time>2022-10-29T08:39:22.057</time></trkpt><trkpt lat="55.7490783" lon="49.1631800"><time>2022-10-29T08:39:24.060</time></trkpt><trkpt lat="55.7490017" lon="49.1631567"><time>2022-10-29T08:39:26.053</time></trkpt><trkpt lat="55.7489200" lon="49.1631467"><time>2022-10-29T08:39:28.057</time></trkpt><trkpt lat="55.7488500" lon="49.1631250"><time>2022-10-29T08:39:30.057</time></trkpt><trkpt lat="55.7488050" lon="49.1631183"><time>2022-10-29T08:39:31.057</time></trkpt><trkpt lat="55.7487483" lon="49.1631133"><time>2022-10-29T08:39:32.050</time></trkpt><trkpt lat="55.7486917" lon="49.1631050"><time>2022-10-29T08:39:33.060</time></trkpt><trkpt lat="55.7486417" lon="49.1630900"><time>2022-10-29T08:39:34.053</time></trkpt><trkpt lat="55.7485517" lon="49.1630467"><time>2022-10-29T08:39:36.047</time></trkpt><trkpt lat="55.7484867" lon="49.1630383"><time>2022-10-29T08:39:37.060</time></trkpt><trkpt lat="55.7484350" lon="49.1630233"><time>2022-10-29T08:39:38.060</time></trkpt><trkpt lat="55.7483700" lon="49.1630233"><time>2022-10-29T08:39:39.060</time></trkpt><trkpt lat="55.7483100" lon="49.1630167"><time>2022-10-29T08:39:40.060</time></trkpt><trkpt lat="55.7482483" lon="49.1630150"><time>2022-10-29T08:39:41.057</time></trkpt><trkpt lat="55.7481933" lon="49.1630050"><time>2022-10-29T08:39:42.057</time></trkpt><trkpt lat="55.7481233" lon="49.1630117"><time>2022-10-29T08:39:43.053</time></trkpt><trkpt lat="55.7480517" lon="49.1630100"><time>2022-10-29T08:39:44.057</time></trkpt><trkpt lat="55.7479833" lon="49.1630067"><time>2022-10-29T08:39:45.060</time></trkpt><trkpt lat="55.7479167" lon="49.1630067"><time>2022-10-29T08:39:46.060</time></trkpt><trkpt lat="55.7478533" lon="49.1630167"><time>2022-10-29T08:39:47.057</time></trkpt><trkpt lat="55.7477867" lon="49.1630267"><time>2022-10-29T08:39:48.050</time></trkpt><trkpt lat="55.7477200" lon="49.1630333"><time>2022-10-29T08:39:49.057</time></trkpt><trkpt lat="55.7476500" lon="49.1630350"><time>2022-10-29T08:39:50.057</time></trkpt><trkpt lat="55.7475817" lon="49.1630317"><time>2022-10-29T08:39:51.053</time></trkpt><trkpt lat="55.7475183" lon="49.1630317"><time>2022-10-29T08:39:52.053</time></trkpt><trkpt lat="55.7474567" lon="49.1630333"><time>2022-10-29T08:39:53.053</time></trkpt><trkpt lat="55.7473950" lon="49.1630317"><time>2022-10-29T08:39:54.057</time></trkpt><trkpt lat="55.7473350" lon="49.1630217"><time>2022-10-29T08:39:55.053</time></trkpt><trkpt lat="55.7472733" lon="49.1630283"><time>2022-10-29T08:39:56.057</time></trkpt><trkpt lat="55.7472117" lon="49.1630233"><time>2022-10-29T08:39:57.057</time></trkpt><trkpt lat="55.7471500" lon="49.1630200"><time>2022-10-29T08:39:58.047</time></trkpt><trkpt lat="55.7470933" lon="49.1630183"><time>2022-10-29T08:39:59.050</time></trkpt><trkpt lat="55.7470333" lon="49.1630150"><time>2022-10-29T08:40:00.057</time></trkpt><trkpt lat="55.7469750" lon="49.1630133"><time>2022-10-29T08:40:01.057</time></trkpt><trkpt lat="55.7469217" lon="49.1630100"><time>2022-10-29T08:40:02.053</time></trkpt><trkpt lat="55.7468683" lon="49.1629917"><time>2022-10-29T08:40:03.057</time></trkpt><trkpt lat="55.7468150" lon="49.1629650"><time>2022-10-29T08:40:04.053</time></trkpt><trkpt lat="55.7467583" lon="49.1629583"><time>2022-10-29T08:40:05.053</time></trkpt><trkpt lat="55.7467017" lon="49.1629617"><time>2022-10-29T08:40:06.057</time></trkpt><trkpt lat="55.7466467" lon="49.1629550"><time>2022-10-29T08:40:07.070</time></trkpt><trkpt lat="55.7465317" lon="49.1627233"><time>2022-10-29T08:40:08.047</time></trkpt><trkpt lat="55.7465350" lon="49.1628050"><time>2022-10-29T08:40:09.027</time></trkpt><trkpt lat="55.7464700" lon="49.1628133"><time>2022-10-29T08:40:10.543</time></trkpt><trkpt lat="55.7464000" lon="49.1627950"><time>2022-10-29T08:40:12.043</time></trkpt><trkpt lat="55.7463467" lon="49.1627767"><time>2022-10-29T08:40:13.047</time></trkpt><trkpt lat="55.7462867" lon="49.1627833"><time>2022-10-29T08:40:14.047</time></trkpt><trkpt lat="55.7462233" lon="49.1627917"><time>2022-10-29T08:40:15.047</time></trkpt><trkpt lat="55.7461600" lon="49.1627950"><time>2022-10-29T08:40:16.047</time></trkpt><trkpt lat="55.7461050" lon="49.1627750"><time>2022-10-29T08:40:17.047</time></trkpt><trkpt lat="55.7460467" lon="49.1627617"><time>2022-10-29T08:40:18.043</time></trkpt><trkpt lat="55.7459950" lon="49.1627433"><time>2022-10-29T08:40:19.027</time></trkpt><trkpt lat="55.7459433" lon="49.1627267"><time>2022-10-29T08:40:20.047</time></trkpt><trkpt lat="55.7458833" lon="49.1627250"><time>2022-10-29T08:40:21.047</time></trkpt><trkpt lat="55.7458333" lon="49.1627117"><time>2022-10-29T08:40:22.040</time></trkpt><trkpt lat="55.7457767" lon="49.1626967"><time>2022-10-29T08:40:23.047</time></trkpt><trkpt lat="55.7457183" lon="49.1626867"><time>2022-10-29T08:40:24.047</time></trkpt><trkpt lat="55.7456650" lon="49.1626750"><time>2022-10-29T08:40:25.047</time></trkpt><trkpt lat="55.7456100" lon="49.1626617"><time>2022-10-29T08:40:26.047</time></trkpt><trkpt lat="55.7455533" lon="49.1626533"><time>2022-10-29T08:40:27.050</time></trkpt><trkpt lat="55.7454983" lon="49.1626417"><time>2022-10-29T08:40:28.050</time></trkpt><trkpt lat="55.7454450" lon="49.1626333"><time>2022-10-29T08:40:29.050</time></trkpt><trkpt lat="55.7453933" lon="49.1626217"><time>2022-10-29T08:40:30.050</time></trkpt><trkpt lat="55.7453050" lon="49.1625900"><time>2022-10-29T08:40:32.057</time></trkpt><trkpt lat="55.7452233" lon="49.1625650"><time>2022-10-29T08:40:34.053</time></trkpt><trkpt lat="55.7451800" lon="49.1625917"><time>2022-10-29T08:40:40.057</time></trkpt><trkpt lat="55.7451500" lon="49.1627000"><time>2022-10-29T08:40:51.060</time></trkpt><trkpt lat="55.7451583" lon="49.1628417"><time>2022-10-29T08:40:53.047</time></trkpt><trkpt lat="55.7451250" lon="49.1629567"><time>2022-10-29T08:40:55.057</time></trkpt><trkpt lat="55.7450783" lon="49.1629483"><time>2022-10-29T08:40:56.060</time></trkpt><trkpt lat="55.7449917" lon="49.1629233"><time>2022-10-29T08:40:58.043</time></trkpt><trkpt lat="55.7449083" lon="49.1629133"><time>2022-10-29T08:41:00.057</time></trkpt><trkpt lat="55.7448267" lon="49.1629133"><time>2022-10-29T08:41:02.053</time></trkpt><trkpt lat="55.7447483" lon="49.1629267"><time>2022-10-29T08:41:04.053</time></trkpt><trkpt lat="55.7446917" lon="49.1629350"><time>2022-10-29T08:41:06.057</time></trkpt><trkpt lat="55.7446317" lon="49.1629367"><time>2022-10-29T08:41:08.057</time></trkpt><trkpt lat="55.7445850" lon="49.1629533"><time>2022-10-29T08:41:10.057</time></trkpt><trkpt lat="55.7445417" lon="49.1629750"><time>2022-10-29T08:41:12.057</time></trkpt><trkpt lat="55.7444900" lon="49.1630167"><time>2022-10-29T08:41:15.057</time></trkpt><trkpt lat="55.7444567" lon="49.1630717"><time>2022-10-29T08:41:24.057</time></trkpt><trkpt lat="55.7444000" lon="49.1630867"><time>2022-10-29T08:41:42.060</time></trkpt><trkpt lat="55.7443633" lon="49.1631467"><time>2022-10-29T08:41:55.057</time></trkpt><trkpt lat="55.7443217" lon="49.1631917"><time>2022-10-29T08:42:02.057</time></trkpt><trkpt lat="55.7442800" lon="49.1632350"><time>2022-10-29T08:42:13.057</time></trkpt><trkpt lat="55.7442800" lon="49.1633217"><time>2022-10-29T08:42:22.057</time></trkpt><trkpt lat="55.7442683" lon="49.1634183"><time>2022-10-29T08:42:26.057</time></trkpt><trkpt lat="55.7442833" lon="49.1635383"><time>2022-10-29T08:42:29.053</time></trkpt><trkpt lat="55.7442750" lon="49.1636183"><time>2022-10-29T08:42:31.057</time></trkpt><trkpt lat="55.7442767" lon="49.1637300"><time>2022-10-29T08:42:34.057</time></trkpt><trkpt lat="55.7442917" lon="49.1638067"><time>2022-10-29T08:42:36.057</time></trkpt><trkpt lat="55.7443267" lon="49.1638817"><time>2022-10-29T08:42:38.057</time></trkpt><trkpt lat="55.7443617" lon="49.1639467"><time>2022-10-29T08:42:40.053</time></trkpt><trkpt lat="55.7443917" lon="49.1640167"><time>2022-10-29T08:42:42.073</time></trkpt><trkpt lat="55.7443933" lon="49.1640167"><time>2022-10-29T08:42:43.057</time></trkpt><trkpt lat="55.7444317" lon="49.1640800"><time>2022-10-29T08:42:46.047</time></trkpt><trkpt lat="55.7444867" lon="49.1641333"><time>2022-10-29T08:42:48.043</time></trkpt><trkpt lat="55.7445383" lon="49.1641900"><time>2022-10-29T08:42:51.047</time></trkpt><trkpt lat="55.7445817" lon="49.1642483"><time>2022-10-29T08:42:55.037</time></trkpt><trkpt lat="55.7446267" lon="49.1643033"><time>2022-10-29T08:43:01.047</time></trkpt><trkpt lat="55.7446700" lon="49.1643333"><time>2022-10-29T08:43:04.047</time></trkpt><trkpt lat="55.7447333" lon="49.1643550"><time>2022-10-29T08:43:07.047</time></trkpt><trkpt lat="55.7447850" lon="49.1643783"><time>2022-10-29T08:43:10.060</time></trkpt><trkpt lat="55.7447883" lon="49.1643800"><time>2022-10-29T08:43:11.547</time></trkpt><trkpt lat="55.7448217" lon="49.1644383"><time>2022-10-29T08:43:14.047</time></trkpt><trkpt lat="55.7448783" lon="49.1644817"><time>2022-10-29T08:43:19.043</time></trkpt><trkpt lat="55.7449267" lon="49.1645050"><time>2022-10-29T08:43:22.050</time></trkpt><trkpt lat="55.7449833" lon="49.1645350"><time>2022-10-29T08:43:25.047</time></trkpt><trkpt lat="55.7450200" lon="49.1645917"><time>2022-10-29T08:43:28.057</time></trkpt><trkpt lat="55.7450200" lon="49.1645917"><time>2022-10-29T08:43:28.103</time></trkpt><trkpt lat="55.7450750" lon="49.1645950"><time>2022-10-29T08:43:32.057</time></trkpt><trkpt lat="55.7450750" lon="49.1645950"><time>2022-10-29T08:43:33.043</time></trkpt><trkpt lat="55.7450467" lon="49.1645217"><time>2022-10-29T08:43:35.547</time></trkpt><trkpt lat="55.7449917" lon="49.1644400"><time>2022-10-29T08:43:38.047</time></trkpt><trkpt lat="55.7449300" lon="49.1643583"><time>2022-10-29T08:43:40.047</time></trkpt><trkpt lat="55.7448767" lon="49.1643133"><time>2022-10-29T08:43:41.047</time></trkpt><trkpt lat="55.7448300" lon="49.1642767"><time>2022-10-29T08:43:42.047</time></trkpt><trkpt lat="55.7447750" lon="49.1642367"><time>2022-10-29T08:43:43.047</time></trkpt><trkpt lat="55.7447217" lon="49.1642000"><time>2022-10-29T08:43:44.047</time></trkpt><trkpt lat="55.7446650" lon="49.1641700"><time>2022-10-29T08:43:45.030</time></trkpt><trkpt lat="55.7446167" lon="49.1641433"><time>2022-10-29T08:43:46.043</time></trkpt><trkpt lat="55.7445633" lon="49.1641000"><time>2022-10-29T08:43:47.047</time></trkpt><trkpt lat="55.7445233" lon="49.1640517"><time>2022-10-29T08:43:48.040</time></trkpt><trkpt lat="55.7444783" lon="49.1640133"><time>2022-10-29T08:43:49.047</time></trkpt><trkpt lat="55.7444367" lon="49.1639683"><time>2022-10-29T08:43:50.047</time></trkpt><trkpt lat="55.7443950" lon="49.1638883"><time>2022-10-29T08:43:51.037</time></trkpt><trkpt lat="55.7443783" lon="49.1638067"><time>2022-10-29T08:43:52.050</time></trkpt><trkpt lat="55.7443600" lon="49.1637267"><time>2022-10-29T08:43:53.047</time></trkpt><trkpt lat="55.7443533" lon="49.1636317"><time>2022-10-29T08:43:54.047</time></trkpt><trkpt lat="55.7443567" lon="49.1635267"><time>2022-10-29T08:43:55.050</time></trkpt><trkpt lat="55.7443650" lon="49.1634233"><time>2022-10-29T08:43:56.040</time></trkpt><trkpt lat="55.7443883" lon="49.1633133"><time>2022-10-29T08:43:57.053</time></trkpt><trkpt lat="55.7444167" lon="49.1632217"><time>2022-10-29T08:43:58.050</time></trkpt><trkpt lat="55.7444850" lon="49.1631800"><time>2022-10-29T08:43:59.050</time></trkpt><trkpt lat="55.7445600" lon="49.1631533"><time>2022-10-29T08:44:00.053</time></trkpt><trkpt lat="55.7446383" lon="49.1631317"><time>2022-10-29T08:44:01.053</time></trkpt><trkpt lat="55.7447117" lon="49.1631150"><time>2022-10-29T08:44:02.057</time></trkpt><trkpt lat="55.7447700" lon="49.1630967"><time>2022-10-29T08:44:03.057</time></trkpt><trkpt lat="55.7448317" lon="49.1630783"><time>2022-10-29T08:44:04.057</time></trkpt><trkpt lat="55.7448867" lon="49.1630333"><time>2022-10-29T08:44:05.053</time></trkpt><trkpt lat="55.7449317" lon="49.1630167"><time>2022-10-29T08:44:06.057</time></trkpt><trkpt lat="55.7450083" lon="49.1629983"><time>2022-10-29T08:44:08.057</time></trkpt><trkpt lat="55.7450533" lon="49.1629967"><time>2022-10-29T08:44:11.057</time></trkpt><trkpt lat="55.7451350" lon="49.1628300"><time>2022-10-29T08:44:40.040</time></trkpt><trkpt lat="55.7451500" lon="49.1627267"><time>2022-10-29T08:44:42.050</time></trkpt><trkpt lat="55.7451483" lon="49.1626383"><time>2022-10-29T08:44:44.057</time></trkpt><trkpt lat="55.7451600" lon="49.1625567"><time>2022-10-29T08:44:48.053</time></trkpt><trkpt lat="55.7451517" lon="49.1624267"><time>2022-10-29T08:44:51.057</time></trkpt><trkpt lat="55.7451050" lon="49.1623400"><time>2022-10-29T08:44:53.040</time></trkpt><trkpt lat="55.7450167" lon="49.1623517"><time>2022-10-29T08:44:55.053</time></trkpt><trkpt lat="55.7449717" lon="49.1623683"><time>2022-10-29T08:44:56.053</time></trkpt><trkpt lat="55.7448800" lon="49.1623733"><time>2022-10-29T08:44:58.057</time></trkpt><trkpt lat="55.7447983" lon="49.1623683"><time>2022-10-29T08:45:00.047</time></trkpt><trkpt lat="55.7447133" lon="49.1623617"><time>2022-10-29T08:45:02.050</time></trkpt><trkpt lat="55.7446383" lon="49.1623467"><time>2022-10-29T08:45:04.047</time></trkpt><trkpt lat="55.7445767" lon="49.1623433"><time>2022-10-29T08:45:06.053</time></trkpt><trkpt lat="55.7445233" lon="49.1623117"><time>2022-10-29T08:45:08.057</time></trkpt><trkpt lat="55.7444650" lon="49.1622967"><time>2022-10-29T08:45:10.057</time></trkpt><trkpt lat="55.7443933" lon="49.1622867"><time>2022-10-29T08:45:12.047</time></trkpt><trkpt lat="55.7443400" lon="49.1621983"><time>2022-10-29T08:45:14.053</time></trkpt><trkpt lat="55.7442900" lon="49.1621583"><time>2022-10-29T08:45:15.053</time></trkpt><trkpt lat="55.7442133" lon="49.1621117"><time>2022-10-29T08:45:17.053</time></trkpt><trkpt lat="55.7441533" lon="49.1620933"><time>2022-10-29T08:45:18.557</time></trkpt><trkpt lat="55.7440467" lon="49.1620517"><time>2022-10-29T08:45:21.053</time></trkpt><trkpt lat="55.7439900" lon="49.1620450"><time>2022-10-29T08:45:22.050</time></trkpt><trkpt lat="55.7439333" lon="49.1620367"><time>2022-10-29T08:45:23.057</time></trkpt><trkpt lat="55.7438767" lon="49.1620317"><time>2022-10-29T08:45:24.060</time></trkpt><trkpt lat="55.7438267" lon="49.1620200"><time>2022-10-29T08:45:25.050</time></trkpt><trkpt lat="55.7437750" lon="49.1619883"><time>2022-10-29T08:45:26.053</time></trkpt><trkpt lat="55.7437300" lon="49.1619500"><time>2022-10-29T08:45:27.050</time></trkpt><trkpt lat="55.7436867" lon="49.1619100"><time>2022-10-29T08:45:28.050</time></trkpt><trkpt lat="55.7436417" lon="49.1618733"><time>2022-10-29T08:45:29.050</time></trkpt><trkpt lat="55.7435967" lon="49.1618417"><time>2022-10-29T08:45:30.050</time></trkpt><trkpt lat="55.7435117" lon="49.1617850"><time>2022-10-29T08:45:32.053</time></trkpt><trkpt lat="55.7434633" lon="49.1617600"><time>2022-10-29T08:45:33.050</time></trkpt><trkpt lat="55.7434117" lon="49.1617367"><time>2022-10-29T08:45:34.057</time></trkpt><trkpt lat="55.7433550" lon="49.1617150"><time>2022-10-29T08:45:35.057</time></trkpt><trkpt lat="55.7433017" lon="49.1616933"><time>2022-10-29T08:45:36.053</time></trkpt><trkpt lat="55.7432483" lon="49.1616633"><time>2022-10-29T08:45:37.023</time></trkpt><trkpt lat="55.7431983" lon="49.1616367"><time>2022-10-29T08:45:38.053</time></trkpt><trkpt lat="55.7431383" lon="49.1615983"><time>2022-10-29T08:45:39.057</time></trkpt><trkpt lat="55.7430833" lon="49.1615817"><time>2022-10-29T08:45:40.053</time></trkpt><trkpt lat="55.7430350" lon="49.1615667"><time>2022-10-29T08:45:41.053</time></trkpt><trkpt lat="55.7429717" lon="49.1615467"><time>2022-10-29T08:45:42.057</time></trkpt><trkpt lat="55.7429183" lon="49.1615183"><time>2022-10-29T08:45:43.047</time></trkpt><trkpt lat="55.7428667" lon="49.1614933"><time>2022-10-29T08:45:44.057</time></trkpt><trkpt lat="55.7428217" lon="49.1614633"><time>2022-10-29T08:45:45.057</time></trkpt><trkpt lat="55.7427383" lon="49.1614150"><time>2022-10-29T08:45:47.053</time></trkpt><trkpt lat="55.7426817" lon="49.1613867"><time>2022-10-29T08:45:48.053</time></trkpt><trkpt lat="55.7426183" lon="49.1613633"><time>2022-10-29T08:45:49.057</time></trkpt><trkpt lat="55.7425617" lon="49.1613400"><time>2022-10-29T08:45:50.057</time></trkpt><trkpt lat="55.7425067" lon="49.1613150"><time>2022-10-29T08:45:51.060</time></trkpt><trkpt lat="55.7424633" lon="49.1612900"><time>2022-10-29T08:45:52.057</time></trkpt><trkpt lat="55.7424200" lon="49.1612650"><time>2022-10-29T08:45:53.053</time></trkpt><trkpt lat="55.7423717" lon="49.1612483"><time>2022-10-29T08:45:54.053</time></trkpt><trkpt lat="55.7423183" lon="49.1612333"><time>2022-10-29T08:45:55.057</time></trkpt><trkpt lat="55.7422717" lon="49.1612217"><time>2022-10-29T08:45:56.057</time></trkpt><trkpt lat="55.7422200" lon="49.1612150"><time>2022-10-29T08:45:57.053</time></trkpt><trkpt lat="55.7421717" lon="49.1612083"><time>2022-10-29T08:45:58.057</time></trkpt><trkpt lat="55.7421000" lon="49.1611867"><time>2022-10-29T08:46:00.053</time></trkpt><trkpt lat="55.7420533" lon="49.1611750"><time>2022-10-29T08:46:01.057</time></trkpt><trkpt lat="55.7420100" lon="49.1611517"><time>2022-10-29T08:46:02.063</time></trkpt><trkpt lat="55.7418017" lon="49.1613950"><time>2022-10-29T08:46:03.027</time></trkpt><trkpt lat="55.7418383" lon="49.1613350"><time>2022-10-29T08:46:03.513</time></trkpt><trkpt lat="55.7418183" lon="49.1612183"><time>2022-10-29T08:46:04.040</time></trkpt><trkpt lat="55.7417900" lon="49.1611233"><time>2022-10-29T08:46:05.547</time></trkpt><trkpt lat="55.7417433" lon="49.1610600"><time>2022-10-29T08:46:07.047</time></trkpt><trkpt lat="55.7416633" lon="49.1609800"><time>2022-10-29T08:46:09.047</time></trkpt><trkpt lat="55.7416133" lon="49.1609433"><time>2022-10-29T08:46:10.047</time></trkpt><trkpt lat="55.7415567" lon="49.1609033"><time>2022-10-29T08:46:11.047</time></trkpt><trkpt lat="55.7415100" lon="49.1608767"><time>2022-10-29T08:46:12.047</time></trkpt><trkpt lat="55.7414650" lon="49.1608500"><time>2022-10-29T08:46:13.047</time></trkpt><trkpt lat="55.7414183" lon="49.1608200"><time>2022-10-29T08:46:14.047</time></trkpt><trkpt lat="55.7413750" lon="49.1607950"><time>2022-10-29T08:46:15.047</time></trkpt><trkpt lat="55.7412967" lon="49.1607367"><time>2022-10-29T08:46:17.047</time></trkpt><trkpt lat="55.7412533" lon="49.1607083"><time>2022-10-29T08:46:18.050</time></trkpt><trkpt lat="55.7412117" lon="49.1606783"><time>2022-10-29T08:46:19.047</time></trkpt><trkpt lat="55.7411367" lon="49.1605767"><time>2022-10-29T08:46:21.063</time></trkpt><trkpt lat="55.7408533" lon="49.1604200"><time>2022-10-29T08:46:22.537</time></trkpt><trkpt lat="55.7409500" lon="49.1604267"><time>2022-10-29T08:46:23.013</time></trkpt><trkpt lat="55.7409133" lon="49.1603583"><time>2022-10-29T08:46:24.547</time></trkpt><trkpt lat="55.7408617" lon="49.1603250"><time>2022-10-29T08:46:26.047</time></trkpt><trkpt lat="55.7408167" lon="49.1603017"><time>2022-10-29T08:46:28.047</time></trkpt><trkpt lat="55.7407717" lon="49.1602867"><time>2022-10-29T08:46:30.047</time></trkpt><trkpt lat="55.7407167" lon="49.1602600"><time>2022-10-29T08:46:32.057</time></trkpt><trkpt lat="55.7407233" lon="49.1602667"><time>2022-10-29T08:46:33.040</time></trkpt><trkpt lat="55.7406450" lon="49.1602150"><time>2022-10-29T08:46:35.043</time></trkpt><trkpt lat="55.7405700" lon="49.1601683"><time>2022-10-29T08:46:35.543</time></trkpt><trkpt lat="55.7404967" lon="49.1601050"><time>2022-10-29T08:46:37.047</time></trkpt><trkpt lat="55.7404417" lon="49.1600733"><time>2022-10-29T08:46:39.047</time></trkpt><trkpt lat="55.7403967" lon="49.1600483"><time>2022-10-29T08:46:43.053</time></trkpt><trkpt lat="55.7403967" lon="49.1600483"><time>2022-10-29T08:46:43.097</time></trkpt><trkpt lat="55.7403900" lon="49.1601417"><time>2022-10-29T08:47:34.077</time></trkpt><trkpt lat="55.7403900" lon="49.1601417"><time>2022-10-29T08:47:35.067</time></trkpt><trkpt lat="55.7406933" lon="49.1604967"><time>2022-10-29T08:47:35.540</time></trkpt><trkpt lat="55.7406433" lon="49.1605033"><time>2022-10-29T08:47:41.043</time></trkpt><trkpt lat="55.7405800" lon="49.1605183"><time>2022-10-29T08:47:43.050</time></trkpt><trkpt lat="55.7405100" lon="49.1605417"><time>2022-10-29T08:47:45.047</time></trkpt><trkpt lat="55.7404350" lon="49.1605533"><time>2022-10-29T08:47:47.047</time></trkpt><trkpt lat="55.7403600" lon="49.1605350"><time>2022-10-29T08:47:49.047</time></trkpt><trkpt lat="55.7402717" lon="49.1605450"><time>2022-10-29T08:47:51.047</time></trkpt><trkpt lat="55.7402233" lon="49.1605567"><time>2022-10-29T08:47:52.047</time></trkpt><trkpt lat="55.7401783" lon="49.1605633"><time>2022-10-29T08:47:53.047</time></trkpt><trkpt lat="55.7401317" lon="49.1605717"><time>2022-10-29T08:47:54.047</time></trkpt><trkpt lat="55.7400867" lon="49.1605833"><time>2022-10-29T08:47:55.050</time></trkpt><trkpt lat="55.7400417" lon="49.1605850"><time>2022-10-29T08:47:56.050</time></trkpt><trkpt lat="55.7399967" lon="49.1605933"><time>2022-10-29T08:47:57.047</time></trkpt><trkpt lat="55.7399517" lon="49.1606133"><time>2022-10-29T08:47:58.050</time></trkpt><trkpt lat="55.7398667" lon="49.1606717"><time>2022-10-29T08:48:00.047</time></trkpt><trkpt lat="55.7398200" lon="49.1607083"><time>2022-10-29T08:48:01.047</time></trkpt><trkpt lat="55.7397717" lon="49.1607467"><time>2022-10-29T08:48:02.053</time></trkpt><trkpt lat="55.7397250" lon="49.1607933"><time>2022-10-29T08:48:03.047</time></trkpt><trkpt lat="55.7396783" lon="49.1608467"><time>2022-10-29T08:48:04.057</time></trkpt><trkpt lat="55.7396267" lon="49.1609100"><time>2022-10-29T08:48:05.057</time></trkpt><trkpt lat="55.7395800" lon="49.1609633"><time>2022-10-29T08:48:06.057</time></trkpt><trkpt lat="55.7395333" lon="49.1610217"><time>2022-10-29T08:48:07.057</time></trkpt><trkpt lat="55.7394833" lon="49.1610883"><time>2022-10-29T08:48:08.057</time></trkpt><trkpt lat="55.7394100" lon="49.1611833"><time>2022-10-29T08:48:10.037</time></trkpt><trkpt lat="55.7393650" lon="49.1612517"><time>2022-10-29T08:48:11.053</time></trkpt><trkpt lat="55.7393217" lon="49.1613150"><time>2022-10-29T08:48:12.057</time></trkpt><trkpt lat="55.7392783" lon="49.1613667"><time>2022-10-29T08:48:13.020</time></trkpt><trkpt lat="55.7392317" lon="49.1614300"><time>2022-10-29T08:48:14.047</time></trkpt><trkpt lat="55.7391867" lon="49.1614900"><time>2022-10-29T08:48:15.053</time></trkpt><trkpt lat="55.7391433" lon="49.1615417"><time>2022-10-29T08:48:16.057</time></trkpt><trkpt lat="55.7391017" lon="49.1615900"><time>2022-10-29T08:48:17.050</time></trkpt><trkpt lat="55.7390583" lon="49.1616317"><time>2022-10-29T08:48:18.030</time></trkpt><trkpt lat="55.7390117" lon="49.1616650"><time>2022-10-29T08:48:19.047</time></trkpt><trkpt lat="55.7389667" lon="49.1616900"><time>2022-10-29T08:48:20.057</time></trkpt><trkpt lat="55.7388900" lon="49.1617683"><time>2022-10-29T08:48:22.057</time></trkpt><trkpt lat="55.7388517" lon="49.1618217"><time>2022-10-29T08:48:23.057</time></trkpt><trkpt lat="55.7388150" lon="49.1618733"><time>2022-10-29T08:48:24.060</time></trkpt><trkpt lat="55.7387750" lon="49.1619317"><time>2022-10-29T08:48:25.047</time></trkpt><trkpt lat="55.7387300" lon="49.1619867"><time>2022-10-29T08:48:26.043</time></trkpt><trkpt lat="55.7386850" lon="49.1620383"><time>2022-10-29T08:48:27.057</time></trkpt><trkpt lat="55.7386417" lon="49.1620750"><time>2022-10-29T08:48:28.057</time></trkpt><trkpt lat="55.7385983" lon="49.1621067"><time>2022-10-29T08:48:29.060</time></trkpt><trkpt lat="55.7385567" lon="49.1621400"><time>2022-10-29T08:48:30.037</time></trkpt><trkpt lat="55.7385117" lon="49.1621733"><time>2022-10-29T08:48:31.050</time></trkpt><trkpt lat="55.7384650" lon="49.1622033"><time>2022-10-29T08:48:32.057</time></trkpt><trkpt lat="55.7384167" lon="49.1622183"><time>2022-10-29T08:48:33.060</time></trkpt><trkpt lat="55.7383717" lon="49.1622500"><time>2022-10-29T08:48:34.050</time></trkpt><trkpt lat="55.7383267" lon="49.1622917"><time>2022-10-29T08:48:35.060</time></trkpt><trkpt lat="55.7382367" lon="49.1623217"><time>2022-10-29T08:48:37.060</time></trkpt><trkpt lat="55.7381533" lon="49.1623233"><time>2022-10-29T08:48:39.057</time></trkpt><trkpt lat="55.7381083" lon="49.1623200"><time>2022-10-29T08:48:40.053</time></trkpt><trkpt lat="55.7380350" lon="49.1623183"><time>2022-10-29T08:48:42.057</time></trkpt><trkpt lat="55.7379683" lon="49.1623100"><time>2022-10-29T08:48:44.057</time></trkpt><trkpt lat="55.7379067" lon="49.1622583"><time>2022-10-29T08:48:46.057</time></trkpt><trkpt lat="55.7378383" lon="49.1621950"><time>2022-10-29T08:48:48.053</time></trkpt><trkpt lat="55.7377900" lon="49.1621750"><time>2022-10-29T08:48:50.057</time></trkpt><trkpt lat="55.7377383" lon="49.1621867"><time>2022-10-29T08:48:52.053</time></trkpt><trkpt lat="55.7376767" lon="49.1622033"><time>2022-10-29T08:48:55.057</time></trkpt><trkpt lat="55.7376233" lon="49.1622333"><time>2022-10-29T08:48:59.057</time></trkpt><trkpt lat="55.7375867" lon="49.1623133"><time>2022-10-29T08:49:15.057</time></trkpt><trkpt lat="55.7375983" lon="49.1624133"><time>2022-10-29T08:49:44.053</time></trkpt><trkpt lat="55.7375850" lon="49.1625150"><time>2022-10-29T08:49:47.057</time></trkpt><trkpt lat="55.7375983" lon="49.1626433"><time>2022-10-29T08:49:50.200</time></trkpt><trkpt lat="55.7375450" lon="49.1626867"><time>2022-10-29T08:49:53.007</time></trkpt><trkpt lat="55.7374967" lon="49.1626850"><time>2022-10-29T08:49:56.043</time></trkpt><trkpt lat="55.7374483" lon="49.1626500"><time>2022-10-29T08:49:59.057</time></trkpt><trkpt lat="55.7374767" lon="49.1627233"><time>2022-10-29T08:50:09.053</time></trkpt><trkpt lat="55.7375233" lon="49.1627567"><time>2022-10-29T08:50:11.057</time></trkpt><trkpt lat="55.7375733" lon="49.1627850"><time>2022-10-29T08:50:13.057</time></trkpt><trkpt lat="55.7376183" lon="49.1628250"><time>2022-10-29T08:50:15.060</time></trkpt><trkpt lat="55.7376750" lon="49.1628900"><time>2022-10-29T08:50:18.047</time></trkpt><trkpt lat="55.7376733" lon="49.1629700"><time>2022-10-29T08:50:20.057</time></trkpt><trkpt lat="55.7376567" lon="49.1630733"><time>2022-10-29T08:50:23.047</time></trkpt><trkpt lat="55.7376183" lon="49.1631267"><time>2022-10-29T08:50:27.053</time></trkpt><trkpt lat="55.7375883" lon="49.1631933"><time>2022-10-29T08:50:30.060</time></trkpt><trkpt lat="55.7375533" lon="49.1632617"><time>2022-10-29T08:50:34.060</time></trkpt><trkpt lat="55.7375167" lon="49.1633417"><time>2022-10-29T08:50:39.057</time></trkpt><trkpt lat="55.7374933" lon="49.1634400"><time>2022-10-29T08:50:44.060</time></trkpt><trkpt lat="55.7374633" lon="49.1635317"><time>2022-10-29T08:50:48.057</time></trkpt><trkpt lat="55.7374267" lon="49.1636150"><time>2022-10-29T08:50:53.057</time></trkpt><trkpt lat="55.7374100" lon="49.1637050"><time>2022-10-29T08:50:58.053</time></trkpt><trkpt lat="55.7374067" lon="49.1637933"><time>2022-10-29T08:51:03.057</time></trkpt><trkpt lat="55.7374033" lon="49.1638867"><time>2022-10-29T08:51:07.057</time></trkpt><trkpt lat="55.7374033" lon="49.1639683"><time>2022-10-29T08:51:10.057</time></trkpt><trkpt lat="55.7374133" lon="49.1640483"><time>2022-10-29T08:51:13.057</time></trkpt><trkpt lat="55.7374233" lon="49.1641383"><time>2022-10-29T08:51:17.057</time></trkpt><trkpt lat="55.7374467" lon="49.1642233"><time>2022-10-29T08:51:21.043</time></trkpt><trkpt lat="55.7374500" lon="49.1643233"><time>2022-10-29T08:51:25.057</time></trkpt><trkpt lat="55.7374650" lon="49.1644117"><time>2022-10-29T08:51:29.057</time></trkpt><trkpt lat="55.7374883" lon="49.1644900"><time>2022-10-29T08:51:32.057</time></trkpt><trkpt lat="55.7375067" lon="49.1645700"><time>2022-10-29T08:51:36.040</time></trkpt><trkpt lat="55.7375267" lon="49.1646517"><time>2022-10-29T08:51:40.023</time></trkpt><trkpt lat="55.7375467" lon="49.1647300"><time>2022-10-29T08:51:44.047</time></trkpt><trkpt lat="55.7375733" lon="49.1648233"><time>2022-10-29T08:51:48.047</time></trkpt><trkpt lat="55.7375983" lon="49.1648950"><time>2022-10-29T08:51:51.053</time></trkpt><trkpt lat="55.7376317" lon="49.1649567"><time>2022-10-29T08:51:55.047</time></trkpt><trkpt lat="55.7376800" lon="49.1650400"><time>2022-10-29T08:51:58.053</time></trkpt><trkpt lat="55.7377050" lon="49.1651150"><time>2022-10-29T08:52:00.047</time></trkpt><trkpt lat="55.7377350" lon="49.1652117"><time>2022-10-29T08:52:02.057</time></trkpt><trkpt lat="55.7377633" lon="49.1653083"><time>2022-10-29T08:52:04.057</time></trkpt><trkpt lat="55.7378000" lon="49.1654100"><time>2022-10-29T08:52:06.060</time></trkpt><trkpt lat="55.7378433" lon="49.1655150"><time>2022-10-29T08:52:08.057</time></trkpt><trkpt lat="55.7378833" lon="49.1656217"><time>2022-10-29T08:52:10.043</time></trkpt><trkpt lat="55.7379233" lon="49.1657483"><time>2022-10-29T08:52:12.057</time></trkpt><trkpt lat="55.7379633" lon="49.1658633"><time>2022-10-29T08:52:14.057</time></trkpt><trkpt lat="55.7380050" lon="49.1659917"><time>2022-10-29T08:52:16.057</time></trkpt><trkpt lat="55.7380267" lon="49.1660633"><time>2022-10-29T08:52:17.053</time></trkpt><trkpt lat="55.7380517" lon="49.1661333"><time>2022-10-29T08:52:18.050</time></trkpt><trkpt lat="55.7380817" lon="49.1662317"><time>2022-10-29T08:52:20.057</time></trkpt><trkpt lat="55.7381133" lon="49.1663067"><time>2022-10-29T08:52:22.050</time></trkpt><trkpt lat="55.7381400" lon="49.1663717"><time>2022-10-29T08:52:24.057</time></trkpt><trkpt lat="55.7381767" lon="49.1664567"><time>2022-10-29T08:52:27.057</time></trkpt><trkpt lat="55.7382000" lon="49.1665400"><time>2022-10-29T08:52:29.057</time></trkpt><trkpt lat="55.7382450" lon="49.1666467"><time>2022-10-29T08:52:31.057</time></trkpt><trkpt lat="55.7382883" lon="49.1667717"><time>2022-10-29T08:52:33.057</time></trkpt><trkpt lat="55.7383233" lon="49.1669033"><time>2022-10-29T08:52:35.057</time></trkpt><trkpt lat="55.7383683" lon="49.1670383"><time>2022-10-29T08:52:37.060</time></trkpt><trkpt lat="55.7383900" lon="49.1671150"><time>2022-10-29T08:52:38.057</time></trkpt><trkpt lat="55.7384033" lon="49.1671950"><time>2022-10-29T08:52:39.057</time></trkpt><trkpt lat="55.7384100" lon="49.1672783"><time>2022-10-29T08:52:40.060</time></trkpt><trkpt lat="55.7384017" lon="49.1674300"><time>2022-10-29T08:52:42.057</time></trkpt><trkpt lat="55.7383767" lon="49.1675567"><time>2022-10-29T08:52:44.057</time></trkpt><trkpt lat="55.7383217" lon="49.1676300"><time>2022-10-29T08:52:46.057</time></trkpt><trkpt lat="55.7382717" lon="49.1677033"><time>2022-10-29T08:52:48.053</time></trkpt><trkpt lat="55.7382100" lon="49.1677833"><time>2022-10-29T08:52:50.060</time></trkpt><trkpt lat="55.7381517" lon="49.1678917"><time>2022-10-29T08:52:52.060</time></trkpt><trkpt lat="55.7380917" lon="49.1680183"><time>2022-10-29T08:52:54.057</time></trkpt><trkpt lat="55.7380700" lon="49.1680917"><time>2022-10-29T08:52:55.060</time></trkpt><trkpt lat="55.7380517" lon="49.1681667"><time>2022-10-29T08:52:56.060</time></trkpt><trkpt lat="55.7380417" lon="49.1683183"><time>2022-10-29T08:52:58.057</time></trkpt><trkpt lat="55.7380167" lon="49.1684467"><time>2022-10-29T08:53:00.057</time></trkpt><trkpt lat="55.7379717" lon="49.1685450"><time>2022-10-29T08:53:02.057</time></trkpt><trkpt lat="55.7379217" lon="49.1686383"><time>2022-10-29T08:53:04.057</time></trkpt><trkpt lat="55.7378683" lon="49.1687183"><time>2022-10-29T08:53:06.057</time></trkpt><trkpt lat="55.7378083" lon="49.1687767"><time>2022-10-29T08:53:08.057</time></trkpt><trkpt lat="55.7377467" lon="49.1688567"><time>2022-10-29T08:53:10.060</time></trkpt><trkpt lat="55.7376867" lon="49.1689267"><time>2022-10-29T08:53:12.060</time></trkpt><trkpt lat="55.7376250" lon="49.1690100"><time>2022-10-29T08:53:14.053</time></trkpt><trkpt lat="55.7375617" lon="49.1691033"><time>2022-10-29T08:53:16.060</time></trkpt><trkpt lat="55.7375000" lon="49.1691967"><time>2022-10-29T08:53:18.057</time></trkpt><trkpt lat="55.7374383" lon="49.1692917"><time>2022-10-29T08:53:20.057</time></trkpt><trkpt lat="55.7373850" lon="49.1693717"><time>2022-10-29T08:53:22.073</time></trkpt><trkpt lat="55.7373817" lon="49.1693767"><time>2022-10-29T08:53:23.557</time></trkpt><trkpt lat="55.7373433" lon="49.1694717"><time>2022-10-29T08:53:25.047</time></trkpt><trkpt lat="55.7373333" lon="49.1695533"><time>2022-10-29T08:53:26.050</time></trkpt><trkpt lat="55.7373117" lon="49.1696633"><time>2022-10-29T08:53:28.047</time></trkpt><trkpt lat="55.7372933" lon="49.1697517"><time>2022-10-29T08:53:29.043</time></trkpt><trkpt lat="55.7372683" lon="49.1698467"><time>2022-10-29T08:53:30.047</time></trkpt><trkpt lat="55.7372350" lon="49.1699250"><time>2022-10-29T08:53:31.047</time></trkpt><trkpt lat="55.7371917" lon="49.1700050"><time>2022-10-29T08:53:33.043</time></trkpt><trkpt lat="55.7371517" lon="49.1700667"><time>2022-10-29T08:53:34.047</time></trkpt><trkpt lat="55.7371000" lon="49.1701250"><time>2022-10-29T08:53:35.047</time></trkpt><trkpt lat="55.7370533" lon="49.1701767"><time>2022-10-29T08:53:36.050</time></trkpt><trkpt lat="55.7370067" lon="49.1702317"><time>2022-10-29T08:53:37.053</time></trkpt><trkpt lat="55.7369700" lon="49.1702883"><time>2022-10-29T08:53:38.050</time></trkpt><trkpt lat="55.7369167" lon="49.1704050"><time>2022-10-29T08:53:40.050</time></trkpt><trkpt lat="55.7368500" lon="49.1705083"><time>2022-10-29T08:53:42.047</time></trkpt><trkpt lat="55.7367933" lon="49.1705917"><time>2022-10-29T08:53:44.060</time></trkpt><trkpt lat="55.7367917" lon="49.1705933"><time>2022-10-29T08:53:45.037</time></trkpt><trkpt lat="55.7367383" lon="49.1706350"><time>2022-10-29T08:53:47.567</time></trkpt><trkpt lat="55.7366983" lon="49.1707000"><time>2022-10-29T08:53:49.047</time></trkpt><trkpt lat="55.7366567" lon="49.1708200"><time>2022-10-29T08:53:51.047</time></trkpt><trkpt lat="55.7365967" lon="49.1709417"><time>2022-10-29T08:53:53.013</time></trkpt><trkpt lat="55.7365517" lon="49.1710167"><time>2022-10-29T08:53:54.020</time></trkpt><trkpt lat="55.7365133" lon="49.1710817"><time>2022-10-29T08:53:55.027</time></trkpt><trkpt lat="55.7364700" lon="49.1711467"><time>2022-10-29T08:53:56.027</time></trkpt><trkpt lat="55.7364300" lon="49.1712050"><time>2022-10-29T08:53:57.030</time></trkpt><trkpt lat="55.7364283" lon="49.1712217"><time>2022-10-29T08:53:58.497</time></trkpt><trkpt lat="55.7364000" lon="49.1712883"><time>2022-10-29T08:54:00.030</time></trkpt><trkpt lat="55.7363533" lon="49.1713900"><time>2022-10-29T08:54:01.040</time></trkpt><trkpt lat="55.7363150" lon="49.1714683"><time>2022-10-29T08:54:02.040</time></trkpt><trkpt lat="55.7362800" lon="49.1715233"><time>2022-10-29T08:54:03.047</time></trkpt><trkpt lat="55.7362167" lon="49.1716100"><time>2022-10-29T08:54:05.063</time></trkpt><trkpt lat="55.7362167" lon="49.1716100"><time>2022-10-29T08:54:05.107</time></trkpt><trkpt lat="55.7361783" lon="49.1717000"><time>2022-10-29T08:54:07.057</time></trkpt><trkpt lat="55.7361783" lon="49.1717000"><time>2022-10-29T08:54:08</time></trkpt><trkpt lat="55.7361617" lon="49.1717900"><time>2022-10-29T08:54:09.543</time></trkpt><trkpt lat="55.7361550" lon="49.1718700"><time>2022-10-29T08:54:11.043</time></trkpt><trkpt lat="55.7361183" lon="49.1719450"><time>2022-10-29T08:54:13.043</time></trkpt><trkpt lat="55.7360800" lon="49.1720050"><time>2022-10-29T08:54:15.047</time></trkpt><trkpt lat="55.7360217" lon="49.1720917"><time>2022-10-29T08:54:17.043</time></trkpt><trkpt lat="55.7359667" lon="49.1721917"><time>2022-10-29T08:54:19.047</time></trkpt><trkpt lat="55.7359117" lon="49.1723033"><time>2022-10-29T08:54:21.047</time></trkpt><trkpt lat="55.7358567" lon="49.1724067"><time>2022-10-29T08:54:23.050</time></trkpt><trkpt lat="55.7358033" lon="49.1725333"><time>2022-10-29T08:54:25.047</time></trkpt><trkpt lat="55.7357417" lon="49.1726300"><time>2022-10-29T08:54:27.047</time></trkpt><trkpt lat="55.7356867" lon="49.1727167"><time>2022-10-29T08:54:29.047</time></trkpt><trkpt lat="55.7356450" lon="49.1728017"><time>2022-10-29T08:54:31.047</time></trkpt><trkpt lat="55.7355900" lon="49.1728733"><time>2022-10-29T08:54:33.047</time></trkpt><trkpt lat="55.7355183" lon="49.1729233"><time>2022-10-29T08:54:35.047</time></trkpt><trkpt lat="55.7354483" lon="49.1728367"><time>2022-10-29T08:54:37.057</time></trkpt><trkpt lat="55.7354083" lon="49.1727850"><time>2022-10-29T08:54:38.047</time></trkpt><trkpt lat="55.7353700" lon="49.1727317"><time>2022-10-29T08:54:39.057</time></trkpt><trkpt lat="55.7353300" lon="49.1726767"><time>2022-10-29T08:54:40.057</time></trkpt><trkpt lat="55.7352933" lon="49.1726233"><time>2022-10-29T08:54:41.057</time></trkpt><trkpt lat="55.7352567" lon="49.1725750"><time>2022-10-29T08:54:42.057</time></trkpt><trkpt lat="55.7352117" lon="49.1725283"><time>2022-10-29T08:54:43.057</time></trkpt><trkpt lat="55.7351367" lon="49.1724300"><time>2022-10-29T08:54:45.047</time></trkpt><trkpt lat="55.7350967" lon="49.1723717"><time>2022-10-29T08:54:46.053</time></trkpt><trkpt lat="55.7350517" lon="49.1723217"><time>2022-10-29T08:54:47.057</time></trkpt><trkpt lat="55.7350067" lon="49.1722717"><time>2022-10-29T08:54:48.057</time></trkpt><trkpt lat="55.7349467" lon="49.1722017"><time>2022-10-29T08:54:50.057</time></trkpt><trkpt lat="55.7348650" lon="49.1720700"><time>2022-10-29T08:54:52.053</time></trkpt><trkpt lat="55.7348083" lon="49.1719967"><time>2022-10-29T08:54:53.043</time></trkpt><trkpt lat="55.7347567" lon="49.1719233"><time>2022-10-29T08:54:54.053</time></trkpt><trkpt lat="55.7347067" lon="49.1717817"><time>2022-10-29T08:54:56.057</time></trkpt><trkpt lat="55.7346783" lon="49.1717133"><time>2022-10-29T08:54:57.057</time></trkpt><trkpt lat="55.7346217" lon="49.1716000"><time>2022-10-29T08:54:59.057</time></trkpt><trkpt lat="55.7345800" lon="49.1715383"><time>2022-10-29T08:55:00.043</time></trkpt><trkpt lat="55.7345300" lon="49.1714717"><time>2022-10-29T08:55:01.057</time></trkpt><trkpt lat="55.7344850" lon="49.1714000"><time>2022-10-29T08:55:02.057</time></trkpt><trkpt lat="55.7344350" lon="49.1713267"><time>2022-10-29T08:55:03.057</time></trkpt><trkpt lat="55.7343767" lon="49.1712450"><time>2022-10-29T08:55:04.053</time></trkpt><trkpt lat="55.7343250" lon="49.1711717"><time>2022-10-29T08:55:05.057</time></trkpt><trkpt lat="55.7342700" lon="49.1711000"><time>2022-10-29T08:55:06.053</time></trkpt><trkpt lat="55.7342167" lon="49.1710367"><time>2022-10-29T08:55:07.057</time></trkpt><trkpt lat="55.7341667" lon="49.1709850"><time>2022-10-29T08:55:08.057</time></trkpt><trkpt lat="55.7341183" lon="49.1709383"><time>2022-10-29T08:55:09.057</time></trkpt><trkpt lat="55.7340700" lon="49.1708800"><time>2022-10-29T08:55:10.057</time></trkpt><trkpt lat="55.7340133" lon="49.1708217"><time>2022-10-29T08:55:11.057</time></trkpt><trkpt lat="55.7339450" lon="49.1707650"><time>2022-10-29T08:55:12.057</time></trkpt><trkpt lat="55.7338733" lon="49.1706983"><time>2022-10-29T08:55:13.057</time></trkpt><trkpt lat="55.7338100" lon="49.1706383"><time>2022-10-29T08:55:14.043</time></trkpt><trkpt lat="55.7337533" lon="49.1705850"><time>2022-10-29T08:55:15.053</time></trkpt><trkpt lat="55.7336833" lon="49.1705483"><time>2022-10-29T08:55:16.053</time></trkpt><trkpt lat="55.7336217" lon="49.1705033"><time>2022-10-29T08:55:17.057</time></trkpt><trkpt lat="55.7335717" lon="49.1704550"><time>2022-10-29T08:55:18.057</time></trkpt><trkpt lat="55.7335233" lon="49.1704017"><time>2022-10-29T08:55:19.057</time></trkpt><trkpt lat="55.7334750" lon="49.1703450"><time>2022-10-29T08:55:20.057</time></trkpt><trkpt lat="55.7334217" lon="49.1702883"><time>2022-10-29T08:55:21.057</time></trkpt><trkpt lat="55.7333650" lon="49.1702333"><time>2022-10-29T08:55:22.053</time></trkpt><trkpt lat="55.7333217" lon="49.1701750"><time>2022-10-29T08:55:23.057</time></trkpt><trkpt lat="55.7332800" lon="49.1701100"><time>2022-10-29T08:55:24.053</time></trkpt><trkpt lat="55.7332400" lon="49.1700433"><time>2022-10-29T08:55:25.060</time></trkpt><trkpt lat="55.7332033" lon="49.1699800"><time>2022-10-29T08:55:26.053</time></trkpt><trkpt lat="55.7331617" lon="49.1699250"><time>2022-10-29T08:55:27.053</time></trkpt><trkpt lat="55.7331183" lon="49.1698733"><time>2022-10-29T08:55:28.057</time></trkpt><trkpt lat="55.7330767" lon="49.1698133"><time>2022-10-29T08:55:29.053</time></trkpt><trkpt lat="55.7330350" lon="49.1697550"><time>2022-10-29T08:55:30.057</time></trkpt><trkpt lat="55.7329917" lon="49.1696967"><time>2022-10-29T08:55:31.053</time></trkpt><trkpt lat="55.7329500" lon="49.1696433"><time>2022-10-29T08:55:32.057</time></trkpt><trkpt lat="55.7329117" lon="49.1695867"><time>2022-10-29T08:55:33.053</time></trkpt><trkpt lat="55.7328500" lon="49.1694850"><time>2022-10-29T08:55:35.057</time></trkpt><trkpt lat="55.7327983" lon="49.1693867"><time>2022-10-29T08:55:37.057</time></trkpt><trkpt lat="55.7327383" lon="49.1692817"><time>2022-10-29T08:55:39.057</time></trkpt><trkpt lat="55.7327017" lon="49.1692200"><time>2022-10-29T08:55:40.053</time></trkpt><trkpt lat="55.7326533" lon="49.1691700"><time>2022-10-29T08:55:41.057</time></trkpt><trkpt lat="55.7326000" lon="49.1691200"><time>2022-10-29T08:55:42.057</time></trkpt><trkpt lat="55.7325433" lon="49.1690733"><time>2022-10-29T08:55:43.053</time></trkpt><trkpt lat="55.7324900" lon="49.1690283"><time>2022-10-29T08:55:44.053</time></trkpt><trkpt lat="55.7324483" lon="49.1689867"><time>2022-10-29T08:55:45.057</time></trkpt><trkpt lat="55.7324083" lon="49.1689433"><time>2022-10-29T08:55:46.057</time></trkpt><trkpt lat="55.7323650" lon="49.1688967"><time>2022-10-29T08:55:47.057</time></trkpt><trkpt lat="55.7322883" lon="49.1688100"><time>2022-10-29T08:55:49.047</time></trkpt><trkpt lat="55.7322183" lon="49.1687150"><time>2022-10-29T08:55:51.053</time></trkpt><trkpt lat="55.7321817" lon="49.1686550"><time>2022-10-29T08:55:52.057</time></trkpt><trkpt lat="55.7321383" lon="49.1686067"><time>2022-10-29T08:55:53.053</time></trkpt><trkpt lat="55.7320983" lon="49.1685567"><time>2022-10-29T08:55:54.057</time></trkpt><trkpt lat="55.7320483" lon="49.1685017"><time>2022-10-29T08:55:55.053</time></trkpt><trkpt lat="55.7319950" lon="49.1684417"><time>2022-10-29T08:55:56.047</time></trkpt><trkpt lat="55.7319400" lon="49.1683867"><time>2022-10-29T08:55:57.057</time></trkpt><trkpt lat="55.7318867" lon="49.1683317"><time>2022-10-29T08:55:58.053</time></trkpt><trkpt lat="55.7318300" lon="49.1682850"><time>2022-10-29T08:55:59.053</time></trkpt><trkpt lat="55.7317817" lon="49.1682417"><time>2022-10-29T08:56:00.053</time></trkpt><trkpt lat="55.7317350" lon="49.1682000"><time>2022-10-29T08:56:01.057</time></trkpt><trkpt lat="55.7316867" lon="49.1681500"><time>2022-10-29T08:56:02.053</time></trkpt><trkpt lat="55.7316450" lon="49.1681000"><time>2022-10-29T08:56:03.053</time></trkpt><trkpt lat="55.7315967" lon="49.1680500"><time>2022-10-29T08:56:04.053</time></trkpt><trkpt lat="55.7315500" lon="49.1679967"><time>2022-10-29T08:56:05.053</time></trkpt><trkpt lat="55.7315083" lon="49.1679450"><time>2022-10-29T08:56:06.057</time></trkpt><trkpt lat="55.7314367" lon="49.1678617"><time>2022-10-29T08:56:08.047</time></trkpt><trkpt lat="55.7313650" lon="49.1677883"><time>2022-10-29T08:56:10.047</time></trkpt><trkpt lat="55.7313033" lon="49.1677117"><time>2022-10-29T08:56:12.053</time></trkpt><trkpt lat="55.7312367" lon="49.1676383"><time>2022-10-29T08:56:14.053</time></trkpt><trkpt lat="55.7311683" lon="49.1675633"><time>2022-10-29T08:56:16.053</time></trkpt><trkpt lat="55.7311333" lon="49.1675083"><time>2022-10-29T08:56:17.057</time></trkpt><trkpt lat="55.7310733" lon="49.1673883"><time>2022-10-29T08:56:19.057</time></trkpt><trkpt lat="55.7310367" lon="49.1673117"><time>2022-10-29T08:56:21.053</time></trkpt><trkpt lat="55.7309983" lon="49.1672100"><time>2022-10-29T08:56:23.053</time></trkpt><trkpt lat="55.7309433" lon="49.1671117"><time>2022-10-29T08:56:25.050</time></trkpt><trkpt lat="55.7308933" lon="49.1670450"><time>2022-10-29T08:56:27.057</time></trkpt><trkpt lat="55.7308417" lon="49.1669533"><time>2022-10-29T08:56:29.040</time></trkpt><trkpt lat="55.7307917" lon="49.1668850"><time>2022-10-29T08:56:31.057</time></trkpt><trkpt lat="55.7307400" lon="49.1668467"><time>2022-10-29T08:56:33.053</time></trkpt><trkpt lat="55.7306917" lon="49.1667983"><time>2022-10-29T08:56:35.050</time></trkpt><trkpt lat="55.7306450" lon="49.1667417"><time>2022-10-29T08:56:37.053</time></trkpt><trkpt lat="55.7305933" lon="49.1666650"><time>2022-10-29T08:56:39.057</time></trkpt><trkpt lat="55.7305300" lon="49.1665783"><time>2022-10-29T08:56:41.043</time></trkpt><trkpt lat="55.7304667" lon="49.1664717"><time>2022-10-29T08:56:43.053</time></trkpt><trkpt lat="55.7304267" lon="49.1664233"><time>2022-10-29T08:56:44.053</time></trkpt><trkpt lat="55.7303967" lon="49.1663617"><time>2022-10-29T08:56:45.047</time></trkpt><trkpt lat="55.7303517" lon="49.1662450"><time>2022-10-29T08:56:47.053</time></trkpt><trkpt lat="55.7303067" lon="49.1660983"><time>2022-10-29T08:56:49.057</time></trkpt><trkpt lat="55.7303067" lon="49.1660183"><time>2022-10-29T08:56:50.037</time></trkpt><trkpt lat="55.7303050" lon="49.1659250"><time>2022-10-29T08:56:51.057</time></trkpt><trkpt lat="55.7303083" lon="49.1658267"><time>2022-10-29T08:56:52.057</time></trkpt><trkpt lat="55.7303083" lon="49.1657167"><time>2022-10-29T08:56:53.060</time></trkpt><trkpt lat="55.7303067" lon="49.1656033"><time>2022-10-29T08:56:54.030</time></trkpt><trkpt lat="55.7303100" lon="49.1655033"><time>2022-10-29T08:56:55.043</time></trkpt><trkpt lat="55.7303100" lon="49.1653983"><time>2022-10-29T08:56:56.057</time></trkpt><trkpt lat="55.7303167" lon="49.1652933"><time>2022-10-29T08:56:57.057</time></trkpt><trkpt lat="55.7303283" lon="49.1651850"><time>2022-10-29T08:56:58.053</time></trkpt><trkpt lat="55.7303350" lon="49.1650783"><time>2022-10-29T08:56:59.057</time></trkpt><trkpt lat="55.7303400" lon="49.1649817"><time>2022-10-29T08:57:00.060</time></trkpt><trkpt lat="55.7303500" lon="49.1648733"><time>2022-10-29T08:57:02.057</time></trkpt><trkpt lat="55.7303383" lon="49.1649700"><time>2022-10-29T08:57:16.047</time></trkpt><trkpt lat="55.7303467" lon="49.1650533"><time>2022-10-29T08:57:18.060</time></trkpt><trkpt lat="55.7304083" lon="49.1650550"><time>2022-10-29T08:57:25.057</time></trkpt><trkpt lat="55.7304500" lon="49.1649350"><time>2022-10-29T08:57:28.057</time></trkpt><trkpt lat="55.7304933" lon="49.1648033"><time>2022-10-29T08:57:30.057</time></trkpt><trkpt lat="55.7305167" lon="49.1647250"><time>2022-10-29T08:57:31.053</time></trkpt><trkpt lat="55.7305467" lon="49.1646517"><time>2022-10-29T08:57:32.057</time></trkpt><trkpt lat="55.7305750" lon="49.1645767"><time>2022-10-29T08:57:33.060</time></trkpt><trkpt lat="55.7306033" lon="49.1644933"><time>2022-10-29T08:57:34.057</time></trkpt><trkpt lat="55.7306300" lon="49.1644133"><time>2022-10-29T08:57:35.053</time></trkpt><trkpt lat="55.7306617" lon="49.1643333"><time>2022-10-29T08:57:36.053</time></trkpt><trkpt lat="55.7306933" lon="49.1642417"><time>2022-10-29T08:57:37.060</time></trkpt><trkpt lat="55.7307217" lon="49.1641583"><time>2022-10-29T08:57:38.057</time></trkpt><trkpt lat="55.7307550" lon="49.1640217"><time>2022-10-29T08:57:40.057</time></trkpt><trkpt lat="55.7307367" lon="49.1638933"><time>2022-10-29T08:57:42.057</time></trkpt><trkpt lat="55.7306733" lon="49.1638150"><time>2022-10-29T08:57:44.057</time></trkpt><trkpt lat="55.7306233" lon="49.1637250"><time>2022-10-29T08:57:46.057</time></trkpt><trkpt lat="55.7306100" lon="49.1635900"><time>2022-10-29T08:57:48.057</time></trkpt><trkpt lat="55.7306150" lon="49.1634500"><time>2022-10-29T08:57:50.057</time></trkpt><trkpt lat="55.7306383" lon="49.1633167"><time>2022-10-29T08:57:52.057</time></trkpt><trkpt lat="55.7306550" lon="49.1632417"><time>2022-10-29T08:57:53.057</time></trkpt><trkpt lat="55.7306700" lon="49.1631567"><time>2022-10-29T08:57:54.057</time></trkpt><trkpt lat="55.7306783" lon="49.1630650"><time>2022-10-29T08:57:55.067</time></trkpt><trkpt lat="55.7306600" lon="49.1629867"><time>2022-10-29T08:57:56.007</time></trkpt><trkpt lat="55.7306650" lon="49.1629000"><time>2022-10-29T08:57:56.503</time></trkpt><trkpt lat="55.7306600" lon="49.1628150"><time>2022-10-29T08:57:57.543</time></trkpt><trkpt lat="55.7306483" lon="49.1626967"><time>2022-10-29T08:58:00.047</time></trkpt><trkpt lat="55.7306550" lon="49.1625717"><time>2022-10-29T08:58:03.047</time></trkpt><trkpt lat="55.7306550" lon="49.1624750"><time>2022-10-29T08:58:05.047</time></trkpt><trkpt lat="55.7306617" lon="49.1623767"><time>2022-10-29T08:58:07.040</time></trkpt><trkpt lat="55.7306550" lon="49.1622933"><time>2022-10-29T08:58:09.047</time></trkpt><trkpt lat="55.7306400" lon="49.1622117"><time>2022-10-29T08:58:15.037</time></trkpt><trkpt lat="55.7306433" lon="49.1621317"><time>2022-10-29T08:58:19.050</time></trkpt><trkpt lat="55.7306583" lon="49.1620367"><time>2022-10-29T08:58:23.047</time></trkpt><trkpt lat="55.7306433" lon="49.1619400"><time>2022-10-29T08:58:27.057</time></trkpt><trkpt lat="55.7306467" lon="49.1618467"><time>2022-10-29T08:58:30.057</time></trkpt><trkpt lat="55.7306583" lon="49.1617667"><time>2022-10-29T08:58:33.060</time></trkpt><trkpt lat="55.7306717" lon="49.1616767"><time>2022-10-29T08:58:36.057</time></trkpt><trkpt lat="55.7306700" lon="49.1615917"><time>2022-10-29T08:58:39.057</time></trkpt><trkpt lat="55.7306633" lon="49.1614983"><time>2022-10-29T08:58:42.067</time></trkpt><trkpt lat="55.7306617" lon="49.1615033"><time>2022-10-29T08:58:43.040</time></trkpt><trkpt lat="55.7306833" lon="49.1614217"><time>2022-10-29T08:58:45.547</time></trkpt><trkpt lat="55.7306800" lon="49.1613400"><time>2022-10-29T08:58:49.047</time></trkpt><trkpt lat="55.7306833" lon="49.1612333"><time>2022-10-29T08:58:52.047</time></trkpt><trkpt lat="55.7306850" lon="49.1611183"><time>2022-10-29T08:58:54.043</time></trkpt><trkpt lat="55.7306950" lon="49.1610083"><time>2022-10-29T08:58:56.047</time></trkpt><trkpt lat="55.7307000" lon="49.1608867"><time>2022-10-29T08:58:58.047</time></trkpt><trkpt lat="55.7307033" lon="49.1607700"><time>2022-10-29T08:59:00.047</time></trkpt><trkpt lat="55.7307017" lon="49.1606633"><time>2022-10-29T08:59:02.057</time></trkpt><trkpt lat="55.7307000" lon="49.1606783"><time>2022-10-29T08:59:03.033</time></trkpt><trkpt lat="55.7306850" lon="49.1605167"><time>2022-10-29T08:59:04.033</time></trkpt><trkpt lat="55.7306700" lon="49.1604100"><time>2022-10-29T08:59:05.050</time></trkpt><trkpt lat="55.7306633" lon="49.1602900"><time>2022-10-29T08:59:07.043</time></trkpt><trkpt lat="55.7306767" lon="49.1601950"><time>2022-10-29T08:59:09.053</time></trkpt><trkpt lat="55.7306767" lon="49.1601950"><time>2022-10-29T08:59:09.097</time></trkpt><trkpt lat="55.7306917" lon="49.1600917"><time>2022-10-29T08:59:11.057</time></trkpt><trkpt lat="55.7306900" lon="49.1601000"><time>2022-10-29T08:59:12.040</time></trkpt><trkpt lat="55.7306950" lon="49.1600200"><time>2022-10-29T08:59:13.037</time></trkpt><trkpt lat="55.7306967" lon="49.1599333"><time>2022-10-29T08:59:15.047</time></trkpt><trkpt lat="55.7306917" lon="49.1598350"><time>2022-10-29T08:59:17.050</time></trkpt><trkpt lat="55.7306717" lon="49.1597367"><time>2022-10-29T08:59:19.043</time></trkpt><trkpt lat="55.7306617" lon="49.1596033"><time>2022-10-29T08:59:21.043</time></trkpt><trkpt lat="55.7306583" lon="49.1594717"><time>2022-10-29T08:59:23.047</time></trkpt><trkpt lat="55.7306533" lon="49.1593267"><time>2022-10-29T08:59:25.047</time></trkpt><trkpt lat="55.7306500" lon="49.1591783"><time>2022-10-29T08:59:27.047</time></trkpt><trkpt lat="55.7306467" lon="49.1590383"><time>2022-10-29T08:59:29.047</time></trkpt><trkpt lat="55.7306433" lon="49.1589267"><time>2022-10-29T08:59:31.047</time></trkpt><trkpt lat="55.7306400" lon="49.1588367"><time>2022-10-29T08:59:33.047</time></trkpt><trkpt lat="55.7306167" lon="49.1587400"><time>2022-10-29T08:59:36.047</time></trkpt><trkpt lat="55.7305933" lon="49.1586433"><time>2022-10-29T08:59:39.047</time></trkpt><trkpt lat="55.7305633" lon="49.1585483"><time>2022-10-29T08:59:43.060</time></trkpt><trkpt lat="55.7305683" lon="49.1584533"><time>2022-10-29T08:59:45.047</time></trkpt><trkpt lat="55.7305817" lon="49.1583617"><time>2022-10-29T08:59:47.057</time></trkpt><trkpt lat="55.7305683" lon="49.1582850"><time>2022-10-29T08:59:51.057</time></trkpt><trkpt lat="55.7305417" lon="49.1581950"><time>2022-10-29T08:59:53.057</time></trkpt><trkpt lat="55.7305383" lon="49.1581033"><time>2022-10-29T08:59:55.057</time></trkpt><trkpt lat="55.7305500" lon="49.1580217"><time>2022-10-29T09:00:22.053</time></trkpt><trkpt lat="55.7305683" lon="49.1579150"><time>2022-10-29T09:00:25.053</time></trkpt><trkpt lat="55.7305917" lon="49.1577650"><time>2022-10-29T09:00:27.053</time></trkpt><trkpt lat="55.7306433" lon="49.1576400"><time>2022-10-29T09:00:29.057</time></trkpt><trkpt lat="55.7306600" lon="49.1575267"><time>2022-10-29T09:00:31.053</time></trkpt><trkpt lat="55.7306383" lon="49.1574050"><time>2022-10-29T09:00:33.053</time></trkpt><trkpt lat="55.7306200" lon="49.1572567"><time>2022-10-29T09:00:35.057</time></trkpt><trkpt lat="55.7306133" lon="49.1571667"><time>2022-10-29T09:00:36.060</time></trkpt><trkpt lat="55.7306133" lon="49.1570767"><time>2022-10-29T09:00:37.057</time></trkpt><trkpt lat="55.7306083" lon="49.1569717"><time>2022-10-29T09:00:38.060</time></trkpt><trkpt lat="55.7306067" lon="49.1568700"><time>2022-10-29T09:00:39.057</time></trkpt><trkpt lat="55.7306050" lon="49.1567717"><time>2022-10-29T09:00:40.057</time></trkpt><trkpt lat="55.7306017" lon="49.1566467"><time>2022-10-29T09:00:41.057</time></trkpt><trkpt lat="55.7306000" lon="49.1565500"><time>2022-10-29T09:00:42.057</time></trkpt><trkpt lat="55.7305967" lon="49.1564633"><time>2022-10-29T09:00:43.060</time></trkpt><trkpt lat="55.7305983" lon="49.1562950"><time>2022-10-29T09:00:45.057</time></trkpt><trkpt lat="55.7306000" lon="49.1562083"><time>2022-10-29T09:00:46.053</time></trkpt><trkpt lat="55.7306000" lon="49.1561200"><time>2022-10-29T09:00:47.053</time></trkpt><trkpt lat="55.7305967" lon="49.1560333"><time>2022-10-29T09:00:48.060</time></trkpt><trkpt lat="55.7305800" lon="49.1558767"><time>2022-10-29T09:00:50.053</time></trkpt><trkpt lat="55.7305733" lon="49.1557267"><time>2022-10-29T09:00:52.053</time></trkpt><trkpt lat="55.7305700" lon="49.1555783"><time>2022-10-29T09:00:54.053</time></trkpt><trkpt lat="55.7305700" lon="49.1554233"><time>2022-10-29T09:00:56.057</time></trkpt><trkpt lat="55.7305683" lon="49.1552817"><time>2022-10-29T09:00:58.057</time></trkpt><trkpt lat="55.7305633" lon="49.1551433"><time>2022-10-29T09:01:00.017</time></trkpt><trkpt lat="55.7305567" lon="49.1549983"><time>2022-10-29T09:01:02.053</time></trkpt><trkpt lat="55.7305550" lon="49.1548733"><time>2022-10-29T09:01:04.053</time></trkpt><trkpt lat="55.7305450" lon="49.1547183"><time>2022-10-29T09:01:06.053</time></trkpt><trkpt lat="55.7305450" lon="49.1546317"><time>2022-10-29T09:01:07.053</time></trkpt><trkpt lat="55.7305583" lon="49.1544783"><time>2022-10-29T09:01:09.053</time></trkpt><trkpt lat="55.7305733" lon="49.1543250"><time>2022-10-29T09:01:11.053</time></trkpt><trkpt lat="55.7305867" lon="49.1542483"><time>2022-10-29T09:01:12.043</time></trkpt><trkpt lat="55.7305950" lon="49.1541683"><time>2022-10-29T09:01:13.057</time></trkpt><trkpt lat="55.7305933" lon="49.1540217"><time>2022-10-29T09:01:15.057</time></trkpt><trkpt lat="55.7305867" lon="49.1538700"><time>2022-10-29T09:01:17.047</time></trkpt><trkpt lat="55.7305833" lon="49.1537550"><time>2022-10-29T09:01:19.053</time></trkpt><trkpt lat="55.7305983" lon="49.1536683"><time>2022-10-29T09:01:21.050</time></trkpt><trkpt lat="55.7306650" lon="49.1536817"><time>2022-10-29T09:01:23.033</time></trkpt><trkpt lat="55.7307383" lon="49.1537233"><time>2022-10-29T09:01:25.053</time></trkpt><trkpt lat="55.7307817" lon="49.1537500"><time>2022-10-29T09:01:26.057</time></trkpt><trkpt lat="55.7308267" lon="49.1537717"><time>2022-10-29T09:01:27.057</time></trkpt><trkpt lat="55.7308767" lon="49.1537967"><time>2022-10-29T09:01:28.057</time></trkpt><trkpt lat="55.7309300" lon="49.1538217"><time>2022-10-29T09:01:29.057</time></trkpt><trkpt lat="55.7309850" lon="49.1538500"><time>2022-10-29T09:01:30.053</time></trkpt><trkpt lat="55.7310333" lon="49.1538883"><time>2022-10-29T09:01:31.050</time></trkpt><trkpt lat="55.7310933" lon="49.1539200"><time>2022-10-29T09:01:32.057</time></trkpt><trkpt lat="55.7311500" lon="49.1539533"><time>2022-10-29T09:01:33.050</time></trkpt><trkpt lat="55.7312100" lon="49.1539917"><time>2022-10-29T09:01:34.050</time></trkpt><trkpt lat="55.7312667" lon="49.1540133"><time>2022-10-29T09:01:35.027</time></trkpt><trkpt lat="55.7313250" lon="49.1540333"><time>2022-10-29T09:01:36.050</time></trkpt><trkpt lat="55.7313683" lon="49.1540667"><time>2022-10-29T09:01:37.053</time></trkpt><trkpt lat="55.7314200" lon="49.1540917"><time>2022-10-29T09:01:38.057</time></trkpt><trkpt lat="55.7314700" lon="49.1541133"><time>2022-10-29T09:01:39.057</time></trkpt><trkpt lat="55.7315183" lon="49.1541300"><time>2022-10-29T09:01:40.053</time></trkpt><trkpt lat="55.7315717" lon="49.1541433"><time>2022-10-29T09:01:41.057</time></trkpt><trkpt lat="55.7316183" lon="49.1541617"><time>2022-10-29T09:01:42.053</time></trkpt><trkpt lat="55.7316733" lon="49.1541783"><time>2022-10-29T09:01:43.050</time></trkpt><trkpt lat="55.7317350" lon="49.1541800"><time>2022-10-29T09:01:44.053</time></trkpt><trkpt lat="55.7317883" lon="49.1541867"><time>2022-10-29T09:01:45.047</time></trkpt><trkpt lat="55.7318383" lon="49.1542000"><time>2022-10-29T09:01:46.050</time></trkpt><trkpt lat="55.7318917" lon="49.1542167"><time>2022-10-29T09:01:47.047</time></trkpt><trkpt lat="55.7319383" lon="49.1542433"><time>2022-10-29T09:01:48.053</time></trkpt><trkpt lat="55.7319900" lon="49.1542717"><time>2022-10-29T09:01:49.053</time></trkpt><trkpt lat="55.7320433" lon="49.1542983"><time>2022-10-29T09:01:50.053</time></trkpt><trkpt lat="55.7320967" lon="49.1543317"><time>2022-10-29T09:01:51.050</time></trkpt><trkpt lat="55.7321467" lon="49.1543550"><time>2022-10-29T09:01:52.053</time></trkpt><trkpt lat="55.7322033" lon="49.1543750"><time>2022-10-29T09:01:53.057</time></trkpt><trkpt lat="55.7322600" lon="49.1543933"><time>2022-10-29T09:01:54.030</time></trkpt><trkpt lat="55.7323183" lon="49.1544067"><time>2022-10-29T09:01:55.057</time></trkpt><trkpt lat="55.7323750" lon="49.1544250"><time>2022-10-29T09:01:56.057</time></trkpt><trkpt lat="55.7324317" lon="49.1544517"><time>2022-10-29T09:01:57.057</time></trkpt><trkpt lat="55.7324867" lon="49.1544800"><time>2022-10-29T09:01:58.053</time></trkpt><trkpt lat="55.7325433" lon="49.1545050"><time>2022-10-29T09:01:59.053</time></trkpt><trkpt lat="55.7326033" lon="49.1545283"><time>2022-10-29T09:02:00.053</time></trkpt><trkpt lat="55.7326850" lon="49.1545400"><time>2022-10-29T09:02:01.043</time></trkpt><trkpt lat="55.7327467" lon="49.1545683"><time>2022-10-29T09:02:02.053</time></trkpt><trkpt lat="55.7327983" lon="49.1546083"><time>2022-10-29T09:02:03.057</time></trkpt><trkpt lat="55.7328767" lon="49.1546300"><time>2022-10-29T09:02:04.047</time></trkpt><trkpt lat="55.7329467" lon="49.1546467"><time>2022-10-29T09:02:05.057</time></trkpt><trkpt lat="55.7330250" lon="49.1546700"><time>2022-10-29T09:02:06.053</time></trkpt><trkpt lat="55.7330983" lon="49.1546900"><time>2022-10-29T09:02:07.050</time></trkpt><trkpt lat="55.7331683" lon="49.1547167"><time>2022-10-29T09:02:08.053</time></trkpt><trkpt lat="55.7332167" lon="49.1547383"><time>2022-10-29T09:02:09.053</time></trkpt><trkpt lat="55.7332783" lon="49.1547617"><time>2022-10-29T09:02:10.053</time></trkpt><trkpt lat="55.7333383" lon="49.1547783"><time>2022-10-29T09:02:11.057</time></trkpt><trkpt lat="55.7334050" lon="49.1547883"><time>2022-10-29T09:02:12.057</time></trkpt><trkpt lat="55.7334683" lon="49.1548050"><time>2022-10-29T09:02:13.050</time></trkpt><trkpt lat="55.7335333" lon="49.1548317"><time>2022-10-29T09:02:14.040</time></trkpt><trkpt lat="55.7335933" lon="49.1548633"><time>2022-10-29T09:02:15.057</time></trkpt><trkpt lat="55.7336517" lon="49.1548883"><time>2022-10-29T09:02:16.057</time></trkpt><trkpt lat="55.7337100" lon="49.1549217"><time>2022-10-29T09:02:17.053</time></trkpt><trkpt lat="55.7337617" lon="49.1549267"><time>2022-10-29T09:02:18.057</time></trkpt><trkpt lat="55.7338133" lon="49.1549550"><time>2022-10-29T09:02:19.057</time></trkpt><trkpt lat="55.7338767" lon="49.1549867"><time>2022-10-29T09:02:20.057</time></trkpt><trkpt lat="55.7339317" lon="49.1550117"><time>2022-10-29T09:02:21.053</time></trkpt><trkpt lat="55.7339917" lon="49.1550400"><time>2022-10-29T09:02:22.053</time></trkpt><trkpt lat="55.7340500" lon="49.1550517"><time>2022-10-29T09:02:23.057</time></trkpt><trkpt lat="55.7341050" lon="49.1550683"><time>2022-10-29T09:02:24.053</time></trkpt><trkpt lat="55.7341567" lon="49.1550933"><time>2022-10-29T09:02:25.053</time></trkpt><trkpt lat="55.7342117" lon="49.1551017"><time>2022-10-29T09:02:26.057</time></trkpt><trkpt lat="55.7342633" lon="49.1551250"><time>2022-10-29T09:02:27.053</time></trkpt><trkpt lat="55.7343200" lon="49.1551467"><time>2022-10-29T09:02:28.053</time></trkpt><trkpt lat="55.7343717" lon="49.1551683"><time>2022-10-29T09:02:29.057</time></trkpt><trkpt lat="55.7344167" lon="49.1551717"><time>2022-10-29T09:02:30.053</time></trkpt><trkpt lat="55.7344650" lon="49.1551933"><time>2022-10-29T09:02:31.057</time></trkpt><trkpt lat="55.7345183" lon="49.1552100"><time>2022-10-29T09:02:32.057</time></trkpt><trkpt lat="55.7345650" lon="49.1552333"><time>2022-10-29T09:02:33.060</time></trkpt><trkpt lat="55.7346483" lon="49.1552617"><time>2022-10-29T09:02:35.053</time></trkpt><trkpt lat="55.7347050" lon="49.1552667"><time>2022-10-29T09:02:37.057</time></trkpt><trkpt lat="55.7347533" lon="49.1552117"><time>2022-10-29T09:02:39.033</time></trkpt><trkpt lat="55.7348167" lon="49.1550900"><time>2022-10-29T09:02:41.057</time></trkpt><trkpt lat="55.7348433" lon="49.1550117"><time>2022-10-29T09:02:42.057</time></trkpt><trkpt lat="55.7348733" lon="49.1549417"><time>2022-10-29T09:02:43.053</time></trkpt><trkpt lat="55.7348967" lon="49.1548683"><time>2022-10-29T09:02:44.057</time></trkpt><trkpt lat="55.7349217" lon="49.1547933"><time>2022-10-29T09:02:45.057</time></trkpt><trkpt lat="55.7349450" lon="49.1547033"><time>2022-10-29T09:02:46.053</time></trkpt><trkpt lat="55.7349717" lon="49.1546150"><time>2022-10-29T09:02:47.047</time></trkpt><trkpt lat="55.7349900" lon="49.1545300"><time>2022-10-29T09:02:48.057</time></trkpt><trkpt lat="55.7350167" lon="49.1544483"><time>2022-10-29T09:02:49.057</time></trkpt><trkpt lat="55.7350450" lon="49.1543650"><time>2022-10-29T09:02:50.057</time></trkpt><trkpt lat="55.7350750" lon="49.1542667"><time>2022-10-29T09:02:51.063</time></trkpt><trkpt lat="55.7352817" lon="49.1536700"><time>2022-10-29T09:02:52.040</time></trkpt><trkpt lat="55.7352533" lon="49.1537833"><time>2022-10-29T09:02:52.530</time></trkpt><trkpt lat="55.7352567" lon="49.1539800"><time>2022-10-29T09:02:53.023</time></trkpt><trkpt lat="55.7352250" lon="49.1538617"><time>2022-10-29T09:02:54.043</time></trkpt><trkpt lat="55.7352100" lon="49.1537650"><time>2022-10-29T09:02:55.043</time></trkpt><trkpt lat="55.7352150" lon="49.1536833"><time>2022-10-29T09:02:56.047</time></trkpt><trkpt lat="55.7352283" lon="49.1536033"><time>2022-10-29T09:02:57.047</time></trkpt><trkpt lat="55.7352467" lon="49.1535283"><time>2022-10-29T09:02:58.047</time></trkpt><trkpt lat="55.7352733" lon="49.1534367"><time>2022-10-29T09:02:59.047</time></trkpt><trkpt lat="55.7353033" lon="49.1533350"><time>2022-10-29T09:03:00.047</time></trkpt><trkpt lat="55.7353300" lon="49.1532350"><time>2022-10-29T09:03:01.047</time></trkpt><trkpt lat="55.7353550" lon="49.1531283"><time>2022-10-29T09:03:02.047</time></trkpt><trkpt lat="55.7353867" lon="49.1530300"><time>2022-10-29T09:03:03.047</time></trkpt><trkpt lat="55.7354183" lon="49.1529433"><time>2022-10-29T09:03:04.043</time></trkpt><trkpt lat="55.7354483" lon="49.1528533"><time>2022-10-29T09:03:05.047</time></trkpt><trkpt lat="55.7354767" lon="49.1527517"><time>2022-10-29T09:03:06.057</time></trkpt><trkpt lat="55.7354767" lon="49.1527550"><time>2022-10-29T09:03:07.523</time></trkpt><trkpt lat="55.7355267" lon="49.1526700"><time>2022-10-29T09:03:08.523</time></trkpt><trkpt lat="55.7355667" lon="49.1525267"><time>2022-10-29T09:03:09.520</time></trkpt><trkpt lat="55.7355750" lon="49.1523450"><time>2022-10-29T09:03:10.020</time></trkpt><trkpt lat="55.7355717" lon="49.1522483"><time>2022-10-29T09:03:11.023</time></trkpt><trkpt lat="55.7355933" lon="49.1521450"><time>2022-10-29T09:03:13.020</time></trkpt><trkpt lat="55.7356300" lon="49.1520167"><time>2022-10-29T09:03:15.057</time></trkpt><trkpt lat="55.7356300" lon="49.1520167"><time>2022-10-29T09:03:16.017</time></trkpt><trkpt lat="55.7356717" lon="49.1519233"><time>2022-10-29T09:03:17.540</time></trkpt><trkpt lat="55.7357050" lon="49.1518350"><time>2022-10-29T09:03:19.047</time></trkpt><trkpt lat="55.7357300" lon="49.1517550"><time>2022-10-29T09:03:22.047</time></trkpt><trkpt lat="55.7357867" lon="49.1517567"><time>2022-10-29T09:03:27.027</time></trkpt><trkpt lat="55.7357817" lon="49.1516583"><time>2022-10-29T09:03:38.053</time></trkpt><trkpt lat="55.7357817" lon="49.1516583"><time>2022-10-29T09:03:38.100</time></trkpt><trkpt lat="55.7358117" lon="49.1515867"><time>2022-10-29T09:03:42.057</time></trkpt><trkpt lat="55.7358117" lon="49.1515850"><time>2022-10-29T09:03:43.517</time></trkpt><trkpt lat="55.7358167" lon="49.1514983"><time>2022-10-29T09:03:46.043</time></trkpt><trkpt lat="55.7358550" lon="49.1514250"><time>2022-10-29T09:03:49.043</time></trkpt><trkpt lat="55.7358817" lon="49.1513433"><time>2022-10-29T09:03:52.043</time></trkpt><trkpt lat="55.7359217" lon="49.1512983"><time>2022-10-29T09:03:56.037</time></trkpt><trkpt lat="55.7359550" lon="49.1512367"><time>2022-10-29T09:04:00.047</time></trkpt><trkpt lat="55.7359850" lon="49.1511750"><time>2022-10-29T09:04:06.043</time></trkpt><trkpt lat="55.7360017" lon="49.1510917"><time>2022-10-29T09:04:09.047</time></trkpt><trkpt lat="55.7360117" lon="49.1509950"><time>2022-10-29T09:04:26.053</time></trkpt><trkpt lat="55.7360400" lon="49.1508967"><time>2022-10-29T09:04:29.053</time></trkpt><trkpt lat="55.7360733" lon="49.1508100"><time>2022-10-29T09:04:31.053</time></trkpt><trkpt lat="55.7361067" lon="49.1507167"><time>2022-10-29T09:04:33.057</time></trkpt><trkpt lat="55.7361350" lon="49.1506350"><time>2022-10-29T09:04:35.053</time></trkpt><trkpt lat="55.7361583" lon="49.1505433"><time>2022-10-29T09:04:37.057</time></trkpt><trkpt lat="55.7361783" lon="49.1504650"><time>2022-10-29T09:04:39.057</time></trkpt><trkpt lat="55.7362117" lon="49.1503800"><time>2022-10-29T09:04:43.053</time></trkpt><trkpt lat="55.7362517" lon="49.1503033"><time>2022-10-29T09:04:45.057</time></trkpt><trkpt lat="55.7362783" lon="49.1502033"><time>2022-10-29T09:04:47.053</time></trkpt><trkpt lat="55.7363183" lon="49.1500917"><time>2022-10-29T09:04:49.050</time></trkpt><trkpt lat="55.7363467" lon="49.1499783"><time>2022-10-29T09:04:51.057</time></trkpt><trkpt lat="55.7363783" lon="49.1498617"><time>2022-10-29T09:04:53.053</time></trkpt><trkpt lat="55.7363917" lon="49.1497400"><time>2022-10-29T09:04:55.057</time></trkpt><trkpt lat="55.7364033" lon="49.1496217"><time>2022-10-29T09:04:57.057</time></trkpt><trkpt lat="55.7364283" lon="49.1495050"><time>2022-10-29T09:04:59.057</time></trkpt><trkpt lat="55.7364650" lon="49.1493883"><time>2022-10-29T09:05:01.053</time></trkpt><trkpt lat="55.7365017" lon="49.1492767"><time>2022-10-29T09:05:03.057</time></trkpt><trkpt lat="55.7365333" lon="49.1491633"><time>2022-10-29T09:05:05.053</time></trkpt><trkpt lat="55.7365583" lon="49.1490367"><time>2022-10-29T09:05:07.057</time></trkpt><trkpt lat="55.7365950" lon="49.1489283"><time>2022-10-29T09:05:09.047</time></trkpt><trkpt lat="55.7366467" lon="49.1488600"><time>2022-10-29T09:05:11.057</time></trkpt><trkpt lat="55.7367200" lon="49.1488417"><time>2022-10-29T09:05:13.057</time></trkpt><trkpt lat="55.7368000" lon="49.1488450"><time>2022-10-29T09:05:15.057</time></trkpt><trkpt lat="55.7368450" lon="49.1488550"><time>2022-10-29T09:05:16.057</time></trkpt><trkpt lat="55.7368933" lon="49.1488667"><time>2022-10-29T09:05:17.057</time></trkpt><trkpt lat="55.7369417" lon="49.1488733"><time>2022-10-29T09:05:18.053</time></trkpt><trkpt lat="55.7369900" lon="49.1488783"><time>2022-10-29T09:05:19.053</time></trkpt><trkpt lat="55.7370417" lon="49.1488883"><time>2022-10-29T09:05:20.047</time></trkpt><trkpt lat="55.7370967" lon="49.1489067"><time>2022-10-29T09:05:21.057</time></trkpt><trkpt lat="55.7371533" lon="49.1489217"><time>2022-10-29T09:05:22.057</time></trkpt><trkpt lat="55.7372067" lon="49.1489467"><time>2022-10-29T09:05:23.053</time></trkpt><trkpt lat="55.7372600" lon="49.1489750"><time>2022-10-29T09:05:24.057</time></trkpt><trkpt lat="55.7373150" lon="49.1490183"><time>2022-10-29T09:05:25.043</time></trkpt><trkpt lat="55.7373733" lon="49.1490517"><time>2022-10-29T09:05:26.053</time></trkpt><trkpt lat="55.7374333" lon="49.1490833"><time>2022-10-29T09:05:27.053</time></trkpt><trkpt lat="55.7374917" lon="49.1491133"><time>2022-10-29T09:05:28.053</time></trkpt><trkpt lat="55.7375500" lon="49.1491450"><time>2022-10-29T09:05:29.057</time></trkpt><trkpt lat="55.7376117" lon="49.1491767"><time>2022-10-29T09:05:30.053</time></trkpt><trkpt lat="55.7376733" lon="49.1492000"><time>2022-10-29T09:05:31.053</time></trkpt><trkpt lat="55.7377333" lon="49.1492217"><time>2022-10-29T09:05:32.057</time></trkpt><trkpt lat="55.7377917" lon="49.1492350"><time>2022-10-29T09:05:33.053</time></trkpt><trkpt lat="55.7378500" lon="49.1492583"><time>2022-10-29T09:05:34.057</time></trkpt><trkpt lat="55.7379067" lon="49.1492917"><time>2022-10-29T09:05:35.057</time></trkpt><trkpt lat="55.7379600" lon="49.1493300"><time>2022-10-29T09:05:36.057</time></trkpt><trkpt lat="55.7380167" lon="49.1493633"><time>2022-10-29T09:05:37.053</time></trkpt><trkpt lat="55.7380733" lon="49.1494000"><time>2022-10-29T09:05:38.057</time></trkpt><trkpt lat="55.7381283" lon="49.1494417"><time>2022-10-29T09:05:39.053</time></trkpt><trkpt lat="55.7381833" lon="49.1494783"><time>2022-10-29T09:05:40.050</time></trkpt><trkpt lat="55.7382367" lon="49.1495167"><time>2022-10-29T09:05:41.057</time></trkpt><trkpt lat="55.7382967" lon="49.1495550"><time>2022-10-29T09:05:42.053</time></trkpt><trkpt lat="55.7383517" lon="49.1495967"><time>2022-10-29T09:05:43.043</time></trkpt><trkpt lat="55.7384083" lon="49.1496350"><time>2022-10-29T09:05:44.053</time></trkpt><trkpt lat="55.7384667" lon="49.1496750"><time>2022-10-29T09:05:45.043</time></trkpt><trkpt lat="55.7385200" lon="49.1497217"><time>2022-10-29T09:05:46.057</time></trkpt><trkpt lat="55.7385700" lon="49.1497900"><time>2022-10-29T09:05:47.053</time></trkpt><trkpt lat="55.7386150" lon="49.1498483"><time>2022-10-29T09:05:48.050</time></trkpt><trkpt lat="55.7386650" lon="49.1499050"><time>2022-10-29T09:05:49.057</time></trkpt><trkpt lat="55.7387200" lon="49.1499583"><time>2022-10-29T09:05:50.057</time></trkpt><trkpt lat="55.7387800" lon="49.1500033"><time>2022-10-29T09:05:51.057</time></trkpt><trkpt lat="55.7388267" lon="49.1500617"><time>2022-10-29T09:05:52.043</time></trkpt><trkpt lat="55.7388700" lon="49.1501133"><time>2022-10-29T09:05:53.057</time></trkpt><trkpt lat="55.7389133" lon="49.1501667"><time>2022-10-29T09:05:54.053</time></trkpt><trkpt lat="55.7389700" lon="49.1502167"><time>2022-10-29T09:05:55.057</time></trkpt><trkpt lat="55.7390100" lon="49.1502667"><time>2022-10-29T09:05:56.053</time></trkpt><trkpt lat="55.7390583" lon="49.1503150"><time>2022-10-29T09:05:57.053</time></trkpt><trkpt lat="55.7391050" lon="49.1503617"><time>2022-10-29T09:05:58.053</time></trkpt><trkpt lat="55.7391583" lon="49.1504000"><time>2022-10-29T09:05:59.050</time></trkpt><trkpt lat="55.7392033" lon="49.1504333"><time>2022-10-29T09:06:00.053</time></trkpt><trkpt lat="55.7392567" lon="49.1504750"><time>2022-10-29T09:06:01.053</time></trkpt><trkpt lat="55.7393083" lon="49.1505133"><time>2022-10-29T09:06:02.053</time></trkpt><trkpt lat="55.7393617" lon="49.1505400"><time>2022-10-29T09:06:03.057</time></trkpt><trkpt lat="55.7394250" lon="49.1505417"><time>2022-10-29T09:06:04.053</time></trkpt><trkpt lat="55.7394883" lon="49.1505600"><time>2022-10-29T09:06:05.057</time></trkpt><trkpt lat="55.7395400" lon="49.1505917"><time>2022-10-29T09:06:06.053</time></trkpt><trkpt lat="55.7395867" lon="49.1506050"><time>2022-10-29T09:06:07.057</time></trkpt><trkpt lat="55.7396383" lon="49.1506267"><time>2022-10-29T09:06:08.057</time></trkpt><trkpt lat="55.7396900" lon="49.1506650"><time>2022-10-29T09:06:09.057</time></trkpt><trkpt lat="55.7397383" lon="49.1507050"><time>2022-10-29T09:06:10.053</time></trkpt><trkpt lat="55.7397833" lon="49.1507483"><time>2022-10-29T09:06:11.053</time></trkpt><trkpt lat="55.7398250" lon="49.1507983"><time>2022-10-29T09:06:12.053</time></trkpt><trkpt lat="55.7398917" lon="49.1508867"><time>2022-10-29T09:06:14.057</time></trkpt><trkpt lat="55.7399683" lon="49.1509567"><time>2022-10-29T09:06:16.050</time></trkpt><trkpt lat="55.7400533" lon="49.1509883"><time>2022-10-29T09:06:18.053</time></trkpt><trkpt lat="55.7401400" lon="49.1510217"><time>2022-10-29T09:06:20.057</time></trkpt><trkpt lat="55.7402217" lon="49.1510450"><time>2022-10-29T09:06:22.053</time></trkpt><trkpt lat="55.7402883" lon="49.1510533"><time>2022-10-29T09:06:24.053</time></trkpt><trkpt lat="55.7403467" lon="49.1510300"><time>2022-10-29T09:06:26.050</time></trkpt><trkpt lat="55.7404083" lon="49.1509700"><time>2022-10-29T09:06:36.053</time></trkpt><trkpt lat="55.7404733" lon="49.1509250"><time>2022-10-29T09:06:39.057</time></trkpt><trkpt lat="55.7405317" lon="49.1509317"><time>2022-10-29T09:06:41.053</time></trkpt><trkpt lat="55.7406150" lon="49.1509250"><time>2022-10-29T09:06:43.057</time></trkpt><trkpt lat="55.7407017" lon="49.1509283"><time>2022-10-29T09:06:45.053</time></trkpt><trkpt lat="55.7407917" lon="49.1509333"><time>2022-10-29T09:06:47.053</time></trkpt><trkpt lat="55.7408733" lon="49.1509433"><time>2022-10-29T09:06:49.053</time></trkpt><trkpt lat="55.7409533" lon="49.1509817"><time>2022-10-29T09:06:51.057</time></trkpt><trkpt lat="55.7409967" lon="49.1510067"><time>2022-10-29T09:06:52.053</time></trkpt><trkpt lat="55.7410450" lon="49.1510183"><time>2022-10-29T09:06:53.047</time></trkpt><trkpt lat="55.7410900" lon="49.1510133"><time>2022-10-29T09:06:54.053</time></trkpt><trkpt lat="55.7411417" lon="49.1510133"><time>2022-10-29T09:06:55.050</time></trkpt><trkpt lat="55.7411917" lon="49.1510050"><time>2022-10-29T09:06:56.053</time></trkpt><trkpt lat="55.7412400" lon="49.1510083"><time>2022-10-29T09:06:57.053</time></trkpt><trkpt lat="55.7412883" lon="49.1510067"><time>2022-10-29T09:06:58.053</time></trkpt><trkpt lat="55.7413650" lon="49.1509717"><time>2022-10-29T09:07:00.057</time></trkpt><trkpt lat="55.7414183" lon="49.1509700"><time>2022-10-29T09:07:01.053</time></trkpt><trkpt lat="55.7414633" lon="49.1509750"><time>2022-10-29T09:07:02.060</time></trkpt><trkpt lat="55.7415100" lon="49.1509883"><time>2022-10-29T09:07:03.057</time></trkpt><trkpt lat="55.7415933" lon="49.1509917"><time>2022-10-29T09:07:05.057</time></trkpt><trkpt lat="55.7416833" lon="49.1509983"><time>2022-10-29T09:07:07.057</time></trkpt><trkpt lat="55.7417700" lon="49.1510183"><time>2022-10-29T09:07:09.053</time></trkpt><trkpt lat="55.7418133" lon="49.1510400"><time>2022-10-29T09:07:10.063</time></trkpt><trkpt lat="55.7418550" lon="49.1509333"><time>2022-10-29T09:07:11.037</time></trkpt><trkpt lat="55.7419117" lon="49.1508850"><time>2022-10-29T09:07:11.513</time></trkpt><trkpt lat="55.7419667" lon="49.1509000"><time>2022-10-29T09:07:12.033</time></trkpt><trkpt lat="55.7420333" lon="49.1509517"><time>2022-10-29T09:07:13.043</time></trkpt><trkpt lat="55.7420817" lon="49.1510083"><time>2022-10-29T09:07:15.043</time></trkpt><trkpt lat="55.7421450" lon="49.1510750"><time>2022-10-29T09:07:17.037</time></trkpt><trkpt lat="55.7422267" lon="49.1511433"><time>2022-10-29T09:07:19.043</time></trkpt><trkpt lat="55.7422683" lon="49.1511983"><time>2022-10-29T09:07:20.043</time></trkpt><trkpt lat="55.7423133" lon="49.1512300"><time>2022-10-29T09:07:21.043</time></trkpt><trkpt lat="55.7423617" lon="49.1512600"><time>2022-10-29T09:07:22.050</time></trkpt><trkpt lat="55.7424033" lon="49.1512900"><time>2022-10-29T09:07:23.047</time></trkpt><trkpt lat="55.7424883" lon="49.1513350"><time>2022-10-29T09:07:25.047</time></trkpt><trkpt lat="55.7425750" lon="49.1513883"><time>2022-10-29T09:07:27.047</time></trkpt><trkpt lat="55.7426200" lon="49.1514133"><time>2022-10-29T09:07:28.047</time></trkpt><trkpt lat="55.7426650" lon="49.1514283"><time>2022-10-29T09:07:29.020</time></trkpt><trkpt lat="55.7427100" lon="49.1514433"><time>2022-10-29T09:07:30.040</time></trkpt><trkpt lat="55.7427550" lon="49.1514583"><time>2022-10-29T09:07:31.047</time></trkpt><trkpt lat="55.7427983" lon="49.1514833"><time>2022-10-29T09:07:32.057</time></trkpt><trkpt lat="55.7427967" lon="49.1514833"><time>2022-10-29T09:07:33.030</time></trkpt><trkpt lat="55.7428400" lon="49.1515267"><time>2022-10-29T09:07:34.547</time></trkpt><trkpt lat="55.7429033" lon="49.1515700"><time>2022-10-29T09:07:35.550</time></trkpt><trkpt lat="55.7429967" lon="49.1515917"><time>2022-10-29T09:07:37.043</time></trkpt><trkpt lat="55.7430733" lon="49.1515917"><time>2022-10-29T09:07:39.047</time></trkpt><trkpt lat="55.7431433" lon="49.1516033"><time>2022-10-29T09:07:41.047</time></trkpt><trkpt lat="55.7432100" lon="49.1516350"><time>2022-10-29T09:07:43.047</time></trkpt><trkpt lat="55.7432550" lon="49.1517050"><time>2022-10-29T09:07:45.013</time></trkpt><trkpt lat="55.7432617" lon="49.1518283"><time>2022-10-29T09:07:47.043</time></trkpt><trkpt lat="55.7432700" lon="49.1519483"><time>2022-10-29T09:07:49.047</time></trkpt><trkpt lat="55.7432650" lon="49.1520533"><time>2022-10-29T09:07:51.057</time></trkpt><trkpt lat="55.7432833" lon="49.1520667"><time>2022-10-29T09:07:52.533</time></trkpt><trkpt lat="55.7433500" lon="49.1521783"><time>2022-10-29T09:07:53.547</time></trkpt><trkpt lat="55.7433283" lon="49.1522717"><time>2022-10-29T09:07:55.040</time></trkpt><trkpt lat="55.7433050" lon="49.1523767"><time>2022-10-29T09:07:58.047</time></trkpt><trkpt lat="55.7432833" lon="49.1524667"><time>2022-10-29T09:08:00.053</time></trkpt><trkpt lat="55.7432833" lon="49.1524667"><time>2022-10-29T09:08:00.093</time></trkpt><trkpt lat="55.7432600" lon="49.1525500"><time>2022-10-29T09:08:02.060</time></trkpt><trkpt lat="55.7432567" lon="49.1525833"><time>2022-10-29T09:08:03.540</time></trkpt><trkpt lat="55.7433000" lon="49.1526067"><time>2022-10-29T09:08:10.050</time></trkpt><trkpt lat="55.7432967" lon="49.1525200"><time>2022-10-29T09:08:16.040</time></trkpt><trkpt lat="55.7432933" lon="49.1524217"><time>2022-10-29T09:08:20.050</time></trkpt><trkpt lat="55.7433067" lon="49.1523367"><time>2022-10-29T09:08:22.227</time></trkpt><trkpt lat="55.7433517" lon="49.1521650"><time>2022-10-29T09:08:24.037</time></trkpt><trkpt lat="55.7433683" lon="49.1520650"><time>2022-10-29T09:08:25.007</time></trkpt><trkpt lat="55.7433217" lon="49.1519500"><time>2022-10-29T09:08:28.037</time></trkpt><trkpt lat="55.7432583" lon="49.1518167"><time>2022-10-29T09:08:30.047</time></trkpt><trkpt lat="55.7432200" lon="49.1517617"><time>2022-10-29T09:08:31.047</time></trkpt><trkpt lat="55.7432317" lon="49.1516767"><time>2022-10-29T09:08:33.053</time></trkpt><trkpt lat="55.7432550" lon="49.1515883"><time>2022-10-29T09:08:34.060</time></trkpt><trkpt lat="55.7432767" lon="49.1515067"><time>2022-10-29T09:08:35.057</time></trkpt><trkpt lat="55.7432917" lon="49.1514150"><time>2022-10-29T09:08:36.057</time></trkpt><trkpt lat="55.7433000" lon="49.1513233"><time>2022-10-29T09:08:37.057</time></trkpt><trkpt lat="55.7433050" lon="49.1512333"><time>2022-10-29T09:08:38.060</time></trkpt><trkpt lat="55.7433067" lon="49.1511500"><time>2022-10-29T09:08:39.113</time></trkpt><trkpt lat="55.7432983" lon="49.1510567"><time>2022-10-29T09:08:40.057</time></trkpt><trkpt lat="55.7432817" lon="49.1509683"><time>2022-10-29T09:08:41.057</time></trkpt><trkpt lat="55.7432583" lon="49.1508850"><time>2022-10-29T09:08:42.060</time></trkpt><trkpt lat="55.7432317" lon="49.1508067"><time>2022-10-29T09:08:43.057</time></trkpt><trkpt lat="55.7432083" lon="49.1507267"><time>2022-10-29T09:08:44.057</time></trkpt><trkpt lat="55.7431950" lon="49.1506483"><time>2022-10-29T09:08:45.057</time></trkpt><trkpt lat="55.7431867" lon="49.1505117"><time>2022-10-29T09:08:47.060</time></trkpt><trkpt lat="55.7431833" lon="49.1503733"><time>2022-10-29T09:08:49.060</time></trkpt><trkpt lat="55.7431817" lon="49.1502483"><time>2022-10-29T09:08:51.027</time></trkpt><trkpt lat="55.7431800" lon="49.1501117"><time>2022-10-29T09:08:53.053</time></trkpt><trkpt lat="55.7431717" lon="49.1499983"><time>2022-10-29T09:08:55.057</time></trkpt><trkpt lat="55.7431833" lon="49.1498567"><time>2022-10-29T09:08:57.053</time></trkpt><trkpt lat="55.7431933" lon="49.1497317"><time>2022-10-29T09:08:59.047</time></trkpt><trkpt lat="55.7432117" lon="49.1496067"><time>2022-10-29T09:09:01.047</time></trkpt><trkpt lat="55.7432367" lon="49.1494867"><time>2022-10-29T09:09:03.060</time></trkpt><trkpt lat="55.7432617" lon="49.1493650"><time>2022-10-29T09:09:05.060</time></trkpt><trkpt lat="55.7432933" lon="49.1492483"><time>2022-10-29T09:09:07.057</time></trkpt><trkpt lat="55.7433167" lon="49.1491683"><time>2022-10-29T09:09:08.060</time></trkpt><trkpt lat="55.7433400" lon="49.1490917"><time>2022-10-29T09:09:09.060</time></trkpt><trkpt lat="55.7433700" lon="49.1490250"><time>2022-10-29T09:09:10.060</time></trkpt><trkpt lat="55.7434250" lon="49.1488967"><time>2022-10-29T09:09:12.057</time></trkpt><trkpt lat="55.7434483" lon="49.1488233"><time>2022-10-29T09:09:13.053</time></trkpt><trkpt lat="55.7434717" lon="49.1486867"><time>2022-10-29T09:09:15.060</time></trkpt><trkpt lat="55.7434933" lon="49.1485533"><time>2022-10-29T09:09:17.057</time></trkpt><trkpt lat="55.7435117" lon="49.1484617"><time>2022-10-29T09:09:18.060</time></trkpt><trkpt lat="55.7435450" lon="49.1483067"><time>2022-10-29T09:09:20.043</time></trkpt><trkpt lat="55.7435617" lon="49.1482317"><time>2022-10-29T09:09:21.060</time></trkpt><trkpt lat="55.7435833" lon="49.1481050"><time>2022-10-29T09:09:23.060</time></trkpt><trkpt lat="55.7436033" lon="49.1479600"><time>2022-10-29T09:09:25.057</time></trkpt><trkpt lat="55.7436167" lon="49.1478817"><time>2022-10-29T09:09:26.050</time></trkpt><trkpt lat="55.7436317" lon="49.1478050"><time>2022-10-29T09:09:27.060</time></trkpt><trkpt lat="55.7436500" lon="49.1476533"><time>2022-10-29T09:09:29.057</time></trkpt><trkpt lat="55.7436583" lon="49.1475750"><time>2022-10-29T09:09:30.057</time></trkpt><trkpt lat="55.7436567" lon="49.1474950"><time>2022-10-29T09:09:31.060</time></trkpt><trkpt lat="55.7436450" lon="49.1473617"><time>2022-10-29T09:09:33.057</time></trkpt><trkpt lat="55.7436333" lon="49.1472217"><time>2022-10-29T09:09:35.057</time></trkpt><trkpt lat="55.7436183" lon="49.1471350"><time>2022-10-29T09:09:37.057</time></trkpt><trkpt lat="55.7435733" lon="49.1470967"><time>2022-10-29T09:09:39.047</time></trkpt><trkpt lat="55.7435183" lon="49.1470250"><time>2022-10-29T09:09:41.053</time></trkpt><trkpt lat="55.7434900" lon="49.1468967"><time>2022-10-29T09:09:43.053</time></trkpt><trkpt lat="55.7434700" lon="49.1467533"><time>2022-10-29T09:09:45.057</time></trkpt><trkpt lat="55.7434650" lon="49.1466667"><time>2022-10-29T09:09:46.027</time></trkpt><trkpt lat="55.7434567" lon="49.1465850"><time>2022-10-29T09:09:47.057</time></trkpt><trkpt lat="55.7434567" lon="49.1465050"><time>2022-10-29T09:09:48.057</time></trkpt><trkpt lat="55.7434483" lon="49.1464267"><time>2022-10-29T09:09:49.053</time></trkpt><trkpt lat="55.7434433" lon="49.1463417"><time>2022-10-29T09:09:50.043</time></trkpt><trkpt lat="55.7434267" lon="49.1461767"><time>2022-10-29T09:09:52.057</time></trkpt><trkpt lat="55.7434183" lon="49.1460933"><time>2022-10-29T09:09:53.067</time></trkpt><trkpt lat="55.7434183" lon="49.1460933"><time>2022-10-29T09:09:54.043</time></trkpt><trkpt lat="55.7434150" lon="49.1460133"><time>2022-10-29T09:09:55.547</time></trkpt><trkpt lat="55.7434067" lon="49.1458850"><time>2022-10-29T09:09:56.550</time></trkpt><trkpt lat="55.7433917" lon="49.1457583"><time>2022-10-29T09:09:58.047</time></trkpt><trkpt lat="55.7433817" lon="49.1456767"><time>2022-10-29T09:09:59.047</time></trkpt><trkpt lat="55.7433683" lon="49.1455900"><time>2022-10-29T09:10:00.043</time></trkpt><trkpt lat="55.7433633" lon="49.1454883"><time>2022-10-29T09:10:01.027</time></trkpt><trkpt lat="55.7433483" lon="49.1453117"><time>2022-10-29T09:10:03.043</time></trkpt><trkpt lat="55.7433333" lon="49.1452167"><time>2022-10-29T09:10:04.043</time></trkpt><trkpt lat="55.7433067" lon="49.1450883"><time>2022-10-29T09:10:06.043</time></trkpt><trkpt lat="55.7432883" lon="49.1449817"><time>2022-10-29T09:10:08.047</time></trkpt><trkpt lat="55.7432617" lon="49.1448733"><time>2022-10-29T09:10:10.047</time></trkpt><trkpt lat="55.7432317" lon="49.1448133"><time>2022-10-29T09:10:12.043</time></trkpt><trkpt lat="55.7431733" lon="49.1447600"><time>2022-10-29T09:10:14.047</time></trkpt><trkpt lat="55.7431033" lon="49.1447117"><time>2022-10-29T09:10:16.047</time></trkpt><trkpt lat="55.7430417" lon="49.1446633"><time>2022-10-29T09:10:18.057</time></trkpt><trkpt lat="55.7430417" lon="49.1446633"><time>2022-10-29T09:10:19.037</time></trkpt><trkpt lat="55.7430317" lon="49.1445783"><time>2022-10-29T09:10:20.533</time></trkpt><trkpt lat="55.7430033" lon="49.1445017"><time>2022-10-29T09:10:22.047</time></trkpt><trkpt lat="55.7430067" lon="49.1444133"><time>2022-10-29T09:10:24.047</time></trkpt><trkpt lat="55.7430067" lon="49.1443250"><time>2022-10-29T09:10:26.047</time></trkpt><trkpt lat="55.7430150" lon="49.1442200"><time>2022-10-29T09:10:36.043</time></trkpt><trkpt lat="55.7430183" lon="49.1441350"><time>2022-10-29T09:10:38.047</time></trkpt><trkpt lat="55.7430200" lon="49.1440433"><time>2022-10-29T09:10:40.043</time></trkpt><trkpt lat="55.7430250" lon="49.1439533"><time>2022-10-29T09:10:42.047</time></trkpt><trkpt lat="55.7429933" lon="49.1438567"><time>2022-10-29T09:10:45.047</time></trkpt><trkpt lat="55.7429367" lon="49.1438283"><time>2022-10-29T09:10:48.053</time></trkpt><trkpt lat="55.7428783" lon="49.1438117"><time>2022-10-29T09:10:50.067</time></trkpt><trkpt lat="55.7428783" lon="49.1438117"><time>2022-10-29T09:10:51.047</time></trkpt><trkpt lat="55.7428300" lon="49.1437800"><time>2022-10-29T09:10:53.043</time></trkpt><trkpt lat="55.7427633" lon="49.1437617"><time>2022-10-29T09:10:55.047</time></trkpt><trkpt lat="55.7426750" lon="49.1437333"><time>2022-10-29T09:10:57.047</time></trkpt><trkpt lat="55.7426267" lon="49.1436667"><time>2022-10-29T09:10:59.047</time></trkpt><trkpt lat="55.7426233" lon="49.1435767"><time>2022-10-29T09:11:01.057</time></trkpt><trkpt lat="55.7426233" lon="49.1435767"><time>2022-10-29T09:11:01.147</time></trkpt><trkpt lat="55.7426183" lon="49.1434600"><time>2022-10-29T09:11:04.057</time></trkpt><trkpt lat="55.7426183" lon="49.1434600"><time>2022-10-29T09:11:05.517</time></trkpt><trkpt lat="55.7426233" lon="49.1433667"><time>2022-10-29T09:11:09.043</time></trkpt><trkpt lat="55.7426300" lon="49.1432633"><time>2022-10-29T09:11:13.047</time></trkpt><trkpt lat="55.7426600" lon="49.1431967"><time>2022-10-29T09:11:25.043</time></trkpt><trkpt lat="55.7426633" lon="49.1432833"><time>2022-10-29T09:11:56.053</time></trkpt><trkpt lat="55.7426583" lon="49.1433833"><time>2022-10-29T09:11:58.053</time></trkpt><trkpt lat="55.7426567" lon="49.1434950"><time>2022-10-29T09:12:00.057</time></trkpt><trkpt lat="55.7426517" lon="49.1436183"><time>2022-10-29T09:12:02.053</time></trkpt><trkpt lat="55.7426417" lon="49.1437217"><time>2022-10-29T09:12:04.053</time></trkpt><trkpt lat="55.7427000" lon="49.1437950"><time>2022-10-29T09:12:07.053</time></trkpt><trkpt lat="55.7427883" lon="49.1437967"><time>2022-10-29T09:12:09.043</time></trkpt><trkpt lat="55.7428333" lon="49.1438067"><time>2022-10-29T09:12:10.053</time></trkpt><trkpt lat="55.7429167" lon="49.1438333"><time>2022-10-29T09:12:12.053</time></trkpt><trkpt lat="55.7429817" lon="49.1438767"><time>2022-10-29T09:12:14.057</time></trkpt><trkpt lat="55.7430050" lon="49.1439817"><time>2022-10-29T09:12:16.057</time></trkpt><trkpt lat="55.7430167" lon="49.1440650"><time>2022-10-29T09:12:17.057</time></trkpt><trkpt lat="55.7430183" lon="49.1442100"><time>2022-10-29T09:12:19.057</time></trkpt><trkpt lat="55.7430133" lon="49.1443233"><time>2022-10-29T09:12:21.060</time></trkpt><trkpt lat="55.7430200" lon="49.1444183"><time>2022-10-29T09:12:23.060</time></trkpt><trkpt lat="55.7430900" lon="49.1444400"><time>2022-10-29T09:12:26.057</time></trkpt><trkpt lat="55.7431500" lon="49.1444200"><time>2022-10-29T09:12:28.043</time></trkpt><trkpt lat="55.7432100" lon="49.1443950"><time>2022-10-29T09:12:30.057</time></trkpt><trkpt lat="55.7432783" lon="49.1443783"><time>2022-10-29T09:12:32.027</time></trkpt><trkpt lat="55.7433400" lon="49.1443800"><time>2022-10-29T09:12:34.037</time></trkpt><trkpt lat="55.7434183" lon="49.1443683"><time>2022-10-29T09:12:36.047</time></trkpt><trkpt lat="55.7434900" lon="49.1443500"><time>2022-10-29T09:12:38.060</time></trkpt><trkpt lat="55.7435350" lon="49.1443317"><time>2022-10-29T09:12:40.047</time></trkpt><trkpt lat="55.7435933" lon="49.1443067"><time>2022-10-29T09:12:42.053</time></trkpt><trkpt lat="55.7436683" lon="49.1442883"><time>2022-10-29T09:12:44.033</time></trkpt><trkpt lat="55.7437133" lon="49.1442733"><time>2022-10-29T09:12:45.047</time></trkpt><trkpt lat="55.7437917" lon="49.1442400"><time>2022-10-29T09:12:47.060</time></trkpt><trkpt lat="55.7438550" lon="49.1442133"><time>2022-10-29T09:12:49.053</time></trkpt><trkpt lat="55.7439317" lon="49.1441983"><time>2022-10-29T09:12:51.060</time></trkpt><trkpt lat="55.7440167" lon="49.1441917"><time>2022-10-29T09:12:53.057</time></trkpt><trkpt lat="55.7440633" lon="49.1441900"><time>2022-10-29T09:12:54.057</time></trkpt><trkpt lat="55.7441433" lon="49.1441483"><time>2022-10-29T09:12:56.060</time></trkpt><trkpt lat="55.7442250" lon="49.1441133"><time>2022-10-29T09:12:58.060</time></trkpt><trkpt lat="55.7443083" lon="49.1440650"><time>2022-10-29T09:13:00.057</time></trkpt><trkpt lat="55.7443867" lon="49.1440367"><time>2022-10-29T09:13:02.057</time></trkpt><trkpt lat="55.7444617" lon="49.1440167"><time>2022-10-29T09:13:04.050</time></trkpt><trkpt lat="55.7445383" lon="49.1439717"><time>2022-10-29T09:13:06.057</time></trkpt><trkpt lat="55.7446150" lon="49.1439283"><time>2022-10-29T09:13:08.057</time></trkpt><trkpt lat="55.7446750" lon="49.1439017"><time>2022-10-29T09:13:10.057</time></trkpt><trkpt lat="55.7447383" lon="49.1439067"><time>2022-10-29T09:13:12.057</time></trkpt><trkpt lat="55.7448133" lon="49.1439000"><time>2022-10-29T09:13:14.057</time></trkpt><trkpt lat="55.7449000" lon="49.1438733"><time>2022-10-29T09:13:16.053</time></trkpt><trkpt lat="55.7449483" lon="49.1438550"><time>2022-10-29T09:13:17.057</time></trkpt><trkpt lat="55.7450417" lon="49.1438267"><time>2022-10-29T09:13:19.060</time></trkpt><trkpt lat="55.7450883" lon="49.1438067"><time>2022-10-29T09:13:20.053</time></trkpt><trkpt lat="55.7451350" lon="49.1437817"><time>2022-10-29T09:13:21.047</time></trkpt><trkpt lat="55.7451817" lon="49.1437533"><time>2022-10-29T09:13:22.063</time></trkpt><trkpt lat="55.7452317" lon="49.1437217"><time>2022-10-29T09:13:23.067</time></trkpt><trkpt lat="55.7452317" lon="49.1437200"><time>2022-10-29T09:13:24.030</time></trkpt><trkpt lat="55.7452867" lon="49.1436967"><time>2022-10-29T09:13:26.047</time></trkpt><trkpt lat="55.7453333" lon="49.1436733"><time>2022-10-29T09:13:27.043</time></trkpt><trkpt lat="55.7453783" lon="49.1436500"><time>2022-10-29T09:13:28.043</time></trkpt><trkpt lat="55.7454467" lon="49.1436183"><time>2022-10-29T09:13:30.050</time></trkpt><trkpt lat="55.7455233" lon="49.1435883"><time>2022-10-29T09:13:32.047</time></trkpt><trkpt lat="55.7456100" lon="49.1435550"><time>2022-10-29T09:13:34.047</time></trkpt><trkpt lat="55.7456567" lon="49.1435350"><time>2022-10-29T09:13:35.037</time></trkpt><trkpt lat="55.7457050" lon="49.1435117"><time>2022-10-29T09:13:36.047</time></trkpt><trkpt lat="55.7457483" lon="49.1434783"><time>2022-10-29T09:13:37.047</time></trkpt><trkpt lat="55.7458283" lon="49.1434467"><time>2022-10-29T09:13:38.047</time></trkpt><trkpt lat="55.7458967" lon="49.1434267"><time>2022-10-29T09:13:39.047</time></trkpt><trkpt lat="55.7459583" lon="49.1433933"><time>2022-10-29T09:13:40.047</time></trkpt><trkpt lat="55.7460033" lon="49.1433650"><time>2022-10-29T09:13:41.047</time></trkpt><trkpt lat="55.7460550" lon="49.1433850"><time>2022-10-29T09:13:43.047</time></trkpt><trkpt lat="55.7460883" lon="49.1434650"><time>2022-10-29T09:13:46.040</time></trkpt><trkpt lat="55.7461650" lon="49.1434650"><time>2022-10-29T09:13:48.063</time></trkpt><trkpt lat="55.7461700" lon="49.1434617"><time>2022-10-29T09:13:49.550</time></trkpt><trkpt lat="55.7462267" lon="49.1434583"><time>2022-10-29T09:13:51.047</time></trkpt><trkpt lat="55.7462917" lon="49.1435733"><time>2022-10-29T09:13:53.043</time></trkpt><trkpt lat="55.7463083" lon="49.1436583"><time>2022-10-29T09:13:54.037</time></trkpt><trkpt lat="55.7463300" lon="49.1437533"><time>2022-10-29T09:13:55.043</time></trkpt><trkpt lat="55.7464000" lon="49.1438667"><time>2022-10-29T09:13:56.047</time></trkpt><trkpt lat="55.7464550" lon="49.1439217"><time>2022-10-29T09:13:57.043</time></trkpt><trkpt lat="55.7465033" lon="49.1439550"><time>2022-10-29T09:13:58.050</time></trkpt><trkpt lat="55.7465667" lon="49.1439750"><time>2022-10-29T09:13:59.060</time></trkpt><trkpt lat="55.7465717" lon="49.1439750"><time>2022-10-29T09:14:00.540</time></trkpt><trkpt lat="55.7466283" lon="49.1439400"><time>2022-10-29T09:14:03.047</time></trkpt><trkpt lat="55.7466833" lon="49.1438917"><time>2022-10-29T09:14:05.037</time></trkpt><trkpt lat="55.7467267" lon="49.1438650"><time>2022-10-29T09:14:06.047</time></trkpt><trkpt lat="55.7467933" lon="49.1438250"><time>2022-10-29T09:14:08.047</time></trkpt><trkpt lat="55.7468483" lon="49.1438117"><time>2022-10-29T09:14:09.050</time></trkpt><trkpt lat="55.7468933" lon="49.1438533"><time>2022-10-29T09:14:11.057</time></trkpt><trkpt lat="55.7468933" lon="49.1438533"><time>2022-10-29T09:14:11.107</time></trkpt><trkpt lat="55.7469367" lon="49.1438883"><time>2022-10-29T09:14:13.057</time></trkpt><trkpt lat="55.7469383" lon="49.1438867"><time>2022-10-29T09:14:14.010</time></trkpt><trkpt lat="55.7469933" lon="49.1438333"><time>2022-10-29T09:14:18.050</time></trkpt><trkpt lat="55.7470483" lon="49.1438217"><time>2022-10-29T09:14:21.050</time></trkpt><trkpt lat="55.7471117" lon="49.1438683"><time>2022-10-29T09:14:25.047</time></trkpt><trkpt lat="55.7471633" lon="49.1438867"><time>2022-10-29T09:14:28.050</time></trkpt><trkpt lat="55.7472133" lon="49.1438817"><time>2022-10-29T09:14:33.050</time></trkpt><trkpt lat="55.7472700" lon="49.1438767"><time>2022-10-29T09:14:35.037</time></trkpt><trkpt lat="55.7473267" lon="49.1439100"><time>2022-10-29T09:14:38.053</time></trkpt><trkpt lat="55.7473800" lon="49.1439317"><time>2022-10-29T09:14:40.047</time></trkpt><trkpt lat="55.7474417" lon="49.1439400"><time>2022-10-29T09:14:42.057</time></trkpt><trkpt lat="55.7475133" lon="49.1439350"><time>2022-10-29T09:14:44.053</time></trkpt><trkpt lat="55.7475717" lon="49.1439650"><time>2022-10-29T09:14:46.050</time></trkpt><trkpt lat="55.7476450" lon="49.1440133"><time>2022-10-29T09:14:48.057</time></trkpt><trkpt lat="55.7476933" lon="49.1440083"><time>2022-10-29T09:14:49.053</time></trkpt><trkpt lat="55.7477483" lon="49.1439883"><time>2022-10-29T09:14:50.057</time></trkpt><trkpt lat="55.7478017" lon="49.1439800"><time>2022-10-29T09:14:51.057</time></trkpt><trkpt lat="55.7478600" lon="49.1439633"><time>2022-10-29T09:14:52.057</time></trkpt><trkpt lat="55.7479283" lon="49.1439567"><time>2022-10-29T09:14:53.053</time></trkpt><trkpt lat="55.7479950" lon="49.1439500"><time>2022-10-29T09:14:54.057</time></trkpt><trkpt lat="55.7480600" lon="49.1439467"><time>2022-10-29T09:14:55.057</time></trkpt><trkpt lat="55.7481117" lon="49.1439567"><time>2022-10-29T09:14:56.057</time></trkpt><trkpt lat="55.7481700" lon="49.1439600"><time>2022-10-29T09:14:57.057</time></trkpt><trkpt lat="55.7482300" lon="49.1439700"><time>2022-10-29T09:14:58.057</time></trkpt><trkpt lat="55.7482850" lon="49.1439733"><time>2022-10-29T09:14:59.057</time></trkpt><trkpt lat="55.7483350" lon="49.1439650"><time>2022-10-29T09:15:00.057</time></trkpt><trkpt lat="55.7484167" lon="49.1439283"><time>2022-10-29T09:15:02.057</time></trkpt><trkpt lat="55.7484950" lon="49.1439350"><time>2022-10-29T09:15:04.057</time></trkpt><trkpt lat="55.7485583" lon="49.1440283"><time>2022-10-29T09:15:06.057</time></trkpt><trkpt lat="55.7486067" lon="49.1441400"><time>2022-10-29T09:15:08.057</time></trkpt><trkpt lat="55.7486400" lon="49.1442467"><time>2022-10-29T09:15:10.053</time></trkpt><trkpt lat="55.7486700" lon="49.1443533"><time>2022-10-29T09:15:12.040</time></trkpt><trkpt lat="55.7486833" lon="49.1444683"><time>2022-10-29T09:15:14.057</time></trkpt><trkpt lat="55.7487233" lon="49.1445433"><time>2022-10-29T09:15:16.057</time></trkpt><trkpt lat="55.7488000" lon="49.1445367"><time>2022-10-29T09:15:18.053</time></trkpt><trkpt lat="55.7488633" lon="49.1444867"><time>2022-10-29T09:15:20.057</time></trkpt><trkpt lat="55.7489350" lon="49.1444167"><time>2022-10-29T09:15:22.057</time></trkpt><trkpt lat="55.7489917" lon="49.1443467"><time>2022-10-29T09:15:24.057</time></trkpt><trkpt lat="55.7490500" lon="49.1442417"><time>2022-10-29T09:15:26.050</time></trkpt><trkpt lat="55.7491067" lon="49.1441217"><time>2022-10-29T09:15:28.047</time></trkpt><trkpt lat="55.7491383" lon="49.1440483"><time>2022-10-29T09:15:29.057</time></trkpt><trkpt lat="55.7491817" lon="49.1439633"><time>2022-10-29T09:15:30.057</time></trkpt><trkpt lat="55.7492133" lon="49.1438933"><time>2022-10-29T09:15:31.057</time></trkpt><trkpt lat="55.7492450" lon="49.1438167"><time>2022-10-29T09:15:32.060</time></trkpt><trkpt lat="55.7492817" lon="49.1437367"><time>2022-10-29T09:15:33.050</time></trkpt><trkpt lat="55.7493200" lon="49.1436567"><time>2022-10-29T09:15:34.057</time></trkpt><trkpt lat="55.7493633" lon="49.1435600"><time>2022-10-29T09:15:35.057</time></trkpt><trkpt lat="55.7494050" lon="49.1434617"><time>2022-10-29T09:15:36.060</time></trkpt><trkpt lat="55.7494450" lon="49.1433717"><time>2022-10-29T09:15:37.057</time></trkpt><trkpt lat="55.7494833" lon="49.1432867"><time>2022-10-29T09:15:38.057</time></trkpt><trkpt lat="55.7495217" lon="49.1432000"><time>2022-10-29T09:15:39.057</time></trkpt><trkpt lat="55.7495583" lon="49.1431133"><time>2022-10-29T09:15:40.033</time></trkpt><trkpt lat="55.7495967" lon="49.1430283"><time>2022-10-29T09:15:41.053</time></trkpt><trkpt lat="55.7496300" lon="49.1429517"><time>2022-10-29T09:15:42.057</time></trkpt><trkpt lat="55.7496850" lon="49.1428267"><time>2022-10-29T09:15:44.057</time></trkpt><trkpt lat="55.7497200" lon="49.1427767"><time>2022-10-29T09:15:45.057</time></trkpt><trkpt lat="55.7497917" lon="49.1426867"><time>2022-10-29T09:15:47.050</time></trkpt><trkpt lat="55.7498267" lon="49.1426350"><time>2022-10-29T09:15:48.060</time></trkpt><trkpt lat="55.7498750" lon="49.1425567"><time>2022-10-29T09:15:50.060</time></trkpt><trkpt lat="55.7499000" lon="49.1424833"><time>2022-10-29T09:15:52.060</time></trkpt><trkpt lat="55.7499283" lon="49.1423517"><time>2022-10-29T09:15:54.063</time></trkpt><trkpt lat="55.7499583" lon="49.1422200"><time>2022-10-29T09:15:56.060</time></trkpt><trkpt lat="55.7499950" lon="49.1421033"><time>2022-10-29T09:15:58.053</time></trkpt><trkpt lat="55.7500200" lon="49.1420367"><time>2022-10-29T09:15:59.060</time></trkpt><trkpt lat="55.7500483" lon="49.1419617"><time>2022-10-29T09:16:00.060</time></trkpt><trkpt lat="55.7500750" lon="49.1418900"><time>2022-10-29T09:16:01.053</time></trkpt><trkpt lat="55.7501300" lon="49.1417767"><time>2022-10-29T09:16:03.053</time></trkpt><trkpt lat="55.7501917" lon="49.1416800"><time>2022-10-29T09:16:05.057</time></trkpt><trkpt lat="55.7502517" lon="49.1415900"><time>2022-10-29T09:16:07.053</time></trkpt><trkpt lat="55.7503100" lon="49.1415350"><time>2022-10-29T09:16:09.050</time></trkpt><trkpt lat="55.7503567" lon="49.1414500"><time>2022-10-29T09:16:11.060</time></trkpt><trkpt lat="55.7504100" lon="49.1413483"><time>2022-10-29T09:16:13.057</time></trkpt><trkpt lat="55.7504750" lon="49.1412450"><time>2022-10-29T09:16:15.060</time></trkpt><trkpt lat="55.7505083" lon="49.1411817"><time>2022-10-29T09:16:16.060</time></trkpt><trkpt lat="55.7505667" lon="49.1410583"><time>2022-10-29T09:16:18.063</time></trkpt><trkpt lat="55.7505967" lon="49.1409950"><time>2022-10-29T09:16:19.060</time></trkpt><trkpt lat="55.7506267" lon="49.1409333"><time>2022-10-29T09:16:20.060</time></trkpt><trkpt lat="55.7506733" lon="49.1408217"><time>2022-10-29T09:16:22.063</time></trkpt><trkpt lat="55.7507200" lon="49.1407067"><time>2022-10-29T09:16:24.060</time></trkpt><trkpt lat="55.7507733" lon="49.1405900"><time>2022-10-29T09:16:26.063</time></trkpt><trkpt lat="55.7508333" lon="49.1405033"><time>2022-10-29T09:16:28.057</time></trkpt><trkpt lat="55.7508950" lon="49.1404517"><time>2022-10-29T09:16:30.057</time></trkpt><trkpt lat="55.7509617" lon="49.1404017"><time>2022-10-29T09:16:32.057</time></trkpt><trkpt lat="55.7510283" lon="49.1403450"><time>2022-10-29T09:16:34.057</time></trkpt><trkpt lat="55.7511117" lon="49.1402900"><time>2022-10-29T09:16:36.060</time></trkpt><trkpt lat="55.7511583" lon="49.1402483"><time>2022-10-29T09:16:37.060</time></trkpt><trkpt lat="55.7512050" lon="49.1402050"><time>2022-10-29T09:16:38.053</time></trkpt><trkpt lat="55.7512467" lon="49.1401583"><time>2022-10-29T09:16:39.057</time></trkpt><trkpt lat="55.7512900" lon="49.1401083"><time>2022-10-29T09:16:40.060</time></trkpt><trkpt lat="55.7513250" lon="49.1400500"><time>2022-10-29T09:16:41.057</time></trkpt><trkpt lat="55.7513833" lon="49.1399450"><time>2022-10-29T09:16:43.057</time></trkpt><trkpt lat="55.7514433" lon="49.1398417"><time>2022-10-29T09:16:45.057</time></trkpt><trkpt lat="55.7515083" lon="49.1397433"><time>2022-10-29T09:16:47.057</time></trkpt><trkpt lat="55.7515483" lon="49.1397000"><time>2022-10-29T09:16:48.047</time></trkpt><trkpt lat="55.7515883" lon="49.1396467"><time>2022-10-29T09:16:49.057</time></trkpt><trkpt lat="55.7516283" lon="49.1395900"><time>2022-10-29T09:16:50.057</time></trkpt><trkpt lat="55.7516817" lon="49.1394817"><time>2022-10-29T09:16:52.057</time></trkpt><trkpt lat="55.7517367" lon="49.1393550"><time>2022-10-29T09:16:54.060</time></trkpt><trkpt lat="55.7517667" lon="49.1392950"><time>2022-10-29T09:16:55.057</time></trkpt><trkpt lat="55.7518217" lon="49.1391817"><time>2022-10-29T09:16:57.057</time></trkpt><trkpt lat="55.7518683" lon="49.1390800"><time>2022-10-29T09:16:59.057</time></trkpt><trkpt lat="55.7519100" lon="49.1390000"><time>2022-10-29T09:17:01.060</time></trkpt><trkpt lat="55.7519517" lon="49.1389317"><time>2022-10-29T09:17:03.057</time></trkpt><trkpt lat="55.7519833" lon="49.1388733"><time>2022-10-29T09:17:05.037</time></trkpt><trkpt lat="55.7520333" lon="49.1387950"><time>2022-10-29T09:17:08.057</time></trkpt><trkpt lat="55.7520667" lon="49.1387367"><time>2022-10-29T09:17:10.057</time></trkpt><trkpt lat="55.7521050" lon="49.1386550"><time>2022-10-29T09:17:13.057</time></trkpt><trkpt lat="55.7521483" lon="49.1385783"><time>2022-10-29T09:17:16.057</time></trkpt><trkpt lat="55.7521850" lon="49.1385083"><time>2022-10-29T09:17:18.060</time></trkpt><trkpt lat="55.7522200" lon="49.1384417"><time>2022-10-29T09:17:20.060</time></trkpt><trkpt lat="55.7522600" lon="49.1383683"><time>2022-10-29T09:17:22.037</time></trkpt><trkpt lat="55.7522933" lon="49.1382917"><time>2022-10-29T09:17:24.057</time></trkpt><trkpt lat="55.7523367" lon="49.1381933"><time>2022-10-29T09:17:26.053</time></trkpt><trkpt lat="55.7523700" lon="49.1381267"><time>2022-10-29T09:17:28.030</time></trkpt><trkpt lat="55.7524100" lon="49.1380617"><time>2022-10-29T09:17:30.060</time></trkpt><trkpt lat="55.7524417" lon="49.1379983"><time>2022-10-29T09:17:32.057</time></trkpt><trkpt lat="55.7524800" lon="49.1379550"><time>2022-10-29T09:17:34.043</time></trkpt><trkpt lat="55.7525150" lon="49.1379033"><time>2022-10-29T09:17:36.057</time></trkpt><trkpt lat="55.7525600" lon="49.1378333"><time>2022-10-29T09:17:38.057</time></trkpt><trkpt lat="55.7526183" lon="49.1377533"><time>2022-10-29T09:17:40.043</time></trkpt><trkpt lat="55.7526800" lon="49.1376783"><time>2022-10-29T09:17:42.057</time></trkpt><trkpt lat="55.7527383" lon="49.1375900"><time>2022-10-29T09:17:44.057</time></trkpt><trkpt lat="55.7528067" lon="49.1374950"><time>2022-10-29T09:17:46.060</time></trkpt><trkpt lat="55.7528617" lon="49.1374133"><time>2022-10-29T09:17:48.057</time></trkpt><trkpt lat="55.7529267" lon="49.1373233"><time>2022-10-29T09:17:50.023</time></trkpt><trkpt lat="55.7529767" lon="49.1372383"><time>2022-10-29T09:17:52.050</time></trkpt><trkpt lat="55.7530300" lon="49.1371550"><time>2022-10-29T09:17:54.047</time></trkpt><trkpt lat="55.7530933" lon="49.1370783"><time>2022-10-29T09:17:56.050</time></trkpt><trkpt lat="55.7531450" lon="49.1370250"><time>2022-10-29T09:17:58.060</time></trkpt><trkpt lat="55.7531983" lon="49.1369717"><time>2022-10-29T09:18:00.057</time></trkpt><trkpt lat="55.7532583" lon="49.1369200"><time>2022-10-29T09:18:02.073</time></trkpt><trkpt lat="55.7533667" lon="49.1369267"><time>2022-10-29T09:18:03.057</time></trkpt><trkpt lat="55.7534900" lon="49.1369750"><time>2022-10-29T09:18:03.533</time></trkpt><trkpt lat="55.7534583" lon="49.1368983"><time>2022-10-29T09:18:04.037</time></trkpt><trkpt lat="55.7535050" lon="49.1368167"><time>2022-10-29T09:18:09.047</time></trkpt><trkpt lat="55.7535600" lon="49.1368000"><time>2022-10-29T09:18:11.050</time></trkpt><trkpt lat="55.7536200" lon="49.1367950"><time>2022-10-29T09:18:13.040</time></trkpt><trkpt lat="55.7536867" lon="49.1367750"><time>2022-10-29T09:18:15.043</time></trkpt><trkpt lat="55.7537317" lon="49.1367783"><time>2022-10-29T09:18:16.047</time></trkpt><trkpt lat="55.7538033" lon="49.1367633"><time>2022-10-29T09:18:18.047</time></trkpt><trkpt lat="55.7538750" lon="49.1367017"><time>2022-10-29T09:18:20.047</time></trkpt><trkpt lat="55.7539417" lon="49.1366967"><time>2022-10-29T09:18:22.050</time></trkpt><trkpt lat="55.7539933" lon="49.1366950"><time>2022-10-29T09:18:33.057</time></trkpt><trkpt lat="55.7540517" lon="49.1366650"><time>2022-10-29T09:18:36.057</time></trkpt><trkpt lat="55.7541117" lon="49.1366467"><time>2022-10-29T09:18:38.050</time></trkpt><trkpt lat="55.7541750" lon="49.1365883"><time>2022-10-29T09:18:40.040</time></trkpt><trkpt lat="55.7541783" lon="49.1365867"><time>2022-10-29T09:18:41.467</time></trkpt><trkpt lat="55.7542350" lon="49.1365100"><time>2022-10-29T09:18:43.540</time></trkpt><trkpt lat="55.7542450" lon="49.1364267"><time>2022-10-29T09:18:45.037</time></trkpt><trkpt lat="55.7542383" lon="49.1363167"><time>2022-10-29T09:18:47.050</time></trkpt><trkpt lat="55.7542583" lon="49.1362317"><time>2022-10-29T09:18:49.043</time></trkpt><trkpt lat="55.7543650" lon="49.1362367"><time>2022-10-29T09:18:50.050</time></trkpt><trkpt lat="55.7544383" lon="49.1362467"><time>2022-10-29T09:18:51.040</time></trkpt><trkpt lat="55.7544933" lon="49.1362233"><time>2022-10-29T09:18:52.043</time></trkpt><trkpt lat="55.7545467" lon="49.1361933"><time>2022-10-29T09:18:53.060</time></trkpt><trkpt lat="55.7545483" lon="49.1361933"><time>2022-10-29T09:18:54.030</time></trkpt><trkpt lat="55.7546050" lon="49.1362033"><time>2022-10-29T09:18:55.553</time></trkpt><trkpt lat="55.7547117" lon="49.1362183"><time>2022-10-29T09:18:56.547</time></trkpt><trkpt lat="55.7547700" lon="49.1361867"><time>2022-10-29T09:18:58.047</time></trkpt><trkpt lat="55.7548133" lon="49.1361283"><time>2022-10-29T09:18:59.050</time></trkpt><trkpt lat="55.7548133" lon="49.1361283"><time>2022-10-29T09:18:59.103</time></trkpt><trkpt lat="55.7548800" lon="49.1360350"><time>2022-10-29T09:19:01.063</time></trkpt><trkpt lat="55.7548800" lon="49.1360383"><time>2022-10-29T09:19:02.013</time></trkpt><trkpt lat="55.7549350" lon="49.1359983"><time>2022-10-29T09:19:04.527</time></trkpt><trkpt lat="55.7549750" lon="49.1359617"><time>2022-10-29T09:19:06.047</time></trkpt><trkpt lat="55.7550167" lon="49.1359100"><time>2022-10-29T09:19:08.047</time></trkpt><trkpt lat="55.7550200" lon="49.1358283"><time>2022-10-29T09:19:18.050</time></trkpt><trkpt lat="55.7549667" lon="49.1358750"><time>2022-10-29T09:19:23.047</time></trkpt><trkpt lat="55.7549267" lon="49.1359533"><time>2022-10-29T09:19:25.050</time></trkpt><trkpt lat="55.7548767" lon="49.1360083"><time>2022-10-29T09:19:27.050</time></trkpt><trkpt lat="55.7548300" lon="49.1360567"><time>2022-10-29T09:19:29.053</time></trkpt><trkpt lat="55.7547850" lon="49.1360850"><time>2022-10-29T09:19:31.060</time></trkpt><trkpt lat="55.7547350" lon="49.1361217"><time>2022-10-29T09:19:34.060</time></trkpt><trkpt lat="55.7546733" lon="49.1361667"><time>2022-10-29T09:19:37.057</time></trkpt><trkpt lat="55.7546183" lon="49.1361983"><time>2022-10-29T09:19:39.053</time></trkpt><trkpt lat="55.7545450" lon="49.1362317"><time>2022-10-29T09:19:41.060</time></trkpt><trkpt lat="55.7544633" lon="49.1362683"><time>2022-10-29T09:19:43.057</time></trkpt><trkpt lat="55.7543717" lon="49.1362983"><time>2022-10-29T09:19:45.060</time></trkpt><trkpt lat="55.7543200" lon="49.1363117"><time>2022-10-29T09:19:46.057</time></trkpt><trkpt lat="55.7542767" lon="49.1363383"><time>2022-10-29T09:19:47.060</time></trkpt><trkpt lat="55.7542333" lon="49.1363650"><time>2022-10-29T09:19:48.057</time></trkpt><trkpt lat="55.7541917" lon="49.1364067"><time>2022-10-29T09:19:49.037</time></trkpt><trkpt lat="55.7541283" lon="49.1364917"><time>2022-10-29T09:19:51.060</time></trkpt><trkpt lat="55.7540717" lon="49.1365750"><time>2022-10-29T09:19:53.060</time></trkpt><trkpt lat="55.7539983" lon="49.1366383"><time>2022-10-29T09:19:55.057</time></trkpt><trkpt lat="55.7539417" lon="49.1366683"><time>2022-10-29T09:19:57.060</time></trkpt><trkpt lat="55.7538817" lon="49.1367050"><time>2022-10-29T09:19:59.057</time></trkpt><trkpt lat="55.7538217" lon="49.1367250"><time>2022-10-29T09:20:01.057</time></trkpt><trkpt lat="55.7537767" lon="49.1367533"><time>2022-10-29T09:20:03.060</time></trkpt><trkpt lat="55.7537217" lon="49.1367750"><time>2022-10-29T09:20:05.060</time></trkpt><trkpt lat="55.7536683" lon="49.1367883"><time>2022-10-29T09:20:07.047</time></trkpt><trkpt lat="55.7536150" lon="49.1368133"><time>2022-10-29T09:20:09.060</time></trkpt><trkpt lat="55.7535600" lon="49.1368167"><time>2022-10-29T09:20:11.053</time></trkpt><trkpt lat="55.7535067" lon="49.1368133"><time>2022-10-29T09:20:13.060</time></trkpt><trkpt lat="55.7534500" lon="49.1368083"><time>2022-10-29T09:20:15.053</time></trkpt><trkpt lat="55.7533867" lon="49.1368133"><time>2022-10-29T09:20:17.053</time></trkpt><trkpt lat="55.7533167" lon="49.1368100"><time>2022-10-29T09:20:19.057</time></trkpt><trkpt lat="55.7532617" lon="49.1368267"><time>2022-10-29T09:20:21.063</time></trkpt><trkpt lat="55.7531983" lon="49.1368817"><time>2022-10-29T09:20:23.057</time></trkpt><trkpt lat="55.7531500" lon="49.1369433"><time>2022-10-29T09:20:25.060</time></trkpt><trkpt lat="55.7530917" lon="49.1370017"><time>2022-10-29T09:20:28.043</time></trkpt><trkpt lat="55.7530483" lon="49.1370700"><time>2022-10-29T09:20:31.060</time></trkpt><trkpt lat="55.7530133" lon="49.1371433"><time>2022-10-29T09:20:35.057</time></trkpt><trkpt lat="55.7530317" lon="49.1370633"><time>2022-10-29T09:20:50.057</time></trkpt><trkpt lat="55.7530883" lon="49.1370283"><time>2022-10-29T09:20:53.057</time></trkpt><trkpt lat="55.7531383" lon="49.1370100"><time>2022-10-29T09:20:55.057</time></trkpt><trkpt lat="55.7531867" lon="49.1369717"><time>2022-10-29T09:20:57.057</time></trkpt><trkpt lat="55.7532400" lon="49.1369217"><time>2022-10-29T09:20:59.057</time></trkpt><trkpt lat="55.7533033" lon="49.1368800"><time>2022-10-29T09:21:01.060</time></trkpt><trkpt lat="55.7533817" lon="49.1368433"><time>2022-10-29T09:21:03.043</time></trkpt><trkpt lat="55.7534600" lon="49.1368267"><time>2022-10-29T09:21:05.057</time></trkpt><trkpt lat="55.7535367" lon="49.1368333"><time>2022-10-29T09:21:07.053</time></trkpt><trkpt lat="55.7536233" lon="49.1368367"><time>2022-10-29T09:21:09.047</time></trkpt><trkpt lat="55.7537033" lon="49.1368200"><time>2022-10-29T09:21:11.050</time></trkpt><trkpt lat="55.7537650" lon="49.1368133"><time>2022-10-29T09:21:13.057</time></trkpt><trkpt lat="55.7538117" lon="49.1367983"><time>2022-10-29T09:21:15.057</time></trkpt><trkpt lat="55.7538633" lon="49.1367717"><time>2022-10-29T09:21:18.053</time></trkpt><trkpt lat="55.7539267" lon="49.1367483"><time>2022-10-29T09:21:21.057</time></trkpt><trkpt lat="55.7539700" lon="49.1367183"><time>2022-10-29T09:21:23.057</time></trkpt><trkpt lat="55.7540317" lon="49.1366883"><time>2022-10-29T09:21:26.053</time></trkpt><trkpt lat="55.7540833" lon="49.1366600"><time>2022-10-29T09:21:29.057</time></trkpt><trkpt lat="55.7541333" lon="49.1366150"><time>2022-10-29T09:21:32.060</time></trkpt><trkpt lat="55.7541783" lon="49.1365567"><time>2022-10-29T09:21:34.060</time></trkpt><trkpt lat="55.7542383" lon="49.1364783"><time>2022-10-29T09:21:36.060</time></trkpt><trkpt lat="55.7543000" lon="49.1364083"><time>2022-10-29T09:21:38.057</time></trkpt><trkpt lat="55.7543533" lon="49.1363517"><time>2022-10-29T09:21:40.057</time></trkpt><trkpt lat="55.7544033" lon="49.1363200"><time>2022-10-29T09:21:42.057</time></trkpt><trkpt lat="55.7544500" lon="49.1362867"><time>2022-10-29T09:21:44.057</time></trkpt><trkpt lat="55.7545083" lon="49.1362600"><time>2022-10-29T09:21:46.057</time></trkpt><trkpt lat="55.7545800" lon="49.1362417"><time>2022-10-29T09:21:48.060</time></trkpt><trkpt lat="55.7546583" lon="49.1362250"><time>2022-10-29T09:21:50.057</time></trkpt><trkpt lat="55.7547417" lon="49.1362033"><time>2022-10-29T09:21:52.060</time></trkpt><trkpt lat="55.7548267" lon="49.1361533"><time>2022-10-29T09:21:54.043</time></trkpt><trkpt lat="55.7548717" lon="49.1361167"><time>2022-10-29T09:21:55.047</time></trkpt><trkpt lat="55.7549117" lon="49.1360717"><time>2022-10-29T09:21:56.057</time></trkpt><trkpt lat="55.7549733" lon="49.1359517"><time>2022-10-29T09:21:58.053</time></trkpt><trkpt lat="55.7550033" lon="49.1358883"><time>2022-10-29T09:21:59.053</time></trkpt><trkpt lat="55.7550667" lon="49.1357700"><time>2022-10-29T09:22:01.057</time></trkpt><trkpt lat="55.7551117" lon="49.1356617"><time>2022-10-29T09:22:03.063</time></trkpt><trkpt lat="55.7551400" lon="49.1355483"><time>2022-10-29T09:22:05.057</time></trkpt><trkpt lat="55.7551133" lon="49.1354633"><time>2022-10-29T09:22:07.047</time></trkpt><trkpt lat="55.7551650" lon="49.1354367"><time>2022-10-29T09:22:22.053</time></trkpt><trkpt lat="55.7551950" lon="49.1353700"><time>2022-10-29T09:22:24.053</time></trkpt><trkpt lat="55.7552117" lon="49.1352483"><time>2022-10-29T09:22:26.057</time></trkpt><trkpt lat="55.7552383" lon="49.1351217"><time>2022-10-29T09:22:28.057</time></trkpt><trkpt lat="55.7552583" lon="49.1349717"><time>2022-10-29T09:22:30.050</time></trkpt><trkpt lat="55.7552650" lon="49.1348917"><time>2022-10-29T09:22:31.053</time></trkpt><trkpt lat="55.7552683" lon="49.1348083"><time>2022-10-29T09:22:32.057</time></trkpt><trkpt lat="55.7552683" lon="49.1346533"><time>2022-10-29T09:22:34.057</time></trkpt><trkpt lat="55.7552650" lon="49.1344967"><time>2022-10-29T09:22:36.057</time></trkpt><trkpt lat="55.7552767" lon="49.1343500"><time>2022-10-29T09:22:38.057</time></trkpt><trkpt lat="55.7552833" lon="49.1342633"><time>2022-10-29T09:22:39.053</time></trkpt><trkpt lat="55.7552983" lon="49.1341833"><time>2022-10-29T09:22:40.057</time></trkpt><trkpt lat="55.7553167" lon="49.1340383"><time>2022-10-29T09:22:42.053</time></trkpt><trkpt lat="55.7553483" lon="49.1339033"><time>2022-10-29T09:22:44.057</time></trkpt><trkpt lat="55.7553667" lon="49.1338267"><time>2022-10-29T09:22:45.043</time></trkpt><trkpt lat="55.7553883" lon="49.1337550"><time>2022-10-29T09:22:46.057</time></trkpt><trkpt lat="55.7554117" lon="49.1336783"><time>2022-10-29T09:22:47.057</time></trkpt><trkpt lat="55.7554383" lon="49.1335867"><time>2022-10-29T09:22:48.057</time></trkpt><trkpt lat="55.7554633" lon="49.1335067"><time>2022-10-29T09:22:49.053</time></trkpt><trkpt lat="55.7554933" lon="49.1334267"><time>2022-10-29T09:22:50.057</time></trkpt><trkpt lat="55.7555133" lon="49.1333417"><time>2022-10-29T09:22:51.053</time></trkpt><trkpt lat="55.7555483" lon="49.1332500"><time>2022-10-29T09:22:52.060</time></trkpt><trkpt lat="55.7555800" lon="49.1331667"><time>2022-10-29T09:22:53.057</time></trkpt><trkpt lat="55.7556117" lon="49.1330850"><time>2022-10-29T09:22:54.057</time></trkpt><trkpt lat="55.7556450" lon="49.1330017"><time>2022-10-29T09:22:55.047</time></trkpt><trkpt lat="55.7556783" lon="49.1329200"><time>2022-10-29T09:22:56.047</time></trkpt><trkpt lat="55.7557083" lon="49.1328417"><time>2022-10-29T09:22:57.057</time></trkpt><trkpt lat="55.7557417" lon="49.1327700"><time>2022-10-29T09:22:58.057</time></trkpt><trkpt lat="55.7557750" lon="49.1326967"><time>2022-10-29T09:22:59.053</time></trkpt><trkpt lat="55.7558050" lon="49.1326283"><time>2022-10-29T09:23:00.053</time></trkpt><trkpt lat="55.7558683" lon="49.1325383"><time>2022-10-29T09:23:02.057</time></trkpt><trkpt lat="55.7559017" lon="49.1324833"><time>2022-10-29T09:23:03.057</time></trkpt><trkpt lat="55.7559600" lon="49.1323633"><time>2022-10-29T09:23:05.057</time></trkpt><trkpt lat="55.7559883" lon="49.1322250"><time>2022-10-29T09:23:07.057</time></trkpt><trkpt lat="55.7560117" lon="49.1321517"><time>2022-10-29T09:23:08.060</time></trkpt><trkpt lat="55.7560400" lon="49.1320850"><time>2022-10-29T09:23:09.057</time></trkpt><trkpt lat="55.7560667" lon="49.1320167"><time>2022-10-29T09:23:10.060</time></trkpt><trkpt lat="55.7561033" lon="49.1318783"><time>2022-10-29T09:23:12.053</time></trkpt><trkpt lat="55.7561333" lon="49.1317267"><time>2022-10-29T09:23:14.053</time></trkpt><trkpt lat="55.7561383" lon="49.1315783"><time>2022-10-29T09:23:16.057</time></trkpt><trkpt lat="55.7561233" lon="49.1314583"><time>2022-10-29T09:23:18.057</time></trkpt><trkpt lat="55.7560917" lon="49.1313450"><time>2022-10-29T09:23:20.057</time></trkpt><trkpt lat="55.7560483" lon="49.1312333"><time>2022-10-29T09:23:22.057</time></trkpt><trkpt lat="55.7560233" lon="49.1311167"><time>2022-10-29T09:23:24.057</time></trkpt><trkpt lat="55.7560083" lon="49.1310133"><time>2022-10-29T09:23:26.053</time></trkpt><trkpt lat="55.7559967" lon="49.1309317"><time>2022-10-29T09:23:28.057</time></trkpt><trkpt lat="55.7559583" lon="49.1308417"><time>2022-10-29T09:23:31.057</time></trkpt><trkpt lat="55.7559083" lon="49.1307733"><time>2022-10-29T09:23:34.057</time></trkpt><trkpt lat="55.7558600" lon="49.1307467"><time>2022-10-29T09:23:36.057</time></trkpt><trkpt lat="55.7558033" lon="49.1307033"><time>2022-10-29T09:23:38.057</time></trkpt><trkpt lat="55.7557567" lon="49.1307100"><time>2022-10-29T09:23:40.063</time></trkpt><trkpt lat="55.7557033" lon="49.1307283"><time>2022-10-29T09:23:42.057</time></trkpt><trkpt lat="55.7556500" lon="49.1307650"><time>2022-10-29T09:23:44.057</time></trkpt><trkpt lat="55.7555883" lon="49.1308133"><time>2022-10-29T09:23:47.053</time></trkpt><trkpt lat="55.7555300" lon="49.1308500"><time>2022-10-29T09:23:49.057</time></trkpt><trkpt lat="55.7554650" lon="49.1308817"><time>2022-10-29T09:23:51.057</time></trkpt><trkpt lat="55.7553850" lon="49.1308950"><time>2022-10-29T09:23:53.053</time></trkpt><trkpt lat="55.7553017" lon="49.1308967"><time>2022-10-29T09:23:55.053</time></trkpt><trkpt lat="55.7552500" lon="49.1308967"><time>2022-10-29T09:23:56.057</time></trkpt><trkpt lat="55.7551983" lon="49.1309050"><time>2022-10-29T09:23:57.057</time></trkpt><trkpt lat="55.7551067" lon="49.1309383"><time>2022-10-29T09:23:59.053</time></trkpt><trkpt lat="55.7550550" lon="49.1309600"><time>2022-10-29T09:24:00.057</time></trkpt><trkpt lat="55.7550000" lon="49.1309850"><time>2022-10-29T09:24:01.057</time></trkpt><trkpt lat="55.7549450" lon="49.1310067"><time>2022-10-29T09:24:02.047</time></trkpt><trkpt lat="55.7548900" lon="49.1310183"><time>2022-10-29T09:24:03.057</time></trkpt><trkpt lat="55.7548300" lon="49.1310367"><time>2022-10-29T09:24:04.050</time></trkpt><trkpt lat="55.7547717" lon="49.1310533"><time>2022-10-29T09:24:05.053</time></trkpt><trkpt lat="55.7547150" lon="49.1310700"><time>2022-10-29T09:24:06.020</time></trkpt><trkpt lat="55.7546583" lon="49.1310850"><time>2022-10-29T09:24:07.057</time></trkpt><trkpt lat="55.7546000" lon="49.1311067"><time>2022-10-29T09:24:08.053</time></trkpt><trkpt lat="55.7545417" lon="49.1311283"><time>2022-10-29T09:24:09.047</time></trkpt><trkpt lat="55.7544867" lon="49.1311567"><time>2022-10-29T09:24:10.027</time></trkpt><trkpt lat="55.7544300" lon="49.1311767"><time>2022-10-29T09:24:11.057</time></trkpt><trkpt lat="55.7543767" lon="49.1311850"><time>2022-10-29T09:24:12.057</time></trkpt><trkpt lat="55.7543233" lon="49.1311967"><time>2022-10-29T09:24:13.040</time></trkpt><trkpt lat="55.7542717" lon="49.1312083"><time>2022-10-29T09:24:14.057</time></trkpt><trkpt lat="55.7542200" lon="49.1312317"><time>2022-10-29T09:24:15.057</time></trkpt><trkpt lat="55.7541667" lon="49.1312617"><time>2022-10-29T09:24:16.057</time></trkpt><trkpt lat="55.7541200" lon="49.1312933"><time>2022-10-29T09:24:17.057</time></trkpt><trkpt lat="55.7540417" lon="49.1313533"><time>2022-10-29T09:24:19.060</time></trkpt><trkpt lat="55.7539933" lon="49.1313833"><time>2022-10-29T09:24:20.057</time></trkpt><trkpt lat="55.7539383" lon="49.1314017"><time>2022-10-29T09:24:21.057</time></trkpt><trkpt lat="55.7538867" lon="49.1314150"><time>2022-10-29T09:24:22.057</time></trkpt><trkpt lat="55.7538400" lon="49.1314400"><time>2022-10-29T09:24:23.057</time></trkpt><trkpt lat="55.7537917" lon="49.1314633"><time>2022-10-29T09:24:24.053</time></trkpt><trkpt lat="55.7537417" lon="49.1314750"><time>2022-10-29T09:24:25.057</time></trkpt><trkpt lat="55.7536867" lon="49.1314783"><time>2022-10-29T09:24:26.053</time></trkpt><trkpt lat="55.7536333" lon="49.1314750"><time>2022-10-29T09:24:27.057</time></trkpt><trkpt lat="55.7535817" lon="49.1314733"><time>2022-10-29T09:24:28.057</time></trkpt><trkpt lat="55.7535317" lon="49.1314800"><time>2022-10-29T09:24:29.057</time></trkpt><trkpt lat="55.7534817" lon="49.1314967"><time>2022-10-29T09:24:30.057</time></trkpt><trkpt lat="55.7534333" lon="49.1315067"><time>2022-10-29T09:24:31.057</time></trkpt><trkpt lat="55.7533817" lon="49.1315183"><time>2022-10-29T09:24:32.057</time></trkpt><trkpt lat="55.7533283" lon="49.1315333"><time>2022-10-29T09:24:33.057</time></trkpt><trkpt lat="55.7532733" lon="49.1315383"><time>2022-10-29T09:24:34.057</time></trkpt><trkpt lat="55.7532133" lon="49.1315417"><time>2022-10-29T09:24:35.057</time></trkpt><trkpt lat="55.7531550" lon="49.1315383"><time>2022-10-29T09:24:36.060</time></trkpt><trkpt lat="55.7531017" lon="49.1315350"><time>2022-10-29T09:24:37.017</time></trkpt><trkpt lat="55.7530500" lon="49.1315333"><time>2022-10-29T09:24:38.053</time></trkpt><trkpt lat="55.7530000" lon="49.1315333"><time>2022-10-29T09:24:39.057</time></trkpt><trkpt lat="55.7529067" lon="49.1315583"><time>2022-10-29T09:24:41.057</time></trkpt><trkpt lat="55.7528500" lon="49.1315783"><time>2022-10-29T09:24:42.050</time></trkpt><trkpt lat="55.7527950" lon="49.1315933"><time>2022-10-29T09:24:43.050</time></trkpt><trkpt lat="55.7527433" lon="49.1316067"><time>2022-10-29T09:24:44.057</time></trkpt><trkpt lat="55.7526917" lon="49.1316183"><time>2022-10-29T09:24:45.057</time></trkpt><trkpt lat="55.7526367" lon="49.1316250"><time>2022-10-29T09:24:46.057</time></trkpt><trkpt lat="55.7525800" lon="49.1316350"><time>2022-10-29T09:24:47.060</time></trkpt><trkpt lat="55.7525233" lon="49.1316483"><time>2022-10-29T09:24:48.057</time></trkpt><trkpt lat="55.7524683" lon="49.1316567"><time>2022-10-29T09:24:49.057</time></trkpt><trkpt lat="55.7524117" lon="49.1316667"><time>2022-10-29T09:24:50.053</time></trkpt><trkpt lat="55.7523533" lon="49.1316800"><time>2022-10-29T09:24:51.060</time></trkpt><trkpt lat="55.7522950" lon="49.1316900"><time>2022-10-29T09:24:52.053</time></trkpt><trkpt lat="55.7522367" lon="49.1317017"><time>2022-10-29T09:24:53.060</time></trkpt><trkpt lat="55.7521800" lon="49.1317200"><time>2022-10-29T09:24:54.057</time></trkpt><trkpt lat="55.7521250" lon="49.1317350"><time>2022-10-29T09:24:55.057</time></trkpt><trkpt lat="55.7520683" lon="49.1317400"><time>2022-10-29T09:24:56.057</time></trkpt><trkpt lat="55.7520133" lon="49.1317383"><time>2022-10-29T09:24:57.060</time></trkpt><trkpt lat="55.7519583" lon="49.1317467"><time>2022-10-29T09:24:58.053</time></trkpt><trkpt lat="55.7519050" lon="49.1317583"><time>2022-10-29T09:24:59.053</time></trkpt><trkpt lat="55.7518583" lon="49.1317633"><time>2022-10-29T09:25:00.057</time></trkpt><trkpt lat="55.7518133" lon="49.1317717"><time>2022-10-29T09:25:01.057</time></trkpt><trkpt lat="55.7517267" lon="49.1317783"><time>2022-10-29T09:25:03.060</time></trkpt><trkpt lat="55.7516767" lon="49.1317733"><time>2022-10-29T09:25:04.057</time></trkpt><trkpt lat="55.7516300" lon="49.1317717"><time>2022-10-29T09:25:05.057</time></trkpt><trkpt lat="55.7515850" lon="49.1317717"><time>2022-10-29T09:25:06.060</time></trkpt><trkpt lat="55.7515300" lon="49.1317833"><time>2022-10-29T09:25:07.057</time></trkpt><trkpt lat="55.7514817" lon="49.1317917"><time>2022-10-29T09:25:08.050</time></trkpt><trkpt lat="55.7513917" lon="49.1318083"><time>2022-10-29T09:25:10.050</time></trkpt><trkpt lat="55.7513450" lon="49.1318183"><time>2022-10-29T09:25:11.057</time></trkpt><trkpt lat="55.7512583" lon="49.1318300"><time>2022-10-29T09:25:13.057</time></trkpt><trkpt lat="55.7511800" lon="49.1318383"><time>2022-10-29T09:25:15.057</time></trkpt><trkpt lat="55.7511083" lon="49.1318367"><time>2022-10-29T09:25:17.057</time></trkpt><trkpt lat="55.7510583" lon="49.1318483"><time>2022-10-29T09:25:18.053</time></trkpt><trkpt lat="55.7509817" lon="49.1318567"><time>2022-10-29T09:25:20.057</time></trkpt><trkpt lat="55.7508900" lon="49.1318550"><time>2022-10-29T09:25:22.053</time></trkpt><trkpt lat="55.7508317" lon="49.1318700"><time>2022-10-29T09:25:23.053</time></trkpt><trkpt lat="55.7507550" lon="49.1318850"><time>2022-10-29T09:25:25.067</time></trkpt><trkpt lat="55.7507517" lon="49.1318850"><time>2022-10-29T09:25:26.530</time></trkpt><trkpt lat="55.7506983" lon="49.1318750"><time>2022-10-29T09:25:28.033</time></trkpt><trkpt lat="55.7506183" lon="49.1319117"><time>2022-10-29T09:25:29.043</time></trkpt><trkpt lat="55.7505667" lon="49.1319400"><time>2022-10-29T09:25:30.047</time></trkpt><trkpt lat="55.7505183" lon="49.1319583"><time>2022-10-29T09:25:31.047</time></trkpt><trkpt lat="55.7504667" lon="49.1319567"><time>2022-10-29T09:25:32.050</time></trkpt><trkpt lat="55.7503833" lon="49.1319700"><time>2022-10-29T09:25:34.047</time></trkpt><trkpt lat="55.7503083" lon="49.1319850"><time>2022-10-29T09:25:36.047</time></trkpt><trkpt lat="55.7502617" lon="49.1319817"><time>2022-10-29T09:25:37.023</time></trkpt><trkpt lat="55.7501717" lon="49.1319783"><time>2022-10-29T09:25:39.050</time></trkpt><trkpt lat="55.7501217" lon="49.1319900"><time>2022-10-29T09:25:40.047</time></trkpt><trkpt lat="55.7500733" lon="49.1320000"><time>2022-10-29T09:25:41.050</time></trkpt><trkpt lat="55.7500267" lon="49.1320100"><time>2022-10-29T09:25:42.050</time></trkpt><trkpt lat="55.7499783" lon="49.1320250"><time>2022-10-29T09:25:43.047</time></trkpt><trkpt lat="55.7499300" lon="49.1320417"><time>2022-10-29T09:25:44.047</time></trkpt><trkpt lat="55.7498767" lon="49.1320633"><time>2022-10-29T09:25:45.047</time></trkpt><trkpt lat="55.7498250" lon="49.1320850"><time>2022-10-29T09:25:46.063</time></trkpt><trkpt lat="55.7498250" lon="49.1320850"><time>2022-10-29T09:25:47.030</time></trkpt><trkpt lat="55.7497767" lon="49.1321033"><time>2022-10-29T09:25:49.047</time></trkpt><trkpt lat="55.7496650" lon="49.1321100"><time>2022-10-29T09:25:51.047</time></trkpt><trkpt lat="55.7495850" lon="49.1321183"><time>2022-10-29T09:25:52.043</time></trkpt><trkpt lat="55.7495367" lon="49.1321250"><time>2022-10-29T09:25:53.047</time></trkpt><trkpt lat="55.7494850" lon="49.1321317"><time>2022-10-29T09:25:54.047</time></trkpt><trkpt lat="55.7494117" lon="49.1321633"><time>2022-10-29T09:25:56.063</time></trkpt><trkpt lat="55.7494117" lon="49.1321633"><time>2022-10-29T09:25:57.040</time></trkpt><trkpt lat="55.7493450" lon="49.1322083"><time>2022-10-29T09:25:58.540</time></trkpt><trkpt lat="55.7492800" lon="49.1322083"><time>2022-10-29T09:26:00.033</time></trkpt><trkpt lat="55.7492350" lon="49.1322033"><time>2022-10-29T09:26:01.043</time></trkpt><trkpt lat="55.7491517" lon="49.1322033"><time>2022-10-29T09:26:03.043</time></trkpt><trkpt lat="55.7507550" lon="49.1318850"><time>2022-10-29T09:26:05.057</time></trkpt><trkpt lat="55.7490883" lon="49.1321967"><time>2022-10-29T09:26:05.103</time></trkpt><trkpt lat="55.7490267" lon="49.1322083"><time>2022-10-29T09:26:07.057</time></trkpt><trkpt lat="55.7490267" lon="49.1322083"><time>2022-10-29T09:26:08.537</time></trkpt><trkpt lat="55.7489683" lon="49.1322133"><time>2022-10-29T09:26:10.047</time></trkpt><trkpt lat="55.7489150" lon="49.1322100"><time>2022-10-29T09:26:12.047</time></trkpt><trkpt lat="55.7488700" lon="49.1322100"><time>2022-10-29T09:26:14.047</time></trkpt><trkpt lat="55.7488017" lon="49.1322150"><time>2022-10-29T09:26:16.047</time></trkpt><trkpt lat="55.7487333" lon="49.1322033"><time>2022-10-29T09:26:18.047</time></trkpt><trkpt lat="55.7486750" lon="49.1322000"><time>2022-10-29T09:26:20.040</time></trkpt><trkpt lat="55.7486167" lon="49.1322367"><time>2022-10-29T09:26:22.047</time></trkpt><trkpt lat="55.7485600" lon="49.1322717"><time>2022-10-29T09:26:24.047</time></trkpt><trkpt lat="55.7484967" lon="49.1322867"><time>2022-10-29T09:26:26.053</time></trkpt><trkpt lat="55.7484250" lon="49.1322833"><time>2022-10-29T09:26:28.047</time></trkpt><trkpt lat="55.7483533" lon="49.1323233"><time>2022-10-29T09:26:30.047</time></trkpt><trkpt lat="55.7482983" lon="49.1323583"><time>2022-10-29T09:26:32.047</time></trkpt><trkpt lat="55.7482200" lon="49.1323217"><time>2022-10-29T09:26:34.050</time></trkpt><trkpt lat="55.7481400" lon="49.1323183"><time>2022-10-29T09:26:36.050</time></trkpt><trkpt lat="55.7480850" lon="49.1323600"><time>2022-10-29T09:26:38.057</time></trkpt><trkpt lat="55.7480383" lon="49.1324283"><time>2022-10-29T09:26:40.060</time></trkpt><trkpt lat="55.7480017" lon="49.1325033"><time>2022-10-29T09:26:43.060</time></trkpt><trkpt lat="55.7479500" lon="49.1325317"><time>2022-10-29T09:26:45.063</time></trkpt><trkpt lat="55.7478817" lon="49.1325467"><time>2022-10-29T09:26:47.057</time></trkpt><trkpt lat="55.7478233" lon="49.1325617"><time>2022-10-29T09:26:49.057</time></trkpt><trkpt lat="55.7477550" lon="49.1325867"><time>2022-10-29T09:26:51.060</time></trkpt><trkpt lat="55.7476900" lon="49.1326017"><time>2022-10-29T09:26:53.053</time></trkpt><trkpt lat="55.7476150" lon="49.1326033"><time>2022-10-29T09:26:55.057</time></trkpt><trkpt lat="55.7475417" lon="49.1326333"><time>2022-10-29T09:26:57.057</time></trkpt><trkpt lat="55.7474733" lon="49.1326617"><time>2022-10-29T09:26:59.037</time></trkpt><trkpt lat="55.7474083" lon="49.1326717"><time>2022-10-29T09:27:01.060</time></trkpt><trkpt lat="55.7473400" lon="49.1326650"><time>2022-10-29T09:27:03.060</time></trkpt><trkpt lat="55.7472783" lon="49.1326783"><time>2022-10-29T09:27:05.057</time></trkpt><trkpt lat="55.7472083" lon="49.1326800"><time>2022-10-29T09:27:07.057</time></trkpt><trkpt lat="55.7471333" lon="49.1326650"><time>2022-10-29T09:27:09.057</time></trkpt><trkpt lat="55.7470867" lon="49.1326667"><time>2022-10-29T09:27:10.057</time></trkpt><trkpt lat="55.7470333" lon="49.1326650"><time>2022-10-29T09:27:11.057</time></trkpt><trkpt lat="55.7469817" lon="49.1326767"><time>2022-10-29T09:27:12.057</time></trkpt><trkpt lat="55.7469267" lon="49.1326950"><time>2022-10-29T09:27:13.053</time></trkpt><trkpt lat="55.7468717" lon="49.1327083"><time>2022-10-29T09:27:14.053</time></trkpt><trkpt lat="55.7468217" lon="49.1327133"><time>2022-10-29T09:27:15.043</time></trkpt><trkpt lat="55.7467750" lon="49.1327150"><time>2022-10-29T09:27:16.033</time></trkpt><trkpt lat="55.7467233" lon="49.1327083"><time>2022-10-29T09:27:17.053</time></trkpt><trkpt lat="55.7466650" lon="49.1326850"><time>2022-10-29T09:27:18.060</time></trkpt><trkpt lat="55.7466033" lon="49.1326750"><time>2022-10-29T09:27:19.060</time></trkpt><trkpt lat="55.7465417" lon="49.1326667"><time>2022-10-29T09:27:20.057</time></trkpt><trkpt lat="55.7464850" lon="49.1326633"><time>2022-10-29T09:27:21.057</time></trkpt><trkpt lat="55.7464233" lon="49.1326667"><time>2022-10-29T09:27:22.057</time></trkpt><trkpt lat="55.7463683" lon="49.1326800"><time>2022-10-29T09:27:23.057</time></trkpt><trkpt lat="55.7462883" lon="49.1327283"><time>2022-10-29T09:27:25.057</time></trkpt><trkpt lat="55.7462400" lon="49.1327517"><time>2022-10-29T09:27:26.057</time></trkpt><trkpt lat="55.7461900" lon="49.1327683"><time>2022-10-29T09:27:27.057</time></trkpt><trkpt lat="55.7461433" lon="49.1327850"><time>2022-10-29T09:27:28.057</time></trkpt><trkpt lat="55.7460950" lon="49.1327950"><time>2022-10-29T09:27:29.057</time></trkpt><trkpt lat="55.7460483" lon="49.1328150"><time>2022-10-29T09:27:30.060</time></trkpt><trkpt lat="55.7459917" lon="49.1328200"><time>2022-10-29T09:27:31.057</time></trkpt><trkpt lat="55.7459417" lon="49.1328267"><time>2022-10-29T09:27:32.057</time></trkpt><trkpt lat="55.7458917" lon="49.1328367"><time>2022-10-29T09:27:33.057</time></trkpt><trkpt lat="55.7458450" lon="49.1328533"><time>2022-10-29T09:27:34.057</time></trkpt><trkpt lat="55.7457767" lon="49.1328983"><time>2022-10-29T09:27:36.057</time></trkpt><trkpt lat="55.7457017" lon="49.1329383"><time>2022-10-29T09:27:38.057</time></trkpt><trkpt lat="55.7456267" lon="49.1329733"><time>2022-10-29T09:27:40.057</time></trkpt><trkpt lat="55.7455550" lon="49.1330217"><time>2022-10-29T09:27:42.057</time></trkpt><trkpt lat="55.7454800" lon="49.1330650"><time>2022-10-29T09:27:44.053</time></trkpt><trkpt lat="55.7454017" lon="49.1330683"><time>2022-10-29T09:27:46.053</time></trkpt><trkpt lat="55.7453450" lon="49.1330650"><time>2022-10-29T09:27:48.057</time></trkpt><trkpt lat="55.7452800" lon="49.1330517"><time>2022-10-29T09:27:50.057</time></trkpt><trkpt lat="55.7452117" lon="49.1330550"><time>2022-10-29T09:27:52.060</time></trkpt><trkpt lat="55.7451483" lon="49.1330550"><time>2022-10-29T09:27:54.053</time></trkpt><trkpt lat="55.7450800" lon="49.1330683"><time>2022-10-29T09:27:56.057</time></trkpt><trkpt lat="55.7450033" lon="49.1330783"><time>2022-10-29T09:27:58.053</time></trkpt><trkpt lat="55.7449350" lon="49.1330717"><time>2022-10-29T09:28:00.053</time></trkpt><trkpt lat="55.7448417" lon="49.1330833"><time>2022-10-29T09:28:02.053</time></trkpt><trkpt lat="55.7447883" lon="49.1331000"><time>2022-10-29T09:28:03.057</time></trkpt><trkpt lat="55.7447383" lon="49.1331267"><time>2022-10-29T09:28:04.057</time></trkpt><trkpt lat="55.7446867" lon="49.1331483"><time>2022-10-29T09:28:05.053</time></trkpt><trkpt lat="55.7446417" lon="49.1331650"><time>2022-10-29T09:28:06.057</time></trkpt><trkpt lat="55.7445933" lon="49.1331783"><time>2022-10-29T09:28:07.057</time></trkpt><trkpt lat="55.7445017" lon="49.1331800"><time>2022-10-29T09:28:09.057</time></trkpt><trkpt lat="55.7444083" lon="49.1331783"><time>2022-10-29T09:28:11.047</time></trkpt><trkpt lat="55.7443600" lon="49.1331867"><time>2022-10-29T09:28:12.057</time></trkpt><trkpt lat="55.7443067" lon="49.1331900"><time>2022-10-29T09:28:13.057</time></trkpt><trkpt lat="55.7442550" lon="49.1331983"><time>2022-10-29T09:28:14.057</time></trkpt><trkpt lat="55.7442050" lon="49.1332033"><time>2022-10-29T09:28:15.060</time></trkpt><trkpt lat="55.7441567" lon="49.1332117"><time>2022-10-29T09:28:16.057</time></trkpt><trkpt lat="55.7441117" lon="49.1332183"><time>2022-10-29T09:28:17.057</time></trkpt><trkpt lat="55.7440583" lon="49.1332217"><time>2022-10-29T09:28:18.057</time></trkpt><trkpt lat="55.7440000" lon="49.1332250"><time>2022-10-29T09:28:19.060</time></trkpt><trkpt lat="55.7439433" lon="49.1332233"><time>2022-10-29T09:28:20.060</time></trkpt><trkpt lat="55.7438883" lon="49.1332250"><time>2022-10-29T09:28:21.053</time></trkpt><trkpt lat="55.7438350" lon="49.1332267"><time>2022-10-29T09:28:22.057</time></trkpt><trkpt lat="55.7437850" lon="49.1332300"><time>2022-10-29T09:28:23.057</time></trkpt><trkpt lat="55.7437067" lon="49.1332383"><time>2022-10-29T09:28:25.057</time></trkpt><trkpt lat="55.7436267" lon="49.1332433"><time>2022-10-29T09:28:27.060</time></trkpt><trkpt lat="55.7435467" lon="49.1332650"><time>2022-10-29T09:28:29.057</time></trkpt><trkpt lat="55.7434633" lon="49.1332767"><time>2022-10-29T09:28:31.057</time></trkpt><trkpt lat="55.7433883" lon="49.1332900"><time>2022-10-29T09:28:33.057</time></trkpt><trkpt lat="55.7433433" lon="49.1332850"><time>2022-10-29T09:28:35.057</time></trkpt><trkpt lat="55.7433433" lon="49.1331967"><time>2022-10-29T09:28:43.060</time></trkpt><trkpt lat="55.7433567" lon="49.1331050"><time>2022-10-29T09:28:45.060</time></trkpt><trkpt lat="55.7433600" lon="49.1330117"><time>2022-10-29T09:28:47.057</time></trkpt><trkpt lat="55.7433700" lon="49.1329333"><time>2022-10-29T09:28:50.060</time></trkpt><trkpt lat="55.7433533" lon="49.1328583"><time>2022-10-29T09:28:54.057</time></trkpt><trkpt lat="55.7433283" lon="49.1327367"><time>2022-10-29T09:28:57.057</time></trkpt><trkpt lat="55.7433133" lon="49.1326167"><time>2022-10-29T09:28:59.057</time></trkpt><trkpt lat="55.7432683" lon="49.1325350"><time>2022-10-29T09:29:01.060</time></trkpt><trkpt lat="55.7432200" lon="49.1325117"><time>2022-10-29T09:29:06.053</time></trkpt><trkpt lat="55.7431767" lon="49.1325350"><time>2022-10-29T09:29:09.060</time></trkpt><trkpt lat="55.7431233" lon="49.1325367"><time>2022-10-29T09:29:11.057</time></trkpt><trkpt lat="55.7430567" lon="49.1325300"><time>2022-10-29T09:29:13.057</time></trkpt><trkpt lat="55.7429833" lon="49.1325183"><time>2022-10-29T09:29:15.057</time></trkpt><trkpt lat="55.7429083" lon="49.1325400"><time>2022-10-29T09:29:17.057</time></trkpt><trkpt lat="55.7428467" lon="49.1325667"><time>2022-10-29T09:29:19.060</time></trkpt><trkpt lat="55.7427650" lon="49.1325817"><time>2022-10-29T09:29:21.060</time></trkpt><trkpt lat="55.7427100" lon="49.1325650"><time>2022-10-29T09:29:23.053</time></trkpt><trkpt lat="55.7426817" lon="49.1325017"><time>2022-10-29T09:29:25.057</time></trkpt><trkpt lat="55.7426450" lon="49.1324317"><time>2022-10-29T09:29:27.057</time></trkpt><trkpt lat="55.7425867" lon="49.1324167"><time>2022-10-29T09:29:29.030</time></trkpt><trkpt lat="55.7425000" lon="49.1324100"><time>2022-10-29T09:29:31.060</time></trkpt><trkpt lat="55.7424083" lon="49.1323917"><time>2022-10-29T09:29:33.057</time></trkpt><trkpt lat="55.7423567" lon="49.1323867"><time>2022-10-29T09:29:34.053</time></trkpt><trkpt lat="55.7423083" lon="49.1323900"><time>2022-10-29T09:29:35.057</time></trkpt><trkpt lat="55.7422167" lon="49.1324033"><time>2022-10-29T09:29:37.057</time></trkpt><trkpt lat="55.7421567" lon="49.1324033"><time>2022-10-29T09:29:38.057</time></trkpt><trkpt lat="55.7421050" lon="49.1324083"><time>2022-10-29T09:29:39.057</time></trkpt><trkpt lat="55.7420517" lon="49.1324117"><time>2022-10-29T09:29:40.053</time></trkpt><trkpt lat="55.7419983" lon="49.1324150"><time>2022-10-29T09:29:41.053</time></trkpt><trkpt lat="55.7419450" lon="49.1324217"><time>2022-10-29T09:29:42.057</time></trkpt><trkpt lat="55.7418933" lon="49.1324267"><time>2022-10-29T09:29:43.057</time></trkpt><trkpt lat="55.7418450" lon="49.1324300"><time>2022-10-29T09:29:44.057</time></trkpt><trkpt lat="55.7417983" lon="49.1324250"><time>2022-10-29T09:29:45.057</time></trkpt><trkpt lat="55.7417533" lon="49.1324250"><time>2022-10-29T09:29:46.057</time></trkpt><trkpt lat="55.7417083" lon="49.1324283"><time>2022-10-29T09:29:47.057</time></trkpt><trkpt lat="55.7416600" lon="49.1324417"><time>2022-10-29T09:29:48.050</time></trkpt><trkpt lat="55.7416067" lon="49.1324583"><time>2022-10-29T09:29:49.057</time></trkpt><trkpt lat="55.7415550" lon="49.1324717"><time>2022-10-29T09:29:50.057</time></trkpt><trkpt lat="55.7415017" lon="49.1324917"><time>2022-10-29T09:29:51.060</time></trkpt><trkpt lat="55.7414517" lon="49.1325117"><time>2022-10-29T09:29:52.057</time></trkpt><trkpt lat="55.7413700" lon="49.1325250"><time>2022-10-29T09:29:54.047</time></trkpt><trkpt lat="55.7413167" lon="49.1325567"><time>2022-10-29T09:29:55.057</time></trkpt><trkpt lat="55.7412650" lon="49.1325900"><time>2022-10-29T09:29:56.057</time></trkpt><trkpt lat="55.7412233" lon="49.1326217"><time>2022-10-29T09:29:57.060</time></trkpt><trkpt lat="55.7411633" lon="49.1327017"><time>2022-10-29T09:29:59.047</time></trkpt><trkpt lat="55.7411017" lon="49.1327800"><time>2022-10-29T09:30:01.057</time></trkpt><trkpt lat="55.7410367" lon="49.1328033"><time>2022-10-29T09:30:03.057</time></trkpt><trkpt lat="55.7409600" lon="49.1328050"><time>2022-10-29T09:30:05.047</time></trkpt><trkpt lat="55.7409000" lon="49.1328183"><time>2022-10-29T09:30:07.050</time></trkpt><trkpt lat="55.7408417" lon="49.1328400"><time>2022-10-29T09:30:09.057</time></trkpt><trkpt lat="55.7407800" lon="49.1328400"><time>2022-10-29T09:30:11.057</time></trkpt><trkpt lat="55.7407133" lon="49.1328433"><time>2022-10-29T09:30:13.057</time></trkpt><trkpt lat="55.7406383" lon="49.1328617"><time>2022-10-29T09:30:15.057</time></trkpt><trkpt lat="55.7405750" lon="49.1328650"><time>2022-10-29T09:30:17.053</time></trkpt><trkpt lat="55.7405017" lon="49.1328783"><time>2022-10-29T09:30:19.057</time></trkpt><trkpt lat="55.7404317" lon="49.1329067"><time>2022-10-29T09:30:21.057</time></trkpt><trkpt lat="55.7403600" lon="49.1329033"><time>2022-10-29T09:30:23.060</time></trkpt><trkpt lat="55.7402867" lon="49.1329067"><time>2022-10-29T09:30:25.057</time></trkpt><trkpt lat="55.7402083" lon="49.1329167"><time>2022-10-29T09:30:27.060</time></trkpt><trkpt lat="55.7401217" lon="49.1329467"><time>2022-10-29T09:30:29.060</time></trkpt><trkpt lat="55.7400350" lon="49.1329733"><time>2022-10-29T09:30:31.057</time></trkpt><trkpt lat="55.7399600" lon="49.1330300"><time>2022-10-29T09:30:33.057</time></trkpt><trkpt lat="55.7399083" lon="49.1330650"><time>2022-10-29T09:30:35.057</time></trkpt><trkpt lat="55.7398550" lon="49.1330933"><time>2022-10-29T09:30:37.057</time></trkpt><trkpt lat="55.7398000" lon="49.1331250"><time>2022-10-29T09:30:39.057</time></trkpt><trkpt lat="55.7397333" lon="49.1331400"><time>2022-10-29T09:30:41.057</time></trkpt><trkpt lat="55.7396683" lon="49.1331350"><time>2022-10-29T09:30:43.057</time></trkpt><trkpt lat="55.7396450" lon="49.1330317"><time>2022-10-29T09:30:45.057</time></trkpt><trkpt lat="55.7396183" lon="49.1329017"><time>2022-10-29T09:30:47.047</time></trkpt><trkpt lat="55.7395850" lon="49.1327683"><time>2022-10-29T09:30:49.037</time></trkpt><trkpt lat="55.7395550" lon="49.1326333"><time>2022-10-29T09:30:51.057</time></trkpt><trkpt lat="55.7395367" lon="49.1325583"><time>2022-10-29T09:30:52.057</time></trkpt><trkpt lat="55.7395200" lon="49.1324750"><time>2022-10-29T09:30:53.053</time></trkpt><trkpt lat="55.7395117" lon="49.1323183"><time>2022-10-29T09:30:55.050</time></trkpt><trkpt lat="55.7395050" lon="49.1322300"><time>2022-10-29T09:30:56.050</time></trkpt><trkpt lat="55.7394983" lon="49.1321283"><time>2022-10-29T09:30:57.050</time></trkpt><trkpt lat="55.7394933" lon="49.1320383"><time>2022-10-29T09:30:58.043</time></trkpt><trkpt lat="55.7394867" lon="49.1319350"><time>2022-10-29T09:30:59.053</time></trkpt><trkpt lat="55.7394750" lon="49.1318350"><time>2022-10-29T09:31:00.057</time></trkpt><trkpt lat="55.7394583" lon="49.1317183"><time>2022-10-29T09:31:01.050</time></trkpt><trkpt lat="55.7394500" lon="49.1316067"><time>2022-10-29T09:31:02.053</time></trkpt><trkpt lat="55.7394400" lon="49.1315117"><time>2022-10-29T09:31:03.050</time></trkpt><trkpt lat="55.7394400" lon="49.1314183"><time>2022-10-29T09:31:04.050</time></trkpt><trkpt lat="55.7394400" lon="49.1313117"><time>2022-10-29T09:31:05.063</time></trkpt><trkpt lat="55.7394417" lon="49.1313100"><time>2022-10-29T09:31:06.050</time></trkpt><trkpt lat="55.7394850" lon="49.1312150"><time>2022-10-29T09:31:08.547</time></trkpt><trkpt lat="55.7395083" lon="49.1311433"><time>2022-10-29T09:31:10.047</time></trkpt><trkpt lat="55.7395233" lon="49.1310217"><time>2022-10-29T09:31:12.050</time></trkpt><trkpt lat="55.7395300" lon="49.1309300"><time>2022-10-29T09:31:13.047</time></trkpt><trkpt lat="55.7395333" lon="49.1308200"><time>2022-10-29T09:31:14.047</time></trkpt><trkpt lat="55.7395183" lon="49.1306800"><time>2022-10-29T09:31:15.050</time></trkpt><trkpt lat="55.7395083" lon="49.1305767"><time>2022-10-29T09:31:16.047</time></trkpt><trkpt lat="55.7394833" lon="49.1304517"><time>2022-10-29T09:31:17.047</time></trkpt><trkpt lat="55.7394667" lon="49.1303667"><time>2022-10-29T09:31:18.047</time></trkpt><trkpt lat="55.7394617" lon="49.1302500"><time>2022-10-29T09:31:20.047</time></trkpt><trkpt lat="55.7394817" lon="49.1301467"><time>2022-10-29T09:31:22.050</time></trkpt><trkpt lat="55.7395000" lon="49.1299917"><time>2022-10-29T09:31:24.047</time></trkpt><trkpt lat="55.7395000" lon="49.1298750"><time>2022-10-29T09:31:25.043</time></trkpt><trkpt lat="55.7395117" lon="49.1297683"><time>2022-10-29T09:31:26.047</time></trkpt><trkpt lat="55.7395267" lon="49.1296733"><time>2022-10-29T09:31:27.057</time></trkpt><trkpt lat="55.7392767" lon="49.1301417"><time>2022-10-29T09:31:28.047</time></trkpt><trkpt lat="55.7395250" lon="49.1296817"><time>2022-10-29T09:31:28.953</time></trkpt><trkpt lat="55.7395233" lon="49.1296817"><time>2022-10-29T09:31:29.840</time></trkpt><trkpt lat="55.7395583" lon="49.1296050"><time>2022-10-29T09:31:31.037</time></trkpt><trkpt lat="55.7396033" lon="49.1295000"><time>2022-10-29T09:31:32.047</time></trkpt><trkpt lat="55.7396267" lon="49.1293783"><time>2022-10-29T09:31:33.047</time></trkpt><trkpt lat="55.7396517" lon="49.1292600"><time>2022-10-29T09:31:34.047</time></trkpt><trkpt lat="55.7396733" lon="49.1291800"><time>2022-10-29T09:31:35.023</time></trkpt><trkpt lat="55.7396917" lon="49.1291050"><time>2022-10-29T09:31:36.050</time></trkpt><trkpt lat="55.7397150" lon="49.1290200"><time>2022-10-29T09:31:37.047</time></trkpt><trkpt lat="55.7397450" lon="49.1289217"><time>2022-10-29T09:31:38.060</time></trkpt><trkpt lat="55.7397433" lon="49.1289267"><time>2022-10-29T09:31:39.027</time></trkpt><trkpt lat="55.7397967" lon="49.1286733"><time>2022-10-29T09:31:40.037</time></trkpt><trkpt lat="55.7398083" lon="49.1285817"><time>2022-10-29T09:31:41.037</time></trkpt><trkpt lat="55.7398250" lon="49.1285067"><time>2022-10-29T09:31:42.047</time></trkpt><trkpt lat="55.7507550" lon="49.1318850"><time>2022-10-29T09:31:44.057</time></trkpt><trkpt lat="55.7398667" lon="49.1284233"><time>2022-10-29T09:31:44.093</time></trkpt><trkpt lat="55.7399267" lon="49.1283150"><time>2022-10-29T09:31:46.057</time></trkpt><trkpt lat="55.7399283" lon="49.1283133"><time>2022-10-29T09:31:47.030</time></trkpt><trkpt lat="55.7399767" lon="49.1283183"><time>2022-10-29T09:31:48.550</time></trkpt><trkpt lat="55.7400350" lon="49.1282883"><time>2022-10-29T09:31:49.537</time></trkpt><trkpt lat="55.7400800" lon="49.1282767"><time>2022-10-29T09:31:58.047</time></trkpt><trkpt lat="55.7400383" lon="49.1283200"><time>2022-10-29T09:32:02.050</time></trkpt><trkpt lat="55.7399917" lon="49.1283750"><time>2022-10-29T09:32:04.050</time></trkpt><trkpt lat="55.7399383" lon="49.1284317"><time>2022-10-29T09:32:06.050</time></trkpt><trkpt lat="55.7398800" lon="49.1284967"><time>2022-10-29T09:32:08.047</time></trkpt><trkpt lat="55.7398333" lon="49.1285750"><time>2022-10-29T09:32:10.047</time></trkpt><trkpt lat="55.7397833" lon="49.1286900"><time>2022-10-29T09:32:12.043</time></trkpt><trkpt lat="55.7397650" lon="49.1287650"><time>2022-10-29T09:32:13.047</time></trkpt><trkpt lat="55.7397117" lon="49.1288667"><time>2022-10-29T09:32:15.050</time></trkpt><trkpt lat="55.7396667" lon="49.1289767"><time>2022-10-29T09:32:17.057</time></trkpt><trkpt lat="55.7396333" lon="49.1291100"><time>2022-10-29T09:32:19.057</time></trkpt><trkpt lat="55.7396150" lon="49.1291850"><time>2022-10-29T09:32:20.057</time></trkpt><trkpt lat="55.7395967" lon="49.1292600"><time>2022-10-29T09:32:21.057</time></trkpt><trkpt lat="55.7395700" lon="49.1294017"><time>2022-10-29T09:32:23.057</time></trkpt><trkpt lat="55.7395217" lon="49.1295250"><time>2022-10-29T09:32:25.060</time></trkpt><trkpt lat="55.7394800" lon="49.1296400"><time>2022-10-29T09:32:27.057</time></trkpt><trkpt lat="55.7394300" lon="49.1297433"><time>2022-10-29T09:32:29.057</time></trkpt><trkpt lat="55.7394067" lon="49.1298400"><time>2022-10-29T09:32:31.060</time></trkpt><trkpt lat="55.7393900" lon="49.1299383"><time>2022-10-29T09:32:33.057</time></trkpt><trkpt lat="55.7393783" lon="49.1300500"><time>2022-10-29T09:32:35.057</time></trkpt><trkpt lat="55.7393733" lon="49.1301617"><time>2022-10-29T09:32:37.057</time></trkpt><trkpt lat="55.7393650" lon="49.1302450"><time>2022-10-29T09:32:44.057</time></trkpt><trkpt lat="55.7393550" lon="49.1303317"><time>2022-10-29T09:32:51.057</time></trkpt><trkpt lat="55.7393533" lon="49.1304183"><time>2022-10-29T09:32:53.057</time></trkpt><trkpt lat="55.7393567" lon="49.1305467"><time>2022-10-29T09:32:55.060</time></trkpt><trkpt lat="55.7393750" lon="49.1307000"><time>2022-10-29T09:32:57.057</time></trkpt><trkpt lat="55.7393817" lon="49.1307833"><time>2022-10-29T09:32:58.057</time></trkpt><trkpt lat="55.7393817" lon="49.1308650"><time>2022-10-29T09:32:59.057</time></trkpt><trkpt lat="55.7393850" lon="49.1309483"><time>2022-10-29T09:33:00.057</time></trkpt><trkpt lat="55.7394000" lon="49.1310950"><time>2022-10-29T09:33:02.057</time></trkpt><trkpt lat="55.7394067" lon="49.1312483"><time>2022-10-29T09:33:04.057</time></trkpt><trkpt lat="55.7394100" lon="49.1313333"><time>2022-10-29T09:33:05.053</time></trkpt><trkpt lat="55.7394183" lon="49.1314250"><time>2022-10-29T09:33:06.057</time></trkpt><trkpt lat="55.7394217" lon="49.1315217"><time>2022-10-29T09:33:07.057</time></trkpt><trkpt lat="55.7394267" lon="49.1316283"><time>2022-10-29T09:33:08.053</time></trkpt><trkpt lat="55.7394300" lon="49.1317400"><time>2022-10-29T09:33:09.057</time></trkpt><trkpt lat="55.7394333" lon="49.1318433"><time>2022-10-29T09:33:10.053</time></trkpt><trkpt lat="55.7394383" lon="49.1319433"><time>2022-10-29T09:33:11.057</time></trkpt><trkpt lat="55.7394417" lon="49.1320433"><time>2022-10-29T09:33:12.053</time></trkpt><trkpt lat="55.7394467" lon="49.1321417"><time>2022-10-29T09:33:13.053</time></trkpt><trkpt lat="55.7394550" lon="49.1322433"><time>2022-10-29T09:33:14.053</time></trkpt><trkpt lat="55.7394633" lon="49.1323350"><time>2022-10-29T09:33:15.053</time></trkpt><trkpt lat="55.7394633" lon="49.1324200"><time>2022-10-29T09:33:16.057</time></trkpt><trkpt lat="55.7394883" lon="49.1325850"><time>2022-10-29T09:33:18.053</time></trkpt><trkpt lat="55.7394967" lon="49.1326933"><time>2022-10-29T09:33:19.057</time></trkpt><trkpt lat="55.7395050" lon="49.1327917"><time>2022-10-29T09:33:20.057</time></trkpt><trkpt lat="55.7395200" lon="49.1328783"><time>2022-10-29T09:33:21.057</time></trkpt><trkpt lat="55.7395400" lon="49.1330083"><time>2022-10-29T09:33:23.060</time></trkpt><trkpt lat="55.7395350" lon="49.1331083"><time>2022-10-29T09:33:25.057</time></trkpt><trkpt lat="55.7395000" lon="49.1331783"><time>2022-10-29T09:33:28.053</time></trkpt><trkpt lat="55.7394483" lon="49.1331883"><time>2022-10-29T09:33:30.057</time></trkpt><trkpt lat="55.7393983" lon="49.1331933"><time>2022-10-29T09:33:32.053</time></trkpt><trkpt lat="55.7393400" lon="49.1331867"><time>2022-10-29T09:33:34.053</time></trkpt><trkpt lat="55.7392317" lon="49.1332050"><time>2022-10-29T09:33:36.047</time></trkpt><trkpt lat="55.7391517" lon="49.1332183"><time>2022-10-29T09:33:37.053</time></trkpt><trkpt lat="55.7390883" lon="49.1332333"><time>2022-10-29T09:33:38.050</time></trkpt><trkpt lat="55.7390267" lon="49.1332500"><time>2022-10-29T09:33:39.053</time></trkpt><trkpt lat="55.7389600" lon="49.1332400"><time>2022-10-29T09:33:40.057</time></trkpt><trkpt lat="55.7389083" lon="49.1332500"><time>2022-10-29T09:33:41.060</time></trkpt><trkpt lat="55.7388550" lon="49.1332617"><time>2022-10-29T09:33:42.060</time></trkpt><trkpt lat="55.7388000" lon="49.1332683"><time>2022-10-29T09:33:43.057</time></trkpt><trkpt lat="55.7387467" lon="49.1332733"><time>2022-10-29T09:33:44.057</time></trkpt><trkpt lat="55.7386950" lon="49.1332767"><time>2022-10-29T09:33:45.060</time></trkpt><trkpt lat="55.7386433" lon="49.1332817"><time>2022-10-29T09:33:46.060</time></trkpt><trkpt lat="55.7385883" lon="49.1332800"><time>2022-10-29T09:33:47.060</time></trkpt><trkpt lat="55.7385367" lon="49.1332750"><time>2022-10-29T09:33:48.060</time></trkpt><trkpt lat="55.7384900" lon="49.1332767"><time>2022-10-29T09:33:49.060</time></trkpt><trkpt lat="55.7384133" lon="49.1333033"><time>2022-10-29T09:33:51.057</time></trkpt><trkpt lat="55.7383317" lon="49.1333350"><time>2022-10-29T09:33:53.060</time></trkpt><trkpt lat="55.7382467" lon="49.1333583"><time>2022-10-29T09:33:55.050</time></trkpt><trkpt lat="55.7381967" lon="49.1333800"><time>2022-10-29T09:33:56.053</time></trkpt><trkpt lat="55.7381433" lon="49.1334033"><time>2022-10-29T09:33:57.057</time></trkpt><trkpt lat="55.7380933" lon="49.1334183"><time>2022-10-29T09:33:58.053</time></trkpt><trkpt lat="55.7380417" lon="49.1334367"><time>2022-10-29T09:33:59.060</time></trkpt><trkpt lat="55.7379833" lon="49.1334600"><time>2022-10-29T09:34:00.057</time></trkpt><trkpt lat="55.7379300" lon="49.1334817"><time>2022-10-29T09:34:01.057</time></trkpt><trkpt lat="55.7378800" lon="49.1334817"><time>2022-10-29T09:34:02.057</time></trkpt><trkpt lat="55.7378283" lon="49.1334800"><time>2022-10-29T09:34:03.057</time></trkpt><trkpt lat="55.7377800" lon="49.1334800"><time>2022-10-29T09:34:04.057</time></trkpt><trkpt lat="55.7376933" lon="49.1334917"><time>2022-10-29T09:34:06.057</time></trkpt><trkpt lat="55.7376483" lon="49.1334967"><time>2022-10-29T09:34:07.057</time></trkpt><trkpt lat="55.7375633" lon="49.1335033"><time>2022-10-29T09:34:09.057</time></trkpt><trkpt lat="55.7374750" lon="49.1335033"><time>2022-10-29T09:34:11.057</time></trkpt><trkpt lat="55.7374267" lon="49.1335050"><time>2022-10-29T09:34:12.057</time></trkpt><trkpt lat="55.7373717" lon="49.1335050"><time>2022-10-29T09:34:13.060</time></trkpt><trkpt lat="55.7373200" lon="49.1335150"><time>2022-10-29T09:34:14.057</time></trkpt><trkpt lat="55.7372700" lon="49.1335167"><time>2022-10-29T09:34:15.057</time></trkpt><trkpt lat="55.7372233" lon="49.1335317"><time>2022-10-29T09:34:16.057</time></trkpt><trkpt lat="55.7371767" lon="49.1335450"><time>2022-10-29T09:34:17.060</time></trkpt><trkpt lat="55.7371317" lon="49.1335567"><time>2022-10-29T09:34:18.040</time></trkpt><trkpt lat="55.7370467" lon="49.1335600"><time>2022-10-29T09:34:20.057</time></trkpt><trkpt lat="55.7369667" lon="49.1335750"><time>2022-10-29T09:34:22.060</time></trkpt><trkpt lat="55.7368950" lon="49.1335817"><time>2022-10-29T09:34:24.057</time></trkpt><trkpt lat="55.7368233" lon="49.1336000"><time>2022-10-29T09:34:26.057</time></trkpt><trkpt lat="55.7367467" lon="49.1336150"><time>2022-10-29T09:34:28.057</time></trkpt><trkpt lat="55.7366667" lon="49.1336150"><time>2022-10-29T09:34:30.057</time></trkpt><trkpt lat="55.7366150" lon="49.1335983"><time>2022-10-29T09:34:31.040</time></trkpt><trkpt lat="55.7365583" lon="49.1335983"><time>2022-10-29T09:34:32.060</time></trkpt><trkpt lat="55.7365033" lon="49.1336050"><time>2022-10-29T09:34:33.057</time></trkpt><trkpt lat="55.7364483" lon="49.1336267"><time>2022-10-29T09:34:34.057</time></trkpt><trkpt lat="55.7363950" lon="49.1336483"><time>2022-10-29T09:34:35.057</time></trkpt><trkpt lat="55.7363450" lon="49.1336600"><time>2022-10-29T09:34:36.060</time></trkpt><trkpt lat="55.7362917" lon="49.1336700"><time>2022-10-29T09:34:37.057</time></trkpt><trkpt lat="55.7362433" lon="49.1336767"><time>2022-10-29T09:34:38.057</time></trkpt><trkpt lat="55.7361983" lon="49.1336783"><time>2022-10-29T09:34:39.057</time></trkpt><trkpt lat="55.7361517" lon="49.1336950"><time>2022-10-29T09:34:40.057</time></trkpt><trkpt lat="55.7360767" lon="49.1337000"><time>2022-10-29T09:34:42.057</time></trkpt><trkpt lat="55.7360000" lon="49.1337083"><time>2022-10-29T09:34:44.060</time></trkpt><trkpt lat="55.7359533" lon="49.1337150"><time>2022-10-29T09:34:45.060</time></trkpt><trkpt lat="55.7359017" lon="49.1337233"><time>2022-10-29T09:34:46.060</time></trkpt><trkpt lat="55.7358517" lon="49.1337300"><time>2022-10-29T09:34:47.060</time></trkpt><trkpt lat="55.7358017" lon="49.1337400"><time>2022-10-29T09:34:48.060</time></trkpt><trkpt lat="55.7357533" lon="49.1337567"><time>2022-10-29T09:34:49.060</time></trkpt><trkpt lat="55.7357033" lon="49.1337767"><time>2022-10-29T09:34:50.057</time></trkpt><trkpt lat="55.7356533" lon="49.1337967"><time>2022-10-29T09:34:51.060</time></trkpt><trkpt lat="55.7356083" lon="49.1338083"><time>2022-10-29T09:34:52.057</time></trkpt><trkpt lat="55.7355550" lon="49.1338250"><time>2022-10-29T09:34:53.057</time></trkpt><trkpt lat="55.7355067" lon="49.1338317"><time>2022-10-29T09:34:54.060</time></trkpt><trkpt lat="55.7354600" lon="49.1338367"><time>2022-10-29T09:34:55.057</time></trkpt><trkpt lat="55.7354150" lon="49.1338433"><time>2022-10-29T09:34:56.057</time></trkpt><trkpt lat="55.7353700" lon="49.1338400"><time>2022-10-29T09:34:57.060</time></trkpt><trkpt lat="55.7352850" lon="49.1338200"><time>2022-10-29T09:34:59.057</time></trkpt><trkpt lat="55.7352017" lon="49.1338050"><time>2022-10-29T09:35:01.057</time></trkpt><trkpt lat="55.7351333" lon="49.1338017"><time>2022-10-29T09:35:03.057</time></trkpt><trkpt lat="55.7350750" lon="49.1338017"><time>2022-10-29T09:35:05.053</time></trkpt><trkpt lat="55.7350200" lon="49.1338000"><time>2022-10-29T09:35:07.060</time></trkpt><trkpt lat="55.7349600" lon="49.1338100"><time>2022-10-29T09:35:09.043</time></trkpt><trkpt lat="55.7349033" lon="49.1338167"><time>2022-10-29T09:35:11.053</time></trkpt><trkpt lat="55.7348367" lon="49.1337967"><time>2022-10-29T09:35:14.057</time></trkpt><trkpt lat="55.7347767" lon="49.1337817"><time>2022-10-29T09:35:16.060</time></trkpt><trkpt lat="55.7347050" lon="49.1337967"><time>2022-10-29T09:35:18.047</time></trkpt><trkpt lat="55.7346150" lon="49.1338033"><time>2022-10-29T09:35:20.060</time></trkpt><trkpt lat="55.7345667" lon="49.1338100"><time>2022-10-29T09:35:21.057</time></trkpt><trkpt lat="55.7345167" lon="49.1338117"><time>2022-10-29T09:35:22.060</time></trkpt><trkpt lat="55.7344667" lon="49.1338200"><time>2022-10-29T09:35:23.057</time></trkpt><trkpt lat="55.7344200" lon="49.1338250"><time>2022-10-29T09:35:24.057</time></trkpt><trkpt lat="55.7343717" lon="49.1338317"><time>2022-10-29T09:35:25.060</time></trkpt><trkpt lat="55.7343217" lon="49.1338350"><time>2022-10-29T09:35:26.057</time></trkpt><trkpt lat="55.7342700" lon="49.1338367"><time>2022-10-29T09:35:27.057</time></trkpt><trkpt lat="55.7342200" lon="49.1338450"><time>2022-10-29T09:35:28.057</time></trkpt><trkpt lat="55.7341683" lon="49.1338517"><time>2022-10-29T09:35:29.050</time></trkpt><trkpt lat="55.7341200" lon="49.1338533"><time>2022-10-29T09:35:30.060</time></trkpt><trkpt lat="55.7340700" lon="49.1338550"><time>2022-10-29T09:35:31.060</time></trkpt><trkpt lat="55.7340200" lon="49.1338550"><time>2022-10-29T09:35:32.057</time></trkpt><trkpt lat="55.7339700" lon="49.1338533"><time>2022-10-29T09:35:33.060</time></trkpt><trkpt lat="55.7339150" lon="49.1338550"><time>2022-10-29T09:35:34.057</time></trkpt><trkpt lat="55.7338617" lon="49.1338533"><time>2022-10-29T09:35:35.073</time></trkpt><trkpt lat="55.7338600" lon="49.1338533"><time>2022-10-29T09:35:36.040</time></trkpt><trkpt lat="55.7338067" lon="49.1338650"><time>2022-10-29T09:35:37.040</time></trkpt><trkpt lat="55.7337467" lon="49.1338933"><time>2022-10-29T09:35:38.047</time></trkpt><trkpt lat="55.7336450" lon="49.1339117"><time>2022-10-29T09:35:40.043</time></trkpt><trkpt lat="55.7335783" lon="49.1338983"><time>2022-10-29T09:35:41.047</time></trkpt><trkpt lat="55.7335200" lon="49.1338783"><time>2022-10-29T09:35:42.043</time></trkpt><trkpt lat="55.7334500" lon="49.1338583"><time>2022-10-29T09:35:44.047</time></trkpt><trkpt lat="55.7334033" lon="49.1338633"><time>2022-10-29T09:35:47.037</time></trkpt><trkpt lat="55.7333500" lon="49.1338700"><time>2022-10-29T09:35:49.050</time></trkpt><trkpt lat="55.7332850" lon="49.1339000"><time>2022-10-29T09:35:51.050</time></trkpt><trkpt lat="55.7332333" lon="49.1339133"><time>2022-10-29T09:35:53.027</time></trkpt><trkpt lat="55.7331750" lon="49.1339500"><time>2022-10-29T09:35:55.020</time></trkpt><trkpt lat="55.7331233" lon="49.1339117"><time>2022-10-29T09:35:57.040</time></trkpt><trkpt lat="55.7330667" lon="49.1338067"><time>2022-10-29T09:35:59.053</time></trkpt><trkpt lat="55.7330067" lon="49.1337917"><time>2022-10-29T09:36:00.033</time></trkpt><trkpt lat="55.7329450" lon="49.1338050"><time>2022-10-29T09:36:01.057</time></trkpt><trkpt lat="55.7329450" lon="49.1338050"><time>2022-10-29T09:36:02.030</time></trkpt><trkpt lat="55.7328983" lon="49.1338117"><time>2022-10-29T09:36:04.550</time></trkpt><trkpt lat="55.7328133" lon="49.1338133"><time>2022-10-29T09:36:06.043</time></trkpt><trkpt lat="55.7327283" lon="49.1338350"><time>2022-10-29T09:36:07.043</time></trkpt><trkpt lat="55.7326717" lon="49.1338383"><time>2022-10-29T09:36:08.050</time></trkpt><trkpt lat="55.7325800" lon="49.1338717"><time>2022-10-29T09:36:09.047</time></trkpt><trkpt lat="55.7325283" lon="49.1338867"><time>2022-10-29T09:36:10.053</time></trkpt><trkpt lat="55.7325283" lon="49.1338883"><time>2022-10-29T09:36:11.017</time></trkpt><trkpt lat="55.7324667" lon="49.1339333"><time>2022-10-29T09:36:14.047</time></trkpt><trkpt lat="55.7324067" lon="49.1339250"><time>2022-10-29T09:36:16.043</time></trkpt><trkpt lat="55.7323550" lon="49.1338917"><time>2022-10-29T09:36:18.047</time></trkpt><trkpt lat="55.7323017" lon="49.1338700"><time>2022-10-29T09:36:20.047</time></trkpt><trkpt lat="55.7507550" lon="49.1318850"><time>2022-10-29T09:36:22.057</time></trkpt><trkpt lat="55.7322333" lon="49.1338467"><time>2022-10-29T09:36:22.103</time></trkpt><trkpt lat="55.7321800" lon="49.1338333"><time>2022-10-29T09:36:24.057</time></trkpt><trkpt lat="55.7321800" lon="49.1338450"><time>2022-10-29T09:36:25.517</time></trkpt><trkpt lat="55.7321583" lon="49.1339317"><time>2022-10-29T09:36:28.047</time></trkpt><trkpt lat="55.7321083" lon="49.1339750"><time>2022-10-29T09:36:31.033</time></trkpt><trkpt lat="55.7320650" lon="49.1339350"><time>2022-10-29T09:36:33.047</time></trkpt><trkpt lat="55.7319983" lon="49.1338750"><time>2022-10-29T09:36:35.047</time></trkpt><trkpt lat="55.7319233" lon="49.1338717"><time>2022-10-29T09:36:37.047</time></trkpt><trkpt lat="55.7318467" lon="49.1338633"><time>2022-10-29T09:36:39.047</time></trkpt><trkpt lat="55.7317817" lon="49.1338517"><time>2022-10-29T09:36:41.043</time></trkpt><trkpt lat="55.7317233" lon="49.1338400"><time>2022-10-29T09:36:43.050</time></trkpt><trkpt lat="55.7316600" lon="49.1338433"><time>2022-10-29T09:36:45.047</time></trkpt><trkpt lat="55.7315983" lon="49.1338483"><time>2022-10-29T09:36:47.050</time></trkpt><trkpt lat="55.7315533" lon="49.1338550"><time>2022-10-29T09:36:50.047</time></trkpt><trkpt lat="55.7315067" lon="49.1338350"><time>2022-10-29T09:36:59.057</time></trkpt><trkpt lat="55.7314617" lon="49.1338267"><time>2022-10-29T09:37:49.057</time></trkpt><trkpt lat="55.7314033" lon="49.1338433"><time>2022-10-29T09:37:52.040</time></trkpt><trkpt lat="55.7313500" lon="49.1338567"><time>2022-10-29T09:37:54.057</time></trkpt><trkpt lat="55.7313017" lon="49.1338667"><time>2022-10-29T09:37:56.057</time></trkpt><trkpt lat="55.7312417" lon="49.1338650"><time>2022-10-29T09:37:58.057</time></trkpt><trkpt lat="55.7311783" lon="49.1338617"><time>2022-10-29T09:38:00.060</time></trkpt><trkpt lat="55.7311100" lon="49.1338600"><time>2022-10-29T09:38:02.057</time></trkpt><trkpt lat="55.7310367" lon="49.1338650"><time>2022-10-29T09:38:04.057</time></trkpt><trkpt lat="55.7309833" lon="49.1338567"><time>2022-10-29T09:38:06.057</time></trkpt><trkpt lat="55.7309250" lon="49.1338400"><time>2022-10-29T09:38:08.057</time></trkpt><trkpt lat="55.7308700" lon="49.1338233"><time>2022-10-29T09:38:10.057</time></trkpt><trkpt lat="55.7308550" lon="49.1337167"><time>2022-10-29T09:38:13.057</time></trkpt><trkpt lat="55.7308550" lon="49.1336017"><time>2022-10-29T09:38:16.057</time></trkpt><trkpt lat="55.7308500" lon="49.1335167"><time>2022-10-29T09:38:18.057</time></trkpt><trkpt lat="55.7308400" lon="49.1334217"><time>2022-10-29T09:38:20.057</time></trkpt><trkpt lat="55.7308417" lon="49.1333333"><time>2022-10-29T09:38:22.057</time></trkpt><trkpt lat="55.7308533" lon="49.1332183"><time>2022-10-29T09:38:24.060</time></trkpt><trkpt lat="55.7308700" lon="49.1330917"><time>2022-10-29T09:38:26.057</time></trkpt><trkpt lat="55.7308867" lon="49.1329617"><time>2022-10-29T09:38:28.053</time></trkpt><trkpt lat="55.7308850" lon="49.1328183"><time>2022-10-29T09:38:30.057</time></trkpt><trkpt lat="55.7308800" lon="49.1326617"><time>2022-10-29T09:38:32.057</time></trkpt><trkpt lat="55.7308783" lon="49.1324983"><time>2022-10-29T09:38:34.060</time></trkpt><trkpt lat="55.7308650" lon="49.1324033"><time>2022-10-29T09:38:35.057</time></trkpt><trkpt lat="55.7308550" lon="49.1323083"><time>2022-10-29T09:38:36.053</time></trkpt><trkpt lat="55.7308483" lon="49.1322117"><time>2022-10-29T09:38:37.057</time></trkpt><trkpt lat="55.7308433" lon="49.1321167"><time>2022-10-29T09:38:38.057</time></trkpt><trkpt lat="55.7308417" lon="49.1320250"><time>2022-10-29T09:38:39.057</time></trkpt><trkpt lat="55.7308467" lon="49.1319417"><time>2022-10-29T09:38:40.057</time></trkpt><trkpt lat="55.7308483" lon="49.1318617"><time>2022-10-29T09:38:41.057</time></trkpt><trkpt lat="55.7308483" lon="49.1317800"><time>2022-10-29T09:38:42.053</time></trkpt><trkpt lat="55.7308550" lon="49.1316267"><time>2022-10-29T09:38:44.050</time></trkpt><trkpt lat="55.7308600" lon="49.1314767"><time>2022-10-29T09:38:46.060</time></trkpt><trkpt lat="55.7308650" lon="49.1313167"><time>2022-10-29T09:38:48.057</time></trkpt><trkpt lat="55.7308667" lon="49.1312367"><time>2022-10-29T09:38:49.057</time></trkpt><trkpt lat="55.7308733" lon="49.1311567"><time>2022-10-29T09:38:50.053</time></trkpt><trkpt lat="55.7308817" lon="49.1310733"><time>2022-10-29T09:38:51.057</time></trkpt><trkpt lat="55.7308900" lon="49.1309900"><time>2022-10-29T09:38:52.053</time></trkpt><trkpt lat="55.7308933" lon="49.1309033"><time>2022-10-29T09:38:53.057</time></trkpt><trkpt lat="55.7308967" lon="49.1308183"><time>2022-10-29T09:38:54.057</time></trkpt><trkpt lat="55.7308983" lon="49.1307350"><time>2022-10-29T09:38:55.057</time></trkpt><trkpt lat="55.7309000" lon="49.1306517"><time>2022-10-29T09:38:56.057</time></trkpt><trkpt lat="55.7309000" lon="49.1305650"><time>2022-10-29T09:38:57.060</time></trkpt><trkpt lat="55.7308983" lon="49.1304767"><time>2022-10-29T09:38:58.060</time></trkpt><trkpt lat="55.7308950" lon="49.1303883"><time>2022-10-29T09:38:59.057</time></trkpt><trkpt lat="55.7308917" lon="49.1303067"><time>2022-10-29T09:39:00.057</time></trkpt><trkpt lat="55.7308817" lon="49.1301633"><time>2022-10-29T09:39:02.060</time></trkpt><trkpt lat="55.7308750" lon="49.1300400"><time>2022-10-29T09:39:04.060</time></trkpt><trkpt lat="55.7308850" lon="49.1299433"><time>2022-10-29T09:39:07.060</time></trkpt><trkpt lat="55.7308667" lon="49.1298633"><time>2022-10-29T09:39:11.060</time></trkpt><trkpt lat="55.7308550" lon="49.1297800"><time>2022-10-29T09:39:17.053</time></trkpt><trkpt lat="55.7308650" lon="49.1296867"><time>2022-10-29T09:39:24.057</time></trkpt><trkpt lat="55.7308717" lon="49.1295967"><time>2022-10-29T09:39:30.057</time></trkpt><trkpt lat="55.7308783" lon="49.1295133"><time>2022-10-29T09:39:38.060</time></trkpt><trkpt lat="55.7308833" lon="49.1294233"><time>2022-10-29T09:39:42.053</time></trkpt><trkpt lat="55.7308883" lon="49.1293333"><time>2022-10-29T09:39:46.057</time></trkpt><trkpt lat="55.7308900" lon="49.1292483"><time>2022-10-29T09:39:50.057</time></trkpt><trkpt lat="55.7308950" lon="49.1291633"><time>2022-10-29T09:39:55.057</time></trkpt><trkpt lat="55.7309067" lon="49.1290817"><time>2022-10-29T09:40:00.060</time></trkpt><trkpt lat="55.7309267" lon="49.1290000"><time>2022-10-29T09:40:06.047</time></trkpt><trkpt lat="55.7309250" lon="49.1289017"><time>2022-10-29T09:40:11.057</time></trkpt><trkpt lat="55.7309233" lon="49.1288083"><time>2022-10-29T09:40:15.057</time></trkpt><trkpt lat="55.7309383" lon="49.1287283"><time>2022-10-29T09:40:17.057</time></trkpt><trkpt lat="55.7309500" lon="49.1286333"><time>2022-10-29T09:40:19.057</time></trkpt><trkpt lat="55.7309583" lon="49.1285100"><time>2022-10-29T09:40:21.053</time></trkpt><trkpt lat="55.7309617" lon="49.1283850"><time>2022-10-29T09:40:23.057</time></trkpt><trkpt lat="55.7309500" lon="49.1283000"><time>2022-10-29T09:40:24.057</time></trkpt><trkpt lat="55.7309433" lon="49.1282083"><time>2022-10-29T09:40:25.057</time></trkpt><trkpt lat="55.7309400" lon="49.1281167"><time>2022-10-29T09:40:26.060</time></trkpt><trkpt lat="55.7309350" lon="49.1280250"><time>2022-10-29T09:40:27.050</time></trkpt><trkpt lat="55.7309283" lon="49.1279333"><time>2022-10-29T09:40:28.057</time></trkpt><trkpt lat="55.7309217" lon="49.1278400"><time>2022-10-29T09:40:29.057</time></trkpt><trkpt lat="55.7309217" lon="49.1277450"><time>2022-10-29T09:40:30.047</time></trkpt><trkpt lat="55.7309233" lon="49.1276500"><time>2022-10-29T09:40:31.060</time></trkpt><trkpt lat="55.7309217" lon="49.1275633"><time>2022-10-29T09:40:32.057</time></trkpt><trkpt lat="55.7309217" lon="49.1274817"><time>2022-10-29T09:40:33.057</time></trkpt><trkpt lat="55.7309267" lon="49.1273917"><time>2022-10-29T09:40:34.057</time></trkpt><trkpt lat="55.7309300" lon="49.1273017"><time>2022-10-29T09:40:35.060</time></trkpt><trkpt lat="55.7309133" lon="49.1271767"><time>2022-10-29T09:40:37.057</time></trkpt><trkpt lat="55.7308983" lon="49.1270250"><time>2022-10-29T09:40:39.060</time></trkpt><trkpt lat="55.7309000" lon="49.1269417"><time>2022-10-29T09:40:40.057</time></trkpt><trkpt lat="55.7309017" lon="49.1268617"><time>2022-10-29T09:40:41.057</time></trkpt><trkpt lat="55.7309133" lon="49.1266917"><time>2022-10-29T09:40:43.057</time></trkpt><trkpt lat="55.7309133" lon="49.1265883"><time>2022-10-29T09:40:44.057</time></trkpt><trkpt lat="55.7309183" lon="49.1264933"><time>2022-10-29T09:40:45.060</time></trkpt><trkpt lat="55.7309267" lon="49.1263967"><time>2022-10-29T09:40:46.057</time></trkpt><trkpt lat="55.7309317" lon="49.1262950"><time>2022-10-29T09:40:47.053</time></trkpt><trkpt lat="55.7309350" lon="49.1261867"><time>2022-10-29T09:40:48.057</time></trkpt><trkpt lat="55.7309483" lon="49.1260917"><time>2022-10-29T09:40:49.053</time></trkpt><trkpt lat="55.7309517" lon="49.1259850"><time>2022-10-29T09:40:50.057</time></trkpt><trkpt lat="55.7309517" lon="49.1258750"><time>2022-10-29T09:40:51.053</time></trkpt><trkpt lat="55.7309533" lon="49.1257650"><time>2022-10-29T09:40:52.057</time></trkpt><trkpt lat="55.7309533" lon="49.1256467"><time>2022-10-29T09:40:53.057</time></trkpt><trkpt lat="55.7309483" lon="49.1255200"><time>2022-10-29T09:40:54.057</time></trkpt><trkpt lat="55.7309417" lon="49.1254050"><time>2022-10-29T09:40:55.057</time></trkpt><trkpt lat="55.7309367" lon="49.1252933"><time>2022-10-29T09:40:56.053</time></trkpt><trkpt lat="55.7309400" lon="49.1251933"><time>2022-10-29T09:40:57.057</time></trkpt><trkpt lat="55.7309483" lon="49.1251017"><time>2022-10-29T09:40:58.057</time></trkpt><trkpt lat="55.7309483" lon="49.1250050"><time>2022-10-29T09:40:59.057</time></trkpt><trkpt lat="55.7309567" lon="49.1249150"><time>2022-10-29T09:41:00.053</time></trkpt><trkpt lat="55.7309583" lon="49.1248200"><time>2022-10-29T09:41:01.057</time></trkpt><trkpt lat="55.7309633" lon="49.1247233"><time>2022-10-29T09:41:02.057</time></trkpt><trkpt lat="55.7309717" lon="49.1246317"><time>2022-10-29T09:41:03.057</time></trkpt><trkpt lat="55.7309750" lon="49.1245450"><time>2022-10-29T09:41:04.053</time></trkpt><trkpt lat="55.7309817" lon="49.1244583"><time>2022-10-29T09:41:05.060</time></trkpt><trkpt lat="55.7309833" lon="49.1243717"><time>2022-10-29T09:41:06.057</time></trkpt><trkpt lat="55.7309767" lon="49.1242750"><time>2022-10-29T09:41:07.057</time></trkpt><trkpt lat="55.7309767" lon="49.1241850"><time>2022-10-29T09:41:08.060</time></trkpt><trkpt lat="55.7309750" lon="49.1241000"><time>2022-10-29T09:41:09.060</time></trkpt><trkpt lat="55.7309717" lon="49.1240150"><time>2022-10-29T09:41:10.060</time></trkpt><trkpt lat="55.7309650" lon="49.1239300"><time>2022-10-29T09:41:11.060</time></trkpt><trkpt lat="55.7309600" lon="49.1238433"><time>2022-10-29T09:41:12.060</time></trkpt><trkpt lat="55.7309583" lon="49.1237567"><time>2022-10-29T09:41:13.057</time></trkpt><trkpt lat="55.7309600" lon="49.1236750"><time>2022-10-29T09:41:14.057</time></trkpt><trkpt lat="55.7309633" lon="49.1235917"><time>2022-10-29T09:41:15.057</time></trkpt><trkpt lat="55.7309667" lon="49.1235050"><time>2022-10-29T09:41:16.057</time></trkpt><trkpt lat="55.7309683" lon="49.1234183"><time>2022-10-29T09:41:17.057</time></trkpt><trkpt lat="55.7309683" lon="49.1233233"><time>2022-10-29T09:41:18.057</time></trkpt><trkpt lat="55.7309617" lon="49.1232233"><time>2022-10-29T09:41:19.057</time></trkpt><trkpt lat="55.7309550" lon="49.1231300"><time>2022-10-29T09:41:20.060</time></trkpt><trkpt lat="55.7309500" lon="49.1230400"><time>2022-10-29T09:41:21.057</time></trkpt><trkpt lat="55.7309417" lon="49.1229583"><time>2022-10-29T09:41:22.057</time></trkpt><trkpt lat="55.7309317" lon="49.1228317"><time>2022-10-29T09:41:24.060</time></trkpt><trkpt lat="55.7309217" lon="49.1227383"><time>2022-10-29T09:41:26.047</time></trkpt><trkpt lat="55.7309183" lon="49.1226533"><time>2022-10-29T09:41:32.057</time></trkpt><trkpt lat="55.7309267" lon="49.1225583"><time>2022-10-29T09:41:36.050</time></trkpt><trkpt lat="55.7309283" lon="49.1224650"><time>2022-10-29T09:41:38.057</time></trkpt><trkpt lat="55.7309283" lon="49.1223750"><time>2022-10-29T09:41:40.057</time></trkpt><trkpt lat="55.7309300" lon="49.1222500"><time>2022-10-29T09:41:42.043</time></trkpt><trkpt lat="55.7309283" lon="49.1220933"><time>2022-10-29T09:41:44.060</time></trkpt><trkpt lat="55.7309333" lon="49.1220017"><time>2022-10-29T09:41:45.057</time></trkpt><trkpt lat="55.7309367" lon="49.1219150"><time>2022-10-29T09:41:46.050</time></trkpt><trkpt lat="55.7309417" lon="49.1218333"><time>2022-10-29T09:41:47.057</time></trkpt><trkpt lat="55.7309483" lon="49.1216767"><time>2022-10-29T09:41:49.057</time></trkpt><trkpt lat="55.7309567" lon="49.1215150"><time>2022-10-29T09:41:51.057</time></trkpt><trkpt lat="55.7309550" lon="49.1214200"><time>2022-10-29T09:41:52.057</time></trkpt><trkpt lat="55.7309533" lon="49.1213183"><time>2022-10-29T09:41:53.060</time></trkpt><trkpt lat="55.7309533" lon="49.1212167"><time>2022-10-29T09:41:54.057</time></trkpt><trkpt lat="55.7309517" lon="49.1211217"><time>2022-10-29T09:41:55.057</time></trkpt><trkpt lat="55.7309483" lon="49.1210267"><time>2022-10-29T09:41:56.057</time></trkpt><trkpt lat="55.7309467" lon="49.1209333"><time>2022-10-29T09:41:57.060</time></trkpt><trkpt lat="55.7309500" lon="49.1208450"><time>2022-10-29T09:41:58.060</time></trkpt><trkpt lat="55.7309517" lon="49.1207517"><time>2022-10-29T09:41:59.057</time></trkpt><trkpt lat="55.7309483" lon="49.1206533"><time>2022-10-29T09:42:00.057</time></trkpt><trkpt lat="55.7309483" lon="49.1205617"><time>2022-10-29T09:42:01.057</time></trkpt><trkpt lat="55.7309517" lon="49.1204633"><time>2022-10-29T09:42:02.057</time></trkpt><trkpt lat="55.7309550" lon="49.1203633"><time>2022-10-29T09:42:03.057</time></trkpt><trkpt lat="55.7309567" lon="49.1202683"><time>2022-10-29T09:42:04.057</time></trkpt><trkpt lat="55.7309550" lon="49.1201767"><time>2022-10-29T09:42:05.057</time></trkpt><trkpt lat="55.7309533" lon="49.1200817"><time>2022-10-29T09:42:06.057</time></trkpt><trkpt lat="55.7309500" lon="49.1199867"><time>2022-10-29T09:42:07.057</time></trkpt><trkpt lat="55.7309483" lon="49.1198883"><time>2022-10-29T09:42:08.057</time></trkpt><trkpt lat="55.7309433" lon="49.1197867"><time>2022-10-29T09:42:09.057</time></trkpt><trkpt lat="55.7309433" lon="49.1197000"><time>2022-10-29T09:42:10.057</time></trkpt><trkpt lat="55.7309467" lon="49.1196067"><time>2022-10-29T09:42:11.057</time></trkpt><trkpt lat="55.7309467" lon="49.1195033"><time>2022-10-29T09:42:12.060</time></trkpt><trkpt lat="55.7309467" lon="49.1194033"><time>2022-10-29T09:42:13.057</time></trkpt><trkpt lat="55.7309450" lon="49.1193017"><time>2022-10-29T09:42:14.057</time></trkpt><trkpt lat="55.7309450" lon="49.1192017"><time>2022-10-29T09:42:15.063</time></trkpt><trkpt lat="55.7309483" lon="49.1191083"><time>2022-10-29T09:42:16.057</time></trkpt><trkpt lat="55.7309517" lon="49.1190183"><time>2022-10-29T09:42:17.047</time></trkpt><trkpt lat="55.7309533" lon="49.1189300"><time>2022-10-29T09:42:18.057</time></trkpt><trkpt lat="55.7309533" lon="49.1188383"><time>2022-10-29T09:42:19.060</time></trkpt><trkpt lat="55.7309533" lon="49.1187400"><time>2022-10-29T09:42:20.060</time></trkpt><trkpt lat="55.7309567" lon="49.1186467"><time>2022-10-29T09:42:21.060</time></trkpt><trkpt lat="55.7309583" lon="49.1185533"><time>2022-10-29T09:42:22.060</time></trkpt><trkpt lat="55.7309667" lon="49.1184650"><time>2022-10-29T09:42:23.060</time></trkpt><trkpt lat="55.7309750" lon="49.1183800"><time>2022-10-29T09:42:24.060</time></trkpt><trkpt lat="55.7309800" lon="49.1182967"><time>2022-10-29T09:42:25.057</time></trkpt><trkpt lat="55.7309817" lon="49.1182083"><time>2022-10-29T09:42:26.057</time></trkpt><trkpt lat="55.7309817" lon="49.1181183"><time>2022-10-29T09:42:27.060</time></trkpt><trkpt lat="55.7309800" lon="49.1180200"><time>2022-10-29T09:42:28.060</time></trkpt><trkpt lat="55.7309817" lon="49.1179283"><time>2022-10-29T09:42:29.057</time></trkpt><trkpt lat="55.7309817" lon="49.1178417"><time>2022-10-29T09:42:30.060</time></trkpt><trkpt lat="55.7309833" lon="49.1177533"><time>2022-10-29T09:42:31.060</time></trkpt><trkpt lat="55.7309850" lon="49.1176667"><time>2022-10-29T09:42:32.057</time></trkpt><trkpt lat="55.7309833" lon="49.1175750"><time>2022-10-29T09:42:33.050</time></trkpt><trkpt lat="55.7309850" lon="49.1174833"><time>2022-10-29T09:42:34.057</time></trkpt><trkpt lat="55.7309833" lon="49.1173850"><time>2022-10-29T09:42:35.060</time></trkpt><trkpt lat="55.7309833" lon="49.1172867"><time>2022-10-29T09:42:36.057</time></trkpt><trkpt lat="55.7309867" lon="49.1171933"><time>2022-10-29T09:42:37.047</time></trkpt><trkpt lat="55.7309883" lon="49.1170983"><time>2022-10-29T09:42:38.060</time></trkpt><trkpt lat="55.7309917" lon="49.1170050"><time>2022-10-29T09:42:39.060</time></trkpt><trkpt lat="55.7309933" lon="49.1169167"><time>2022-10-29T09:42:40.057</time></trkpt><trkpt lat="55.7309933" lon="49.1168267"><time>2022-10-29T09:42:41.057</time></trkpt><trkpt lat="55.7309950" lon="49.1167383"><time>2022-10-29T09:42:42.057</time></trkpt><trkpt lat="55.7309950" lon="49.1166483"><time>2022-10-29T09:42:43.057</time></trkpt><trkpt lat="55.7309967" lon="49.1165617"><time>2022-10-29T09:42:44.057</time></trkpt><trkpt lat="55.7309967" lon="49.1164733"><time>2022-10-29T09:42:45.053</time></trkpt><trkpt lat="55.7309983" lon="49.1163867"><time>2022-10-29T09:42:46.057</time></trkpt><trkpt lat="55.7309983" lon="49.1163000"><time>2022-10-29T09:42:47.057</time></trkpt><trkpt lat="55.7310000" lon="49.1162117"><time>2022-10-29T09:42:48.057</time></trkpt><trkpt lat="55.7310000" lon="49.1161200"><time>2022-10-29T09:42:49.053</time></trkpt><trkpt lat="55.7310000" lon="49.1160267"><time>2022-10-29T09:42:50.057</time></trkpt><trkpt lat="55.7310000" lon="49.1159333"><time>2022-10-29T09:42:51.057</time></trkpt><trkpt lat="55.7309967" lon="49.1158417"><time>2022-10-29T09:42:52.060</time></trkpt><trkpt lat="55.7309950" lon="49.1157500"><time>2022-10-29T09:42:53.060</time></trkpt><trkpt lat="55.7309917" lon="49.1156650"><time>2022-10-29T09:42:54.060</time></trkpt><trkpt lat="55.7309933" lon="49.1155183"><time>2022-10-29T09:42:56.060</time></trkpt><trkpt lat="55.7310150" lon="49.1154083"><time>2022-10-29T09:42:58.057</time></trkpt><trkpt lat="55.7310683" lon="49.1153333"><time>2022-10-29T09:43:00.057</time></trkpt><trkpt lat="55.7311233" lon="49.1152633"><time>2022-10-29T09:43:02.057</time></trkpt><trkpt lat="55.7311950" lon="49.1152267"><time>2022-10-29T09:43:04.060</time></trkpt><trkpt lat="55.7312867" lon="49.1152317"><time>2022-10-29T09:43:06.063</time></trkpt><trkpt lat="55.7313417" lon="49.1152400"><time>2022-10-29T09:43:07.057</time></trkpt><trkpt lat="55.7314000" lon="49.1152467"><time>2022-10-29T09:43:08.047</time></trkpt><trkpt lat="55.7314600" lon="49.1152517"><time>2022-10-29T09:43:09.057</time></trkpt><trkpt lat="55.7315183" lon="49.1152583"><time>2022-10-29T09:43:10.053</time></trkpt><trkpt lat="55.7315750" lon="49.1152667"><time>2022-10-29T09:43:11.057</time></trkpt><trkpt lat="55.7316367" lon="49.1152717"><time>2022-10-29T09:43:12.060</time></trkpt><trkpt lat="55.7316967" lon="49.1152767"><time>2022-10-29T09:43:13.057</time></trkpt><trkpt lat="55.7317583" lon="49.1152783"><time>2022-10-29T09:43:14.057</time></trkpt><trkpt lat="55.7318133" lon="49.1152850"><time>2022-10-29T09:43:15.057</time></trkpt><trkpt lat="55.7318750" lon="49.1152900"><time>2022-10-29T09:43:16.057</time></trkpt><trkpt lat="55.7319317" lon="49.1152967"><time>2022-10-29T09:43:17.057</time></trkpt><trkpt lat="55.7319933" lon="49.1153067"><time>2022-10-29T09:43:18.060</time></trkpt><trkpt lat="55.7320533" lon="49.1153083"><time>2022-10-29T09:43:19.057</time></trkpt><trkpt lat="55.7321233" lon="49.1153083"><time>2022-10-29T09:43:20.057</time></trkpt><trkpt lat="55.7322017" lon="49.1153117"><time>2022-10-29T09:43:21.060</time></trkpt><trkpt lat="55.7322783" lon="49.1153133"><time>2022-10-29T09:43:22.057</time></trkpt><trkpt lat="55.7323500" lon="49.1153167"><time>2022-10-29T09:43:23.060</time></trkpt><trkpt lat="55.7324250" lon="49.1153150"><time>2022-10-29T09:43:24.057</time></trkpt><trkpt lat="55.7324983" lon="49.1153183"><time>2022-10-29T09:43:25.057</time></trkpt><trkpt lat="55.7325733" lon="49.1153167"><time>2022-10-29T09:43:26.057</time></trkpt><trkpt lat="55.7326483" lon="49.1153200"><time>2022-10-29T09:43:27.057</time></trkpt><trkpt lat="55.7327317" lon="49.1153367"><time>2022-10-29T09:43:28.067</time></trkpt><trkpt lat="55.7328100" lon="49.1153450"><time>2022-10-29T09:43:29.057</time></trkpt><trkpt lat="55.7328933" lon="49.1153533"><time>2022-10-29T09:43:30.053</time></trkpt><trkpt lat="55.7329717" lon="49.1153600"><time>2022-10-29T09:43:31.027</time></trkpt><trkpt lat="55.7330483" lon="49.1153650"><time>2022-10-29T09:43:32.050</time></trkpt><trkpt lat="55.7331267" lon="49.1153717"><time>2022-10-29T09:43:33.053</time></trkpt><trkpt lat="55.7332033" lon="49.1153767"><time>2022-10-29T09:43:34.053</time></trkpt><trkpt lat="55.7332767" lon="49.1153800"><time>2022-10-29T09:43:35.057</time></trkpt><trkpt lat="55.7333517" lon="49.1153800"><time>2022-10-29T09:43:36.053</time></trkpt><trkpt lat="55.7334233" lon="49.1153833"><time>2022-10-29T09:43:37.063</time></trkpt><trkpt lat="55.7334983" lon="49.1153867"><time>2022-10-29T09:43:38.027</time></trkpt><trkpt lat="55.7335767" lon="49.1153867"><time>2022-10-29T09:43:39.053</time></trkpt><trkpt lat="55.7336550" lon="49.1153883"><time>2022-10-29T09:43:40.057</time></trkpt><trkpt lat="55.7337350" lon="49.1153883"><time>2022-10-29T09:43:41.053</time></trkpt><trkpt lat="55.7338150" lon="49.1153767"><time>2022-10-29T09:43:42.057</time></trkpt><trkpt lat="55.7339050" lon="49.1153733"><time>2022-10-29T09:43:43.030</time></trkpt><trkpt lat="55.7339867" lon="49.1153667"><time>2022-10-29T09:43:44.057</time></trkpt><trkpt lat="55.7340667" lon="49.1153650"><time>2022-10-29T09:43:45.057</time></trkpt><trkpt lat="55.7341433" lon="49.1153600"><time>2022-10-29T09:43:46.057</time></trkpt><trkpt lat="55.7342250" lon="49.1153550"><time>2022-10-29T09:43:47.057</time></trkpt><trkpt lat="55.7343050" lon="49.1153567"><time>2022-10-29T09:43:48.060</time></trkpt><trkpt lat="55.7343833" lon="49.1153600"><time>2022-10-29T09:43:49.057</time></trkpt><trkpt lat="55.7344700" lon="49.1153650"><time>2022-10-29T09:43:50.057</time></trkpt><trkpt lat="55.7345567" lon="49.1153583"><time>2022-10-29T09:43:51.057</time></trkpt><trkpt lat="55.7346383" lon="49.1153600"><time>2022-10-29T09:43:52.053</time></trkpt><trkpt lat="55.7347183" lon="49.1153700"><time>2022-10-29T09:43:53.053</time></trkpt><trkpt lat="55.7347950" lon="49.1153733"><time>2022-10-29T09:43:54.053</time></trkpt><trkpt lat="55.7348700" lon="49.1153767"><time>2022-10-29T09:43:55.057</time></trkpt><trkpt lat="55.7349483" lon="49.1153833"><time>2022-10-29T09:43:56.057</time></trkpt><trkpt lat="55.7350217" lon="49.1154000"><time>2022-10-29T09:43:57.057</time></trkpt><trkpt lat="55.7350933" lon="49.1154200"><time>2022-10-29T09:43:58.057</time></trkpt><trkpt lat="55.7351633" lon="49.1154283"><time>2022-10-29T09:43:59.043</time></trkpt><trkpt lat="55.7352433" lon="49.1154333"><time>2022-10-29T09:44:00.053</time></trkpt><trkpt lat="55.7353233" lon="49.1154367"><time>2022-10-29T09:44:01.057</time></trkpt><trkpt lat="55.7353983" lon="49.1154383"><time>2022-10-29T09:44:02.057</time></trkpt><trkpt lat="55.7354750" lon="49.1154217"><time>2022-10-29T09:44:03.057</time></trkpt><trkpt lat="55.7355500" lon="49.1154033"><time>2022-10-29T09:44:04.053</time></trkpt><trkpt lat="55.7356233" lon="49.1153950"><time>2022-10-29T09:44:05.060</time></trkpt><trkpt lat="55.7356967" lon="49.1153917"><time>2022-10-29T09:44:06.057</time></trkpt><trkpt lat="55.7357667" lon="49.1153883"><time>2022-10-29T09:44:07.057</time></trkpt><trkpt lat="55.7358383" lon="49.1153850"><time>2022-10-29T09:44:08.057</time></trkpt><trkpt lat="55.7359100" lon="49.1153833"><time>2022-10-29T09:44:09.060</time></trkpt><trkpt lat="55.7359783" lon="49.1153850"><time>2022-10-29T09:44:10.057</time></trkpt><trkpt lat="55.7360517" lon="49.1153733"><time>2022-10-29T09:44:11.057</time></trkpt><trkpt lat="55.7361233" lon="49.1153733"><time>2022-10-29T09:44:12.057</time></trkpt><trkpt lat="55.7361933" lon="49.1153800"><time>2022-10-29T09:44:13.053</time></trkpt><trkpt lat="55.7362600" lon="49.1153900"><time>2022-10-29T09:44:14.053</time></trkpt><trkpt lat="55.7363233" lon="49.1153917"><time>2022-10-29T09:44:15.057</time></trkpt><trkpt lat="55.7363883" lon="49.1154000"><time>2022-10-29T09:44:16.057</time></trkpt><trkpt lat="55.7364483" lon="49.1153950"><time>2022-10-29T09:44:17.070</time></trkpt><trkpt lat="55.7366033" lon="49.1151400"><time>2022-10-29T09:44:18.537</time></trkpt><trkpt lat="55.7366433" lon="49.1152883"><time>2022-10-29T09:44:19.040</time></trkpt><trkpt lat="55.7367083" lon="49.1154350"><time>2022-10-29T09:44:19.547</time></trkpt><trkpt lat="55.7368050" lon="49.1154150"><time>2022-10-29T09:44:23.043</time></trkpt><trkpt lat="55.7368700" lon="49.1154050"><time>2022-10-29T09:44:24.047</time></trkpt><trkpt lat="55.7369367" lon="49.1153967"><time>2022-10-29T09:44:25.040</time></trkpt><trkpt lat="55.7370000" lon="49.1153917"><time>2022-10-29T09:44:26.040</time></trkpt><trkpt lat="55.7370667" lon="49.1153883"><time>2022-10-29T09:44:27.043</time></trkpt><trkpt lat="55.7371317" lon="49.1153917"><time>2022-10-29T09:44:28.043</time></trkpt><trkpt lat="55.7371967" lon="49.1153950"><time>2022-10-29T09:44:29.050</time></trkpt><trkpt lat="55.7372700" lon="49.1154033"><time>2022-10-29T09:44:30.047</time></trkpt><trkpt lat="55.7373400" lon="49.1154050"><time>2022-10-29T09:44:31.047</time></trkpt><trkpt lat="55.7374017" lon="49.1154233"><time>2022-10-29T09:44:32.060</time></trkpt><trkpt lat="55.7374817" lon="49.1154883"><time>2022-10-29T09:44:33.040</time></trkpt><trkpt lat="55.7375300" lon="49.1153950"><time>2022-10-29T09:44:34.033</time></trkpt><trkpt lat="55.7375917" lon="49.1153967"><time>2022-10-29T09:44:34.547</time></trkpt><trkpt lat="55.7376450" lon="49.1153900"><time>2022-10-29T09:44:35.540</time></trkpt><trkpt lat="55.7377317" lon="49.1153883"><time>2022-10-29T09:44:37.020</time></trkpt><trkpt lat="55.7377867" lon="49.1154033"><time>2022-10-29T09:44:38.050</time></trkpt><trkpt lat="55.7378483" lon="49.1154083"><time>2022-10-29T09:44:39.063</time></trkpt><trkpt lat="55.7378483" lon="49.1154083"><time>2022-10-29T09:44:40.050</time></trkpt><trkpt lat="55.7379167" lon="49.1154350"><time>2022-10-29T09:44:41.543</time></trkpt><trkpt lat="55.7379683" lon="49.1154267"><time>2022-10-29T09:44:42.537</time></trkpt><trkpt lat="55.7380300" lon="49.1154183"><time>2022-10-29T09:44:44.047</time></trkpt><trkpt lat="55.7507550" lon="49.1318850"><time>2022-10-29T09:44:46.053</time></trkpt><trkpt lat="55.7381117" lon="49.1154267"><time>2022-10-29T09:44:46.100</time></trkpt><trkpt lat="55.7381850" lon="49.1154383"><time>2022-10-29T09:44:48.057</time></trkpt><trkpt lat="55.7381867" lon="49.1154383"><time>2022-10-29T09:44:49.513</time></trkpt><trkpt lat="55.7382617" lon="49.1154550"><time>2022-10-29T09:44:51.050</time></trkpt><trkpt lat="55.7383167" lon="49.1154717"><time>2022-10-29T09:44:52.043</time></trkpt><trkpt lat="55.7384083" lon="49.1154733"><time>2022-10-29T09:44:54.047</time></trkpt><trkpt lat="55.7384583" lon="49.1154750"><time>2022-10-29T09:44:55.050</time></trkpt><trkpt lat="55.7385083" lon="49.1154700"><time>2022-10-29T09:44:56.047</time></trkpt><trkpt lat="55.7385600" lon="49.1154633"><time>2022-10-29T09:44:57.050</time></trkpt><trkpt lat="55.7386150" lon="49.1154683"><time>2022-10-29T09:44:58.047</time></trkpt><trkpt lat="55.7386650" lon="49.1154717"><time>2022-10-29T09:44:59.047</time></trkpt><trkpt lat="55.7387200" lon="49.1154800"><time>2022-10-29T09:45:00.040</time></trkpt><trkpt lat="55.7387683" lon="49.1154783"><time>2022-10-29T09:45:01.050</time></trkpt><trkpt lat="55.7388283" lon="49.1154800"><time>2022-10-29T09:45:02.050</time></trkpt><trkpt lat="55.7388800" lon="49.1154800"><time>2022-10-29T09:45:03.050</time></trkpt><trkpt lat="55.7389317" lon="49.1154883"><time>2022-10-29T09:45:04.047</time></trkpt><trkpt lat="55.7389883" lon="49.1154883"><time>2022-10-29T09:45:05.047</time></trkpt><trkpt lat="55.7390417" lon="49.1154850"><time>2022-10-29T09:45:06.047</time></trkpt><trkpt lat="55.7391067" lon="49.1154867"><time>2022-10-29T09:45:07.027</time></trkpt><trkpt lat="55.7391700" lon="49.1154833"><time>2022-10-29T09:45:08.037</time></trkpt><trkpt lat="55.7392333" lon="49.1154817"><time>2022-10-29T09:45:09.043</time></trkpt><trkpt lat="55.7392950" lon="49.1154917"><time>2022-10-29T09:45:10.040</time></trkpt><trkpt lat="55.7393550" lon="49.1154900"><time>2022-10-29T09:45:11.043</time></trkpt><trkpt lat="55.7394167" lon="49.1154883"><time>2022-10-29T09:45:12.067</time></trkpt><trkpt lat="55.7394717" lon="49.1154817"><time>2022-10-29T09:45:13.027</time></trkpt><trkpt lat="55.7395300" lon="49.1154833"><time>2022-10-29T09:45:14.047</time></trkpt><trkpt lat="55.7395967" lon="49.1154750"><time>2022-10-29T09:45:15.047</time></trkpt><trkpt lat="55.7396533" lon="49.1154750"><time>2022-10-29T09:45:16.047</time></trkpt><trkpt lat="55.7397133" lon="49.1154767"><time>2022-10-29T09:45:17.050</time></trkpt><trkpt lat="55.7397650" lon="49.1154850"><time>2022-10-29T09:45:18.057</time></trkpt><trkpt lat="55.7398200" lon="49.1155000"><time>2022-10-29T09:45:19.057</time></trkpt><trkpt lat="55.7398767" lon="49.1155083"><time>2022-10-29T09:45:20.047</time></trkpt><trkpt lat="55.7399350" lon="49.1155050"><time>2022-10-29T09:45:21.057</time></trkpt><trkpt lat="55.7399983" lon="49.1155117"><time>2022-10-29T09:45:22.043</time></trkpt><trkpt lat="55.7400717" lon="49.1155183"><time>2022-10-29T09:45:23.047</time></trkpt><trkpt lat="55.7401450" lon="49.1155200"><time>2022-10-29T09:45:24.050</time></trkpt><trkpt lat="55.7402167" lon="49.1155233"><time>2022-10-29T09:45:25.053</time></trkpt><trkpt lat="55.7402767" lon="49.1155267"><time>2022-10-29T09:45:26.053</time></trkpt><trkpt lat="55.7403383" lon="49.1155217"><time>2022-10-29T09:45:27.053</time></trkpt><trkpt lat="55.7404017" lon="49.1155183"><time>2022-10-29T09:45:28.053</time></trkpt><trkpt lat="55.7404583" lon="49.1155050"><time>2022-10-29T09:45:29.057</time></trkpt><trkpt lat="55.7405183" lon="49.1155083"><time>2022-10-29T09:45:30.057</time></trkpt><trkpt lat="55.7405883" lon="49.1155250"><time>2022-10-29T09:45:31.057</time></trkpt><trkpt lat="55.7406583" lon="49.1155250"><time>2022-10-29T09:45:32.057</time></trkpt><trkpt lat="55.7407183" lon="49.1155200"><time>2022-10-29T09:45:33.057</time></trkpt><trkpt lat="55.7407850" lon="49.1155233"><time>2022-10-29T09:45:34.057</time></trkpt><trkpt lat="55.7408483" lon="49.1155300"><time>2022-10-29T09:45:35.063</time></trkpt><trkpt lat="55.7409250" lon="49.1155333"><time>2022-10-29T09:45:36.047</time></trkpt><trkpt lat="55.7410017" lon="49.1155367"><time>2022-10-29T09:45:37.050</time></trkpt><trkpt lat="55.7410850" lon="49.1155300"><time>2022-10-29T09:45:38.053</time></trkpt><trkpt lat="55.7411533" lon="49.1155350"><time>2022-10-29T09:45:39.057</time></trkpt><trkpt lat="55.7412267" lon="49.1155383"><time>2022-10-29T09:45:40.057</time></trkpt><trkpt lat="55.7412917" lon="49.1155383"><time>2022-10-29T09:45:41.043</time></trkpt><trkpt lat="55.7413383" lon="49.1155400"><time>2022-10-29T09:45:42.057</time></trkpt><trkpt lat="55.7413933" lon="49.1155400"><time>2022-10-29T09:45:43.057</time></trkpt><trkpt lat="55.7414617" lon="49.1155367"><time>2022-10-29T09:45:44.053</time></trkpt><trkpt lat="55.7415167" lon="49.1155417"><time>2022-10-29T09:45:45.053</time></trkpt><trkpt lat="55.7415750" lon="49.1155383"><time>2022-10-29T09:45:46.057</time></trkpt><trkpt lat="55.7416300" lon="49.1155317"><time>2022-10-29T09:45:47.057</time></trkpt><trkpt lat="55.7416867" lon="49.1155317"><time>2022-10-29T09:45:48.057</time></trkpt><trkpt lat="55.7417450" lon="49.1155350"><time>2022-10-29T09:45:49.057</time></trkpt><trkpt lat="55.7418083" lon="49.1155333"><time>2022-10-29T09:45:50.057</time></trkpt><trkpt lat="55.7418717" lon="49.1155283"><time>2022-10-29T09:45:51.057</time></trkpt><trkpt lat="55.7419417" lon="49.1155300"><time>2022-10-29T09:45:52.057</time></trkpt><trkpt lat="55.7419983" lon="49.1155300"><time>2022-10-29T09:45:53.057</time></trkpt><trkpt lat="55.7420650" lon="49.1155017"><time>2022-10-29T09:45:55.057</time></trkpt><trkpt lat="55.7421250" lon="49.1155150"><time>2022-10-29T09:45:58.057</time></trkpt><trkpt lat="55.7421800" lon="49.1155600"><time>2022-10-29T09:46:01.060</time></trkpt><trkpt lat="55.7422217" lon="49.1156000"><time>2022-10-29T09:46:04.057</time></trkpt><trkpt lat="55.7422967" lon="49.1155400"><time>2022-10-29T09:46:18.057</time></trkpt><trkpt lat="55.7423400" lon="49.1154317"><time>2022-10-29T09:46:20.057</time></trkpt><trkpt lat="55.7423550" lon="49.1152700"><time>2022-10-29T09:46:22.057</time></trkpt><trkpt lat="55.7423550" lon="49.1151783"><time>2022-10-29T09:46:23.057</time></trkpt><trkpt lat="55.7423500" lon="49.1150967"><time>2022-10-29T09:46:24.057</time></trkpt><trkpt lat="55.7423450" lon="49.1150050"><time>2022-10-29T09:46:25.057</time></trkpt><trkpt lat="55.7423450" lon="49.1149100"><time>2022-10-29T09:46:26.060</time></trkpt><trkpt lat="55.7423400" lon="49.1148083"><time>2022-10-29T09:46:27.057</time></trkpt><trkpt lat="55.7423367" lon="49.1147067"><time>2022-10-29T09:46:28.057</time></trkpt><trkpt lat="55.7423317" lon="49.1145983"><time>2022-10-29T09:46:29.057</time></trkpt><trkpt lat="55.7423267" lon="49.1144883"><time>2022-10-29T09:46:30.020</time></trkpt><trkpt lat="55.7423233" lon="49.1143833"><time>2022-10-29T09:46:31.053</time></trkpt><trkpt lat="55.7423233" lon="49.1142683"><time>2022-10-29T09:46:32.053</time></trkpt><trkpt lat="55.7423233" lon="49.1141467"><time>2022-10-29T09:46:33.047</time></trkpt><trkpt lat="55.7423200" lon="49.1140383"><time>2022-10-29T09:46:34.053</time></trkpt><trkpt lat="55.7423167" lon="49.1139300"><time>2022-10-29T09:46:35.037</time></trkpt><trkpt lat="55.7423133" lon="49.1138100"><time>2022-10-29T09:46:36.053</time></trkpt><trkpt lat="55.7423100" lon="49.1136883"><time>2022-10-29T09:46:37.037</time></trkpt><trkpt lat="55.7423100" lon="49.1135683"><time>2022-10-29T09:46:38.017</time></trkpt><trkpt lat="55.7423083" lon="49.1134433"><time>2022-10-29T09:46:39.043</time></trkpt><trkpt lat="55.7423100" lon="49.1133233"><time>2022-10-29T09:46:40.037</time></trkpt><trkpt lat="55.7423133" lon="49.1132033"><time>2022-10-29T09:46:41.057</time></trkpt><trkpt lat="55.7423133" lon="49.1130867"><time>2022-10-29T09:46:42.027</time></trkpt><trkpt lat="55.7423083" lon="49.1129650"><time>2022-10-29T09:46:43.043</time></trkpt><trkpt lat="55.7423067" lon="49.1128433"><time>2022-10-29T09:46:44.087</time></trkpt><trkpt lat="55.7423033" lon="49.1127300"><time>2022-10-29T09:46:45.830</time></trkpt><trkpt lat="55.7423017" lon="49.1126150"><time>2022-10-29T09:46:46.057</time></trkpt><trkpt lat="55.7423033" lon="49.1125067"><time>2022-10-29T09:46:47.057</time></trkpt><trkpt lat="55.7422983" lon="49.1123817"><time>2022-10-29T09:46:48.003</time></trkpt><trkpt lat="55.7422933" lon="49.1122400"><time>2022-10-29T09:46:49.043</time></trkpt><trkpt lat="55.7422767" lon="49.1121217"><time>2022-10-29T09:46:50.007</time></trkpt><trkpt lat="55.7422667" lon="49.1119983"><time>2022-10-29T09:46:51.040</time></trkpt><trkpt lat="55.7422917" lon="49.1119217"><time>2022-10-29T09:46:52.050</time></trkpt><trkpt lat="55.7423117" lon="49.1118467"><time>2022-10-29T09:46:53.053</time></trkpt><trkpt lat="55.7423117" lon="49.1117317"><time>2022-10-29T09:46:54.020</time></trkpt><trkpt lat="55.7423133" lon="49.1116283"><time>2022-10-29T09:46:55.057</time></trkpt><trkpt lat="55.7423100" lon="49.1114983"><time>2022-10-29T09:46:56.040</time></trkpt><trkpt lat="55.7423117" lon="49.1113717"><time>2022-10-29T09:46:57.053</time></trkpt><trkpt lat="55.7423117" lon="49.1112433"><time>2022-10-29T09:46:58.053</time></trkpt><trkpt lat="55.7423100" lon="49.1111317"><time>2022-10-29T09:46:59.053</time></trkpt><trkpt lat="55.7423067" lon="49.1110150"><time>2022-10-29T09:47:00.053</time></trkpt><trkpt lat="55.7423017" lon="49.1108950"><time>2022-10-29T09:47:01.023</time></trkpt><trkpt lat="55.7422950" lon="49.1107700"><time>2022-10-29T09:47:02.043</time></trkpt><trkpt lat="55.7422900" lon="49.1106517"><time>2022-10-29T09:47:03.057</time></trkpt><trkpt lat="55.7422833" lon="49.1105217"><time>2022-10-29T09:47:04.053</time></trkpt><trkpt lat="55.7422767" lon="49.1104000"><time>2022-10-29T09:47:05.030</time></trkpt><trkpt lat="55.7422683" lon="49.1102733"><time>2022-10-29T09:47:06.027</time></trkpt><trkpt lat="55.7422633" lon="49.1101550"><time>2022-10-29T09:47:07.057</time></trkpt><trkpt lat="55.7422517" lon="49.1100383"><time>2022-10-29T09:47:08.047</time></trkpt><trkpt lat="55.7422433" lon="49.1099283"><time>2022-10-29T09:47:09.040</time></trkpt><trkpt lat="55.7422417" lon="49.1098183"><time>2022-10-29T09:47:10.043</time></trkpt><trkpt lat="55.7422400" lon="49.1097067"><time>2022-10-29T09:47:11.053</time></trkpt><trkpt lat="55.7422317" lon="49.1095883"><time>2022-10-29T09:47:12.053</time></trkpt><trkpt lat="55.7422250" lon="49.1094800"><time>2022-10-29T09:47:13.050</time></trkpt><trkpt lat="55.7422217" lon="49.1093717"><time>2022-10-29T09:47:14.053</time></trkpt><trkpt lat="55.7422183" lon="49.1092583"><time>2022-10-29T09:47:15.057</time></trkpt><trkpt lat="55.7422283" lon="49.1091617"><time>2022-10-29T09:47:16.057</time></trkpt><trkpt lat="55.7422267" lon="49.1090550"><time>2022-10-29T09:47:17.057</time></trkpt><trkpt lat="55.7422300" lon="49.1089550"><time>2022-10-29T09:47:18.057</time></trkpt><trkpt lat="55.7422333" lon="49.1088517"><time>2022-10-29T09:47:19.057</time></trkpt><trkpt lat="55.7422383" lon="49.1087367"><time>2022-10-29T09:47:20.013</time></trkpt><trkpt lat="55.7422367" lon="49.1086100"><time>2022-10-29T09:47:21.047</time></trkpt><trkpt lat="55.7422417" lon="49.1084950"><time>2022-10-29T09:47:22.057</time></trkpt><trkpt lat="55.7422583" lon="49.1084033"><time>2022-10-29T09:47:23.047</time></trkpt><trkpt lat="55.7422750" lon="49.1083117"><time>2022-10-29T09:47:24.053</time></trkpt><trkpt lat="55.7422883" lon="49.1082167"><time>2022-10-29T09:47:25.027</time></trkpt><trkpt lat="55.7422967" lon="49.1081167"><time>2022-10-29T09:47:26.057</time></trkpt><trkpt lat="55.7422983" lon="49.1080050"><time>2022-10-29T09:47:27.060</time></trkpt><trkpt lat="55.7422967" lon="49.1078917"><time>2022-10-29T09:47:28.057</time></trkpt><trkpt lat="55.7422867" lon="49.1077733"><time>2022-10-29T09:47:29.057</time></trkpt><trkpt lat="55.7422783" lon="49.1076667"><time>2022-10-29T09:47:30.053</time></trkpt><trkpt lat="55.7422750" lon="49.1075600"><time>2022-10-29T09:47:31.057</time></trkpt><trkpt lat="55.7422733" lon="49.1074550"><time>2022-10-29T09:47:32.057</time></trkpt><trkpt lat="55.7422733" lon="49.1073433"><time>2022-10-29T09:47:33.053</time></trkpt><trkpt lat="55.7422800" lon="49.1072433"><time>2022-10-29T09:47:34.057</time></trkpt><trkpt lat="55.7422783" lon="49.1071317"><time>2022-10-29T09:47:35.057</time></trkpt><trkpt lat="55.7422783" lon="49.1070200"><time>2022-10-29T09:47:36.057</time></trkpt><trkpt lat="55.7422767" lon="49.1069150"><time>2022-10-29T09:47:37.053</time></trkpt><trkpt lat="55.7422783" lon="49.1068167"><time>2022-10-29T09:47:38.057</time></trkpt><trkpt lat="55.7422767" lon="49.1067167"><time>2022-10-29T09:47:39.057</time></trkpt><trkpt lat="55.7422867" lon="49.1066283"><time>2022-10-29T09:47:40.057</time></trkpt><trkpt lat="55.7422950" lon="49.1065433"><time>2022-10-29T09:47:41.053</time></trkpt><trkpt lat="55.7422983" lon="49.1064500"><time>2022-10-29T09:47:42.053</time></trkpt><trkpt lat="55.7422983" lon="49.1063500"><time>2022-10-29T09:47:43.057</time></trkpt><trkpt lat="55.7422983" lon="49.1062567"><time>2022-10-29T09:47:44.057</time></trkpt><trkpt lat="55.7423033" lon="49.1061667"><time>2022-10-29T09:47:45.057</time></trkpt><trkpt lat="55.7423350" lon="49.1061067"><time>2022-10-29T09:47:46.053</time></trkpt><trkpt lat="55.7423450" lon="49.1060133"><time>2022-10-29T09:47:47.057</time></trkpt><trkpt lat="55.7423650" lon="49.1059233"><time>2022-10-29T09:47:48.057</time></trkpt><trkpt lat="55.7423917" lon="49.1058400"><time>2022-10-29T09:47:49.043</time></trkpt><trkpt lat="55.7424167" lon="49.1057583"><time>2022-10-29T09:47:50.057</time></trkpt><trkpt lat="55.7424267" lon="49.1056733"><time>2022-10-29T09:47:51.057</time></trkpt><trkpt lat="55.7424250" lon="49.1055867"><time>2022-10-29T09:47:52.057</time></trkpt><trkpt lat="55.7424183" lon="49.1054433"><time>2022-10-29T09:47:54.060</time></trkpt><trkpt lat="55.7423983" lon="49.1053333"><time>2022-10-29T09:47:56.063</time></trkpt><trkpt lat="55.7423950" lon="49.1052050"><time>2022-10-29T09:47:59.057</time></trkpt><trkpt lat="55.7424200" lon="49.1051200"><time>2022-10-29T09:48:01.057</time></trkpt><trkpt lat="55.7424767" lon="49.1050867"><time>2022-10-29T09:48:03.057</time></trkpt><trkpt lat="55.7425517" lon="49.1050867"><time>2022-10-29T09:48:05.050</time></trkpt><trkpt lat="55.7426283" lon="49.1050933"><time>2022-10-29T09:48:07.057</time></trkpt><trkpt lat="55.7427167" lon="49.1050967"><time>2022-10-29T09:48:09.053</time></trkpt><trkpt lat="55.7427617" lon="49.1051033"><time>2022-10-29T09:48:10.057</time></trkpt><trkpt lat="55.7428083" lon="49.1051183"><time>2022-10-29T09:48:11.057</time></trkpt><trkpt lat="55.7428533" lon="49.1051400"><time>2022-10-29T09:48:12.053</time></trkpt><trkpt lat="55.7429383" lon="49.1051717"><time>2022-10-29T09:48:14.050</time></trkpt><trkpt lat="55.7430150" lon="49.1052133"><time>2022-10-29T09:48:16.057</time></trkpt><trkpt lat="55.7430867" lon="49.1052500"><time>2022-10-29T09:48:18.047</time></trkpt><trkpt lat="55.7431533" lon="49.1052533"><time>2022-10-29T09:48:20.047</time></trkpt><trkpt lat="55.7432183" lon="49.1052650"><time>2022-10-29T09:48:22.047</time></trkpt><trkpt lat="55.7432983" lon="49.1052900"><time>2022-10-29T09:48:24.053</time></trkpt><trkpt lat="55.7435183" lon="49.1044833"><time>2022-10-29T09:48:25.523</time></trkpt><trkpt lat="55.7435383" lon="49.1046083"><time>2022-10-29T09:48:26.543</time></trkpt><trkpt lat="55.7436300" lon="49.1048317"><time>2022-10-29T09:48:27.047</time></trkpt><trkpt lat="55.7436767" lon="49.1049383"><time>2022-10-29T09:48:27.550</time></trkpt><trkpt lat="55.7437050" lon="49.1050167"><time>2022-10-29T09:48:29.047</time></trkpt><trkpt lat="55.7437500" lon="49.1050700"><time>2022-10-29T09:48:32.047</time></trkpt><trkpt lat="55.7438017" lon="49.1050917"><time>2022-10-29T09:48:34.043</time></trkpt><trkpt lat="55.7438667" lon="49.1051117"><time>2022-10-29T09:48:36.030</time></trkpt><trkpt lat="55.7439233" lon="49.1051050"><time>2022-10-29T09:48:38.050</time></trkpt><trkpt lat="55.7439833" lon="49.1051283"><time>2022-10-29T09:48:40.047</time></trkpt><trkpt lat="55.7440400" lon="49.1051417"><time>2022-10-29T09:48:42.047</time></trkpt><trkpt lat="55.7441117" lon="49.1051600"><time>2022-10-29T09:48:44.050</time></trkpt><trkpt lat="55.7441850" lon="49.1051683"><time>2022-10-29T09:48:46.057</time></trkpt><trkpt lat="55.7441867" lon="49.1051683"><time>2022-10-29T09:48:47.047</time></trkpt><trkpt lat="55.7442367" lon="49.1051617"><time>2022-10-29T09:48:49.047</time></trkpt><trkpt lat="55.7443150" lon="49.1051450"><time>2022-10-29T09:48:51.050</time></trkpt><trkpt lat="55.7443783" lon="49.1051350"><time>2022-10-29T09:48:53.050</time></trkpt><trkpt lat="55.7444517" lon="49.1051550"><time>2022-10-29T09:48:55.050</time></trkpt><trkpt lat="55.7445133" lon="49.1051500"><time>2022-10-29T09:48:56.053</time></trkpt><trkpt lat="55.7445617" lon="49.1051400"><time>2022-10-29T09:48:57.047</time></trkpt><trkpt lat="55.7446367" lon="49.1051083"><time>2022-10-29T09:48:59.053</time></trkpt><trkpt lat="55.7446367" lon="49.1051083"><time>2022-10-29T09:49:00.023</time></trkpt><trkpt lat="55.7446867" lon="49.1051250"><time>2022-10-29T09:49:02.547</time></trkpt><trkpt lat="55.7447333" lon="49.1051250"><time>2022-10-29T09:49:04.047</time></trkpt><trkpt lat="55.7447950" lon="49.1051000"><time>2022-10-29T09:49:06.047</time></trkpt><trkpt lat="55.7507550" lon="49.1318850"><time>2022-10-29T09:49:08.060</time></trkpt><trkpt lat="55.7448867" lon="49.1050983"><time>2022-10-29T09:49:08.107</time></trkpt><trkpt lat="55.7449333" lon="49.1051000"><time>2022-10-29T09:49:09.057</time></trkpt><trkpt lat="55.7449333" lon="49.1051000"><time>2022-10-29T09:49:10.033</time></trkpt><trkpt lat="55.7449867" lon="49.1050950"><time>2022-10-29T09:49:13.043</time></trkpt><trkpt lat="55.7450333" lon="49.1050983"><time>2022-10-29T09:49:15.047</time></trkpt><trkpt lat="55.7450833" lon="49.1051200"><time>2022-10-29T09:49:16.050</time></trkpt><trkpt lat="55.7451717" lon="49.1051400"><time>2022-10-29T09:49:17.047</time></trkpt><trkpt lat="55.7452433" lon="49.1051633"><time>2022-10-29T09:49:18.037</time></trkpt><trkpt lat="55.7452983" lon="49.1051717"><time>2022-10-29T09:49:19.037</time></trkpt><trkpt lat="55.7453883" lon="49.1052033"><time>2022-10-29T09:49:21.047</time></trkpt><trkpt lat="55.7454633" lon="49.1052283"><time>2022-10-29T09:49:23.047</time></trkpt><trkpt lat="55.7455267" lon="49.1052383"><time>2022-10-29T09:49:25.043</time></trkpt><trkpt lat="55.7455783" lon="49.1052400"><time>2022-10-29T09:49:27.047</time></trkpt><trkpt lat="55.7456333" lon="49.1052517"><time>2022-10-29T09:49:29.050</time></trkpt><trkpt lat="55.7456533" lon="49.1051750"><time>2022-10-29T09:49:37.017</time></trkpt><trkpt lat="55.7456900" lon="49.1051217"><time>2022-10-29T09:49:59.057</time></trkpt><trkpt lat="55.7457450" lon="49.1050850"><time>2022-10-29T09:50:01.053</time></trkpt><trkpt lat="55.7458150" lon="49.1050567"><time>2022-10-29T09:50:03.057</time></trkpt><trkpt lat="55.7459017" lon="49.1050400"><time>2022-10-29T09:50:05.053</time></trkpt><trkpt lat="55.7459900" lon="49.1050283"><time>2022-10-29T09:50:07.057</time></trkpt><trkpt lat="55.7460767" lon="49.1050450"><time>2022-10-29T09:50:09.057</time></trkpt><trkpt lat="55.7461567" lon="49.1050533"><time>2022-10-29T09:50:11.053</time></trkpt><trkpt lat="55.7462483" lon="49.1050567"><time>2022-10-29T09:50:13.047</time></trkpt><trkpt lat="55.7463000" lon="49.1050583"><time>2022-10-29T09:50:14.057</time></trkpt><trkpt lat="55.7463517" lon="49.1050567"><time>2022-10-29T09:50:15.057</time></trkpt><trkpt lat="55.7464000" lon="49.1050550"><time>2022-10-29T09:50:16.053</time></trkpt><trkpt lat="55.7464500" lon="49.1050567"><time>2022-10-29T09:50:17.057</time></trkpt><trkpt lat="55.7465033" lon="49.1050550"><time>2022-10-29T09:50:18.073</time></trkpt><trkpt lat="55.7465567" lon="49.1050533"><time>2022-10-29T09:50:19.053</time></trkpt><trkpt lat="55.7466100" lon="49.1050600"><time>2022-10-29T09:50:20.053</time></trkpt><trkpt lat="55.7466617" lon="49.1050617"><time>2022-10-29T09:50:21.057</time></trkpt><trkpt lat="55.7467150" lon="49.1050683"><time>2022-10-29T09:50:22.053</time></trkpt><trkpt lat="55.7467733" lon="49.1050717"><time>2022-10-29T09:50:23.057</time></trkpt><trkpt lat="55.7468367" lon="49.1050733"><time>2022-10-29T09:50:24.047</time></trkpt><trkpt lat="55.7468950" lon="49.1050733"><time>2022-10-29T09:50:25.057</time></trkpt><trkpt lat="55.7469517" lon="49.1050750"><time>2022-10-29T09:50:26.057</time></trkpt><trkpt lat="55.7470133" lon="49.1050767"><time>2022-10-29T09:50:27.057</time></trkpt><trkpt lat="55.7470700" lon="49.1050783"><time>2022-10-29T09:50:28.057</time></trkpt><trkpt lat="55.7471283" lon="49.1050817"><time>2022-10-29T09:50:29.057</time></trkpt><trkpt lat="55.7471867" lon="49.1050883"><time>2022-10-29T09:50:30.057</time></trkpt><trkpt lat="55.7472433" lon="49.1050867"><time>2022-10-29T09:50:31.057</time></trkpt><trkpt lat="55.7473017" lon="49.1050883"><time>2022-10-29T09:50:32.057</time></trkpt><trkpt lat="55.7473583" lon="49.1050817"><time>2022-10-29T09:50:33.060</time></trkpt><trkpt lat="55.7474100" lon="49.1050800"><time>2022-10-29T09:50:34.053</time></trkpt><trkpt lat="55.7474650" lon="49.1050800"><time>2022-10-29T09:50:35.057</time></trkpt><trkpt lat="55.7475200" lon="49.1050800"><time>2022-10-29T09:50:36.057</time></trkpt><trkpt lat="55.7475717" lon="49.1050850"><time>2022-10-29T09:50:37.053</time></trkpt><trkpt lat="55.7476300" lon="49.1050817"><time>2022-10-29T09:50:38.053</time></trkpt><trkpt lat="55.7476900" lon="49.1050767"><time>2022-10-29T09:50:39.053</time></trkpt><trkpt lat="55.7477483" lon="49.1050733"><time>2022-10-29T09:50:40.050</time></trkpt><trkpt lat="55.7478100" lon="49.1050650"><time>2022-10-29T09:50:41.057</time></trkpt><trkpt lat="55.7478717" lon="49.1050600"><time>2022-10-29T09:50:42.057</time></trkpt><trkpt lat="55.7479283" lon="49.1050583"><time>2022-10-29T09:50:43.053</time></trkpt><trkpt lat="55.7479900" lon="49.1050600"><time>2022-10-29T09:50:44.060</time></trkpt><trkpt lat="55.7480500" lon="49.1050633"><time>2022-10-29T09:50:45.060</time></trkpt><trkpt lat="55.7481100" lon="49.1050650"><time>2022-10-29T09:50:46.060</time></trkpt><trkpt lat="55.7481667" lon="49.1050617"><time>2022-10-29T09:50:47.057</time></trkpt><trkpt lat="55.7482217" lon="49.1050567"><time>2022-10-29T09:50:48.053</time></trkpt><trkpt lat="55.7482800" lon="49.1050550"><time>2022-10-29T09:50:49.053</time></trkpt><trkpt lat="55.7483383" lon="49.1050600"><time>2022-10-29T09:50:50.057</time></trkpt><trkpt lat="55.7483883" lon="49.1050600"><time>2022-10-29T09:50:51.057</time></trkpt><trkpt lat="55.7484383" lon="49.1050583"><time>2022-10-29T09:50:52.057</time></trkpt><trkpt lat="55.7484833" lon="49.1050600"><time>2022-10-29T09:50:53.057</time></trkpt><trkpt lat="55.7485367" lon="49.1050567"><time>2022-10-29T09:50:54.057</time></trkpt><trkpt lat="55.7485850" lon="49.1050583"><time>2022-10-29T09:50:55.060</time></trkpt><trkpt lat="55.7486383" lon="49.1050667"><time>2022-10-29T09:50:56.057</time></trkpt><trkpt lat="55.7486917" lon="49.1050650"><time>2022-10-29T09:50:57.037</time></trkpt><trkpt lat="55.7487533" lon="49.1050550"><time>2022-10-29T09:50:58.057</time></trkpt><trkpt lat="55.7488067" lon="49.1050500"><time>2022-10-29T09:50:59.053</time></trkpt><trkpt lat="55.7488583" lon="49.1050383"><time>2022-10-29T09:51:00.050</time></trkpt><trkpt lat="55.7489150" lon="49.1050333"><time>2022-10-29T09:51:01.053</time></trkpt><trkpt lat="55.7489767" lon="49.1050450"><time>2022-10-29T09:51:02.053</time></trkpt><trkpt lat="55.7490367" lon="49.1050533"><time>2022-10-29T09:51:03.057</time></trkpt><trkpt lat="55.7490917" lon="49.1050633"><time>2022-10-29T09:51:04.057</time></trkpt><trkpt lat="55.7491417" lon="49.1050683"><time>2022-10-29T09:51:05.060</time></trkpt><trkpt lat="55.7491950" lon="49.1050750"><time>2022-10-29T09:51:06.060</time></trkpt><trkpt lat="55.7492483" lon="49.1050817"><time>2022-10-29T09:51:07.057</time></trkpt><trkpt lat="55.7493050" lon="49.1050933"><time>2022-10-29T09:51:08.053</time></trkpt><trkpt lat="55.7493600" lon="49.1050967"><time>2022-10-29T09:51:09.057</time></trkpt><trkpt lat="55.7494167" lon="49.1051067"><time>2022-10-29T09:51:10.053</time></trkpt><trkpt lat="55.7494750" lon="49.1051283"><time>2022-10-29T09:51:11.057</time></trkpt><trkpt lat="55.7495333" lon="49.1051533"><time>2022-10-29T09:51:12.050</time></trkpt><trkpt lat="55.7495900" lon="49.1051667"><time>2022-10-29T09:51:13.053</time></trkpt><trkpt lat="55.7496433" lon="49.1051717"><time>2022-10-29T09:51:14.057</time></trkpt><trkpt lat="55.7496900" lon="49.1051783"><time>2022-10-29T09:51:15.037</time></trkpt><trkpt lat="55.7497383" lon="49.1051783"><time>2022-10-29T09:51:16.020</time></trkpt><trkpt lat="55.7497917" lon="49.1051300"><time>2022-10-29T09:51:17.017</time></trkpt><trkpt lat="55.7498683" lon="49.1051367"><time>2022-10-29T09:51:19.027</time></trkpt><trkpt lat="55.7499200" lon="49.1051600"><time>2022-10-29T09:51:21.030</time></trkpt><trkpt lat="55.7500133" lon="49.1051867"><time>2022-10-29T09:51:23.050</time></trkpt><trkpt lat="55.7500633" lon="49.1051933"><time>2022-10-29T09:51:24.050</time></trkpt><trkpt lat="55.7501133" lon="49.1051883"><time>2022-10-29T09:51:25.020</time></trkpt><trkpt lat="55.7502083" lon="49.1051850"><time>2022-10-29T09:51:27.047</time></trkpt><trkpt lat="55.7502617" lon="49.1051833"><time>2022-10-29T09:51:28.040</time></trkpt><trkpt lat="55.7503150" lon="49.1051767"><time>2022-10-29T09:51:29.057</time></trkpt><trkpt lat="55.7503750" lon="49.1051817"><time>2022-10-29T09:51:30.057</time></trkpt><trkpt lat="55.7504383" lon="49.1051867"><time>2022-10-29T09:51:31.027</time></trkpt><trkpt lat="55.7504983" lon="49.1051917"><time>2022-10-29T09:51:32.057</time></trkpt><trkpt lat="55.7505600" lon="49.1051983"><time>2022-10-29T09:51:33.057</time></trkpt><trkpt lat="55.7506300" lon="49.1051733"><time>2022-10-29T09:51:34.057</time></trkpt><trkpt lat="55.7506967" lon="49.1051600"><time>2022-10-29T09:51:35.017</time></trkpt><trkpt lat="55.7507617" lon="49.1051433"><time>2022-10-29T09:51:36.040</time></trkpt><trkpt lat="55.7508167" lon="49.1051217"><time>2022-10-29T09:51:37.053</time></trkpt><trkpt lat="55.7508783" lon="49.1051133"><time>2022-10-29T09:51:38.030</time></trkpt><trkpt lat="55.7509400" lon="49.1051067"><time>2022-10-29T09:51:39.053</time></trkpt><trkpt lat="55.7510000" lon="49.1051067"><time>2022-10-29T09:51:40.043</time></trkpt><trkpt lat="55.7510533" lon="49.1051150"><time>2022-10-29T09:51:41.047</time></trkpt><trkpt lat="55.7511117" lon="49.1051217"><time>2022-10-29T09:51:42.050</time></trkpt><trkpt lat="55.7511717" lon="49.1051233"><time>2022-10-29T09:51:43.040</time></trkpt><trkpt lat="55.7512350" lon="49.1051183"><time>2022-10-29T09:51:44.053</time></trkpt><trkpt lat="55.7512983" lon="49.1051167"><time>2022-10-29T09:51:45.053</time></trkpt><trkpt lat="55.7513550" lon="49.1051233"><time>2022-10-29T09:51:46.053</time></trkpt><trkpt lat="55.7514167" lon="49.1051217"><time>2022-10-29T09:51:47.057</time></trkpt><trkpt lat="55.7514783" lon="49.1051333"><time>2022-10-29T09:51:48.050</time></trkpt><trkpt lat="55.7515383" lon="49.1051467"><time>2022-10-29T09:51:49.057</time></trkpt><trkpt lat="55.7515933" lon="49.1051583"><time>2022-10-29T09:51:50.053</time></trkpt><trkpt lat="55.7516483" lon="49.1051600"><time>2022-10-29T09:51:51.053</time></trkpt><trkpt lat="55.7516967" lon="49.1051700"><time>2022-10-29T09:51:52.053</time></trkpt><trkpt lat="55.7517500" lon="49.1051700"><time>2022-10-29T09:51:53.057</time></trkpt><trkpt lat="55.7517983" lon="49.1051733"><time>2022-10-29T09:51:54.057</time></trkpt><trkpt lat="55.7518850" lon="49.1051767"><time>2022-10-29T09:51:56.057</time></trkpt><trkpt lat="55.7519550" lon="49.1051967"><time>2022-10-29T09:51:58.050</time></trkpt><trkpt lat="55.7520417" lon="49.1051917"><time>2022-10-29T09:52:00.060</time></trkpt><trkpt lat="55.7520900" lon="49.1051783"><time>2022-10-29T09:52:01.043</time></trkpt><trkpt lat="55.7521800" lon="49.1051617"><time>2022-10-29T09:52:03.057</time></trkpt><trkpt lat="55.7522350" lon="49.1051583"><time>2022-10-29T09:52:04.057</time></trkpt><trkpt lat="55.7522900" lon="49.1051650"><time>2022-10-29T09:52:05.047</time></trkpt><trkpt lat="55.7523367" lon="49.1051783"><time>2022-10-29T09:52:06.057</time></trkpt><trkpt lat="55.7523900" lon="49.1051883"><time>2022-10-29T09:52:07.033</time></trkpt><trkpt lat="55.7524367" lon="49.1051950"><time>2022-10-29T09:52:08.057</time></trkpt><trkpt lat="55.7524933" lon="49.1052000"><time>2022-10-29T09:52:09.057</time></trkpt><trkpt lat="55.7525517" lon="49.1052117"><time>2022-10-29T09:52:10.057</time></trkpt><trkpt lat="55.7526067" lon="49.1052400"><time>2022-10-29T09:52:11.057</time></trkpt><trkpt lat="55.7526667" lon="49.1052600"><time>2022-10-29T09:52:12.057</time></trkpt><trkpt lat="55.7527217" lon="49.1052767"><time>2022-10-29T09:52:13.060</time></trkpt><trkpt lat="55.7527750" lon="49.1053000"><time>2022-10-29T09:52:14.053</time></trkpt><trkpt lat="55.7528317" lon="49.1053250"><time>2022-10-29T09:52:15.057</time></trkpt><trkpt lat="55.7528900" lon="49.1053517"><time>2022-10-29T09:52:16.020</time></trkpt><trkpt lat="55.7529517" lon="49.1053700"><time>2022-10-29T09:52:17.047</time></trkpt><trkpt lat="55.7530167" lon="49.1053817"><time>2022-10-29T09:52:18.057</time></trkpt><trkpt lat="55.7530800" lon="49.1053967"><time>2022-10-29T09:52:19.037</time></trkpt><trkpt lat="55.7531433" lon="49.1054117"><time>2022-10-29T09:52:20.060</time></trkpt><trkpt lat="55.7532067" lon="49.1054250"><time>2022-10-29T09:52:21.057</time></trkpt><trkpt lat="55.7532700" lon="49.1054283"><time>2022-10-29T09:52:22.060</time></trkpt><trkpt lat="55.7533267" lon="49.1054333"><time>2022-10-29T09:52:23.053</time></trkpt><trkpt lat="55.7533817" lon="49.1054250"><time>2022-10-29T09:52:24.057</time></trkpt><trkpt lat="55.7534333" lon="49.1054200"><time>2022-10-29T09:52:25.050</time></trkpt><trkpt lat="55.7534867" lon="49.1054317"><time>2022-10-29T09:52:26.050</time></trkpt><trkpt lat="55.7535383" lon="49.1054483"><time>2022-10-29T09:52:27.057</time></trkpt><trkpt lat="55.7535900" lon="49.1054650"><time>2022-10-29T09:52:28.057</time></trkpt><trkpt lat="55.7536400" lon="49.1054850"><time>2022-10-29T09:52:29.057</time></trkpt><trkpt lat="55.7536950" lon="49.1054967"><time>2022-10-29T09:52:30.057</time></trkpt><trkpt lat="55.7537500" lon="49.1055033"><time>2022-10-29T09:52:31.047</time></trkpt><trkpt lat="55.7538150" lon="49.1055050"><time>2022-10-29T09:52:32.057</time></trkpt><trkpt lat="55.7538733" lon="49.1055133"><time>2022-10-29T09:52:33.057</time></trkpt><trkpt lat="55.7539300" lon="49.1055267"><time>2022-10-29T09:52:34.053</time></trkpt><trkpt lat="55.7539850" lon="49.1055417"><time>2022-10-29T09:52:35.057</time></trkpt><trkpt lat="55.7540383" lon="49.1055533"><time>2022-10-29T09:52:36.057</time></trkpt><trkpt lat="55.7540850" lon="49.1055583"><time>2022-10-29T09:52:37.057</time></trkpt><trkpt lat="55.7541750" lon="49.1055583"><time>2022-10-29T09:52:39.057</time></trkpt><trkpt lat="55.7542250" lon="49.1055617"><time>2022-10-29T09:52:40.057</time></trkpt><trkpt lat="55.7542767" lon="49.1055517"><time>2022-10-29T09:52:41.057</time></trkpt><trkpt lat="55.7543283" lon="49.1055500"><time>2022-10-29T09:52:42.057</time></trkpt><trkpt lat="55.7543800" lon="49.1055550"><time>2022-10-29T09:52:43.057</time></trkpt><trkpt lat="55.7544350" lon="49.1055683"><time>2022-10-29T09:52:44.057</time></trkpt><trkpt lat="55.7544867" lon="49.1055783"><time>2022-10-29T09:52:45.047</time></trkpt><trkpt lat="55.7545450" lon="49.1055817"><time>2022-10-29T09:52:46.057</time></trkpt><trkpt lat="55.7546000" lon="49.1055833"><time>2022-10-29T09:52:47.057</time></trkpt><trkpt lat="55.7546567" lon="49.1055900"><time>2022-10-29T09:52:48.060</time></trkpt><trkpt lat="55.7547067" lon="49.1056000"><time>2022-10-29T09:52:49.037</time></trkpt><trkpt lat="55.7547550" lon="49.1056150"><time>2022-10-29T09:52:50.057</time></trkpt><trkpt lat="55.7548000" lon="49.1056283"><time>2022-10-29T09:52:51.057</time></trkpt><trkpt lat="55.7548450" lon="49.1056383"><time>2022-10-29T09:52:52.053</time></trkpt><trkpt lat="55.7549333" lon="49.1056533"><time>2022-10-29T09:52:54.057</time></trkpt><trkpt lat="55.7549783" lon="49.1056617"><time>2022-10-29T09:52:55.060</time></trkpt><trkpt lat="55.7550433" lon="49.1056800"><time>2022-10-29T09:52:57.053</time></trkpt><trkpt lat="55.7551100" lon="49.1056950"><time>2022-10-29T09:52:59.057</time></trkpt><trkpt lat="55.7551500" lon="49.1057617"><time>2022-10-29T09:53:02.057</time></trkpt><trkpt lat="55.7551650" lon="49.1058767"><time>2022-10-29T09:53:05.057</time></trkpt><trkpt lat="55.7551650" lon="49.1059917"><time>2022-10-29T09:53:07.040</time></trkpt><trkpt lat="55.7551617" lon="49.1061517"><time>2022-10-29T09:53:09.057</time></trkpt><trkpt lat="55.7551500" lon="49.1063133"><time>2022-10-29T09:53:11.047</time></trkpt><trkpt lat="55.7551400" lon="49.1064000"><time>2022-10-29T09:53:12.057</time></trkpt><trkpt lat="55.7551300" lon="49.1064900"><time>2022-10-29T09:53:13.057</time></trkpt><trkpt lat="55.7551200" lon="49.1065733"><time>2022-10-29T09:53:14.057</time></trkpt><trkpt lat="55.7551050" lon="49.1066567"><time>2022-10-29T09:53:15.057</time></trkpt><trkpt lat="55.7550933" lon="49.1067450"><time>2022-10-29T09:53:16.050</time></trkpt><trkpt lat="55.7550900" lon="49.1068367"><time>2022-10-29T09:53:17.047</time></trkpt><trkpt lat="55.7550867" lon="49.1069200"><time>2022-10-29T09:53:18.067</time></trkpt><trkpt lat="55.7552850" lon="49.1071650"><time>2022-10-29T09:53:19.037</time></trkpt><trkpt lat="55.7552583" lon="49.1070650"><time>2022-10-29T09:53:19.517</time></trkpt><trkpt lat="55.7552133" lon="49.1071100"><time>2022-10-29T09:53:20.030</time></trkpt><trkpt lat="55.7551700" lon="49.1072667"><time>2022-10-29T09:53:20.513</time></trkpt><trkpt lat="55.7552167" lon="49.1072300"><time>2022-10-29T09:53:21.037</time></trkpt><trkpt lat="55.7551950" lon="49.1073200"><time>2022-10-29T09:53:23.043</time></trkpt><trkpt lat="55.7551750" lon="49.1074717"><time>2022-10-29T09:53:25.043</time></trkpt><trkpt lat="55.7551717" lon="49.1075683"><time>2022-10-29T09:53:26.047</time></trkpt><trkpt lat="55.7551667" lon="49.1076717"><time>2022-10-29T09:53:27.047</time></trkpt><trkpt lat="55.7551600" lon="49.1077750"><time>2022-10-29T09:53:28.050</time></trkpt><trkpt lat="55.7551483" lon="49.1078700"><time>2022-10-29T09:53:29.047</time></trkpt><trkpt lat="55.7551400" lon="49.1079650"><time>2022-10-29T09:53:30.047</time></trkpt><trkpt lat="55.7551383" lon="49.1080650"><time>2022-10-29T09:53:31.047</time></trkpt><trkpt lat="55.7551400" lon="49.1081650"><time>2022-10-29T09:53:32.047</time></trkpt><trkpt lat="55.7551450" lon="49.1082683"><time>2022-10-29T09:53:33.043</time></trkpt><trkpt lat="55.7551450" lon="49.1083683"><time>2022-10-29T09:53:34.047</time></trkpt><trkpt lat="55.7551500" lon="49.1084733"><time>2022-10-29T09:53:35.047</time></trkpt><trkpt lat="55.7551533" lon="49.1085783"><time>2022-10-29T09:53:36.057</time></trkpt><trkpt lat="55.7551517" lon="49.1085750"><time>2022-10-29T09:53:37.547</time></trkpt><trkpt lat="55.7551517" lon="49.1085800"><time>2022-10-29T09:53:38.447</time></trkpt><trkpt lat="55.7551500" lon="49.1085800"><time>2022-10-29T09:53:39.320</time></trkpt><trkpt lat="55.7551433" lon="49.1086800"><time>2022-10-29T09:53:41.547</time></trkpt><trkpt lat="55.7551417" lon="49.1089483"><time>2022-10-29T09:53:44.043</time></trkpt><trkpt lat="55.7551400" lon="49.1090983"><time>2022-10-29T09:53:45.043</time></trkpt><trkpt lat="55.7551550" lon="49.1092200"><time>2022-10-29T09:53:46.047</time></trkpt><trkpt lat="55.7551517" lon="49.1094833"><time>2022-10-29T09:53:47.047</time></trkpt><trkpt lat="55.7551550" lon="49.1096750"><time>2022-10-29T09:53:48.050</time></trkpt><trkpt lat="55.7551583" lon="49.1098233"><time>2022-10-29T09:53:49.057</time></trkpt><trkpt lat="55.7551567" lon="49.1098233"><time>2022-10-29T09:53:50.040</time></trkpt><trkpt lat="55.7551500" lon="49.1099200"><time>2022-10-29T09:53:52.050</time></trkpt><trkpt lat="55.7551767" lon="49.1100350"><time>2022-10-29T09:53:53.027</time></trkpt><trkpt lat="55.7551933" lon="49.1101367"><time>2022-10-29T09:53:54.037</time></trkpt><trkpt lat="55.7552017" lon="49.1102700"><time>2022-10-29T09:53:55.043</time></trkpt><trkpt lat="55.7552200" lon="49.1103817"><time>2022-10-29T09:53:56.037</time></trkpt><trkpt lat="55.7552567" lon="49.1104617"><time>2022-10-29T09:53:57.047</time></trkpt><trkpt lat="55.7552900" lon="49.1105283"><time>2022-10-29T09:53:58.043</time></trkpt><trkpt lat="55.7553267" lon="49.1105850"><time>2022-10-29T09:53:59.047</time></trkpt><trkpt lat="55.7553650" lon="49.1106383"><time>2022-10-29T09:54:00.050</time></trkpt><trkpt lat="55.7554033" lon="49.1106867"><time>2022-10-29T09:54:01.043</time></trkpt><trkpt lat="55.7554417" lon="49.1107433"><time>2022-10-29T09:54:02.057</time></trkpt><trkpt lat="55.7554417" lon="49.1107417"><time>2022-10-29T09:54:03.050</time></trkpt><trkpt lat="55.7554600" lon="49.1108317"><time>2022-10-29T09:54:05.550</time></trkpt><trkpt lat="55.7554917" lon="49.1109300"><time>2022-10-29T09:54:07.047</time></trkpt><trkpt lat="55.7555117" lon="49.1110683"><time>2022-10-29T09:54:09.050</time></trkpt><trkpt lat="55.7555200" lon="49.1112067"><time>2022-10-29T09:54:11.047</time></trkpt><trkpt lat="55.7555233" lon="49.1113433"><time>2022-10-29T09:54:13.047</time></trkpt><trkpt lat="55.7555283" lon="49.1114733"><time>2022-10-29T09:54:15.047</time></trkpt><trkpt lat="55.7555333" lon="49.1116033"><time>2022-10-29T09:54:17.060</time></trkpt><trkpt lat="55.7551750" lon="49.1078833"><time>2022-10-29T09:54:18.540</time></trkpt><trkpt lat="55.7555300" lon="49.1115767"><time>2022-10-29T09:54:19.030</time></trkpt><trkpt lat="55.7555233" lon="49.1117150"><time>2022-10-29T09:54:20.537</time></trkpt><trkpt lat="55.7555117" lon="49.1118317"><time>2022-10-29T09:54:21.040</time></trkpt><trkpt lat="55.7555083" lon="49.1119633"><time>2022-10-29T09:54:23.043</time></trkpt><trkpt lat="55.7555167" lon="49.1120667"><time>2022-10-29T09:54:25.040</time></trkpt><trkpt lat="55.7555317" lon="49.1121667"><time>2022-10-29T09:54:27.047</time></trkpt><trkpt lat="55.7555350" lon="49.1122750"><time>2022-10-29T09:54:29.047</time></trkpt><trkpt lat="55.7555283" lon="49.1123983"><time>2022-10-29T09:54:31.040</time></trkpt><trkpt lat="55.7555183" lon="49.1125333"><time>2022-10-29T09:54:33.043</time></trkpt><trkpt lat="55.7554950" lon="49.1126600"><time>2022-10-29T09:54:35.047</time></trkpt><trkpt lat="55.7554817" lon="49.1127917"><time>2022-10-29T09:54:37.043</time></trkpt><trkpt lat="55.7554700" lon="49.1129083"><time>2022-10-29T09:54:39.050</time></trkpt><trkpt lat="55.7554633" lon="49.1130067"><time>2022-10-29T09:54:41.043</time></trkpt><trkpt lat="55.7554850" lon="49.1131117"><time>2022-10-29T09:54:43.047</time></trkpt><trkpt lat="55.7554900" lon="49.1132333"><time>2022-10-29T09:54:45.060</time></trkpt><trkpt lat="55.7554783" lon="49.1132667"><time>2022-10-29T09:54:46.533</time></trkpt><trkpt lat="55.7554617" lon="49.1134017"><time>2022-10-29T09:54:47.543</time></trkpt><trkpt lat="55.7554733" lon="49.1134983"><time>2022-10-29T09:54:48.547</time></trkpt><trkpt lat="55.7554767" lon="49.1135817"><time>2022-10-29T09:54:50.050</time></trkpt><trkpt lat="55.7554450" lon="49.1136450"><time>2022-10-29T09:55:00.047</time></trkpt><trkpt lat="55.7554300" lon="49.1135450"><time>2022-10-29T09:57:14.050</time></trkpt><trkpt lat="55.7554433" lon="49.1134383"><time>2022-10-29T09:57:16.063</time></trkpt><trkpt lat="55.7554533" lon="49.1132967"><time>2022-10-29T09:57:18.057</time></trkpt><trkpt lat="55.7554583" lon="49.1131417"><time>2022-10-29T09:57:20.067</time></trkpt><trkpt lat="55.7554583" lon="49.1131383"><time>2022-10-29T09:57:21.040</time></trkpt><trkpt lat="55.7554683" lon="49.1130550"><time>2022-10-29T09:57:22.547</time></trkpt><trkpt lat="55.7554933" lon="49.1129400"><time>2022-10-29T09:57:23.543</time></trkpt><trkpt lat="55.7555100" lon="49.1127983"><time>2022-10-29T09:57:25.047</time></trkpt><trkpt lat="55.7555150" lon="49.1126983"><time>2022-10-29T09:57:26.047</time></trkpt><trkpt lat="55.7555000" lon="49.1125700"><time>2022-10-29T09:57:27.047</time></trkpt><trkpt lat="55.7555067" lon="49.1124750"><time>2022-10-29T09:57:28.050</time></trkpt><trkpt lat="55.7555200" lon="49.1123767"><time>2022-10-29T09:57:29.043</time></trkpt><trkpt lat="55.7555300" lon="49.1122767"><time>2022-10-29T09:57:30.043</time></trkpt><trkpt lat="55.7555367" lon="49.1121917"><time>2022-10-29T09:57:31.043</time></trkpt><trkpt lat="55.7555433" lon="49.1121100"><time>2022-10-29T09:57:32.047</time></trkpt><trkpt lat="55.7555667" lon="49.1119533"><time>2022-10-29T09:57:34.047</time></trkpt><trkpt lat="55.7555767" lon="49.1118633"><time>2022-10-29T09:57:35.047</time></trkpt><trkpt lat="55.7555917" lon="49.1117817"><time>2022-10-29T09:57:36.047</time></trkpt><trkpt lat="55.7556100" lon="49.1116367"><time>2022-10-29T09:57:38.047</time></trkpt><trkpt lat="55.7556283" lon="49.1114783"><time>2022-10-29T09:57:40.057</time></trkpt><trkpt lat="55.7556267" lon="49.1114783"><time>2022-10-29T09:57:41.027</time></trkpt><trkpt lat="55.7556117" lon="49.1113333"><time>2022-10-29T09:57:43.047</time></trkpt><trkpt lat="55.7555933" lon="49.1112500"><time>2022-10-29T09:57:43.547</time></trkpt><trkpt lat="55.7555717" lon="49.1111233"><time>2022-10-29T09:57:45.043</time></trkpt><trkpt lat="55.7555650" lon="49.1109767"><time>2022-10-29T09:57:47.050</time></trkpt><trkpt lat="55.7555800" lon="49.1108683"><time>2022-10-29T09:57:49.047</time></trkpt><trkpt lat="55.7555867" lon="49.1107433"><time>2022-10-29T09:57:51.053</time></trkpt><trkpt lat="55.7555850" lon="49.1107450"><time>2022-10-29T09:57:52.037</time></trkpt><trkpt lat="55.7555900" lon="49.1106400"><time>2022-10-29T09:57:53.040</time></trkpt><trkpt lat="55.7555800" lon="49.1105250"><time>2022-10-29T09:57:54.050</time></trkpt><trkpt lat="55.7555717" lon="49.1104050"><time>2022-10-29T09:57:56.050</time></trkpt><trkpt lat="55.7507550" lon="49.1318850"><time>2022-10-29T09:57:58.053</time></trkpt><trkpt lat="55.7555650" lon="49.1102833"><time>2022-10-29T09:57:58.103</time></trkpt><trkpt lat="55.7555383" lon="49.1101733"><time>2022-10-29T09:58:00.057</time></trkpt><trkpt lat="55.7555383" lon="49.1101733"><time>2022-10-29T09:58:01.030</time></trkpt><trkpt lat="55.7554933" lon="49.1101533"><time>2022-10-29T09:58:03.543</time></trkpt><trkpt lat="55.7554467" lon="49.1101167"><time>2022-10-29T09:58:06.050</time></trkpt><trkpt lat="55.7554117" lon="49.1102100"><time>2022-10-29T09:58:09.043</time></trkpt><trkpt lat="55.7554133" lon="49.1103167"><time>2022-10-29T09:58:11.047</time></trkpt><trkpt lat="55.7554217" lon="49.1104200"><time>2022-10-29T09:58:13.040</time></trkpt><trkpt lat="55.7554433" lon="49.1105283"><time>2022-10-29T09:58:15.050</time></trkpt><trkpt lat="55.7554817" lon="49.1106367"><time>2022-10-29T09:58:17.047</time></trkpt><trkpt lat="55.7555017" lon="49.1107317"><time>2022-10-29T09:58:19.050</time></trkpt><trkpt lat="55.7555200" lon="49.1108183"><time>2022-10-29T09:58:21.047</time></trkpt><trkpt lat="55.7555383" lon="49.1109117"><time>2022-10-29T09:58:23.047</time></trkpt><trkpt lat="55.7555517" lon="49.1110117"><time>2022-10-29T09:58:25.037</time></trkpt><trkpt lat="55.7555600" lon="49.1111167"><time>2022-10-29T09:58:27.043</time></trkpt><trkpt lat="55.7555667" lon="49.1112333"><time>2022-10-29T09:58:29.057</time></trkpt><trkpt lat="55.7555700" lon="49.1113583"><time>2022-10-29T09:58:31.060</time></trkpt><trkpt lat="55.7555700" lon="49.1114983"><time>2022-10-29T09:58:33.057</time></trkpt><trkpt lat="55.7555683" lon="49.1116483"><time>2022-10-29T09:58:35.047</time></trkpt><trkpt lat="55.7555667" lon="49.1117283"><time>2022-10-29T09:58:36.053</time></trkpt><trkpt lat="55.7555667" lon="49.1118083"><time>2022-10-29T09:58:37.057</time></trkpt><trkpt lat="55.7555567" lon="49.1119650"><time>2022-10-29T09:58:39.050</time></trkpt><trkpt lat="55.7555483" lon="49.1121350"><time>2022-10-29T09:58:41.060</time></trkpt><trkpt lat="55.7555433" lon="49.1122233"><time>2022-10-29T09:58:42.053</time></trkpt><trkpt lat="55.7555367" lon="49.1123117"><time>2022-10-29T09:58:43.057</time></trkpt><trkpt lat="55.7555200" lon="49.1124600"><time>2022-10-29T09:58:45.053</time></trkpt><trkpt lat="55.7555033" lon="49.1125350"><time>2022-10-29T09:58:46.053</time></trkpt><trkpt lat="55.7554800" lon="49.1126133"><time>2022-10-29T09:58:47.050</time></trkpt><trkpt lat="55.7554567" lon="49.1127033"><time>2022-10-29T09:58:48.057</time></trkpt><trkpt lat="55.7554383" lon="49.1127967"><time>2022-10-29T09:58:49.057</time></trkpt><trkpt lat="55.7554233" lon="49.1128883"><time>2022-10-29T09:58:50.050</time></trkpt><trkpt lat="55.7554100" lon="49.1129867"><time>2022-10-29T09:58:51.050</time></trkpt><trkpt lat="55.7554000" lon="49.1130900"><time>2022-10-29T09:58:52.057</time></trkpt><trkpt lat="55.7553933" lon="49.1131983"><time>2022-10-29T09:58:53.057</time></trkpt><trkpt lat="55.7553833" lon="49.1133050"><time>2022-10-29T09:58:54.057</time></trkpt><trkpt lat="55.7553700" lon="49.1134100"><time>2022-10-29T09:58:55.053</time></trkpt><trkpt lat="55.7553550" lon="49.1135117"><time>2022-10-29T09:58:56.050</time></trkpt><trkpt lat="55.7553417" lon="49.1136083"><time>2022-10-29T09:58:57.057</time></trkpt><trkpt lat="55.7553317" lon="49.1137050"><time>2022-10-29T09:58:58.057</time></trkpt><trkpt lat="55.7553233" lon="49.1138083"><time>2022-10-29T09:58:59.060</time></trkpt><trkpt lat="55.7553133" lon="49.1139100"><time>2022-10-29T09:59:00.057</time></trkpt><trkpt lat="55.7553033" lon="49.1140100"><time>2022-10-29T09:59:01.057</time></trkpt><trkpt lat="55.7552917" lon="49.1141067"><time>2022-10-29T09:59:02.057</time></trkpt><trkpt lat="55.7552867" lon="49.1142083"><time>2022-10-29T09:59:03.057</time></trkpt><trkpt lat="55.7552800" lon="49.1143133"><time>2022-10-29T09:59:04.060</time></trkpt><trkpt lat="55.7552650" lon="49.1144083"><time>2022-10-29T09:59:05.050</time></trkpt><trkpt lat="55.7552583" lon="49.1145017"><time>2022-10-29T09:59:06.047</time></trkpt><trkpt lat="55.7552500" lon="49.1145950"><time>2022-10-29T09:59:07.057</time></trkpt><trkpt lat="55.7552317" lon="49.1146767"><time>2022-10-29T09:59:08.053</time></trkpt><trkpt lat="55.7552017" lon="49.1147467"><time>2022-10-29T09:59:09.057</time></trkpt><trkpt lat="55.7551650" lon="49.1148067"><time>2022-10-29T09:59:10.060</time></trkpt><trkpt lat="55.7551317" lon="49.1148717"><time>2022-10-29T09:59:11.057</time></trkpt><trkpt lat="55.7550950" lon="49.1149483"><time>2022-10-29T09:59:12.057</time></trkpt><trkpt lat="55.7550600" lon="49.1150367"><time>2022-10-29T09:59:13.057</time></trkpt><trkpt lat="55.7550400" lon="49.1151383"><time>2022-10-29T09:59:14.057</time></trkpt><trkpt lat="55.7550333" lon="49.1152433"><time>2022-10-29T09:59:15.057</time></trkpt><trkpt lat="55.7550433" lon="49.1153500"><time>2022-10-29T09:59:16.057</time></trkpt><trkpt lat="55.7550617" lon="49.1154583"><time>2022-10-29T09:59:17.057</time></trkpt><trkpt lat="55.7550883" lon="49.1155733"><time>2022-10-29T09:59:18.057</time></trkpt><trkpt lat="55.7551167" lon="49.1156917"><time>2022-10-29T09:59:19.060</time></trkpt><trkpt lat="55.7551433" lon="49.1158067"><time>2022-10-29T09:59:20.057</time></trkpt><trkpt lat="55.7551633" lon="49.1159183"><time>2022-10-29T09:59:21.057</time></trkpt><trkpt lat="55.7551817" lon="49.1160300"><time>2022-10-29T09:59:22.057</time></trkpt><trkpt lat="55.7551983" lon="49.1161350"><time>2022-10-29T09:59:23.057</time></trkpt><trkpt lat="55.7552150" lon="49.1162350"><time>2022-10-29T09:59:24.057</time></trkpt><trkpt lat="55.7552267" lon="49.1163317"><time>2022-10-29T09:59:25.057</time></trkpt><trkpt lat="55.7552350" lon="49.1164283"><time>2022-10-29T09:59:26.057</time></trkpt><trkpt lat="55.7552417" lon="49.1165217"><time>2022-10-29T09:59:27.057</time></trkpt><trkpt lat="55.7552450" lon="49.1166133"><time>2022-10-29T09:59:28.037</time></trkpt><trkpt lat="55.7552500" lon="49.1166950"><time>2022-10-29T09:59:29.057</time></trkpt><trkpt lat="55.7552583" lon="49.1167767"><time>2022-10-29T09:59:30.057</time></trkpt><trkpt lat="55.7552700" lon="49.1168667"><time>2022-10-29T09:59:31.060</time></trkpt><trkpt lat="55.7552833" lon="49.1169533"><time>2022-10-29T09:59:32.057</time></trkpt><trkpt lat="55.7552967" lon="49.1170400"><time>2022-10-29T09:59:33.060</time></trkpt><trkpt lat="55.7553067" lon="49.1171267"><time>2022-10-29T09:59:34.057</time></trkpt><trkpt lat="55.7553167" lon="49.1172183"><time>2022-10-29T09:59:35.057</time></trkpt><trkpt lat="55.7553250" lon="49.1173050"><time>2022-10-29T09:59:36.057</time></trkpt><trkpt lat="55.7553317" lon="49.1173850"><time>2022-10-29T09:59:37.053</time></trkpt><trkpt lat="55.7553450" lon="49.1174650"><time>2022-10-29T09:59:38.060</time></trkpt><trkpt lat="55.7553567" lon="49.1175950"><time>2022-10-29T09:59:40.057</time></trkpt><trkpt lat="55.7553400" lon="49.1176833"><time>2022-10-29T09:59:42.057</time></trkpt><trkpt lat="55.7553150" lon="49.1177633"><time>2022-10-29T09:59:45.057</time></trkpt><trkpt lat="55.7553033" lon="49.1178583"><time>2022-10-29T09:59:59.057</time></trkpt><trkpt lat="55.7552550" lon="49.1179000"><time>2022-10-29T10:00:02.057</time></trkpt><trkpt lat="55.7552067" lon="49.1179800"><time>2022-10-29T10:00:05.057</time></trkpt><trkpt lat="55.7551633" lon="49.1180483"><time>2022-10-29T10:00:08.060</time></trkpt><trkpt lat="55.7551300" lon="49.1181167"><time>2022-10-29T10:00:11.057</time></trkpt><trkpt lat="55.7551200" lon="49.1182283"><time>2022-10-29T10:00:15.057</time></trkpt><trkpt lat="55.7551100" lon="49.1183317"><time>2022-10-29T10:00:17.057</time></trkpt><trkpt lat="55.7550983" lon="49.1184600"><time>2022-10-29T10:00:19.057</time></trkpt><trkpt lat="55.7551033" lon="49.1186017"><time>2022-10-29T10:00:21.060</time></trkpt><trkpt lat="55.7551150" lon="49.1187383"><time>2022-10-29T10:00:23.053</time></trkpt><trkpt lat="55.7551333" lon="49.1188533"><time>2022-10-29T10:00:25.057</time></trkpt><trkpt lat="55.7551483" lon="49.1189633"><time>2022-10-29T10:00:27.057</time></trkpt><trkpt lat="55.7551417" lon="49.1190900"><time>2022-10-29T10:00:29.053</time></trkpt><trkpt lat="55.7551317" lon="49.1192433"><time>2022-10-29T10:00:31.057</time></trkpt><trkpt lat="55.7551233" lon="49.1193800"><time>2022-10-29T10:00:33.057</time></trkpt><trkpt lat="55.7551250" lon="49.1195133"><time>2022-10-29T10:00:35.067</time></trkpt><trkpt lat="55.7554000" lon="49.1195500"><time>2022-10-29T10:00:36.047</time></trkpt><trkpt lat="55.7551983" lon="49.1197383"><time>2022-10-29T10:00:36.517</time></trkpt><trkpt lat="55.7551650" lon="49.1196633"><time>2022-10-29T10:00:38.043</time></trkpt><trkpt lat="55.7551417" lon="49.1197533"><time>2022-10-29T10:00:41.047</time></trkpt><trkpt lat="55.7551600" lon="49.1198350"><time>2022-10-29T10:00:43.047</time></trkpt><trkpt lat="55.7551550" lon="49.1199217"><time>2022-10-29T10:00:45.050</time></trkpt><trkpt lat="55.7551750" lon="49.1200067"><time>2022-10-29T10:00:48.030</time></trkpt><trkpt lat="55.7551850" lon="49.1200950"><time>2022-10-29T10:00:50.047</time></trkpt><trkpt lat="55.7551850" lon="49.1202000"><time>2022-10-29T10:00:52.047</time></trkpt><trkpt lat="55.7551883" lon="49.1203017"><time>2022-10-29T10:00:54.050</time></trkpt><trkpt lat="55.7552033" lon="49.1204150"><time>2022-10-29T10:00:57.047</time></trkpt><trkpt lat="55.7552017" lon="49.1205417"><time>2022-10-29T10:01:00.043</time></trkpt><trkpt lat="55.7551950" lon="49.1206383"><time>2022-10-29T10:01:02.050</time></trkpt><trkpt lat="55.7551917" lon="49.1207333"><time>2022-10-29T10:01:04.057</time></trkpt><trkpt lat="55.7551933" lon="49.1208267"><time>2022-10-29T10:01:06.047</time></trkpt><trkpt lat="55.7551867" lon="49.1209117"><time>2022-10-29T10:01:09.060</time></trkpt><trkpt lat="55.7551667" lon="49.1209850"><time>2022-10-29T10:01:16.053</time></trkpt><trkpt lat="55.7551650" lon="49.1210833"><time>2022-10-29T10:01:20.053</time></trkpt><trkpt lat="55.7551617" lon="49.1211700"><time>2022-10-29T10:01:22.057</time></trkpt><trkpt lat="55.7551567" lon="49.1212600"><time>2022-10-29T10:01:24.067</time></trkpt><trkpt lat="55.7551567" lon="49.1212650"><time>2022-10-29T10:01:25.550</time></trkpt><trkpt lat="55.7551500" lon="49.1213933"><time>2022-10-29T10:01:27.547</time></trkpt><trkpt lat="55.7551350" lon="49.1214833"><time>2022-10-29T10:01:29.047</time></trkpt><trkpt lat="55.7551367" lon="49.1216283"><time>2022-10-29T10:01:31.050</time></trkpt><trkpt lat="55.7551283" lon="49.1217567"><time>2022-10-29T10:01:33.047</time></trkpt><trkpt lat="55.7551183" lon="49.1218683"><time>2022-10-29T10:01:35.023</time></trkpt><trkpt lat="55.7551283" lon="49.1219683"><time>2022-10-29T10:01:37.047</time></trkpt><trkpt lat="55.7551517" lon="49.1220400"><time>2022-10-29T10:01:39.043</time></trkpt><trkpt lat="55.7552083" lon="49.1220800"><time>2022-10-29T10:01:42.047</time></trkpt><trkpt lat="55.7552750" lon="49.1221067"><time>2022-10-29T10:01:44.043</time></trkpt><trkpt lat="55.7553583" lon="49.1221350"><time>2022-10-29T10:01:46.047</time></trkpt><trkpt lat="55.7553600" lon="49.1221350"><time>2022-10-29T10:01:47.027</time></trkpt><trkpt lat="55.7554083" lon="49.1221133"><time>2022-10-29T10:01:48.043</time></trkpt><trkpt lat="55.7554833" lon="49.1220850"><time>2022-10-29T10:01:49.047</time></trkpt><trkpt lat="55.7555333" lon="49.1220700"><time>2022-10-29T10:01:50.047</time></trkpt><trkpt lat="55.7555917" lon="49.1220950"><time>2022-10-29T10:01:52.047</time></trkpt><trkpt lat="55.7556450" lon="49.1221533"><time>2022-10-29T10:01:54.047</time></trkpt><trkpt lat="55.7507550" lon="49.1318850"><time>2022-10-29T10:01:56.053</time></trkpt><trkpt lat="55.7556833" lon="49.1222017"><time>2022-10-29T10:01:56.093</time></trkpt><trkpt lat="55.7557433" lon="49.1221867"><time>2022-10-29T10:01:59.057</time></trkpt><trkpt lat="55.7557433" lon="49.1221867"><time>2022-10-29T10:02:00.030</time></trkpt><trkpt lat="55.7558217" lon="49.1221983"><time>2022-10-29T10:02:02.547</time></trkpt><trkpt lat="55.7558683" lon="49.1221817"><time>2022-10-29T10:02:04.047</time></trkpt><trkpt lat="55.7559267" lon="49.1221667"><time>2022-10-29T10:02:07.047</time></trkpt><trkpt lat="55.7559717" lon="49.1221650"><time>2022-10-29T10:02:09.050</time></trkpt><trkpt lat="55.7560117" lon="49.1222200"><time>2022-10-29T10:02:11.047</time></trkpt><trkpt lat="55.7560850" lon="49.1222483"><time>2022-10-29T10:02:13.057</time></trkpt><trkpt lat="55.7561517" lon="49.1222917"><time>2022-10-29T10:02:15.043</time></trkpt><trkpt lat="55.7562150" lon="49.1223000"><time>2022-10-29T10:02:17.043</time></trkpt><trkpt lat="55.7562917" lon="49.1222917"><time>2022-10-29T10:02:19.047</time></trkpt><trkpt lat="55.7563567" lon="49.1222700"><time>2022-10-29T10:02:21.043</time></trkpt><trkpt lat="55.7564183" lon="49.1222267"><time>2022-10-29T10:02:23.047</time></trkpt><trkpt lat="55.7564567" lon="49.1221533"><time>2022-10-29T10:02:25.040</time></trkpt><trkpt lat="55.7564817" lon="49.1220367"><time>2022-10-29T10:02:27.047</time></trkpt><trkpt lat="55.7565117" lon="49.1219383"><time>2022-10-29T10:02:29.053</time></trkpt><trkpt lat="55.7565283" lon="49.1218200"><time>2022-10-29T10:02:31.053</time></trkpt><trkpt lat="55.7565367" lon="49.1216833"><time>2022-10-29T10:02:33.053</time></trkpt><trkpt lat="55.7565400" lon="49.1215483"><time>2022-10-29T10:02:35.057</time></trkpt><trkpt lat="55.7565433" lon="49.1214217"><time>2022-10-29T10:02:37.057</time></trkpt><trkpt lat="55.7565383" lon="49.1212983"><time>2022-10-29T10:02:39.057</time></trkpt><trkpt lat="55.7565417" lon="49.1211800"><time>2022-10-29T10:02:41.053</time></trkpt><trkpt lat="55.7565400" lon="49.1210633"><time>2022-10-29T10:02:43.057</time></trkpt><trkpt lat="55.7565267" lon="49.1209617"><time>2022-10-29T10:02:45.053</time></trkpt><trkpt lat="55.7564967" lon="49.1208667"><time>2022-10-29T10:02:47.057</time></trkpt><trkpt lat="55.7564367" lon="49.1208050"><time>2022-10-29T10:02:49.053</time></trkpt><trkpt lat="55.7563667" lon="49.1207800"><time>2022-10-29T10:02:51.053</time></trkpt><trkpt lat="55.7562983" lon="49.1207700"><time>2022-10-29T10:02:53.053</time></trkpt><trkpt lat="55.7562333" lon="49.1207867"><time>2022-10-29T10:02:55.057</time></trkpt><trkpt lat="55.7561700" lon="49.1208083"><time>2022-10-29T10:02:57.053</time></trkpt><trkpt lat="55.7561117" lon="49.1208183"><time>2022-10-29T10:02:59.057</time></trkpt><trkpt lat="55.7560400" lon="49.1208150"><time>2022-10-29T10:03:01.053</time></trkpt><trkpt lat="55.7559650" lon="49.1208050"><time>2022-10-29T10:03:03.057</time></trkpt><trkpt lat="55.7558867" lon="49.1207817"><time>2022-10-29T10:03:05.053</time></trkpt><trkpt lat="55.7558117" lon="49.1207150"><time>2022-10-29T10:03:07.053</time></trkpt><trkpt lat="55.7557517" lon="49.1206283"><time>2022-10-29T10:03:09.057</time></trkpt><trkpt lat="55.7557283" lon="49.1205283"><time>2022-10-29T10:03:11.057</time></trkpt><trkpt lat="55.7557483" lon="49.1204117"><time>2022-10-29T10:03:13.057</time></trkpt><trkpt lat="55.7557950" lon="49.1203150"><time>2022-10-29T10:03:15.057</time></trkpt><trkpt lat="55.7558717" lon="49.1202350"><time>2022-10-29T10:03:17.057</time></trkpt><trkpt lat="55.7559333" lon="49.1201567"><time>2022-10-29T10:03:19.057</time></trkpt><trkpt lat="55.7560067" lon="49.1200933"><time>2022-10-29T10:03:21.043</time></trkpt><trkpt lat="55.7560517" lon="49.1200600"><time>2022-10-29T10:03:22.053</time></trkpt><trkpt lat="55.7561200" lon="49.1199867"><time>2022-10-29T10:03:24.057</time></trkpt><trkpt lat="55.7561867" lon="49.1199167"><time>2022-10-29T10:03:26.057</time></trkpt><trkpt lat="55.7562350" lon="49.1198550"><time>2022-10-29T10:03:28.057</time></trkpt><trkpt lat="55.7562850" lon="49.1197833"><time>2022-10-29T10:03:30.057</time></trkpt><trkpt lat="55.7563300" lon="49.1197083"><time>2022-10-29T10:03:32.057</time></trkpt><trkpt lat="55.7563850" lon="49.1196367"><time>2022-10-29T10:03:34.057</time></trkpt><trkpt lat="55.7564467" lon="49.1195767"><time>2022-10-29T10:03:36.057</time></trkpt><trkpt lat="55.7565167" lon="49.1195367"><time>2022-10-29T10:03:38.060</time></trkpt><trkpt lat="55.7565583" lon="49.1194817"><time>2022-10-29T10:03:40.057</time></trkpt><trkpt lat="55.7566067" lon="49.1194417"><time>2022-10-29T10:03:43.057</time></trkpt><trkpt lat="55.7565650" lon="49.1193950"><time>2022-10-29T10:03:59.053</time></trkpt><trkpt lat="55.7565183" lon="49.1194067"><time>2022-10-29T10:04:02.057</time></trkpt><trkpt lat="55.7564483" lon="49.1194483"><time>2022-10-29T10:04:05.057</time></trkpt><trkpt lat="55.7563883" lon="49.1194767"><time>2022-10-29T10:04:07.057</time></trkpt><trkpt lat="55.7563433" lon="49.1195250"><time>2022-10-29T10:04:09.060</time></trkpt><trkpt lat="55.7562917" lon="49.1195667"><time>2022-10-29T10:04:11.057</time></trkpt><trkpt lat="55.7562467" lon="49.1196167"><time>2022-10-29T10:04:13.057</time></trkpt><trkpt lat="55.7562100" lon="49.1196667"><time>2022-10-29T10:04:15.057</time></trkpt><trkpt lat="55.7561667" lon="49.1197350"><time>2022-10-29T10:04:18.057</time></trkpt><trkpt lat="55.7561233" lon="49.1197783"><time>2022-10-29T10:04:20.060</time></trkpt><trkpt lat="55.7560733" lon="49.1198350"><time>2022-10-29T10:04:22.060</time></trkpt><trkpt lat="55.7560267" lon="49.1199067"><time>2022-10-29T10:04:24.063</time></trkpt><trkpt lat="55.7559767" lon="49.1199817"><time>2022-10-29T10:04:26.057</time></trkpt><trkpt lat="55.7559250" lon="49.1200533"><time>2022-10-29T10:04:28.047</time></trkpt><trkpt lat="55.7558700" lon="49.1201450"><time>2022-10-29T10:04:30.057</time></trkpt><trkpt lat="55.7558250" lon="49.1202317"><time>2022-10-29T10:04:32.060</time></trkpt><trkpt lat="55.7557933" lon="49.1203317"><time>2022-10-29T10:04:34.060</time></trkpt><trkpt lat="55.7557700" lon="49.1204667"><time>2022-10-29T10:04:36.060</time></trkpt><trkpt lat="55.7557550" lon="49.1206033"><time>2022-10-29T10:04:38.050</time></trkpt><trkpt lat="55.7557467" lon="49.1207617"><time>2022-10-29T10:04:40.060</time></trkpt><trkpt lat="55.7557300" lon="49.1208633"><time>2022-10-29T10:04:42.053</time></trkpt><trkpt lat="55.7556867" lon="49.1209383"><time>2022-10-29T10:04:44.057</time></trkpt><trkpt lat="55.7556283" lon="49.1209950"><time>2022-10-29T10:04:46.057</time></trkpt><trkpt lat="55.7555817" lon="49.1210533"><time>2022-10-29T10:04:48.057</time></trkpt><trkpt lat="55.7555350" lon="49.1211333"><time>2022-10-29T10:04:50.057</time></trkpt><trkpt lat="55.7554783" lon="49.1211900"><time>2022-10-29T10:04:52.060</time></trkpt><trkpt lat="55.7554200" lon="49.1212217"><time>2022-10-29T10:04:54.057</time></trkpt><trkpt lat="55.7553717" lon="49.1212283"><time>2022-10-29T10:04:57.057</time></trkpt><trkpt lat="55.7553150" lon="49.1212133"><time>2022-10-29T10:05:02.057</time></trkpt><trkpt lat="55.7552633" lon="49.1211883"><time>2022-10-29T10:05:06.057</time></trkpt><trkpt lat="55.7552083" lon="49.1211533"><time>2022-10-29T10:05:10.057</time></trkpt><trkpt lat="55.7551667" lon="49.1211183"><time>2022-10-29T10:05:15.057</time></trkpt><trkpt lat="55.7551733" lon="49.1210183"><time>2022-10-29T10:05:21.057</time></trkpt><trkpt lat="55.7551700" lon="49.1209133"><time>2022-10-29T10:05:23.060</time></trkpt><trkpt lat="55.7551667" lon="49.1208017"><time>2022-10-29T10:05:25.057</time></trkpt><trkpt lat="55.7551567" lon="49.1206900"><time>2022-10-29T10:05:27.063</time></trkpt><trkpt lat="55.7551600" lon="49.1205667"><time>2022-10-29T10:05:29.053</time></trkpt><trkpt lat="55.7551700" lon="49.1204683"><time>2022-10-29T10:05:32.053</time></trkpt><trkpt lat="55.7551717" lon="49.1203883"><time>2022-10-29T10:05:36.060</time></trkpt><trkpt lat="55.7551833" lon="49.1202967"><time>2022-10-29T10:05:40.057</time></trkpt><trkpt lat="55.7551750" lon="49.1202150"><time>2022-10-29T10:05:43.053</time></trkpt><trkpt lat="55.7551767" lon="49.1201250"><time>2022-10-29T10:05:47.057</time></trkpt><trkpt lat="55.7551750" lon="49.1200433"><time>2022-10-29T10:05:53.057</time></trkpt><trkpt lat="55.7551967" lon="49.1199633"><time>2022-10-29T10:06:00.060</time></trkpt><trkpt lat="55.7552117" lon="49.1198817"><time>2022-10-29T10:06:03.057</time></trkpt><trkpt lat="55.7552017" lon="49.1197967"><time>2022-10-29T10:06:06.053</time></trkpt><trkpt lat="55.7551667" lon="49.1197217"><time>2022-10-29T10:06:09.057</time></trkpt><trkpt lat="55.7551500" lon="49.1196450"><time>2022-10-29T10:06:19.057</time></trkpt><trkpt lat="55.7551433" lon="49.1195483"><time>2022-10-29T10:06:22.053</time></trkpt><trkpt lat="55.7551550" lon="49.1194567"><time>2022-10-29T10:06:25.063</time></trkpt><trkpt lat="55.7551617" lon="49.1193567"><time>2022-10-29T10:06:28.050</time></trkpt><trkpt lat="55.7551617" lon="49.1192600"><time>2022-10-29T10:06:30.023</time></trkpt><trkpt lat="55.7551617" lon="49.1191417"><time>2022-10-29T10:06:32.047</time></trkpt><trkpt lat="55.7551750" lon="49.1190350"><time>2022-10-29T10:06:34.050</time></trkpt><trkpt lat="55.7551783" lon="49.1189267"><time>2022-10-29T10:06:36.053</time></trkpt><trkpt lat="55.7551550" lon="49.1188033"><time>2022-10-29T10:06:38.017</time></trkpt><trkpt lat="55.7551300" lon="49.1186833"><time>2022-10-29T10:06:40.057</time></trkpt><trkpt lat="55.7551233" lon="49.1185667"><time>2022-10-29T10:06:42.057</time></trkpt><trkpt lat="55.7551367" lon="49.1184417"><time>2022-10-29T10:06:44.060</time></trkpt><trkpt lat="55.7551517" lon="49.1183183"><time>2022-10-29T10:06:46.053</time></trkpt><trkpt lat="55.7551550" lon="49.1182183"><time>2022-10-29T10:06:48.057</time></trkpt><trkpt lat="55.7551550" lon="49.1181333"><time>2022-10-29T10:06:59.057</time></trkpt><trkpt lat="55.7551750" lon="49.1180533"><time>2022-10-29T10:07:13.057</time></trkpt><trkpt lat="55.7552150" lon="49.1179800"><time>2022-10-29T10:07:15.047</time></trkpt><trkpt lat="55.7552767" lon="49.1179117"><time>2022-10-29T10:07:17.060</time></trkpt><trkpt lat="55.7553200" lon="49.1178833"><time>2022-10-29T10:07:18.057</time></trkpt><trkpt lat="55.7553900" lon="49.1178167"><time>2022-10-29T10:07:20.057</time></trkpt><trkpt lat="55.7554650" lon="49.1177683"><time>2022-10-29T10:07:22.057</time></trkpt><trkpt lat="55.7555167" lon="49.1177517"><time>2022-10-29T10:07:23.057</time></trkpt><trkpt lat="55.7555650" lon="49.1177183"><time>2022-10-29T10:07:24.057</time></trkpt><trkpt lat="55.7556167" lon="49.1177000"><time>2022-10-29T10:07:25.057</time></trkpt><trkpt lat="55.7556667" lon="49.1176900"><time>2022-10-29T10:07:26.050</time></trkpt><trkpt lat="55.7557183" lon="49.1176967"><time>2022-10-29T10:07:27.053</time></trkpt><trkpt lat="55.7557683" lon="49.1177117"><time>2022-10-29T10:07:28.050</time></trkpt><trkpt lat="55.7558133" lon="49.1177183"><time>2022-10-29T10:07:29.053</time></trkpt><trkpt lat="55.7558667" lon="49.1177250"><time>2022-10-29T10:07:30.013</time></trkpt><trkpt lat="55.7559183" lon="49.1177333"><time>2022-10-29T10:07:31.057</time></trkpt><trkpt lat="55.7559700" lon="49.1177550"><time>2022-10-29T10:07:32.057</time></trkpt><trkpt lat="55.7560283" lon="49.1177583"><time>2022-10-29T10:07:33.057</time></trkpt><trkpt lat="55.7560800" lon="49.1177650"><time>2022-10-29T10:07:34.057</time></trkpt><trkpt lat="55.7561367" lon="49.1177717"><time>2022-10-29T10:07:35.057</time></trkpt><trkpt lat="55.7561933" lon="49.1177733"><time>2022-10-29T10:07:36.047</time></trkpt><trkpt lat="55.7562400" lon="49.1177767"><time>2022-10-29T10:07:37.047</time></trkpt><trkpt lat="55.7562900" lon="49.1177833"><time>2022-10-29T10:07:38.057</time></trkpt><trkpt lat="55.7563433" lon="49.1177867"><time>2022-10-29T10:07:39.060</time></trkpt><trkpt lat="55.7564033" lon="49.1177900"><time>2022-10-29T10:07:40.057</time></trkpt><trkpt lat="55.7564533" lon="49.1177933"><time>2022-10-29T10:07:41.057</time></trkpt><trkpt lat="55.7565000" lon="49.1177917"><time>2022-10-29T10:07:42.060</time></trkpt><trkpt lat="55.7565500" lon="49.1177933"><time>2022-10-29T10:07:43.057</time></trkpt><trkpt lat="55.7565983" lon="49.1177950"><time>2022-10-29T10:07:44.057</time></trkpt><trkpt lat="55.7566517" lon="49.1178083"><time>2022-10-29T10:07:45.053</time></trkpt><trkpt lat="55.7567133" lon="49.1178150"><time>2022-10-29T10:07:46.047</time></trkpt><trkpt lat="55.7567800" lon="49.1178267"><time>2022-10-29T10:07:47.040</time></trkpt><trkpt lat="55.7568400" lon="49.1178350"><time>2022-10-29T10:07:48.017</time></trkpt><trkpt lat="55.7568917" lon="49.1178450"><time>2022-10-29T10:07:49.043</time></trkpt><trkpt lat="55.7569500" lon="49.1178617"><time>2022-10-29T10:07:50.050</time></trkpt><trkpt lat="55.7570083" lon="49.1178733"><time>2022-10-29T10:07:51.057</time></trkpt><trkpt lat="55.7570667" lon="49.1178900"><time>2022-10-29T10:07:52.060</time></trkpt><trkpt lat="55.7571167" lon="49.1179200"><time>2022-10-29T10:07:53.037</time></trkpt><trkpt lat="55.7571600" lon="49.1179717"><time>2022-10-29T10:07:54.047</time></trkpt><trkpt lat="55.7572083" lon="49.1180433"><time>2022-10-29T10:07:55.050</time></trkpt><trkpt lat="55.7572550" lon="49.1181133"><time>2022-10-29T10:07:56.057</time></trkpt><trkpt lat="55.7573100" lon="49.1181750"><time>2022-10-29T10:07:57.057</time></trkpt><trkpt lat="55.7573733" lon="49.1182250"><time>2022-10-29T10:07:58.053</time></trkpt><trkpt lat="55.7574317" lon="49.1182600"><time>2022-10-29T10:07:59.057</time></trkpt><trkpt lat="55.7575050" lon="49.1182817"><time>2022-10-29T10:08:00.057</time></trkpt><trkpt lat="55.7575683" lon="49.1182817"><time>2022-10-29T10:08:01.030</time></trkpt><trkpt lat="55.7576317" lon="49.1182883"><time>2022-10-29T10:08:02.043</time></trkpt><trkpt lat="55.7576967" lon="49.1182850"><time>2022-10-29T10:08:03.057</time></trkpt><trkpt lat="55.7577567" lon="49.1182800"><time>2022-10-29T10:08:04.050</time></trkpt><trkpt lat="55.7578150" lon="49.1182733"><time>2022-10-29T10:08:05.047</time></trkpt><trkpt lat="55.7578717" lon="49.1182717"><time>2022-10-29T10:08:06.030</time></trkpt><trkpt lat="55.7579367" lon="49.1182733"><time>2022-10-29T10:08:07.053</time></trkpt><trkpt lat="55.7580000" lon="49.1182750"><time>2022-10-29T10:08:08.057</time></trkpt><trkpt lat="55.7580683" lon="49.1182650"><time>2022-10-29T10:08:09.057</time></trkpt><trkpt lat="55.7581350" lon="49.1182650"><time>2022-10-29T10:08:10.060</time></trkpt><trkpt lat="55.7582050" lon="49.1182633"><time>2022-10-29T10:08:11.057</time></trkpt><trkpt lat="55.7582800" lon="49.1182650"><time>2022-10-29T10:08:12.057</time></trkpt><trkpt lat="55.7583550" lon="49.1182733"><time>2022-10-29T10:08:13.057</time></trkpt><trkpt lat="55.7584333" lon="49.1182783"><time>2022-10-29T10:08:14.057</time></trkpt><trkpt lat="55.7585100" lon="49.1182717"><time>2022-10-29T10:08:15.057</time></trkpt><trkpt lat="55.7585900" lon="49.1182683"><time>2022-10-29T10:08:16.060</time></trkpt><trkpt lat="55.7586717" lon="49.1182583"><time>2022-10-29T10:08:17.053</time></trkpt><trkpt lat="55.7587467" lon="49.1182550"><time>2022-10-29T10:08:18.053</time></trkpt><trkpt lat="55.7588150" lon="49.1182450"><time>2022-10-29T10:08:19.027</time></trkpt><trkpt lat="55.7588833" lon="49.1182233"><time>2022-10-29T10:08:20.047</time></trkpt><trkpt lat="55.7589500" lon="49.1181983"><time>2022-10-29T10:08:21.057</time></trkpt><trkpt lat="55.7590267" lon="49.1181750"><time>2022-10-29T10:08:22.057</time></trkpt><trkpt lat="55.7590900" lon="49.1181767"><time>2022-10-29T10:08:23.057</time></trkpt><trkpt lat="55.7591567" lon="49.1181733"><time>2022-10-29T10:08:24.057</time></trkpt><trkpt lat="55.7592167" lon="49.1181750"><time>2022-10-29T10:08:25.053</time></trkpt><trkpt lat="55.7592767" lon="49.1181783"><time>2022-10-29T10:08:26.053</time></trkpt><trkpt lat="55.7593317" lon="49.1181900"><time>2022-10-29T10:08:27.040</time></trkpt><trkpt lat="55.7593833" lon="49.1181933"><time>2022-10-29T10:08:28.057</time></trkpt><trkpt lat="55.7594283" lon="49.1181783"><time>2022-10-29T10:08:29.057</time></trkpt><trkpt lat="55.7594917" lon="49.1181050"><time>2022-10-29T10:08:31.057</time></trkpt><trkpt lat="55.7595117" lon="49.1179583"><time>2022-10-29T10:08:33.057</time></trkpt><trkpt lat="55.7595033" lon="49.1178700"><time>2022-10-29T10:08:34.057</time></trkpt><trkpt lat="55.7594850" lon="49.1177783"><time>2022-10-29T10:08:35.057</time></trkpt><trkpt lat="55.7594683" lon="49.1176833"><time>2022-10-29T10:08:36.057</time></trkpt><trkpt lat="55.7594517" lon="49.1175817"><time>2022-10-29T10:08:37.057</time></trkpt><trkpt lat="55.7594367" lon="49.1174833"><time>2022-10-29T10:08:38.057</time></trkpt><trkpt lat="55.7594200" lon="49.1173800"><time>2022-10-29T10:08:39.060</time></trkpt><trkpt lat="55.7594100" lon="49.1172717"><time>2022-10-29T10:08:40.057</time></trkpt><trkpt lat="55.7593983" lon="49.1171617"><time>2022-10-29T10:08:41.053</time></trkpt><trkpt lat="55.7593817" lon="49.1170533"><time>2022-10-29T10:08:42.060</time></trkpt><trkpt lat="55.7593667" lon="49.1169417"><time>2022-10-29T10:08:43.057</time></trkpt><trkpt lat="55.7593517" lon="49.1168250"><time>2022-10-29T10:08:44.057</time></trkpt><trkpt lat="55.7593333" lon="49.1167083"><time>2022-10-29T10:08:45.060</time></trkpt><trkpt lat="55.7593183" lon="49.1165967"><time>2022-10-29T10:08:46.057</time></trkpt><trkpt lat="55.7593000" lon="49.1164850"><time>2022-10-29T10:08:47.057</time></trkpt><trkpt lat="55.7592850" lon="49.1163767"><time>2022-10-29T10:08:48.050</time></trkpt><trkpt lat="55.7592700" lon="49.1162733"><time>2022-10-29T10:08:49.057</time></trkpt><trkpt lat="55.7592600" lon="49.1161717"><time>2022-10-29T10:08:50.057</time></trkpt><trkpt lat="55.7592467" lon="49.1160750"><time>2022-10-29T10:08:51.057</time></trkpt><trkpt lat="55.7592350" lon="49.1159750"><time>2022-10-29T10:08:52.060</time></trkpt><trkpt lat="55.7592250" lon="49.1158800"><time>2022-10-29T10:08:53.053</time></trkpt><trkpt lat="55.7592167" lon="49.1157833"><time>2022-10-29T10:08:54.060</time></trkpt><trkpt lat="55.7592083" lon="49.1156917"><time>2022-10-29T10:08:55.057</time></trkpt><trkpt lat="55.7592000" lon="49.1155967"><time>2022-10-29T10:08:56.057</time></trkpt><trkpt lat="55.7591900" lon="49.1155017"><time>2022-10-29T10:08:57.057</time></trkpt><trkpt lat="55.7591800" lon="49.1154083"><time>2022-10-29T10:08:58.053</time></trkpt><trkpt lat="55.7591650" lon="49.1153133"><time>2022-10-29T10:08:59.057</time></trkpt><trkpt lat="55.7591500" lon="49.1152183"><time>2022-10-29T10:09:00.053</time></trkpt><trkpt lat="55.7591317" lon="49.1151250"><time>2022-10-29T10:09:01.057</time></trkpt><trkpt lat="55.7591200" lon="49.1150417"><time>2022-10-29T10:09:02.057</time></trkpt><trkpt lat="55.7591067" lon="49.1149550"><time>2022-10-29T10:09:03.057</time></trkpt><trkpt lat="55.7590967" lon="49.1148667"><time>2022-10-29T10:09:04.057</time></trkpt><trkpt lat="55.7590850" lon="49.1147733"><time>2022-10-29T10:09:05.057</time></trkpt><trkpt lat="55.7590733" lon="49.1146817"><time>2022-10-29T10:09:06.040</time></trkpt><trkpt lat="55.7590617" lon="49.1145933"><time>2022-10-29T10:09:07.057</time></trkpt><trkpt lat="55.7590500" lon="49.1145050"><time>2022-10-29T10:09:08.057</time></trkpt><trkpt lat="55.7590400" lon="49.1144167"><time>2022-10-29T10:09:09.057</time></trkpt><trkpt lat="55.7590300" lon="49.1143300"><time>2022-10-29T10:09:10.057</time></trkpt><trkpt lat="55.7590250" lon="49.1142400"><time>2022-10-29T10:09:11.057</time></trkpt><trkpt lat="55.7590200" lon="49.1141517"><time>2022-10-29T10:09:12.057</time></trkpt><trkpt lat="55.7590150" lon="49.1140667"><time>2022-10-29T10:09:13.057</time></trkpt><trkpt lat="55.7590133" lon="49.1139850"><time>2022-10-29T10:09:14.060</time></trkpt><trkpt lat="55.7590150" lon="49.1138350"><time>2022-10-29T10:09:16.053</time></trkpt><trkpt lat="55.7590117" lon="49.1136900"><time>2022-10-29T10:09:18.047</time></trkpt><trkpt lat="55.7590067" lon="49.1135367"><time>2022-10-29T10:09:20.057</time></trkpt><trkpt lat="55.7590017" lon="49.1133817"><time>2022-10-29T10:09:22.057</time></trkpt><trkpt lat="55.7590000" lon="49.1132983"><time>2022-10-29T10:09:23.057</time></trkpt><trkpt lat="55.7589933" lon="49.1132033"><time>2022-10-29T10:09:24.053</time></trkpt><trkpt lat="55.7589833" lon="49.1131033"><time>2022-10-29T10:09:25.057</time></trkpt><trkpt lat="55.7589717" lon="49.1130067"><time>2022-10-29T10:09:26.057</time></trkpt><trkpt lat="55.7589567" lon="49.1129117"><time>2022-10-29T10:09:27.053</time></trkpt><trkpt lat="55.7589450" lon="49.1128133"><time>2022-10-29T10:09:28.070</time></trkpt><trkpt lat="55.7587033" lon="49.1123600"><time>2022-10-29T10:09:30.037</time></trkpt><trkpt lat="55.7586200" lon="49.1122150"><time>2022-10-29T10:09:31.040</time></trkpt><trkpt lat="55.7587067" lon="49.1121983"><time>2022-10-29T10:09:31.543</time></trkpt><trkpt lat="55.7587567" lon="49.1121817"><time>2022-10-29T10:09:32.047</time></trkpt><trkpt lat="55.7588217" lon="49.1121400"><time>2022-10-29T10:09:33.047</time></trkpt><trkpt lat="55.7588383" lon="49.1120533"><time>2022-10-29T10:09:34.047</time></trkpt><trkpt lat="55.7588333" lon="49.1119617"><time>2022-10-29T10:09:35.047</time></trkpt><trkpt lat="55.7588300" lon="49.1118583"><time>2022-10-29T10:09:36.047</time></trkpt><trkpt lat="55.7588250" lon="49.1117517"><time>2022-10-29T10:09:37.050</time></trkpt><trkpt lat="55.7588200" lon="49.1116533"><time>2022-10-29T10:09:38.047</time></trkpt><trkpt lat="55.7588150" lon="49.1115517"><time>2022-10-29T10:09:39.047</time></trkpt><trkpt lat="55.7588083" lon="49.1114500"><time>2022-10-29T10:09:40.047</time></trkpt><trkpt lat="55.7588067" lon="49.1113600"><time>2022-10-29T10:09:41.047</time></trkpt><trkpt lat="55.7588000" lon="49.1112633"><time>2022-10-29T10:09:42.060</time></trkpt><trkpt lat="55.7588017" lon="49.1112217"><time>2022-10-29T10:09:43.540</time></trkpt><trkpt lat="55.7587983" lon="49.1111183"><time>2022-10-29T10:09:44.547</time></trkpt><trkpt lat="55.7587800" lon="49.1109867"><time>2022-10-29T10:09:45.547</time></trkpt><trkpt lat="55.7587633" lon="49.1107917"><time>2022-10-29T10:09:47.047</time></trkpt><trkpt lat="55.7587500" lon="49.1106967"><time>2022-10-29T10:09:48.043</time></trkpt><trkpt lat="55.7587267" lon="49.1106050"><time>2022-10-29T10:09:49.047</time></trkpt><trkpt lat="55.7587100" lon="49.1105150"><time>2022-10-29T10:09:50.043</time></trkpt><trkpt lat="55.7587017" lon="49.1104300"><time>2022-10-29T10:09:51.057</time></trkpt><trkpt lat="55.7587017" lon="49.1104283"><time>2022-10-29T10:09:52.037</time></trkpt><trkpt lat="55.7587067" lon="49.1103367"><time>2022-10-29T10:09:53.550</time></trkpt><trkpt lat="55.7586983" lon="49.1102483"><time>2022-10-29T10:09:54.547</time></trkpt><trkpt lat="55.7586933" lon="49.1101200"><time>2022-10-29T10:09:56.047</time></trkpt><trkpt lat="55.7507550" lon="49.1318850"><time>2022-10-29T10:09:58.057</time></trkpt><trkpt lat="55.7586683" lon="49.1099717"><time>2022-10-29T10:09:58.107</time></trkpt><trkpt lat="55.7586400" lon="49.1098417"><time>2022-10-29T10:10:00.060</time></trkpt><trkpt lat="55.7586400" lon="49.1098400"><time>2022-10-29T10:10:01.030</time></trkpt><trkpt lat="55.7586483" lon="49.1097400"><time>2022-10-29T10:10:04.043</time></trkpt><trkpt lat="55.7586600" lon="49.1096467"><time>2022-10-29T10:10:06.047</time></trkpt><trkpt lat="55.7586200" lon="49.1095883"><time>2022-10-29T10:10:21.047</time></trkpt><trkpt lat="55.7585733" lon="49.1096250"><time>2022-10-29T10:12:04.060</time></trkpt><trkpt lat="55.7585800" lon="49.1097417"><time>2022-10-29T10:12:07.053</time></trkpt><trkpt lat="55.7585933" lon="49.1098650"><time>2022-10-29T10:12:09.060</time></trkpt><trkpt lat="55.7586033" lon="49.1099983"><time>2022-10-29T10:12:11.060</time></trkpt><trkpt lat="55.7586217" lon="49.1101283"><time>2022-10-29T10:12:13.047</time></trkpt><trkpt lat="55.7586400" lon="49.1102617"><time>2022-10-29T10:12:15.057</time></trkpt><trkpt lat="55.7586500" lon="49.1104017"><time>2022-10-29T10:12:17.053</time></trkpt><trkpt lat="55.7586750" lon="49.1105617"><time>2022-10-29T10:12:19.057</time></trkpt><trkpt lat="55.7586867" lon="49.1106467"><time>2022-10-29T10:12:20.057</time></trkpt><trkpt lat="55.7586883" lon="49.1107367"><time>2022-10-29T10:12:21.057</time></trkpt><trkpt lat="55.7586917" lon="49.1108250"><time>2022-10-29T10:12:22.057</time></trkpt><trkpt lat="55.7586967" lon="49.1109083"><time>2022-10-29T10:12:23.057</time></trkpt><trkpt lat="55.7587067" lon="49.1109983"><time>2022-10-29T10:12:24.057</time></trkpt><trkpt lat="55.7587167" lon="49.1110883"><time>2022-10-29T10:12:25.057</time></trkpt><trkpt lat="55.7587250" lon="49.1111850"><time>2022-10-29T10:12:26.057</time></trkpt><trkpt lat="55.7587367" lon="49.1112867"><time>2022-10-29T10:12:27.057</time></trkpt><trkpt lat="55.7587450" lon="49.1113817"><time>2022-10-29T10:12:28.053</time></trkpt><trkpt lat="55.7587517" lon="49.1114683"><time>2022-10-29T10:12:29.060</time></trkpt><trkpt lat="55.7587600" lon="49.1115550"><time>2022-10-29T10:12:30.060</time></trkpt><trkpt lat="55.7587683" lon="49.1116350"><time>2022-10-29T10:12:31.057</time></trkpt><trkpt lat="55.7587800" lon="49.1117183"><time>2022-10-29T10:12:32.060</time></trkpt><trkpt lat="55.7587950" lon="49.1118117"><time>2022-10-29T10:12:33.057</time></trkpt><trkpt lat="55.7588067" lon="49.1119117"><time>2022-10-29T10:12:34.057</time></trkpt><trkpt lat="55.7588250" lon="49.1120100"><time>2022-10-29T10:12:35.053</time></trkpt><trkpt lat="55.7588367" lon="49.1121133"><time>2022-10-29T10:12:36.053</time></trkpt><trkpt lat="55.7588483" lon="49.1122167"><time>2022-10-29T10:12:37.053</time></trkpt><trkpt lat="55.7588567" lon="49.1123150"><time>2022-10-29T10:12:38.057</time></trkpt><trkpt lat="55.7588667" lon="49.1124083"><time>2022-10-29T10:12:39.057</time></trkpt><trkpt lat="55.7588733" lon="49.1125000"><time>2022-10-29T10:12:40.057</time></trkpt><trkpt lat="55.7588817" lon="49.1125917"><time>2022-10-29T10:12:41.057</time></trkpt><trkpt lat="55.7588917" lon="49.1126700"><time>2022-10-29T10:12:42.057</time></trkpt><trkpt lat="55.7589033" lon="49.1128383"><time>2022-10-29T10:12:44.057</time></trkpt><trkpt lat="55.7589100" lon="49.1129350"><time>2022-10-29T10:12:45.060</time></trkpt><trkpt lat="55.7589250" lon="49.1130300"><time>2022-10-29T10:12:46.057</time></trkpt><trkpt lat="55.7589333" lon="49.1131233"><time>2022-10-29T10:12:47.057</time></trkpt><trkpt lat="55.7589383" lon="49.1132167"><time>2022-10-29T10:12:48.057</time></trkpt><trkpt lat="55.7589450" lon="49.1133067"><time>2022-10-29T10:12:49.067</time></trkpt><trkpt lat="55.7589500" lon="49.1134033"><time>2022-10-29T10:12:50.057</time></trkpt><trkpt lat="55.7589550" lon="49.1135067"><time>2022-10-29T10:12:51.053</time></trkpt><trkpt lat="55.7589583" lon="49.1136017"><time>2022-10-29T10:12:52.040</time></trkpt><trkpt lat="55.7589600" lon="49.1136967"><time>2022-10-29T10:12:53.050</time></trkpt><trkpt lat="55.7589667" lon="49.1137950"><time>2022-10-29T10:12:54.053</time></trkpt><trkpt lat="55.7589683" lon="49.1138933"><time>2022-10-29T10:12:55.053</time></trkpt><trkpt lat="55.7589667" lon="49.1140150"><time>2022-10-29T10:12:56.053</time></trkpt><trkpt lat="55.7589733" lon="49.1141400"><time>2022-10-29T10:12:57.057</time></trkpt><trkpt lat="55.7589783" lon="49.1142650"><time>2022-10-29T10:12:58.057</time></trkpt><trkpt lat="55.7589917" lon="49.1143867"><time>2022-10-29T10:12:59.057</time></trkpt><trkpt lat="55.7589933" lon="49.1145033"><time>2022-10-29T10:13:00.057</time></trkpt><trkpt lat="55.7589983" lon="49.1146217"><time>2022-10-29T10:13:01.053</time></trkpt><trkpt lat="55.7590117" lon="49.1147350"><time>2022-10-29T10:13:02.057</time></trkpt><trkpt lat="55.7590283" lon="49.1148467"><time>2022-10-29T10:13:03.057</time></trkpt><trkpt lat="55.7590433" lon="49.1149633"><time>2022-10-29T10:13:04.057</time></trkpt><trkpt lat="55.7590600" lon="49.1150800"><time>2022-10-29T10:13:05.057</time></trkpt><trkpt lat="55.7590783" lon="49.1152050"><time>2022-10-29T10:13:06.057</time></trkpt><trkpt lat="55.7590950" lon="49.1153333"><time>2022-10-29T10:13:07.057</time></trkpt><trkpt lat="55.7591050" lon="49.1154483"><time>2022-10-29T10:13:08.053</time></trkpt><trkpt lat="55.7591233" lon="49.1155667"><time>2022-10-29T10:13:09.053</time></trkpt><trkpt lat="55.7591367" lon="49.1156733"><time>2022-10-29T10:13:10.057</time></trkpt><trkpt lat="55.7591517" lon="49.1157850"><time>2022-10-29T10:13:11.057</time></trkpt><trkpt lat="55.7591633" lon="49.1158917"><time>2022-10-29T10:13:12.057</time></trkpt><trkpt lat="55.7591800" lon="49.1159867"><time>2022-10-29T10:13:13.057</time></trkpt><trkpt lat="55.7591917" lon="49.1160817"><time>2022-10-29T10:13:14.053</time></trkpt><trkpt lat="55.7592083" lon="49.1161817"><time>2022-10-29T10:13:15.057</time></trkpt><trkpt lat="55.7592250" lon="49.1162767"><time>2022-10-29T10:13:16.053</time></trkpt><trkpt lat="55.7592350" lon="49.1163750"><time>2022-10-29T10:13:17.053</time></trkpt><trkpt lat="55.7592517" lon="49.1164767"><time>2022-10-29T10:13:18.057</time></trkpt><trkpt lat="55.7592700" lon="49.1165800"><time>2022-10-29T10:13:19.060</time></trkpt><trkpt lat="55.7592850" lon="49.1166800"><time>2022-10-29T10:13:20.057</time></trkpt><trkpt lat="55.7592950" lon="49.1167667"><time>2022-10-29T10:13:21.057</time></trkpt><trkpt lat="55.7593067" lon="49.1168600"><time>2022-10-29T10:13:22.057</time></trkpt><trkpt lat="55.7593183" lon="49.1169517"><time>2022-10-29T10:13:23.063</time></trkpt><trkpt lat="55.7593333" lon="49.1170483"><time>2022-10-29T10:13:24.060</time></trkpt><trkpt lat="55.7593450" lon="49.1171467"><time>2022-10-29T10:13:25.057</time></trkpt><trkpt lat="55.7593567" lon="49.1172417"><time>2022-10-29T10:13:26.060</time></trkpt><trkpt lat="55.7593717" lon="49.1173317"><time>2022-10-29T10:13:27.057</time></trkpt><trkpt lat="55.7593867" lon="49.1174233"><time>2022-10-29T10:13:28.053</time></trkpt><trkpt lat="55.7593950" lon="49.1175083"><time>2022-10-29T10:13:29.057</time></trkpt><trkpt lat="55.7594217" lon="49.1175850"><time>2022-10-29T10:13:30.057</time></trkpt><trkpt lat="55.7594317" lon="49.1176650"><time>2022-10-29T10:13:31.057</time></trkpt><trkpt lat="55.7594383" lon="49.1177500"><time>2022-10-29T10:13:32.057</time></trkpt><trkpt lat="55.7594500" lon="49.1178417"><time>2022-10-29T10:13:33.057</time></trkpt><trkpt lat="55.7594583" lon="49.1179217"><time>2022-10-29T10:13:34.057</time></trkpt><trkpt lat="55.7594667" lon="49.1180267"><time>2022-10-29T10:13:36.053</time></trkpt><trkpt lat="55.7594933" lon="49.1179317"><time>2022-10-29T10:14:48.053</time></trkpt><trkpt lat="55.7594783" lon="49.1178267"><time>2022-10-29T10:14:50.057</time></trkpt><trkpt lat="55.7594467" lon="49.1176983"><time>2022-10-29T10:14:52.057</time></trkpt><trkpt lat="55.7594383" lon="49.1176200"><time>2022-10-29T10:14:53.053</time></trkpt><trkpt lat="55.7594333" lon="49.1175350"><time>2022-10-29T10:14:54.057</time></trkpt><trkpt lat="55.7594217" lon="49.1174483"><time>2022-10-29T10:14:55.057</time></trkpt><trkpt lat="55.7594050" lon="49.1173650"><time>2022-10-29T10:14:56.057</time></trkpt><trkpt lat="55.7593917" lon="49.1172833"><time>2022-10-29T10:14:57.057</time></trkpt><trkpt lat="55.7593900" lon="49.1172017"><time>2022-10-29T10:14:58.057</time></trkpt><trkpt lat="55.7593800" lon="49.1171167"><time>2022-10-29T10:14:59.057</time></trkpt><trkpt lat="55.7593683" lon="49.1170167"><time>2022-10-29T10:15:00.057</time></trkpt><trkpt lat="55.7593533" lon="49.1169200"><time>2022-10-29T10:15:01.063</time></trkpt><trkpt lat="55.7593350" lon="49.1168250"><time>2022-10-29T10:15:02.060</time></trkpt><trkpt lat="55.7593217" lon="49.1167267"><time>2022-10-29T10:15:03.050</time></trkpt><trkpt lat="55.7593117" lon="49.1166283"><time>2022-10-29T10:15:04.057</time></trkpt><trkpt lat="55.7592983" lon="49.1165283"><time>2022-10-29T10:15:05.053</time></trkpt><trkpt lat="55.7592817" lon="49.1164317"><time>2022-10-29T10:15:06.057</time></trkpt><trkpt lat="55.7592700" lon="49.1163450"><time>2022-10-29T10:15:07.057</time></trkpt><trkpt lat="55.7592617" lon="49.1162583"><time>2022-10-29T10:15:08.057</time></trkpt><trkpt lat="55.7592583" lon="49.1161000"><time>2022-10-29T10:15:10.057</time></trkpt><trkpt lat="55.7592500" lon="49.1160133"><time>2022-10-29T10:15:11.057</time></trkpt><trkpt lat="55.7592233" lon="49.1158650"><time>2022-10-29T10:15:13.057</time></trkpt><trkpt lat="55.7592167" lon="49.1157833"><time>2022-10-29T10:15:14.057</time></trkpt><trkpt lat="55.7592033" lon="49.1156900"><time>2022-10-29T10:15:15.050</time></trkpt><trkpt lat="55.7591867" lon="49.1156050"><time>2022-10-29T10:15:16.057</time></trkpt><trkpt lat="55.7591633" lon="49.1154617"><time>2022-10-29T10:15:18.057</time></trkpt><trkpt lat="55.7591433" lon="49.1153217"><time>2022-10-29T10:15:20.053</time></trkpt><trkpt lat="55.7591667" lon="49.1152167"><time>2022-10-29T10:15:22.057</time></trkpt><trkpt lat="55.7592267" lon="49.1151417"><time>2022-10-29T10:15:24.053</time></trkpt><trkpt lat="55.7592967" lon="49.1151133"><time>2022-10-29T10:15:26.057</time></trkpt><trkpt lat="55.7593733" lon="49.1150917"><time>2022-10-29T10:15:28.053</time></trkpt><trkpt lat="55.7594583" lon="49.1150350"><time>2022-10-29T10:15:30.057</time></trkpt><trkpt lat="55.7595167" lon="49.1149700"><time>2022-10-29T10:15:32.053</time></trkpt><trkpt lat="55.7595550" lon="49.1148900"><time>2022-10-29T10:15:34.057</time></trkpt><trkpt lat="55.7596300" lon="49.1148800"><time>2022-10-29T10:15:37.057</time></trkpt><trkpt lat="55.7597067" lon="49.1148817"><time>2022-10-29T10:15:39.057</time></trkpt><trkpt lat="55.7597850" lon="49.1148817"><time>2022-10-29T10:15:41.057</time></trkpt><trkpt lat="55.7598300" lon="49.1148800"><time>2022-10-29T10:15:42.057</time></trkpt><trkpt lat="55.7598800" lon="49.1148750"><time>2022-10-29T10:15:43.057</time></trkpt><trkpt lat="55.7599317" lon="49.1148633"><time>2022-10-29T10:15:44.057</time></trkpt><trkpt lat="55.7599867" lon="49.1148517"><time>2022-10-29T10:15:45.057</time></trkpt><trkpt lat="55.7600383" lon="49.1148350"><time>2022-10-29T10:15:46.057</time></trkpt><trkpt lat="55.7600917" lon="49.1148233"><time>2022-10-29T10:15:47.057</time></trkpt><trkpt lat="55.7601400" lon="49.1148183"><time>2022-10-29T10:15:48.053</time></trkpt><trkpt lat="55.7601867" lon="49.1148117"><time>2022-10-29T10:15:49.057</time></trkpt><trkpt lat="55.7602733" lon="49.1148033"><time>2022-10-29T10:15:51.057</time></trkpt><trkpt lat="55.7603217" lon="49.1147967"><time>2022-10-29T10:15:52.053</time></trkpt><trkpt lat="55.7603783" lon="49.1147917"><time>2022-10-29T10:15:53.053</time></trkpt><trkpt lat="55.7604233" lon="49.1147817"><time>2022-10-29T10:15:54.057</time></trkpt><trkpt lat="55.7604750" lon="49.1147800"><time>2022-10-29T10:15:55.057</time></trkpt><trkpt lat="55.7605317" lon="49.1147783"><time>2022-10-29T10:15:56.050</time></trkpt><trkpt lat="55.7605833" lon="49.1147783"><time>2022-10-29T10:15:57.057</time></trkpt><trkpt lat="55.7606383" lon="49.1147583"><time>2022-10-29T10:15:58.057</time></trkpt><trkpt lat="55.7606900" lon="49.1147483"><time>2022-10-29T10:15:59.057</time></trkpt><trkpt lat="55.7607383" lon="49.1147467"><time>2022-10-29T10:16:00.053</time></trkpt><trkpt lat="55.7607917" lon="49.1147433"><time>2022-10-29T10:16:01.053</time></trkpt><trkpt lat="55.7608400" lon="49.1147300"><time>2022-10-29T10:16:02.053</time></trkpt><trkpt lat="55.7608900" lon="49.1147100"><time>2022-10-29T10:16:03.053</time></trkpt><trkpt lat="55.7609350" lon="49.1146867"><time>2022-10-29T10:16:04.053</time></trkpt><trkpt lat="55.7609850" lon="49.1146683"><time>2022-10-29T10:16:05.057</time></trkpt><trkpt lat="55.7610350" lon="49.1146183"><time>2022-10-29T10:16:06.053</time></trkpt><trkpt lat="55.7610800" lon="49.1145867"><time>2022-10-29T10:16:07.043</time></trkpt><trkpt lat="55.7611233" lon="49.1145650"><time>2022-10-29T10:16:08.057</time></trkpt><trkpt lat="55.7611700" lon="49.1145333"><time>2022-10-29T10:16:09.057</time></trkpt><trkpt lat="55.7612200" lon="49.1144883"><time>2022-10-29T10:16:10.057</time></trkpt><trkpt lat="55.7612750" lon="49.1144483"><time>2022-10-29T10:16:11.053</time></trkpt><trkpt lat="55.7613300" lon="49.1144017"><time>2022-10-29T10:16:12.053</time></trkpt><trkpt lat="55.7613867" lon="49.1143350"><time>2022-10-29T10:16:13.057</time></trkpt><trkpt lat="55.7614383" lon="49.1142917"><time>2022-10-29T10:16:14.053</time></trkpt><trkpt lat="55.7614967" lon="49.1142417"><time>2022-10-29T10:16:15.057</time></trkpt><trkpt lat="55.7615450" lon="49.1142100"><time>2022-10-29T10:16:16.047</time></trkpt><trkpt lat="55.7615967" lon="49.1141683"><time>2022-10-29T10:16:17.057</time></trkpt><trkpt lat="55.7616433" lon="49.1141100"><time>2022-10-29T10:16:18.060</time></trkpt><trkpt lat="55.7616950" lon="49.1140633"><time>2022-10-29T10:16:19.057</time></trkpt><trkpt lat="55.7617500" lon="49.1140100"><time>2022-10-29T10:16:20.053</time></trkpt><trkpt lat="55.7617950" lon="49.1139567"><time>2022-10-29T10:16:21.053</time></trkpt><trkpt lat="55.7618367" lon="49.1139167"><time>2022-10-29T10:16:22.053</time></trkpt><trkpt lat="55.7619150" lon="49.1139017"><time>2022-10-29T10:16:24.057</time></trkpt><trkpt lat="55.7619833" lon="49.1138883"><time>2022-10-29T10:16:26.057</time></trkpt><trkpt lat="55.7620217" lon="49.1138283"><time>2022-10-29T10:16:28.057</time></trkpt><trkpt lat="55.7620800" lon="49.1137217"><time>2022-10-29T10:16:30.057</time></trkpt><trkpt lat="55.7621433" lon="49.1136333"><time>2022-10-29T10:16:32.053</time></trkpt><trkpt lat="55.7621850" lon="49.1135233"><time>2022-10-29T10:16:34.057</time></trkpt><trkpt lat="55.7622183" lon="49.1134017"><time>2022-10-29T10:16:36.053</time></trkpt><trkpt lat="55.7622367" lon="49.1132450"><time>2022-10-29T10:16:38.057</time></trkpt><trkpt lat="55.7622417" lon="49.1131583"><time>2022-10-29T10:16:39.057</time></trkpt><trkpt lat="55.7622517" lon="49.1130717"><time>2022-10-29T10:16:40.057</time></trkpt><trkpt lat="55.7622717" lon="49.1129817"><time>2022-10-29T10:16:41.057</time></trkpt><trkpt lat="55.7622983" lon="49.1128367"><time>2022-10-29T10:16:43.060</time></trkpt><trkpt lat="55.7623150" lon="49.1127000"><time>2022-10-29T10:16:45.057</time></trkpt><trkpt lat="55.7623383" lon="49.1126167"><time>2022-10-29T10:16:46.057</time></trkpt><trkpt lat="55.7623650" lon="49.1125350"><time>2022-10-29T10:16:47.057</time></trkpt><trkpt lat="55.7624000" lon="49.1124667"><time>2022-10-29T10:16:48.057</time></trkpt><trkpt lat="55.7624367" lon="49.1124100"><time>2022-10-29T10:16:49.047</time></trkpt><trkpt lat="55.7624767" lon="49.1123450"><time>2022-10-29T10:16:50.067</time></trkpt><trkpt lat="55.7625233" lon="49.1122400"><time>2022-10-29T10:16:51.047</time></trkpt><trkpt lat="55.7625733" lon="49.1122517"><time>2022-10-29T10:16:51.530</time></trkpt><trkpt lat="55.7625933" lon="49.1121717"><time>2022-10-29T10:16:53.033</time></trkpt><trkpt lat="55.7626050" lon="49.1120717"><time>2022-10-29T10:16:55.030</time></trkpt><trkpt lat="55.7626600" lon="49.1119633"><time>2022-10-29T10:16:57.043</time></trkpt><trkpt lat="55.7627200" lon="49.1118700"><time>2022-10-29T10:16:59.043</time></trkpt><trkpt lat="55.7627433" lon="49.1117983"><time>2022-10-29T10:17:00.037</time></trkpt><trkpt lat="55.7627750" lon="49.1117317"><time>2022-10-29T10:17:01.037</time></trkpt><trkpt lat="55.7628050" lon="49.1116683"><time>2022-10-29T10:17:02.043</time></trkpt><trkpt lat="55.7628317" lon="49.1116000"><time>2022-10-29T10:17:03.047</time></trkpt><trkpt lat="55.7628567" lon="49.1115283"><time>2022-10-29T10:17:04.047</time></trkpt><trkpt lat="55.7628817" lon="49.1114567"><time>2022-10-29T10:17:05.037</time></trkpt><trkpt lat="55.7629067" lon="49.1113750"><time>2022-10-29T10:17:06.040</time></trkpt><trkpt lat="55.7629317" lon="49.1112950"><time>2022-10-29T10:17:07.037</time></trkpt><trkpt lat="55.7629567" lon="49.1112250"><time>2022-10-29T10:17:08.047</time></trkpt><trkpt lat="55.7629950" lon="49.1110950"><time>2022-10-29T10:17:10.043</time></trkpt><trkpt lat="55.7630283" lon="49.1109717"><time>2022-10-29T10:17:12.033</time></trkpt><trkpt lat="55.7630600" lon="49.1108750"><time>2022-10-29T10:17:14.047</time></trkpt><trkpt lat="55.7630833" lon="49.1108033"><time>2022-10-29T10:17:16.050</time></trkpt><trkpt lat="55.7631050" lon="49.1107133"><time>2022-10-29T10:17:30.057</time></trkpt><trkpt lat="55.7631133" lon="49.1106317"><time>2022-10-29T10:17:32.057</time></trkpt><trkpt lat="55.7631133" lon="49.1105300"><time>2022-10-29T10:17:34.040</time></trkpt><trkpt lat="55.7631183" lon="49.1103983"><time>2022-10-29T10:17:36.057</time></trkpt><trkpt lat="55.7631333" lon="49.1102717"><time>2022-10-29T10:17:38.070</time></trkpt><trkpt lat="55.7631333" lon="49.1102717"><time>2022-10-29T10:17:39.060</time></trkpt><trkpt lat="55.7631667" lon="49.1102150"><time>2022-10-29T10:17:40.543</time></trkpt><trkpt lat="55.7631983" lon="49.1101267"><time>2022-10-29T10:17:41.043</time></trkpt><trkpt lat="55.7632333" lon="49.1100567"><time>2022-10-29T10:17:41.543</time></trkpt><trkpt lat="55.7632733" lon="49.1099850"><time>2022-10-29T10:17:42.540</time></trkpt><trkpt lat="55.7633117" lon="49.1098867"><time>2022-10-29T10:17:44.043</time></trkpt><trkpt lat="55.7633633" lon="49.1097550"><time>2022-10-29T10:17:46.043</time></trkpt><trkpt lat="55.7634267" lon="49.1096450"><time>2022-10-29T10:17:48.043</time></trkpt><trkpt lat="55.7634600" lon="49.1095883"><time>2022-10-29T10:17:49.047</time></trkpt><trkpt lat="55.7635017" lon="49.1095333"><time>2022-10-29T10:17:50.043</time></trkpt><trkpt lat="55.7635417" lon="49.1094717"><time>2022-10-29T10:17:51.047</time></trkpt><trkpt lat="55.7635867" lon="49.1094050"><time>2022-10-29T10:17:52.047</time></trkpt><trkpt lat="55.7636267" lon="49.1093367"><time>2022-10-29T10:17:53.043</time></trkpt><trkpt lat="55.7636683" lon="49.1092700"><time>2022-10-29T10:17:54.037</time></trkpt><trkpt lat="55.7637100" lon="49.1092133"><time>2022-10-29T10:17:55.037</time></trkpt><trkpt lat="55.7637517" lon="49.1091517"><time>2022-10-29T10:17:56.043</time></trkpt><trkpt lat="55.7637933" lon="49.1090917"><time>2022-10-29T10:17:57.043</time></trkpt><trkpt lat="55.7638400" lon="49.1090333"><time>2022-10-29T10:17:58.040</time></trkpt><trkpt lat="55.7638850" lon="49.1089883"><time>2022-10-29T10:17:59.047</time></trkpt><trkpt lat="55.7639367" lon="49.1089367"><time>2022-10-29T10:18:00.040</time></trkpt><trkpt lat="55.7639900" lon="49.1088817"><time>2022-10-29T10:18:01.047</time></trkpt><trkpt lat="55.7640383" lon="49.1088317"><time>2022-10-29T10:18:02.043</time></trkpt><trkpt lat="55.7640867" lon="49.1087933"><time>2022-10-29T10:18:03.040</time></trkpt><trkpt lat="55.7641383" lon="49.1087500"><time>2022-10-29T10:18:04.043</time></trkpt><trkpt lat="55.7641883" lon="49.1087083"><time>2022-10-29T10:18:05.047</time></trkpt><trkpt lat="55.7642367" lon="49.1086600"><time>2022-10-29T10:18:06.043</time></trkpt><trkpt lat="55.7642883" lon="49.1086133"><time>2022-10-29T10:18:07.043</time></trkpt><trkpt lat="55.7643350" lon="49.1085717"><time>2022-10-29T10:18:08.043</time></trkpt><trkpt lat="55.7643817" lon="49.1085367"><time>2022-10-29T10:18:09.047</time></trkpt><trkpt lat="55.7644333" lon="49.1085000"><time>2022-10-29T10:18:10.053</time></trkpt><trkpt lat="55.7644883" lon="49.1084617"><time>2022-10-29T10:18:11.053</time></trkpt><trkpt lat="55.7645383" lon="49.1084317"><time>2022-10-29T10:18:12.053</time></trkpt><trkpt lat="55.7645950" lon="49.1083933"><time>2022-10-29T10:18:13.053</time></trkpt><trkpt lat="55.7646500" lon="49.1083567"><time>2022-10-29T10:18:14.053</time></trkpt><trkpt lat="55.7646967" lon="49.1083250"><time>2022-10-29T10:18:15.053</time></trkpt><trkpt lat="55.7647467" lon="49.1082900"><time>2022-10-29T10:18:16.053</time></trkpt><trkpt lat="55.7648000" lon="49.1082600"><time>2022-10-29T10:18:17.053</time></trkpt><trkpt lat="55.7648450" lon="49.1082383"><time>2022-10-29T10:18:18.053</time></trkpt><trkpt lat="55.7648950" lon="49.1082133"><time>2022-10-29T10:18:19.053</time></trkpt><trkpt lat="55.7649417" lon="49.1081833"><time>2022-10-29T10:18:20.053</time></trkpt><trkpt lat="55.7649917" lon="49.1081267"><time>2022-10-29T10:18:21.053</time></trkpt><trkpt lat="55.7650367" lon="49.1080950"><time>2022-10-29T10:18:22.053</time></trkpt><trkpt lat="55.7650833" lon="49.1080667"><time>2022-10-29T10:18:23.053</time></trkpt><trkpt lat="55.7651367" lon="49.1080350"><time>2022-10-29T10:18:24.050</time></trkpt><trkpt lat="55.7651917" lon="49.1080000"><time>2022-10-29T10:18:25.057</time></trkpt><trkpt lat="55.7652483" lon="49.1079700"><time>2022-10-29T10:18:26.053</time></trkpt><trkpt lat="55.7653017" lon="49.1079383"><time>2022-10-29T10:18:27.053</time></trkpt><trkpt lat="55.7653517" lon="49.1079067"><time>2022-10-29T10:18:28.053</time></trkpt><trkpt lat="55.7654083" lon="49.1078783"><time>2022-10-29T10:18:29.053</time></trkpt><trkpt lat="55.7654617" lon="49.1078667"><time>2022-10-29T10:18:30.053</time></trkpt><trkpt lat="55.7655117" lon="49.1078517"><time>2022-10-29T10:18:31.053</time></trkpt><trkpt lat="55.7655600" lon="49.1078350"><time>2022-10-29T10:18:32.050</time></trkpt><trkpt lat="55.7656033" lon="49.1078100"><time>2022-10-29T10:18:33.053</time></trkpt><trkpt lat="55.7656500" lon="49.1077933"><time>2022-10-29T10:18:34.057</time></trkpt><trkpt lat="55.7657317" lon="49.1077817"><time>2022-10-29T10:18:36.053</time></trkpt><trkpt lat="55.7657850" lon="49.1077583"><time>2022-10-29T10:18:37.050</time></trkpt><trkpt lat="55.7658433" lon="49.1077267"><time>2022-10-29T10:18:38.057</time></trkpt><trkpt lat="55.7659017" lon="49.1076967"><time>2022-10-29T10:18:39.053</time></trkpt><trkpt lat="55.7659600" lon="49.1076717"><time>2022-10-29T10:18:40.053</time></trkpt><trkpt lat="55.7660250" lon="49.1076400"><time>2022-10-29T10:18:41.053</time></trkpt><trkpt lat="55.7660817" lon="49.1076100"><time>2022-10-29T10:18:42.053</time></trkpt><trkpt lat="55.7661350" lon="49.1075800"><time>2022-10-29T10:18:43.053</time></trkpt><trkpt lat="55.7661883" lon="49.1075517"><time>2022-10-29T10:18:44.050</time></trkpt><trkpt lat="55.7662400" lon="49.1075233"><time>2022-10-29T10:18:45.053</time></trkpt><trkpt lat="55.7662850" lon="49.1075017"><time>2022-10-29T10:18:46.053</time></trkpt><trkpt lat="55.7663417" lon="49.1074733"><time>2022-10-29T10:18:48.053</time></trkpt><trkpt lat="55.7664067" lon="49.1074683"><time>2022-10-29T10:18:51.053</time></trkpt><trkpt lat="55.7664550" lon="49.1074667"><time>2022-10-29T10:18:53.053</time></trkpt><trkpt lat="55.7665300" lon="49.1074550"><time>2022-10-29T10:18:55.053</time></trkpt><trkpt lat="55.7666050" lon="49.1074400"><time>2022-10-29T10:18:57.057</time></trkpt><trkpt lat="55.7666783" lon="49.1074167"><time>2022-10-29T10:18:59.043</time></trkpt><trkpt lat="55.7667350" lon="49.1073950"><time>2022-10-29T10:19:01.053</time></trkpt><trkpt lat="55.7667867" lon="49.1073800"><time>2022-10-29T10:19:03.057</time></trkpt><trkpt lat="55.7667550" lon="49.1074500"><time>2022-10-29T10:20:47.057</time></trkpt><trkpt lat="55.7667567" lon="49.1075300"><time>2022-10-29T10:20:49.053</time></trkpt><trkpt lat="55.7667667" lon="49.1076283"><time>2022-10-29T10:20:51.057</time></trkpt><trkpt lat="55.7667850" lon="49.1077400"><time>2022-10-29T10:20:53.050</time></trkpt><trkpt lat="55.7668083" lon="49.1078133"><time>2022-10-29T10:20:59.053</time></trkpt><trkpt lat="55.7668117" lon="49.1079067"><time>2022-10-29T10:21:05.053</time></trkpt><trkpt lat="55.7668100" lon="49.1080233"><time>2022-10-29T10:21:07.053</time></trkpt><trkpt lat="55.7668083" lon="49.1081333"><time>2022-10-29T10:21:09.057</time></trkpt><trkpt lat="55.7668067" lon="49.1082417"><time>2022-10-29T10:21:11.053</time></trkpt><trkpt lat="55.7668150" lon="49.1083383"><time>2022-10-29T10:21:13.053</time></trkpt><trkpt lat="55.7668167" lon="49.1084300"><time>2022-10-29T10:21:15.053</time></trkpt><trkpt lat="55.7668067" lon="49.1085167"><time>2022-10-29T10:21:17.053</time></trkpt><trkpt lat="55.7667767" lon="49.1085983"><time>2022-10-29T10:21:19.053</time></trkpt><trkpt lat="55.7667467" lon="49.1086800"><time>2022-10-29T10:21:21.053</time></trkpt><trkpt lat="55.7667150" lon="49.1087767"><time>2022-10-29T10:21:23.053</time></trkpt><trkpt lat="55.7666950" lon="49.1088950"><time>2022-10-29T10:21:25.057</time></trkpt><trkpt lat="55.7666717" lon="49.1090383"><time>2022-10-29T10:21:27.057</time></trkpt><trkpt lat="55.7666517" lon="49.1091650"><time>2022-10-29T10:21:29.053</time></trkpt><trkpt lat="55.7666183" lon="49.1092750"><time>2022-10-29T10:21:31.053</time></trkpt><trkpt lat="55.7665950" lon="49.1094000"><time>2022-10-29T10:21:33.053</time></trkpt><trkpt lat="55.7665800" lon="49.1095433"><time>2022-10-29T10:21:35.023</time></trkpt><trkpt lat="55.7665733" lon="49.1096900"><time>2022-10-29T10:21:37.050</time></trkpt><trkpt lat="55.7665750" lon="49.1097783"><time>2022-10-29T10:21:38.053</time></trkpt><trkpt lat="55.7665767" lon="49.1098650"><time>2022-10-29T10:21:39.057</time></trkpt><trkpt lat="55.7665833" lon="49.1099500"><time>2022-10-29T10:21:40.057</time></trkpt><trkpt lat="55.7665883" lon="49.1100383"><time>2022-10-29T10:21:41.053</time></trkpt><trkpt lat="55.7665950" lon="49.1101267"><time>2022-10-29T10:21:42.040</time></trkpt><trkpt lat="55.7665983" lon="49.1102100"><time>2022-10-29T10:21:43.057</time></trkpt><trkpt lat="55.7665967" lon="49.1102933"><time>2022-10-29T10:21:44.050</time></trkpt><trkpt lat="55.7665817" lon="49.1104350"><time>2022-10-29T10:21:46.047</time></trkpt><trkpt lat="55.7665367" lon="49.1105233"><time>2022-10-29T10:21:48.053</time></trkpt><trkpt lat="55.7664783" lon="49.1105300"><time>2022-10-29T10:21:50.057</time></trkpt><trkpt lat="55.7664133" lon="49.1105267"><time>2022-10-29T10:21:52.047</time></trkpt><trkpt lat="55.7663450" lon="49.1105300"><time>2022-10-29T10:21:54.053</time></trkpt><trkpt lat="55.7662817" lon="49.1105333"><time>2022-10-29T10:21:56.050</time></trkpt><trkpt lat="55.7662350" lon="49.1105300"><time>2022-10-29T10:21:57.053</time></trkpt><trkpt lat="55.7661567" lon="49.1105317"><time>2022-10-29T10:21:59.053</time></trkpt><trkpt lat="55.7660683" lon="49.1105317"><time>2022-10-29T10:22:01.053</time></trkpt><trkpt lat="55.7660233" lon="49.1105300"><time>2022-10-29T10:22:02.053</time></trkpt><trkpt lat="55.7659350" lon="49.1105433"><time>2022-10-29T10:22:04.057</time></trkpt><trkpt lat="55.7658900" lon="49.1105517"><time>2022-10-29T10:22:05.063</time></trkpt><trkpt lat="55.7658433" lon="49.1105617"><time>2022-10-29T10:22:06.053</time></trkpt><trkpt lat="55.7657950" lon="49.1105683"><time>2022-10-29T10:22:07.057</time></trkpt><trkpt lat="55.7657467" lon="49.1105800"><time>2022-10-29T10:22:08.053</time></trkpt><trkpt lat="55.7656967" lon="49.1105950"><time>2022-10-29T10:22:09.060</time></trkpt><trkpt lat="55.7656483" lon="49.1106050"><time>2022-10-29T10:22:10.053</time></trkpt><trkpt lat="55.7656017" lon="49.1106083"><time>2022-10-29T10:22:11.050</time></trkpt><trkpt lat="55.7655567" lon="49.1106083"><time>2022-10-29T10:22:12.053</time></trkpt><trkpt lat="55.7655067" lon="49.1106183"><time>2022-10-29T10:22:13.053</time></trkpt><trkpt lat="55.7654583" lon="49.1106333"><time>2022-10-29T10:22:14.067</time></trkpt><trkpt lat="55.7654567" lon="49.1106333"><time>2022-10-29T10:22:15.043</time></trkpt><trkpt lat="55.7654050" lon="49.1106317"><time>2022-10-29T10:22:16.543</time></trkpt><trkpt lat="55.7653400" lon="49.1106433"><time>2022-10-29T10:22:17.540</time></trkpt><trkpt lat="55.7652483" lon="49.1106667"><time>2022-10-29T10:22:19.040</time></trkpt><trkpt lat="55.7651900" lon="49.1106750"><time>2022-10-29T10:22:20.040</time></trkpt><trkpt lat="55.7651367" lon="49.1106783"><time>2022-10-29T10:22:21.043</time></trkpt><trkpt lat="55.7650883" lon="49.1106883"><time>2022-10-29T10:22:22.047</time></trkpt><trkpt lat="55.7649967" lon="49.1107267"><time>2022-10-29T10:22:24.040</time></trkpt><trkpt lat="55.7649533" lon="49.1107533"><time>2022-10-29T10:22:25.043</time></trkpt><trkpt lat="55.7649117" lon="49.1107850"><time>2022-10-29T10:22:26.043</time></trkpt><trkpt lat="55.7648433" lon="49.1108417"><time>2022-10-29T10:22:28.047</time></trkpt><trkpt lat="55.7648017" lon="49.1109583"><time>2022-10-29T10:22:30.043</time></trkpt><trkpt lat="55.7647833" lon="49.1111183"><time>2022-10-29T10:22:32.043</time></trkpt><trkpt lat="55.7647900" lon="49.1112150"><time>2022-10-29T10:22:33.037</time></trkpt><trkpt lat="55.7647950" lon="49.1113150"><time>2022-10-29T10:22:34.043</time></trkpt><trkpt lat="55.7648133" lon="49.1114000"><time>2022-10-29T10:22:35.043</time></trkpt><trkpt lat="55.7648183" lon="49.1114917"><time>2022-10-29T10:22:36.043</time></trkpt><trkpt lat="55.7648183" lon="49.1115733"><time>2022-10-29T10:22:37.043</time></trkpt><trkpt lat="55.7648167" lon="49.1116683"><time>2022-10-29T10:22:38.043</time></trkpt><trkpt lat="55.7648233" lon="49.1118317"><time>2022-10-29T10:22:40.057</time></trkpt><trkpt lat="55.7648233" lon="49.1118333"><time>2022-10-29T10:22:41.527</time></trkpt><trkpt lat="55.7648233" lon="49.1119567"><time>2022-10-29T10:22:45.023</time></trkpt><trkpt lat="55.7648133" lon="49.1120750"><time>2022-10-29T10:22:47.040</time></trkpt><trkpt lat="55.7647933" lon="49.1121850"><time>2022-10-29T10:22:49.030</time></trkpt><trkpt lat="55.7647483" lon="49.1122217"><time>2022-10-29T10:22:50.033</time></trkpt><trkpt lat="55.7646783" lon="49.1122750"><time>2022-10-29T10:22:52.037</time></trkpt><trkpt lat="55.7646033" lon="49.1123183"><time>2022-10-29T10:22:54.047</time></trkpt><trkpt lat="55.7645367" lon="49.1123650"><time>2022-10-29T10:22:56.053</time></trkpt><trkpt lat="55.7650883" lon="49.1111650"><time>2022-10-29T10:22:57.530</time></trkpt><trkpt lat="55.7645450" lon="49.1123400"><time>2022-10-29T10:22:58.433</time></trkpt><trkpt lat="55.7645500" lon="49.1123267"><time>2022-10-29T10:22:59.317</time></trkpt><trkpt lat="55.7645150" lon="49.1122617"><time>2022-10-29T10:22:59.797</time></trkpt><trkpt lat="55.7644533" lon="49.1121833"><time>2022-10-29T10:23:00.620</time></trkpt><trkpt lat="55.7507550" lon="49.1318850"><time>2022-10-29T10:23:02.140</time></trkpt><trkpt lat="55.7642833" lon="49.1128883"><time>2022-10-29T10:23:02.183</time></trkpt><trkpt lat="55.7642917" lon="49.1127883"><time>2022-10-29T10:23:03.603</time></trkpt><trkpt lat="55.7650333" lon="49.1112483"><time>2022-10-29T10:23:04.483</time></trkpt><trkpt lat="55.7642867" lon="49.1126400"><time>2022-10-29T10:23:05.587</time></trkpt><trkpt lat="55.7642367" lon="49.1126217"><time>2022-10-29T10:23:06.093</time></trkpt><trkpt lat="55.7650117" lon="49.1112717"><time>2022-10-29T10:23:07.093</time></trkpt><trkpt lat="55.7642250" lon="49.1127217"><time>2022-10-29T10:23:07.583</time></trkpt><trkpt lat="55.7642783" lon="49.1126767"><time>2022-10-29T10:23:11.087</time></trkpt><trkpt lat="55.7643283" lon="49.1126783"><time>2022-10-29T10:23:13.093</time></trkpt><trkpt lat="55.7643800" lon="49.1127117"><time>2022-10-29T10:23:15.087</time></trkpt><trkpt lat="55.7644667" lon="49.1127217"><time>2022-10-29T10:23:17.093</time></trkpt><trkpt lat="55.7645133" lon="49.1127167"><time>2022-10-29T10:23:18.097</time></trkpt><trkpt lat="55.7645600" lon="49.1127083"><time>2022-10-29T10:23:19.093</time></trkpt><trkpt lat="55.7646050" lon="49.1126850"><time>2022-10-29T10:23:20.097</time></trkpt><trkpt lat="55.7646517" lon="49.1126533"><time>2022-10-29T10:23:21.097</time></trkpt><trkpt lat="55.7647200" lon="49.1125800"><time>2022-10-29T10:23:23.097</time></trkpt><trkpt lat="55.7647500" lon="49.1124633"><time>2022-10-29T10:23:25.097</time></trkpt><trkpt lat="55.7647650" lon="49.1123267"><time>2022-10-29T10:23:27.097</time></trkpt><trkpt lat="55.7647717" lon="49.1122467"><time>2022-10-29T10:23:28.097</time></trkpt><trkpt lat="55.7647767" lon="49.1121633"><time>2022-10-29T10:23:29.097</time></trkpt><trkpt lat="55.7647817" lon="49.1120817"><time>2022-10-29T10:23:30.097</time></trkpt><trkpt lat="55.7647800" lon="49.1119967"><time>2022-10-29T10:23:31.090</time></trkpt><trkpt lat="55.7647767" lon="49.1118417"><time>2022-10-29T10:23:33.100</time></trkpt><trkpt lat="55.7647633" lon="49.1116850"><time>2022-10-29T10:23:35.100</time></trkpt><trkpt lat="55.7647533" lon="49.1115367"><time>2022-10-29T10:23:37.107</time></trkpt><trkpt lat="55.7648633" lon="49.1114567"><time>2022-10-29T10:23:38.097</time></trkpt><trkpt lat="55.7648383" lon="49.1112533"><time>2022-10-29T10:23:40.047</time></trkpt><trkpt lat="55.7648400" lon="49.1111700"><time>2022-10-29T10:23:41.053</time></trkpt><trkpt lat="55.7648650" lon="49.1110900"><time>2022-10-29T10:23:42.053</time></trkpt><trkpt lat="55.7648967" lon="49.1110283"><time>2022-10-29T10:23:43.053</time></trkpt><trkpt lat="55.7649283" lon="49.1109667"><time>2022-10-29T10:23:44.053</time></trkpt><trkpt lat="55.7650017" lon="49.1109033"><time>2022-10-29T10:23:46.040</time></trkpt><trkpt lat="55.7650783" lon="49.1108267"><time>2022-10-29T10:23:48.053</time></trkpt><trkpt lat="55.7651717" lon="49.1107950"><time>2022-10-29T10:23:50.050</time></trkpt><trkpt lat="55.7652200" lon="49.1107850"><time>2022-10-29T10:23:51.047</time></trkpt><trkpt lat="55.7652767" lon="49.1107833"><time>2022-10-29T10:23:52.050</time></trkpt><trkpt lat="55.7653250" lon="49.1107850"><time>2022-10-29T10:23:53.053</time></trkpt><trkpt lat="55.7653717" lon="49.1107950"><time>2022-10-29T10:23:54.053</time></trkpt><trkpt lat="55.7654233" lon="49.1107883"><time>2022-10-29T10:23:55.050</time></trkpt><trkpt lat="55.7654750" lon="49.1107733"><time>2022-10-29T10:23:56.050</time></trkpt><trkpt lat="55.7655233" lon="49.1107617"><time>2022-10-29T10:23:57.050</time></trkpt><trkpt lat="55.7655667" lon="49.1107400"><time>2022-10-29T10:23:58.053</time></trkpt><trkpt lat="55.7656133" lon="49.1107167"><time>2022-10-29T10:23:59.053</time></trkpt><trkpt lat="55.7657017" lon="49.1107033"><time>2022-10-29T10:24:01.053</time></trkpt><trkpt lat="55.7657500" lon="49.1106967"><time>2022-10-29T10:24:02.053</time></trkpt><trkpt lat="55.7658000" lon="49.1106933"><time>2022-10-29T10:24:03.053</time></trkpt><trkpt lat="55.7658533" lon="49.1106917"><time>2022-10-29T10:24:04.053</time></trkpt><trkpt lat="55.7659100" lon="49.1106800"><time>2022-10-29T10:24:05.050</time></trkpt><trkpt lat="55.7659650" lon="49.1106700"><time>2022-10-29T10:24:06.053</time></trkpt><trkpt lat="55.7660183" lon="49.1106567"><time>2022-10-29T10:24:07.050</time></trkpt><trkpt lat="55.7660700" lon="49.1106433"><time>2022-10-29T10:24:08.053</time></trkpt><trkpt lat="55.7661217" lon="49.1106383"><time>2022-10-29T10:24:09.050</time></trkpt><trkpt lat="55.7661817" lon="49.1106300"><time>2022-10-29T10:24:10.053</time></trkpt><trkpt lat="55.7662367" lon="49.1106283"><time>2022-10-29T10:24:11.050</time></trkpt><trkpt lat="55.7662917" lon="49.1106150"><time>2022-10-29T10:24:12.053</time></trkpt><trkpt lat="55.7663433" lon="49.1105983"><time>2022-10-29T10:24:13.053</time></trkpt><trkpt lat="55.7663983" lon="49.1105733"><time>2022-10-29T10:24:14.050</time></trkpt><trkpt lat="55.7664600" lon="49.1105517"><time>2022-10-29T10:24:15.040</time></trkpt><trkpt lat="55.7665150" lon="49.1105417"><time>2022-10-29T10:24:16.050</time></trkpt><trkpt lat="55.7665683" lon="49.1105317"><time>2022-10-29T10:24:17.053</time></trkpt><trkpt lat="55.7666500" lon="49.1105050"><time>2022-10-29T10:24:19.053</time></trkpt><trkpt lat="55.7667217" lon="49.1104633"><time>2022-10-29T10:24:21.053</time></trkpt><trkpt lat="55.7668050" lon="49.1104533"><time>2022-10-29T10:24:23.050</time></trkpt><trkpt lat="55.7669000" lon="49.1104633"><time>2022-10-29T10:24:25.053</time></trkpt><trkpt lat="55.7669533" lon="49.1104633"><time>2022-10-29T10:24:26.053</time></trkpt><trkpt lat="55.7670050" lon="49.1104567"><time>2022-10-29T10:24:27.053</time></trkpt><trkpt lat="55.7670533" lon="49.1104617"><time>2022-10-29T10:24:28.053</time></trkpt><trkpt lat="55.7671033" lon="49.1104700"><time>2022-10-29T10:24:29.057</time></trkpt><trkpt lat="55.7671517" lon="49.1104700"><time>2022-10-29T10:24:30.063</time></trkpt><trkpt lat="55.7672050" lon="49.1104567"><time>2022-10-29T10:24:31.053</time></trkpt><trkpt lat="55.7672617" lon="49.1104450"><time>2022-10-29T10:24:32.053</time></trkpt><trkpt lat="55.7673200" lon="49.1104333"><time>2022-10-29T10:24:33.057</time></trkpt><trkpt lat="55.7673750" lon="49.1104200"><time>2022-10-29T10:24:34.053</time></trkpt><trkpt lat="55.7674367" lon="49.1104067"><time>2022-10-29T10:24:35.053</time></trkpt><trkpt lat="55.7674917" lon="49.1103917"><time>2022-10-29T10:24:36.050</time></trkpt><trkpt lat="55.7675467" lon="49.1103833"><time>2022-10-29T10:24:37.050</time></trkpt><trkpt lat="55.7676017" lon="49.1103800"><time>2022-10-29T10:24:38.050</time></trkpt><trkpt lat="55.7676567" lon="49.1103867"><time>2022-10-29T10:24:39.057</time></trkpt><trkpt lat="55.7677067" lon="49.1103883"><time>2022-10-29T10:24:40.043</time></trkpt><trkpt lat="55.7677517" lon="49.1103900"><time>2022-10-29T10:24:41.053</time></trkpt><trkpt lat="55.7677967" lon="49.1103933"><time>2022-10-29T10:24:42.053</time></trkpt><trkpt lat="55.7678567" lon="49.1103567"><time>2022-10-29T10:24:44.050</time></trkpt><trkpt lat="55.7679217" lon="49.1103083"><time>2022-10-29T10:24:46.053</time></trkpt><trkpt lat="55.7680017" lon="49.1102883"><time>2022-10-29T10:24:48.050</time></trkpt><trkpt lat="55.7680900" lon="49.1102300"><time>2022-10-29T10:24:50.053</time></trkpt><trkpt lat="55.7681400" lon="49.1101933"><time>2022-10-29T10:24:51.050</time></trkpt><trkpt lat="55.7681867" lon="49.1101617"><time>2022-10-29T10:24:52.053</time></trkpt><trkpt lat="55.7682317" lon="49.1101333"><time>2022-10-29T10:24:53.053</time></trkpt><trkpt lat="55.7683100" lon="49.1100900"><time>2022-10-29T10:24:55.053</time></trkpt><trkpt lat="55.7683600" lon="49.1100733"><time>2022-10-29T10:24:56.050</time></trkpt><trkpt lat="55.7684100" lon="49.1100483"><time>2022-10-29T10:24:57.053</time></trkpt><trkpt lat="55.7684600" lon="49.1100233"><time>2022-10-29T10:24:58.050</time></trkpt><trkpt lat="55.7685200" lon="49.1099983"><time>2022-10-29T10:24:59.050</time></trkpt><trkpt lat="55.7685750" lon="49.1099833"><time>2022-10-29T10:25:00.053</time></trkpt><trkpt lat="55.7686283" lon="49.1099600"><time>2022-10-29T10:25:01.050</time></trkpt><trkpt lat="55.7686767" lon="49.1099333"><time>2022-10-29T10:25:02.050</time></trkpt><trkpt lat="55.7687217" lon="49.1099083"><time>2022-10-29T10:25:03.050</time></trkpt><trkpt lat="55.7687717" lon="49.1098800"><time>2022-10-29T10:25:04.053</time></trkpt><trkpt lat="55.7688217" lon="49.1098533"><time>2022-10-29T10:25:05.053</time></trkpt><trkpt lat="55.7688717" lon="49.1098417"><time>2022-10-29T10:25:06.053</time></trkpt><trkpt lat="55.7689233" lon="49.1098233"><time>2022-10-29T10:25:07.053</time></trkpt><trkpt lat="55.7689733" lon="49.1098183"><time>2022-10-29T10:25:08.050</time></trkpt><trkpt lat="55.7690217" lon="49.1098183"><time>2022-10-29T10:25:09.053</time></trkpt><trkpt lat="55.7690733" lon="49.1098133"><time>2022-10-29T10:25:10.050</time></trkpt><trkpt lat="55.7691650" lon="49.1097950"><time>2022-10-29T10:25:12.053</time></trkpt><trkpt lat="55.7692150" lon="49.1097783"><time>2022-10-29T10:25:13.050</time></trkpt><trkpt lat="55.7692650" lon="49.1097650"><time>2022-10-29T10:25:14.050</time></trkpt><trkpt lat="55.7693617" lon="49.1097267"><time>2022-10-29T10:25:16.047</time></trkpt><trkpt lat="55.7694150" lon="49.1097000"><time>2022-10-29T10:25:17.050</time></trkpt><trkpt lat="55.7694800" lon="49.1096067"><time>2022-10-29T10:25:19.053</time></trkpt><trkpt lat="55.7695167" lon="49.1095433"><time>2022-10-29T10:25:20.050</time></trkpt><trkpt lat="55.7695817" lon="49.1094200"><time>2022-10-29T10:25:22.050</time></trkpt><trkpt lat="55.7696067" lon="49.1093450"><time>2022-10-29T10:25:23.050</time></trkpt><trkpt lat="55.7696267" lon="49.1092617"><time>2022-10-29T10:25:24.053</time></trkpt><trkpt lat="55.7696550" lon="49.1091833"><time>2022-10-29T10:25:25.050</time></trkpt><trkpt lat="55.7696800" lon="49.1091100"><time>2022-10-29T10:25:26.050</time></trkpt><trkpt lat="55.7697033" lon="49.1090350"><time>2022-10-29T10:25:27.053</time></trkpt><trkpt lat="55.7697267" lon="49.1089583"><time>2022-10-29T10:25:28.050</time></trkpt><trkpt lat="55.7697517" lon="49.1088900"><time>2022-10-29T10:25:29.053</time></trkpt><trkpt lat="55.7697933" lon="49.1087700"><time>2022-10-29T10:25:31.047</time></trkpt><trkpt lat="55.7698400" lon="49.1086483"><time>2022-10-29T10:25:33.053</time></trkpt><trkpt lat="55.7698933" lon="49.1085383"><time>2022-10-29T10:25:35.053</time></trkpt><trkpt lat="55.7699433" lon="49.1084083"><time>2022-10-29T10:25:37.053</time></trkpt><trkpt lat="55.7699583" lon="49.1082567"><time>2022-10-29T10:25:39.053</time></trkpt><trkpt lat="55.7699683" lon="49.1081267"><time>2022-10-29T10:25:41.050</time></trkpt><trkpt lat="55.7699800" lon="49.1080050"><time>2022-10-29T10:25:43.053</time></trkpt><trkpt lat="55.7699617" lon="49.1078817"><time>2022-10-29T10:25:45.057</time></trkpt><trkpt lat="55.7699317" lon="49.1077733"><time>2022-10-29T10:25:47.063</time></trkpt><trkpt lat="55.7699317" lon="49.1077733"><time>2022-10-29T10:25:48.043</time></trkpt><trkpt lat="55.7699167" lon="49.1076883"><time>2022-10-29T10:25:49.030</time></trkpt><trkpt lat="55.7698883" lon="49.1076000"><time>2022-10-29T10:25:50.033</time></trkpt><trkpt lat="55.7698433" lon="49.1075467"><time>2022-10-29T10:25:50.540</time></trkpt><trkpt lat="55.7698117" lon="49.1074567"><time>2022-10-29T10:25:52.043</time></trkpt><trkpt lat="55.7697883" lon="49.1073333"><time>2022-10-29T10:25:54.047</time></trkpt><trkpt lat="55.7697650" lon="49.1072350"><time>2022-10-29T10:25:56.047</time></trkpt><trkpt lat="55.7697150" lon="49.1071567"><time>2022-10-29T10:25:58.047</time></trkpt><trkpt lat="55.7696433" lon="49.1071367"><time>2022-10-29T10:26:00.047</time></trkpt><trkpt lat="55.7695583" lon="49.1071583"><time>2022-10-29T10:26:02.047</time></trkpt><trkpt lat="55.7695083" lon="49.1071750"><time>2022-10-29T10:26:03.047</time></trkpt><trkpt lat="55.7694583" lon="49.1071817"><time>2022-10-29T10:26:04.047</time></trkpt><trkpt lat="55.7694117" lon="49.1071950"><time>2022-10-29T10:26:05.047</time></trkpt><trkpt lat="55.7693650" lon="49.1072133"><time>2022-10-29T10:26:06.043</time></trkpt><trkpt lat="55.7692817" lon="49.1072533"><time>2022-10-29T10:26:08.043</time></trkpt><trkpt lat="55.7692000" lon="49.1072850"><time>2022-10-29T10:26:10.043</time></trkpt><trkpt lat="55.7691183" lon="49.1073333"><time>2022-10-29T10:26:12.047</time></trkpt><trkpt lat="55.7690717" lon="49.1073533"><time>2022-10-29T10:26:13.043</time></trkpt><trkpt lat="55.7689983" lon="49.1073633"><time>2022-10-29T10:26:15.047</time></trkpt><trkpt lat="55.7689233" lon="49.1073183"><time>2022-10-29T10:26:18.013</time></trkpt><trkpt lat="55.7688883" lon="49.1072533"><time>2022-10-29T10:26:20.017</time></trkpt><trkpt lat="55.7688800" lon="49.1071733"><time>2022-10-29T10:26:22.017</time></trkpt><trkpt lat="55.7688817" lon="49.1070667"><time>2022-10-29T10:26:24.027</time></trkpt><trkpt lat="55.7688850" lon="49.1069633"><time>2022-10-29T10:26:27.047</time></trkpt><trkpt lat="55.7689000" lon="49.1068867"><time>2022-10-29T10:26:31.040</time></trkpt><trkpt lat="55.7689367" lon="49.1067917"><time>2022-10-29T10:26:39.053</time></trkpt><trkpt lat="55.7689967" lon="49.1067683"><time>2022-10-29T10:26:41.050</time></trkpt><trkpt lat="55.7690617" lon="49.1067483"><time>2022-10-29T10:26:43.053</time></trkpt><trkpt lat="55.7691083" lon="49.1067050"><time>2022-10-29T10:26:45.057</time></trkpt><trkpt lat="55.7691617" lon="49.1066750"><time>2022-10-29T10:26:48.047</time></trkpt><trkpt lat="55.7692083" lon="49.1066600"><time>2022-10-29T10:26:58.040</time></trkpt><trkpt lat="55.7692533" lon="49.1066567"><time>2022-10-29T10:27:02.057</time></trkpt><trkpt lat="55.7693083" lon="49.1066583"><time>2022-10-29T10:27:05.057</time></trkpt><trkpt lat="55.7693550" lon="49.1066400"><time>2022-10-29T10:27:08.057</time></trkpt><trkpt lat="55.7694000" lon="49.1065750"><time>2022-10-29T10:27:12.057</time></trkpt><trkpt lat="55.7693783" lon="49.1064967"><time>2022-10-29T10:27:14.057</time></trkpt><trkpt lat="55.7693383" lon="49.1064150"><time>2022-10-29T10:27:17.020</time></trkpt><trkpt lat="55.7693100" lon="49.1063317"><time>2022-10-29T10:27:20.073</time></trkpt><trkpt lat="55.7693100" lon="49.1063317"><time>2022-10-29T10:27:21.050</time></trkpt><trkpt lat="55.7692783" lon="49.1062583"><time>2022-10-29T10:27:24.047</time></trkpt><trkpt lat="55.7692533" lon="49.1061183"><time>2022-10-29T10:27:27.047</time></trkpt><trkpt lat="55.7692467" lon="49.1060367"><time>2022-10-29T10:27:28.047</time></trkpt><trkpt lat="55.7692400" lon="49.1059550"><time>2022-10-29T10:27:29.043</time></trkpt><trkpt lat="55.7692283" lon="49.1058200"><time>2022-10-29T10:27:31.050</time></trkpt><trkpt lat="55.7692100" lon="49.1056917"><time>2022-10-29T10:27:33.047</time></trkpt><trkpt lat="55.7691900" lon="49.1055733"><time>2022-10-29T10:27:35.043</time></trkpt><trkpt lat="55.7691783" lon="49.1054433"><time>2022-10-29T10:27:37.053</time></trkpt><trkpt lat="55.7691783" lon="49.1054433"><time>2022-10-29T10:27:38.033</time></trkpt><trkpt lat="55.7691700" lon="49.1053533"><time>2022-10-29T10:27:40.543</time></trkpt><trkpt lat="55.7691617" lon="49.1052567"><time>2022-10-29T10:27:42.043</time></trkpt><trkpt lat="55.7691650" lon="49.1051433"><time>2022-10-29T10:27:44.043</time></trkpt><trkpt lat="55.7691800" lon="49.1050233"><time>2022-10-29T10:27:46.047</time></trkpt><trkpt lat="55.7691833" lon="49.1049017"><time>2022-10-29T10:27:48.043</time></trkpt><trkpt lat="55.7507550" lon="49.1318850"><time>2022-10-29T10:27:51.053</time></trkpt><trkpt lat="55.7692367" lon="49.1048267"><time>2022-10-29T10:27:51.090</time></trkpt><trkpt lat="55.7692983" lon="49.1047717"><time>2022-10-29T10:27:53.053</time></trkpt><trkpt lat="55.7693000" lon="49.1047717"><time>2022-10-29T10:27:54.487</time></trkpt><trkpt lat="55.7693900" lon="49.1047717"><time>2022-10-29T10:27:58.043</time></trkpt><trkpt lat="55.7694317" lon="49.1047400"><time>2022-10-29T10:27:59.043</time></trkpt><trkpt lat="55.7694733" lon="49.1047000"><time>2022-10-29T10:28:00.043</time></trkpt><trkpt lat="55.7695150" lon="49.1046700"><time>2022-10-29T10:28:01.043</time></trkpt><trkpt lat="55.7695817" lon="49.1046200"><time>2022-10-29T10:28:03.043</time></trkpt><trkpt lat="55.7696617" lon="49.1045817"><time>2022-10-29T10:28:05.047</time></trkpt><trkpt lat="55.7697400" lon="49.1045650"><time>2022-10-29T10:28:07.043</time></trkpt><trkpt lat="55.7698067" lon="49.1045417"><time>2022-10-29T10:28:09.043</time></trkpt><trkpt lat="55.7698933" lon="49.1044950"><time>2022-10-29T10:28:11.047</time></trkpt><trkpt lat="55.7699350" lon="49.1044517"><time>2022-10-29T10:28:12.047</time></trkpt><trkpt lat="55.7699700" lon="49.1043967"><time>2022-10-29T10:28:13.043</time></trkpt><trkpt lat="55.7699917" lon="49.1042383"><time>2022-10-29T10:28:15.043</time></trkpt><trkpt lat="55.7699917" lon="49.1041533"><time>2022-10-29T10:28:16.047</time></trkpt><trkpt lat="55.7699750" lon="49.1040083"><time>2022-10-29T10:28:18.043</time></trkpt><trkpt lat="55.7699533" lon="49.1038800"><time>2022-10-29T10:28:20.043</time></trkpt><trkpt lat="55.7699750" lon="49.1037817"><time>2022-10-29T10:28:22.020</time></trkpt><trkpt lat="55.7700433" lon="49.1037417"><time>2022-10-29T10:28:24.050</time></trkpt><trkpt lat="55.7701117" lon="49.1037167"><time>2022-10-29T10:28:26.053</time></trkpt><trkpt lat="55.7701567" lon="49.1036967"><time>2022-10-29T10:28:27.050</time></trkpt><trkpt lat="55.7702383" lon="49.1036700"><time>2022-10-29T10:28:29.053</time></trkpt><trkpt lat="55.7703267" lon="49.1036550"><time>2022-10-29T10:28:31.053</time></trkpt><trkpt lat="55.7703833" lon="49.1036567"><time>2022-10-29T10:28:32.053</time></trkpt><trkpt lat="55.7704317" lon="49.1036533"><time>2022-10-29T10:28:33.050</time></trkpt><trkpt lat="55.7704817" lon="49.1036550"><time>2022-10-29T10:28:34.050</time></trkpt><trkpt lat="55.7705383" lon="49.1036633"><time>2022-10-29T10:28:35.050</time></trkpt><trkpt lat="55.7706000" lon="49.1036783"><time>2022-10-29T10:28:36.050</time></trkpt><trkpt lat="55.7706583" lon="49.1036783"><time>2022-10-29T10:28:37.050</time></trkpt><trkpt lat="55.7707233" lon="49.1036850"><time>2022-10-29T10:28:38.050</time></trkpt><trkpt lat="55.7707800" lon="49.1036683"><time>2022-10-29T10:28:39.050</time></trkpt><trkpt lat="55.7708383" lon="49.1036450"><time>2022-10-29T10:28:40.050</time></trkpt><trkpt lat="55.7708933" lon="49.1036167"><time>2022-10-29T10:28:41.050</time></trkpt><trkpt lat="55.7709533" lon="49.1035833"><time>2022-10-29T10:28:42.053</time></trkpt><trkpt lat="55.7710083" lon="49.1035467"><time>2022-10-29T10:28:43.050</time></trkpt><trkpt lat="55.7710600" lon="49.1035100"><time>2022-10-29T10:28:44.053</time></trkpt><trkpt lat="55.7711100" lon="49.1034867"><time>2022-10-29T10:28:45.053</time></trkpt><trkpt lat="55.7711667" lon="49.1034583"><time>2022-10-29T10:28:46.053</time></trkpt><trkpt lat="55.7712183" lon="49.1034350"><time>2022-10-29T10:28:47.050</time></trkpt><trkpt lat="55.7712767" lon="49.1034217"><time>2022-10-29T10:28:48.053</time></trkpt><trkpt lat="55.7713400" lon="49.1034100"><time>2022-10-29T10:28:49.050</time></trkpt><trkpt lat="55.7713900" lon="49.1033933"><time>2022-10-29T10:28:50.040</time></trkpt><trkpt lat="55.7714367" lon="49.1033833"><time>2022-10-29T10:28:51.047</time></trkpt><trkpt lat="55.7714867" lon="49.1033650"><time>2022-10-29T10:28:52.053</time></trkpt><trkpt lat="55.7715317" lon="49.1033400"><time>2022-10-29T10:28:53.053</time></trkpt><trkpt lat="55.7716133" lon="49.1033033"><time>2022-10-29T10:28:55.053</time></trkpt><trkpt lat="55.7716850" lon="49.1032650"><time>2022-10-29T10:28:57.050</time></trkpt><trkpt lat="55.7717667" lon="49.1032217"><time>2022-10-29T10:28:59.050</time></trkpt><trkpt lat="55.7718633" lon="49.1031717"><time>2022-10-29T10:29:01.053</time></trkpt><trkpt lat="55.7719117" lon="49.1031400"><time>2022-10-29T10:29:02.050</time></trkpt><trkpt lat="55.7719683" lon="49.1031183"><time>2022-10-29T10:29:03.050</time></trkpt><trkpt lat="55.7720350" lon="49.1030983"><time>2022-10-29T10:29:04.050</time></trkpt><trkpt lat="55.7720867" lon="49.1030783"><time>2022-10-29T10:29:05.050</time></trkpt><trkpt lat="55.7721683" lon="49.1030233"><time>2022-10-29T10:29:07.050</time></trkpt><trkpt lat="55.7722600" lon="49.1029733"><time>2022-10-29T10:29:09.050</time></trkpt><trkpt lat="55.7723133" lon="49.1029417"><time>2022-10-29T10:29:10.050</time></trkpt><trkpt lat="55.7723667" lon="49.1029083"><time>2022-10-29T10:29:11.050</time></trkpt><trkpt lat="55.7724250" lon="49.1028800"><time>2022-10-29T10:29:12.050</time></trkpt><trkpt lat="55.7724683" lon="49.1028433"><time>2022-10-29T10:29:13.053</time></trkpt><trkpt lat="55.7725283" lon="49.1028133"><time>2022-10-29T10:29:14.053</time></trkpt><trkpt lat="55.7725867" lon="49.1027817"><time>2022-10-29T10:29:15.053</time></trkpt><trkpt lat="55.7726467" lon="49.1027733"><time>2022-10-29T10:29:16.050</time></trkpt><trkpt lat="55.7727133" lon="49.1028100"><time>2022-10-29T10:29:17.053</time></trkpt><trkpt lat="55.7727783" lon="49.1028583"><time>2022-10-29T10:29:18.053</time></trkpt><trkpt lat="55.7728500" lon="49.1029550"><time>2022-10-29T10:29:19.053</time></trkpt><trkpt lat="55.7729350" lon="49.1030333"><time>2022-10-29T10:29:20.050</time></trkpt><trkpt lat="55.7730050" lon="49.1030917"><time>2022-10-29T10:29:21.050</time></trkpt><trkpt lat="55.7730600" lon="49.1031550"><time>2022-10-29T10:29:22.053</time></trkpt><trkpt lat="55.7731150" lon="49.1032217"><time>2022-10-29T10:29:23.050</time></trkpt><trkpt lat="55.7731700" lon="49.1032850"><time>2022-10-29T10:29:24.053</time></trkpt><trkpt lat="55.7732167" lon="49.1033500"><time>2022-10-29T10:29:25.050</time></trkpt><trkpt lat="55.7732650" lon="49.1034233"><time>2022-10-29T10:29:26.053</time></trkpt><trkpt lat="55.7733117" lon="49.1035033"><time>2022-10-29T10:29:27.057</time></trkpt><trkpt lat="55.7733583" lon="49.1035717"><time>2022-10-29T10:29:28.047</time></trkpt><trkpt lat="55.7734100" lon="49.1036383"><time>2022-10-29T10:29:29.050</time></trkpt><trkpt lat="55.7734433" lon="49.1037117"><time>2022-10-29T10:29:30.050</time></trkpt><trkpt lat="55.7734967" lon="49.1037800"><time>2022-10-29T10:29:31.050</time></trkpt><trkpt lat="55.7735533" lon="49.1038500"><time>2022-10-29T10:29:32.050</time></trkpt><trkpt lat="55.7736050" lon="49.1039083"><time>2022-10-29T10:29:33.050</time></trkpt><trkpt lat="55.7736550" lon="49.1039600"><time>2022-10-29T10:29:34.050</time></trkpt><trkpt lat="55.7737017" lon="49.1040167"><time>2022-10-29T10:29:35.050</time></trkpt><trkpt lat="55.7737450" lon="49.1040650"><time>2022-10-29T10:29:36.050</time></trkpt><trkpt lat="55.7737867" lon="49.1041133"><time>2022-10-29T10:29:37.050</time></trkpt><trkpt lat="55.7738233" lon="49.1041600"><time>2022-10-29T10:29:38.053</time></trkpt><trkpt lat="55.7738667" lon="49.1042033"><time>2022-10-29T10:29:39.053</time></trkpt><trkpt lat="55.7739133" lon="49.1042567"><time>2022-10-29T10:29:40.050</time></trkpt><trkpt lat="55.7739600" lon="49.1043117"><time>2022-10-29T10:29:41.040</time></trkpt><trkpt lat="55.7740083" lon="49.1043750"><time>2022-10-29T10:29:42.053</time></trkpt><trkpt lat="55.7740567" lon="49.1044367"><time>2022-10-29T10:29:43.050</time></trkpt><trkpt lat="55.7740967" lon="49.1045050"><time>2022-10-29T10:29:44.050</time></trkpt><trkpt lat="55.7741483" lon="49.1045650"><time>2022-10-29T10:29:45.050</time></trkpt><trkpt lat="55.7742000" lon="49.1046200"><time>2022-10-29T10:29:46.063</time></trkpt><trkpt lat="55.7741517" lon="49.1044067"><time>2022-10-29T10:29:47.047</time></trkpt><trkpt lat="55.7742350" lon="49.1044017"><time>2022-10-29T10:29:47.923</time></trkpt><trkpt lat="55.7742383" lon="49.1042850"><time>2022-10-29T10:29:48.413</time></trkpt><trkpt lat="55.7742817" lon="49.1043800"><time>2022-10-29T10:29:49.033</time></trkpt><trkpt lat="55.7743650" lon="49.1047883"><time>2022-10-29T10:29:50.050</time></trkpt><trkpt lat="55.7743600" lon="49.1048117"><time>2022-10-29T10:29:51.507</time></trkpt><trkpt lat="55.7743883" lon="49.1048883"><time>2022-10-29T10:29:52.540</time></trkpt><trkpt lat="55.7744100" lon="49.1049717"><time>2022-10-29T10:29:53.030</time></trkpt><trkpt lat="55.7744350" lon="49.1050650"><time>2022-10-29T10:29:53.543</time></trkpt><trkpt lat="55.7744983" lon="49.1050900"><time>2022-10-29T10:29:55.047</time></trkpt><trkpt lat="55.7745683" lon="49.1051133"><time>2022-10-29T10:29:57.050</time></trkpt><trkpt lat="55.7745967" lon="49.1051783"><time>2022-10-29T10:30:42.057</time></trkpt><trkpt lat="55.7746450" lon="49.1052300"><time>2022-10-29T10:30:44.057</time></trkpt><trkpt lat="55.7747133" lon="49.1053217"><time>2022-10-29T10:30:46.053</time></trkpt><trkpt lat="55.7747550" lon="49.1053817"><time>2022-10-29T10:30:47.057</time></trkpt><trkpt lat="55.7748067" lon="49.1054333"><time>2022-10-29T10:30:48.040</time></trkpt><trkpt lat="55.7748517" lon="49.1054817"><time>2022-10-29T10:30:49.053</time></trkpt><trkpt lat="55.7748933" lon="49.1055500"><time>2022-10-29T10:30:50.053</time></trkpt><trkpt lat="55.7749383" lon="49.1056250"><time>2022-10-29T10:30:51.053</time></trkpt><trkpt lat="55.7749833" lon="49.1056833"><time>2022-10-29T10:30:52.050</time></trkpt><trkpt lat="55.7750250" lon="49.1057450"><time>2022-10-29T10:30:53.023</time></trkpt><trkpt lat="55.7750717" lon="49.1058033"><time>2022-10-29T10:30:54.053</time></trkpt><trkpt lat="55.7751200" lon="49.1058633"><time>2022-10-29T10:30:55.057</time></trkpt><trkpt lat="55.7751600" lon="49.1059283"><time>2022-10-29T10:30:56.057</time></trkpt><trkpt lat="55.7751867" lon="49.1059983"><time>2022-10-29T10:30:57.053</time></trkpt><trkpt lat="55.7752167" lon="49.1061283"><time>2022-10-29T10:30:59.063</time></trkpt><trkpt lat="55.7752150" lon="49.1061300"><time>2022-10-29T10:31:00.050</time></trkpt><trkpt lat="55.7752400" lon="49.1062383"><time>2022-10-29T10:31:02.537</time></trkpt><trkpt lat="55.7752533" lon="49.1063817"><time>2022-10-29T10:31:04.047</time></trkpt><trkpt lat="55.7752267" lon="49.1065067"><time>2022-10-29T10:31:06.050</time></trkpt><trkpt lat="55.7751850" lon="49.1066367"><time>2022-10-29T10:31:08.043</time></trkpt><trkpt lat="55.7751733" lon="49.1067233"><time>2022-10-29T10:31:09.043</time></trkpt><trkpt lat="55.7751450" lon="49.1068683"><time>2022-10-29T10:31:11.053</time></trkpt><trkpt lat="55.7751450" lon="49.1068700"><time>2022-10-29T10:31:12.030</time></trkpt><trkpt lat="55.7751267" lon="49.1069483"><time>2022-10-29T10:31:14.543</time></trkpt><trkpt lat="55.7750917" lon="49.1070083"><time>2022-10-29T10:31:16.037</time></trkpt><trkpt lat="55.7750417" lon="49.1071133"><time>2022-10-29T10:31:18.033</time></trkpt><trkpt lat="55.7750067" lon="49.1072383"><time>2022-10-29T10:31:20.047</time></trkpt><trkpt lat="55.7507550" lon="49.1318850"><time>2022-10-29T10:31:22.047</time></trkpt><trkpt lat="55.7749750" lon="49.1074567"><time>2022-10-29T10:31:22.087</time></trkpt><trkpt lat="55.7749433" lon="49.1075700"><time>2022-10-29T10:31:23.053</time></trkpt><trkpt lat="55.7749417" lon="49.1075667"><time>2022-10-29T10:31:24.517</time></trkpt><trkpt lat="55.7748483" lon="49.1076883"><time>2022-10-29T10:31:29.043</time></trkpt><trkpt lat="55.7747467" lon="49.1077733"><time>2022-10-29T10:31:31.047</time></trkpt><trkpt lat="55.7746933" lon="49.1078117"><time>2022-10-29T10:31:32.043</time></trkpt><trkpt lat="55.7746417" lon="49.1078333"><time>2022-10-29T10:31:33.033</time></trkpt><trkpt lat="55.7745917" lon="49.1078650"><time>2022-10-29T10:31:34.047</time></trkpt><trkpt lat="55.7745483" lon="49.1079033"><time>2022-10-29T10:31:35.013</time></trkpt><trkpt lat="55.7744667" lon="49.1079633"><time>2022-10-29T10:31:37.047</time></trkpt><trkpt lat="55.7744167" lon="49.1080100"><time>2022-10-29T10:31:38.047</time></trkpt><trkpt lat="55.7743700" lon="49.1080533"><time>2022-10-29T10:31:39.047</time></trkpt><trkpt lat="55.7743233" lon="49.1080950"><time>2022-10-29T10:31:40.043</time></trkpt><trkpt lat="55.7742783" lon="49.1081300"><time>2022-10-29T10:31:41.050</time></trkpt><trkpt lat="55.7742283" lon="49.1081900"><time>2022-10-29T10:31:42.047</time></trkpt><trkpt lat="55.7741817" lon="49.1082367"><time>2022-10-29T10:31:43.047</time></trkpt><trkpt lat="55.7741333" lon="49.1082833"><time>2022-10-29T10:31:44.047</time></trkpt><trkpt lat="55.7740750" lon="49.1083500"><time>2022-10-29T10:31:45.047</time></trkpt><trkpt lat="55.7740233" lon="49.1084133"><time>2022-10-29T10:31:46.047</time></trkpt><trkpt lat="55.7739833" lon="49.1084933"><time>2022-10-29T10:31:47.047</time></trkpt><trkpt lat="55.7739550" lon="49.1085783"><time>2022-10-29T10:31:48.047</time></trkpt><trkpt lat="55.7739283" lon="49.1086917"><time>2022-10-29T10:31:49.047</time></trkpt><trkpt lat="55.7738967" lon="49.1088083"><time>2022-10-29T10:31:50.047</time></trkpt><trkpt lat="55.7738667" lon="49.1089267"><time>2022-10-29T10:31:51.047</time></trkpt><trkpt lat="55.7738550" lon="49.1090467"><time>2022-10-29T10:31:52.043</time></trkpt><trkpt lat="55.7738483" lon="49.1091500"><time>2022-10-29T10:31:53.050</time></trkpt><trkpt lat="55.7738550" lon="49.1092667"><time>2022-10-29T10:31:54.050</time></trkpt><trkpt lat="55.7738517" lon="49.1093633"><time>2022-10-29T10:31:55.050</time></trkpt><trkpt lat="55.7738283" lon="49.1094383"><time>2022-10-29T10:31:56.053</time></trkpt><trkpt lat="55.7737833" lon="49.1095750"><time>2022-10-29T10:31:58.047</time></trkpt><trkpt lat="55.7737600" lon="49.1096450"><time>2022-10-29T10:31:59.053</time></trkpt><trkpt lat="55.7737367" lon="49.1097150"><time>2022-10-29T10:32:00.050</time></trkpt><trkpt lat="55.7737200" lon="49.1097933"><time>2022-10-29T10:32:01.053</time></trkpt><trkpt lat="55.7737033" lon="49.1098733"><time>2022-10-29T10:32:02.053</time></trkpt><trkpt lat="55.7736700" lon="49.1100217"><time>2022-10-29T10:32:04.053</time></trkpt><trkpt lat="55.7736433" lon="49.1101617"><time>2022-10-29T10:32:06.053</time></trkpt><trkpt lat="55.7736150" lon="49.1103000"><time>2022-10-29T10:32:08.053</time></trkpt><trkpt lat="55.7736117" lon="49.1103817"><time>2022-10-29T10:32:09.053</time></trkpt><trkpt lat="55.7736167" lon="49.1104683"><time>2022-10-29T10:32:10.053</time></trkpt><trkpt lat="55.7736417" lon="49.1105433"><time>2022-10-29T10:32:11.043</time></trkpt><trkpt lat="55.7736617" lon="49.1106200"><time>2022-10-29T10:32:12.053</time></trkpt><trkpt lat="55.7736783" lon="49.1106983"><time>2022-10-29T10:32:13.050</time></trkpt><trkpt lat="55.7736883" lon="49.1107867"><time>2022-10-29T10:32:14.053</time></trkpt><trkpt lat="55.7736900" lon="49.1108767"><time>2022-10-29T10:32:15.053</time></trkpt><trkpt lat="55.7736900" lon="49.1109800"><time>2022-10-29T10:32:16.053</time></trkpt><trkpt lat="55.7736983" lon="49.1110733"><time>2022-10-29T10:32:17.050</time></trkpt><trkpt lat="55.7737033" lon="49.1111767"><time>2022-10-29T10:32:18.053</time></trkpt><trkpt lat="55.7737150" lon="49.1112633"><time>2022-10-29T10:32:19.053</time></trkpt><trkpt lat="55.7737350" lon="49.1113433"><time>2022-10-29T10:32:20.053</time></trkpt><trkpt lat="55.7737567" lon="49.1114183"><time>2022-10-29T10:32:21.053</time></trkpt><trkpt lat="55.7737767" lon="49.1114983"><time>2022-10-29T10:32:22.050</time></trkpt><trkpt lat="55.7738000" lon="49.1115817"><time>2022-10-29T10:32:23.053</time></trkpt><trkpt lat="55.7738267" lon="49.1116617"><time>2022-10-29T10:32:24.037</time></trkpt><trkpt lat="55.7738533" lon="49.1117450"><time>2022-10-29T10:32:25.050</time></trkpt><trkpt lat="55.7738800" lon="49.1118450"><time>2022-10-29T10:32:26.053</time></trkpt><trkpt lat="55.7738917" lon="49.1119533"><time>2022-10-29T10:32:27.050</time></trkpt><trkpt lat="55.7739083" lon="49.1120633"><time>2022-10-29T10:32:28.053</time></trkpt><trkpt lat="55.7739300" lon="49.1121433"><time>2022-10-29T10:32:29.047</time></trkpt><trkpt lat="55.7739500" lon="49.1122200"><time>2022-10-29T10:32:30.040</time></trkpt><trkpt lat="55.7739683" lon="49.1123033"><time>2022-10-29T10:32:31.047</time></trkpt><trkpt lat="55.7739900" lon="49.1123817"><time>2022-10-29T10:32:32.053</time></trkpt><trkpt lat="55.7740117" lon="49.1124717"><time>2022-10-29T10:32:33.057</time></trkpt><trkpt lat="55.7740217" lon="49.1125667"><time>2022-10-29T10:32:34.057</time></trkpt><trkpt lat="55.7740533" lon="49.1127217"><time>2022-10-29T10:32:36.050</time></trkpt><trkpt lat="55.7740767" lon="49.1127983"><time>2022-10-29T10:32:37.053</time></trkpt><trkpt lat="55.7741050" lon="49.1129350"><time>2022-10-29T10:32:39.050</time></trkpt><trkpt lat="55.7741450" lon="49.1130583"><time>2022-10-29T10:32:41.053</time></trkpt><trkpt lat="55.7741700" lon="49.1131833"><time>2022-10-29T10:32:43.050</time></trkpt><trkpt lat="55.7741917" lon="49.1133300"><time>2022-10-29T10:32:45.050</time></trkpt><trkpt lat="55.7741950" lon="49.1134200"><time>2022-10-29T10:32:46.053</time></trkpt><trkpt lat="55.7741950" lon="49.1135150"><time>2022-10-29T10:32:47.043</time></trkpt><trkpt lat="55.7742017" lon="49.1136000"><time>2022-10-29T10:32:48.043</time></trkpt><trkpt lat="55.7742117" lon="49.1136933"><time>2022-10-29T10:32:49.057</time></trkpt><trkpt lat="55.7742167" lon="49.1137833"><time>2022-10-29T10:32:50.057</time></trkpt><trkpt lat="55.7742300" lon="49.1138667"><time>2022-10-29T10:32:51.057</time></trkpt><trkpt lat="55.7742383" lon="49.1139583"><time>2022-10-29T10:32:52.053</time></trkpt><trkpt lat="55.7742483" lon="49.1140500"><time>2022-10-29T10:32:53.057</time></trkpt><trkpt lat="55.7742650" lon="49.1141433"><time>2022-10-29T10:32:54.057</time></trkpt><trkpt lat="55.7742867" lon="49.1142283"><time>2022-10-29T10:32:55.057</time></trkpt><trkpt lat="55.7743133" lon="49.1143083"><time>2022-10-29T10:32:56.053</time></trkpt><trkpt lat="55.7743383" lon="49.1143967"><time>2022-10-29T10:32:57.057</time></trkpt><trkpt lat="55.7743533" lon="49.1144833"><time>2022-10-29T10:32:58.057</time></trkpt><trkpt lat="55.7743700" lon="49.1145700"><time>2022-10-29T10:32:59.027</time></trkpt><trkpt lat="55.7743883" lon="49.1146583"><time>2022-10-29T10:33:00.043</time></trkpt><trkpt lat="55.7744100" lon="49.1147433"><time>2022-10-29T10:33:01.057</time></trkpt><trkpt lat="55.7744283" lon="49.1148317"><time>2022-10-29T10:33:02.057</time></trkpt><trkpt lat="55.7744450" lon="49.1149233"><time>2022-10-29T10:33:03.057</time></trkpt><trkpt lat="55.7744667" lon="49.1150200"><time>2022-10-29T10:33:04.057</time></trkpt><trkpt lat="55.7744950" lon="49.1151133"><time>2022-10-29T10:33:05.057</time></trkpt><trkpt lat="55.7745250" lon="49.1152067"><time>2022-10-29T10:33:06.053</time></trkpt><trkpt lat="55.7745583" lon="49.1153083"><time>2022-10-29T10:33:07.057</time></trkpt><trkpt lat="55.7745817" lon="49.1154000"><time>2022-10-29T10:33:08.053</time></trkpt><trkpt lat="55.7746033" lon="49.1155033"><time>2022-10-29T10:33:09.060</time></trkpt><trkpt lat="55.7746250" lon="49.1156017"><time>2022-10-29T10:33:10.053</time></trkpt><trkpt lat="55.7746483" lon="49.1156983"><time>2022-10-29T10:33:11.053</time></trkpt><trkpt lat="55.7746700" lon="49.1158067"><time>2022-10-29T10:33:12.053</time></trkpt><trkpt lat="55.7746900" lon="49.1159150"><time>2022-10-29T10:33:13.057</time></trkpt><trkpt lat="55.7747150" lon="49.1160150"><time>2022-10-29T10:33:14.057</time></trkpt><trkpt lat="55.7747400" lon="49.1161300"><time>2022-10-29T10:33:15.043</time></trkpt><trkpt lat="55.7747667" lon="49.1162283"><time>2022-10-29T10:33:16.057</time></trkpt><trkpt lat="55.7747667" lon="49.1162300"><time>2022-10-29T10:33:17.033</time></trkpt><trkpt lat="55.7747633" lon="49.1163817"><time>2022-10-29T10:33:19.047</time></trkpt><trkpt lat="55.7747800" lon="49.1164683"><time>2022-10-29T10:33:19.547</time></trkpt><trkpt lat="55.7747900" lon="49.1166100"><time>2022-10-29T10:33:21.040</time></trkpt><trkpt lat="55.7748133" lon="49.1167250"><time>2022-10-29T10:33:22.047</time></trkpt><trkpt lat="55.7748317" lon="49.1168433"><time>2022-10-29T10:33:23.047</time></trkpt><trkpt lat="55.7748350" lon="49.1169250"><time>2022-10-29T10:33:24.047</time></trkpt><trkpt lat="55.7748483" lon="49.1170100"><time>2022-10-29T10:33:25.050</time></trkpt><trkpt lat="55.7748717" lon="49.1170983"><time>2022-10-29T10:33:26.047</time></trkpt><trkpt lat="55.7749033" lon="49.1171867"><time>2022-10-29T10:33:27.047</time></trkpt><trkpt lat="55.7749283" lon="49.1172767"><time>2022-10-29T10:33:28.050</time></trkpt><trkpt lat="55.7749500" lon="49.1173550"><time>2022-10-29T10:33:29.047</time></trkpt><trkpt lat="55.7749750" lon="49.1174817"><time>2022-10-29T10:33:31.047</time></trkpt><trkpt lat="55.7749883" lon="49.1176183"><time>2022-10-29T10:33:33.047</time></trkpt><trkpt lat="55.7750000" lon="49.1177333"><time>2022-10-29T10:33:35.047</time></trkpt><trkpt lat="55.7750167" lon="49.1178383"><time>2022-10-29T10:33:37.043</time></trkpt><trkpt lat="55.7750217" lon="49.1179267"><time>2022-10-29T10:33:39.043</time></trkpt><trkpt lat="55.7750283" lon="49.1180150"><time>2022-10-29T10:33:42.047</time></trkpt><trkpt lat="55.7750433" lon="49.1180967"><time>2022-10-29T10:34:11.057</time></trkpt><trkpt lat="55.7750500" lon="49.1181817"><time>2022-10-29T10:34:13.053</time></trkpt><trkpt lat="55.7750550" lon="49.1183133"><time>2022-10-29T10:34:15.057</time></trkpt><trkpt lat="55.7750267" lon="49.1184117"><time>2022-10-29T10:34:17.057</time></trkpt><trkpt lat="55.7749867" lon="49.1184550"><time>2022-10-29T10:34:19.067</time></trkpt><trkpt lat="55.7749850" lon="49.1184617"><time>2022-10-29T10:34:20.553</time></trkpt><trkpt lat="55.7749400" lon="49.1185000"><time>2022-10-29T10:34:22.550</time></trkpt><trkpt lat="55.7748900" lon="49.1185400"><time>2022-10-29T10:34:24.043</time></trkpt><trkpt lat="55.7748500" lon="49.1185767"><time>2022-10-29T10:34:25.047</time></trkpt><trkpt lat="55.7748017" lon="49.1185933"><time>2022-10-29T10:34:26.047</time></trkpt><trkpt lat="55.7747500" lon="49.1186200"><time>2022-10-29T10:34:27.047</time></trkpt><trkpt lat="55.7747017" lon="49.1186550"><time>2022-10-29T10:34:28.047</time></trkpt><trkpt lat="55.7746517" lon="49.1186867"><time>2022-10-29T10:34:29.050</time></trkpt><trkpt lat="55.7745883" lon="49.1187467"><time>2022-10-29T10:34:30.060</time></trkpt><trkpt lat="55.7745883" lon="49.1187517"><time>2022-10-29T10:34:31.533</time></trkpt><trkpt lat="55.7745400" lon="49.1187933"><time>2022-10-29T10:34:33.543</time></trkpt><trkpt lat="55.7744800" lon="49.1188300"><time>2022-10-29T10:34:35.047</time></trkpt><trkpt lat="55.7744383" lon="49.1188667"><time>2022-10-29T10:34:36.043</time></trkpt><trkpt lat="55.7743733" lon="49.1189533"><time>2022-10-29T10:34:38.043</time></trkpt><trkpt lat="55.7507550" lon="49.1318850"><time>2022-10-29T10:34:40.057</time></trkpt><trkpt lat="55.7743183" lon="49.1190217"><time>2022-10-29T10:34:40.100</time></trkpt><trkpt lat="55.7742850" lon="49.1190917"><time>2022-10-29T10:34:41.057</time></trkpt><trkpt lat="55.7748350" lon="49.1183050"><time>2022-10-29T10:34:42.037</time></trkpt><trkpt lat="55.7742900" lon="49.1190933"><time>2022-10-29T10:34:43.037</time></trkpt><trkpt lat="55.7743217" lon="49.1191550"><time>2022-10-29T10:34:44.543</time></trkpt><trkpt lat="55.7743750" lon="49.1191550"><time>2022-10-29T10:34:47.047</time></trkpt><trkpt lat="55.7744283" lon="49.1191267"><time>2022-10-29T10:34:49.047</time></trkpt><trkpt lat="55.7744817" lon="49.1190867"><time>2022-10-29T10:34:51.050</time></trkpt><trkpt lat="55.7745617" lon="49.1190250"><time>2022-10-29T10:34:53.043</time></trkpt><trkpt lat="55.7746050" lon="49.1189983"><time>2022-10-29T10:34:54.047</time></trkpt><trkpt lat="55.7746917" lon="49.1189233"><time>2022-10-29T10:34:56.050</time></trkpt><trkpt lat="55.7747433" lon="49.1188833"><time>2022-10-29T10:34:57.037</time></trkpt><trkpt lat="55.7747917" lon="49.1188433"><time>2022-10-29T10:34:58.050</time></trkpt><trkpt lat="55.7748350" lon="49.1187850"><time>2022-10-29T10:34:59.047</time></trkpt><trkpt lat="55.7748783" lon="49.1186933"><time>2022-10-29T10:35:00.050</time></trkpt><trkpt lat="55.7749150" lon="49.1186433"><time>2022-10-29T10:35:01.047</time></trkpt><trkpt lat="55.7749783" lon="49.1185467"><time>2022-10-29T10:35:03.047</time></trkpt><trkpt lat="55.7750550" lon="49.1184650"><time>2022-10-29T10:35:05.047</time></trkpt><trkpt lat="55.7750883" lon="49.1184083"><time>2022-10-29T10:35:06.047</time></trkpt><trkpt lat="55.7751283" lon="49.1183517"><time>2022-10-29T10:35:07.050</time></trkpt><trkpt lat="55.7751667" lon="49.1183067"><time>2022-10-29T10:35:08.050</time></trkpt><trkpt lat="55.7752333" lon="49.1182283"><time>2022-10-29T10:35:10.057</time></trkpt><trkpt lat="55.7752750" lon="49.1181833"><time>2022-10-29T10:35:11.053</time></trkpt><trkpt lat="55.7753133" lon="49.1181367"><time>2022-10-29T10:35:12.057</time></trkpt><trkpt lat="55.7753533" lon="49.1180850"><time>2022-10-29T10:35:13.060</time></trkpt><trkpt lat="55.7753933" lon="49.1180283"><time>2022-10-29T10:35:14.057</time></trkpt><trkpt lat="55.7754667" lon="49.1179667"><time>2022-10-29T10:35:16.057</time></trkpt><trkpt lat="55.7755500" lon="49.1179133"><time>2022-10-29T10:35:18.057</time></trkpt><trkpt lat="55.7755933" lon="49.1178817"><time>2022-10-29T10:35:19.057</time></trkpt><trkpt lat="55.7756450" lon="49.1178533"><time>2022-10-29T10:35:20.057</time></trkpt><trkpt lat="55.7756950" lon="49.1178283"><time>2022-10-29T10:35:21.057</time></trkpt><trkpt lat="55.7757400" lon="49.1177950"><time>2022-10-29T10:35:22.053</time></trkpt><trkpt lat="55.7757850" lon="49.1177583"><time>2022-10-29T10:35:23.057</time></trkpt><trkpt lat="55.7758267" lon="49.1177183"><time>2022-10-29T10:35:24.057</time></trkpt><trkpt lat="55.7758683" lon="49.1176733"><time>2022-10-29T10:35:25.057</time></trkpt><trkpt lat="55.7759133" lon="49.1176317"><time>2022-10-29T10:35:26.053</time></trkpt><trkpt lat="55.7759583" lon="49.1175800"><time>2022-10-29T10:35:27.057</time></trkpt><trkpt lat="55.7760033" lon="49.1175300"><time>2022-10-29T10:35:28.057</time></trkpt><trkpt lat="55.7760483" lon="49.1174817"><time>2022-10-29T10:35:29.057</time></trkpt><trkpt lat="55.7760917" lon="49.1174317"><time>2022-10-29T10:35:30.057</time></trkpt><trkpt lat="55.7761350" lon="49.1173800"><time>2022-10-29T10:35:31.053</time></trkpt><trkpt lat="55.7761733" lon="49.1173333"><time>2022-10-29T10:35:32.053</time></trkpt><trkpt lat="55.7762100" lon="49.1172867"><time>2022-10-29T10:35:33.053</time></trkpt><trkpt lat="55.7762800" lon="49.1172250"><time>2022-10-29T10:35:35.047</time></trkpt><trkpt lat="55.7763400" lon="49.1171750"><time>2022-10-29T10:35:37.050</time></trkpt><trkpt lat="55.7763583" lon="49.1172900"><time>2022-10-29T10:35:42.057</time></trkpt><trkpt lat="55.7763683" lon="49.1173917"><time>2022-10-29T10:35:44.053</time></trkpt><trkpt lat="55.7763917" lon="49.1175233"><time>2022-10-29T10:35:46.057</time></trkpt><trkpt lat="55.7764183" lon="49.1176583"><time>2022-10-29T10:35:48.040</time></trkpt><trkpt lat="55.7764533" lon="49.1177483"><time>2022-10-29T10:35:50.053</time></trkpt><trkpt lat="55.7764883" lon="49.1178350"><time>2022-10-29T10:35:52.053</time></trkpt><trkpt lat="55.7765117" lon="49.1179100"><time>2022-10-29T10:35:53.053</time></trkpt><trkpt lat="55.7765300" lon="49.1179917"><time>2022-10-29T10:35:54.057</time></trkpt><trkpt lat="55.7765433" lon="49.1180700"><time>2022-10-29T10:35:55.050</time></trkpt><trkpt lat="55.7765617" lon="49.1182133"><time>2022-10-29T10:35:57.053</time></trkpt><trkpt lat="55.7765733" lon="49.1182917"><time>2022-10-29T10:35:58.053</time></trkpt><trkpt lat="55.7765967" lon="49.1184383"><time>2022-10-29T10:36:00.057</time></trkpt><trkpt lat="55.7766033" lon="49.1186017"><time>2022-10-29T10:36:02.053</time></trkpt><trkpt lat="55.7766117" lon="49.1187333"><time>2022-10-29T10:36:04.053</time></trkpt><trkpt lat="55.7766233" lon="49.1188650"><time>2022-10-29T10:36:06.053</time></trkpt><trkpt lat="55.7766167" lon="49.1190167"><time>2022-10-29T10:36:08.053</time></trkpt><trkpt lat="55.7766200" lon="49.1191533"><time>2022-10-29T10:36:10.057</time></trkpt><trkpt lat="55.7766517" lon="49.1192633"><time>2022-10-29T10:36:12.050</time></trkpt><trkpt lat="55.7767150" lon="49.1192833"><time>2022-10-29T10:36:16.057</time></trkpt><trkpt lat="55.7767717" lon="49.1192800"><time>2022-10-29T10:36:18.057</time></trkpt><trkpt lat="55.7768383" lon="49.1192933"><time>2022-10-29T10:36:20.057</time></trkpt><trkpt lat="55.7769050" lon="49.1193033"><time>2022-10-29T10:36:22.053</time></trkpt><trkpt lat="55.7769750" lon="49.1193150"><time>2022-10-29T10:36:24.053</time></trkpt><trkpt lat="55.7770400" lon="49.1193350"><time>2022-10-29T10:36:26.053</time></trkpt><trkpt lat="55.7771167" lon="49.1193000"><time>2022-10-29T10:36:28.047</time></trkpt><trkpt lat="55.7771867" lon="49.1192517"><time>2022-10-29T10:36:30.057</time></trkpt><trkpt lat="55.7772767" lon="49.1192017"><time>2022-10-29T10:36:32.060</time></trkpt><trkpt lat="55.7772767" lon="49.1192000"><time>2022-10-29T10:36:33.537</time></trkpt><trkpt lat="55.7773250" lon="49.1191667"><time>2022-10-29T10:36:35.547</time></trkpt><trkpt lat="55.7773833" lon="49.1191283"><time>2022-10-29T10:36:37.037</time></trkpt><trkpt lat="55.7774517" lon="49.1190900"><time>2022-10-29T10:36:39.033</time></trkpt><trkpt lat="55.7774983" lon="49.1190800"><time>2022-10-29T10:36:40.047</time></trkpt><trkpt lat="55.7775850" lon="49.1190233"><time>2022-10-29T10:36:42.050</time></trkpt><trkpt lat="55.7776400" lon="49.1189950"><time>2022-10-29T10:36:43.043</time></trkpt><trkpt lat="55.7776833" lon="49.1189717"><time>2022-10-29T10:36:44.047</time></trkpt><trkpt lat="55.7777317" lon="49.1189433"><time>2022-10-29T10:36:45.047</time></trkpt><trkpt lat="55.7777750" lon="49.1189150"><time>2022-10-29T10:36:46.047</time></trkpt><trkpt lat="55.7778200" lon="49.1188783"><time>2022-10-29T10:36:47.047</time></trkpt><trkpt lat="55.7778667" lon="49.1188467"><time>2022-10-29T10:36:48.047</time></trkpt><trkpt lat="55.7779150" lon="49.1188200"><time>2022-10-29T10:36:49.047</time></trkpt><trkpt lat="55.7779633" lon="49.1187967"><time>2022-10-29T10:36:50.047</time></trkpt><trkpt lat="55.7780117" lon="49.1187700"><time>2022-10-29T10:36:51.047</time></trkpt><trkpt lat="55.7780967" lon="49.1187250"><time>2022-10-29T10:36:53.057</time></trkpt><trkpt lat="55.7783000" lon="49.1186617"><time>2022-10-29T10:36:55.530</time></trkpt><trkpt lat="55.7781767" lon="49.1186533"><time>2022-10-29T10:36:58.040</time></trkpt><trkpt lat="55.7782417" lon="49.1185633"><time>2022-10-29T10:36:59.043</time></trkpt><trkpt lat="55.7782967" lon="49.1185050"><time>2022-10-29T10:37:00.043</time></trkpt><trkpt lat="55.7783633" lon="49.1184700"><time>2022-10-29T10:37:01.047</time></trkpt><trkpt lat="55.7784333" lon="49.1184333"><time>2022-10-29T10:37:02.043</time></trkpt><trkpt lat="55.7785067" lon="49.1183833"><time>2022-10-29T10:37:03.057</time></trkpt><trkpt lat="55.7785267" lon="49.1183750"><time>2022-10-29T10:37:04.517</time></trkpt><trkpt lat="55.7785350" lon="49.1184833"><time>2022-10-29T10:37:05.537</time></trkpt><trkpt lat="55.7786117" lon="49.1183000"><time>2022-10-29T10:37:06.547</time></trkpt><trkpt lat="55.7786550" lon="49.1182450"><time>2022-10-29T10:37:09.043</time></trkpt><trkpt lat="55.7787217" lon="49.1182483"><time>2022-10-29T10:37:11.050</time></trkpt><trkpt lat="55.7507550" lon="49.1318850"><time>2022-10-29T10:37:13.050</time></trkpt><trkpt lat="55.7788067" lon="49.1182300"><time>2022-10-29T10:37:13.100</time></trkpt><trkpt lat="55.7788583" lon="49.1182050"><time>2022-10-29T10:37:14.060</time></trkpt><trkpt lat="55.7786867" lon="49.1184067"><time>2022-10-29T10:37:15.543</time></trkpt><trkpt lat="55.7788983" lon="49.1181800"><time>2022-10-29T10:37:16.033</time></trkpt><trkpt lat="55.7789467" lon="49.1181283"><time>2022-10-29T10:37:17.540</time></trkpt><trkpt lat="55.7790050" lon="49.1180850"><time>2022-10-29T10:37:19.040</time></trkpt><trkpt lat="55.7790667" lon="49.1180567"><time>2022-10-29T10:37:21.047</time></trkpt><trkpt lat="55.7791367" lon="49.1180367"><time>2022-10-29T10:37:23.047</time></trkpt><trkpt lat="55.7792133" lon="49.1179767"><time>2022-10-29T10:37:25.043</time></trkpt><trkpt lat="55.7792583" lon="49.1179583"><time>2022-10-29T10:37:26.043</time></trkpt><trkpt lat="55.7793333" lon="49.1178900"><time>2022-10-29T10:37:28.047</time></trkpt><trkpt lat="55.7793350" lon="49.1178900"><time>2022-10-29T10:37:29.027</time></trkpt><trkpt lat="55.7793767" lon="49.1178317"><time>2022-10-29T10:37:30.550</time></trkpt><trkpt lat="55.7794350" lon="49.1177217"><time>2022-10-29T10:37:31.543</time></trkpt><trkpt lat="55.7794867" lon="49.1176200"><time>2022-10-29T10:37:33.047</time></trkpt><trkpt lat="55.7795283" lon="49.1175683"><time>2022-10-29T10:37:34.047</time></trkpt><trkpt lat="55.7795683" lon="49.1175183"><time>2022-10-29T10:37:35.037</time></trkpt><trkpt lat="55.7796000" lon="49.1174483"><time>2022-10-29T10:37:36.047</time></trkpt><trkpt lat="55.7796333" lon="49.1173733"><time>2022-10-29T10:37:37.043</time></trkpt><trkpt lat="55.7796733" lon="49.1172967"><time>2022-10-29T10:37:38.043</time></trkpt><trkpt lat="55.7797183" lon="49.1172317"><time>2022-10-29T10:37:39.047</time></trkpt><trkpt lat="55.7797550" lon="49.1171533"><time>2022-10-29T10:37:40.043</time></trkpt><trkpt lat="55.7797917" lon="49.1170850"><time>2022-10-29T10:37:41.047</time></trkpt><trkpt lat="55.7798317" lon="49.1170133"><time>2022-10-29T10:37:42.040</time></trkpt><trkpt lat="55.7798667" lon="49.1169483"><time>2022-10-29T10:37:43.043</time></trkpt><trkpt lat="55.7799067" lon="49.1168883"><time>2022-10-29T10:37:44.047</time></trkpt><trkpt lat="55.7799417" lon="49.1168350"><time>2022-10-29T10:37:45.053</time></trkpt><trkpt lat="55.7800050" lon="49.1167283"><time>2022-10-29T10:37:47.057</time></trkpt><trkpt lat="55.7800017" lon="49.1167333"><time>2022-10-29T10:37:48.033</time></trkpt><trkpt lat="55.7800533" lon="49.1166517"><time>2022-10-29T10:37:50.037</time></trkpt><trkpt lat="55.7801233" lon="49.1165617"><time>2022-10-29T10:37:51.043</time></trkpt><trkpt lat="55.7801750" lon="49.1164950"><time>2022-10-29T10:37:52.043</time></trkpt><trkpt lat="55.7802133" lon="49.1164300"><time>2022-10-29T10:37:53.043</time></trkpt><trkpt lat="55.7802450" lon="49.1163617"><time>2022-10-29T10:37:54.047</time></trkpt><trkpt lat="55.7802900" lon="49.1163050"><time>2022-10-29T10:37:55.047</time></trkpt><trkpt lat="55.7803317" lon="49.1162583"><time>2022-10-29T10:37:56.043</time></trkpt><trkpt lat="55.7803717" lon="49.1162217"><time>2022-10-29T10:37:57.043</time></trkpt><trkpt lat="55.7804500" lon="49.1161383"><time>2022-10-29T10:37:59.053</time></trkpt><trkpt lat="55.7804467" lon="49.1161417"><time>2022-10-29T10:38:00.047</time></trkpt><trkpt lat="55.7805083" lon="49.1160633"><time>2022-10-29T10:38:01.550</time></trkpt><trkpt lat="55.7805567" lon="49.1160500"><time>2022-10-29T10:38:02.543</time></trkpt><trkpt lat="55.7806033" lon="49.1160183"><time>2022-10-29T10:38:04.047</time></trkpt><trkpt lat="55.7806667" lon="49.1160067"><time>2022-10-29T10:38:07.047</time></trkpt><trkpt lat="55.7807017" lon="49.1160733"><time>2022-10-29T10:38:12.043</time></trkpt><trkpt lat="55.7807267" lon="49.1161433"><time>2022-10-29T10:38:15.043</time></trkpt><trkpt lat="55.7507550" lon="49.1318850"><time>2022-10-29T10:38:19.053</time></trkpt><trkpt lat="55.7807400" lon="49.1162300"><time>2022-10-29T10:38:19.097</time></trkpt><trkpt lat="55.7807083" lon="49.1161600"><time>2022-10-29T10:38:27.053</time></trkpt><trkpt lat="55.7807050" lon="49.1161600"><time>2022-10-29T10:38:27.953</time></trkpt><trkpt lat="55.7807050" lon="49.1160650"><time>2022-10-29T10:38:29.543</time></trkpt><trkpt lat="55.7807217" lon="49.1159500"><time>2022-10-29T10:38:32.047</time></trkpt><trkpt lat="55.7807483" lon="49.1158650"><time>2022-10-29T10:38:34.043</time></trkpt><trkpt lat="55.7807783" lon="49.1158000"><time>2022-10-29T10:38:36.043</time></trkpt><trkpt lat="55.7808167" lon="49.1157467"><time>2022-10-29T10:38:38.043</time></trkpt><trkpt lat="55.7808633" lon="49.1157083"><time>2022-10-29T10:38:40.043</time></trkpt><trkpt lat="55.7809067" lon="49.1156467"><time>2022-10-29T10:38:42.047</time></trkpt><trkpt lat="55.7809583" lon="49.1155783"><time>2022-10-29T10:38:44.043</time></trkpt><trkpt lat="55.7810067" lon="49.1154867"><time>2022-10-29T10:38:46.047</time></trkpt><trkpt lat="55.7810483" lon="49.1154150"><time>2022-10-29T10:38:48.047</time></trkpt><trkpt lat="55.7810917" lon="49.1153633"><time>2022-10-29T10:38:50.047</time></trkpt><trkpt lat="55.7811433" lon="49.1153050"><time>2022-10-29T10:38:52.047</time></trkpt><trkpt lat="55.7812100" lon="49.1152417"><time>2022-10-29T10:38:54.047</time></trkpt><trkpt lat="55.7812800" lon="49.1151500"><time>2022-10-29T10:38:56.050</time></trkpt><trkpt lat="55.7813433" lon="49.1150467"><time>2022-10-29T10:38:58.050</time></trkpt><trkpt lat="55.7813800" lon="49.1149900"><time>2022-10-29T10:38:59.057</time></trkpt><trkpt lat="55.7814467" lon="49.1149283"><time>2022-10-29T10:39:01.057</time></trkpt><trkpt lat="55.7815033" lon="49.1148733"><time>2022-10-29T10:39:03.057</time></trkpt><trkpt lat="55.7815767" lon="49.1149217"><time>2022-10-29T10:39:05.050</time></trkpt><trkpt lat="55.7816150" lon="49.1149683"><time>2022-10-29T10:39:06.057</time></trkpt><trkpt lat="55.7816633" lon="49.1150183"><time>2022-10-29T10:39:07.057</time></trkpt><trkpt lat="55.7817133" lon="49.1150733"><time>2022-10-29T10:39:08.057</time></trkpt><trkpt lat="55.7817517" lon="49.1151250"><time>2022-10-29T10:39:09.057</time></trkpt><trkpt lat="55.7817933" lon="49.1151800"><time>2022-10-29T10:39:10.053</time></trkpt><trkpt lat="55.7818283" lon="49.1152383"><time>2022-10-29T10:39:11.060</time></trkpt><trkpt lat="55.7818633" lon="49.1152933"><time>2022-10-29T10:39:12.043</time></trkpt><trkpt lat="55.7819050" lon="49.1153567"><time>2022-10-29T10:39:13.053</time></trkpt><trkpt lat="55.7819500" lon="49.1154150"><time>2022-10-29T10:39:14.053</time></trkpt><trkpt lat="55.7819933" lon="49.1154667"><time>2022-10-29T10:39:15.057</time></trkpt><trkpt lat="55.7820367" lon="49.1155067"><time>2022-10-29T10:39:16.057</time></trkpt><trkpt lat="55.7821067" lon="49.1155950"><time>2022-10-29T10:39:18.050</time></trkpt><trkpt lat="55.7821833" lon="49.1156700"><time>2022-10-29T10:39:46.053</time></trkpt><trkpt lat="55.7822200" lon="49.1157217"><time>2022-10-29T10:39:48.050</time></trkpt><trkpt lat="55.7822817" lon="49.1157950"><time>2022-10-29T10:39:50.053</time></trkpt><trkpt lat="55.7823217" lon="49.1158483"><time>2022-10-29T10:39:51.057</time></trkpt><trkpt lat="55.7823600" lon="49.1158917"><time>2022-10-29T10:39:52.057</time></trkpt><trkpt lat="55.7824350" lon="49.1159600"><time>2022-10-29T10:39:54.053</time></trkpt><trkpt lat="55.7824983" lon="49.1160433"><time>2022-10-29T10:39:56.057</time></trkpt><trkpt lat="55.7825683" lon="49.1161317"><time>2022-10-29T10:39:58.053</time></trkpt><trkpt lat="55.7825983" lon="49.1161983"><time>2022-10-29T10:39:59.057</time></trkpt><trkpt lat="55.7826233" lon="49.1162767"><time>2022-10-29T10:40:00.053</time></trkpt><trkpt lat="55.7826517" lon="49.1163600"><time>2022-10-29T10:40:01.057</time></trkpt><trkpt lat="55.7826867" lon="49.1164383"><time>2022-10-29T10:40:02.057</time></trkpt><trkpt lat="55.7827300" lon="49.1165150"><time>2022-10-29T10:40:03.057</time></trkpt><trkpt lat="55.7827750" lon="49.1165850"><time>2022-10-29T10:40:04.053</time></trkpt><trkpt lat="55.7828233" lon="49.1166550"><time>2022-10-29T10:40:05.053</time></trkpt><trkpt lat="55.7828733" lon="49.1167217"><time>2022-10-29T10:40:06.053</time></trkpt><trkpt lat="55.7829267" lon="49.1167900"><time>2022-10-29T10:40:07.053</time></trkpt><trkpt lat="55.7829883" lon="49.1168733"><time>2022-10-29T10:40:08.047</time></trkpt><trkpt lat="55.7830400" lon="49.1169367"><time>2022-10-29T10:40:09.050</time></trkpt><trkpt lat="55.7830867" lon="49.1169917"><time>2022-10-29T10:40:10.053</time></trkpt><trkpt lat="55.7831383" lon="49.1170350"><time>2022-10-29T10:40:11.053</time></trkpt><trkpt lat="55.7831850" lon="49.1171017"><time>2022-10-29T10:40:12.057</time></trkpt><trkpt lat="55.7832283" lon="49.1171667"><time>2022-10-29T10:40:13.060</time></trkpt><trkpt lat="55.7832750" lon="49.1172450"><time>2022-10-29T10:40:14.050</time></trkpt><trkpt lat="55.7833217" lon="49.1173233"><time>2022-10-29T10:40:15.057</time></trkpt><trkpt lat="55.7833733" lon="49.1174017"><time>2022-10-29T10:40:16.053</time></trkpt><trkpt lat="55.7834283" lon="49.1174717"><time>2022-10-29T10:40:17.053</time></trkpt><trkpt lat="55.7834833" lon="49.1175350"><time>2022-10-29T10:40:18.053</time></trkpt><trkpt lat="55.7835400" lon="49.1175950"><time>2022-10-29T10:40:19.053</time></trkpt><trkpt lat="55.7835950" lon="49.1176583"><time>2022-10-29T10:40:20.050</time></trkpt><trkpt lat="55.7836433" lon="49.1177383"><time>2022-10-29T10:40:21.053</time></trkpt><trkpt lat="55.7836933" lon="49.1178100"><time>2022-10-29T10:40:22.053</time></trkpt><trkpt lat="55.7837383" lon="49.1178783"><time>2022-10-29T10:40:23.053</time></trkpt><trkpt lat="55.7837900" lon="49.1179350"><time>2022-10-29T10:40:24.053</time></trkpt><trkpt lat="55.7838367" lon="49.1180017"><time>2022-10-29T10:40:25.047</time></trkpt><trkpt lat="55.7838817" lon="49.1180700"><time>2022-10-29T10:40:26.053</time></trkpt><trkpt lat="55.7839267" lon="49.1181417"><time>2022-10-29T10:40:27.057</time></trkpt><trkpt lat="55.7839683" lon="49.1182233"><time>2022-10-29T10:40:28.057</time></trkpt><trkpt lat="55.7840100" lon="49.1182983"><time>2022-10-29T10:40:29.057</time></trkpt><trkpt lat="55.7840533" lon="49.1183600"><time>2022-10-29T10:40:30.053</time></trkpt><trkpt lat="55.7840983" lon="49.1184167"><time>2022-10-29T10:40:31.053</time></trkpt><trkpt lat="55.7841433" lon="49.1184717"><time>2022-10-29T10:40:32.050</time></trkpt><trkpt lat="55.7841867" lon="49.1185250"><time>2022-10-29T10:40:33.053</time></trkpt><trkpt lat="55.7842267" lon="49.1185750"><time>2022-10-29T10:40:34.053</time></trkpt><trkpt lat="55.7842900" lon="49.1186717"><time>2022-10-29T10:40:36.053</time></trkpt><trkpt lat="55.7843483" lon="49.1187800"><time>2022-10-29T10:40:38.053</time></trkpt><trkpt lat="55.7844133" lon="49.1188667"><time>2022-10-29T10:40:40.057</time></trkpt><trkpt lat="55.7844733" lon="49.1188933"><time>2022-10-29T10:40:42.057</time></trkpt><trkpt lat="55.7845250" lon="49.1189150"><time>2022-10-29T10:40:44.057</time></trkpt><trkpt lat="55.7845650" lon="49.1188783"><time>2022-10-29T10:40:51.057</time></trkpt><trkpt lat="55.7846150" lon="49.1189383"><time>2022-10-29T10:40:55.057</time></trkpt><trkpt lat="55.7846550" lon="49.1189800"><time>2022-10-29T10:41:00.053</time></trkpt><trkpt lat="55.7847033" lon="49.1190683"><time>2022-10-29T10:41:20.060</time></trkpt><trkpt lat="55.7847433" lon="49.1191717"><time>2022-10-29T10:42:23.053</time></trkpt><trkpt lat="55.7847750" lon="49.1192767"><time>2022-10-29T10:42:25.057</time></trkpt><trkpt lat="55.7847667" lon="49.1193833"><time>2022-10-29T10:42:27.053</time></trkpt><trkpt lat="55.7847267" lon="49.1194517"><time>2022-10-29T10:42:29.053</time></trkpt><trkpt lat="55.7846717" lon="49.1195117"><time>2022-10-29T10:42:31.057</time></trkpt><trkpt lat="55.7846183" lon="49.1195767"><time>2022-10-29T10:42:33.053</time></trkpt><trkpt lat="55.7845583" lon="49.1196733"><time>2022-10-29T10:42:35.053</time></trkpt><trkpt lat="55.7845233" lon="49.1197283"><time>2022-10-29T10:42:36.053</time></trkpt><trkpt lat="55.7844833" lon="49.1197983"><time>2022-10-29T10:42:37.033</time></trkpt><trkpt lat="55.7844400" lon="49.1198650"><time>2022-10-29T10:42:38.047</time></trkpt><trkpt lat="55.7844033" lon="49.1199417"><time>2022-10-29T10:42:39.050</time></trkpt><trkpt lat="55.7843650" lon="49.1200183"><time>2022-10-29T10:42:40.060</time></trkpt><trkpt lat="55.7843983" lon="49.1204050"><time>2022-10-29T10:42:41.463</time></trkpt><trkpt lat="55.7843317" lon="49.1203867"><time>2022-10-29T10:42:42.533</time></trkpt><trkpt lat="55.7842850" lon="49.1204683"><time>2022-10-29T10:42:43.540</time></trkpt><trkpt lat="55.7842200" lon="49.1205150"><time>2022-10-29T10:42:45.047</time></trkpt><trkpt lat="55.7841733" lon="49.1206200"><time>2022-10-29T10:42:47.047</time></trkpt><trkpt lat="55.7841183" lon="49.1206900"><time>2022-10-29T10:42:49.047</time></trkpt><trkpt lat="55.7840683" lon="49.1207450"><time>2022-10-29T10:42:51.047</time></trkpt><trkpt lat="55.7840300" lon="49.1207867"><time>2022-10-29T10:42:53.047</time></trkpt><trkpt lat="55.7839883" lon="49.1208200"><time>2022-10-29T10:42:58.047</time></trkpt><trkpt lat="55.7839333" lon="49.1208517"><time>2022-10-29T10:43:03.047</time></trkpt><trkpt lat="55.7838867" lon="49.1208783"><time>2022-10-29T10:43:06.047</time></trkpt><trkpt lat="55.7839183" lon="49.1209350"><time>2022-10-29T10:43:14.060</time></trkpt><trkpt lat="55.7839317" lon="49.1210167"><time>2022-10-29T10:43:16.047</time></trkpt><trkpt lat="55.7839617" lon="49.1211400"><time>2022-10-29T10:43:18.057</time></trkpt><trkpt lat="55.7839700" lon="49.1212300"><time>2022-10-29T10:43:19.050</time></trkpt><trkpt lat="55.7839717" lon="49.1213100"><time>2022-10-29T10:43:20.053</time></trkpt><trkpt lat="55.7839733" lon="49.1214033"><time>2022-10-29T10:43:21.057</time></trkpt><trkpt lat="55.7839767" lon="49.1214950"><time>2022-10-29T10:43:22.070</time></trkpt><trkpt lat="55.7839750" lon="49.1215133"><time>2022-10-29T10:43:23.537</time></trkpt><trkpt lat="55.7839817" lon="49.1216217"><time>2022-10-29T10:43:25.050</time></trkpt><trkpt lat="55.7839650" lon="49.1217567"><time>2022-10-29T10:43:25.547</time></trkpt><trkpt lat="55.7839533" lon="49.1219317"><time>2022-10-29T10:43:27.043</time></trkpt><trkpt lat="55.7839517" lon="49.1220383"><time>2022-10-29T10:43:28.047</time></trkpt><trkpt lat="55.7839517" lon="49.1221550"><time>2022-10-29T10:43:29.047</time></trkpt><trkpt lat="55.7839517" lon="49.1222733"><time>2022-10-29T10:43:30.047</time></trkpt><trkpt lat="55.7839533" lon="49.1223933"><time>2022-10-29T10:43:31.047</time></trkpt><trkpt lat="55.7839550" lon="49.1225000"><time>2022-10-29T10:43:32.047</time></trkpt><trkpt lat="55.7839533" lon="49.1226033"><time>2022-10-29T10:43:33.043</time></trkpt><trkpt lat="55.7839400" lon="49.1226917"><time>2022-10-29T10:43:34.047</time></trkpt><trkpt lat="55.7839117" lon="49.1227650"><time>2022-10-29T10:43:35.027</time></trkpt><trkpt lat="55.7838750" lon="49.1228367"><time>2022-10-29T10:43:36.053</time></trkpt><trkpt lat="55.7838750" lon="49.1228383"><time>2022-10-29T10:43:37.037</time></trkpt><trkpt lat="55.7838400" lon="49.1229150"><time>2022-10-29T10:43:38.547</time></trkpt><trkpt lat="55.7837967" lon="49.1230167"><time>2022-10-29T10:43:39.547</time></trkpt><trkpt lat="55.7837683" lon="49.1230817"><time>2022-10-29T10:43:40.043</time></trkpt><trkpt lat="55.7837283" lon="49.1231533"><time>2022-10-29T10:43:41.047</time></trkpt><trkpt lat="55.7836900" lon="49.1232250"><time>2022-10-29T10:43:42.047</time></trkpt><trkpt lat="55.7836433" lon="49.1232683"><time>2022-10-29T10:43:43.047</time></trkpt><trkpt lat="55.7835933" lon="49.1232867"><time>2022-10-29T10:43:44.053</time></trkpt><trkpt lat="55.7835250" lon="49.1232467"><time>2022-10-29T10:43:46.050</time></trkpt><trkpt lat="55.7834800" lon="49.1231567"><time>2022-10-29T10:43:48.053</time></trkpt><trkpt lat="55.7507550" lon="49.1318850"><time>2022-10-29T10:43:50.053</time></trkpt><trkpt lat="55.7834767" lon="49.1230117"><time>2022-10-29T10:43:50.107</time></trkpt><trkpt lat="55.7834817" lon="49.1228850"><time>2022-10-29T10:43:52.060</time></trkpt><trkpt lat="55.7834817" lon="49.1228850"><time>2022-10-29T10:43:53.013</time></trkpt><trkpt lat="55.7834483" lon="49.1229400"><time>2022-10-29T10:43:59.043</time></trkpt><trkpt lat="55.7834350" lon="49.1230317"><time>2022-10-29T10:44:51.053</time></trkpt><trkpt lat="55.7834300" lon="49.1231150"><time>2022-10-29T10:44:53.057</time></trkpt><trkpt lat="55.7834217" lon="49.1232383"><time>2022-10-29T10:44:55.057</time></trkpt><trkpt lat="55.7833750" lon="49.1233017"><time>2022-10-29T10:44:57.060</time></trkpt><trkpt lat="55.7833183" lon="49.1233650"><time>2022-10-29T10:44:59.057</time></trkpt><trkpt lat="55.7832733" lon="49.1234667"><time>2022-10-29T10:45:01.057</time></trkpt><trkpt lat="55.7832583" lon="49.1236117"><time>2022-10-29T10:45:03.057</time></trkpt><trkpt lat="55.7832683" lon="49.1236917"><time>2022-10-29T10:45:04.053</time></trkpt><trkpt lat="55.7833117" lon="49.1238317"><time>2022-10-29T10:45:06.057</time></trkpt><trkpt lat="55.7833417" lon="49.1238933"><time>2022-10-29T10:45:07.057</time></trkpt><trkpt lat="55.7834133" lon="49.1239750"><time>2022-10-29T10:45:09.057</time></trkpt><trkpt lat="55.7834583" lon="49.1240850"><time>2022-10-29T10:45:11.053</time></trkpt><trkpt lat="55.7834550" lon="49.1241683"><time>2022-10-29T10:45:12.053</time></trkpt><trkpt lat="55.7834500" lon="49.1242550"><time>2022-10-29T10:45:13.060</time></trkpt><trkpt lat="55.7834433" lon="49.1243350"><time>2022-10-29T10:45:14.047</time></trkpt><trkpt lat="55.7834367" lon="49.1245017"><time>2022-10-29T10:45:16.060</time></trkpt><trkpt lat="55.7834400" lon="49.1245850"><time>2022-10-29T10:45:17.053</time></trkpt><trkpt lat="55.7834450" lon="49.1247450"><time>2022-10-29T10:45:19.050</time></trkpt><trkpt lat="55.7834483" lon="49.1248917"><time>2022-10-29T10:45:21.057</time></trkpt><trkpt lat="55.7834733" lon="49.1249817"><time>2022-10-29T10:45:23.057</time></trkpt><trkpt lat="55.7835300" lon="49.1250467"><time>2022-10-29T10:45:26.057</time></trkpt><trkpt lat="55.7835833" lon="49.1251150"><time>2022-10-29T10:45:29.057</time></trkpt><trkpt lat="55.7835983" lon="49.1252100"><time>2022-10-29T10:45:31.053</time></trkpt><trkpt lat="55.7835633" lon="49.1253450"><time>2022-10-29T10:45:33.063</time></trkpt><trkpt lat="55.7835350" lon="49.1254233"><time>2022-10-29T10:45:34.053</time></trkpt><trkpt lat="55.7835117" lon="49.1255083"><time>2022-10-29T10:45:35.057</time></trkpt><trkpt lat="55.7834700" lon="49.1255633"><time>2022-10-29T10:45:36.047</time></trkpt><trkpt lat="55.7834233" lon="49.1256233"><time>2022-10-29T10:45:37.053</time></trkpt><trkpt lat="55.7833867" lon="49.1256850"><time>2022-10-29T10:45:38.053</time></trkpt><trkpt lat="55.7833550" lon="49.1257533"><time>2022-10-29T10:45:39.050</time></trkpt><trkpt lat="55.7833133" lon="49.1258200"><time>2022-10-29T10:45:40.047</time></trkpt><trkpt lat="55.7832717" lon="49.1258800"><time>2022-10-29T10:45:41.047</time></trkpt><trkpt lat="55.7832283" lon="49.1259200"><time>2022-10-29T10:45:42.050</time></trkpt><trkpt lat="55.7831900" lon="49.1259700"><time>2022-10-29T10:45:43.053</time></trkpt><trkpt lat="55.7831533" lon="49.1260233"><time>2022-10-29T10:45:44.057</time></trkpt><trkpt lat="55.7831183" lon="49.1260800"><time>2022-10-29T10:45:45.047</time></trkpt><trkpt lat="55.7830583" lon="49.1261950"><time>2022-10-29T10:45:47.053</time></trkpt><trkpt lat="55.7830067" lon="49.1263083"><time>2022-10-29T10:45:49.053</time></trkpt><trkpt lat="55.7829817" lon="49.1263950"><time>2022-10-29T10:45:51.040</time></trkpt><trkpt lat="55.7830383" lon="49.1264617"><time>2022-10-29T10:45:53.057</time></trkpt><trkpt lat="55.7830617" lon="49.1266017"><time>2022-10-29T10:45:55.053</time></trkpt><trkpt lat="55.7830783" lon="49.1267450"><time>2022-10-29T10:45:57.053</time></trkpt><trkpt lat="55.7831050" lon="49.1268100"><time>2022-10-29T10:45:58.050</time></trkpt><trkpt lat="55.7831383" lon="49.1268700"><time>2022-10-29T10:45:59.050</time></trkpt><trkpt lat="55.7831700" lon="49.1269283"><time>2022-10-29T10:46:00.053</time></trkpt><trkpt lat="55.7832033" lon="49.1269867"><time>2022-10-29T10:46:01.053</time></trkpt><trkpt lat="55.7832333" lon="49.1270517"><time>2022-10-29T10:46:02.057</time></trkpt><trkpt lat="55.7832683" lon="49.1271050"><time>2022-10-29T10:46:03.053</time></trkpt><trkpt lat="55.7832900" lon="49.1271817"><time>2022-10-29T10:46:04.053</time></trkpt><trkpt lat="55.7833083" lon="49.1273150"><time>2022-10-29T10:46:06.057</time></trkpt><trkpt lat="55.7833183" lon="49.1274000"><time>2022-10-29T10:46:07.060</time></trkpt><trkpt lat="55.7833267" lon="49.1274833"><time>2022-10-29T10:46:08.057</time></trkpt><trkpt lat="55.7833550" lon="49.1276250"><time>2022-10-29T10:46:10.040</time></trkpt><trkpt lat="55.7834167" lon="49.1277200"><time>2022-10-29T10:46:12.057</time></trkpt><trkpt lat="55.7834717" lon="49.1278083"><time>2022-10-29T10:46:14.057</time></trkpt><trkpt lat="55.7835200" lon="49.1279067"><time>2022-10-29T10:46:16.057</time></trkpt><trkpt lat="55.7835617" lon="49.1280100"><time>2022-10-29T10:46:18.057</time></trkpt><trkpt lat="55.7835950" lon="49.1281083"><time>2022-10-29T10:46:20.053</time></trkpt><trkpt lat="55.7836250" lon="49.1281817"><time>2022-10-29T10:46:22.057</time></trkpt><trkpt lat="55.7836250" lon="49.1281783"><time>2022-10-29T10:46:23.040</time></trkpt><trkpt lat="55.7836383" lon="49.1283217"><time>2022-10-29T10:46:24.550</time></trkpt><trkpt lat="55.7836283" lon="49.1284000"><time>2022-10-29T10:46:26.043</time></trkpt><trkpt lat="55.7836067" lon="49.1284733"><time>2022-10-29T10:46:27.043</time></trkpt><trkpt lat="55.7835483" lon="49.1285900"><time>2022-10-29T10:46:29.023</time></trkpt><trkpt lat="55.7835117" lon="49.1286550"><time>2022-10-29T10:46:30.040</time></trkpt><trkpt lat="55.7834733" lon="49.1287167"><time>2022-10-29T10:46:31.040</time></trkpt><trkpt lat="55.7834383" lon="49.1287750"><time>2022-10-29T10:46:32.037</time></trkpt><trkpt lat="55.7834050" lon="49.1288350"><time>2022-10-29T10:46:33.043</time></trkpt><trkpt lat="55.7833733" lon="49.1289017"><time>2022-10-29T10:46:34.037</time></trkpt><trkpt lat="55.7833367" lon="49.1289683"><time>2022-10-29T10:46:35.040</time></trkpt><trkpt lat="55.7833017" lon="49.1290417"><time>2022-10-29T10:46:36.043</time></trkpt><trkpt lat="55.7832733" lon="49.1291333"><time>2022-10-29T10:46:37.043</time></trkpt><trkpt lat="55.7832450" lon="49.1292850"><time>2022-10-29T10:46:39.043</time></trkpt><trkpt lat="55.7832400" lon="49.1293683"><time>2022-10-29T10:46:40.043</time></trkpt><trkpt lat="55.7832183" lon="49.1294417"><time>2022-10-29T10:46:41.050</time></trkpt><trkpt lat="55.7831733" lon="49.1295883"><time>2022-10-29T10:46:43.057</time></trkpt><trkpt lat="55.7831633" lon="49.1296167"><time>2022-10-29T10:46:44.527</time></trkpt><trkpt lat="55.7837400" lon="49.1260267"><time>2022-10-29T10:46:45.030</time></trkpt><trkpt lat="55.7837383" lon="49.1260167"><time>2022-10-29T10:46:46.513</time></trkpt><trkpt lat="55.7831033" lon="49.1297717"><time>2022-10-29T10:46:47.013</time></trkpt><trkpt lat="55.7829583" lon="49.1297217"><time>2022-10-29T10:46:48.403</time></trkpt><trkpt lat="55.7829550" lon="49.1298733"><time>2022-10-29T10:46:48.897</time></trkpt><trkpt lat="55.7829367" lon="49.1299950"><time>2022-10-29T10:46:49.543</time></trkpt><trkpt lat="55.7829450" lon="49.1301300"><time>2022-10-29T10:46:50.047</time></trkpt><trkpt lat="55.7829117" lon="49.1302167"><time>2022-10-29T10:46:51.043</time></trkpt><trkpt lat="55.7828550" lon="49.1303050"><time>2022-10-29T10:46:53.043</time></trkpt><trkpt lat="55.7828667" lon="49.1302317"><time>2022-10-29T10:46:54.480</time></trkpt><trkpt lat="55.7828450" lon="49.1303133"><time>2022-10-29T10:46:54.980</time></trkpt><trkpt lat="55.7828117" lon="49.1304283"><time>2022-10-29T10:46:56.043</time></trkpt><trkpt lat="55.7828067" lon="49.1305383"><time>2022-10-29T10:46:57.043</time></trkpt><trkpt lat="55.7828033" lon="49.1306400"><time>2022-10-29T10:46:59.043</time></trkpt><trkpt lat="55.7507550" lon="49.1318850"><time>2022-10-29T10:47:01.037</time></trkpt><trkpt lat="55.7828067" lon="49.1307200"><time>2022-10-29T10:47:01.073</time></trkpt><trkpt lat="55.7828083" lon="49.1308067"><time>2022-10-29T10:47:03.057</time></trkpt><trkpt lat="55.7828100" lon="49.1308000"><time>2022-10-29T10:47:04.537</time></trkpt><trkpt lat="55.7827767" lon="49.1308850"><time>2022-10-29T10:47:08.043</time></trkpt><trkpt lat="55.7827283" lon="49.1309050"><time>2022-10-29T10:47:10.047</time></trkpt><trkpt lat="55.7826733" lon="49.1309167"><time>2022-10-29T10:47:12.043</time></trkpt><trkpt lat="55.7826183" lon="49.1309667"><time>2022-10-29T10:47:14.047</time></trkpt><trkpt lat="55.7825650" lon="49.1310517"><time>2022-10-29T10:47:15.047</time></trkpt><trkpt lat="55.7825200" lon="49.1311467"><time>2022-10-29T10:47:16.047</time></trkpt><trkpt lat="55.7824833" lon="49.1312200"><time>2022-10-29T10:47:17.047</time></trkpt><trkpt lat="55.7824183" lon="49.1313450"><time>2022-10-29T10:47:19.047</time></trkpt><trkpt lat="55.7823617" lon="49.1314617"><time>2022-10-29T10:47:21.043</time></trkpt><trkpt lat="55.7823167" lon="49.1315817"><time>2022-10-29T10:47:23.043</time></trkpt><trkpt lat="55.7822650" lon="49.1316783"><time>2022-10-29T10:47:25.047</time></trkpt><trkpt lat="55.7821983" lon="49.1317567"><time>2022-10-29T10:47:27.047</time></trkpt><trkpt lat="55.7821450" lon="49.1318400"><time>2022-10-29T10:47:29.047</time></trkpt><trkpt lat="55.7820867" lon="49.1319167"><time>2022-10-29T10:47:31.047</time></trkpt><trkpt lat="55.7820233" lon="49.1319900"><time>2022-10-29T10:47:33.053</time></trkpt><trkpt lat="55.7819717" lon="49.1320283"><time>2022-10-29T10:47:35.057</time></trkpt><trkpt lat="55.7819300" lon="49.1320750"><time>2022-10-29T10:47:37.053</time></trkpt><trkpt lat="55.7818750" lon="49.1321567"><time>2022-10-29T10:47:40.053</time></trkpt><trkpt lat="55.7818267" lon="49.1322033"><time>2022-10-29T10:47:42.053</time></trkpt><trkpt lat="55.7817650" lon="49.1322650"><time>2022-10-29T10:47:44.053</time></trkpt><trkpt lat="55.7817067" lon="49.1323583"><time>2022-10-29T10:47:46.050</time></trkpt><trkpt lat="55.7816550" lon="49.1324867"><time>2022-10-29T10:47:48.053</time></trkpt><trkpt lat="55.7816100" lon="49.1326067"><time>2022-10-29T10:47:50.057</time></trkpt><trkpt lat="55.7815783" lon="49.1327283"><time>2022-10-29T10:47:52.043</time></trkpt><trkpt lat="55.7815383" lon="49.1328300"><time>2022-10-29T10:47:54.050</time></trkpt><trkpt lat="55.7815050" lon="49.1329483"><time>2022-10-29T10:47:56.053</time></trkpt><trkpt lat="55.7814733" lon="49.1330317"><time>2022-10-29T10:47:57.053</time></trkpt><trkpt lat="55.7814483" lon="49.1331167"><time>2022-10-29T10:47:58.053</time></trkpt><trkpt lat="55.7814233" lon="49.1332067"><time>2022-10-29T10:47:59.053</time></trkpt><trkpt lat="55.7814033" lon="49.1332817"><time>2022-10-29T10:48:00.050</time></trkpt><trkpt lat="55.7813667" lon="49.1334133"><time>2022-10-29T10:48:02.053</time></trkpt><trkpt lat="55.7813467" lon="49.1334983"><time>2022-10-29T10:48:03.057</time></trkpt><trkpt lat="55.7813400" lon="49.1336367"><time>2022-10-29T10:48:05.057</time></trkpt><trkpt lat="55.7813300" lon="49.1337767"><time>2022-10-29T10:48:07.050</time></trkpt><trkpt lat="55.7813167" lon="49.1338550"><time>2022-10-29T10:48:08.053</time></trkpt><trkpt lat="55.7812983" lon="49.1339417"><time>2022-10-29T10:48:09.057</time></trkpt><trkpt lat="55.7812833" lon="49.1340217"><time>2022-10-29T10:48:10.050</time></trkpt><trkpt lat="55.7812600" lon="49.1340917"><time>2022-10-29T10:48:11.053</time></trkpt><trkpt lat="55.7812367" lon="49.1341683"><time>2022-10-29T10:48:12.053</time></trkpt><trkpt lat="55.7812083" lon="49.1342317"><time>2022-10-29T10:48:13.053</time></trkpt><trkpt lat="55.7811800" lon="49.1342967"><time>2022-10-29T10:48:14.050</time></trkpt><trkpt lat="55.7811517" lon="49.1343783"><time>2022-10-29T10:48:15.053</time></trkpt><trkpt lat="55.7811317" lon="49.1344533"><time>2022-10-29T10:48:16.053</time></trkpt><trkpt lat="55.7811083" lon="49.1345300"><time>2022-10-29T10:48:17.050</time></trkpt><trkpt lat="55.7810800" lon="49.1346133"><time>2022-10-29T10:48:18.053</time></trkpt><trkpt lat="55.7810467" lon="49.1346867"><time>2022-10-29T10:48:19.050</time></trkpt><trkpt lat="55.7810117" lon="49.1347550"><time>2022-10-29T10:48:20.050</time></trkpt><trkpt lat="55.7809850" lon="49.1348233"><time>2022-10-29T10:48:21.050</time></trkpt><trkpt lat="55.7809417" lon="49.1349550"><time>2022-10-29T10:48:23.057</time></trkpt><trkpt lat="55.7808983" lon="49.1350800"><time>2022-10-29T10:48:25.057</time></trkpt><trkpt lat="55.7808533" lon="49.1351900"><time>2022-10-29T10:48:27.053</time></trkpt><trkpt lat="55.7808200" lon="49.1352767"><time>2022-10-29T10:48:29.053</time></trkpt><trkpt lat="55.7807850" lon="49.1353817"><time>2022-10-29T10:48:31.053</time></trkpt><trkpt lat="55.7807517" lon="49.1354733"><time>2022-10-29T10:48:33.053</time></trkpt><trkpt lat="55.7806967" lon="49.1355433"><time>2022-10-29T10:48:35.053</time></trkpt><trkpt lat="55.7806500" lon="49.1355917"><time>2022-10-29T10:48:38.053</time></trkpt><trkpt lat="55.7806033" lon="49.1356033"><time>2022-10-29T10:48:43.047</time></trkpt><trkpt lat="55.7805783" lon="49.1356967"><time>2022-10-29T10:49:15.053</time></trkpt><trkpt lat="55.7805433" lon="49.1357933"><time>2022-10-29T10:49:17.053</time></trkpt><trkpt lat="55.7804933" lon="49.1358867"><time>2022-10-29T10:49:19.053</time></trkpt><trkpt lat="55.7804400" lon="49.1359950"><time>2022-10-29T10:49:21.067</time></trkpt><trkpt lat="55.7804383" lon="49.1360000"><time>2022-10-29T10:49:22.537</time></trkpt><trkpt lat="55.7804033" lon="49.1360717"><time>2022-10-29T10:49:24.537</time></trkpt><trkpt lat="55.7803300" lon="49.1361650"><time>2022-10-29T10:49:26.040</time></trkpt><trkpt lat="55.7802717" lon="49.1362667"><time>2022-10-29T10:49:27.040</time></trkpt><trkpt lat="55.7802283" lon="49.1363700"><time>2022-10-29T10:49:28.040</time></trkpt><trkpt lat="55.7802000" lon="49.1364417"><time>2022-10-29T10:49:29.043</time></trkpt><trkpt lat="55.7801700" lon="49.1365217"><time>2022-10-29T10:49:30.040</time></trkpt><trkpt lat="55.7801383" lon="49.1365967"><time>2022-10-29T10:49:31.043</time></trkpt><trkpt lat="55.7800833" lon="49.1367033"><time>2022-10-29T10:49:32.043</time></trkpt><trkpt lat="55.7800450" lon="49.1367933"><time>2022-10-29T10:49:33.040</time></trkpt><trkpt lat="55.7800150" lon="49.1368900"><time>2022-10-29T10:49:34.043</time></trkpt><trkpt lat="55.7799617" lon="49.1370183"><time>2022-10-29T10:49:36.043</time></trkpt><trkpt lat="55.7799350" lon="49.1370867"><time>2022-10-29T10:49:37.043</time></trkpt><trkpt lat="55.7799067" lon="49.1371500"><time>2022-10-29T10:49:38.047</time></trkpt><trkpt lat="55.7798850" lon="49.1372200"><time>2022-10-29T10:49:39.057</time></trkpt><trkpt lat="55.7798833" lon="49.1372167"><time>2022-10-29T10:49:40.033</time></trkpt><trkpt lat="55.7798417" lon="49.1373017"><time>2022-10-29T10:49:41.547</time></trkpt><trkpt lat="55.7797567" lon="49.1374283"><time>2022-10-29T10:49:42.540</time></trkpt><trkpt lat="55.7796917" lon="49.1375567"><time>2022-10-29T10:49:44.033</time></trkpt><trkpt lat="55.7796617" lon="49.1376400"><time>2022-10-29T10:49:45.040</time></trkpt><trkpt lat="55.7796317" lon="49.1377150"><time>2022-10-29T10:49:46.047</time></trkpt><trkpt lat="55.7795800" lon="49.1378417"><time>2022-10-29T10:49:48.050</time></trkpt><trkpt lat="55.7795517" lon="49.1379050"><time>2022-10-29T10:49:49.057</time></trkpt><trkpt lat="55.7800917" lon="49.1361967"><time>2022-10-29T10:49:50.550</time></trkpt><trkpt lat="55.7800917" lon="49.1361933"><time>2022-10-29T10:49:51.440</time></trkpt><trkpt lat="55.7795417" lon="49.1379100"><time>2022-10-29T10:49:51.930</time></trkpt><trkpt lat="55.7795467" lon="49.1379067"><time>2022-10-29T10:49:53.317</time></trkpt><trkpt lat="55.7795050" lon="49.1380633"><time>2022-10-29T10:49:54.543</time></trkpt><trkpt lat="55.7794617" lon="49.1381717"><time>2022-10-29T10:49:55.540</time></trkpt><trkpt lat="55.7793717" lon="49.1383000"><time>2022-10-29T10:49:57.043</time></trkpt><trkpt lat="55.7793033" lon="49.1383750"><time>2022-10-29T10:49:59.037</time></trkpt><trkpt lat="55.7792617" lon="49.1384400"><time>2022-10-29T10:50:01.043</time></trkpt><trkpt lat="55.7792350" lon="49.1385233"><time>2022-10-29T10:50:04.047</time></trkpt><trkpt lat="55.7792033" lon="49.1386067"><time>2022-10-29T10:50:06.043</time></trkpt><trkpt lat="55.7791650" lon="49.1387033"><time>2022-10-29T10:50:08.057</time></trkpt><trkpt lat="55.7801367" lon="49.1360083"><time>2022-10-29T10:50:09.537</time></trkpt><trkpt lat="55.7801367" lon="49.1360067"><time>2022-10-29T10:50:10.427</time></trkpt><trkpt lat="55.7791700" lon="49.1386650"><time>2022-10-29T10:50:10.927</time></trkpt><trkpt lat="55.7801367" lon="49.1360033"><time>2022-10-29T10:50:11.827</time></trkpt><trkpt lat="55.7801383" lon="49.1360017"><time>2022-10-29T10:50:12.680</time></trkpt><trkpt lat="55.7791900" lon="49.1386900"><time>2022-10-29T10:50:14.107</time></trkpt><trkpt lat="55.7801400" lon="49.1360067"><time>2022-10-29T10:50:15.087</time></trkpt><trkpt lat="55.7801417" lon="49.1360033"><time>2022-10-29T10:50:16</time></trkpt><trkpt lat="55.7792550" lon="49.1387450"><time>2022-10-29T10:50:17.110</time></trkpt><trkpt lat="55.7792583" lon="49.1387467"><time>2022-10-29T10:50:18.500</time></trkpt><trkpt lat="55.7792517" lon="49.1388517"><time>2022-10-29T10:50:19.603</time></trkpt><trkpt lat="55.7792867" lon="49.1389600"><time>2022-10-29T10:50:21.103</time></trkpt><trkpt lat="55.7793200" lon="49.1390400"><time>2022-10-29T10:50:23.103</time></trkpt><trkpt lat="55.7793767" lon="49.1389850"><time>2022-10-29T10:50:26.103</time></trkpt><trkpt lat="55.7795567" lon="49.1389867"><time>2022-10-29T10:50:28.100</time></trkpt><trkpt lat="55.7507550" lon="49.1318850"><time>2022-10-29T10:50:30.050</time></trkpt><trkpt lat="55.7796367" lon="49.1389417"><time>2022-10-29T10:50:30.090</time></trkpt><trkpt lat="55.7796967" lon="49.1389383"><time>2022-10-29T10:50:31.057</time></trkpt><trkpt lat="55.7802050" lon="49.1360267"><time>2022-10-29T10:50:33.023</time></trkpt><trkpt lat="55.7797567" lon="49.1388467"><time>2022-10-29T10:50:34.043</time></trkpt><trkpt lat="55.7797683" lon="49.1389433"><time>2022-10-29T10:50:37.047</time></trkpt><trkpt lat="55.7797100" lon="49.1388517"><time>2022-10-29T10:50:44.043</time></trkpt><trkpt lat="55.7796517" lon="49.1388367"><time>2022-10-29T10:50:46.043</time></trkpt><trkpt lat="55.7795900" lon="49.1388683"><time>2022-10-29T10:50:48.047</time></trkpt><trkpt lat="55.7795233" lon="49.1389383"><time>2022-10-29T10:50:50.047</time></trkpt><trkpt lat="55.7794583" lon="49.1389200"><time>2022-10-29T10:50:52.043</time></trkpt><trkpt lat="55.7794100" lon="49.1388383"><time>2022-10-29T10:50:54.047</time></trkpt><trkpt lat="55.7793767" lon="49.1387633"><time>2022-10-29T10:50:56.047</time></trkpt><trkpt lat="55.7793450" lon="49.1387017"><time>2022-10-29T10:50:58.050</time></trkpt><trkpt lat="55.7793000" lon="49.1386517"><time>2022-10-29T10:51:00.047</time></trkpt><trkpt lat="55.7792600" lon="49.1385850"><time>2022-10-29T10:51:02.053</time></trkpt><trkpt lat="55.7792617" lon="49.1384850"><time>2022-10-29T10:51:04.057</time></trkpt><trkpt lat="55.7792967" lon="49.1383983"><time>2022-10-29T10:51:06.057</time></trkpt><trkpt lat="55.7793500" lon="49.1383117"><time>2022-10-29T10:51:08.057</time></trkpt><trkpt lat="55.7793900" lon="49.1382533"><time>2022-10-29T10:51:09.057</time></trkpt><trkpt lat="55.7794350" lon="49.1381883"><time>2022-10-29T10:51:10.053</time></trkpt><trkpt lat="55.7794783" lon="49.1381117"><time>2022-10-29T10:51:11.057</time></trkpt><trkpt lat="55.7795150" lon="49.1380200"><time>2022-10-29T10:51:12.053</time></trkpt><trkpt lat="55.7795483" lon="49.1379383"><time>2022-10-29T10:51:13.060</time></trkpt><trkpt lat="55.7795967" lon="49.1378600"><time>2022-10-29T10:51:14.050</time></trkpt><trkpt lat="55.7796400" lon="49.1377833"><time>2022-10-29T10:51:15.053</time></trkpt><trkpt lat="55.7796800" lon="49.1377083"><time>2022-10-29T10:51:16.050</time></trkpt><trkpt lat="55.7797183" lon="49.1376367"><time>2022-10-29T10:51:17.050</time></trkpt><trkpt lat="55.7797517" lon="49.1375583"><time>2022-10-29T10:51:18.053</time></trkpt><trkpt lat="55.7797800" lon="49.1374817"><time>2022-10-29T10:51:19.053</time></trkpt><trkpt lat="55.7798050" lon="49.1374017"><time>2022-10-29T10:51:20.050</time></trkpt><trkpt lat="55.7798350" lon="49.1373233"><time>2022-10-29T10:51:21.053</time></trkpt><trkpt lat="55.7798700" lon="49.1372500"><time>2022-10-29T10:51:22.030</time></trkpt><trkpt lat="55.7799083" lon="49.1371767"><time>2022-10-29T10:51:23.053</time></trkpt><trkpt lat="55.7799450" lon="49.1371050"><time>2022-10-29T10:51:24.050</time></trkpt><trkpt lat="55.7799867" lon="49.1370383"><time>2022-10-29T10:51:25.050</time></trkpt><trkpt lat="55.7800317" lon="49.1369633"><time>2022-10-29T10:51:26.043</time></trkpt><trkpt lat="55.7800617" lon="49.1368783"><time>2022-10-29T10:51:27.053</time></trkpt><trkpt lat="55.7800933" lon="49.1368017"><time>2022-10-29T10:51:28.053</time></trkpt><trkpt lat="55.7801217" lon="49.1367250"><time>2022-10-29T10:51:29.050</time></trkpt><trkpt lat="55.7801567" lon="49.1366583"><time>2022-10-29T10:51:30.050</time></trkpt><trkpt lat="55.7801950" lon="49.1365917"><time>2022-10-29T10:51:31.050</time></trkpt><trkpt lat="55.7802333" lon="49.1364633"><time>2022-10-29T10:51:33.053</time></trkpt><trkpt lat="55.7802717" lon="49.1363600"><time>2022-10-29T10:51:35.017</time></trkpt><trkpt lat="55.7803217" lon="49.1362383"><time>2022-10-29T10:51:37.057</time></trkpt><trkpt lat="55.7803900" lon="49.1361533"><time>2022-10-29T10:51:39.057</time></trkpt><trkpt lat="55.7804550" lon="49.1360683"><time>2022-10-29T10:51:41.057</time></trkpt><trkpt lat="55.7804933" lon="49.1359850"><time>2022-10-29T10:51:43.053</time></trkpt><trkpt lat="55.7804650" lon="49.1358800"><time>2022-10-29T10:51:45.053</time></trkpt><trkpt lat="55.7804233" lon="49.1358183"><time>2022-10-29T10:51:46.053</time></trkpt><trkpt lat="55.7803833" lon="49.1357467"><time>2022-10-29T10:51:47.053</time></trkpt><trkpt lat="55.7803550" lon="49.1356717"><time>2022-10-29T10:51:48.053</time></trkpt><trkpt lat="55.7803217" lon="49.1355900"><time>2022-10-29T10:51:49.053</time></trkpt><trkpt lat="55.7802933" lon="49.1355200"><time>2022-10-29T10:51:50.057</time></trkpt><trkpt lat="55.7802567" lon="49.1354567"><time>2022-10-29T10:51:51.053</time></trkpt><trkpt lat="55.7802117" lon="49.1353983"><time>2022-10-29T10:51:52.053</time></trkpt><trkpt lat="55.7801617" lon="49.1353433"><time>2022-10-29T10:51:53.050</time></trkpt><trkpt lat="55.7801150" lon="49.1352867"><time>2022-10-29T10:51:54.057</time></trkpt><trkpt lat="55.7800717" lon="49.1352317"><time>2022-10-29T10:51:55.050</time></trkpt><trkpt lat="55.7800283" lon="49.1351800"><time>2022-10-29T10:51:56.057</time></trkpt><trkpt lat="55.7799883" lon="49.1351217"><time>2022-10-29T10:51:57.053</time></trkpt><trkpt lat="55.7799483" lon="49.1350717"><time>2022-10-29T10:51:58.053</time></trkpt><trkpt lat="55.7799117" lon="49.1349850"><time>2022-10-29T10:51:59.050</time></trkpt><trkpt lat="55.7798733" lon="49.1349150"><time>2022-10-29T10:52:00.050</time></trkpt><trkpt lat="55.7798000" lon="49.1348050"><time>2022-10-29T10:52:02.053</time></trkpt><trkpt lat="55.7797317" lon="49.1347067"><time>2022-10-29T10:52:04.050</time></trkpt><trkpt lat="55.7796750" lon="49.1345867"><time>2022-10-29T10:52:06.053</time></trkpt><trkpt lat="55.7796433" lon="49.1345250"><time>2022-10-29T10:52:07.053</time></trkpt><trkpt lat="55.7796050" lon="49.1344700"><time>2022-10-29T10:52:08.053</time></trkpt><trkpt lat="55.7795433" lon="49.1343800"><time>2022-10-29T10:52:10.050</time></trkpt><trkpt lat="55.7794983" lon="49.1343267"><time>2022-10-29T10:52:12.040</time></trkpt><trkpt lat="55.7794750" lon="49.1342533"><time>2022-10-29T10:52:15.047</time></trkpt><trkpt lat="55.7794317" lon="49.1341650"><time>2022-10-29T10:52:24.050</time></trkpt><trkpt lat="55.7793917" lon="49.1341183"><time>2022-10-29T10:52:25.053</time></trkpt><trkpt lat="55.7793517" lon="49.1340600"><time>2022-10-29T10:52:26.053</time></trkpt><trkpt lat="55.7793100" lon="49.1340000"><time>2022-10-29T10:52:27.057</time></trkpt><trkpt lat="55.7792767" lon="49.1339417"><time>2022-10-29T10:52:28.027</time></trkpt><trkpt lat="55.7792350" lon="49.1338800"><time>2022-10-29T10:52:29.040</time></trkpt><trkpt lat="55.7791967" lon="49.1338217"><time>2022-10-29T10:52:30.053</time></trkpt><trkpt lat="55.7791517" lon="49.1337633"><time>2022-10-29T10:52:31.050</time></trkpt><trkpt lat="55.7791050" lon="49.1337150"><time>2022-10-29T10:52:32.050</time></trkpt><trkpt lat="55.7790650" lon="49.1336633"><time>2022-10-29T10:52:33.017</time></trkpt><trkpt lat="55.7789950" lon="49.1335650"><time>2022-10-29T10:52:35.013</time></trkpt><trkpt lat="55.7789367" lon="49.1334650"><time>2022-10-29T10:52:37.057</time></trkpt><trkpt lat="55.7788583" lon="49.1333833"><time>2022-10-29T10:52:39.047</time></trkpt><trkpt lat="55.7788217" lon="49.1333350"><time>2022-10-29T10:52:40.057</time></trkpt><trkpt lat="55.7787833" lon="49.1332883"><time>2022-10-29T10:52:41.053</time></trkpt><trkpt lat="55.7787483" lon="49.1332367"><time>2022-10-29T10:52:42.050</time></trkpt><trkpt lat="55.7787067" lon="49.1331800"><time>2022-10-29T10:52:43.053</time></trkpt><trkpt lat="55.7786633" lon="49.1331183"><time>2022-10-29T10:52:44.057</time></trkpt><trkpt lat="55.7786183" lon="49.1330567"><time>2022-10-29T10:52:45.053</time></trkpt><trkpt lat="55.7785767" lon="49.1329950"><time>2022-10-29T10:52:46.057</time></trkpt><trkpt lat="55.7785350" lon="49.1329383"><time>2022-10-29T10:52:47.050</time></trkpt><trkpt lat="55.7784950" lon="49.1328883"><time>2022-10-29T10:52:48.050</time></trkpt><trkpt lat="55.7784567" lon="49.1328450"><time>2022-10-29T10:52:49.050</time></trkpt><trkpt lat="55.7783850" lon="49.1327617"><time>2022-10-29T10:52:51.053</time></trkpt><trkpt lat="55.7783233" lon="49.1326817"><time>2022-10-29T10:52:53.053</time></trkpt><trkpt lat="55.7782600" lon="49.1327150"><time>2022-10-29T10:52:56.053</time></trkpt><trkpt lat="55.7782150" lon="49.1327883"><time>2022-10-29T10:52:58.050</time></trkpt><trkpt lat="55.7781517" lon="49.1328100"><time>2022-10-29T10:53:00.050</time></trkpt><trkpt lat="55.7780817" lon="49.1327350"><time>2022-10-29T10:53:02.050</time></trkpt><trkpt lat="55.7780167" lon="49.1326367"><time>2022-10-29T10:53:04.050</time></trkpt><trkpt lat="55.7779450" lon="49.1325583"><time>2022-10-29T10:53:06.053</time></trkpt><trkpt lat="55.7778667" lon="49.1324700"><time>2022-10-29T10:53:08.050</time></trkpt><trkpt lat="55.7778283" lon="49.1324283"><time>2022-10-29T10:53:09.050</time></trkpt><trkpt lat="55.7777467" lon="49.1323667"><time>2022-10-29T10:53:11.050</time></trkpt><trkpt lat="55.7776683" lon="49.1323267"><time>2022-10-29T10:53:13.057</time></trkpt><trkpt lat="55.7775817" lon="49.1323117"><time>2022-10-29T10:53:15.053</time></trkpt><trkpt lat="55.7775033" lon="49.1322983"><time>2022-10-29T10:53:17.053</time></trkpt><trkpt lat="55.7774183" lon="49.1322833"><time>2022-10-29T10:53:19.050</time></trkpt><trkpt lat="55.7773717" lon="49.1322550"><time>2022-10-29T10:53:20.053</time></trkpt><trkpt lat="55.7773200" lon="49.1322283"><time>2022-10-29T10:53:21.053</time></trkpt><trkpt lat="55.7772650" lon="49.1322133"><time>2022-10-29T10:53:22.053</time></trkpt><trkpt lat="55.7772150" lon="49.1321733"><time>2022-10-29T10:53:23.047</time></trkpt><trkpt lat="55.7771667" lon="49.1321450"><time>2022-10-29T10:53:24.050</time></trkpt><trkpt lat="55.7771167" lon="49.1321317"><time>2022-10-29T10:53:25.050</time></trkpt><trkpt lat="55.7770300" lon="49.1320917"><time>2022-10-29T10:53:27.053</time></trkpt><trkpt lat="55.7769517" lon="49.1320583"><time>2022-10-29T10:53:29.050</time></trkpt><trkpt lat="55.7768883" lon="49.1319850"><time>2022-10-29T10:53:31.050</time></trkpt><trkpt lat="55.7768833" lon="49.1318917"><time>2022-10-29T10:53:33.047</time></trkpt><trkpt lat="55.7768867" lon="49.1317967"><time>2022-10-29T10:53:36.047</time></trkpt><trkpt lat="55.7768900" lon="49.1316883"><time>2022-10-29T10:55:17.057</time></trkpt><trkpt lat="55.7768750" lon="49.1315300"><time>2022-10-29T10:55:19.053</time></trkpt><trkpt lat="55.7768483" lon="49.1314583"><time>2022-10-29T10:55:20.047</time></trkpt><trkpt lat="55.7768133" lon="49.1313950"><time>2022-10-29T10:55:21.017</time></trkpt><trkpt lat="55.7767767" lon="49.1313350"><time>2022-10-29T10:55:22.043</time></trkpt><trkpt lat="55.7767367" lon="49.1312700"><time>2022-10-29T10:55:23.053</time></trkpt><trkpt lat="55.7766967" lon="49.1312200"><time>2022-10-29T10:55:24.050</time></trkpt><trkpt lat="55.7766550" lon="49.1311683"><time>2022-10-29T10:55:25.050</time></trkpt><trkpt lat="55.7766067" lon="49.1311183"><time>2022-10-29T10:55:26.013</time></trkpt><trkpt lat="55.7765583" lon="49.1310767"><time>2022-10-29T10:55:27.057</time></trkpt><trkpt lat="55.7765117" lon="49.1310383"><time>2022-10-29T10:55:28.053</time></trkpt><trkpt lat="55.7764600" lon="49.1310067"><time>2022-10-29T10:55:29.053</time></trkpt><trkpt lat="55.7764133" lon="49.1309667"><time>2022-10-29T10:55:30.057</time></trkpt><trkpt lat="55.7763733" lon="49.1309300"><time>2022-10-29T10:55:31.057</time></trkpt><trkpt lat="55.7763317" lon="49.1308933"><time>2022-10-29T10:55:32.057</time></trkpt><trkpt lat="55.7762850" lon="49.1308583"><time>2022-10-29T10:55:33.060</time></trkpt><trkpt lat="55.7762417" lon="49.1308183"><time>2022-10-29T10:55:34.057</time></trkpt><trkpt lat="55.7761933" lon="49.1307833"><time>2022-10-29T10:55:35.053</time></trkpt><trkpt lat="55.7761417" lon="49.1307583"><time>2022-10-29T10:55:36.040</time></trkpt><trkpt lat="55.7760933" lon="49.1307267"><time>2022-10-29T10:55:37.057</time></trkpt><trkpt lat="55.7760467" lon="49.1307100"><time>2022-10-29T10:55:38.053</time></trkpt><trkpt lat="55.7760017" lon="49.1306950"><time>2022-10-29T10:55:39.053</time></trkpt><trkpt lat="55.7759567" lon="49.1306817"><time>2022-10-29T10:55:40.053</time></trkpt><trkpt lat="55.7759117" lon="49.1306650"><time>2022-10-29T10:55:41.053</time></trkpt><trkpt lat="55.7758333" lon="49.1306083"><time>2022-10-29T10:55:43.057</time></trkpt><trkpt lat="55.7757883" lon="49.1305717"><time>2022-10-29T10:55:44.057</time></trkpt><trkpt lat="55.7757400" lon="49.1305317"><time>2022-10-29T10:55:45.053</time></trkpt><trkpt lat="55.7756933" lon="49.1304883"><time>2022-10-29T10:55:46.057</time></trkpt><trkpt lat="55.7756450" lon="49.1304500"><time>2022-10-29T10:55:47.053</time></trkpt><trkpt lat="55.7755983" lon="49.1304133"><time>2022-10-29T10:55:48.053</time></trkpt><trkpt lat="55.7755500" lon="49.1303900"><time>2022-10-29T10:55:49.057</time></trkpt><trkpt lat="55.7755083" lon="49.1303550"><time>2022-10-29T10:55:50.053</time></trkpt><trkpt lat="55.7754650" lon="49.1303183"><time>2022-10-29T10:55:51.053</time></trkpt><trkpt lat="55.7754083" lon="49.1302850"><time>2022-10-29T10:55:52.053</time></trkpt><trkpt lat="55.7753500" lon="49.1302383"><time>2022-10-29T10:55:53.053</time></trkpt><trkpt lat="55.7752917" lon="49.1301983"><time>2022-10-29T10:55:54.053</time></trkpt><trkpt lat="55.7752333" lon="49.1301633"><time>2022-10-29T10:55:55.057</time></trkpt><trkpt lat="55.7751733" lon="49.1301283"><time>2022-10-29T10:55:56.037</time></trkpt><trkpt lat="55.7751150" lon="49.1300933"><time>2022-10-29T10:55:57.053</time></trkpt><trkpt lat="55.7750600" lon="49.1300633"><time>2022-10-29T10:55:58.053</time></trkpt><trkpt lat="55.7750050" lon="49.1300400"><time>2022-10-29T10:55:59.053</time></trkpt><trkpt lat="55.7749467" lon="49.1300133"><time>2022-10-29T10:56:00.057</time></trkpt><trkpt lat="55.7748883" lon="49.1299750"><time>2022-10-29T10:56:01.053</time></trkpt><trkpt lat="55.7748417" lon="49.1299300"><time>2022-10-29T10:56:02.057</time></trkpt><trkpt lat="55.7747883" lon="49.1298900"><time>2022-10-29T10:56:03.053</time></trkpt><trkpt lat="55.7747133" lon="49.1298600"><time>2022-10-29T10:56:04.053</time></trkpt><trkpt lat="55.7746467" lon="49.1298250"><time>2022-10-29T10:56:05.057</time></trkpt><trkpt lat="55.7745883" lon="49.1297917"><time>2022-10-29T10:56:06.053</time></trkpt><trkpt lat="55.7745350" lon="49.1297517"><time>2022-10-29T10:56:07.053</time></trkpt><trkpt lat="55.7744867" lon="49.1297083"><time>2022-10-29T10:56:08.057</time></trkpt><trkpt lat="55.7744383" lon="49.1296583"><time>2022-10-29T10:56:09.057</time></trkpt><trkpt lat="55.7743967" lon="49.1296117"><time>2022-10-29T10:56:10.057</time></trkpt><trkpt lat="55.7743450" lon="49.1295683"><time>2022-10-29T10:56:11.063</time></trkpt><trkpt lat="55.7743433" lon="49.1295667"><time>2022-10-29T10:56:12.557</time></trkpt><trkpt lat="55.7742883" lon="49.1295083"><time>2022-10-29T10:56:16.047</time></trkpt><trkpt lat="55.7742583" lon="49.1293900"><time>2022-10-29T10:56:18.047</time></trkpt><trkpt lat="55.7742067" lon="49.1292800"><time>2022-10-29T10:56:19.047</time></trkpt><trkpt lat="55.7741917" lon="49.1290900"><time>2022-10-29T10:56:21.043</time></trkpt><trkpt lat="55.7741867" lon="49.1289917"><time>2022-10-29T10:56:22.047</time></trkpt><trkpt lat="55.7741850" lon="49.1288883"><time>2022-10-29T10:56:23.047</time></trkpt><trkpt lat="55.7741850" lon="49.1287967"><time>2022-10-29T10:56:24.043</time></trkpt><trkpt lat="55.7741867" lon="49.1286933"><time>2022-10-29T10:56:25.043</time></trkpt><trkpt lat="55.7741850" lon="49.1286000"><time>2022-10-29T10:56:26.047</time></trkpt><trkpt lat="55.7741867" lon="49.1284967"><time>2022-10-29T10:56:27.047</time></trkpt><trkpt lat="55.7741850" lon="49.1284133"><time>2022-10-29T10:56:28.047</time></trkpt><trkpt lat="55.7741867" lon="49.1282733"><time>2022-10-29T10:56:30.050</time></trkpt><trkpt lat="55.7741650" lon="49.1281817"><time>2022-10-29T10:56:32.040</time></trkpt><trkpt lat="55.7741367" lon="49.1281050"><time>2022-10-29T10:56:35.047</time></trkpt><trkpt lat="55.7741000" lon="49.1280283"><time>2022-10-29T10:56:37.060</time></trkpt><trkpt lat="55.7741000" lon="49.1280300"><time>2022-10-29T10:56:38.030</time></trkpt><trkpt lat="55.7740500" lon="49.1279933"><time>2022-10-29T10:56:40.043</time></trkpt><trkpt lat="55.7739850" lon="49.1279750"><time>2022-10-29T10:56:42.030</time></trkpt><trkpt lat="55.7739233" lon="49.1279767"><time>2022-10-29T10:56:44.047</time></trkpt><trkpt lat="55.7738883" lon="49.1278933"><time>2022-10-29T10:56:46.043</time></trkpt><trkpt lat="55.7738950" lon="49.1277650"><time>2022-10-29T10:56:48.050</time></trkpt><trkpt lat="55.7739083" lon="49.1276267"><time>2022-10-29T10:56:50.047</time></trkpt><trkpt lat="55.7739033" lon="49.1274967"><time>2022-10-29T10:56:52.030</time></trkpt><trkpt lat="55.7738950" lon="49.1274183"><time>2022-10-29T10:56:53.037</time></trkpt><trkpt lat="55.7738850" lon="49.1273367"><time>2022-10-29T10:56:54.060</time></trkpt><trkpt lat="55.7738850" lon="49.1273350"><time>2022-10-29T10:56:55.030</time></trkpt><trkpt lat="55.7738567" lon="49.1272017"><time>2022-10-29T10:56:57.047</time></trkpt><trkpt lat="55.7738483" lon="49.1270850"><time>2022-10-29T10:56:58.043</time></trkpt><trkpt lat="55.7738200" lon="49.1269600"><time>2022-10-29T10:57:00.047</time></trkpt><trkpt lat="55.7507550" lon="49.1318850"><time>2022-10-29T10:57:02.053</time></trkpt><trkpt lat="55.7738000" lon="49.1268333"><time>2022-10-29T10:57:02.097</time></trkpt><trkpt lat="55.7737933" lon="49.1267017"><time>2022-10-29T10:57:04.057</time></trkpt><trkpt lat="55.7737933" lon="49.1267017"><time>2022-10-29T10:57:05.020</time></trkpt><trkpt lat="55.7737900" lon="49.1266200"><time>2022-10-29T10:57:07.040</time></trkpt><trkpt lat="55.7737867" lon="49.1267033"><time>2022-10-29T10:57:11.047</time></trkpt><trkpt lat="55.7737950" lon="49.1268217"><time>2022-10-29T10:57:13.047</time></trkpt><trkpt lat="55.7737900" lon="49.1269533"><time>2022-10-29T10:57:15.047</time></trkpt><trkpt lat="55.7738067" lon="49.1270950"><time>2022-10-29T10:57:17.047</time></trkpt><trkpt lat="55.7738433" lon="49.1272267"><time>2022-10-29T10:57:19.047</time></trkpt><trkpt lat="55.7738567" lon="49.1273100"><time>2022-10-29T10:57:20.047</time></trkpt><trkpt lat="55.7738767" lon="49.1274017"><time>2022-10-29T10:57:21.050</time></trkpt><trkpt lat="55.7739033" lon="49.1275533"><time>2022-10-29T10:57:23.047</time></trkpt><trkpt lat="55.7739133" lon="49.1276367"><time>2022-10-29T10:57:24.047</time></trkpt><trkpt lat="55.7739217" lon="49.1277200"><time>2022-10-29T10:57:25.047</time></trkpt><trkpt lat="55.7739317" lon="49.1278000"><time>2022-10-29T10:57:26.047</time></trkpt><trkpt lat="55.7739250" lon="49.1279267"><time>2022-10-29T10:57:28.047</time></trkpt><trkpt lat="55.7738683" lon="49.1279850"><time>2022-10-29T10:57:30.047</time></trkpt><trkpt lat="55.7737883" lon="49.1280067"><time>2022-10-29T10:57:32.047</time></trkpt><trkpt lat="55.7737433" lon="49.1280200"><time>2022-10-29T10:57:33.053</time></trkpt><trkpt lat="55.7736567" lon="49.1280550"><time>2022-10-29T10:57:35.057</time></trkpt><trkpt lat="55.7736117" lon="49.1280800"><time>2022-10-29T10:57:36.053</time></trkpt><trkpt lat="55.7735667" lon="49.1281000"><time>2022-10-29T10:57:37.053</time></trkpt><trkpt lat="55.7735200" lon="49.1281200"><time>2022-10-29T10:57:38.057</time></trkpt><trkpt lat="55.7734733" lon="49.1281317"><time>2022-10-29T10:57:39.053</time></trkpt><trkpt lat="55.7734267" lon="49.1281483"><time>2022-10-29T10:57:40.053</time></trkpt><trkpt lat="55.7733383" lon="49.1281750"><time>2022-10-29T10:57:42.060</time></trkpt><trkpt lat="55.7732933" lon="49.1281967"><time>2022-10-29T10:57:43.043</time></trkpt><trkpt lat="55.7732500" lon="49.1282283"><time>2022-10-29T10:57:44.053</time></trkpt><trkpt lat="55.7731667" lon="49.1282967"><time>2022-10-29T10:57:46.053</time></trkpt><trkpt lat="55.7731133" lon="49.1283317"><time>2022-10-29T10:57:47.057</time></trkpt><trkpt lat="55.7730683" lon="49.1283750"><time>2022-10-29T10:57:48.057</time></trkpt><trkpt lat="55.7729900" lon="49.1284417"><time>2022-10-29T10:57:50.053</time></trkpt><trkpt lat="55.7729283" lon="49.1284867"><time>2022-10-29T10:57:52.057</time></trkpt><trkpt lat="55.7728633" lon="49.1285550"><time>2022-10-29T10:57:54.050</time></trkpt><trkpt lat="55.7728017" lon="49.1286600"><time>2022-10-29T10:57:56.057</time></trkpt><trkpt lat="55.7727633" lon="49.1287150"><time>2022-10-29T10:57:57.057</time></trkpt><trkpt lat="55.7727233" lon="49.1287667"><time>2022-10-29T10:57:58.053</time></trkpt><trkpt lat="55.7726817" lon="49.1288117"><time>2022-10-29T10:57:59.053</time></trkpt><trkpt lat="55.7726350" lon="49.1288567"><time>2022-10-29T10:58:00.057</time></trkpt><trkpt lat="55.7725883" lon="49.1288950"><time>2022-10-29T10:58:01.057</time></trkpt><trkpt lat="55.7725400" lon="49.1289317"><time>2022-10-29T10:58:02.057</time></trkpt><trkpt lat="55.7724967" lon="49.1289717"><time>2022-10-29T10:58:03.057</time></trkpt><trkpt lat="55.7724517" lon="49.1290100"><time>2022-10-29T10:58:04.053</time></trkpt><trkpt lat="55.7724067" lon="49.1290550"><time>2022-10-29T10:58:05.057</time></trkpt><trkpt lat="55.7723600" lon="49.1290900"><time>2022-10-29T10:58:06.057</time></trkpt><trkpt lat="55.7723167" lon="49.1291233"><time>2022-10-29T10:58:07.057</time></trkpt><trkpt lat="55.7722717" lon="49.1291650"><time>2022-10-29T10:58:08.053</time></trkpt><trkpt lat="55.7722267" lon="49.1291983"><time>2022-10-29T10:58:09.057</time></trkpt><trkpt lat="55.7721817" lon="49.1292283"><time>2022-10-29T10:58:10.053</time></trkpt><trkpt lat="55.7721050" lon="49.1292900"><time>2022-10-29T10:58:12.057</time></trkpt><trkpt lat="55.7720633" lon="49.1293283"><time>2022-10-29T10:58:13.057</time></trkpt><trkpt lat="55.7720200" lon="49.1293567"><time>2022-10-29T10:58:14.053</time></trkpt><trkpt lat="55.7719400" lon="49.1294017"><time>2022-10-29T10:58:16.053</time></trkpt><trkpt lat="55.7718617" lon="49.1294567"><time>2022-10-29T10:58:18.057</time></trkpt><trkpt lat="55.7717867" lon="49.1295050"><time>2022-10-29T10:58:20.053</time></trkpt><trkpt lat="55.7717100" lon="49.1295667"><time>2022-10-29T10:58:22.057</time></trkpt><trkpt lat="55.7716350" lon="49.1296500"><time>2022-10-29T10:58:24.057</time></trkpt><trkpt lat="55.7715483" lon="49.1296983"><time>2022-10-29T10:58:26.057</time></trkpt><trkpt lat="55.7715050" lon="49.1297233"><time>2022-10-29T10:58:27.057</time></trkpt><trkpt lat="55.7714583" lon="49.1297550"><time>2022-10-29T10:58:28.057</time></trkpt><trkpt lat="55.7714150" lon="49.1297783"><time>2022-10-29T10:58:29.053</time></trkpt><trkpt lat="55.7713650" lon="49.1298133"><time>2022-10-29T10:58:30.060</time></trkpt><trkpt lat="55.7713217" lon="49.1298550"><time>2022-10-29T10:58:31.053</time></trkpt><trkpt lat="55.7712767" lon="49.1299000"><time>2022-10-29T10:58:32.057</time></trkpt><trkpt lat="55.7712333" lon="49.1299400"><time>2022-10-29T10:58:33.057</time></trkpt><trkpt lat="55.7711883" lon="49.1299900"><time>2022-10-29T10:58:34.047</time></trkpt><trkpt lat="55.7711467" lon="49.1300367"><time>2022-10-29T10:58:35.053</time></trkpt><trkpt lat="55.7710700" lon="49.1301167"><time>2022-10-29T10:58:37.053</time></trkpt><trkpt lat="55.7710283" lon="49.1301717"><time>2022-10-29T10:58:38.057</time></trkpt><trkpt lat="55.7709850" lon="49.1302217"><time>2022-10-29T10:58:39.057</time></trkpt><trkpt lat="55.7709400" lon="49.1302850"><time>2022-10-29T10:58:40.057</time></trkpt><trkpt lat="55.7708767" lon="49.1303400"><time>2022-10-29T10:58:42.057</time></trkpt><trkpt lat="55.7708100" lon="49.1304233"><time>2022-10-29T10:58:44.053</time></trkpt><trkpt lat="55.7707383" lon="49.1304833"><time>2022-10-29T10:58:46.057</time></trkpt><trkpt lat="55.7706967" lon="49.1305350"><time>2022-10-29T10:58:47.057</time></trkpt><trkpt lat="55.7706567" lon="49.1305900"><time>2022-10-29T10:58:48.053</time></trkpt><trkpt lat="55.7706167" lon="49.1306533"><time>2022-10-29T10:58:49.057</time></trkpt><trkpt lat="55.7705733" lon="49.1307233"><time>2022-10-29T10:58:50.057</time></trkpt><trkpt lat="55.7705300" lon="49.1308000"><time>2022-10-29T10:58:51.057</time></trkpt><trkpt lat="55.7704883" lon="49.1308867"><time>2022-10-29T10:58:52.057</time></trkpt><trkpt lat="55.7704450" lon="49.1309717"><time>2022-10-29T10:58:53.057</time></trkpt><trkpt lat="55.7704000" lon="49.1310350"><time>2022-10-29T10:58:54.057</time></trkpt><trkpt lat="55.7703600" lon="49.1310950"><time>2022-10-29T10:58:55.057</time></trkpt><trkpt lat="55.7703200" lon="49.1311650"><time>2022-10-29T10:58:56.057</time></trkpt><trkpt lat="55.7702800" lon="49.1312350"><time>2022-10-29T10:58:57.057</time></trkpt><trkpt lat="55.7702400" lon="49.1312917"><time>2022-10-29T10:58:58.050</time></trkpt><trkpt lat="55.7701983" lon="49.1313417"><time>2022-10-29T10:58:59.057</time></trkpt><trkpt lat="55.7701600" lon="49.1313900"><time>2022-10-29T10:59:00.057</time></trkpt><trkpt lat="55.7700833" lon="49.1314767"><time>2022-10-29T10:59:02.057</time></trkpt><trkpt lat="55.7700450" lon="49.1315267"><time>2022-10-29T10:59:03.067</time></trkpt><trkpt lat="55.7700100" lon="49.1315817"><time>2022-10-29T10:59:04.057</time></trkpt><trkpt lat="55.7699717" lon="49.1316233"><time>2022-10-29T10:59:05.057</time></trkpt><trkpt lat="55.7699117" lon="49.1316900"><time>2022-10-29T10:59:07.057</time></trkpt><trkpt lat="55.7698667" lon="49.1317283"><time>2022-10-29T10:59:09.057</time></trkpt><trkpt lat="55.7698200" lon="49.1317817"><time>2022-10-29T10:59:11.057</time></trkpt><trkpt lat="55.7697750" lon="49.1318683"><time>2022-10-29T10:59:13.060</time></trkpt><trkpt lat="55.7697217" lon="49.1319333"><time>2022-10-29T10:59:15.057</time></trkpt><trkpt lat="55.7696583" lon="49.1320183"><time>2022-10-29T10:59:17.057</time></trkpt><trkpt lat="55.7695867" lon="49.1320933"><time>2022-10-29T10:59:19.057</time></trkpt><trkpt lat="55.7695300" lon="49.1321600"><time>2022-10-29T10:59:21.053</time></trkpt><trkpt lat="55.7694800" lon="49.1321950"><time>2022-10-29T10:59:23.057</time></trkpt><trkpt lat="55.7694467" lon="49.1322833"><time>2022-10-29T10:59:26.057</time></trkpt><trkpt lat="55.7694967" lon="49.1324133"><time>2022-10-29T10:59:28.053</time></trkpt><trkpt lat="55.7695283" lon="49.1324783"><time>2022-10-29T10:59:29.013</time></trkpt><trkpt lat="55.7695650" lon="49.1325500"><time>2022-10-29T10:59:30.020</time></trkpt><trkpt lat="55.7696033" lon="49.1326267"><time>2022-10-29T10:59:31.037</time></trkpt><trkpt lat="55.7696317" lon="49.1327067"><time>2022-10-29T10:59:32.020</time></trkpt><trkpt lat="55.7696450" lon="49.1327900"><time>2022-10-29T10:59:33.027</time></trkpt><trkpt lat="55.7696733" lon="49.1328617"><time>2022-10-29T10:59:34.017</time></trkpt><trkpt lat="55.7696933" lon="49.1329433"><time>2022-10-29T10:59:35.047</time></trkpt><trkpt lat="55.7697150" lon="49.1330183"><time>2022-10-29T10:59:36.053</time></trkpt><trkpt lat="55.7697367" lon="49.1331133"><time>2022-10-29T10:59:37.017</time></trkpt><trkpt lat="55.7697500" lon="49.1332017"><time>2022-10-29T10:59:38.043</time></trkpt><trkpt lat="55.7697717" lon="49.1332717"><time>2022-10-29T10:59:39.017</time></trkpt><trkpt lat="55.7698050" lon="49.1333383"><time>2022-10-29T10:59:40.050</time></trkpt><trkpt lat="55.7698433" lon="49.1334050"><time>2022-10-29T10:59:41.053</time></trkpt><trkpt lat="55.7698717" lon="49.1334733"><time>2022-10-29T10:59:42.050</time></trkpt><trkpt lat="55.7699000" lon="49.1335367"><time>2022-10-29T10:59:43.047</time></trkpt><trkpt lat="55.7699483" lon="49.1336650"><time>2022-10-29T10:59:45.053</time></trkpt><trkpt lat="55.7699850" lon="49.1338100"><time>2022-10-29T10:59:47.043</time></trkpt><trkpt lat="55.7700117" lon="49.1338867"><time>2022-10-29T10:59:48.043</time></trkpt><trkpt lat="55.7700533" lon="49.1340233"><time>2022-10-29T10:59:50.057</time></trkpt><trkpt lat="55.7700817" lon="49.1340933"><time>2022-10-29T10:59:51.053</time></trkpt><trkpt lat="55.7701133" lon="49.1341617"><time>2022-10-29T10:59:52.053</time></trkpt><trkpt lat="55.7701400" lon="49.1342367"><time>2022-10-29T10:59:53.053</time></trkpt><trkpt lat="55.7701683" lon="49.1343167"><time>2022-10-29T10:59:54.053</time></trkpt><trkpt lat="55.7702050" lon="49.1344083"><time>2022-10-29T10:59:55.053</time></trkpt><trkpt lat="55.7702383" lon="49.1344967"><time>2022-10-29T10:59:56.057</time></trkpt><trkpt lat="55.7702667" lon="49.1346567"><time>2022-10-29T10:59:58.050</time></trkpt><trkpt lat="55.7702733" lon="49.1348233"><time>2022-10-29T11:00:00.053</time></trkpt><trkpt lat="55.7702800" lon="49.1349117"><time>2022-10-29T11:00:01.053</time></trkpt><trkpt lat="55.7703017" lon="49.1349950"><time>2022-10-29T11:00:02.053</time></trkpt><trkpt lat="55.7703533" lon="49.1350750"><time>2022-10-29T11:00:03.053</time></trkpt><trkpt lat="55.7704067" lon="49.1351583"><time>2022-10-29T11:00:04.057</time></trkpt><trkpt lat="55.7704250" lon="49.1352367"><time>2022-10-29T11:00:05.057</time></trkpt><trkpt lat="55.7704433" lon="49.1353183"><time>2022-10-29T11:00:06.053</time></trkpt><trkpt lat="55.7704833" lon="49.1354783"><time>2022-10-29T11:00:08.057</time></trkpt><trkpt lat="55.7705183" lon="49.1355617"><time>2022-10-29T11:00:09.057</time></trkpt><trkpt lat="55.7705350" lon="49.1356400"><time>2022-10-29T11:00:10.057</time></trkpt><trkpt lat="55.7705800" lon="49.1358000"><time>2022-10-29T11:00:12.027</time></trkpt><trkpt lat="55.7706183" lon="49.1359533"><time>2022-10-29T11:00:14.053</time></trkpt><trkpt lat="55.7706550" lon="49.1360500"><time>2022-10-29T11:00:15.050</time></trkpt><trkpt lat="55.7706983" lon="49.1361467"><time>2022-10-29T11:00:16.053</time></trkpt><trkpt lat="55.7707383" lon="49.1362367"><time>2022-10-29T11:00:17.050</time></trkpt><trkpt lat="55.7708017" lon="49.1362967"><time>2022-10-29T11:00:18.057</time></trkpt><trkpt lat="55.7708733" lon="49.1363483"><time>2022-10-29T11:00:19.057</time></trkpt><trkpt lat="55.7709417" lon="49.1363967"><time>2022-10-29T11:00:20.053</time></trkpt><trkpt lat="55.7710050" lon="49.1364583"><time>2022-10-29T11:00:21.057</time></trkpt><trkpt lat="55.7710600" lon="49.1365333"><time>2022-10-29T11:00:22.053</time></trkpt><trkpt lat="55.7711167" lon="49.1366033"><time>2022-10-29T11:00:23.053</time></trkpt><trkpt lat="55.7711667" lon="49.1366717"><time>2022-10-29T11:00:24.057</time></trkpt><trkpt lat="55.7712217" lon="49.1367483"><time>2022-10-29T11:00:25.057</time></trkpt><trkpt lat="55.7712700" lon="49.1368317"><time>2022-10-29T11:00:26.043</time></trkpt><trkpt lat="55.7713283" lon="49.1369117"><time>2022-10-29T11:00:27.070</time></trkpt><trkpt lat="55.7714750" lon="49.1368767"><time>2022-10-29T11:00:28.050</time></trkpt><trkpt lat="55.7690850" lon="49.1338967"><time>2022-10-29T11:00:28.553</time></trkpt><trkpt lat="55.7713750" lon="49.1363333"><time>2022-10-29T11:00:30.453</time></trkpt><trkpt lat="55.7716083" lon="49.1368317"><time>2022-10-29T11:00:30.937</time></trkpt><trkpt lat="55.7715017" lon="49.1367800"><time>2022-10-29T11:00:32.890</time></trkpt><trkpt lat="55.7716033" lon="49.1373100"><time>2022-10-29T11:00:33.383</time></trkpt><trkpt lat="55.7715717" lon="49.1374300"><time>2022-10-29T11:00:34.543</time></trkpt><trkpt lat="55.7715100" lon="49.1375233"><time>2022-10-29T11:00:36.047</time></trkpt><trkpt lat="55.7714733" lon="49.1375850"><time>2022-10-29T11:00:37.043</time></trkpt><trkpt lat="55.7714017" lon="49.1376767"><time>2022-10-29T11:00:39.047</time></trkpt><trkpt lat="55.7713633" lon="49.1377550"><time>2022-10-29T11:00:40.047</time></trkpt><trkpt lat="55.7713250" lon="49.1378217"><time>2022-10-29T11:00:41.047</time></trkpt><trkpt lat="55.7712883" lon="49.1378850"><time>2022-10-29T11:00:42.047</time></trkpt><trkpt lat="55.7712300" lon="49.1380200"><time>2022-10-29T11:00:44.047</time></trkpt><trkpt lat="55.7711917" lon="49.1381450"><time>2022-10-29T11:00:46.050</time></trkpt><trkpt lat="55.7711850" lon="49.1382250"><time>2022-10-29T11:00:47.050</time></trkpt><trkpt lat="55.7712083" lon="49.1383700"><time>2022-10-29T11:00:49.043</time></trkpt><trkpt lat="55.7712617" lon="49.1384483"><time>2022-10-29T11:00:51.047</time></trkpt><trkpt lat="55.7713067" lon="49.1384617"><time>2022-10-29T11:00:53.047</time></trkpt><trkpt lat="55.7713533" lon="49.1384333"><time>2022-10-29T11:00:55.050</time></trkpt><trkpt lat="55.7714033" lon="49.1384433"><time>2022-10-29T11:00:57.047</time></trkpt><trkpt lat="55.7714533" lon="49.1384733"><time>2022-10-29T11:01:01.047</time></trkpt><trkpt lat="55.7715100" lon="49.1385117"><time>2022-10-29T11:01:04.063</time></trkpt><trkpt lat="55.7715867" lon="49.1377933"><time>2022-10-29T11:01:06.050</time></trkpt><trkpt lat="55.7715933" lon="49.1378017"><time>2022-10-29T11:01:07.523</time></trkpt><trkpt lat="55.7715550" lon="49.1385683"><time>2022-10-29T11:01:08.010</time></trkpt><trkpt lat="55.7716050" lon="49.1378183"><time>2022-10-29T11:01:08.983</time></trkpt><trkpt lat="55.7716117" lon="49.1378217"><time>2022-10-29T11:01:10.863</time></trkpt><trkpt lat="55.7715883" lon="49.1386100"><time>2022-10-29T11:01:11.353</time></trkpt><trkpt lat="55.7716217" lon="49.1378383"><time>2022-10-29T11:01:12.840</time></trkpt><trkpt lat="55.7716233" lon="49.1378300"><time>2022-10-29T11:01:14.727</time></trkpt><trkpt lat="55.7716100" lon="49.1386017"><time>2022-10-29T11:01:15.217</time></trkpt><trkpt lat="55.7716450" lon="49.1378467"><time>2022-10-29T11:01:17.193</time></trkpt><trkpt lat="55.7716483" lon="49.1378433"><time>2022-10-29T11:01:18.687</time></trkpt><trkpt lat="55.7716483" lon="49.1386217"><time>2022-10-29T11:01:19.170</time></trkpt><trkpt lat="55.7716533" lon="49.1378400"><time>2022-10-29T11:01:20.657</time></trkpt><trkpt lat="55.7716533" lon="49.1378317"><time>2022-10-29T11:01:22.040</time></trkpt><trkpt lat="55.7716567" lon="49.1385800"><time>2022-10-29T11:01:22.513</time></trkpt><trkpt lat="55.7716533" lon="49.1378250"><time>2022-10-29T11:01:24.970</time></trkpt><trkpt lat="55.7716567" lon="49.1378167"><time>2022-10-29T11:01:26.440</time></trkpt><trkpt lat="55.7719050" lon="49.1391567"><time>2022-10-29T11:01:26.933</time></trkpt><trkpt lat="55.7717167" lon="49.1375900"><time>2022-10-29T11:01:28.953</time></trkpt><trkpt lat="55.7717133" lon="49.1375950"><time>2022-10-29T11:01:30.850</time></trkpt><trkpt lat="55.7718817" lon="49.1392083"><time>2022-10-29T11:01:31.340</time></trkpt><trkpt lat="55.7717067" lon="49.1376050"><time>2022-10-29T11:01:33.323</time></trkpt><trkpt lat="55.7716983" lon="49.1375700"><time>2022-10-29T11:01:34.290</time></trkpt><trkpt lat="55.7718117" lon="49.1391333"><time>2022-10-29T11:01:34.777</time></trkpt><trkpt lat="55.7716900" lon="49.1375583"><time>2022-10-29T11:01:35.670</time></trkpt><trkpt lat="55.7721167" lon="49.1394150"><time>2022-10-29T11:01:37.077</time></trkpt><trkpt lat="55.7717617" lon="49.1376300"><time>2022-10-29T11:01:37.977</time></trkpt><trkpt lat="55.7717083" lon="49.1375533"><time>2022-10-29T11:01:39.370</time></trkpt><trkpt lat="55.7507550" lon="49.1318850"><time>2022-10-29T11:01:39.873</time></trkpt><trkpt lat="55.7719333" lon="49.1395750"><time>2022-10-29T11:01:39.923</time></trkpt><trkpt lat="55.7717083" lon="49.1376150"><time>2022-10-29T11:01:40.770</time></trkpt><trkpt lat="55.7716867" lon="49.1376400"><time>2022-10-29T11:01:42.163</time></trkpt><trkpt lat="55.7718383" lon="49.1396550"><time>2022-10-29T11:01:42.637</time></trkpt><trkpt lat="55.7718700" lon="49.1397533"><time>2022-10-29T11:01:43.540</time></trkpt><trkpt lat="55.7719483" lon="49.1397983"><time>2022-10-29T11:01:44.047</time></trkpt><trkpt lat="55.7720083" lon="49.1398917"><time>2022-10-29T11:01:45.043</time></trkpt><trkpt lat="55.7720300" lon="49.1399767"><time>2022-10-29T11:01:46.043</time></trkpt><trkpt lat="55.7720333" lon="49.1401033"><time>2022-10-29T11:01:47.050</time></trkpt><trkpt lat="55.7720517" lon="49.1402250"><time>2022-10-29T11:01:49.047</time></trkpt><trkpt lat="55.7720633" lon="49.1403067"><time>2022-10-29T11:01:51.050</time></trkpt><trkpt lat="55.7720517" lon="49.1403917"><time>2022-10-29T11:01:52.050</time></trkpt><trkpt lat="55.7720383" lon="49.1405000"><time>2022-10-29T11:01:54.047</time></trkpt><trkpt lat="55.7720817" lon="49.1405883"><time>2022-10-29T11:01:57.047</time></trkpt><trkpt lat="55.7721300" lon="49.1406500"><time>2022-10-29T11:01:59.030</time></trkpt><trkpt lat="55.7721767" lon="49.1407400"><time>2022-10-29T11:02:01.047</time></trkpt><trkpt lat="55.7722200" lon="49.1408267"><time>2022-10-29T11:02:03.037</time></trkpt><trkpt lat="55.7722683" lon="49.1408900"><time>2022-10-29T11:02:05.047</time></trkpt><trkpt lat="55.7723150" lon="49.1409167"><time>2022-10-29T11:02:07.047</time></trkpt><trkpt lat="55.7723700" lon="49.1409117"><time>2022-10-29T11:02:10.043</time></trkpt><trkpt lat="55.7723933" lon="49.1408350"><time>2022-10-29T11:02:12.053</time></trkpt><trkpt lat="55.7724317" lon="49.1407600"><time>2022-10-29T11:02:14.057</time></trkpt><trkpt lat="55.7724567" lon="49.1406800"><time>2022-10-29T11:02:16.047</time></trkpt><trkpt lat="55.7724850" lon="49.1406050"><time>2022-10-29T11:02:18.053</time></trkpt><trkpt lat="55.7725167" lon="49.1405383"><time>2022-10-29T11:02:20.057</time></trkpt><trkpt lat="55.7725600" lon="49.1404683"><time>2022-10-29T11:02:22.057</time></trkpt><trkpt lat="55.7725883" lon="49.1404050"><time>2022-10-29T11:02:24.053</time></trkpt><trkpt lat="55.7726333" lon="49.1403017"><time>2022-10-29T11:02:26.057</time></trkpt><trkpt lat="55.7726567" lon="49.1402333"><time>2022-10-29T11:02:27.057</time></trkpt><trkpt lat="55.7727050" lon="49.1401100"><time>2022-10-29T11:02:29.053</time></trkpt><trkpt lat="55.7727567" lon="49.1400067"><time>2022-10-29T11:02:31.053</time></trkpt><trkpt lat="55.7728150" lon="49.1399133"><time>2022-10-29T11:02:33.053</time></trkpt><trkpt lat="55.7728783" lon="49.1398217"><time>2022-10-29T11:02:35.057</time></trkpt><trkpt lat="55.7729233" lon="49.1397350"><time>2022-10-29T11:02:37.057</time></trkpt><trkpt lat="55.7729600" lon="49.1396850"><time>2022-10-29T11:02:39.053</time></trkpt><trkpt lat="55.7729917" lon="49.1396183"><time>2022-10-29T11:02:43.060</time></trkpt><trkpt lat="55.7730617" lon="49.1395817"><time>2022-10-29T11:03:08.057</time></trkpt><trkpt lat="55.7731083" lon="49.1396067"><time>2022-10-29T11:03:09.057</time></trkpt><trkpt lat="55.7731883" lon="49.1396783"><time>2022-10-29T11:03:11.057</time></trkpt><trkpt lat="55.7732217" lon="49.1397350"><time>2022-10-29T11:03:12.060</time></trkpt><trkpt lat="55.7732583" lon="49.1397867"><time>2022-10-29T11:03:13.057</time></trkpt><trkpt lat="55.7733017" lon="49.1398333"><time>2022-10-29T11:03:14.057</time></trkpt><trkpt lat="55.7733433" lon="49.1398800"><time>2022-10-29T11:03:15.057</time></trkpt><trkpt lat="55.7733850" lon="49.1399317"><time>2022-10-29T11:03:16.053</time></trkpt><trkpt lat="55.7734200" lon="49.1399833"><time>2022-10-29T11:03:17.057</time></trkpt><trkpt lat="55.7734567" lon="49.1400417"><time>2022-10-29T11:03:18.057</time></trkpt><trkpt lat="55.7735000" lon="49.1400900"><time>2022-10-29T11:03:19.060</time></trkpt><trkpt lat="55.7735433" lon="49.1401367"><time>2022-10-29T11:03:20.057</time></trkpt><trkpt lat="55.7735850" lon="49.1401933"><time>2022-10-29T11:03:21.053</time></trkpt><trkpt lat="55.7736200" lon="49.1402567"><time>2022-10-29T11:03:22.057</time></trkpt><trkpt lat="55.7736600" lon="49.1403250"><time>2022-10-29T11:03:23.057</time></trkpt><trkpt lat="55.7737033" lon="49.1403883"><time>2022-10-29T11:03:24.057</time></trkpt><trkpt lat="55.7737533" lon="49.1404433"><time>2022-10-29T11:03:25.057</time></trkpt><trkpt lat="55.7738033" lon="49.1405033"><time>2022-10-29T11:03:26.057</time></trkpt><trkpt lat="55.7738400" lon="49.1405750"><time>2022-10-29T11:03:27.057</time></trkpt><trkpt lat="55.7738783" lon="49.1406450"><time>2022-10-29T11:03:28.053</time></trkpt><trkpt lat="55.7739183" lon="49.1407050"><time>2022-10-29T11:03:29.057</time></trkpt><trkpt lat="55.7739667" lon="49.1407567"><time>2022-10-29T11:03:30.057</time></trkpt><trkpt lat="55.7740117" lon="49.1408067"><time>2022-10-29T11:03:31.057</time></trkpt><trkpt lat="55.7740550" lon="49.1408583"><time>2022-10-29T11:03:32.057</time></trkpt><trkpt lat="55.7740933" lon="49.1409117"><time>2022-10-29T11:03:33.057</time></trkpt><trkpt lat="55.7741583" lon="49.1410100"><time>2022-10-29T11:03:35.070</time></trkpt><trkpt lat="55.7741583" lon="49.1410117"><time>2022-10-29T11:03:36.047</time></trkpt><trkpt lat="55.7741700" lon="49.1411083"><time>2022-10-29T11:03:38.547</time></trkpt><trkpt lat="55.7741983" lon="49.1412217"><time>2022-10-29T11:03:41.047</time></trkpt><trkpt lat="55.7742600" lon="49.1413400"><time>2022-10-29T11:03:43.047</time></trkpt><trkpt lat="55.7743100" lon="49.1413983"><time>2022-10-29T11:03:44.047</time></trkpt><trkpt lat="55.7743567" lon="49.1414550"><time>2022-10-29T11:03:45.047</time></trkpt><trkpt lat="55.7743917" lon="49.1415050"><time>2022-10-29T11:03:46.050</time></trkpt><trkpt lat="55.7744317" lon="49.1415517"><time>2022-10-29T11:03:47.047</time></trkpt><trkpt lat="55.7745050" lon="49.1416450"><time>2022-10-29T11:03:49.047</time></trkpt><trkpt lat="55.7745650" lon="49.1417283"><time>2022-10-29T11:03:51.047</time></trkpt><trkpt lat="55.7746217" lon="49.1418283"><time>2022-10-29T11:03:53.047</time></trkpt><trkpt lat="55.7746533" lon="49.1418867"><time>2022-10-29T11:03:54.043</time></trkpt><trkpt lat="55.7747233" lon="49.1419883"><time>2022-10-29T11:03:56.050</time></trkpt><trkpt lat="55.7747617" lon="49.1420367"><time>2022-10-29T11:03:57.047</time></trkpt><trkpt lat="55.7747983" lon="49.1420833"><time>2022-10-29T11:03:58.047</time></trkpt><trkpt lat="55.7748700" lon="49.1421683"><time>2022-10-29T11:04:00.060</time></trkpt><trkpt lat="55.7748700" lon="49.1421667"><time>2022-10-29T11:04:01.047</time></trkpt><trkpt lat="55.7749083" lon="49.1422400"><time>2022-10-29T11:04:03.547</time></trkpt><trkpt lat="55.7749400" lon="49.1423083"><time>2022-10-29T11:04:05.053</time></trkpt><trkpt lat="55.7749900" lon="49.1424350"><time>2022-10-29T11:04:07.047</time></trkpt><trkpt lat="55.7750633" lon="49.1425400"><time>2022-10-29T11:04:09.050</time></trkpt><trkpt lat="55.7751050" lon="49.1425867"><time>2022-10-29T11:04:10.043</time></trkpt><trkpt lat="55.7751833" lon="49.1426600"><time>2022-10-29T11:04:11.043</time></trkpt><trkpt lat="55.7752400" lon="49.1427500"><time>2022-10-29T11:04:12.047</time></trkpt><trkpt lat="55.7752933" lon="49.1428233"><time>2022-10-29T11:04:13.063</time></trkpt><trkpt lat="55.7752917" lon="49.1428233"><time>2022-10-29T11:04:14.033</time></trkpt><trkpt lat="55.7752550" lon="49.1428900"><time>2022-10-29T11:04:16.047</time></trkpt><trkpt lat="55.7751833" lon="49.1429733"><time>2022-10-29T11:04:17.047</time></trkpt><trkpt lat="55.7751450" lon="49.1430333"><time>2022-10-29T11:04:18.050</time></trkpt><trkpt lat="55.7750967" lon="49.1431450"><time>2022-10-29T11:04:20.047</time></trkpt><trkpt lat="55.7751050" lon="49.1432750"><time>2022-10-29T11:04:22.047</time></trkpt><trkpt lat="55.7507550" lon="49.1318850"><time>2022-10-29T11:04:23.057</time></trkpt><trkpt lat="55.7751350" lon="49.1433417"><time>2022-10-29T11:04:23.103</time></trkpt><trkpt lat="55.7751783" lon="49.1434267"><time>2022-10-29T11:04:25.057</time></trkpt><trkpt lat="55.7751783" lon="49.1434267"><time>2022-10-29T11:04:26.043</time></trkpt><trkpt lat="55.7751933" lon="49.1435050"><time>2022-10-29T11:04:35.047</time></trkpt><trkpt lat="55.7751483" lon="49.1435350"><time>2022-10-29T11:04:59.060</time></trkpt><trkpt lat="55.7750967" lon="49.1435117"><time>2022-10-29T11:05:09.060</time></trkpt><trkpt lat="55.7750483" lon="49.1435167"><time>2022-10-29T11:05:11.057</time></trkpt><trkpt lat="55.7749900" lon="49.1435550"><time>2022-10-29T11:05:13.057</time></trkpt><trkpt lat="55.7749300" lon="49.1436183"><time>2022-10-29T11:05:15.053</time></trkpt><trkpt lat="55.7748817" lon="49.1437050"><time>2022-10-29T11:05:17.057</time></trkpt><trkpt lat="55.7748300" lon="49.1437967"><time>2022-10-29T11:05:19.057</time></trkpt><trkpt lat="55.7747800" lon="49.1438933"><time>2022-10-29T11:05:21.057</time></trkpt><trkpt lat="55.7747400" lon="49.1440067"><time>2022-10-29T11:05:23.050</time></trkpt><trkpt lat="55.7747050" lon="49.1441100"><time>2022-10-29T11:05:25.060</time></trkpt><trkpt lat="55.7746500" lon="49.1442267"><time>2022-10-29T11:05:27.027</time></trkpt><trkpt lat="55.7746250" lon="49.1442967"><time>2022-10-29T11:05:28.057</time></trkpt><trkpt lat="55.7745933" lon="49.1443700"><time>2022-10-29T11:05:29.057</time></trkpt><trkpt lat="55.7745683" lon="49.1444417"><time>2022-10-29T11:05:30.057</time></trkpt><trkpt lat="55.7745167" lon="49.1445483"><time>2022-10-29T11:05:32.047</time></trkpt><trkpt lat="55.7744883" lon="49.1446183"><time>2022-10-29T11:05:33.057</time></trkpt><trkpt lat="55.7744533" lon="49.1446750"><time>2022-10-29T11:05:34.053</time></trkpt><trkpt lat="55.7744150" lon="49.1447167"><time>2022-10-29T11:05:35.053</time></trkpt><trkpt lat="55.7743700" lon="49.1448167"><time>2022-10-29T11:05:37.047</time></trkpt><trkpt lat="55.7743217" lon="49.1449033"><time>2022-10-29T11:05:39.057</time></trkpt><trkpt lat="55.7742800" lon="49.1449933"><time>2022-10-29T11:05:41.057</time></trkpt><trkpt lat="55.7742500" lon="49.1450917"><time>2022-10-29T11:05:43.053</time></trkpt><trkpt lat="55.7742167" lon="49.1451967"><time>2022-10-29T11:05:45.050</time></trkpt><trkpt lat="55.7741833" lon="49.1453017"><time>2022-10-29T11:05:47.050</time></trkpt><trkpt lat="55.7742033" lon="49.1453833"><time>2022-10-29T11:05:51.060</time></trkpt><trkpt lat="55.7742567" lon="49.1454717"><time>2022-10-29T11:05:54.057</time></trkpt><trkpt lat="55.7743117" lon="49.1455717"><time>2022-10-29T11:05:56.057</time></trkpt><trkpt lat="55.7743683" lon="49.1456767"><time>2022-10-29T11:05:58.057</time></trkpt><trkpt lat="55.7744217" lon="49.1457900"><time>2022-10-29T11:06:00.053</time></trkpt><trkpt lat="55.7744567" lon="49.1458467"><time>2022-10-29T11:06:01.057</time></trkpt><trkpt lat="55.7745150" lon="49.1459400"><time>2022-10-29T11:06:03.053</time></trkpt><trkpt lat="55.7745733" lon="49.1460233"><time>2022-10-29T11:06:05.057</time></trkpt><trkpt lat="55.7746200" lon="49.1461100"><time>2022-10-29T11:06:07.057</time></trkpt><trkpt lat="55.7746717" lon="49.1461850"><time>2022-10-29T11:06:09.057</time></trkpt><trkpt lat="55.7747217" lon="49.1462533"><time>2022-10-29T11:06:11.053</time></trkpt><trkpt lat="55.7747733" lon="49.1463217"><time>2022-10-29T11:06:13.057</time></trkpt><trkpt lat="55.7748267" lon="49.1464183"><time>2022-10-29T11:06:15.057</time></trkpt><trkpt lat="55.7748683" lon="49.1465500"><time>2022-10-29T11:06:17.053</time></trkpt><trkpt lat="55.7749017" lon="49.1466467"><time>2022-10-29T11:06:19.053</time></trkpt><trkpt lat="55.7749333" lon="49.1467350"><time>2022-10-29T11:06:21.057</time></trkpt><trkpt lat="55.7749800" lon="49.1467917"><time>2022-10-29T11:06:23.050</time></trkpt><trkpt lat="55.7750417" lon="49.1468283"><time>2022-10-29T11:06:25.053</time></trkpt><trkpt lat="55.7750250" lon="49.1469517"><time>2022-10-29T11:06:28.050</time></trkpt><trkpt lat="55.7750200" lon="49.1470983"><time>2022-10-29T11:06:30.057</time></trkpt><trkpt lat="55.7749883" lon="49.1472267"><time>2022-10-29T11:06:32.057</time></trkpt><trkpt lat="55.7749633" lon="49.1473350"><time>2022-10-29T11:06:34.060</time></trkpt><trkpt lat="55.7749867" lon="49.1474117"><time>2022-10-29T11:06:37.057</time></trkpt><trkpt lat="55.7750283" lon="49.1474617"><time>2022-10-29T11:06:49.057</time></trkpt><trkpt lat="55.7750133" lon="49.1475667"><time>2022-10-29T11:06:53.057</time></trkpt><trkpt lat="55.7749683" lon="49.1476433"><time>2022-10-29T11:06:55.057</time></trkpt><trkpt lat="55.7749117" lon="49.1477450"><time>2022-10-29T11:06:57.057</time></trkpt><trkpt lat="55.7748633" lon="49.1478533"><time>2022-10-29T11:06:59.060</time></trkpt><trkpt lat="55.7748217" lon="49.1479667"><time>2022-10-29T11:07:01.060</time></trkpt><trkpt lat="55.7747683" lon="49.1480750"><time>2022-10-29T11:07:03.060</time></trkpt><trkpt lat="55.7747167" lon="49.1481817"><time>2022-10-29T11:07:05.060</time></trkpt><trkpt lat="55.7746667" lon="49.1482783"><time>2022-10-29T11:07:07.060</time></trkpt><trkpt lat="55.7746217" lon="49.1483817"><time>2022-10-29T11:07:09.060</time></trkpt><trkpt lat="55.7745850" lon="49.1484967"><time>2022-10-29T11:07:11.057</time></trkpt><trkpt lat="55.7745600" lon="49.1486217"><time>2022-10-29T11:07:13.060</time></trkpt><trkpt lat="55.7745450" lon="49.1487517"><time>2022-10-29T11:07:15.060</time></trkpt><trkpt lat="55.7745283" lon="49.1488950"><time>2022-10-29T11:07:17.060</time></trkpt><trkpt lat="55.7745133" lon="49.1490433"><time>2022-10-29T11:07:19.060</time></trkpt><trkpt lat="55.7744983" lon="49.1491933"><time>2022-10-29T11:07:21.063</time></trkpt><trkpt lat="55.7744817" lon="49.1493467"><time>2022-10-29T11:07:23.060</time></trkpt><trkpt lat="55.7744667" lon="49.1495000"><time>2022-10-29T11:07:25.067</time></trkpt><trkpt lat="55.7744533" lon="49.1496517"><time>2022-10-29T11:07:27.057</time></trkpt><trkpt lat="55.7744367" lon="49.1497967"><time>2022-10-29T11:07:29.057</time></trkpt><trkpt lat="55.7743983" lon="49.1499167"><time>2022-10-29T11:07:31.057</time></trkpt><trkpt lat="55.7743450" lon="49.1500400"><time>2022-10-29T11:07:33.030</time></trkpt><trkpt lat="55.7743150" lon="49.1501033"><time>2022-10-29T11:07:34.050</time></trkpt><trkpt lat="55.7742867" lon="49.1501733"><time>2022-10-29T11:07:35.053</time></trkpt><trkpt lat="55.7742567" lon="49.1502350"><time>2022-10-29T11:07:36.063</time></trkpt><trkpt lat="55.7742483" lon="49.1502383"><time>2022-10-29T11:07:37.460</time></trkpt><trkpt lat="55.7741983" lon="49.1502900"><time>2022-10-29T11:07:38.523</time></trkpt><trkpt lat="55.7741517" lon="49.1503350"><time>2022-10-29T11:07:39.523</time></trkpt><trkpt lat="55.7740850" lon="49.1504417"><time>2022-10-29T11:07:41.043</time></trkpt><trkpt lat="55.7740367" lon="49.1505783"><time>2022-10-29T11:07:42.047</time></trkpt><trkpt lat="55.7739967" lon="49.1506900"><time>2022-10-29T11:07:43.047</time></trkpt><trkpt lat="55.7739667" lon="49.1507733"><time>2022-10-29T11:07:44.043</time></trkpt><trkpt lat="55.7739333" lon="49.1508417"><time>2022-10-29T11:07:45.037</time></trkpt><trkpt lat="55.7739033" lon="49.1509100"><time>2022-10-29T11:07:46.043</time></trkpt><trkpt lat="55.7738767" lon="49.1509850"><time>2022-10-29T11:07:47.023</time></trkpt><trkpt lat="55.7738450" lon="49.1510600"><time>2022-10-29T11:07:48.040</time></trkpt><trkpt lat="55.7738167" lon="49.1511250"><time>2022-10-29T11:07:49.047</time></trkpt><trkpt lat="55.7737533" lon="49.1512233"><time>2022-10-29T11:07:51.047</time></trkpt><trkpt lat="55.7736983" lon="49.1513000"><time>2022-10-29T11:07:53.047</time></trkpt><trkpt lat="55.7736400" lon="49.1514050"><time>2022-10-29T11:07:55.047</time></trkpt><trkpt lat="55.7735883" lon="49.1515117"><time>2022-10-29T11:07:57.047</time></trkpt><trkpt lat="55.7735367" lon="49.1516333"><time>2022-10-29T11:07:59.047</time></trkpt><trkpt lat="55.7734867" lon="49.1517450"><time>2022-10-29T11:08:01.053</time></trkpt><trkpt lat="55.7734783" lon="49.1517500"><time>2022-10-29T11:08:02.450</time></trkpt><trkpt lat="55.7734267" lon="49.1517933"><time>2022-10-29T11:08:04.540</time></trkpt><trkpt lat="55.7733867" lon="49.1518467"><time>2022-10-29T11:08:06.047</time></trkpt><trkpt lat="55.7733517" lon="49.1519333"><time>2022-10-29T11:08:08.050</time></trkpt><trkpt lat="55.7733250" lon="49.1520283"><time>2022-10-29T11:08:09.050</time></trkpt><trkpt lat="55.7732800" lon="49.1521483"><time>2022-10-29T11:08:11.047</time></trkpt><trkpt lat="55.7732467" lon="49.1522417"><time>2022-10-29T11:08:13.047</time></trkpt><trkpt lat="55.7732000" lon="49.1523083"><time>2022-10-29T11:08:15.070</time></trkpt><trkpt lat="55.7731600" lon="49.1523700"><time>2022-10-29T11:08:17.050</time></trkpt><trkpt lat="55.7731333" lon="49.1524417"><time>2022-10-29T11:08:19.050</time></trkpt><trkpt lat="55.7731017" lon="49.1525167"><time>2022-10-29T11:08:21.053</time></trkpt><trkpt lat="55.7730733" lon="49.1525850"><time>2022-10-29T11:08:23.050</time></trkpt><trkpt lat="55.7730433" lon="49.1526683"><time>2022-10-29T11:08:25.057</time></trkpt><trkpt lat="55.7730233" lon="49.1527700"><time>2022-10-29T11:08:27.050</time></trkpt><trkpt lat="55.7729983" lon="49.1528783"><time>2022-10-29T11:08:29.050</time></trkpt><trkpt lat="55.7729700" lon="49.1529717"><time>2022-10-29T11:08:31.060</time></trkpt><trkpt lat="55.7729433" lon="49.1530550"><time>2022-10-29T11:08:33.060</time></trkpt><trkpt lat="55.7729200" lon="49.1531483"><time>2022-10-29T11:08:35.057</time></trkpt><trkpt lat="55.7728983" lon="49.1532367"><time>2022-10-29T11:08:37.057</time></trkpt><trkpt lat="55.7728717" lon="49.1533267"><time>2022-10-29T11:08:39.060</time></trkpt><trkpt lat="55.7728483" lon="49.1534200"><time>2022-10-29T11:08:41.057</time></trkpt><trkpt lat="55.7728300" lon="49.1535200"><time>2022-10-29T11:08:43.073</time></trkpt><trkpt lat="55.7728300" lon="49.1535217"><time>2022-10-29T11:08:44.073</time></trkpt><trkpt lat="55.7728200" lon="49.1536400"><time>2022-10-29T11:08:46.547</time></trkpt><trkpt lat="55.7727917" lon="49.1537100"><time>2022-10-29T11:08:47.547</time></trkpt><trkpt lat="55.7727667" lon="49.1537800"><time>2022-10-29T11:08:49.047</time></trkpt><trkpt lat="55.7727317" lon="49.1538783"><time>2022-10-29T11:08:51.047</time></trkpt><trkpt lat="55.7727150" lon="49.1539700"><time>2022-10-29T11:08:53.050</time></trkpt><trkpt lat="55.7726767" lon="49.1540517"><time>2022-10-29T11:08:56.050</time></trkpt><trkpt lat="55.7726617" lon="49.1541300"><time>2022-10-29T11:08:58.050</time></trkpt><trkpt lat="55.7726350" lon="49.1542433"><time>2022-10-29T11:09:01.047</time></trkpt><trkpt lat="55.7726183" lon="49.1543183"><time>2022-10-29T11:09:03.050</time></trkpt><trkpt lat="55.7726283" lon="49.1544233"><time>2022-10-29T11:09:06.030</time></trkpt><trkpt lat="55.7726683" lon="49.1544650"><time>2022-10-29T11:09:08.047</time></trkpt><trkpt lat="55.7727150" lon="49.1544967"><time>2022-10-29T11:09:10.047</time></trkpt><trkpt lat="55.7727800" lon="49.1544983"><time>2022-10-29T11:09:13.053</time></trkpt><trkpt lat="55.7728433" lon="49.1544667"><time>2022-10-29T11:09:16.057</time></trkpt><trkpt lat="55.7728967" lon="49.1543883"><time>2022-10-29T11:09:18.057</time></trkpt><trkpt lat="55.7729433" lon="49.1543150"><time>2022-10-29T11:09:20.057</time></trkpt><trkpt lat="55.7729950" lon="49.1542350"><time>2022-10-29T11:09:22.053</time></trkpt><trkpt lat="55.7730450" lon="49.1541483"><time>2022-10-29T11:09:24.070</time></trkpt><trkpt lat="55.7730467" lon="49.1541483"><time>2022-10-29T11:09:25.050</time></trkpt><trkpt lat="55.7731017" lon="49.1541300"><time>2022-10-29T11:09:26.537</time></trkpt><trkpt lat="55.7731617" lon="49.1541117"><time>2022-10-29T11:09:28.043</time></trkpt><trkpt lat="55.7732017" lon="49.1540650"><time>2022-10-29T11:09:29.047</time></trkpt><trkpt lat="55.7732367" lon="49.1540017"><time>2022-10-29T11:09:30.047</time></trkpt><trkpt lat="55.7732650" lon="49.1539217"><time>2022-10-29T11:09:31.047</time></trkpt><trkpt lat="55.7733333" lon="49.1538067"><time>2022-10-29T11:09:33.047</time></trkpt><trkpt lat="55.7733733" lon="49.1537417"><time>2022-10-29T11:09:34.047</time></trkpt><trkpt lat="55.7734067" lon="49.1536850"><time>2022-10-29T11:09:35.060</time></trkpt><trkpt lat="55.7734067" lon="49.1536833"><time>2022-10-29T11:09:36.043</time></trkpt><trkpt lat="55.7734417" lon="49.1535900"><time>2022-10-29T11:09:37.043</time></trkpt><trkpt lat="55.7734767" lon="49.1535150"><time>2022-10-29T11:09:38.047</time></trkpt><trkpt lat="55.7735233" lon="49.1534683"><time>2022-10-29T11:09:39.047</time></trkpt><trkpt lat="55.7735650" lon="49.1534183"><time>2022-10-29T11:09:40.047</time></trkpt><trkpt lat="55.7507550" lon="49.1318850"><time>2022-10-29T11:09:42.053</time></trkpt><trkpt lat="55.7736367" lon="49.1533533"><time>2022-10-29T11:09:42.103</time></trkpt><trkpt lat="55.7736933" lon="49.1533850"><time>2022-10-29T11:09:44.057</time></trkpt><trkpt lat="55.7736933" lon="49.1533850"><time>2022-10-29T11:09:45.040</time></trkpt><trkpt lat="55.7737350" lon="49.1534767"><time>2022-10-29T11:09:48.047</time></trkpt><trkpt lat="55.7737717" lon="49.1535567"><time>2022-10-29T11:09:50.050</time></trkpt><trkpt lat="55.7737633" lon="49.1536383"><time>2022-10-29T11:09:52.050</time></trkpt><trkpt lat="55.7737283" lon="49.1537083"><time>2022-10-29T11:09:54.043</time></trkpt><trkpt lat="55.7737050" lon="49.1538283"><time>2022-10-29T11:09:56.047</time></trkpt><trkpt lat="55.7736933" lon="49.1539633"><time>2022-10-29T11:09:58.047</time></trkpt><trkpt lat="55.7736850" lon="49.1541033"><time>2022-10-29T11:10:00.050</time></trkpt><trkpt lat="55.7736633" lon="49.1542433"><time>2022-10-29T11:10:02.047</time></trkpt><trkpt lat="55.7736367" lon="49.1543983"><time>2022-10-29T11:10:04.050</time></trkpt><trkpt lat="55.7736283" lon="49.1544883"><time>2022-10-29T11:10:05.053</time></trkpt><trkpt lat="55.7736233" lon="49.1545767"><time>2022-10-29T11:10:06.050</time></trkpt><trkpt lat="55.7736183" lon="49.1546683"><time>2022-10-29T11:10:07.053</time></trkpt><trkpt lat="55.7736100" lon="49.1547617"><time>2022-10-29T11:10:08.047</time></trkpt><trkpt lat="55.7735983" lon="49.1548550"><time>2022-10-29T11:10:09.050</time></trkpt><trkpt lat="55.7735867" lon="49.1549533"><time>2022-10-29T11:10:10.050</time></trkpt><trkpt lat="55.7735733" lon="49.1550483"><time>2022-10-29T11:10:11.047</time></trkpt><trkpt lat="55.7735617" lon="49.1551400"><time>2022-10-29T11:10:12.047</time></trkpt><trkpt lat="55.7735517" lon="49.1552250"><time>2022-10-29T11:10:13.060</time></trkpt><trkpt lat="55.7735400" lon="49.1553050"><time>2022-10-29T11:10:14.057</time></trkpt><trkpt lat="55.7735217" lon="49.1553933"><time>2022-10-29T11:10:15.057</time></trkpt><trkpt lat="55.7735083" lon="49.1554800"><time>2022-10-29T11:10:16.057</time></trkpt><trkpt lat="55.7734950" lon="49.1555700"><time>2022-10-29T11:10:17.057</time></trkpt><trkpt lat="55.7734900" lon="49.1556517"><time>2022-10-29T11:10:18.057</time></trkpt><trkpt lat="55.7734833" lon="49.1557367"><time>2022-10-29T11:10:19.060</time></trkpt><trkpt lat="55.7734800" lon="49.1558383"><time>2022-10-29T11:10:20.057</time></trkpt><trkpt lat="55.7734683" lon="49.1559433"><time>2022-10-29T11:10:21.057</time></trkpt><trkpt lat="55.7734583" lon="49.1560250"><time>2022-10-29T11:10:22.050</time></trkpt><trkpt lat="55.7734467" lon="49.1561150"><time>2022-10-29T11:10:23.060</time></trkpt><trkpt lat="55.7734350" lon="49.1562133"><time>2022-10-29T11:10:24.057</time></trkpt><trkpt lat="55.7734200" lon="49.1563833"><time>2022-10-29T11:10:26.057</time></trkpt><trkpt lat="55.7734167" lon="49.1565433"><time>2022-10-29T11:10:28.057</time></trkpt><trkpt lat="55.7734300" lon="49.1566283"><time>2022-10-29T11:10:29.057</time></trkpt><trkpt lat="55.7734450" lon="49.1567083"><time>2022-10-29T11:10:30.057</time></trkpt><trkpt lat="55.7734650" lon="49.1567900"><time>2022-10-29T11:10:31.057</time></trkpt><trkpt lat="55.7734917" lon="49.1568783"><time>2022-10-29T11:10:32.057</time></trkpt><trkpt lat="55.7735200" lon="49.1569617"><time>2022-10-29T11:10:33.057</time></trkpt><trkpt lat="55.7735433" lon="49.1570417"><time>2022-10-29T11:10:34.057</time></trkpt><trkpt lat="55.7735683" lon="49.1571267"><time>2022-10-29T11:10:35.057</time></trkpt><trkpt lat="55.7735967" lon="49.1572183"><time>2022-10-29T11:10:36.057</time></trkpt><trkpt lat="55.7736317" lon="49.1573117"><time>2022-10-29T11:10:37.060</time></trkpt><trkpt lat="55.7736617" lon="49.1574067"><time>2022-10-29T11:10:38.057</time></trkpt><trkpt lat="55.7736967" lon="49.1575000"><time>2022-10-29T11:10:39.057</time></trkpt><trkpt lat="55.7737233" lon="49.1575983"><time>2022-10-29T11:10:40.057</time></trkpt><trkpt lat="55.7737517" lon="49.1576867"><time>2022-10-29T11:10:41.057</time></trkpt><trkpt lat="55.7737817" lon="49.1577783"><time>2022-10-29T11:10:42.057</time></trkpt><trkpt lat="55.7738083" lon="49.1578783"><time>2022-10-29T11:10:43.043</time></trkpt><trkpt lat="55.7738267" lon="49.1579783"><time>2022-10-29T11:10:44.050</time></trkpt><trkpt lat="55.7738383" lon="49.1580717"><time>2022-10-29T11:10:45.057</time></trkpt><trkpt lat="55.7738367" lon="49.1581567"><time>2022-10-29T11:10:46.057</time></trkpt><trkpt lat="55.7738433" lon="49.1582500"><time>2022-10-29T11:10:47.057</time></trkpt><trkpt lat="55.7738517" lon="49.1583533"><time>2022-10-29T11:10:48.057</time></trkpt><trkpt lat="55.7738550" lon="49.1584550"><time>2022-10-29T11:10:49.043</time></trkpt><trkpt lat="55.7738633" lon="49.1585550"><time>2022-10-29T11:10:50.053</time></trkpt><trkpt lat="55.7738700" lon="49.1586550"><time>2022-10-29T11:10:51.060</time></trkpt><trkpt lat="55.7738750" lon="49.1587583"><time>2022-10-29T11:10:52.060</time></trkpt><trkpt lat="55.7738667" lon="49.1588567"><time>2022-10-29T11:10:53.057</time></trkpt><trkpt lat="55.7738683" lon="49.1589383"><time>2022-10-29T11:10:54.057</time></trkpt><trkpt lat="55.7738700" lon="49.1590333"><time>2022-10-29T11:10:55.060</time></trkpt><trkpt lat="55.7738833" lon="49.1591950"><time>2022-10-29T11:10:57.060</time></trkpt><trkpt lat="55.7738817" lon="49.1593300"><time>2022-10-29T11:10:59.060</time></trkpt><trkpt lat="55.7738350" lon="49.1594033"><time>2022-10-29T11:11:01.060</time></trkpt><trkpt lat="55.7737800" lon="49.1594833"><time>2022-10-29T11:11:03.060</time></trkpt><trkpt lat="55.7737167" lon="49.1595567"><time>2022-10-29T11:11:05.057</time></trkpt><trkpt lat="55.7736517" lon="49.1596150"><time>2022-10-29T11:11:07.060</time></trkpt><trkpt lat="55.7736117" lon="49.1596933"><time>2022-10-29T11:11:09.060</time></trkpt><trkpt lat="55.7736150" lon="49.1598183"><time>2022-10-29T11:11:11.057</time></trkpt><trkpt lat="55.7736300" lon="49.1598983"><time>2022-10-29T11:11:12.057</time></trkpt><trkpt lat="55.7736500" lon="49.1599867"><time>2022-10-29T11:11:13.057</time></trkpt><trkpt lat="55.7736700" lon="49.1600833"><time>2022-10-29T11:11:14.057</time></trkpt><trkpt lat="55.7736933" lon="49.1601800"><time>2022-10-29T11:11:15.060</time></trkpt><trkpt lat="55.7737133" lon="49.1602817"><time>2022-10-29T11:11:16.057</time></trkpt><trkpt lat="55.7737350" lon="49.1603733"><time>2022-10-29T11:11:17.057</time></trkpt><trkpt lat="55.7737517" lon="49.1604700"><time>2022-10-29T11:11:18.060</time></trkpt><trkpt lat="55.7737650" lon="49.1605700"><time>2022-10-29T11:11:19.057</time></trkpt><trkpt lat="55.7737800" lon="49.1606633"><time>2022-10-29T11:11:20.057</time></trkpt><trkpt lat="55.7737883" lon="49.1607500"><time>2022-10-29T11:11:21.060</time></trkpt><trkpt lat="55.7737917" lon="49.1608350"><time>2022-10-29T11:11:22.047</time></trkpt><trkpt lat="55.7738067" lon="49.1609267"><time>2022-10-29T11:11:23.047</time></trkpt><trkpt lat="55.7738100" lon="49.1610117"><time>2022-10-29T11:11:24.050</time></trkpt><trkpt lat="55.7738283" lon="49.1611083"><time>2022-10-29T11:11:25.053</time></trkpt><trkpt lat="55.7738533" lon="49.1612050"><time>2022-10-29T11:11:26.050</time></trkpt><trkpt lat="55.7738717" lon="49.1613117"><time>2022-10-29T11:11:27.057</time></trkpt><trkpt lat="55.7738883" lon="49.1614033"><time>2022-10-29T11:11:28.053</time></trkpt><trkpt lat="55.7739083" lon="49.1615083"><time>2022-10-29T11:11:29.053</time></trkpt><trkpt lat="55.7739267" lon="49.1616133"><time>2022-10-29T11:11:30.060</time></trkpt><trkpt lat="55.7739383" lon="49.1617233"><time>2022-10-29T11:11:31.047</time></trkpt><trkpt lat="55.7739550" lon="49.1618200"><time>2022-10-29T11:11:32.057</time></trkpt><trkpt lat="55.7739767" lon="49.1619217"><time>2022-10-29T11:11:33.060</time></trkpt><trkpt lat="55.7739900" lon="49.1620100"><time>2022-10-29T11:11:34.060</time></trkpt><trkpt lat="55.7740050" lon="49.1621017"><time>2022-10-29T11:11:35.017</time></trkpt><trkpt lat="55.7740233" lon="49.1621917"><time>2022-10-29T11:11:36.030</time></trkpt><trkpt lat="55.7740417" lon="49.1622917"><time>2022-10-29T11:11:37.053</time></trkpt><trkpt lat="55.7740567" lon="49.1623733"><time>2022-10-29T11:11:38.057</time></trkpt><trkpt lat="55.7740783" lon="49.1625100"><time>2022-10-29T11:11:40.070</time></trkpt><trkpt lat="55.7740750" lon="49.1625117"><time>2022-10-29T11:11:41.543</time></trkpt><trkpt lat="55.7740250" lon="49.1625650"><time>2022-10-29T11:11:43.547</time></trkpt><trkpt lat="55.7739483" lon="49.1626183"><time>2022-10-29T11:11:45.043</time></trkpt><trkpt lat="55.7738483" lon="49.1626817"><time>2022-10-29T11:11:47.043</time></trkpt><trkpt lat="55.7737800" lon="49.1627333"><time>2022-10-29T11:11:48.037</time></trkpt><trkpt lat="55.7737183" lon="49.1627633"><time>2022-10-29T11:11:49.050</time></trkpt><trkpt lat="55.7736667" lon="49.1628100"><time>2022-10-29T11:11:50.047</time></trkpt><trkpt lat="55.7736133" lon="49.1628550"><time>2022-10-29T11:11:51.047</time></trkpt><trkpt lat="55.7735717" lon="49.1628983"><time>2022-10-29T11:11:52.047</time></trkpt><trkpt lat="55.7734900" lon="49.1629667"><time>2022-10-29T11:11:54.053</time></trkpt><trkpt lat="55.7734450" lon="49.1630033"><time>2022-10-29T11:11:55.047</time></trkpt><trkpt lat="55.7734017" lon="49.1630433"><time>2022-10-29T11:11:56.050</time></trkpt><trkpt lat="55.7733383" lon="49.1630783"><time>2022-10-29T11:11:58.047</time></trkpt><trkpt lat="55.7733000" lon="49.1631200"><time>2022-10-29T11:11:59.047</time></trkpt><trkpt lat="55.7732617" lon="49.1631700"><time>2022-10-29T11:12:00.050</time></trkpt><trkpt lat="55.7732167" lon="49.1632767"><time>2022-10-29T11:12:02.053</time></trkpt><trkpt lat="55.7731883" lon="49.1633900"><time>2022-10-29T11:12:04.047</time></trkpt><trkpt lat="55.7731567" lon="49.1634850"><time>2022-10-29T11:12:06.050</time></trkpt><trkpt lat="55.7731583" lon="49.1635833"><time>2022-10-29T11:12:08.063</time></trkpt><trkpt lat="55.7731583" lon="49.1635850"><time>2022-10-29T11:12:09.047</time></trkpt><trkpt lat="55.7731867" lon="49.1637033"><time>2022-10-29T11:12:11.043</time></trkpt><trkpt lat="55.7731983" lon="49.1638350"><time>2022-10-29T11:12:13.043</time></trkpt><trkpt lat="55.7732033" lon="49.1639150"><time>2022-10-29T11:12:14.043</time></trkpt><trkpt lat="55.7732083" lon="49.1640533"><time>2022-10-29T11:12:16.047</time></trkpt><trkpt lat="55.7731933" lon="49.1641333"><time>2022-10-29T11:12:17.043</time></trkpt><trkpt lat="55.7731900" lon="49.1642300"><time>2022-10-29T11:12:19.050</time></trkpt><trkpt lat="55.7731983" lon="49.1643233"><time>2022-10-29T11:12:21.057</time></trkpt><trkpt lat="55.7731967" lon="49.1643250"><time>2022-10-29T11:12:22.543</time></trkpt><trkpt lat="55.7731967" lon="49.1644350"><time>2022-10-29T11:12:24.543</time></trkpt><trkpt lat="55.7732000" lon="49.1645167"><time>2022-10-29T11:12:26.043</time></trkpt><trkpt lat="55.7732217" lon="49.1646517"><time>2022-10-29T11:12:28.047</time></trkpt><trkpt lat="55.7732400" lon="49.1647800"><time>2022-10-29T11:12:30.037</time></trkpt><trkpt lat="55.7732483" lon="49.1648617"><time>2022-10-29T11:12:32.047</time></trkpt><trkpt lat="55.7732367" lon="49.1649550"><time>2022-10-29T11:12:35.050</time></trkpt><trkpt lat="55.7507550" lon="49.1318850"><time>2022-10-29T11:12:38.057</time></trkpt><trkpt lat="55.7732167" lon="49.1650433"><time>2022-10-29T11:12:38.110</time></trkpt><trkpt lat="55.7731933" lon="49.1651167"><time>2022-10-29T11:12:41.057</time></trkpt><trkpt lat="55.7731917" lon="49.1651200"><time>2022-10-29T11:12:43.040</time></trkpt><trkpt lat="55.7731467" lon="49.1651217"><time>2022-10-29T11:12:47.027</time></trkpt><trkpt lat="55.7731117" lon="49.1650667"><time>2022-10-29T11:12:52.047</time></trkpt><trkpt lat="55.7730867" lon="49.1649917"><time>2022-10-29T11:12:54.047</time></trkpt><trkpt lat="55.7730617" lon="49.1648867"><time>2022-10-29T11:12:56.047</time></trkpt><trkpt lat="55.7730300" lon="49.1647600"><time>2022-10-29T11:12:58.050</time></trkpt><trkpt lat="55.7729983" lon="49.1646267"><time>2022-10-29T11:13:00.047</time></trkpt><trkpt lat="55.7729517" lon="49.1645350"><time>2022-10-29T11:13:02.050</time></trkpt><trkpt lat="55.7729000" lon="49.1644600"><time>2022-10-29T11:13:04.050</time></trkpt><trkpt lat="55.7728517" lon="49.1643783"><time>2022-10-29T11:13:06.047</time></trkpt><trkpt lat="55.7727850" lon="49.1643000"><time>2022-10-29T11:13:08.047</time></trkpt><trkpt lat="55.7727300" lon="49.1642817"><time>2022-10-29T11:13:14.057</time></trkpt><trkpt lat="55.7726767" lon="49.1641433"><time>2022-10-29T11:13:57.057</time></trkpt><trkpt lat="55.7726133" lon="49.1641067"><time>2022-10-29T11:14:00.057</time></trkpt><trkpt lat="55.7725600" lon="49.1640933"><time>2022-10-29T11:14:02.057</time></trkpt><trkpt lat="55.7724950" lon="49.1641050"><time>2022-10-29T11:14:04.057</time></trkpt><trkpt lat="55.7724333" lon="49.1641133"><time>2022-10-29T11:14:06.057</time></trkpt><trkpt lat="55.7723717" lon="49.1641317"><time>2022-10-29T11:14:08.057</time></trkpt><trkpt lat="55.7723067" lon="49.1641917"><time>2022-10-29T11:14:10.057</time></trkpt><trkpt lat="55.7722350" lon="49.1642650"><time>2022-10-29T11:14:12.060</time></trkpt><trkpt lat="55.7721667" lon="49.1643250"><time>2022-10-29T11:14:14.057</time></trkpt><trkpt lat="55.7720933" lon="49.1643800"><time>2022-10-29T11:14:16.057</time></trkpt><trkpt lat="55.7720083" lon="49.1644550"><time>2022-10-29T11:14:18.047</time></trkpt><trkpt lat="55.7719600" lon="49.1645017"><time>2022-10-29T11:14:19.057</time></trkpt><trkpt lat="55.7719067" lon="49.1645517"><time>2022-10-29T11:14:20.053</time></trkpt><trkpt lat="55.7718567" lon="49.1645983"><time>2022-10-29T11:14:21.060</time></trkpt><trkpt lat="55.7718083" lon="49.1646450"><time>2022-10-29T11:14:22.057</time></trkpt><trkpt lat="55.7717633" lon="49.1646900"><time>2022-10-29T11:14:23.060</time></trkpt><trkpt lat="55.7717150" lon="49.1647300"><time>2022-10-29T11:14:24.060</time></trkpt><trkpt lat="55.7716283" lon="49.1647700"><time>2022-10-29T11:14:26.057</time></trkpt><trkpt lat="55.7715850" lon="49.1647967"><time>2022-10-29T11:14:27.060</time></trkpt><trkpt lat="55.7715400" lon="49.1648267"><time>2022-10-29T11:14:28.063</time></trkpt><trkpt lat="55.7714967" lon="49.1648650"><time>2022-10-29T11:14:29.060</time></trkpt><trkpt lat="55.7714500" lon="49.1649017"><time>2022-10-29T11:14:30.057</time></trkpt><trkpt lat="55.7714083" lon="49.1649450"><time>2022-10-29T11:14:31.060</time></trkpt><trkpt lat="55.7713667" lon="49.1649917"><time>2022-10-29T11:14:32.060</time></trkpt><trkpt lat="55.7713233" lon="49.1650433"><time>2022-10-29T11:14:33.057</time></trkpt><trkpt lat="55.7712433" lon="49.1651317"><time>2022-10-29T11:14:35.057</time></trkpt><trkpt lat="55.7711900" lon="49.1651917"><time>2022-10-29T11:14:36.053</time></trkpt><trkpt lat="55.7711400" lon="49.1652367"><time>2022-10-29T11:14:37.057</time></trkpt><trkpt lat="55.7710950" lon="49.1652867"><time>2022-10-29T11:14:38.057</time></trkpt><trkpt lat="55.7710533" lon="49.1653400"><time>2022-10-29T11:14:39.057</time></trkpt><trkpt lat="55.7710050" lon="49.1654033"><time>2022-10-29T11:14:40.060</time></trkpt><trkpt lat="55.7709600" lon="49.1654450"><time>2022-10-29T11:14:41.060</time></trkpt><trkpt lat="55.7709150" lon="49.1654850"><time>2022-10-29T11:14:42.063</time></trkpt><trkpt lat="55.7708750" lon="49.1655217"><time>2022-10-29T11:14:43.063</time></trkpt><trkpt lat="55.7707950" lon="49.1655850"><time>2022-10-29T11:14:45.060</time></trkpt><trkpt lat="55.7707433" lon="49.1656333"><time>2022-10-29T11:14:46.063</time></trkpt><trkpt lat="55.7706983" lon="49.1656633"><time>2022-10-29T11:14:47.060</time></trkpt><trkpt lat="55.7706500" lon="49.1656917"><time>2022-10-29T11:14:48.057</time></trkpt><trkpt lat="55.7706000" lon="49.1657250"><time>2022-10-29T11:14:49.060</time></trkpt><trkpt lat="55.7705483" lon="49.1657600"><time>2022-10-29T11:14:50.057</time></trkpt><trkpt lat="55.7704900" lon="49.1658000"><time>2022-10-29T11:14:51.057</time></trkpt><trkpt lat="55.7704167" lon="49.1657567"><time>2022-10-29T11:14:53.057</time></trkpt><trkpt lat="55.7703650" lon="49.1657283"><time>2022-10-29T11:14:54.060</time></trkpt><trkpt lat="55.7703100" lon="49.1656883"><time>2022-10-29T11:14:55.057</time></trkpt><trkpt lat="55.7702583" lon="49.1656583"><time>2022-10-29T11:14:56.057</time></trkpt><trkpt lat="55.7701950" lon="49.1656300"><time>2022-10-29T11:14:57.057</time></trkpt><trkpt lat="55.7701433" lon="49.1656050"><time>2022-10-29T11:14:58.057</time></trkpt><trkpt lat="55.7700783" lon="49.1655617"><time>2022-10-29T11:14:59.057</time></trkpt><trkpt lat="55.7700233" lon="49.1655200"><time>2022-10-29T11:15:00.060</time></trkpt><trkpt lat="55.7699667" lon="49.1654900"><time>2022-10-29T11:15:01.053</time></trkpt><trkpt lat="55.7699183" lon="49.1654400"><time>2022-10-29T11:15:02.057</time></trkpt><trkpt lat="55.7698700" lon="49.1653883"><time>2022-10-29T11:15:03.037</time></trkpt><trkpt lat="55.7698300" lon="49.1653333"><time>2022-10-29T11:15:04.063</time></trkpt><trkpt lat="55.7697900" lon="49.1652867"><time>2022-10-29T11:15:05.060</time></trkpt><trkpt lat="55.7697417" lon="49.1652367"><time>2022-10-29T11:15:06.057</time></trkpt><trkpt lat="55.7696967" lon="49.1651867"><time>2022-10-29T11:15:07.053</time></trkpt><trkpt lat="55.7696450" lon="49.1651417"><time>2022-10-29T11:15:08.053</time></trkpt><trkpt lat="55.7695900" lon="49.1651183"><time>2022-10-29T11:15:09.027</time></trkpt><trkpt lat="55.7695400" lon="49.1650917"><time>2022-10-29T11:15:10.070</time></trkpt><trkpt lat="55.7694867" lon="49.1650483"><time>2022-10-29T11:15:11.017</time></trkpt><trkpt lat="55.7694450" lon="49.1649983"><time>2022-10-29T11:15:12.023</time></trkpt><trkpt lat="55.7693767" lon="49.1649350"><time>2022-10-29T11:15:14.020</time></trkpt><trkpt lat="55.7693100" lon="49.1648350"><time>2022-10-29T11:15:16.030</time></trkpt><trkpt lat="55.7692433" lon="49.1647683"><time>2022-10-29T11:15:17.043</time></trkpt><trkpt lat="55.7691900" lon="49.1647317"><time>2022-10-29T11:15:18.043</time></trkpt><trkpt lat="55.7691400" lon="49.1647033"><time>2022-10-29T11:15:19.040</time></trkpt><trkpt lat="55.7690600" lon="49.1646533"><time>2022-10-29T11:15:21.033</time></trkpt><trkpt lat="55.7690067" lon="49.1646267"><time>2022-10-29T11:15:23.020</time></trkpt><trkpt lat="55.7689633" lon="49.1645950"><time>2022-10-29T11:15:25.037</time></trkpt><trkpt lat="55.7688900" lon="49.1645833"><time>2022-10-29T11:15:28.020</time></trkpt><trkpt lat="55.7688067" lon="49.1645483"><time>2022-10-29T11:15:30.023</time></trkpt><trkpt lat="55.7687617" lon="49.1645283"><time>2022-10-29T11:15:31.033</time></trkpt><trkpt lat="55.7687050" lon="49.1645067"><time>2022-10-29T11:15:32.027</time></trkpt><trkpt lat="55.7686550" lon="49.1644850"><time>2022-10-29T11:15:33.007</time></trkpt><trkpt lat="55.7686050" lon="49.1644550"><time>2022-10-29T11:15:34.013</time></trkpt><trkpt lat="55.7685600" lon="49.1644317"><time>2022-10-29T11:15:35.030</time></trkpt><trkpt lat="55.7684900" lon="49.1644150"><time>2022-10-29T11:15:37.037</time></trkpt><trkpt lat="55.7684267" lon="49.1643733"><time>2022-10-29T11:15:39.027</time></trkpt><trkpt lat="55.7683617" lon="49.1643317"><time>2022-10-29T11:15:41.043</time></trkpt><trkpt lat="55.7682850" lon="49.1642933"><time>2022-10-29T11:15:43.023</time></trkpt><trkpt lat="55.7682450" lon="49.1642400"><time>2022-10-29T11:15:44.030</time></trkpt><trkpt lat="55.7681950" lon="49.1641717"><time>2022-10-29T11:15:45.023</time></trkpt><trkpt lat="55.7681233" lon="49.1640533"><time>2022-10-29T11:15:46.040</time></trkpt><trkpt lat="55.7680750" lon="49.1639833"><time>2022-10-29T11:15:47.063</time></trkpt><trkpt lat="55.7680200" lon="49.1638933"><time>2022-10-29T11:15:48.030</time></trkpt><trkpt lat="55.7679867" lon="49.1638050"><time>2022-10-29T11:15:49.030</time></trkpt><trkpt lat="55.7679200" lon="49.1636300"><time>2022-10-29T11:15:51.047</time></trkpt><trkpt lat="55.7679000" lon="49.1635417"><time>2022-10-29T11:15:52.040</time></trkpt><trkpt lat="55.7678617" lon="49.1634150"><time>2022-10-29T11:15:53.017</time></trkpt><trkpt lat="55.7678267" lon="49.1633033"><time>2022-10-29T11:15:55.050</time></trkpt><trkpt lat="55.7677733" lon="49.1631767"><time>2022-10-29T11:15:57.060</time></trkpt><trkpt lat="55.7677067" lon="49.1631417"><time>2022-10-29T11:15:59.057</time></trkpt><trkpt lat="55.7676517" lon="49.1631183"><time>2022-10-29T11:16:00.060</time></trkpt><trkpt lat="55.7675833" lon="49.1630367"><time>2022-10-29T11:16:02.053</time></trkpt><trkpt lat="55.7675283" lon="49.1629700"><time>2022-10-29T11:16:04.060</time></trkpt><trkpt lat="55.7674300" lon="49.1629367"><time>2022-10-29T11:16:06.057</time></trkpt><trkpt lat="55.7673833" lon="49.1629433"><time>2022-10-29T11:16:07.067</time></trkpt><trkpt lat="55.7673383" lon="49.1629700"><time>2022-10-29T11:16:08.063</time></trkpt><trkpt lat="55.7672883" lon="49.1630033"><time>2022-10-29T11:16:09.063</time></trkpt><trkpt lat="55.7672417" lon="49.1630483"><time>2022-10-29T11:16:10.060</time></trkpt><trkpt lat="55.7671950" lon="49.1630933"><time>2022-10-29T11:16:11.060</time></trkpt><trkpt lat="55.7671467" lon="49.1631467"><time>2022-10-29T11:16:12.057</time></trkpt><trkpt lat="55.7670967" lon="49.1631833"><time>2022-10-29T11:16:13.060</time></trkpt><trkpt lat="55.7670483" lon="49.1632250"><time>2022-10-29T11:16:14.037</time></trkpt><trkpt lat="55.7670033" lon="49.1632783"><time>2022-10-29T11:16:15.050</time></trkpt><trkpt lat="55.7669517" lon="49.1633217"><time>2022-10-29T11:16:16.043</time></trkpt><trkpt lat="55.7668950" lon="49.1633500"><time>2022-10-29T11:16:17.057</time></trkpt><trkpt lat="55.7668450" lon="49.1633750"><time>2022-10-29T11:16:18.053</time></trkpt><trkpt lat="55.7667933" lon="49.1634200"><time>2022-10-29T11:16:19.080</time></trkpt><trkpt lat="55.7667917" lon="49.1634217"><time>2022-10-29T11:16:20.573</time></trkpt><trkpt lat="55.7667250" lon="49.1635033"><time>2022-10-29T11:16:22.550</time></trkpt><trkpt lat="55.7666667" lon="49.1635717"><time>2022-10-29T11:16:23.043</time></trkpt><trkpt lat="55.7666250" lon="49.1636117"><time>2022-10-29T11:16:23.537</time></trkpt><trkpt lat="55.7665400" lon="49.1637233"><time>2022-10-29T11:16:25.037</time></trkpt><trkpt lat="55.7664933" lon="49.1637683"><time>2022-10-29T11:16:26.047</time></trkpt><trkpt lat="55.7664417" lon="49.1638483"><time>2022-10-29T11:16:27.043</time></trkpt><trkpt lat="55.7663817" lon="49.1639017"><time>2022-10-29T11:16:28.050</time></trkpt><trkpt lat="55.7663117" lon="49.1639533"><time>2022-10-29T11:16:29.043</time></trkpt><trkpt lat="55.7662583" lon="49.1639967"><time>2022-10-29T11:16:30.047</time></trkpt><trkpt lat="55.7662150" lon="49.1640383"><time>2022-10-29T11:16:31.027</time></trkpt><trkpt lat="55.7661517" lon="49.1641283"><time>2022-10-29T11:16:33.047</time></trkpt><trkpt lat="55.7661267" lon="49.1642100"><time>2022-10-29T11:16:34.047</time></trkpt><trkpt lat="55.7661017" lon="49.1642883"><time>2022-10-29T11:16:35.047</time></trkpt><trkpt lat="55.7660717" lon="49.1644050"><time>2022-10-29T11:16:37.060</time></trkpt><trkpt lat="55.7665400" lon="49.1643433"><time>2022-10-29T11:16:38.043</time></trkpt><trkpt lat="55.7660717" lon="49.1644100"><time>2022-10-29T11:16:38.940</time></trkpt><trkpt lat="55.7660717" lon="49.1644133"><time>2022-10-29T11:16:40.333</time></trkpt><trkpt lat="55.7660533" lon="49.1645550"><time>2022-10-29T11:16:42.053</time></trkpt><trkpt lat="55.7660283" lon="49.1646617"><time>2022-10-29T11:16:43.050</time></trkpt><trkpt lat="55.7660183" lon="49.1647433"><time>2022-10-29T11:16:44.047</time></trkpt><trkpt lat="55.7660167" lon="49.1648550"><time>2022-10-29T11:16:46.043</time></trkpt><trkpt lat="55.7659650" lon="49.1648983"><time>2022-10-29T11:16:51.063</time></trkpt><trkpt lat="55.7659117" lon="49.1648417"><time>2022-10-29T11:16:55.040</time></trkpt><trkpt lat="55.7658683" lon="49.1648167"><time>2022-10-29T11:16:57.047</time></trkpt><trkpt lat="55.7658217" lon="49.1648083"><time>2022-10-29T11:16:59.047</time></trkpt><trkpt lat="55.7657667" lon="49.1648100"><time>2022-10-29T11:17:02.053</time></trkpt><trkpt lat="55.7657067" lon="49.1648150"><time>2022-10-29T11:17:05.020</time></trkpt><trkpt lat="55.7657067" lon="49.1648150"><time>2022-10-29T11:17:06.487</time></trkpt><trkpt lat="55.7656733" lon="49.1648967"><time>2022-10-29T11:17:10.043</time></trkpt><trkpt lat="55.7656433" lon="49.1649817"><time>2022-10-29T11:17:13.047</time></trkpt><trkpt lat="55.7656100" lon="49.1650633"><time>2022-10-29T11:17:17.040</time></trkpt><trkpt lat="55.7655783" lon="49.1651300"><time>2022-10-29T11:17:22.047</time></trkpt><trkpt lat="55.7655750" lon="49.1652183"><time>2022-10-29T11:17:25.037</time></trkpt><trkpt lat="55.7655800" lon="49.1652983"><time>2022-10-29T11:17:28.047</time></trkpt><trkpt lat="55.7655900" lon="49.1653817"><time>2022-10-29T11:17:32.047</time></trkpt><trkpt lat="55.7655767" lon="49.1654717"><time>2022-10-29T11:17:36.043</time></trkpt><trkpt lat="55.7507550" lon="49.1318850"><time>2022-10-29T11:17:38.047</time></trkpt><trkpt lat="55.7655217" lon="49.1653900"><time>2022-10-29T11:17:38.220</time></trkpt><trkpt lat="55.7655450" lon="49.1654683"><time>2022-10-29T11:17:39.030</time></trkpt><trkpt lat="55.7663950" lon="49.1639950"><time>2022-10-29T11:17:40.997</time></trkpt><trkpt lat="55.7655017" lon="49.1653867"><time>2022-10-29T11:17:44.040</time></trkpt><trkpt lat="55.7654667" lon="49.1654433"><time>2022-10-29T11:17:47.023</time></trkpt><trkpt lat="55.7654750" lon="49.1655233"><time>2022-10-29T11:17:54.040</time></trkpt><trkpt lat="55.7655233" lon="49.1655417"><time>2022-10-29T11:17:56.040</time></trkpt><trkpt lat="55.7655600" lon="49.1654900"><time>2022-10-29T11:17:59.047</time></trkpt><trkpt lat="55.7655333" lon="49.1654133"><time>2022-10-29T11:18:00.047</time></trkpt><trkpt lat="55.7655300" lon="49.1652667"><time>2022-10-29T11:18:04.047</time></trkpt><trkpt lat="55.7655200" lon="49.1651867"><time>2022-10-29T11:18:13.047</time></trkpt><trkpt lat="55.7655133" lon="49.1650867"><time>2022-10-29T11:18:16.047</time></trkpt><trkpt lat="55.7655483" lon="49.1650267"><time>2022-10-29T11:18:21.020</time></trkpt><trkpt lat="55.7656050" lon="49.1650200"><time>2022-10-29T11:18:24.053</time></trkpt><trkpt lat="55.7656217" lon="49.1649350"><time>2022-10-29T11:18:27.040</time></trkpt><trkpt lat="55.7656000" lon="49.1648500"><time>2022-10-29T11:18:30.060</time></trkpt><trkpt lat="55.7655767" lon="49.1649317"><time>2022-10-29T11:18:40.063</time></trkpt><trkpt lat="55.7655200" lon="49.1649433"><time>2022-10-29T11:18:43.063</time></trkpt><trkpt lat="55.7654683" lon="49.1648817"><time>2022-10-29T11:18:45.060</time></trkpt><trkpt lat="55.7654317" lon="49.1647833"><time>2022-10-29T11:18:47.063</time></trkpt><trkpt lat="55.7653783" lon="49.1646750"><time>2022-10-29T11:18:49.060</time></trkpt><trkpt lat="55.7653450" lon="49.1646200"><time>2022-10-29T11:18:50.053</time></trkpt><trkpt lat="55.7652917" lon="49.1644967"><time>2022-10-29T11:18:52.053</time></trkpt><trkpt lat="55.7652300" lon="49.1643883"><time>2022-10-29T11:18:54.063</time></trkpt><trkpt lat="55.7651733" lon="49.1642783"><time>2022-10-29T11:18:56.053</time></trkpt><trkpt lat="55.7651083" lon="49.1641667"><time>2022-10-29T11:18:58.063</time></trkpt><trkpt lat="55.7650767" lon="49.1641067"><time>2022-10-29T11:18:59.060</time></trkpt><trkpt lat="55.7650183" lon="49.1639950"><time>2022-10-29T11:19:01.060</time></trkpt><trkpt lat="55.7649600" lon="49.1638750"><time>2022-10-29T11:19:03.057</time></trkpt><trkpt lat="55.7649033" lon="49.1637583"><time>2022-10-29T11:19:05.063</time></trkpt><trkpt lat="55.7648500" lon="49.1636350"><time>2022-10-29T11:19:07.050</time></trkpt><trkpt lat="55.7648183" lon="49.1635717"><time>2022-10-29T11:19:08.047</time></trkpt><trkpt lat="55.7647567" lon="49.1634500"><time>2022-10-29T11:19:10.060</time></trkpt><trkpt lat="55.7647300" lon="49.1633817"><time>2022-10-29T11:19:11.060</time></trkpt><trkpt lat="55.7646783" lon="49.1632500"><time>2022-10-29T11:19:13.063</time></trkpt><trkpt lat="55.7646567" lon="49.1631800"><time>2022-10-29T11:19:14.063</time></trkpt><trkpt lat="55.7646233" lon="49.1630300"><time>2022-10-29T11:19:16.060</time></trkpt><trkpt lat="55.7645900" lon="49.1628750"><time>2022-10-29T11:19:18.057</time></trkpt><trkpt lat="55.7645467" lon="49.1627467"><time>2022-10-29T11:19:20.063</time></trkpt><trkpt lat="55.7645017" lon="49.1626050"><time>2022-10-29T11:19:22.053</time></trkpt><trkpt lat="55.7644750" lon="49.1625200"><time>2022-10-29T11:19:23.040</time></trkpt><trkpt lat="55.7644467" lon="49.1624450"><time>2022-10-29T11:19:24.057</time></trkpt><trkpt lat="55.7644100" lon="49.1623200"><time>2022-10-29T11:19:26.053</time></trkpt><trkpt lat="55.7643900" lon="49.1622400"><time>2022-10-29T11:19:27.057</time></trkpt><trkpt lat="55.7643667" lon="49.1621667"><time>2022-10-29T11:19:28.060</time></trkpt><trkpt lat="55.7643450" lon="49.1620933"><time>2022-10-29T11:19:29.053</time></trkpt><trkpt lat="55.7642983" lon="49.1619717"><time>2022-10-29T11:19:31.060</time></trkpt><trkpt lat="55.7642650" lon="49.1618617"><time>2022-10-29T11:19:33.057</time></trkpt><trkpt lat="55.7642300" lon="49.1617600"><time>2022-10-29T11:19:35.057</time></trkpt><trkpt lat="55.7641933" lon="49.1616617"><time>2022-10-29T11:19:37.060</time></trkpt><trkpt lat="55.7641583" lon="49.1615883"><time>2022-10-29T11:19:39.063</time></trkpt><trkpt lat="55.7641583" lon="49.1614950"><time>2022-10-29T11:19:59.063</time></trkpt><trkpt lat="55.7641633" lon="49.1614100"><time>2022-10-29T11:20:02.053</time></trkpt><trkpt lat="55.7641800" lon="49.1613333"><time>2022-10-29T11:20:06.050</time></trkpt><trkpt lat="55.7642000" lon="49.1612567"><time>2022-10-29T11:20:11.060</time></trkpt><trkpt lat="55.7642150" lon="49.1611600"><time>2022-10-29T11:20:17.067</time></trkpt><trkpt lat="55.7642300" lon="49.1610550"><time>2022-10-29T11:20:21.057</time></trkpt><trkpt lat="55.7642850" lon="49.1609917"><time>2022-10-29T11:20:23.057</time></trkpt><trkpt lat="55.7643400" lon="49.1608917"><time>2022-10-29T11:20:25.067</time></trkpt><trkpt lat="55.7644017" lon="49.1608133"><time>2022-10-29T11:20:27.053</time></trkpt><trkpt lat="55.7644733" lon="49.1607450"><time>2022-10-29T11:20:29.057</time></trkpt><trkpt lat="55.7645183" lon="49.1607117"><time>2022-10-29T11:20:30.057</time></trkpt><trkpt lat="55.7645683" lon="49.1606783"><time>2022-10-29T11:20:31.060</time></trkpt><trkpt lat="55.7646183" lon="49.1606417"><time>2022-10-29T11:20:32.057</time></trkpt><trkpt lat="55.7646667" lon="49.1605950"><time>2022-10-29T11:20:33.050</time></trkpt><trkpt lat="55.7647133" lon="49.1605517"><time>2022-10-29T11:20:34.057</time></trkpt><trkpt lat="55.7647667" lon="49.1605117"><time>2022-10-29T11:20:35.060</time></trkpt><trkpt lat="55.7648233" lon="49.1604600"><time>2022-10-29T11:20:36.060</time></trkpt><trkpt lat="55.7648767" lon="49.1604083"><time>2022-10-29T11:20:37.057</time></trkpt><trkpt lat="55.7649333" lon="49.1603533"><time>2022-10-29T11:20:38.057</time></trkpt><trkpt lat="55.7649850" lon="49.1603000"><time>2022-10-29T11:20:39.053</time></trkpt><trkpt lat="55.7650350" lon="49.1602417"><time>2022-10-29T11:20:40.057</time></trkpt><trkpt lat="55.7650833" lon="49.1601783"><time>2022-10-29T11:20:41.060</time></trkpt><trkpt lat="55.7651233" lon="49.1601267"><time>2022-10-29T11:20:42.060</time></trkpt><trkpt lat="55.7651650" lon="49.1600683"><time>2022-10-29T11:20:43.057</time></trkpt><trkpt lat="55.7652033" lon="49.1600133"><time>2022-10-29T11:20:44.050</time></trkpt><trkpt lat="55.7652717" lon="49.1599117"><time>2022-10-29T11:20:46.057</time></trkpt><trkpt lat="55.7653067" lon="49.1598600"><time>2022-10-29T11:20:47.053</time></trkpt><trkpt lat="55.7653383" lon="49.1598017"><time>2022-10-29T11:20:48.060</time></trkpt><trkpt lat="55.7653733" lon="49.1597500"><time>2022-10-29T11:20:49.060</time></trkpt><trkpt lat="55.7654133" lon="49.1597017"><time>2022-10-29T11:20:50.050</time></trkpt><trkpt lat="55.7654950" lon="49.1596217"><time>2022-10-29T11:20:52.033</time></trkpt><trkpt lat="55.7655367" lon="49.1595767"><time>2022-10-29T11:20:53.057</time></trkpt><trkpt lat="55.7656133" lon="49.1595000"><time>2022-10-29T11:20:55.057</time></trkpt><trkpt lat="55.7655883" lon="49.1595800"><time>2022-10-29T11:21:05.057</time></trkpt><trkpt lat="55.7655583" lon="49.1596433"><time>2022-10-29T11:21:11.057</time></trkpt><trkpt lat="55.7655250" lon="49.1597083"><time>2022-10-29T11:21:16.053</time></trkpt><trkpt lat="55.7655217" lon="49.1596150"><time>2022-10-29T11:21:22.043</time></trkpt><trkpt lat="55.7654833" lon="49.1594983"><time>2022-10-29T11:21:25.047</time></trkpt><trkpt lat="55.7654083" lon="49.1592600"><time>2022-10-29T11:21:27.043</time></trkpt><trkpt lat="55.7652917" lon="49.1591717"><time>2022-10-29T11:21:28.043</time></trkpt><trkpt lat="55.7652383" lon="49.1591317"><time>2022-10-29T11:21:29.043</time></trkpt><trkpt lat="55.7651733" lon="49.1591350"><time>2022-10-29T11:21:31.043</time></trkpt><trkpt lat="55.7652417" lon="49.1591133"><time>2022-10-29T11:21:33.047</time></trkpt><trkpt lat="55.7652933" lon="49.1590917"><time>2022-10-29T11:21:35.020</time></trkpt><trkpt lat="55.7653383" lon="49.1590800"><time>2022-10-29T11:21:37.053</time></trkpt><trkpt lat="55.7653833" lon="49.1590800"><time>2022-10-29T11:21:39.050</time></trkpt><trkpt lat="55.7654500" lon="49.1590617"><time>2022-10-29T11:21:42.043</time></trkpt><trkpt lat="55.7654983" lon="49.1590400"><time>2022-10-29T11:21:45.037</time></trkpt><trkpt lat="55.7655567" lon="49.1590600"><time>2022-10-29T11:21:48.053</time></trkpt><trkpt lat="55.7656067" lon="49.1590617"><time>2022-10-29T11:21:51.057</time></trkpt><trkpt lat="55.7656517" lon="49.1590483"><time>2022-10-29T11:21:55.047</time></trkpt><trkpt lat="55.7657033" lon="49.1590033"><time>2022-10-29T11:21:58.047</time></trkpt><trkpt lat="55.7657533" lon="49.1589467"><time>2022-10-29T11:22:00.057</time></trkpt><trkpt lat="55.7657967" lon="49.1588683"><time>2022-10-29T11:22:02.037</time></trkpt><trkpt lat="55.7658317" lon="49.1587567"><time>2022-10-29T11:22:04.053</time></trkpt><trkpt lat="55.7658867" lon="49.1586467"><time>2022-10-29T11:22:06.057</time></trkpt><trkpt lat="55.7659450" lon="49.1585283"><time>2022-10-29T11:22:08.043</time></trkpt><trkpt lat="55.7659883" lon="49.1584850"><time>2022-10-29T11:22:09.057</time></trkpt><trkpt lat="55.7660367" lon="49.1584350"><time>2022-10-29T11:22:10.050</time></trkpt><trkpt lat="55.7660833" lon="49.1583850"><time>2022-10-29T11:22:11.057</time></trkpt><trkpt lat="55.7661283" lon="49.1583367"><time>2022-10-29T11:22:12.057</time></trkpt><trkpt lat="55.7661733" lon="49.1582833"><time>2022-10-29T11:22:13.063</time></trkpt><trkpt lat="55.7662117" lon="49.1582367"><time>2022-10-29T11:22:14.050</time></trkpt><trkpt lat="55.7662533" lon="49.1581917"><time>2022-10-29T11:22:15.060</time></trkpt><trkpt lat="55.7663033" lon="49.1581500"><time>2022-10-29T11:22:16.057</time></trkpt><trkpt lat="55.7663467" lon="49.1581117"><time>2022-10-29T11:22:17.057</time></trkpt><trkpt lat="55.7663983" lon="49.1580767"><time>2022-10-29T11:22:18.057</time></trkpt><trkpt lat="55.7664467" lon="49.1580450"><time>2022-10-29T11:22:19.057</time></trkpt><trkpt lat="55.7664917" lon="49.1580050"><time>2022-10-29T11:22:20.057</time></trkpt><trkpt lat="55.7665400" lon="49.1579567"><time>2022-10-29T11:22:21.060</time></trkpt><trkpt lat="55.7665717" lon="49.1579000"><time>2022-10-29T11:22:22.060</time></trkpt><trkpt lat="55.7666067" lon="49.1578400"><time>2022-10-29T11:22:23.060</time></trkpt><trkpt lat="55.7666683" lon="49.1577500"><time>2022-10-29T11:22:25.057</time></trkpt><trkpt lat="55.7667067" lon="49.1577050"><time>2022-10-29T11:22:26.043</time></trkpt><trkpt lat="55.7667450" lon="49.1576533"><time>2022-10-29T11:22:27.057</time></trkpt><trkpt lat="55.7667883" lon="49.1575867"><time>2022-10-29T11:22:28.057</time></trkpt><trkpt lat="55.7668300" lon="49.1575217"><time>2022-10-29T11:22:29.057</time></trkpt><trkpt lat="55.7668800" lon="49.1574667"><time>2022-10-29T11:22:30.057</time></trkpt><trkpt lat="55.7669333" lon="49.1574133"><time>2022-10-29T11:22:31.063</time></trkpt><trkpt lat="55.7669933" lon="49.1573633"><time>2022-10-29T11:22:32.057</time></trkpt><trkpt lat="55.7670517" lon="49.1573117"><time>2022-10-29T11:22:33.057</time></trkpt><trkpt lat="55.7671033" lon="49.1572567"><time>2022-10-29T11:22:34.050</time></trkpt><trkpt lat="55.7671500" lon="49.1572033"><time>2022-10-29T11:22:35.053</time></trkpt><trkpt lat="55.7671983" lon="49.1571433"><time>2022-10-29T11:22:36.060</time></trkpt><trkpt lat="55.7672450" lon="49.1570817"><time>2022-10-29T11:22:37.060</time></trkpt><trkpt lat="55.7672933" lon="49.1570183"><time>2022-10-29T11:22:38.057</time></trkpt><trkpt lat="55.7673433" lon="49.1569617"><time>2022-10-29T11:22:39.057</time></trkpt><trkpt lat="55.7673933" lon="49.1569050"><time>2022-10-29T11:22:40.057</time></trkpt><trkpt lat="55.7674417" lon="49.1568500"><time>2022-10-29T11:22:41.060</time></trkpt><trkpt lat="55.7674933" lon="49.1567967"><time>2022-10-29T11:22:42.060</time></trkpt><trkpt lat="55.7675417" lon="49.1567433"><time>2022-10-29T11:22:43.057</time></trkpt><trkpt lat="55.7675883" lon="49.1566917"><time>2022-10-29T11:22:44.057</time></trkpt><trkpt lat="55.7676383" lon="49.1566533"><time>2022-10-29T11:22:45.060</time></trkpt><trkpt lat="55.7676850" lon="49.1566117"><time>2022-10-29T11:22:46.057</time></trkpt><trkpt lat="55.7677283" lon="49.1565750"><time>2022-10-29T11:22:47.057</time></trkpt><trkpt lat="55.7677783" lon="49.1565300"><time>2022-10-29T11:22:48.053</time></trkpt><trkpt lat="55.7678350" lon="49.1564850"><time>2022-10-29T11:22:49.060</time></trkpt><trkpt lat="55.7678883" lon="49.1564400"><time>2022-10-29T11:22:50.057</time></trkpt><trkpt lat="55.7679350" lon="49.1563867"><time>2022-10-29T11:22:51.060</time></trkpt><trkpt lat="55.7679817" lon="49.1563367"><time>2022-10-29T11:22:52.043</time></trkpt><trkpt lat="55.7680267" lon="49.1562850"><time>2022-10-29T11:22:53.057</time></trkpt><trkpt lat="55.7680750" lon="49.1562317"><time>2022-10-29T11:22:54.057</time></trkpt><trkpt lat="55.7681200" lon="49.1561800"><time>2022-10-29T11:22:55.060</time></trkpt><trkpt lat="55.7681633" lon="49.1561367"><time>2022-10-29T11:22:56.053</time></trkpt><trkpt lat="55.7682033" lon="49.1560983"><time>2022-10-29T11:22:57.057</time></trkpt><trkpt lat="55.7682450" lon="49.1560567"><time>2022-10-29T11:22:58.047</time></trkpt><trkpt lat="55.7682833" lon="49.1560033"><time>2022-10-29T11:22:59.053</time></trkpt><trkpt lat="55.7683217" lon="49.1559433"><time>2022-10-29T11:23:00.060</time></trkpt><trkpt lat="55.7683600" lon="49.1558867"><time>2022-10-29T11:23:01.057</time></trkpt><trkpt lat="55.7683983" lon="49.1558383"><time>2022-10-29T11:23:02.057</time></trkpt><trkpt lat="55.7684683" lon="49.1557717"><time>2022-10-29T11:23:04.057</time></trkpt><trkpt lat="55.7684950" lon="49.1557067"><time>2022-10-29T11:23:06.057</time></trkpt><trkpt lat="55.7684600" lon="49.1555817"><time>2022-10-29T11:23:08.060</time></trkpt><trkpt lat="55.7684283" lon="49.1555233"><time>2022-10-29T11:23:09.057</time></trkpt><trkpt lat="55.7683850" lon="49.1554783"><time>2022-10-29T11:23:10.057</time></trkpt><trkpt lat="55.7683350" lon="49.1554083"><time>2022-10-29T11:23:12.077</time></trkpt><trkpt lat="55.7682783" lon="49.1553300"><time>2022-10-29T11:23:14.060</time></trkpt><trkpt lat="55.7682317" lon="49.1552433"><time>2022-10-29T11:23:16.057</time></trkpt><trkpt lat="55.7681817" lon="49.1551467"><time>2022-10-29T11:23:18.060</time></trkpt><trkpt lat="55.7681167" lon="49.1550550"><time>2022-10-29T11:23:20.047</time></trkpt><trkpt lat="55.7680633" lon="49.1549983"><time>2022-10-29T11:23:22.060</time></trkpt><trkpt lat="55.7679950" lon="49.1549283"><time>2022-10-29T11:23:24.060</time></trkpt><trkpt lat="55.7679300" lon="49.1548250"><time>2022-10-29T11:23:26.060</time></trkpt><trkpt lat="55.7678950" lon="49.1547583"><time>2022-10-29T11:23:27.060</time></trkpt><trkpt lat="55.7678683" lon="49.1546900"><time>2022-10-29T11:23:28.063</time></trkpt><trkpt lat="55.7678533" lon="49.1545533"><time>2022-10-29T11:23:30.057</time></trkpt><trkpt lat="55.7679150" lon="49.1544400"><time>2022-10-29T11:23:32.060</time></trkpt><trkpt lat="55.7679783" lon="49.1543417"><time>2022-10-29T11:23:34.060</time></trkpt><trkpt lat="55.7680150" lon="49.1542850"><time>2022-10-29T11:23:35.060</time></trkpt><trkpt lat="55.7680517" lon="49.1542117"><time>2022-10-29T11:23:36.057</time></trkpt><trkpt lat="55.7680833" lon="49.1541467"><time>2022-10-29T11:23:37.060</time></trkpt><trkpt lat="55.7681200" lon="49.1540717"><time>2022-10-29T11:23:38.057</time></trkpt><trkpt lat="55.7681517" lon="49.1540067"><time>2022-10-29T11:23:39.063</time></trkpt><trkpt lat="55.7682067" lon="49.1539117"><time>2022-10-29T11:23:41.060</time></trkpt><trkpt lat="55.7682483" lon="49.1538283"><time>2022-10-29T11:23:43.027</time></trkpt><trkpt lat="55.7683000" lon="49.1537567"><time>2022-10-29T11:23:45.060</time></trkpt><trkpt lat="55.7683717" lon="49.1536767"><time>2022-10-29T11:23:47.057</time></trkpt><trkpt lat="55.7684133" lon="49.1536383"><time>2022-10-29T11:23:48.060</time></trkpt><trkpt lat="55.7684500" lon="49.1535883"><time>2022-10-29T11:23:49.057</time></trkpt><trkpt lat="55.7684883" lon="49.1535400"><time>2022-10-29T11:23:50.060</time></trkpt><trkpt lat="55.7685233" lon="49.1534800"><time>2022-10-29T11:23:51.060</time></trkpt><trkpt lat="55.7685533" lon="49.1534167"><time>2022-10-29T11:23:52.057</time></trkpt><trkpt lat="55.7685800" lon="49.1533467"><time>2022-10-29T11:23:53.047</time></trkpt><trkpt lat="55.7686117" lon="49.1532817"><time>2022-10-29T11:23:54.060</time></trkpt><trkpt lat="55.7686383" lon="49.1532033"><time>2022-10-29T11:23:55.060</time></trkpt><trkpt lat="55.7686667" lon="49.1531167"><time>2022-10-29T11:23:56.057</time></trkpt><trkpt lat="55.7686983" lon="49.1530383"><time>2022-10-29T11:23:57.063</time></trkpt><trkpt lat="55.7687333" lon="49.1529700"><time>2022-10-29T11:23:58.060</time></trkpt><trkpt lat="55.7687683" lon="49.1528983"><time>2022-10-29T11:23:59.060</time></trkpt><trkpt lat="55.7688033" lon="49.1528333"><time>2022-10-29T11:24:00.060</time></trkpt><trkpt lat="55.7688400" lon="49.1527733"><time>2022-10-29T11:24:01.057</time></trkpt><trkpt lat="55.7688717" lon="49.1526950"><time>2022-10-29T11:24:02.057</time></trkpt><trkpt lat="55.7689033" lon="49.1526167"><time>2022-10-29T11:24:03.060</time></trkpt><trkpt lat="55.7689333" lon="49.1525433"><time>2022-10-29T11:24:04.057</time></trkpt><trkpt lat="55.7689633" lon="49.1524667"><time>2022-10-29T11:24:05.060</time></trkpt><trkpt lat="55.7689950" lon="49.1523917"><time>2022-10-29T11:24:06.057</time></trkpt><trkpt lat="55.7690317" lon="49.1523250"><time>2022-10-29T11:24:07.057</time></trkpt><trkpt lat="55.7690683" lon="49.1522667"><time>2022-10-29T11:24:08.057</time></trkpt><trkpt lat="55.7691067" lon="49.1522200"><time>2022-10-29T11:24:09.060</time></trkpt><trkpt lat="55.7691533" lon="49.1521150"><time>2022-10-29T11:24:11.057</time></trkpt><trkpt lat="55.7692000" lon="49.1520133"><time>2022-10-29T11:24:13.060</time></trkpt><trkpt lat="55.7692333" lon="49.1518900"><time>2022-10-29T11:24:15.057</time></trkpt><trkpt lat="55.7692733" lon="49.1517900"><time>2022-10-29T11:24:17.057</time></trkpt><trkpt lat="55.7693133" lon="49.1516767"><time>2022-10-29T11:24:19.057</time></trkpt><trkpt lat="55.7693483" lon="49.1515683"><time>2022-10-29T11:24:21.057</time></trkpt><trkpt lat="55.7693833" lon="49.1514350"><time>2022-10-29T11:24:23.057</time></trkpt><trkpt lat="55.7694217" lon="49.1512967"><time>2022-10-29T11:24:25.057</time></trkpt><trkpt lat="55.7694583" lon="49.1511767"><time>2022-10-29T11:24:27.053</time></trkpt><trkpt lat="55.7694833" lon="49.1510833"><time>2022-10-29T11:24:29.053</time></trkpt><trkpt lat="55.7694933" lon="49.1509967"><time>2022-10-29T11:24:32.057</time></trkpt><trkpt lat="55.7694683" lon="49.1509233"><time>2022-10-29T11:24:34.050</time></trkpt><trkpt lat="55.7694217" lon="49.1508300"><time>2022-10-29T11:24:36.057</time></trkpt><trkpt lat="55.7693833" lon="49.1507583"><time>2022-10-29T11:24:38.057</time></trkpt><trkpt lat="55.7693483" lon="49.1506650"><time>2022-10-29T11:24:41.057</time></trkpt><trkpt lat="55.7693100" lon="49.1505817"><time>2022-10-29T11:24:44.057</time></trkpt><trkpt lat="55.7692633" lon="49.1505150"><time>2022-10-29T11:24:46.057</time></trkpt><trkpt lat="55.7692133" lon="49.1504517"><time>2022-10-29T11:24:48.057</time></trkpt><trkpt lat="55.7691667" lon="49.1503850"><time>2022-10-29T11:24:50.057</time></trkpt><trkpt lat="55.7691217" lon="49.1503183"><time>2022-10-29T11:24:52.057</time></trkpt><trkpt lat="55.7690633" lon="49.1502217"><time>2022-10-29T11:24:54.050</time></trkpt><trkpt lat="55.7690067" lon="49.1501183"><time>2022-10-29T11:24:56.053</time></trkpt><trkpt lat="55.7689400" lon="49.1500167"><time>2022-10-29T11:24:58.053</time></trkpt><trkpt lat="55.7689033" lon="49.1499683"><time>2022-10-29T11:24:59.057</time></trkpt><trkpt lat="55.7688633" lon="49.1499317"><time>2022-10-29T11:25:00.063</time></trkpt><trkpt lat="55.7688250" lon="49.1498800"><time>2022-10-29T11:25:01.060</time></trkpt><trkpt lat="55.7687833" lon="49.1498283"><time>2022-10-29T11:25:02.057</time></trkpt><trkpt lat="55.7687400" lon="49.1497700"><time>2022-10-29T11:25:03.057</time></trkpt><trkpt lat="55.7686617" lon="49.1496817"><time>2022-10-29T11:25:05.060</time></trkpt><trkpt lat="55.7685950" lon="49.1496133"><time>2022-10-29T11:25:07.057</time></trkpt><trkpt lat="55.7685383" lon="49.1495533"><time>2022-10-29T11:25:09.060</time></trkpt><trkpt lat="55.7684833" lon="49.1494700"><time>2022-10-29T11:25:11.057</time></trkpt><trkpt lat="55.7684200" lon="49.1493783"><time>2022-10-29T11:25:13.060</time></trkpt><trkpt lat="55.7683650" lon="49.1492933"><time>2022-10-29T11:25:15.057</time></trkpt><trkpt lat="55.7683017" lon="49.1492050"><time>2022-10-29T11:25:17.057</time></trkpt><trkpt lat="55.7682367" lon="49.1491150"><time>2022-10-29T11:25:19.060</time></trkpt><trkpt lat="55.7681783" lon="49.1490217"><time>2022-10-29T11:25:21.057</time></trkpt><trkpt lat="55.7681167" lon="49.1489283"><time>2022-10-29T11:25:23.057</time></trkpt><trkpt lat="55.7680583" lon="49.1488400"><time>2022-10-29T11:25:25.043</time></trkpt><trkpt lat="55.7679983" lon="49.1487500"><time>2022-10-29T11:25:27.053</time></trkpt><trkpt lat="55.7679433" lon="49.1486533"><time>2022-10-29T11:25:29.043</time></trkpt><trkpt lat="55.7678750" lon="49.1485667"><time>2022-10-29T11:25:31.060</time></trkpt><trkpt lat="55.7678083" lon="49.1484900"><time>2022-10-29T11:25:33.060</time></trkpt><trkpt lat="55.7677467" lon="49.1484033"><time>2022-10-29T11:25:35.060</time></trkpt><trkpt lat="55.7676883" lon="49.1483100"><time>2022-10-29T11:25:37.030</time></trkpt><trkpt lat="55.7676400" lon="49.1482167"><time>2022-10-29T11:25:39.027</time></trkpt><trkpt lat="55.7676217" lon="49.1481067"><time>2022-10-29T11:25:41.057</time></trkpt><trkpt lat="55.7676267" lon="49.1480017"><time>2022-10-29T11:25:44.057</time></trkpt><trkpt lat="55.7676667" lon="49.1479317"><time>2022-10-29T11:25:47.060</time></trkpt><trkpt lat="55.7677017" lon="49.1478817"><time>2022-10-29T11:25:50.057</time></trkpt><trkpt lat="55.7677667" lon="49.1478317"><time>2022-10-29T11:25:53.050</time></trkpt><trkpt lat="55.7678117" lon="49.1477567"><time>2022-10-29T11:25:55.057</time></trkpt><trkpt lat="55.7678567" lon="49.1476850"><time>2022-10-29T11:25:57.050</time></trkpt><trkpt lat="55.7679117" lon="49.1476667"><time>2022-10-29T11:25:59.053</time></trkpt><trkpt lat="55.7679800" lon="49.1476600"><time>2022-10-29T11:26:01.053</time></trkpt><trkpt lat="55.7680600" lon="49.1476133"><time>2022-10-29T11:26:03.053</time></trkpt><trkpt lat="55.7681333" lon="49.1475633"><time>2022-10-29T11:26:05.053</time></trkpt><trkpt lat="55.7681983" lon="49.1474883"><time>2022-10-29T11:26:07.053</time></trkpt><trkpt lat="55.7682517" lon="49.1474067"><time>2022-10-29T11:26:09.057</time></trkpt><trkpt lat="55.7682933" lon="49.1472900"><time>2022-10-29T11:26:11.057</time></trkpt><trkpt lat="55.7683050" lon="49.1472117"><time>2022-10-29T11:26:12.057</time></trkpt><trkpt lat="55.7683217" lon="49.1470650"><time>2022-10-29T11:26:14.063</time></trkpt><trkpt lat="55.7683383" lon="49.1469283"><time>2022-10-29T11:26:16.043</time></trkpt><trkpt lat="55.7683717" lon="49.1467983"><time>2022-10-29T11:26:18.057</time></trkpt><trkpt lat="55.7684450" lon="49.1467417"><time>2022-10-29T11:26:20.063</time></trkpt><trkpt lat="55.7685100" lon="49.1467483"><time>2022-10-29T11:26:22.057</time></trkpt><trkpt lat="55.7685750" lon="49.1468150"><time>2022-10-29T11:26:24.040</time></trkpt><trkpt lat="55.7686433" lon="49.1469267"><time>2022-10-29T11:26:26.060</time></trkpt><trkpt lat="55.7686783" lon="49.1469850"><time>2022-10-29T11:26:27.057</time></trkpt><trkpt lat="55.7687167" lon="49.1470400"><time>2022-10-29T11:26:28.057</time></trkpt><trkpt lat="55.7687533" lon="49.1470983"><time>2022-10-29T11:26:29.057</time></trkpt><trkpt lat="55.7688183" lon="49.1471750"><time>2022-10-29T11:26:31.060</time></trkpt><trkpt lat="55.7688900" lon="49.1472600"><time>2022-10-29T11:26:33.057</time></trkpt><trkpt lat="55.7689317" lon="49.1473100"><time>2022-10-29T11:26:34.057</time></trkpt><trkpt lat="55.7689783" lon="49.1473583"><time>2022-10-29T11:26:35.063</time></trkpt><trkpt lat="55.7690250" lon="49.1474067"><time>2022-10-29T11:26:36.057</time></trkpt><trkpt lat="55.7690683" lon="49.1474683"><time>2022-10-29T11:26:37.057</time></trkpt><trkpt lat="55.7691067" lon="49.1475300"><time>2022-10-29T11:26:38.057</time></trkpt><trkpt lat="55.7691500" lon="49.1475917"><time>2022-10-29T11:26:39.057</time></trkpt><trkpt lat="55.7691850" lon="49.1476567"><time>2022-10-29T11:26:40.057</time></trkpt><trkpt lat="55.7692217" lon="49.1477250"><time>2022-10-29T11:26:41.057</time></trkpt><trkpt lat="55.7692600" lon="49.1477900"><time>2022-10-29T11:26:42.057</time></trkpt><trkpt lat="55.7692983" lon="49.1478633"><time>2022-10-29T11:26:43.057</time></trkpt><trkpt lat="55.7693333" lon="49.1479283"><time>2022-10-29T11:26:44.057</time></trkpt><trkpt lat="55.7693750" lon="49.1479933"><time>2022-10-29T11:26:45.057</time></trkpt><trkpt lat="55.7694150" lon="49.1480617"><time>2022-10-29T11:26:46.053</time></trkpt><trkpt lat="55.7694500" lon="49.1481300"><time>2022-10-29T11:26:47.057</time></trkpt><trkpt lat="55.7694883" lon="49.1481967"><time>2022-10-29T11:26:48.053</time></trkpt><trkpt lat="55.7695333" lon="49.1482683"><time>2022-10-29T11:26:49.053</time></trkpt><trkpt lat="55.7695767" lon="49.1483433"><time>2022-10-29T11:26:50.060</time></trkpt><trkpt lat="55.7696167" lon="49.1484150"><time>2022-10-29T11:26:51.057</time></trkpt><trkpt lat="55.7696600" lon="49.1484750"><time>2022-10-29T11:26:52.057</time></trkpt><trkpt lat="55.7697067" lon="49.1485383"><time>2022-10-29T11:26:53.057</time></trkpt><trkpt lat="55.7697550" lon="49.1485950"><time>2022-10-29T11:26:54.057</time></trkpt><trkpt lat="55.7698000" lon="49.1486500"><time>2022-10-29T11:26:55.057</time></trkpt><trkpt lat="55.7698367" lon="49.1487067"><time>2022-10-29T11:26:56.057</time></trkpt><trkpt lat="55.7698767" lon="49.1487583"><time>2022-10-29T11:26:57.053</time></trkpt><trkpt lat="55.7699133" lon="49.1488100"><time>2022-10-29T11:26:58.057</time></trkpt><trkpt lat="55.7699767" lon="49.1489033"><time>2022-10-29T11:27:00.057</time></trkpt><trkpt lat="55.7700250" lon="49.1489833"><time>2022-10-29T11:27:02.057</time></trkpt><trkpt lat="55.7700783" lon="49.1490450"><time>2022-10-29T11:27:04.063</time></trkpt><trkpt lat="55.7701100" lon="49.1491017"><time>2022-10-29T11:27:06.060</time></trkpt><trkpt lat="55.7700983" lon="49.1491800"><time>2022-10-29T11:27:09.040</time></trkpt><trkpt lat="55.7700683" lon="49.1492467"><time>2022-10-29T11:27:11.060</time></trkpt><trkpt lat="55.7700317" lon="49.1492933"><time>2022-10-29T11:27:14.057</time></trkpt><trkpt lat="55.7700150" lon="49.1493717"><time>2022-10-29T11:27:18.057</time></trkpt><trkpt lat="55.7700467" lon="49.1494617"><time>2022-10-29T11:27:21.057</time></trkpt><trkpt lat="55.7700667" lon="49.1495483"><time>2022-10-29T11:27:23.057</time></trkpt><trkpt lat="55.7700567" lon="49.1496533"><time>2022-10-29T11:27:25.057</time></trkpt><trkpt lat="55.7700350" lon="49.1497600"><time>2022-10-29T11:27:28.060</time></trkpt><trkpt lat="55.7700000" lon="49.1498200"><time>2022-10-29T11:27:31.063</time></trkpt><trkpt lat="55.7699333" lon="49.1498617"><time>2022-10-29T11:27:34.057</time></trkpt><trkpt lat="55.7698933" lon="49.1499383"><time>2022-10-29T11:27:36.060</time></trkpt><trkpt lat="55.7698517" lon="49.1500217"><time>2022-10-29T11:27:38.063</time></trkpt><trkpt lat="55.7698150" lon="49.1500950"><time>2022-10-29T11:27:40.063</time></trkpt><trkpt lat="55.7697550" lon="49.1501400"><time>2022-10-29T11:27:42.057</time></trkpt><trkpt lat="55.7697017" lon="49.1501967"><time>2022-10-29T11:27:44.060</time></trkpt><trkpt lat="55.7696583" lon="49.1502717"><time>2022-10-29T11:27:46.057</time></trkpt><trkpt lat="55.7696217" lon="49.1503217"><time>2022-10-29T11:27:48.060</time></trkpt><trkpt lat="55.7695833" lon="49.1503967"><time>2022-10-29T11:27:50.057</time></trkpt><trkpt lat="55.7695317" lon="49.1505033"><time>2022-10-29T11:27:52.060</time></trkpt><trkpt lat="55.7694833" lon="49.1506200"><time>2022-10-29T11:27:54.060</time></trkpt><trkpt lat="55.7694550" lon="49.1507133"><time>2022-10-29T11:27:56.060</time></trkpt><trkpt lat="55.7694283" lon="49.1508033"><time>2022-10-29T11:27:58.057</time></trkpt><trkpt lat="55.7694200" lon="49.1508967"><time>2022-10-29T11:28:00.060</time></trkpt><trkpt lat="55.7693817" lon="49.1509517"><time>2022-10-29T11:28:03.047</time></trkpt><trkpt lat="55.7693300" lon="49.1510083"><time>2022-10-29T11:28:06.057</time></trkpt><trkpt lat="55.7692750" lon="49.1510383"><time>2022-10-29T11:28:08.050</time></trkpt><trkpt lat="55.7692117" lon="49.1511017"><time>2022-10-29T11:28:10.057</time></trkpt><trkpt lat="55.7691583" lon="49.1512033"><time>2022-10-29T11:28:12.060</time></trkpt><trkpt lat="55.7691333" lon="49.1513267"><time>2022-10-29T11:28:14.057</time></trkpt><trkpt lat="55.7691100" lon="49.1514150"><time>2022-10-29T11:28:16.057</time></trkpt><trkpt lat="55.7690817" lon="49.1515250"><time>2022-10-29T11:28:18.057</time></trkpt><trkpt lat="55.7690450" lon="49.1516133"><time>2022-10-29T11:28:20.057</time></trkpt><trkpt lat="55.7689917" lon="49.1515750"><time>2022-10-29T11:28:23.057</time></trkpt><trkpt lat="55.7689617" lon="49.1514867"><time>2022-10-29T11:28:26.060</time></trkpt><trkpt lat="55.7689283" lon="49.1514250"><time>2022-10-29T11:28:28.060</time></trkpt><trkpt lat="55.7688883" lon="49.1513567"><time>2022-10-29T11:28:30.057</time></trkpt><trkpt lat="55.7688267" lon="49.1512700"><time>2022-10-29T11:28:32.060</time></trkpt><trkpt lat="55.7687633" lon="49.1511800"><time>2022-10-29T11:28:34.057</time></trkpt><trkpt lat="55.7687067" lon="49.1510967"><time>2022-10-29T11:28:36.060</time></trkpt><trkpt lat="55.7686400" lon="49.1510267"><time>2022-10-29T11:28:38.057</time></trkpt><trkpt lat="55.7685700" lon="49.1509467"><time>2022-10-29T11:28:40.057</time></trkpt><trkpt lat="55.7685167" lon="49.1508483"><time>2022-10-29T11:28:42.060</time></trkpt><trkpt lat="55.7684650" lon="49.1507717"><time>2022-10-29T11:28:44.057</time></trkpt><trkpt lat="55.7684150" lon="49.1506783"><time>2022-10-29T11:28:46.057</time></trkpt><trkpt lat="55.7683767" lon="49.1506333"><time>2022-10-29T11:28:47.057</time></trkpt><trkpt lat="55.7683200" lon="49.1505833"><time>2022-10-29T11:28:49.057</time></trkpt><trkpt lat="55.7682700" lon="49.1505300"><time>2022-10-29T11:28:51.060</time></trkpt><trkpt lat="55.7682267" lon="49.1504783"><time>2022-10-29T11:28:53.057</time></trkpt><trkpt lat="55.7681733" lon="49.1504617"><time>2022-10-29T11:28:56.057</time></trkpt><trkpt lat="55.7681333" lon="49.1505100"><time>2022-10-29T11:28:58.057</time></trkpt><trkpt lat="55.7680733" lon="49.1505783"><time>2022-10-29T11:29:00.057</time></trkpt><trkpt lat="55.7680150" lon="49.1506800"><time>2022-10-29T11:29:02.060</time></trkpt><trkpt lat="55.7679533" lon="49.1508033"><time>2022-10-29T11:29:04.057</time></trkpt><trkpt lat="55.7679200" lon="49.1508583"><time>2022-10-29T11:29:05.060</time></trkpt><trkpt lat="55.7678850" lon="49.1509217"><time>2022-10-29T11:29:06.057</time></trkpt><trkpt lat="55.7678467" lon="49.1510000"><time>2022-10-29T11:29:07.060</time></trkpt><trkpt lat="55.7678100" lon="49.1510633"><time>2022-10-29T11:29:08.057</time></trkpt><trkpt lat="55.7677733" lon="49.1511200"><time>2022-10-29T11:29:09.060</time></trkpt><trkpt lat="55.7677400" lon="49.1511750"><time>2022-10-29T11:29:10.057</time></trkpt><trkpt lat="55.7677050" lon="49.1512333"><time>2022-10-29T11:29:11.060</time></trkpt><trkpt lat="55.7676417" lon="49.1513467"><time>2022-10-29T11:29:13.057</time></trkpt><trkpt lat="55.7676033" lon="49.1513933"><time>2022-10-29T11:29:14.057</time></trkpt><trkpt lat="55.7675367" lon="49.1515250"><time>2022-10-29T11:29:16.057</time></trkpt><trkpt lat="55.7674883" lon="49.1516517"><time>2022-10-29T11:29:18.020</time></trkpt><trkpt lat="55.7674783" lon="49.1517450"><time>2022-10-29T11:29:19.053</time></trkpt><trkpt lat="55.7675083" lon="49.1518600"><time>2022-10-29T11:29:20.047</time></trkpt><trkpt lat="55.7674683" lon="49.1519500"><time>2022-10-29T11:29:22.057</time></trkpt><trkpt lat="55.7673967" lon="49.1519467"><time>2022-10-29T11:29:24.057</time></trkpt><trkpt lat="55.7673150" lon="49.1518917"><time>2022-10-29T11:29:26.053</time></trkpt><trkpt lat="55.7672367" lon="49.1518067"><time>2022-10-29T11:29:28.057</time></trkpt><trkpt lat="55.7671967" lon="49.1517633"><time>2022-10-29T11:29:29.030</time></trkpt><trkpt lat="55.7671300" lon="49.1516633"><time>2022-10-29T11:29:31.053</time></trkpt><trkpt lat="55.7670950" lon="49.1516100"><time>2022-10-29T11:29:32.053</time></trkpt><trkpt lat="55.7670650" lon="49.1515483"><time>2022-10-29T11:29:33.057</time></trkpt><trkpt lat="55.7670083" lon="49.1514333"><time>2022-10-29T11:29:35.053</time></trkpt><trkpt lat="55.7669367" lon="49.1513300"><time>2022-10-29T11:29:37.063</time></trkpt><trkpt lat="55.7668983" lon="49.1512783"><time>2022-10-29T11:29:38.060</time></trkpt><trkpt lat="55.7668317" lon="49.1511867"><time>2022-10-29T11:29:40.057</time></trkpt><trkpt lat="55.7667583" lon="49.1511033"><time>2022-10-29T11:29:42.057</time></trkpt><trkpt lat="55.7667000" lon="49.1510067"><time>2022-10-29T11:29:44.057</time></trkpt><trkpt lat="55.7666700" lon="49.1509383"><time>2022-10-29T11:29:45.057</time></trkpt><trkpt lat="55.7666350" lon="49.1508783"><time>2022-10-29T11:29:46.057</time></trkpt><trkpt lat="55.7666017" lon="49.1508150"><time>2022-10-29T11:29:47.053</time></trkpt><trkpt lat="55.7665750" lon="49.1507417"><time>2022-10-29T11:29:48.060</time></trkpt><trkpt lat="55.7665400" lon="49.1506833"><time>2022-10-29T11:29:49.053</time></trkpt><trkpt lat="55.7664800" lon="49.1505750"><time>2022-10-29T11:29:51.057</time></trkpt><trkpt lat="55.7664200" lon="49.1504833"><time>2022-10-29T11:29:53.057</time></trkpt><trkpt lat="55.7663650" lon="49.1503983"><time>2022-10-29T11:29:55.057</time></trkpt><trkpt lat="55.7663267" lon="49.1503150"><time>2022-10-29T11:29:57.057</time></trkpt><trkpt lat="55.7662733" lon="49.1502667"><time>2022-10-29T11:29:59.057</time></trkpt><trkpt lat="55.7662050" lon="49.1502083"><time>2022-10-29T11:30:01.057</time></trkpt><trkpt lat="55.7661517" lon="49.1501767"><time>2022-10-29T11:30:03.050</time></trkpt><trkpt lat="55.7660900" lon="49.1501900"><time>2022-10-29T11:30:07.057</time></trkpt><trkpt lat="55.7660400" lon="49.1501883"><time>2022-10-29T11:30:09.053</time></trkpt><trkpt lat="55.7659633" lon="49.1502083"><time>2022-10-29T11:30:11.053</time></trkpt><trkpt lat="55.7658983" lon="49.1502817"><time>2022-10-29T11:30:13.057</time></trkpt><trkpt lat="55.7658283" lon="49.1503533"><time>2022-10-29T11:30:15.053</time></trkpt><trkpt lat="55.7657500" lon="49.1504433"><time>2022-10-29T11:30:17.057</time></trkpt><trkpt lat="55.7657000" lon="49.1505483"><time>2022-10-29T11:30:19.060</time></trkpt><trkpt lat="55.7656617" lon="49.1506283"><time>2022-10-29T11:30:21.057</time></trkpt><trkpt lat="55.7655950" lon="49.1506217"><time>2022-10-29T11:30:24.057</time></trkpt><trkpt lat="55.7655533" lon="49.1505867"><time>2022-10-29T11:30:26.053</time></trkpt><trkpt lat="55.7655067" lon="49.1505383"><time>2022-10-29T11:30:28.057</time></trkpt><trkpt lat="55.7654617" lon="49.1504733"><time>2022-10-29T11:30:30.057</time></trkpt><trkpt lat="55.7654100" lon="49.1503867"><time>2022-10-29T11:30:32.057</time></trkpt><trkpt lat="55.7653733" lon="49.1503167"><time>2022-10-29T11:30:34.057</time></trkpt><trkpt lat="55.7653333" lon="49.1502300"><time>2022-10-29T11:30:36.060</time></trkpt><trkpt lat="55.7652833" lon="49.1501800"><time>2022-10-29T11:30:38.057</time></trkpt><trkpt lat="55.7652467" lon="49.1501000"><time>2022-10-29T11:30:40.057</time></trkpt><trkpt lat="55.7652017" lon="49.1500317"><time>2022-10-29T11:30:42.060</time></trkpt><trkpt lat="55.7651483" lon="49.1499967"><time>2022-10-29T11:30:44.077</time></trkpt><trkpt lat="55.7651467" lon="49.1499933"><time>2022-10-29T11:30:45.540</time></trkpt><trkpt lat="55.7650967" lon="49.1499833"><time>2022-10-29T11:30:48.047</time></trkpt><trkpt lat="55.7650650" lon="49.1499017"><time>2022-10-29T11:30:51.047</time></trkpt><trkpt lat="55.7650333" lon="49.1498283"><time>2022-10-29T11:30:53.047</time></trkpt><trkpt lat="55.7649867" lon="49.1498283"><time>2022-10-29T11:30:55.047</time></trkpt><trkpt lat="55.7649467" lon="49.1497817"><time>2022-10-29T11:31:18.057</time></trkpt><trkpt lat="55.7649117" lon="49.1497267"><time>2022-10-29T11:31:26.060</time></trkpt><trkpt lat="55.7648700" lon="49.1496883"><time>2022-10-29T11:31:31.060</time></trkpt><trkpt lat="55.7648267" lon="49.1497133"><time>2022-10-29T11:31:36.027</time></trkpt><trkpt lat="55.7647917" lon="49.1497667"><time>2022-10-29T11:31:41.060</time></trkpt><trkpt lat="55.7647417" lon="49.1497867"><time>2022-10-29T11:31:45.060</time></trkpt><trkpt lat="55.7646933" lon="49.1497333"><time>2022-10-29T11:31:50.060</time></trkpt><trkpt lat="55.7646767" lon="49.1496467"><time>2022-10-29T11:31:54.077</time></trkpt><trkpt lat="55.7646617" lon="49.1495667"><time>2022-10-29T11:31:57.060</time></trkpt><trkpt lat="55.7646400" lon="49.1494850"><time>2022-10-29T11:32:00.067</time></trkpt><trkpt lat="55.7646050" lon="49.1494150"><time>2022-10-29T11:32:03.060</time></trkpt><trkpt lat="55.7645750" lon="49.1493483"><time>2022-10-29T11:32:06.060</time></trkpt><trkpt lat="55.7645517" lon="49.1492783"><time>2022-10-29T11:32:09.060</time></trkpt><trkpt lat="55.7645300" lon="49.1492017"><time>2022-10-29T11:32:12.060</time></trkpt><trkpt lat="55.7645517" lon="49.1491300"><time>2022-10-29T11:32:19.057</time></trkpt><trkpt lat="55.7645867" lon="49.1490750"><time>2022-10-29T11:32:25.063</time></trkpt><trkpt lat="55.7646317" lon="49.1490500"><time>2022-10-29T11:32:29.060</time></trkpt><trkpt lat="55.7646883" lon="49.1490350"><time>2022-10-29T11:32:34.047</time></trkpt><trkpt lat="55.7647300" lon="49.1490817"><time>2022-10-29T11:32:42.057</time></trkpt><trkpt lat="55.7646933" lon="49.1491483"><time>2022-10-29T11:32:45.063</time></trkpt><trkpt lat="55.7646350" lon="49.1491833"><time>2022-10-29T11:32:47.057</time></trkpt><trkpt lat="55.7645717" lon="49.1492350"><time>2022-10-29T11:32:49.057</time></trkpt><trkpt lat="55.7644833" lon="49.1493050"><time>2022-10-29T11:32:51.060</time></trkpt><trkpt lat="55.7644350" lon="49.1493367"><time>2022-10-29T11:32:52.057</time></trkpt><trkpt lat="55.7643900" lon="49.1493783"><time>2022-10-29T11:32:53.060</time></trkpt><trkpt lat="55.7643500" lon="49.1494183"><time>2022-10-29T11:32:54.060</time></trkpt><trkpt lat="55.7642933" lon="49.1494900"><time>2022-10-29T11:32:56.073</time></trkpt><trkpt lat="55.7642950" lon="49.1494900"><time>2022-10-29T11:32:57.057</time></trkpt><trkpt lat="55.7642617" lon="49.1495567"><time>2022-10-29T11:32:59.047</time></trkpt><trkpt lat="55.7642233" lon="49.1496167"><time>2022-10-29T11:33:04.047</time></trkpt><trkpt lat="55.7641683" lon="49.1496283"><time>2022-10-29T11:33:09.047</time></trkpt><trkpt lat="55.7641150" lon="49.1496683"><time>2022-10-29T11:33:12.050</time></trkpt><trkpt lat="55.7640667" lon="49.1496917"><time>2022-10-29T11:33:15.047</time></trkpt><trkpt lat="55.7640083" lon="49.1496617"><time>2022-10-29T11:33:18.050</time></trkpt><trkpt lat="55.7639633" lon="49.1496333"><time>2022-10-29T11:33:21.050</time></trkpt><trkpt lat="55.7639150" lon="49.1496250"><time>2022-10-29T11:33:26.043</time></trkpt><trkpt lat="55.7638650" lon="49.1496200"><time>2022-10-29T11:33:33.057</time></trkpt><trkpt lat="55.7638183" lon="49.1496417"><time>2022-10-29T11:34:00.070</time></trkpt><trkpt lat="55.7638183" lon="49.1496417"><time>2022-10-29T11:34:01.053</time></trkpt><trkpt lat="55.7637867" lon="49.1495650"><time>2022-10-29T11:34:32.063</time></trkpt><trkpt lat="55.7637200" lon="49.1495017"><time>2022-10-29T11:34:34.063</time></trkpt><trkpt lat="55.7636750" lon="49.1494933"><time>2022-10-29T11:34:35.043</time></trkpt><trkpt lat="55.7636283" lon="49.1494967"><time>2022-10-29T11:34:36.060</time></trkpt><trkpt lat="55.7635833" lon="49.1495117"><time>2022-10-29T11:34:37.063</time></trkpt><trkpt lat="55.7507550" lon="49.1318850"><time>2022-10-29T11:34:39.067</time></trkpt><trkpt lat="55.7635200" lon="49.1495867"><time>2022-10-29T11:34:39.123</time></trkpt><trkpt lat="55.7634817" lon="49.1496833"><time>2022-10-29T11:34:41.073</time></trkpt><trkpt lat="55.7634817" lon="49.1496833"><time>2022-10-29T11:34:42.027</time></trkpt><trkpt lat="55.7634683" lon="49.1495900"><time>2022-10-29T11:34:46.047</time></trkpt><trkpt lat="55.7634983" lon="49.1494917"><time>2022-10-29T11:34:48.050</time></trkpt><trkpt lat="55.7635350" lon="49.1493300"><time>2022-10-29T11:34:50.050</time></trkpt><trkpt lat="55.7635567" lon="49.1492333"><time>2022-10-29T11:34:51.050</time></trkpt><trkpt lat="55.7635733" lon="49.1491300"><time>2022-10-29T11:34:52.047</time></trkpt><trkpt lat="55.7635900" lon="49.1490367"><time>2022-10-29T11:34:53.050</time></trkpt><trkpt lat="55.7636050" lon="49.1489417"><time>2022-10-29T11:34:54.047</time></trkpt><trkpt lat="55.7636183" lon="49.1488467"><time>2022-10-29T11:34:55.050</time></trkpt><trkpt lat="55.7636250" lon="49.1487517"><time>2022-10-29T11:34:56.053</time></trkpt><trkpt lat="55.7636367" lon="49.1486667"><time>2022-10-29T11:34:57.053</time></trkpt><trkpt lat="55.7636450" lon="49.1485783"><time>2022-10-29T11:34:58.053</time></trkpt><trkpt lat="55.7636717" lon="49.1484200"><time>2022-10-29T11:35:00.053</time></trkpt><trkpt lat="55.7636883" lon="49.1483383"><time>2022-10-29T11:35:01.050</time></trkpt><trkpt lat="55.7637067" lon="49.1482400"><time>2022-10-29T11:35:02.050</time></trkpt><trkpt lat="55.7637267" lon="49.1481500"><time>2022-10-29T11:35:03.050</time></trkpt><trkpt lat="55.7637450" lon="49.1479967"><time>2022-10-29T11:35:05.050</time></trkpt><trkpt lat="55.7637350" lon="49.1478783"><time>2022-10-29T11:35:07.050</time></trkpt><trkpt lat="55.7637367" lon="49.1477350"><time>2022-10-29T11:35:09.057</time></trkpt><trkpt lat="55.7637433" lon="49.1476467"><time>2022-10-29T11:35:10.057</time></trkpt><trkpt lat="55.7637500" lon="49.1475550"><time>2022-10-29T11:35:11.040</time></trkpt><trkpt lat="55.7637533" lon="49.1474600"><time>2022-10-29T11:35:12.060</time></trkpt><trkpt lat="55.7637567" lon="49.1473633"><time>2022-10-29T11:35:13.063</time></trkpt><trkpt lat="55.7637617" lon="49.1472617"><time>2022-10-29T11:35:14.063</time></trkpt><trkpt lat="55.7637650" lon="49.1471650"><time>2022-10-29T11:35:15.057</time></trkpt><trkpt lat="55.7637650" lon="49.1470717"><time>2022-10-29T11:35:16.060</time></trkpt><trkpt lat="55.7637683" lon="49.1469850"><time>2022-10-29T11:35:17.060</time></trkpt><trkpt lat="55.7637733" lon="49.1468933"><time>2022-10-29T11:35:18.060</time></trkpt><trkpt lat="55.7637717" lon="49.1468017"><time>2022-10-29T11:35:19.060</time></trkpt><trkpt lat="55.7637783" lon="49.1467017"><time>2022-10-29T11:35:20.060</time></trkpt><trkpt lat="55.7637850" lon="49.1466133"><time>2022-10-29T11:35:21.063</time></trkpt><trkpt lat="55.7638000" lon="49.1465150"><time>2022-10-29T11:35:22.060</time></trkpt><trkpt lat="55.7638183" lon="49.1464200"><time>2022-10-29T11:35:23.060</time></trkpt><trkpt lat="55.7638333" lon="49.1463117"><time>2022-10-29T11:35:24.057</time></trkpt><trkpt lat="55.7638417" lon="49.1462183"><time>2022-10-29T11:35:25.030</time></trkpt><trkpt lat="55.7638400" lon="49.1461100"><time>2022-10-29T11:35:26.053</time></trkpt><trkpt lat="55.7638383" lon="49.1460033"><time>2022-10-29T11:35:27.057</time></trkpt><trkpt lat="55.7638450" lon="49.1459033"><time>2022-10-29T11:35:28.060</time></trkpt><trkpt lat="55.7638550" lon="49.1458067"><time>2022-10-29T11:35:29.060</time></trkpt><trkpt lat="55.7638633" lon="49.1456950"><time>2022-10-29T11:35:30.060</time></trkpt><trkpt lat="55.7638667" lon="49.1455917"><time>2022-10-29T11:35:31.057</time></trkpt><trkpt lat="55.7638717" lon="49.1454933"><time>2022-10-29T11:35:32.060</time></trkpt><trkpt lat="55.7638800" lon="49.1454000"><time>2022-10-29T11:35:33.060</time></trkpt><trkpt lat="55.7638917" lon="49.1452950"><time>2022-10-29T11:35:34.057</time></trkpt><trkpt lat="55.7638983" lon="49.1451933"><time>2022-10-29T11:35:35.057</time></trkpt><trkpt lat="55.7639017" lon="49.1450950"><time>2022-10-29T11:35:36.053</time></trkpt><trkpt lat="55.7638983" lon="49.1450033"><time>2022-10-29T11:35:37.057</time></trkpt><trkpt lat="55.7639000" lon="49.1449050"><time>2022-10-29T11:35:38.057</time></trkpt><trkpt lat="55.7639100" lon="49.1448100"><time>2022-10-29T11:35:39.057</time></trkpt><trkpt lat="55.7639167" lon="49.1447033"><time>2022-10-29T11:35:40.057</time></trkpt><trkpt lat="55.7639183" lon="49.1445967"><time>2022-10-29T11:35:41.060</time></trkpt><trkpt lat="55.7639117" lon="49.1444900"><time>2022-10-29T11:35:42.057</time></trkpt><trkpt lat="55.7639233" lon="49.1443767"><time>2022-10-29T11:35:43.057</time></trkpt><trkpt lat="55.7639267" lon="49.1442700"><time>2022-10-29T11:35:44.060</time></trkpt><trkpt lat="55.7639350" lon="49.1441550"><time>2022-10-29T11:35:45.057</time></trkpt><trkpt lat="55.7639383" lon="49.1440367"><time>2022-10-29T11:35:46.057</time></trkpt><trkpt lat="55.7639500" lon="49.1439183"><time>2022-10-29T11:35:47.057</time></trkpt><trkpt lat="55.7639517" lon="49.1437933"><time>2022-10-29T11:35:48.057</time></trkpt><trkpt lat="55.7639533" lon="49.1436667"><time>2022-10-29T11:35:49.060</time></trkpt><trkpt lat="55.7639533" lon="49.1435550"><time>2022-10-29T11:35:50.060</time></trkpt><trkpt lat="55.7639500" lon="49.1434483"><time>2022-10-29T11:35:51.060</time></trkpt><trkpt lat="55.7639500" lon="49.1433383"><time>2022-10-29T11:35:52.060</time></trkpt><trkpt lat="55.7639517" lon="49.1432250"><time>2022-10-29T11:35:53.060</time></trkpt><trkpt lat="55.7639517" lon="49.1431183"><time>2022-10-29T11:35:54.060</time></trkpt><trkpt lat="55.7639417" lon="49.1430150"><time>2022-10-29T11:35:55.047</time></trkpt><trkpt lat="55.7639350" lon="49.1429117"><time>2022-10-29T11:35:56.057</time></trkpt><trkpt lat="55.7639283" lon="49.1428117"><time>2022-10-29T11:35:57.050</time></trkpt><trkpt lat="55.7639217" lon="49.1427117"><time>2022-10-29T11:35:58.060</time></trkpt><trkpt lat="55.7639117" lon="49.1426100"><time>2022-10-29T11:35:59.057</time></trkpt><trkpt lat="55.7638967" lon="49.1425183"><time>2022-10-29T11:36:00.057</time></trkpt><trkpt lat="55.7638717" lon="49.1423717"><time>2022-10-29T11:36:02.057</time></trkpt><trkpt lat="55.7638633" lon="49.1422850"><time>2022-10-29T11:36:03.047</time></trkpt><trkpt lat="55.7638600" lon="49.1421900"><time>2022-10-29T11:36:04.047</time></trkpt><trkpt lat="55.7638583" lon="49.1420883"><time>2022-10-29T11:36:05.057</time></trkpt><trkpt lat="55.7638633" lon="49.1419933"><time>2022-10-29T11:36:06.060</time></trkpt><trkpt lat="55.7638633" lon="49.1418917"><time>2022-10-29T11:36:07.050</time></trkpt><trkpt lat="55.7638600" lon="49.1417867"><time>2022-10-29T11:36:08.060</time></trkpt><trkpt lat="55.7638533" lon="49.1416817"><time>2022-10-29T11:36:09.060</time></trkpt><trkpt lat="55.7638467" lon="49.1415783"><time>2022-10-29T11:36:10.043</time></trkpt><trkpt lat="55.7638467" lon="49.1414933"><time>2022-10-29T11:36:11.057</time></trkpt><trkpt lat="55.7638450" lon="49.1414050"><time>2022-10-29T11:36:12.060</time></trkpt><trkpt lat="55.7638417" lon="49.1413133"><time>2022-10-29T11:36:13.060</time></trkpt><trkpt lat="55.7638450" lon="49.1411517"><time>2022-10-29T11:36:15.060</time></trkpt><trkpt lat="55.7638417" lon="49.1410600"><time>2022-10-29T11:36:16.057</time></trkpt><trkpt lat="55.7638350" lon="49.1409600"><time>2022-10-29T11:36:17.057</time></trkpt><trkpt lat="55.7638300" lon="49.1408600"><time>2022-10-29T11:36:18.057</time></trkpt><trkpt lat="55.7638267" lon="49.1407783"><time>2022-10-29T11:36:19.057</time></trkpt><trkpt lat="55.7638217" lon="49.1406900"><time>2022-10-29T11:36:20.057</time></trkpt><trkpt lat="55.7638150" lon="49.1406017"><time>2022-10-29T11:36:21.060</time></trkpt><trkpt lat="55.7638083" lon="49.1405200"><time>2022-10-29T11:36:22.060</time></trkpt><trkpt lat="55.7638017" lon="49.1404383"><time>2022-10-29T11:36:23.060</time></trkpt><trkpt lat="55.7637933" lon="49.1403533"><time>2022-10-29T11:36:24.060</time></trkpt><trkpt lat="55.7637883" lon="49.1402700"><time>2022-10-29T11:36:25.063</time></trkpt><trkpt lat="55.7637833" lon="49.1401867"><time>2022-10-29T11:36:26.063</time></trkpt><trkpt lat="55.7637800" lon="49.1401033"><time>2022-10-29T11:36:27.060</time></trkpt><trkpt lat="55.7637817" lon="49.1400183"><time>2022-10-29T11:36:28.060</time></trkpt><trkpt lat="55.7637833" lon="49.1399300"><time>2022-10-29T11:36:29.060</time></trkpt><trkpt lat="55.7637817" lon="49.1398450"><time>2022-10-29T11:36:30.057</time></trkpt><trkpt lat="55.7637683" lon="49.1397550"><time>2022-10-29T11:36:31.060</time></trkpt><trkpt lat="55.7637500" lon="49.1396817"><time>2022-10-29T11:36:32.063</time></trkpt><trkpt lat="55.7637417" lon="49.1396017"><time>2022-10-29T11:36:33.057</time></trkpt><trkpt lat="55.7637333" lon="49.1395133"><time>2022-10-29T11:36:34.063</time></trkpt><trkpt lat="55.7637100" lon="49.1393617"><time>2022-10-29T11:36:36.057</time></trkpt><trkpt lat="55.7636850" lon="49.1392067"><time>2022-10-29T11:36:38.057</time></trkpt><trkpt lat="55.7636717" lon="49.1391100"><time>2022-10-29T11:36:39.057</time></trkpt><trkpt lat="55.7636567" lon="49.1390100"><time>2022-10-29T11:36:40.060</time></trkpt><trkpt lat="55.7636383" lon="49.1389200"><time>2022-10-29T11:36:41.060</time></trkpt><trkpt lat="55.7636283" lon="49.1388333"><time>2022-10-29T11:36:42.060</time></trkpt><trkpt lat="55.7636183" lon="49.1387517"><time>2022-10-29T11:36:43.057</time></trkpt><trkpt lat="55.7635967" lon="49.1386350"><time>2022-10-29T11:36:45.057</time></trkpt><trkpt lat="55.7635633" lon="49.1385400"><time>2022-10-29T11:36:52.033</time></trkpt><trkpt lat="55.7635433" lon="49.1384400"><time>2022-10-29T11:36:54.057</time></trkpt><trkpt lat="55.7635083" lon="49.1383217"><time>2022-10-29T11:36:56.063</time></trkpt><trkpt lat="55.7634850" lon="49.1382000"><time>2022-10-29T11:36:58.050</time></trkpt><trkpt lat="55.7634583" lon="49.1380850"><time>2022-10-29T11:37:00.057</time></trkpt><trkpt lat="55.7634367" lon="49.1379750"><time>2022-10-29T11:37:02.060</time></trkpt><trkpt lat="55.7634100" lon="49.1378700"><time>2022-10-29T11:37:04.053</time></trkpt><trkpt lat="55.7633833" lon="49.1377617"><time>2022-10-29T11:37:06.060</time></trkpt><trkpt lat="55.7633517" lon="49.1376567"><time>2022-10-29T11:37:08.060</time></trkpt><trkpt lat="55.7633117" lon="49.1375450"><time>2022-10-29T11:37:10.060</time></trkpt><trkpt lat="55.7632617" lon="49.1374317"><time>2022-10-29T11:37:12.057</time></trkpt><trkpt lat="55.7632167" lon="49.1373200"><time>2022-10-29T11:37:14.063</time></trkpt><trkpt lat="55.7631917" lon="49.1372517"><time>2022-10-29T11:37:15.057</time></trkpt><trkpt lat="55.7631550" lon="49.1371167"><time>2022-10-29T11:37:17.057</time></trkpt><trkpt lat="55.7631133" lon="49.1369733"><time>2022-10-29T11:37:19.057</time></trkpt><trkpt lat="55.7630783" lon="49.1369100"><time>2022-10-29T11:37:20.057</time></trkpt><trkpt lat="55.7630433" lon="49.1368567"><time>2022-10-29T11:37:21.057</time></trkpt><trkpt lat="55.7630067" lon="49.1367983"><time>2022-10-29T11:37:22.060</time></trkpt><trkpt lat="55.7629700" lon="49.1367333"><time>2022-10-29T11:37:23.057</time></trkpt><trkpt lat="55.7629350" lon="49.1366733"><time>2022-10-29T11:37:24.077</time></trkpt><trkpt lat="55.7628900" lon="49.1362383"><time>2022-10-29T11:37:25.070</time></trkpt><trkpt lat="55.7634250" lon="49.1489483"><time>2022-10-29T11:37:25.973</time></trkpt><trkpt lat="55.7634050" lon="49.1431067"><time>2022-10-29T11:37:26.463</time></trkpt><trkpt lat="55.7628183" lon="49.1365067"><time>2022-10-29T11:37:27.050</time></trkpt><trkpt lat="55.7626817" lon="49.1367033"><time>2022-10-29T11:37:28.517</time></trkpt><trkpt lat="55.7625883" lon="49.1367017"><time>2022-10-29T11:37:29.007</time></trkpt><trkpt lat="55.7625183" lon="49.1367767"><time>2022-10-29T11:37:32.027</time></trkpt><trkpt lat="55.7624733" lon="49.1367967"><time>2022-10-29T11:37:33.047</time></trkpt><trkpt lat="55.7623783" lon="49.1368417"><time>2022-10-29T11:37:35.047</time></trkpt><trkpt lat="55.7623333" lon="49.1368783"><time>2022-10-29T11:37:36.050</time></trkpt><trkpt lat="55.7622883" lon="49.1369033"><time>2022-10-29T11:37:37.047</time></trkpt><trkpt lat="55.7622433" lon="49.1369317"><time>2022-10-29T11:37:38.047</time></trkpt><trkpt lat="55.7622017" lon="49.1369733"><time>2022-10-29T11:37:39.050</time></trkpt><trkpt lat="55.7621583" lon="49.1370117"><time>2022-10-29T11:37:40.050</time></trkpt><trkpt lat="55.7621150" lon="49.1370433"><time>2022-10-29T11:37:41.053</time></trkpt><trkpt lat="55.7620750" lon="49.1370800"><time>2022-10-29T11:37:42.050</time></trkpt><trkpt lat="55.7620317" lon="49.1371083"><time>2022-10-29T11:37:43.057</time></trkpt><trkpt lat="55.7620300" lon="49.1371100"><time>2022-10-29T11:37:44.527</time></trkpt><trkpt lat="55.7619600" lon="49.1371533"><time>2022-10-29T11:37:46.547</time></trkpt><trkpt lat="55.7618900" lon="49.1371933"><time>2022-10-29T11:37:48.047</time></trkpt><trkpt lat="55.7618333" lon="49.1371900"><time>2022-10-29T11:37:49.050</time></trkpt><trkpt lat="55.7617783" lon="49.1371800"><time>2022-10-29T11:37:50.037</time></trkpt><trkpt lat="55.7617217" lon="49.1371633"><time>2022-10-29T11:37:51.047</time></trkpt><trkpt lat="55.7616683" lon="49.1371700"><time>2022-10-29T11:37:52.050</time></trkpt><trkpt lat="55.7616167" lon="49.1371783"><time>2022-10-29T11:37:53.050</time></trkpt><trkpt lat="55.7615567" lon="49.1371967"><time>2022-10-29T11:37:54.063</time></trkpt><trkpt lat="55.7615567" lon="49.1371967"><time>2022-10-29T11:37:55.033</time></trkpt><trkpt lat="55.7614767" lon="49.1372083"><time>2022-10-29T11:37:56.547</time></trkpt><trkpt lat="55.7614217" lon="49.1372033"><time>2022-10-29T11:37:57.547</time></trkpt><trkpt lat="55.7613450" lon="49.1372283"><time>2022-10-29T11:37:59.047</time></trkpt><trkpt lat="55.7612900" lon="49.1372533"><time>2022-10-29T11:38:00.047</time></trkpt><trkpt lat="55.7612400" lon="49.1373000"><time>2022-10-29T11:38:01.047</time></trkpt><trkpt lat="55.7612333" lon="49.1374283"><time>2022-10-29T11:38:03.053</time></trkpt><trkpt lat="55.7612483" lon="49.1375267"><time>2022-10-29T11:38:05.047</time></trkpt><trkpt lat="55.7612300" lon="49.1376183"><time>2022-10-29T11:38:07.047</time></trkpt><trkpt lat="55.7612083" lon="49.1376983"><time>2022-10-29T11:38:09.053</time></trkpt></trkseg></trk></gpx>